<?xml version="1.0" encoding="UTF-8" standalone="no" ?>
<gpx xmlns="http://www.topografix.com/GPX/1/1" xmlns:xsi="http://www.w3.org/2001/XMLSchema-instance" xsi:schemaLocation="http://www.topografix.com/GPX/1/1 http://www.topografix.com/GPX/1/1/gpx.xsd" version="1.1" creator="VisuGPX - https://www.visugpx.com">
  <metadata>
    <name>SO 906</name>
  </metadata>
  <trk>
    <name><![CDATA[Plus court...maisplus rapide que les week-end précédents...😃]]></name>
    <trkseg>
      <trkpt lat="49.28635" lon="-0.11933">
        <ele>6.8</ele>
        <time>2024-05-26T06:32:52Z</time>
      </trkpt>
      <trkpt lat="49.28634" lon="-0.11933">
        <ele>4</ele>
        <time>2024-05-26T06:32:53Z</time>
      </trkpt>
      <trkpt lat="49.28633" lon="-0.11934">
        <ele>4.6</ele>
        <time>2024-05-26T06:32:54Z</time>
      </trkpt>
      <trkpt lat="49.2863" lon="-0.11937">
        <ele>4.6</ele>
        <time>2024-05-26T06:32:55Z</time>
      </trkpt>
      <trkpt lat="49.28627" lon="-0.1194">
        <ele>4.4</ele>
        <time>2024-05-26T06:32:56Z</time>
      </trkpt>
      <trkpt lat="49.28627" lon="-0.11944">
        <ele>4.4</ele>
        <time>2024-05-26T06:32:57Z</time>
      </trkpt>
      <trkpt lat="49.28624" lon="-0.1195">
        <ele>4.2</ele>
        <time>2024-05-26T06:32:58Z</time>
      </trkpt>
      <trkpt lat="49.28623" lon="-0.11953">
        <ele>4.2</ele>
        <time>2024-05-26T06:32:59Z</time>
      </trkpt>
      <trkpt lat="49.2862" lon="-0.11958">
        <ele>4.2</ele>
        <time>2024-05-26T06:33:00Z</time>
      </trkpt>
      <trkpt lat="49.28617" lon="-0.11962">
        <ele>4.2</ele>
        <time>2024-05-26T06:33:01Z</time>
      </trkpt>
      <trkpt lat="49.28615" lon="-0.11965">
        <ele>4.2</ele>
        <time>2024-05-26T06:33:02Z</time>
      </trkpt>
      <trkpt lat="49.28611" lon="-0.11968">
        <ele>4.4</ele>
        <time>2024-05-26T06:33:03Z</time>
      </trkpt>
      <trkpt lat="49.28608" lon="-0.11969">
        <ele>4.4</ele>
        <time>2024-05-26T06:33:04Z</time>
      </trkpt>
      <trkpt lat="49.28604" lon="-0.11969">
        <ele>4.4</ele>
        <time>2024-05-26T06:33:05Z</time>
      </trkpt>
      <trkpt lat="49.28602" lon="-0.1197">
        <ele>4.2</ele>
        <time>2024-05-26T06:33:06Z</time>
      </trkpt>
      <trkpt lat="49.28599" lon="-0.11972">
        <ele>4.2</ele>
        <time>2024-05-26T06:33:07Z</time>
      </trkpt>
      <trkpt lat="49.28597" lon="-0.11974">
        <ele>4.4</ele>
        <time>2024-05-26T06:33:08Z</time>
      </trkpt>
      <trkpt lat="49.28595" lon="-0.11976">
        <ele>4.4</ele>
        <time>2024-05-26T06:33:09Z</time>
      </trkpt>
      <trkpt lat="49.28592" lon="-0.1198">
        <ele>4.4</ele>
        <time>2024-05-26T06:33:10Z</time>
      </trkpt>
      <trkpt lat="49.28591" lon="-0.11983">
        <ele>4.4</ele>
        <time>2024-05-26T06:33:11Z</time>
      </trkpt>
      <trkpt lat="49.28589" lon="-0.11986">
        <ele>4.4</ele>
        <time>2024-05-26T06:33:12Z</time>
      </trkpt>
      <trkpt lat="49.28587" lon="-0.1199">
        <ele>4.4</ele>
        <time>2024-05-26T06:33:13Z</time>
      </trkpt>
      <trkpt lat="49.28585" lon="-0.11994">
        <ele>4.4</ele>
        <time>2024-05-26T06:33:14Z</time>
      </trkpt>
      <trkpt lat="49.28583" lon="-0.11997">
        <ele>4.4</ele>
        <time>2024-05-26T06:33:15Z</time>
      </trkpt>
      <trkpt lat="49.2858" lon="-0.12001">
        <ele>4.4</ele>
        <time>2024-05-26T06:33:16Z</time>
      </trkpt>
      <trkpt lat="49.28578" lon="-0.12005">
        <ele>4.4</ele>
        <time>2024-05-26T06:33:17Z</time>
      </trkpt>
      <trkpt lat="49.28576" lon="-0.12008">
        <ele>4.4</ele>
        <time>2024-05-26T06:33:18Z</time>
      </trkpt>
      <trkpt lat="49.28574" lon="-0.12012">
        <ele>4.4</ele>
        <time>2024-05-26T06:33:19Z</time>
      </trkpt>
      <trkpt lat="49.28571" lon="-0.12017">
        <ele>4.4</ele>
        <time>2024-05-26T06:33:20Z</time>
      </trkpt>
      <trkpt lat="49.28569" lon="-0.12022">
        <ele>4.4</ele>
        <time>2024-05-26T06:33:21Z</time>
      </trkpt>
      <trkpt lat="49.28566" lon="-0.12026">
        <ele>4.4</ele>
        <time>2024-05-26T06:33:22Z</time>
      </trkpt>
      <trkpt lat="49.28564" lon="-0.12031">
        <ele>4.4</ele>
        <time>2024-05-26T06:33:23Z</time>
      </trkpt>
      <trkpt lat="49.28561" lon="-0.12036">
        <ele>4.4</ele>
        <time>2024-05-26T06:33:24Z</time>
      </trkpt>
      <trkpt lat="49.28558" lon="-0.12041">
        <ele>4.2</ele>
        <time>2024-05-26T06:33:25Z</time>
      </trkpt>
      <trkpt lat="49.28555" lon="-0.12046">
        <ele>4.2</ele>
        <time>2024-05-26T06:33:26Z</time>
      </trkpt>
      <trkpt lat="49.28552" lon="-0.12052">
        <ele>4.2</ele>
        <time>2024-05-26T06:33:27Z</time>
      </trkpt>
      <trkpt lat="49.28549" lon="-0.12058">
        <ele>4.2</ele>
        <time>2024-05-26T06:33:28Z</time>
      </trkpt>
      <trkpt lat="49.28546" lon="-0.12065">
        <ele>4</ele>
        <time>2024-05-26T06:33:29Z</time>
      </trkpt>
      <trkpt lat="49.28543" lon="-0.12071">
        <ele>4</ele>
        <time>2024-05-26T06:33:30Z</time>
      </trkpt>
      <trkpt lat="49.28539" lon="-0.12077">
        <ele>4</ele>
        <time>2024-05-26T06:33:31Z</time>
      </trkpt>
      <trkpt lat="49.28535" lon="-0.12084">
        <ele>4</ele>
        <time>2024-05-26T06:33:32Z</time>
      </trkpt>
      <trkpt lat="49.28531" lon="-0.12091">
        <ele>4</ele>
        <time>2024-05-26T06:33:33Z</time>
      </trkpt>
      <trkpt lat="49.28528" lon="-0.12098">
        <ele>4</ele>
        <time>2024-05-26T06:33:34Z</time>
      </trkpt>
      <trkpt lat="49.28524" lon="-0.12104">
        <ele>4</ele>
        <time>2024-05-26T06:33:35Z</time>
      </trkpt>
      <trkpt lat="49.2852" lon="-0.12111">
        <ele>3.8</ele>
        <time>2024-05-26T06:33:36Z</time>
      </trkpt>
      <trkpt lat="49.28516" lon="-0.12117">
        <ele>3.8</ele>
        <time>2024-05-26T06:33:37Z</time>
      </trkpt>
      <trkpt lat="49.28512" lon="-0.12124">
        <ele>3.8</ele>
        <time>2024-05-26T06:33:38Z</time>
      </trkpt>
      <trkpt lat="49.28509" lon="-0.1213">
        <ele>3.8</ele>
        <time>2024-05-26T06:33:39Z</time>
      </trkpt>
      <trkpt lat="49.28506" lon="-0.12136">
        <ele>3.8</ele>
        <time>2024-05-26T06:33:40Z</time>
      </trkpt>
      <trkpt lat="49.28502" lon="-0.12143">
        <ele>3.8</ele>
        <time>2024-05-26T06:33:41Z</time>
      </trkpt>
      <trkpt lat="49.28498" lon="-0.12149">
        <ele>3.8</ele>
        <time>2024-05-26T06:33:42Z</time>
      </trkpt>
      <trkpt lat="49.28495" lon="-0.12155">
        <ele>3.6</ele>
        <time>2024-05-26T06:33:43Z</time>
      </trkpt>
      <trkpt lat="49.28491" lon="-0.12161">
        <ele>3.6</ele>
        <time>2024-05-26T06:33:44Z</time>
      </trkpt>
      <trkpt lat="49.28487" lon="-0.12167">
        <ele>3.6</ele>
        <time>2024-05-26T06:33:45Z</time>
      </trkpt>
      <trkpt lat="49.28484" lon="-0.12174">
        <ele>3.6</ele>
        <time>2024-05-26T06:33:46Z</time>
      </trkpt>
      <trkpt lat="49.2848" lon="-0.1218">
        <ele>3.6</ele>
        <time>2024-05-26T06:33:47Z</time>
      </trkpt>
      <trkpt lat="49.28477" lon="-0.12186">
        <ele>3.6</ele>
        <time>2024-05-26T06:33:48Z</time>
      </trkpt>
      <trkpt lat="49.28474" lon="-0.12193">
        <ele>3.6</ele>
        <time>2024-05-26T06:33:49Z</time>
      </trkpt>
      <trkpt lat="49.28471" lon="-0.12199">
        <ele>3.6</ele>
        <time>2024-05-26T06:33:50Z</time>
      </trkpt>
      <trkpt lat="49.28468" lon="-0.12206">
        <ele>3.6</ele>
        <time>2024-05-26T06:33:51Z</time>
      </trkpt>
      <trkpt lat="49.28464" lon="-0.12213">
        <ele>3.6</ele>
        <time>2024-05-26T06:33:52Z</time>
      </trkpt>
      <trkpt lat="49.28461" lon="-0.1222">
        <ele>3.6</ele>
        <time>2024-05-26T06:33:53Z</time>
      </trkpt>
      <trkpt lat="49.28457" lon="-0.12228">
        <ele>3.6</ele>
        <time>2024-05-26T06:33:54Z</time>
      </trkpt>
      <trkpt lat="49.28453" lon="-0.12235">
        <ele>3.6</ele>
        <time>2024-05-26T06:33:55Z</time>
      </trkpt>
      <trkpt lat="49.28448" lon="-0.12243">
        <ele>3.6</ele>
        <time>2024-05-26T06:33:56Z</time>
      </trkpt>
      <trkpt lat="49.28444" lon="-0.12251">
        <ele>3.4</ele>
        <time>2024-05-26T06:33:57Z</time>
      </trkpt>
      <trkpt lat="49.2844" lon="-0.12259">
        <ele>3.4</ele>
        <time>2024-05-26T06:33:58Z</time>
      </trkpt>
      <trkpt lat="49.28436" lon="-0.12266">
        <ele>3.4</ele>
        <time>2024-05-26T06:33:59Z</time>
      </trkpt>
      <trkpt lat="49.28432" lon="-0.12274">
        <ele>3.4</ele>
        <time>2024-05-26T06:34:00Z</time>
      </trkpt>
      <trkpt lat="49.28428" lon="-0.12281">
        <ele>3.4</ele>
        <time>2024-05-26T06:34:01Z</time>
      </trkpt>
      <trkpt lat="49.28423" lon="-0.12288">
        <ele>3.4</ele>
        <time>2024-05-26T06:34:02Z</time>
      </trkpt>
      <trkpt lat="49.28419" lon="-0.12295">
        <ele>3.4</ele>
        <time>2024-05-26T06:34:03Z</time>
      </trkpt>
      <trkpt lat="49.28415" lon="-0.12302">
        <ele>3.2</ele>
        <time>2024-05-26T06:34:04Z</time>
      </trkpt>
      <trkpt lat="49.28411" lon="-0.12309">
        <ele>3.2</ele>
        <time>2024-05-26T06:34:05Z</time>
      </trkpt>
      <trkpt lat="49.28407" lon="-0.12315">
        <ele>3.2</ele>
        <time>2024-05-26T06:34:06Z</time>
      </trkpt>
      <trkpt lat="49.28404" lon="-0.12321">
        <ele>3.2</ele>
        <time>2024-05-26T06:34:07Z</time>
      </trkpt>
      <trkpt lat="49.284" lon="-0.12327">
        <ele>3.2</ele>
        <time>2024-05-26T06:34:08Z</time>
      </trkpt>
      <trkpt lat="49.28397" lon="-0.12333">
        <ele>3.2</ele>
        <time>2024-05-26T06:34:09Z</time>
      </trkpt>
      <trkpt lat="49.28394" lon="-0.12339">
        <ele>3.2</ele>
        <time>2024-05-26T06:34:10Z</time>
      </trkpt>
      <trkpt lat="49.2839" lon="-0.12345">
        <ele>3.2</ele>
        <time>2024-05-26T06:34:11Z</time>
      </trkpt>
      <trkpt lat="49.28387" lon="-0.12351">
        <ele>3.2</ele>
        <time>2024-05-26T06:34:12Z</time>
      </trkpt>
      <trkpt lat="49.28383" lon="-0.12357">
        <ele>3.2</ele>
        <time>2024-05-26T06:34:13Z</time>
      </trkpt>
      <trkpt lat="49.2838" lon="-0.12363">
        <ele>3.4</ele>
        <time>2024-05-26T06:34:14Z</time>
      </trkpt>
      <trkpt lat="49.28377" lon="-0.12369">
        <ele>3.4</ele>
        <time>2024-05-26T06:34:15Z</time>
      </trkpt>
      <trkpt lat="49.28373" lon="-0.12374">
        <ele>3.4</ele>
        <time>2024-05-26T06:34:16Z</time>
      </trkpt>
      <trkpt lat="49.2837" lon="-0.1238">
        <ele>3.4</ele>
        <time>2024-05-26T06:34:17Z</time>
      </trkpt>
      <trkpt lat="49.28366" lon="-0.12386">
        <ele>3.4</ele>
        <time>2024-05-26T06:34:18Z</time>
      </trkpt>
      <trkpt lat="49.28363" lon="-0.12391">
        <ele>3.4</ele>
        <time>2024-05-26T06:34:19Z</time>
      </trkpt>
      <trkpt lat="49.2836" lon="-0.12397">
        <ele>3.4</ele>
        <time>2024-05-26T06:34:20Z</time>
      </trkpt>
      <trkpt lat="49.28358" lon="-0.12404">
        <ele>3.4</ele>
        <time>2024-05-26T06:34:21Z</time>
      </trkpt>
      <trkpt lat="49.28356" lon="-0.12411">
        <ele>3.4</ele>
        <time>2024-05-26T06:34:22Z</time>
      </trkpt>
      <trkpt lat="49.28356" lon="-0.12419">
        <ele>3.4</ele>
        <time>2024-05-26T06:34:23Z</time>
      </trkpt>
      <trkpt lat="49.28357" lon="-0.12427">
        <ele>3.4</ele>
        <time>2024-05-26T06:34:24Z</time>
      </trkpt>
      <trkpt lat="49.28359" lon="-0.12435">
        <ele>3.4</ele>
        <time>2024-05-26T06:34:25Z</time>
      </trkpt>
      <trkpt lat="49.28362" lon="-0.12442">
        <ele>3.4</ele>
        <time>2024-05-26T06:34:26Z</time>
      </trkpt>
      <trkpt lat="49.28366" lon="-0.12448">
        <ele>3.4</ele>
        <time>2024-05-26T06:34:27Z</time>
      </trkpt>
      <trkpt lat="49.2837" lon="-0.12454">
        <ele>3.4</ele>
        <time>2024-05-26T06:34:28Z</time>
      </trkpt>
      <trkpt lat="49.28374" lon="-0.12459">
        <ele>3.4</ele>
        <time>2024-05-26T06:34:29Z</time>
      </trkpt>
      <trkpt lat="49.28378" lon="-0.12464">
        <ele>3.4</ele>
        <time>2024-05-26T06:34:30Z</time>
      </trkpt>
      <trkpt lat="49.28383" lon="-0.12468">
        <ele>3.4</ele>
        <time>2024-05-26T06:34:31Z</time>
      </trkpt>
      <trkpt lat="49.28388" lon="-0.12473">
        <ele>3.4</ele>
        <time>2024-05-26T06:34:32Z</time>
      </trkpt>
      <trkpt lat="49.28392" lon="-0.12477">
        <ele>3.4</ele>
        <time>2024-05-26T06:34:33Z</time>
      </trkpt>
      <trkpt lat="49.28396" lon="-0.12482">
        <ele>3.4</ele>
        <time>2024-05-26T06:34:34Z</time>
      </trkpt>
      <trkpt lat="49.284" lon="-0.12486">
        <ele>3.4</ele>
        <time>2024-05-26T06:34:35Z</time>
      </trkpt>
      <trkpt lat="49.28405" lon="-0.12491">
        <ele>3.4</ele>
        <time>2024-05-26T06:34:36Z</time>
      </trkpt>
      <trkpt lat="49.2841" lon="-0.12495">
        <ele>3.4</ele>
        <time>2024-05-26T06:34:37Z</time>
      </trkpt>
      <trkpt lat="49.28415" lon="-0.12499">
        <ele>3.4</ele>
        <time>2024-05-26T06:34:38Z</time>
      </trkpt>
      <trkpt lat="49.2842" lon="-0.12503">
        <ele>3.6</ele>
        <time>2024-05-26T06:34:39Z</time>
      </trkpt>
      <trkpt lat="49.28425" lon="-0.12507">
        <ele>3.6</ele>
        <time>2024-05-26T06:34:40Z</time>
      </trkpt>
      <trkpt lat="49.28431" lon="-0.1251">
        <ele>3.6</ele>
        <time>2024-05-26T06:34:41Z</time>
      </trkpt>
      <trkpt lat="49.28436" lon="-0.12513">
        <ele>3.6</ele>
        <time>2024-05-26T06:34:42Z</time>
      </trkpt>
      <trkpt lat="49.28442" lon="-0.12516">
        <ele>3.8</ele>
        <time>2024-05-26T06:34:43Z</time>
      </trkpt>
      <trkpt lat="49.28448" lon="-0.12519">
        <ele>3.8</ele>
        <time>2024-05-26T06:34:44Z</time>
      </trkpt>
      <trkpt lat="49.28453" lon="-0.12522">
        <ele>3.8</ele>
        <time>2024-05-26T06:34:45Z</time>
      </trkpt>
      <trkpt lat="49.2846" lon="-0.12525">
        <ele>3.8</ele>
        <time>2024-05-26T06:34:46Z</time>
      </trkpt>
      <trkpt lat="49.28466" lon="-0.12527">
        <ele>4</ele>
        <time>2024-05-26T06:34:47Z</time>
      </trkpt>
      <trkpt lat="49.28471" lon="-0.12529">
        <ele>4</ele>
        <time>2024-05-26T06:34:48Z</time>
      </trkpt>
      <trkpt lat="49.28476" lon="-0.12532">
        <ele>4</ele>
        <time>2024-05-26T06:34:49Z</time>
      </trkpt>
      <trkpt lat="49.28482" lon="-0.12534">
        <ele>4</ele>
        <time>2024-05-26T06:34:50Z</time>
      </trkpt>
      <trkpt lat="49.28487" lon="-0.12536">
        <ele>4</ele>
        <time>2024-05-26T06:34:51Z</time>
      </trkpt>
      <trkpt lat="49.28492" lon="-0.12538">
        <ele>4</ele>
        <time>2024-05-26T06:34:52Z</time>
      </trkpt>
      <trkpt lat="49.28497" lon="-0.1254">
        <ele>4</ele>
        <time>2024-05-26T06:34:53Z</time>
      </trkpt>
      <trkpt lat="49.28502" lon="-0.1254">
        <ele>4</ele>
        <time>2024-05-26T06:34:54Z</time>
      </trkpt>
      <trkpt lat="49.28508" lon="-0.12541">
        <ele>4</ele>
        <time>2024-05-26T06:34:55Z</time>
      </trkpt>
      <trkpt lat="49.28513" lon="-0.12541">
        <ele>4</ele>
        <time>2024-05-26T06:34:56Z</time>
      </trkpt>
      <trkpt lat="49.28518" lon="-0.12539">
        <ele>4</ele>
        <time>2024-05-26T06:34:57Z</time>
      </trkpt>
      <trkpt lat="49.28523" lon="-0.12537">
        <ele>4</ele>
        <time>2024-05-26T06:34:58Z</time>
      </trkpt>
      <trkpt lat="49.28528" lon="-0.12535">
        <ele>4</ele>
        <time>2024-05-26T06:34:59Z</time>
      </trkpt>
      <trkpt lat="49.28533" lon="-0.12534">
        <ele>4</ele>
        <time>2024-05-26T06:35:00Z</time>
      </trkpt>
      <trkpt lat="49.28538" lon="-0.12534">
        <ele>4</ele>
        <time>2024-05-26T06:35:01Z</time>
      </trkpt>
      <trkpt lat="49.28542" lon="-0.12536">
        <ele>4</ele>
        <time>2024-05-26T06:35:02Z</time>
      </trkpt>
      <trkpt lat="49.28546" lon="-0.1254">
        <ele>4</ele>
        <time>2024-05-26T06:35:03Z</time>
      </trkpt>
      <trkpt lat="49.2855" lon="-0.12546">
        <ele>4</ele>
        <time>2024-05-26T06:35:04Z</time>
      </trkpt>
      <trkpt lat="49.28552" lon="-0.12553">
        <ele>4</ele>
        <time>2024-05-26T06:35:05Z</time>
      </trkpt>
      <trkpt lat="49.28552" lon="-0.12561">
        <ele>4</ele>
        <time>2024-05-26T06:35:06Z</time>
      </trkpt>
      <trkpt lat="49.2855" lon="-0.12568">
        <ele>4</ele>
        <time>2024-05-26T06:35:07Z</time>
      </trkpt>
      <trkpt lat="49.28548" lon="-0.12574">
        <ele>4</ele>
        <time>2024-05-26T06:35:08Z</time>
      </trkpt>
      <trkpt lat="49.28544" lon="-0.1258">
        <ele>4</ele>
        <time>2024-05-26T06:35:09Z</time>
      </trkpt>
      <trkpt lat="49.2854" lon="-0.12587">
        <ele>4</ele>
        <time>2024-05-26T06:35:10Z</time>
      </trkpt>
      <trkpt lat="49.28536" lon="-0.12595">
        <ele>4</ele>
        <time>2024-05-26T06:35:11Z</time>
      </trkpt>
      <trkpt lat="49.28533" lon="-0.12603">
        <ele>4</ele>
        <time>2024-05-26T06:35:12Z</time>
      </trkpt>
      <trkpt lat="49.28529" lon="-0.12612">
        <ele>4</ele>
        <time>2024-05-26T06:35:13Z</time>
      </trkpt>
      <trkpt lat="49.28527" lon="-0.12621">
        <ele>3.8</ele>
        <time>2024-05-26T06:35:14Z</time>
      </trkpt>
      <trkpt lat="49.28524" lon="-0.12631">
        <ele>3.8</ele>
        <time>2024-05-26T06:35:15Z</time>
      </trkpt>
      <trkpt lat="49.28522" lon="-0.1264">
        <ele>3.8</ele>
        <time>2024-05-26T06:35:16Z</time>
      </trkpt>
      <trkpt lat="49.28519" lon="-0.1265">
        <ele>3.6</ele>
        <time>2024-05-26T06:35:17Z</time>
      </trkpt>
      <trkpt lat="49.28516" lon="-0.12659">
        <ele>3.6</ele>
        <time>2024-05-26T06:35:18Z</time>
      </trkpt>
      <trkpt lat="49.28514" lon="-0.12669">
        <ele>3.4</ele>
        <time>2024-05-26T06:35:19Z</time>
      </trkpt>
      <trkpt lat="49.28512" lon="-0.12679">
        <ele>3.4</ele>
        <time>2024-05-26T06:35:20Z</time>
      </trkpt>
      <trkpt lat="49.28509" lon="-0.12689">
        <ele>3.4</ele>
        <time>2024-05-26T06:35:21Z</time>
      </trkpt>
      <trkpt lat="49.28507" lon="-0.12699">
        <ele>3.2</ele>
        <time>2024-05-26T06:35:22Z</time>
      </trkpt>
      <trkpt lat="49.28505" lon="-0.12709">
        <ele>3</ele>
        <time>2024-05-26T06:35:23Z</time>
      </trkpt>
      <trkpt lat="49.28503" lon="-0.1272">
        <ele>3</ele>
        <time>2024-05-26T06:35:24Z</time>
      </trkpt>
      <trkpt lat="49.28502" lon="-0.1273">
        <ele>3</ele>
        <time>2024-05-26T06:35:25Z</time>
      </trkpt>
      <trkpt lat="49.285" lon="-0.1274">
        <ele>3</ele>
        <time>2024-05-26T06:35:26Z</time>
      </trkpt>
      <trkpt lat="49.28498" lon="-0.1275">
        <ele>2.8</ele>
        <time>2024-05-26T06:35:27Z</time>
      </trkpt>
      <trkpt lat="49.28495" lon="-0.1276">
        <ele>2.8</ele>
        <time>2024-05-26T06:35:28Z</time>
      </trkpt>
      <trkpt lat="49.28493" lon="-0.1277">
        <ele>2.8</ele>
        <time>2024-05-26T06:35:29Z</time>
      </trkpt>
      <trkpt lat="49.28491" lon="-0.1278">
        <ele>2.8</ele>
        <time>2024-05-26T06:35:30Z</time>
      </trkpt>
      <trkpt lat="49.28489" lon="-0.1279">
        <ele>2.8</ele>
        <time>2024-05-26T06:35:31Z</time>
      </trkpt>
      <trkpt lat="49.28487" lon="-0.12799">
        <ele>2.6</ele>
        <time>2024-05-26T06:35:32Z</time>
      </trkpt>
      <trkpt lat="49.28485" lon="-0.12808">
        <ele>2.6</ele>
        <time>2024-05-26T06:35:33Z</time>
      </trkpt>
      <trkpt lat="49.28484" lon="-0.12817">
        <ele>2.6</ele>
        <time>2024-05-26T06:35:34Z</time>
      </trkpt>
      <trkpt lat="49.28482" lon="-0.12826">
        <ele>2.6</ele>
        <time>2024-05-26T06:35:35Z</time>
      </trkpt>
      <trkpt lat="49.2848" lon="-0.12835">
        <ele>2.6</ele>
        <time>2024-05-26T06:35:36Z</time>
      </trkpt>
      <trkpt lat="49.28478" lon="-0.12845">
        <ele>2.6</ele>
        <time>2024-05-26T06:35:37Z</time>
      </trkpt>
      <trkpt lat="49.28476" lon="-0.12854">
        <ele>2.6</ele>
        <time>2024-05-26T06:35:38Z</time>
      </trkpt>
      <trkpt lat="49.28474" lon="-0.12864">
        <ele>2.6</ele>
        <time>2024-05-26T06:35:39Z</time>
      </trkpt>
      <trkpt lat="49.28472" lon="-0.12873">
        <ele>2.6</ele>
        <time>2024-05-26T06:35:40Z</time>
      </trkpt>
      <trkpt lat="49.28471" lon="-0.12883">
        <ele>2.6</ele>
        <time>2024-05-26T06:35:41Z</time>
      </trkpt>
      <trkpt lat="49.28469" lon="-0.12892">
        <ele>2.6</ele>
        <time>2024-05-26T06:35:42Z</time>
      </trkpt>
      <trkpt lat="49.28467" lon="-0.12901">
        <ele>2.6</ele>
        <time>2024-05-26T06:35:43Z</time>
      </trkpt>
      <trkpt lat="49.28465" lon="-0.1291">
        <ele>2.6</ele>
        <time>2024-05-26T06:35:44Z</time>
      </trkpt>
      <trkpt lat="49.28463" lon="-0.12919">
        <ele>2.6</ele>
        <time>2024-05-26T06:35:45Z</time>
      </trkpt>
      <trkpt lat="49.2846" lon="-0.12928">
        <ele>2.6</ele>
        <time>2024-05-26T06:35:46Z</time>
      </trkpt>
      <trkpt lat="49.28459" lon="-0.12937">
        <ele>2.6</ele>
        <time>2024-05-26T06:35:47Z</time>
      </trkpt>
      <trkpt lat="49.28457" lon="-0.12946">
        <ele>2.6</ele>
        <time>2024-05-26T06:35:48Z</time>
      </trkpt>
      <trkpt lat="49.28455" lon="-0.12955">
        <ele>2.6</ele>
        <time>2024-05-26T06:35:49Z</time>
      </trkpt>
      <trkpt lat="49.28454" lon="-0.12964">
        <ele>2.6</ele>
        <time>2024-05-26T06:35:50Z</time>
      </trkpt>
      <trkpt lat="49.28452" lon="-0.12972">
        <ele>2.6</ele>
        <time>2024-05-26T06:35:51Z</time>
      </trkpt>
      <trkpt lat="49.2845" lon="-0.12981">
        <ele>2.6</ele>
        <time>2024-05-26T06:35:52Z</time>
      </trkpt>
      <trkpt lat="49.28448" lon="-0.1299">
        <ele>2.6</ele>
        <time>2024-05-26T06:35:53Z</time>
      </trkpt>
      <trkpt lat="49.28447" lon="-0.12998">
        <ele>2.6</ele>
        <time>2024-05-26T06:35:54Z</time>
      </trkpt>
      <trkpt lat="49.28445" lon="-0.13007">
        <ele>2.6</ele>
        <time>2024-05-26T06:35:55Z</time>
      </trkpt>
      <trkpt lat="49.28444" lon="-0.13016">
        <ele>2.6</ele>
        <time>2024-05-26T06:35:56Z</time>
      </trkpt>
      <trkpt lat="49.28442" lon="-0.13024">
        <ele>2.6</ele>
        <time>2024-05-26T06:35:57Z</time>
      </trkpt>
      <trkpt lat="49.2844" lon="-0.13033">
        <ele>2.6</ele>
        <time>2024-05-26T06:35:58Z</time>
      </trkpt>
      <trkpt lat="49.28439" lon="-0.13042">
        <ele>2.6</ele>
        <time>2024-05-26T06:35:59Z</time>
      </trkpt>
      <trkpt lat="49.28437" lon="-0.1305">
        <ele>2.6</ele>
        <time>2024-05-26T06:36:00Z</time>
      </trkpt>
      <trkpt lat="49.28435" lon="-0.13059">
        <ele>2.6</ele>
        <time>2024-05-26T06:36:01Z</time>
      </trkpt>
      <trkpt lat="49.28433" lon="-0.13068">
        <ele>2.6</ele>
        <time>2024-05-26T06:36:02Z</time>
      </trkpt>
      <trkpt lat="49.28432" lon="-0.13077">
        <ele>2.6</ele>
        <time>2024-05-26T06:36:03Z</time>
      </trkpt>
      <trkpt lat="49.2843" lon="-0.13085">
        <ele>2.6</ele>
        <time>2024-05-26T06:36:04Z</time>
      </trkpt>
      <trkpt lat="49.28428" lon="-0.13093">
        <ele>2.6</ele>
        <time>2024-05-26T06:36:05Z</time>
      </trkpt>
      <trkpt lat="49.28427" lon="-0.13102">
        <ele>2.6</ele>
        <time>2024-05-26T06:36:06Z</time>
      </trkpt>
      <trkpt lat="49.28425" lon="-0.1311">
        <ele>2.6</ele>
        <time>2024-05-26T06:36:07Z</time>
      </trkpt>
      <trkpt lat="49.28423" lon="-0.13118">
        <ele>2.6</ele>
        <time>2024-05-26T06:36:08Z</time>
      </trkpt>
      <trkpt lat="49.28421" lon="-0.13127">
        <ele>2.6</ele>
        <time>2024-05-26T06:36:09Z</time>
      </trkpt>
      <trkpt lat="49.2842" lon="-0.13136">
        <ele>2.6</ele>
        <time>2024-05-26T06:36:10Z</time>
      </trkpt>
      <trkpt lat="49.28418" lon="-0.13145">
        <ele>2.6</ele>
        <time>2024-05-26T06:36:11Z</time>
      </trkpt>
      <trkpt lat="49.28417" lon="-0.13153">
        <ele>2.6</ele>
        <time>2024-05-26T06:36:12Z</time>
      </trkpt>
      <trkpt lat="49.28415" lon="-0.13162">
        <ele>2.6</ele>
        <time>2024-05-26T06:36:13Z</time>
      </trkpt>
      <trkpt lat="49.28413" lon="-0.13171">
        <ele>2.6</ele>
        <time>2024-05-26T06:36:14Z</time>
      </trkpt>
      <trkpt lat="49.28411" lon="-0.13179">
        <ele>2.6</ele>
        <time>2024-05-26T06:36:15Z</time>
      </trkpt>
      <trkpt lat="49.28409" lon="-0.13187">
        <ele>2.6</ele>
        <time>2024-05-26T06:36:16Z</time>
      </trkpt>
      <trkpt lat="49.28408" lon="-0.13196">
        <ele>2.6</ele>
        <time>2024-05-26T06:36:17Z</time>
      </trkpt>
      <trkpt lat="49.28406" lon="-0.13204">
        <ele>2.6</ele>
        <time>2024-05-26T06:36:18Z</time>
      </trkpt>
      <trkpt lat="49.28405" lon="-0.13213">
        <ele>2.6</ele>
        <time>2024-05-26T06:36:19Z</time>
      </trkpt>
      <trkpt lat="49.28403" lon="-0.13222">
        <ele>2.8</ele>
        <time>2024-05-26T06:36:20Z</time>
      </trkpt>
      <trkpt lat="49.28401" lon="-0.1323">
        <ele>2.8</ele>
        <time>2024-05-26T06:36:21Z</time>
      </trkpt>
      <trkpt lat="49.284" lon="-0.13239">
        <ele>2.8</ele>
        <time>2024-05-26T06:36:22Z</time>
      </trkpt>
      <trkpt lat="49.28398" lon="-0.13248">
        <ele>2.8</ele>
        <time>2024-05-26T06:36:23Z</time>
      </trkpt>
      <trkpt lat="49.28396" lon="-0.13258">
        <ele>2.8</ele>
        <time>2024-05-26T06:36:24Z</time>
      </trkpt>
      <trkpt lat="49.28394" lon="-0.13266">
        <ele>2.8</ele>
        <time>2024-05-26T06:36:25Z</time>
      </trkpt>
      <trkpt lat="49.28393" lon="-0.13275">
        <ele>2.8</ele>
        <time>2024-05-26T06:36:26Z</time>
      </trkpt>
      <trkpt lat="49.28391" lon="-0.13284">
        <ele>2.8</ele>
        <time>2024-05-26T06:36:27Z</time>
      </trkpt>
      <trkpt lat="49.28389" lon="-0.13293">
        <ele>3</ele>
        <time>2024-05-26T06:36:28Z</time>
      </trkpt>
      <trkpt lat="49.28387" lon="-0.13302">
        <ele>3.2</ele>
        <time>2024-05-26T06:36:29Z</time>
      </trkpt>
      <trkpt lat="49.28385" lon="-0.13312">
        <ele>3.2</ele>
        <time>2024-05-26T06:36:30Z</time>
      </trkpt>
      <trkpt lat="49.28383" lon="-0.13321">
        <ele>3.2</ele>
        <time>2024-05-26T06:36:31Z</time>
      </trkpt>
      <trkpt lat="49.28382" lon="-0.1333">
        <ele>3.2</ele>
        <time>2024-05-26T06:36:32Z</time>
      </trkpt>
      <trkpt lat="49.2838" lon="-0.13339">
        <ele>3.2</ele>
        <time>2024-05-26T06:36:33Z</time>
      </trkpt>
      <trkpt lat="49.28378" lon="-0.13348">
        <ele>3.2</ele>
        <time>2024-05-26T06:36:34Z</time>
      </trkpt>
      <trkpt lat="49.28376" lon="-0.13357">
        <ele>3.2</ele>
        <time>2024-05-26T06:36:35Z</time>
      </trkpt>
      <trkpt lat="49.28374" lon="-0.13366">
        <ele>3.2</ele>
        <time>2024-05-26T06:36:36Z</time>
      </trkpt>
      <trkpt lat="49.28373" lon="-0.13374">
        <ele>3.2</ele>
        <time>2024-05-26T06:36:37Z</time>
      </trkpt>
      <trkpt lat="49.28371" lon="-0.13383">
        <ele>3.2</ele>
        <time>2024-05-26T06:36:38Z</time>
      </trkpt>
      <trkpt lat="49.28369" lon="-0.13392">
        <ele>3.2</ele>
        <time>2024-05-26T06:36:39Z</time>
      </trkpt>
      <trkpt lat="49.28367" lon="-0.134">
        <ele>3.2</ele>
        <time>2024-05-26T06:36:40Z</time>
      </trkpt>
      <trkpt lat="49.28366" lon="-0.13409">
        <ele>3.2</ele>
        <time>2024-05-26T06:36:41Z</time>
      </trkpt>
      <trkpt lat="49.28365" lon="-0.13418">
        <ele>3.2</ele>
        <time>2024-05-26T06:36:42Z</time>
      </trkpt>
      <trkpt lat="49.28363" lon="-0.13427">
        <ele>3.2</ele>
        <time>2024-05-26T06:36:43Z</time>
      </trkpt>
      <trkpt lat="49.28361" lon="-0.13436">
        <ele>3.2</ele>
        <time>2024-05-26T06:36:44Z</time>
      </trkpt>
      <trkpt lat="49.2836" lon="-0.13445">
        <ele>3.2</ele>
        <time>2024-05-26T06:36:45Z</time>
      </trkpt>
      <trkpt lat="49.28358" lon="-0.13454">
        <ele>3.2</ele>
        <time>2024-05-26T06:36:46Z</time>
      </trkpt>
      <trkpt lat="49.28356" lon="-0.13463">
        <ele>3</ele>
        <time>2024-05-26T06:36:47Z</time>
      </trkpt>
      <trkpt lat="49.28354" lon="-0.13471">
        <ele>3</ele>
        <time>2024-05-26T06:36:48Z</time>
      </trkpt>
      <trkpt lat="49.28353" lon="-0.13481">
        <ele>3</ele>
        <time>2024-05-26T06:36:49Z</time>
      </trkpt>
      <trkpt lat="49.28351" lon="-0.13489">
        <ele>3</ele>
        <time>2024-05-26T06:36:50Z</time>
      </trkpt>
      <trkpt lat="49.28349" lon="-0.13498">
        <ele>3</ele>
        <time>2024-05-26T06:36:51Z</time>
      </trkpt>
      <trkpt lat="49.28347" lon="-0.13508">
        <ele>3</ele>
        <time>2024-05-26T06:36:52Z</time>
      </trkpt>
      <trkpt lat="49.28345" lon="-0.13517">
        <ele>3</ele>
        <time>2024-05-26T06:36:53Z</time>
      </trkpt>
      <trkpt lat="49.28344" lon="-0.13526">
        <ele>3</ele>
        <time>2024-05-26T06:36:54Z</time>
      </trkpt>
      <trkpt lat="49.28342" lon="-0.13535">
        <ele>3</ele>
        <time>2024-05-26T06:36:55Z</time>
      </trkpt>
      <trkpt lat="49.2834" lon="-0.13543">
        <ele>3</ele>
        <time>2024-05-26T06:36:56Z</time>
      </trkpt>
      <trkpt lat="49.28338" lon="-0.13552">
        <ele>3</ele>
        <time>2024-05-26T06:36:57Z</time>
      </trkpt>
      <trkpt lat="49.28336" lon="-0.13561">
        <ele>3</ele>
        <time>2024-05-26T06:36:58Z</time>
      </trkpt>
      <trkpt lat="49.28334" lon="-0.13569">
        <ele>3</ele>
        <time>2024-05-26T06:36:59Z</time>
      </trkpt>
      <trkpt lat="49.28332" lon="-0.13578">
        <ele>3</ele>
        <time>2024-05-26T06:37:00Z</time>
      </trkpt>
      <trkpt lat="49.2833" lon="-0.13586">
        <ele>3.2</ele>
        <time>2024-05-26T06:37:01Z</time>
      </trkpt>
      <trkpt lat="49.28329" lon="-0.13594">
        <ele>3.2</ele>
        <time>2024-05-26T06:37:02Z</time>
      </trkpt>
      <trkpt lat="49.28327" lon="-0.13603">
        <ele>3.2</ele>
        <time>2024-05-26T06:37:03Z</time>
      </trkpt>
      <trkpt lat="49.28326" lon="-0.13611">
        <ele>3.2</ele>
        <time>2024-05-26T06:37:04Z</time>
      </trkpt>
      <trkpt lat="49.28326" lon="-0.1362">
        <ele>3.2</ele>
        <time>2024-05-26T06:37:05Z</time>
      </trkpt>
      <trkpt lat="49.28326" lon="-0.13629">
        <ele>3.4</ele>
        <time>2024-05-26T06:37:06Z</time>
      </trkpt>
      <trkpt lat="49.28325" lon="-0.13638">
        <ele>3.4</ele>
        <time>2024-05-26T06:37:07Z</time>
      </trkpt>
      <trkpt lat="49.28323" lon="-0.13647">
        <ele>3.4</ele>
        <time>2024-05-26T06:37:08Z</time>
      </trkpt>
      <trkpt lat="49.2832" lon="-0.13656">
        <ele>3.4</ele>
        <time>2024-05-26T06:37:09Z</time>
      </trkpt>
      <trkpt lat="49.28317" lon="-0.13664">
        <ele>3.6</ele>
        <time>2024-05-26T06:37:10Z</time>
      </trkpt>
      <trkpt lat="49.28313" lon="-0.13672">
        <ele>3.6</ele>
        <time>2024-05-26T06:37:11Z</time>
      </trkpt>
      <trkpt lat="49.2831" lon="-0.13681">
        <ele>3.6</ele>
        <time>2024-05-26T06:37:12Z</time>
      </trkpt>
      <trkpt lat="49.28307" lon="-0.13691">
        <ele>3.6</ele>
        <time>2024-05-26T06:37:13Z</time>
      </trkpt>
      <trkpt lat="49.28305" lon="-0.137">
        <ele>3.6</ele>
        <time>2024-05-26T06:37:14Z</time>
      </trkpt>
      <trkpt lat="49.28302" lon="-0.1371">
        <ele>3.6</ele>
        <time>2024-05-26T06:37:15Z</time>
      </trkpt>
      <trkpt lat="49.283" lon="-0.1372">
        <ele>3.6</ele>
        <time>2024-05-26T06:37:16Z</time>
      </trkpt>
      <trkpt lat="49.28297" lon="-0.1373">
        <ele>3.6</ele>
        <time>2024-05-26T06:37:17Z</time>
      </trkpt>
      <trkpt lat="49.28294" lon="-0.1374">
        <ele>3.6</ele>
        <time>2024-05-26T06:37:18Z</time>
      </trkpt>
      <trkpt lat="49.28291" lon="-0.13749">
        <ele>3.6</ele>
        <time>2024-05-26T06:37:19Z</time>
      </trkpt>
      <trkpt lat="49.28288" lon="-0.13759">
        <ele>3.6</ele>
        <time>2024-05-26T06:37:20Z</time>
      </trkpt>
      <trkpt lat="49.28285" lon="-0.13769">
        <ele>3.6</ele>
        <time>2024-05-26T06:37:21Z</time>
      </trkpt>
      <trkpt lat="49.28282" lon="-0.13778">
        <ele>3.6</ele>
        <time>2024-05-26T06:37:22Z</time>
      </trkpt>
      <trkpt lat="49.28279" lon="-0.13788">
        <ele>3.6</ele>
        <time>2024-05-26T06:37:23Z</time>
      </trkpt>
      <trkpt lat="49.28276" lon="-0.13798">
        <ele>3.6</ele>
        <time>2024-05-26T06:37:24Z</time>
      </trkpt>
      <trkpt lat="49.28273" lon="-0.13808">
        <ele>3.6</ele>
        <time>2024-05-26T06:37:25Z</time>
      </trkpt>
      <trkpt lat="49.28269" lon="-0.13818">
        <ele>3.6</ele>
        <time>2024-05-26T06:37:26Z</time>
      </trkpt>
      <trkpt lat="49.28266" lon="-0.13828">
        <ele>3.6</ele>
        <time>2024-05-26T06:37:27Z</time>
      </trkpt>
      <trkpt lat="49.28262" lon="-0.13837">
        <ele>3.4</ele>
        <time>2024-05-26T06:37:28Z</time>
      </trkpt>
      <trkpt lat="49.28259" lon="-0.13847">
        <ele>3.4</ele>
        <time>2024-05-26T06:37:29Z</time>
      </trkpt>
      <trkpt lat="49.28256" lon="-0.13856">
        <ele>3.4</ele>
        <time>2024-05-26T06:37:30Z</time>
      </trkpt>
      <trkpt lat="49.28252" lon="-0.13866">
        <ele>3.4</ele>
        <time>2024-05-26T06:37:31Z</time>
      </trkpt>
      <trkpt lat="49.28249" lon="-0.13876">
        <ele>3.2</ele>
        <time>2024-05-26T06:37:32Z</time>
      </trkpt>
      <trkpt lat="49.28245" lon="-0.13885">
        <ele>3.2</ele>
        <time>2024-05-26T06:37:33Z</time>
      </trkpt>
      <trkpt lat="49.28241" lon="-0.13894">
        <ele>3.2</ele>
        <time>2024-05-26T06:37:34Z</time>
      </trkpt>
      <trkpt lat="49.28238" lon="-0.13903">
        <ele>3</ele>
        <time>2024-05-26T06:37:35Z</time>
      </trkpt>
      <trkpt lat="49.28234" lon="-0.13912">
        <ele>3</ele>
        <time>2024-05-26T06:37:36Z</time>
      </trkpt>
      <trkpt lat="49.2823" lon="-0.13921">
        <ele>3</ele>
        <time>2024-05-26T06:37:37Z</time>
      </trkpt>
      <trkpt lat="49.28227" lon="-0.13929">
        <ele>3</ele>
        <time>2024-05-26T06:37:38Z</time>
      </trkpt>
      <trkpt lat="49.28223" lon="-0.13938">
        <ele>2.8</ele>
        <time>2024-05-26T06:37:39Z</time>
      </trkpt>
      <trkpt lat="49.28219" lon="-0.13946">
        <ele>2.8</ele>
        <time>2024-05-26T06:37:40Z</time>
      </trkpt>
      <trkpt lat="49.28215" lon="-0.13955">
        <ele>2.8</ele>
        <time>2024-05-26T06:37:41Z</time>
      </trkpt>
      <trkpt lat="49.28211" lon="-0.13963">
        <ele>2.6</ele>
        <time>2024-05-26T06:37:42Z</time>
      </trkpt>
      <trkpt lat="49.28207" lon="-0.13971">
        <ele>2.6</ele>
        <time>2024-05-26T06:37:43Z</time>
      </trkpt>
      <trkpt lat="49.28203" lon="-0.1398">
        <ele>2.6</ele>
        <time>2024-05-26T06:37:44Z</time>
      </trkpt>
      <trkpt lat="49.28199" lon="-0.13988">
        <ele>2.6</ele>
        <time>2024-05-26T06:37:45Z</time>
      </trkpt>
      <trkpt lat="49.28195" lon="-0.13997">
        <ele>2.6</ele>
        <time>2024-05-26T06:37:46Z</time>
      </trkpt>
      <trkpt lat="49.2819" lon="-0.14005">
        <ele>2.6</ele>
        <time>2024-05-26T06:37:47Z</time>
      </trkpt>
      <trkpt lat="49.28186" lon="-0.14014">
        <ele>2.6</ele>
        <time>2024-05-26T06:37:48Z</time>
      </trkpt>
      <trkpt lat="49.28182" lon="-0.14022">
        <ele>2.6</ele>
        <time>2024-05-26T06:37:49Z</time>
      </trkpt>
      <trkpt lat="49.28177" lon="-0.14031">
        <ele>2.6</ele>
        <time>2024-05-26T06:37:50Z</time>
      </trkpt>
      <trkpt lat="49.28173" lon="-0.14039">
        <ele>2.6</ele>
        <time>2024-05-26T06:37:51Z</time>
      </trkpt>
      <trkpt lat="49.28168" lon="-0.14047">
        <ele>2.6</ele>
        <time>2024-05-26T06:37:52Z</time>
      </trkpt>
      <trkpt lat="49.28163" lon="-0.14055">
        <ele>2.8</ele>
        <time>2024-05-26T06:37:53Z</time>
      </trkpt>
      <trkpt lat="49.28159" lon="-0.14062">
        <ele>2.8</ele>
        <time>2024-05-26T06:37:54Z</time>
      </trkpt>
      <trkpt lat="49.28154" lon="-0.1407">
        <ele>2.8</ele>
        <time>2024-05-26T06:37:55Z</time>
      </trkpt>
      <trkpt lat="49.2815" lon="-0.14078">
        <ele>2.8</ele>
        <time>2024-05-26T06:37:56Z</time>
      </trkpt>
      <trkpt lat="49.28146" lon="-0.14085">
        <ele>3</ele>
        <time>2024-05-26T06:37:57Z</time>
      </trkpt>
      <trkpt lat="49.28142" lon="-0.14093">
        <ele>3</ele>
        <time>2024-05-26T06:37:58Z</time>
      </trkpt>
      <trkpt lat="49.28137" lon="-0.141">
        <ele>3</ele>
        <time>2024-05-26T06:37:59Z</time>
      </trkpt>
      <trkpt lat="49.28132" lon="-0.14107">
        <ele>3</ele>
        <time>2024-05-26T06:38:00Z</time>
      </trkpt>
      <trkpt lat="49.28128" lon="-0.14114">
        <ele>3.2</ele>
        <time>2024-05-26T06:38:01Z</time>
      </trkpt>
      <trkpt lat="49.28123" lon="-0.14121">
        <ele>3.2</ele>
        <time>2024-05-26T06:38:02Z</time>
      </trkpt>
      <trkpt lat="49.28118" lon="-0.14128">
        <ele>3.2</ele>
        <time>2024-05-26T06:38:03Z</time>
      </trkpt>
      <trkpt lat="49.28113" lon="-0.14136">
        <ele>3.2</ele>
        <time>2024-05-26T06:38:04Z</time>
      </trkpt>
      <trkpt lat="49.28108" lon="-0.14143">
        <ele>3.2</ele>
        <time>2024-05-26T06:38:05Z</time>
      </trkpt>
      <trkpt lat="49.28103" lon="-0.1415">
        <ele>3.2</ele>
        <time>2024-05-26T06:38:06Z</time>
      </trkpt>
      <trkpt lat="49.28098" lon="-0.14157">
        <ele>3.2</ele>
        <time>2024-05-26T06:38:07Z</time>
      </trkpt>
      <trkpt lat="49.28093" lon="-0.14165">
        <ele>3.2</ele>
        <time>2024-05-26T06:38:08Z</time>
      </trkpt>
      <trkpt lat="49.28088" lon="-0.14173">
        <ele>3.2</ele>
        <time>2024-05-26T06:38:09Z</time>
      </trkpt>
      <trkpt lat="49.28083" lon="-0.1418">
        <ele>3.2</ele>
        <time>2024-05-26T06:38:10Z</time>
      </trkpt>
      <trkpt lat="49.28078" lon="-0.14188">
        <ele>3.2</ele>
        <time>2024-05-26T06:38:11Z</time>
      </trkpt>
      <trkpt lat="49.28073" lon="-0.14195">
        <ele>3.2</ele>
        <time>2024-05-26T06:38:12Z</time>
      </trkpt>
      <trkpt lat="49.28068" lon="-0.14202">
        <ele>3.2</ele>
        <time>2024-05-26T06:38:13Z</time>
      </trkpt>
      <trkpt lat="49.28063" lon="-0.1421">
        <ele>3.2</ele>
        <time>2024-05-26T06:38:14Z</time>
      </trkpt>
      <trkpt lat="49.28058" lon="-0.14217">
        <ele>3.2</ele>
        <time>2024-05-26T06:38:15Z</time>
      </trkpt>
      <trkpt lat="49.28054" lon="-0.14225">
        <ele>3.2</ele>
        <time>2024-05-26T06:38:16Z</time>
      </trkpt>
      <trkpt lat="49.28049" lon="-0.14233">
        <ele>3</ele>
        <time>2024-05-26T06:38:17Z</time>
      </trkpt>
      <trkpt lat="49.28045" lon="-0.14241">
        <ele>3</ele>
        <time>2024-05-26T06:38:18Z</time>
      </trkpt>
      <trkpt lat="49.2804" lon="-0.14248">
        <ele>3</ele>
        <time>2024-05-26T06:38:19Z</time>
      </trkpt>
      <trkpt lat="49.28036" lon="-0.14256">
        <ele>3</ele>
        <time>2024-05-26T06:38:20Z</time>
      </trkpt>
      <trkpt lat="49.28031" lon="-0.14263">
        <ele>3.2</ele>
        <time>2024-05-26T06:38:21Z</time>
      </trkpt>
      <trkpt lat="49.28026" lon="-0.1427">
        <ele>3.2</ele>
        <time>2024-05-26T06:38:22Z</time>
      </trkpt>
      <trkpt lat="49.28021" lon="-0.14277">
        <ele>3.2</ele>
        <time>2024-05-26T06:38:23Z</time>
      </trkpt>
      <trkpt lat="49.28016" lon="-0.14284">
        <ele>3.2</ele>
        <time>2024-05-26T06:38:24Z</time>
      </trkpt>
      <trkpt lat="49.28012" lon="-0.14291">
        <ele>3</ele>
        <time>2024-05-26T06:38:25Z</time>
      </trkpt>
      <trkpt lat="49.28007" lon="-0.14298">
        <ele>3</ele>
        <time>2024-05-26T06:38:26Z</time>
      </trkpt>
      <trkpt lat="49.28003" lon="-0.14305">
        <ele>3</ele>
        <time>2024-05-26T06:38:27Z</time>
      </trkpt>
      <trkpt lat="49.27998" lon="-0.14312">
        <ele>3</ele>
        <time>2024-05-26T06:38:28Z</time>
      </trkpt>
      <trkpt lat="49.27993" lon="-0.14319">
        <ele>2.6</ele>
        <time>2024-05-26T06:38:29Z</time>
      </trkpt>
      <trkpt lat="49.27988" lon="-0.14326">
        <ele>2.6</ele>
        <time>2024-05-26T06:38:30Z</time>
      </trkpt>
      <trkpt lat="49.27983" lon="-0.14333">
        <ele>2.8</ele>
        <time>2024-05-26T06:38:31Z</time>
      </trkpt>
      <trkpt lat="49.27978" lon="-0.1434">
        <ele>2.6</ele>
        <time>2024-05-26T06:38:32Z</time>
      </trkpt>
      <trkpt lat="49.27974" lon="-0.14347">
        <ele>2.8</ele>
        <time>2024-05-26T06:38:33Z</time>
      </trkpt>
      <trkpt lat="49.27969" lon="-0.14354">
        <ele>2.8</ele>
        <time>2024-05-26T06:38:34Z</time>
      </trkpt>
      <trkpt lat="49.27965" lon="-0.14361">
        <ele>2.8</ele>
        <time>2024-05-26T06:38:35Z</time>
      </trkpt>
      <trkpt lat="49.27959" lon="-0.14368">
        <ele>3</ele>
        <time>2024-05-26T06:38:36Z</time>
      </trkpt>
      <trkpt lat="49.27955" lon="-0.14375">
        <ele>3.2</ele>
        <time>2024-05-26T06:38:37Z</time>
      </trkpt>
      <trkpt lat="49.2795" lon="-0.14382">
        <ele>3.2</ele>
        <time>2024-05-26T06:38:38Z</time>
      </trkpt>
      <trkpt lat="49.27945" lon="-0.14388">
        <ele>3.2</ele>
        <time>2024-05-26T06:38:39Z</time>
      </trkpt>
      <trkpt lat="49.2794" lon="-0.14394">
        <ele>3.2</ele>
        <time>2024-05-26T06:38:40Z</time>
      </trkpt>
      <trkpt lat="49.27934" lon="-0.14401">
        <ele>3.2</ele>
        <time>2024-05-26T06:38:41Z</time>
      </trkpt>
      <trkpt lat="49.2793" lon="-0.14407">
        <ele>3.2</ele>
        <time>2024-05-26T06:38:42Z</time>
      </trkpt>
      <trkpt lat="49.27925" lon="-0.14414">
        <ele>3.2</ele>
        <time>2024-05-26T06:38:43Z</time>
      </trkpt>
      <trkpt lat="49.2792" lon="-0.14421">
        <ele>3.2</ele>
        <time>2024-05-26T06:38:44Z</time>
      </trkpt>
      <trkpt lat="49.27915" lon="-0.14427">
        <ele>3.2</ele>
        <time>2024-05-26T06:38:45Z</time>
      </trkpt>
      <trkpt lat="49.2791" lon="-0.14434">
        <ele>3.2</ele>
        <time>2024-05-26T06:38:46Z</time>
      </trkpt>
      <trkpt lat="49.27906" lon="-0.14441">
        <ele>3.4</ele>
        <time>2024-05-26T06:38:47Z</time>
      </trkpt>
      <trkpt lat="49.27901" lon="-0.14448">
        <ele>3.4</ele>
        <time>2024-05-26T06:38:48Z</time>
      </trkpt>
      <trkpt lat="49.27896" lon="-0.14455">
        <ele>3.4</ele>
        <time>2024-05-26T06:38:49Z</time>
      </trkpt>
      <trkpt lat="49.27892" lon="-0.14463">
        <ele>3.6</ele>
        <time>2024-05-26T06:38:50Z</time>
      </trkpt>
      <trkpt lat="49.27887" lon="-0.1447">
        <ele>3.6</ele>
        <time>2024-05-26T06:38:51Z</time>
      </trkpt>
      <trkpt lat="49.27881" lon="-0.14477">
        <ele>3.6</ele>
        <time>2024-05-26T06:38:52Z</time>
      </trkpt>
      <trkpt lat="49.27876" lon="-0.14485">
        <ele>3.8</ele>
        <time>2024-05-26T06:38:53Z</time>
      </trkpt>
      <trkpt lat="49.27871" lon="-0.14492">
        <ele>3.8</ele>
        <time>2024-05-26T06:38:54Z</time>
      </trkpt>
      <trkpt lat="49.27866" lon="-0.14499">
        <ele>3.8</ele>
        <time>2024-05-26T06:38:55Z</time>
      </trkpt>
      <trkpt lat="49.27862" lon="-0.14507">
        <ele>3.8</ele>
        <time>2024-05-26T06:38:56Z</time>
      </trkpt>
      <trkpt lat="49.27857" lon="-0.14514">
        <ele>3.8</ele>
        <time>2024-05-26T06:38:57Z</time>
      </trkpt>
      <trkpt lat="49.27852" lon="-0.14522">
        <ele>3.8</ele>
        <time>2024-05-26T06:38:58Z</time>
      </trkpt>
      <trkpt lat="49.27847" lon="-0.14529">
        <ele>3.6</ele>
        <time>2024-05-26T06:38:59Z</time>
      </trkpt>
      <trkpt lat="49.27841" lon="-0.14537">
        <ele>3.8</ele>
        <time>2024-05-26T06:39:00Z</time>
      </trkpt>
      <trkpt lat="49.27836" lon="-0.14544">
        <ele>3.6</ele>
        <time>2024-05-26T06:39:01Z</time>
      </trkpt>
      <trkpt lat="49.27831" lon="-0.14552">
        <ele>3.6</ele>
        <time>2024-05-26T06:39:02Z</time>
      </trkpt>
      <trkpt lat="49.27826" lon="-0.14559">
        <ele>3.6</ele>
        <time>2024-05-26T06:39:03Z</time>
      </trkpt>
      <trkpt lat="49.27821" lon="-0.14566">
        <ele>3.6</ele>
        <time>2024-05-26T06:39:04Z</time>
      </trkpt>
      <trkpt lat="49.27816" lon="-0.14574">
        <ele>3.6</ele>
        <time>2024-05-26T06:39:05Z</time>
      </trkpt>
      <trkpt lat="49.27811" lon="-0.14581">
        <ele>3.6</ele>
        <time>2024-05-26T06:39:06Z</time>
      </trkpt>
      <trkpt lat="49.27806" lon="-0.14588">
        <ele>3.6</ele>
        <time>2024-05-26T06:39:07Z</time>
      </trkpt>
      <trkpt lat="49.27801" lon="-0.14596">
        <ele>3.6</ele>
        <time>2024-05-26T06:39:08Z</time>
      </trkpt>
      <trkpt lat="49.27796" lon="-0.14603">
        <ele>3.6</ele>
        <time>2024-05-26T06:39:09Z</time>
      </trkpt>
      <trkpt lat="49.27791" lon="-0.1461">
        <ele>3.4</ele>
        <time>2024-05-26T06:39:10Z</time>
      </trkpt>
      <trkpt lat="49.27786" lon="-0.14618">
        <ele>3.4</ele>
        <time>2024-05-26T06:39:11Z</time>
      </trkpt>
      <trkpt lat="49.27781" lon="-0.14624">
        <ele>3.2</ele>
        <time>2024-05-26T06:39:12Z</time>
      </trkpt>
      <trkpt lat="49.27777" lon="-0.14632">
        <ele>3.2</ele>
        <time>2024-05-26T06:39:13Z</time>
      </trkpt>
      <trkpt lat="49.27772" lon="-0.14639">
        <ele>3.2</ele>
        <time>2024-05-26T06:39:14Z</time>
      </trkpt>
      <trkpt lat="49.27767" lon="-0.14646">
        <ele>3.2</ele>
        <time>2024-05-26T06:39:15Z</time>
      </trkpt>
      <trkpt lat="49.27762" lon="-0.14654">
        <ele>3.2</ele>
        <time>2024-05-26T06:39:16Z</time>
      </trkpt>
      <trkpt lat="49.27757" lon="-0.14662">
        <ele>3.4</ele>
        <time>2024-05-26T06:39:17Z</time>
      </trkpt>
      <trkpt lat="49.27752" lon="-0.1467">
        <ele>3.2</ele>
        <time>2024-05-26T06:39:18Z</time>
      </trkpt>
      <trkpt lat="49.27747" lon="-0.14678">
        <ele>3.2</ele>
        <time>2024-05-26T06:39:19Z</time>
      </trkpt>
      <trkpt lat="49.27743" lon="-0.14686">
        <ele>3.2</ele>
        <time>2024-05-26T06:39:20Z</time>
      </trkpt>
      <trkpt lat="49.27738" lon="-0.14694">
        <ele>3.2</ele>
        <time>2024-05-26T06:39:21Z</time>
      </trkpt>
      <trkpt lat="49.27733" lon="-0.14701">
        <ele>3</ele>
        <time>2024-05-26T06:39:22Z</time>
      </trkpt>
      <trkpt lat="49.27728" lon="-0.14709">
        <ele>3</ele>
        <time>2024-05-26T06:39:23Z</time>
      </trkpt>
      <trkpt lat="49.27723" lon="-0.14717">
        <ele>3</ele>
        <time>2024-05-26T06:39:24Z</time>
      </trkpt>
      <trkpt lat="49.27718" lon="-0.14724">
        <ele>3</ele>
        <time>2024-05-26T06:39:25Z</time>
      </trkpt>
      <trkpt lat="49.27714" lon="-0.14731">
        <ele>3</ele>
        <time>2024-05-26T06:39:26Z</time>
      </trkpt>
      <trkpt lat="49.27709" lon="-0.14738">
        <ele>3</ele>
        <time>2024-05-26T06:39:27Z</time>
      </trkpt>
      <trkpt lat="49.27704" lon="-0.14746">
        <ele>3</ele>
        <time>2024-05-26T06:39:28Z</time>
      </trkpt>
      <trkpt lat="49.27699" lon="-0.14753">
        <ele>3</ele>
        <time>2024-05-26T06:39:29Z</time>
      </trkpt>
      <trkpt lat="49.27694" lon="-0.1476">
        <ele>3</ele>
        <time>2024-05-26T06:39:30Z</time>
      </trkpt>
      <trkpt lat="49.27689" lon="-0.14767">
        <ele>3</ele>
        <time>2024-05-26T06:39:31Z</time>
      </trkpt>
      <trkpt lat="49.27684" lon="-0.14773">
        <ele>3</ele>
        <time>2024-05-26T06:39:32Z</time>
      </trkpt>
      <trkpt lat="49.2768" lon="-0.1478">
        <ele>3</ele>
        <time>2024-05-26T06:39:33Z</time>
      </trkpt>
      <trkpt lat="49.27675" lon="-0.14787">
        <ele>3</ele>
        <time>2024-05-26T06:39:34Z</time>
      </trkpt>
      <trkpt lat="49.2767" lon="-0.14794">
        <ele>3</ele>
        <time>2024-05-26T06:39:35Z</time>
      </trkpt>
      <trkpt lat="49.27665" lon="-0.14801">
        <ele>3</ele>
        <time>2024-05-26T06:39:36Z</time>
      </trkpt>
      <trkpt lat="49.2766" lon="-0.14808">
        <ele>3</ele>
        <time>2024-05-26T06:39:37Z</time>
      </trkpt>
      <trkpt lat="49.27655" lon="-0.14815">
        <ele>3</ele>
        <time>2024-05-26T06:39:38Z</time>
      </trkpt>
      <trkpt lat="49.27649" lon="-0.14822">
        <ele>3</ele>
        <time>2024-05-26T06:39:39Z</time>
      </trkpt>
      <trkpt lat="49.27644" lon="-0.1483">
        <ele>3</ele>
        <time>2024-05-26T06:39:40Z</time>
      </trkpt>
      <trkpt lat="49.27639" lon="-0.14837">
        <ele>3.2</ele>
        <time>2024-05-26T06:39:41Z</time>
      </trkpt>
      <trkpt lat="49.27634" lon="-0.14844">
        <ele>3.2</ele>
        <time>2024-05-26T06:39:42Z</time>
      </trkpt>
      <trkpt lat="49.27629" lon="-0.14851">
        <ele>3</ele>
        <time>2024-05-26T06:39:43Z</time>
      </trkpt>
      <trkpt lat="49.27624" lon="-0.14858">
        <ele>3</ele>
        <time>2024-05-26T06:39:44Z</time>
      </trkpt>
      <trkpt lat="49.2762" lon="-0.14865">
        <ele>2.8</ele>
        <time>2024-05-26T06:39:45Z</time>
      </trkpt>
      <trkpt lat="49.27615" lon="-0.14872">
        <ele>2.8</ele>
        <time>2024-05-26T06:39:46Z</time>
      </trkpt>
      <trkpt lat="49.2761" lon="-0.1488">
        <ele>2.8</ele>
        <time>2024-05-26T06:39:47Z</time>
      </trkpt>
      <trkpt lat="49.27605" lon="-0.14887">
        <ele>2.8</ele>
        <time>2024-05-26T06:39:48Z</time>
      </trkpt>
      <trkpt lat="49.27601" lon="-0.14894">
        <ele>2.8</ele>
        <time>2024-05-26T06:39:49Z</time>
      </trkpt>
      <trkpt lat="49.27595" lon="-0.14902">
        <ele>2.8</ele>
        <time>2024-05-26T06:39:50Z</time>
      </trkpt>
      <trkpt lat="49.2759" lon="-0.14909">
        <ele>2.8</ele>
        <time>2024-05-26T06:39:51Z</time>
      </trkpt>
      <trkpt lat="49.27585" lon="-0.14917">
        <ele>2.8</ele>
        <time>2024-05-26T06:39:52Z</time>
      </trkpt>
      <trkpt lat="49.27581" lon="-0.14924">
        <ele>2.8</ele>
        <time>2024-05-26T06:39:53Z</time>
      </trkpt>
      <trkpt lat="49.27576" lon="-0.14932">
        <ele>2.8</ele>
        <time>2024-05-26T06:39:54Z</time>
      </trkpt>
      <trkpt lat="49.27571" lon="-0.14939">
        <ele>2.8</ele>
        <time>2024-05-26T06:39:55Z</time>
      </trkpt>
      <trkpt lat="49.27566" lon="-0.14946">
        <ele>2.8</ele>
        <time>2024-05-26T06:39:56Z</time>
      </trkpt>
      <trkpt lat="49.27561" lon="-0.14953">
        <ele>2.8</ele>
        <time>2024-05-26T06:39:57Z</time>
      </trkpt>
      <trkpt lat="49.27556" lon="-0.1496">
        <ele>2.8</ele>
        <time>2024-05-26T06:39:58Z</time>
      </trkpt>
      <trkpt lat="49.27552" lon="-0.14967">
        <ele>2.8</ele>
        <time>2024-05-26T06:39:59Z</time>
      </trkpt>
      <trkpt lat="49.27547" lon="-0.14975">
        <ele>2.8</ele>
        <time>2024-05-26T06:40:00Z</time>
      </trkpt>
      <trkpt lat="49.27542" lon="-0.14982">
        <ele>2.8</ele>
        <time>2024-05-26T06:40:01Z</time>
      </trkpt>
      <trkpt lat="49.27537" lon="-0.14989">
        <ele>2.8</ele>
        <time>2024-05-26T06:40:02Z</time>
      </trkpt>
      <trkpt lat="49.27532" lon="-0.14996">
        <ele>2.8</ele>
        <time>2024-05-26T06:40:03Z</time>
      </trkpt>
      <trkpt lat="49.27527" lon="-0.15003">
        <ele>3</ele>
        <time>2024-05-26T06:40:04Z</time>
      </trkpt>
      <trkpt lat="49.27522" lon="-0.15009">
        <ele>3</ele>
        <time>2024-05-26T06:40:05Z</time>
      </trkpt>
      <trkpt lat="49.27518" lon="-0.15015">
        <ele>3</ele>
        <time>2024-05-26T06:40:06Z</time>
      </trkpt>
      <trkpt lat="49.27513" lon="-0.15022">
        <ele>3</ele>
        <time>2024-05-26T06:40:07Z</time>
      </trkpt>
      <trkpt lat="49.27508" lon="-0.15028">
        <ele>3</ele>
        <time>2024-05-26T06:40:08Z</time>
      </trkpt>
      <trkpt lat="49.27503" lon="-0.15035">
        <ele>2.8</ele>
        <time>2024-05-26T06:40:09Z</time>
      </trkpt>
      <trkpt lat="49.27497" lon="-0.15041">
        <ele>2.8</ele>
        <time>2024-05-26T06:40:10Z</time>
      </trkpt>
      <trkpt lat="49.27492" lon="-0.15047">
        <ele>2.8</ele>
        <time>2024-05-26T06:40:11Z</time>
      </trkpt>
      <trkpt lat="49.27485" lon="-0.15053">
        <ele>3</ele>
        <time>2024-05-26T06:40:12Z</time>
      </trkpt>
      <trkpt lat="49.2748" lon="-0.15059">
        <ele>3.2</ele>
        <time>2024-05-26T06:40:13Z</time>
      </trkpt>
      <trkpt lat="49.27474" lon="-0.15065">
        <ele>3.2</ele>
        <time>2024-05-26T06:40:14Z</time>
      </trkpt>
      <trkpt lat="49.27468" lon="-0.15071">
        <ele>3.2</ele>
        <time>2024-05-26T06:40:15Z</time>
      </trkpt>
      <trkpt lat="49.27462" lon="-0.15076">
        <ele>3.2</ele>
        <time>2024-05-26T06:40:16Z</time>
      </trkpt>
      <trkpt lat="49.27457" lon="-0.15081">
        <ele>3</ele>
        <time>2024-05-26T06:40:17Z</time>
      </trkpt>
      <trkpt lat="49.27451" lon="-0.15087">
        <ele>3</ele>
        <time>2024-05-26T06:40:18Z</time>
      </trkpt>
      <trkpt lat="49.27445" lon="-0.15093">
        <ele>3</ele>
        <time>2024-05-26T06:40:19Z</time>
      </trkpt>
      <trkpt lat="49.27439" lon="-0.15099">
        <ele>3</ele>
        <time>2024-05-26T06:40:20Z</time>
      </trkpt>
      <trkpt lat="49.27433" lon="-0.15105">
        <ele>3</ele>
        <time>2024-05-26T06:40:21Z</time>
      </trkpt>
      <trkpt lat="49.27427" lon="-0.15111">
        <ele>3</ele>
        <time>2024-05-26T06:40:22Z</time>
      </trkpt>
      <trkpt lat="49.27421" lon="-0.15116">
        <ele>3</ele>
        <time>2024-05-26T06:40:23Z</time>
      </trkpt>
      <trkpt lat="49.27415" lon="-0.15122">
        <ele>3</ele>
        <time>2024-05-26T06:40:24Z</time>
      </trkpt>
      <trkpt lat="49.27409" lon="-0.15127">
        <ele>3</ele>
        <time>2024-05-26T06:40:25Z</time>
      </trkpt>
      <trkpt lat="49.27403" lon="-0.15133">
        <ele>2.8</ele>
        <time>2024-05-26T06:40:26Z</time>
      </trkpt>
      <trkpt lat="49.27397" lon="-0.15139">
        <ele>2.8</ele>
        <time>2024-05-26T06:40:27Z</time>
      </trkpt>
      <trkpt lat="49.27392" lon="-0.15144">
        <ele>2.8</ele>
        <time>2024-05-26T06:40:28Z</time>
      </trkpt>
      <trkpt lat="49.27386" lon="-0.1515">
        <ele>2.8</ele>
        <time>2024-05-26T06:40:29Z</time>
      </trkpt>
      <trkpt lat="49.2738" lon="-0.15156">
        <ele>2.6</ele>
        <time>2024-05-26T06:40:30Z</time>
      </trkpt>
      <trkpt lat="49.27374" lon="-0.15161">
        <ele>2.6</ele>
        <time>2024-05-26T06:40:31Z</time>
      </trkpt>
      <trkpt lat="49.27368" lon="-0.15167">
        <ele>2.6</ele>
        <time>2024-05-26T06:40:32Z</time>
      </trkpt>
      <trkpt lat="49.27362" lon="-0.15173">
        <ele>2.6</ele>
        <time>2024-05-26T06:40:33Z</time>
      </trkpt>
      <trkpt lat="49.27357" lon="-0.15178">
        <ele>2.4</ele>
        <time>2024-05-26T06:40:34Z</time>
      </trkpt>
      <trkpt lat="49.27351" lon="-0.15184">
        <ele>2.4</ele>
        <time>2024-05-26T06:40:35Z</time>
      </trkpt>
      <trkpt lat="49.27345" lon="-0.1519">
        <ele>2.4</ele>
        <time>2024-05-26T06:40:36Z</time>
      </trkpt>
      <trkpt lat="49.27338" lon="-0.15197">
        <ele>2.6</ele>
        <time>2024-05-26T06:40:37Z</time>
      </trkpt>
      <trkpt lat="49.27333" lon="-0.15201">
        <ele>2.4</ele>
        <time>2024-05-26T06:40:38Z</time>
      </trkpt>
      <trkpt lat="49.27326" lon="-0.15208">
        <ele>2.4</ele>
        <time>2024-05-26T06:40:39Z</time>
      </trkpt>
      <trkpt lat="49.27321" lon="-0.15214">
        <ele>2.4</ele>
        <time>2024-05-26T06:40:40Z</time>
      </trkpt>
      <trkpt lat="49.27316" lon="-0.15218">
        <ele>2.4</ele>
        <time>2024-05-26T06:40:41Z</time>
      </trkpt>
      <trkpt lat="49.2731" lon="-0.15224">
        <ele>2.4</ele>
        <time>2024-05-26T06:40:42Z</time>
      </trkpt>
      <trkpt lat="49.27304" lon="-0.1523">
        <ele>2.4</ele>
        <time>2024-05-26T06:40:43Z</time>
      </trkpt>
      <trkpt lat="49.27298" lon="-0.15236">
        <ele>2.4</ele>
        <time>2024-05-26T06:40:44Z</time>
      </trkpt>
      <trkpt lat="49.27293" lon="-0.15242">
        <ele>2.4</ele>
        <time>2024-05-26T06:40:45Z</time>
      </trkpt>
      <trkpt lat="49.27286" lon="-0.1525">
        <ele>2.4</ele>
        <time>2024-05-26T06:40:46Z</time>
      </trkpt>
      <trkpt lat="49.27282" lon="-0.15255">
        <ele>2.4</ele>
        <time>2024-05-26T06:40:47Z</time>
      </trkpt>
      <trkpt lat="49.27275" lon="-0.15262">
        <ele>2.2</ele>
        <time>2024-05-26T06:40:48Z</time>
      </trkpt>
      <trkpt lat="49.2727" lon="-0.15268">
        <ele>2.2</ele>
        <time>2024-05-26T06:40:49Z</time>
      </trkpt>
      <trkpt lat="49.27265" lon="-0.15274">
        <ele>2.2</ele>
        <time>2024-05-26T06:40:50Z</time>
      </trkpt>
      <trkpt lat="49.27259" lon="-0.15282">
        <ele>2.2</ele>
        <time>2024-05-26T06:40:51Z</time>
      </trkpt>
      <trkpt lat="49.27254" lon="-0.1529">
        <ele>2.2</ele>
        <time>2024-05-26T06:40:52Z</time>
      </trkpt>
      <trkpt lat="49.2725" lon="-0.15295">
        <ele>2.2</ele>
        <time>2024-05-26T06:40:53Z</time>
      </trkpt>
      <trkpt lat="49.27244" lon="-0.15304">
        <ele>2.2</ele>
        <time>2024-05-26T06:40:54Z</time>
      </trkpt>
      <trkpt lat="49.27239" lon="-0.15312">
        <ele>2.2</ele>
        <time>2024-05-26T06:40:55Z</time>
      </trkpt>
      <trkpt lat="49.27234" lon="-0.15318">
        <ele>2.2</ele>
        <time>2024-05-26T06:40:56Z</time>
      </trkpt>
      <trkpt lat="49.27228" lon="-0.15327">
        <ele>2</ele>
        <time>2024-05-26T06:40:57Z</time>
      </trkpt>
      <trkpt lat="49.27224" lon="-0.15333">
        <ele>2</ele>
        <time>2024-05-26T06:40:58Z</time>
      </trkpt>
      <trkpt lat="49.2722" lon="-0.1534">
        <ele>2</ele>
        <time>2024-05-26T06:40:59Z</time>
      </trkpt>
      <trkpt lat="49.27214" lon="-0.15349">
        <ele>2</ele>
        <time>2024-05-26T06:41:00Z</time>
      </trkpt>
      <trkpt lat="49.2721" lon="-0.15356">
        <ele>2</ele>
        <time>2024-05-26T06:41:01Z</time>
      </trkpt>
      <trkpt lat="49.27205" lon="-0.15363">
        <ele>2</ele>
        <time>2024-05-26T06:41:02Z</time>
      </trkpt>
      <trkpt lat="49.272" lon="-0.15371">
        <ele>2</ele>
        <time>2024-05-26T06:41:03Z</time>
      </trkpt>
      <trkpt lat="49.27195" lon="-0.15378">
        <ele>2</ele>
        <time>2024-05-26T06:41:04Z</time>
      </trkpt>
      <trkpt lat="49.2719" lon="-0.15386">
        <ele>2</ele>
        <time>2024-05-26T06:41:05Z</time>
      </trkpt>
      <trkpt lat="49.27184" lon="-0.15395">
        <ele>2</ele>
        <time>2024-05-26T06:41:06Z</time>
      </trkpt>
      <trkpt lat="49.2718" lon="-0.15402">
        <ele>2</ele>
        <time>2024-05-26T06:41:07Z</time>
      </trkpt>
      <trkpt lat="49.27176" lon="-0.15409">
        <ele>2</ele>
        <time>2024-05-26T06:41:08Z</time>
      </trkpt>
      <trkpt lat="49.27171" lon="-0.15416">
        <ele>2</ele>
        <time>2024-05-26T06:41:09Z</time>
      </trkpt>
      <trkpt lat="49.27165" lon="-0.15425">
        <ele>2</ele>
        <time>2024-05-26T06:41:10Z</time>
      </trkpt>
      <trkpt lat="49.27162" lon="-0.15432">
        <ele>2</ele>
        <time>2024-05-26T06:41:11Z</time>
      </trkpt>
      <trkpt lat="49.27156" lon="-0.15441">
        <ele>2</ele>
        <time>2024-05-26T06:41:12Z</time>
      </trkpt>
      <trkpt lat="49.27151" lon="-0.15449">
        <ele>2</ele>
        <time>2024-05-26T06:41:13Z</time>
      </trkpt>
      <trkpt lat="49.27147" lon="-0.15455">
        <ele>2</ele>
        <time>2024-05-26T06:41:14Z</time>
      </trkpt>
      <trkpt lat="49.27141" lon="-0.15465">
        <ele>2.2</ele>
        <time>2024-05-26T06:41:15Z</time>
      </trkpt>
      <trkpt lat="49.27137" lon="-0.15471">
        <ele>2.2</ele>
        <time>2024-05-26T06:41:16Z</time>
      </trkpt>
      <trkpt lat="49.27132" lon="-0.15479">
        <ele>2.2</ele>
        <time>2024-05-26T06:41:17Z</time>
      </trkpt>
      <trkpt lat="49.27126" lon="-0.15488">
        <ele>2.2</ele>
        <time>2024-05-26T06:41:18Z</time>
      </trkpt>
      <trkpt lat="49.2712" lon="-0.15496">
        <ele>2</ele>
        <time>2024-05-26T06:41:19Z</time>
      </trkpt>
      <trkpt lat="49.27116" lon="-0.15502">
        <ele>2</ele>
        <time>2024-05-26T06:41:20Z</time>
      </trkpt>
      <trkpt lat="49.27111" lon="-0.15512">
        <ele>2</ele>
        <time>2024-05-26T06:41:21Z</time>
      </trkpt>
      <trkpt lat="49.27106" lon="-0.15519">
        <ele>2</ele>
        <time>2024-05-26T06:41:22Z</time>
      </trkpt>
      <trkpt lat="49.27101" lon="-0.15527">
        <ele>2</ele>
        <time>2024-05-26T06:41:23Z</time>
      </trkpt>
      <trkpt lat="49.27096" lon="-0.15535">
        <ele>2</ele>
        <time>2024-05-26T06:41:24Z</time>
      </trkpt>
      <trkpt lat="49.27092" lon="-0.15541">
        <ele>2</ele>
        <time>2024-05-26T06:41:25Z</time>
      </trkpt>
      <trkpt lat="49.27087" lon="-0.15549">
        <ele>2</ele>
        <time>2024-05-26T06:41:26Z</time>
      </trkpt>
      <trkpt lat="49.27082" lon="-0.15557">
        <ele>2</ele>
        <time>2024-05-26T06:41:27Z</time>
      </trkpt>
      <trkpt lat="49.27077" lon="-0.15564">
        <ele>2</ele>
        <time>2024-05-26T06:41:28Z</time>
      </trkpt>
      <trkpt lat="49.27071" lon="-0.15573">
        <ele>2.2</ele>
        <time>2024-05-26T06:41:29Z</time>
      </trkpt>
      <trkpt lat="49.27066" lon="-0.15581">
        <ele>2.2</ele>
        <time>2024-05-26T06:41:30Z</time>
      </trkpt>
      <trkpt lat="49.27061" lon="-0.15589">
        <ele>2</ele>
        <time>2024-05-26T06:41:31Z</time>
      </trkpt>
      <trkpt lat="49.27057" lon="-0.15596">
        <ele>2</ele>
        <time>2024-05-26T06:41:32Z</time>
      </trkpt>
      <trkpt lat="49.27052" lon="-0.15603">
        <ele>2</ele>
        <time>2024-05-26T06:41:33Z</time>
      </trkpt>
      <trkpt lat="49.27048" lon="-0.15609">
        <ele>2</ele>
        <time>2024-05-26T06:41:34Z</time>
      </trkpt>
      <trkpt lat="49.27042" lon="-0.15618">
        <ele>2</ele>
        <time>2024-05-26T06:41:35Z</time>
      </trkpt>
      <trkpt lat="49.27038" lon="-0.15624">
        <ele>2</ele>
        <time>2024-05-26T06:41:36Z</time>
      </trkpt>
      <trkpt lat="49.27033" lon="-0.15633">
        <ele>2</ele>
        <time>2024-05-26T06:41:37Z</time>
      </trkpt>
      <trkpt lat="49.27028" lon="-0.1564">
        <ele>2</ele>
        <time>2024-05-26T06:41:38Z</time>
      </trkpt>
      <trkpt lat="49.27024" lon="-0.15646">
        <ele>2</ele>
        <time>2024-05-26T06:41:39Z</time>
      </trkpt>
      <trkpt lat="49.2702" lon="-0.15654">
        <ele>2</ele>
        <time>2024-05-26T06:41:40Z</time>
      </trkpt>
      <trkpt lat="49.27015" lon="-0.15661">
        <ele>2</ele>
        <time>2024-05-26T06:41:41Z</time>
      </trkpt>
      <trkpt lat="49.2701" lon="-0.15668">
        <ele>2</ele>
        <time>2024-05-26T06:41:42Z</time>
      </trkpt>
      <trkpt lat="49.27004" lon="-0.15677">
        <ele>2</ele>
        <time>2024-05-26T06:41:43Z</time>
      </trkpt>
      <trkpt lat="49.27001" lon="-0.15683">
        <ele>2</ele>
        <time>2024-05-26T06:41:44Z</time>
      </trkpt>
      <trkpt lat="49.26996" lon="-0.1569">
        <ele>2</ele>
        <time>2024-05-26T06:41:45Z</time>
      </trkpt>
      <trkpt lat="49.26991" lon="-0.15697">
        <ele>2</ele>
        <time>2024-05-26T06:41:46Z</time>
      </trkpt>
      <trkpt lat="49.26986" lon="-0.15704">
        <ele>2</ele>
        <time>2024-05-26T06:41:47Z</time>
      </trkpt>
      <trkpt lat="49.26981" lon="-0.15711">
        <ele>2</ele>
        <time>2024-05-26T06:41:48Z</time>
      </trkpt>
      <trkpt lat="49.26974" lon="-0.15719">
        <ele>2</ele>
        <time>2024-05-26T06:41:49Z</time>
      </trkpt>
      <trkpt lat="49.2697" lon="-0.15725">
        <ele>2</ele>
        <time>2024-05-26T06:41:50Z</time>
      </trkpt>
      <trkpt lat="49.26965" lon="-0.15731">
        <ele>2</ele>
        <time>2024-05-26T06:41:51Z</time>
      </trkpt>
      <trkpt lat="49.26958" lon="-0.15738">
        <ele>2</ele>
        <time>2024-05-26T06:41:52Z</time>
      </trkpt>
      <trkpt lat="49.26952" lon="-0.15745">
        <ele>2</ele>
        <time>2024-05-26T06:41:53Z</time>
      </trkpt>
      <trkpt lat="49.26948" lon="-0.15749">
        <ele>2</ele>
        <time>2024-05-26T06:41:54Z</time>
      </trkpt>
      <trkpt lat="49.2694" lon="-0.15756">
        <ele>2</ele>
        <time>2024-05-26T06:41:55Z</time>
      </trkpt>
      <trkpt lat="49.26934" lon="-0.15762">
        <ele>2</ele>
        <time>2024-05-26T06:41:56Z</time>
      </trkpt>
      <trkpt lat="49.26929" lon="-0.15766">
        <ele>2</ele>
        <time>2024-05-26T06:41:57Z</time>
      </trkpt>
      <trkpt lat="49.26923" lon="-0.15772">
        <ele>2</ele>
        <time>2024-05-26T06:41:58Z</time>
      </trkpt>
      <trkpt lat="49.26917" lon="-0.15777">
        <ele>2</ele>
        <time>2024-05-26T06:41:59Z</time>
      </trkpt>
      <trkpt lat="49.26911" lon="-0.15782">
        <ele>2.2</ele>
        <time>2024-05-26T06:42:00Z</time>
      </trkpt>
      <trkpt lat="49.26904" lon="-0.15787">
        <ele>2.2</ele>
        <time>2024-05-26T06:42:01Z</time>
      </trkpt>
      <trkpt lat="49.26898" lon="-0.15792">
        <ele>2.2</ele>
        <time>2024-05-26T06:42:02Z</time>
      </trkpt>
      <trkpt lat="49.26891" lon="-0.15796">
        <ele>2.2</ele>
        <time>2024-05-26T06:42:03Z</time>
      </trkpt>
      <trkpt lat="49.26884" lon="-0.158">
        <ele>2.2</ele>
        <time>2024-05-26T06:42:04Z</time>
      </trkpt>
      <trkpt lat="49.26879" lon="-0.15804">
        <ele>2.2</ele>
        <time>2024-05-26T06:42:05Z</time>
      </trkpt>
      <trkpt lat="49.26871" lon="-0.15808">
        <ele>2.2</ele>
        <time>2024-05-26T06:42:06Z</time>
      </trkpt>
      <trkpt lat="49.26864" lon="-0.15812">
        <ele>2.2</ele>
        <time>2024-05-26T06:42:07Z</time>
      </trkpt>
      <trkpt lat="49.26859" lon="-0.15815">
        <ele>2.2</ele>
        <time>2024-05-26T06:42:08Z</time>
      </trkpt>
      <trkpt lat="49.26852" lon="-0.15819">
        <ele>2</ele>
        <time>2024-05-26T06:42:09Z</time>
      </trkpt>
      <trkpt lat="49.26845" lon="-0.15822">
        <ele>2</ele>
        <time>2024-05-26T06:42:10Z</time>
      </trkpt>
      <trkpt lat="49.26838" lon="-0.15824">
        <ele>2</ele>
        <time>2024-05-26T06:42:11Z</time>
      </trkpt>
      <trkpt lat="49.26829" lon="-0.15828">
        <ele>2</ele>
        <time>2024-05-26T06:42:12Z</time>
      </trkpt>
      <trkpt lat="49.26822" lon="-0.1583">
        <ele>2</ele>
        <time>2024-05-26T06:42:13Z</time>
      </trkpt>
      <trkpt lat="49.26817" lon="-0.15832">
        <ele>2</ele>
        <time>2024-05-26T06:42:14Z</time>
      </trkpt>
      <trkpt lat="49.2681" lon="-0.15834">
        <ele>2</ele>
        <time>2024-05-26T06:42:15Z</time>
      </trkpt>
      <trkpt lat="49.26803" lon="-0.15836">
        <ele>2</ele>
        <time>2024-05-26T06:42:16Z</time>
      </trkpt>
      <trkpt lat="49.26796" lon="-0.15837">
        <ele>2</ele>
        <time>2024-05-26T06:42:17Z</time>
      </trkpt>
      <trkpt lat="49.26787" lon="-0.15839">
        <ele>2</ele>
        <time>2024-05-26T06:42:18Z</time>
      </trkpt>
      <trkpt lat="49.2678" lon="-0.1584">
        <ele>2</ele>
        <time>2024-05-26T06:42:19Z</time>
      </trkpt>
      <trkpt lat="49.26774" lon="-0.15841">
        <ele>2</ele>
        <time>2024-05-26T06:42:20Z</time>
      </trkpt>
      <trkpt lat="49.26766" lon="-0.15842">
        <ele>2</ele>
        <time>2024-05-26T06:42:21Z</time>
      </trkpt>
      <trkpt lat="49.26759" lon="-0.15843">
        <ele>2</ele>
        <time>2024-05-26T06:42:22Z</time>
      </trkpt>
      <trkpt lat="49.26753" lon="-0.15844">
        <ele>2</ele>
        <time>2024-05-26T06:42:23Z</time>
      </trkpt>
      <trkpt lat="49.26744" lon="-0.15845">
        <ele>2</ele>
        <time>2024-05-26T06:42:24Z</time>
      </trkpt>
      <trkpt lat="49.26739" lon="-0.15845">
        <ele>2</ele>
        <time>2024-05-26T06:42:25Z</time>
      </trkpt>
      <trkpt lat="49.26731" lon="-0.15846">
        <ele>2</ele>
        <time>2024-05-26T06:42:26Z</time>
      </trkpt>
      <trkpt lat="49.26723" lon="-0.15847">
        <ele>2</ele>
        <time>2024-05-26T06:42:27Z</time>
      </trkpt>
      <trkpt lat="49.26717" lon="-0.15847">
        <ele>2</ele>
        <time>2024-05-26T06:42:28Z</time>
      </trkpt>
      <trkpt lat="49.2671" lon="-0.15848">
        <ele>2</ele>
        <time>2024-05-26T06:42:29Z</time>
      </trkpt>
      <trkpt lat="49.26703" lon="-0.15849">
        <ele>2</ele>
        <time>2024-05-26T06:42:30Z</time>
      </trkpt>
      <trkpt lat="49.26694" lon="-0.1585">
        <ele>2</ele>
        <time>2024-05-26T06:42:31Z</time>
      </trkpt>
      <trkpt lat="49.26688" lon="-0.1585">
        <ele>2</ele>
        <time>2024-05-26T06:42:32Z</time>
      </trkpt>
      <trkpt lat="49.26681" lon="-0.15851">
        <ele>2</ele>
        <time>2024-05-26T06:42:33Z</time>
      </trkpt>
      <trkpt lat="49.26674" lon="-0.15852">
        <ele>1.8</ele>
        <time>2024-05-26T06:42:34Z</time>
      </trkpt>
      <trkpt lat="49.26667" lon="-0.15852">
        <ele>1.8</ele>
        <time>2024-05-26T06:42:35Z</time>
      </trkpt>
      <trkpt lat="49.26659" lon="-0.15852">
        <ele>1.8</ele>
        <time>2024-05-26T06:42:36Z</time>
      </trkpt>
      <trkpt lat="49.26652" lon="-0.15853">
        <ele>1.8</ele>
        <time>2024-05-26T06:42:37Z</time>
      </trkpt>
      <trkpt lat="49.26646" lon="-0.15854">
        <ele>1.8</ele>
        <time>2024-05-26T06:42:38Z</time>
      </trkpt>
      <trkpt lat="49.26638" lon="-0.15855">
        <ele>1.8</ele>
        <time>2024-05-26T06:42:39Z</time>
      </trkpt>
      <trkpt lat="49.26631" lon="-0.15856">
        <ele>1.8</ele>
        <time>2024-05-26T06:42:40Z</time>
      </trkpt>
      <trkpt lat="49.26625" lon="-0.15856">
        <ele>1.8</ele>
        <time>2024-05-26T06:42:41Z</time>
      </trkpt>
      <trkpt lat="49.26618" lon="-0.15857">
        <ele>1.8</ele>
        <time>2024-05-26T06:42:42Z</time>
      </trkpt>
      <trkpt lat="49.26611" lon="-0.15858">
        <ele>1.8</ele>
        <time>2024-05-26T06:42:43Z</time>
      </trkpt>
      <trkpt lat="49.26604" lon="-0.15859">
        <ele>1.8</ele>
        <time>2024-05-26T06:42:44Z</time>
      </trkpt>
      <trkpt lat="49.26595" lon="-0.1586">
        <ele>1.8</ele>
        <time>2024-05-26T06:42:45Z</time>
      </trkpt>
      <trkpt lat="49.26589" lon="-0.15861">
        <ele>1.8</ele>
        <time>2024-05-26T06:42:46Z</time>
      </trkpt>
      <trkpt lat="49.26582" lon="-0.15862">
        <ele>1.8</ele>
        <time>2024-05-26T06:42:47Z</time>
      </trkpt>
      <trkpt lat="49.26573" lon="-0.15864">
        <ele>1.8</ele>
        <time>2024-05-26T06:42:48Z</time>
      </trkpt>
      <trkpt lat="49.26568" lon="-0.15865">
        <ele>1.8</ele>
        <time>2024-05-26T06:42:49Z</time>
      </trkpt>
      <trkpt lat="49.26561" lon="-0.15867">
        <ele>1.8</ele>
        <time>2024-05-26T06:42:50Z</time>
      </trkpt>
      <trkpt lat="49.26553" lon="-0.15869">
        <ele>1.8</ele>
        <time>2024-05-26T06:42:51Z</time>
      </trkpt>
      <trkpt lat="49.26546" lon="-0.15871">
        <ele>1.8</ele>
        <time>2024-05-26T06:42:52Z</time>
      </trkpt>
      <trkpt lat="49.26539" lon="-0.15874">
        <ele>1.8</ele>
        <time>2024-05-26T06:42:53Z</time>
      </trkpt>
      <trkpt lat="49.26531" lon="-0.15877">
        <ele>1.8</ele>
        <time>2024-05-26T06:42:54Z</time>
      </trkpt>
      <trkpt lat="49.26523" lon="-0.1588">
        <ele>1.8</ele>
        <time>2024-05-26T06:42:55Z</time>
      </trkpt>
      <trkpt lat="49.26516" lon="-0.15883">
        <ele>1.8</ele>
        <time>2024-05-26T06:42:56Z</time>
      </trkpt>
      <trkpt lat="49.26511" lon="-0.15886">
        <ele>1.8</ele>
        <time>2024-05-26T06:42:57Z</time>
      </trkpt>
      <trkpt lat="49.26504" lon="-0.15889">
        <ele>1.8</ele>
        <time>2024-05-26T06:42:58Z</time>
      </trkpt>
      <trkpt lat="49.26497" lon="-0.15893">
        <ele>1.8</ele>
        <time>2024-05-26T06:42:59Z</time>
      </trkpt>
      <trkpt lat="49.26488" lon="-0.15897">
        <ele>1.8</ele>
        <time>2024-05-26T06:43:00Z</time>
      </trkpt>
      <trkpt lat="49.26482" lon="-0.159">
        <ele>1.8</ele>
        <time>2024-05-26T06:43:01Z</time>
      </trkpt>
      <trkpt lat="49.26475" lon="-0.15904">
        <ele>1.6</ele>
        <time>2024-05-26T06:43:02Z</time>
      </trkpt>
      <trkpt lat="49.26468" lon="-0.15908">
        <ele>1.6</ele>
        <time>2024-05-26T06:43:03Z</time>
      </trkpt>
      <trkpt lat="49.26461" lon="-0.15911">
        <ele>1.6</ele>
        <time>2024-05-26T06:43:04Z</time>
      </trkpt>
      <trkpt lat="49.26454" lon="-0.15915">
        <ele>1.6</ele>
        <time>2024-05-26T06:43:05Z</time>
      </trkpt>
      <trkpt lat="49.26447" lon="-0.15918">
        <ele>1.6</ele>
        <time>2024-05-26T06:43:06Z</time>
      </trkpt>
      <trkpt lat="49.26438" lon="-0.15923">
        <ele>1.6</ele>
        <time>2024-05-26T06:43:07Z</time>
      </trkpt>
      <trkpt lat="49.26432" lon="-0.15926">
        <ele>1.6</ele>
        <time>2024-05-26T06:43:08Z</time>
      </trkpt>
      <trkpt lat="49.26425" lon="-0.15929">
        <ele>1.6</ele>
        <time>2024-05-26T06:43:09Z</time>
      </trkpt>
      <trkpt lat="49.26417" lon="-0.15934">
        <ele>1.6</ele>
        <time>2024-05-26T06:43:10Z</time>
      </trkpt>
      <trkpt lat="49.2641" lon="-0.15937">
        <ele>1.6</ele>
        <time>2024-05-26T06:43:11Z</time>
      </trkpt>
      <trkpt lat="49.26404" lon="-0.1594">
        <ele>1.6</ele>
        <time>2024-05-26T06:43:12Z</time>
      </trkpt>
      <trkpt lat="49.26397" lon="-0.15943">
        <ele>1.6</ele>
        <time>2024-05-26T06:43:13Z</time>
      </trkpt>
      <trkpt lat="49.26389" lon="-0.15948">
        <ele>1.6</ele>
        <time>2024-05-26T06:43:14Z</time>
      </trkpt>
      <trkpt lat="49.26382" lon="-0.15951">
        <ele>1.4</ele>
        <time>2024-05-26T06:43:15Z</time>
      </trkpt>
      <trkpt lat="49.26376" lon="-0.15954">
        <ele>1.4</ele>
        <time>2024-05-26T06:43:16Z</time>
      </trkpt>
      <trkpt lat="49.26369" lon="-0.15958">
        <ele>1.4</ele>
        <time>2024-05-26T06:43:17Z</time>
      </trkpt>
      <trkpt lat="49.26361" lon="-0.15962">
        <ele>1.4</ele>
        <time>2024-05-26T06:43:18Z</time>
      </trkpt>
      <trkpt lat="49.26355" lon="-0.15965">
        <ele>1.4</ele>
        <time>2024-05-26T06:43:19Z</time>
      </trkpt>
      <trkpt lat="49.26347" lon="-0.1597">
        <ele>1.4</ele>
        <time>2024-05-26T06:43:20Z</time>
      </trkpt>
      <trkpt lat="49.2634" lon="-0.15973">
        <ele>1.4</ele>
        <time>2024-05-26T06:43:21Z</time>
      </trkpt>
      <trkpt lat="49.26334" lon="-0.15976">
        <ele>1.4</ele>
        <time>2024-05-26T06:43:22Z</time>
      </trkpt>
      <trkpt lat="49.26326" lon="-0.1598">
        <ele>1.4</ele>
        <time>2024-05-26T06:43:23Z</time>
      </trkpt>
      <trkpt lat="49.26319" lon="-0.15984">
        <ele>1.4</ele>
        <time>2024-05-26T06:43:24Z</time>
      </trkpt>
      <trkpt lat="49.26314" lon="-0.15987">
        <ele>1.4</ele>
        <time>2024-05-26T06:43:25Z</time>
      </trkpt>
      <trkpt lat="49.26307" lon="-0.1599">
        <ele>1.4</ele>
        <time>2024-05-26T06:43:26Z</time>
      </trkpt>
      <trkpt lat="49.263" lon="-0.15994">
        <ele>1.4</ele>
        <time>2024-05-26T06:43:27Z</time>
      </trkpt>
      <trkpt lat="49.26294" lon="-0.15997">
        <ele>1.4</ele>
        <time>2024-05-26T06:43:28Z</time>
      </trkpt>
      <trkpt lat="49.26286" lon="-0.16001">
        <ele>1.4</ele>
        <time>2024-05-26T06:43:29Z</time>
      </trkpt>
      <trkpt lat="49.26279" lon="-0.16004">
        <ele>1.4</ele>
        <time>2024-05-26T06:43:30Z</time>
      </trkpt>
      <trkpt lat="49.26274" lon="-0.16007">
        <ele>1.4</ele>
        <time>2024-05-26T06:43:31Z</time>
      </trkpt>
      <trkpt lat="49.26266" lon="-0.16011">
        <ele>1.4</ele>
        <time>2024-05-26T06:43:32Z</time>
      </trkpt>
      <trkpt lat="49.2626" lon="-0.16014">
        <ele>1.4</ele>
        <time>2024-05-26T06:43:33Z</time>
      </trkpt>
      <trkpt lat="49.26254" lon="-0.16018">
        <ele>1.4</ele>
        <time>2024-05-26T06:43:34Z</time>
      </trkpt>
      <trkpt lat="49.26247" lon="-0.16021">
        <ele>1.4</ele>
        <time>2024-05-26T06:43:35Z</time>
      </trkpt>
      <trkpt lat="49.26239" lon="-0.16025">
        <ele>1.4</ele>
        <time>2024-05-26T06:43:36Z</time>
      </trkpt>
      <trkpt lat="49.26233" lon="-0.16028">
        <ele>1.4</ele>
        <time>2024-05-26T06:43:37Z</time>
      </trkpt>
      <trkpt lat="49.26225" lon="-0.16032">
        <ele>1.4</ele>
        <time>2024-05-26T06:43:38Z</time>
      </trkpt>
      <trkpt lat="49.26219" lon="-0.16036">
        <ele>1.4</ele>
        <time>2024-05-26T06:43:39Z</time>
      </trkpt>
      <trkpt lat="49.26213" lon="-0.16039">
        <ele>1.4</ele>
        <time>2024-05-26T06:43:40Z</time>
      </trkpt>
      <trkpt lat="49.26205" lon="-0.16043">
        <ele>1.4</ele>
        <time>2024-05-26T06:43:41Z</time>
      </trkpt>
      <trkpt lat="49.26199" lon="-0.16045">
        <ele>1.4</ele>
        <time>2024-05-26T06:43:42Z</time>
      </trkpt>
      <trkpt lat="49.26192" lon="-0.16049">
        <ele>1.4</ele>
        <time>2024-05-26T06:43:43Z</time>
      </trkpt>
      <trkpt lat="49.26184" lon="-0.16052">
        <ele>1.4</ele>
        <time>2024-05-26T06:43:44Z</time>
      </trkpt>
      <trkpt lat="49.26176" lon="-0.16055">
        <ele>1.4</ele>
        <time>2024-05-26T06:43:45Z</time>
      </trkpt>
      <trkpt lat="49.26171" lon="-0.16057">
        <ele>1.4</ele>
        <time>2024-05-26T06:43:46Z</time>
      </trkpt>
      <trkpt lat="49.26162" lon="-0.1606">
        <ele>1.4</ele>
        <time>2024-05-26T06:43:47Z</time>
      </trkpt>
      <trkpt lat="49.26155" lon="-0.16063">
        <ele>1.4</ele>
        <time>2024-05-26T06:43:48Z</time>
      </trkpt>
      <trkpt lat="49.26149" lon="-0.16064">
        <ele>1.4</ele>
        <time>2024-05-26T06:43:49Z</time>
      </trkpt>
      <trkpt lat="49.26141" lon="-0.16066">
        <ele>1.4</ele>
        <time>2024-05-26T06:43:50Z</time>
      </trkpt>
      <trkpt lat="49.26134" lon="-0.16068">
        <ele>1.4</ele>
        <time>2024-05-26T06:43:51Z</time>
      </trkpt>
      <trkpt lat="49.26127" lon="-0.1607">
        <ele>1.4</ele>
        <time>2024-05-26T06:43:52Z</time>
      </trkpt>
      <trkpt lat="49.26118" lon="-0.16071">
        <ele>1.6</ele>
        <time>2024-05-26T06:43:53Z</time>
      </trkpt>
      <trkpt lat="49.26112" lon="-0.16072">
        <ele>1.6</ele>
        <time>2024-05-26T06:43:54Z</time>
      </trkpt>
      <trkpt lat="49.26103" lon="-0.16073">
        <ele>1.6</ele>
        <time>2024-05-26T06:43:55Z</time>
      </trkpt>
      <trkpt lat="49.26097" lon="-0.16074">
        <ele>1.6</ele>
        <time>2024-05-26T06:43:56Z</time>
      </trkpt>
      <trkpt lat="49.2609" lon="-0.16074">
        <ele>1.6</ele>
        <time>2024-05-26T06:43:57Z</time>
      </trkpt>
      <trkpt lat="49.26082" lon="-0.16075">
        <ele>1.6</ele>
        <time>2024-05-26T06:43:58Z</time>
      </trkpt>
      <trkpt lat="49.26073" lon="-0.16075">
        <ele>1.6</ele>
        <time>2024-05-26T06:43:59Z</time>
      </trkpt>
      <trkpt lat="49.26067" lon="-0.16075">
        <ele>1.6</ele>
        <time>2024-05-26T06:44:00Z</time>
      </trkpt>
      <trkpt lat="49.2606" lon="-0.16075">
        <ele>1.6</ele>
        <time>2024-05-26T06:44:01Z</time>
      </trkpt>
      <trkpt lat="49.26051" lon="-0.16074">
        <ele>1.6</ele>
        <time>2024-05-26T06:44:02Z</time>
      </trkpt>
      <trkpt lat="49.26045" lon="-0.16074">
        <ele>1.6</ele>
        <time>2024-05-26T06:44:03Z</time>
      </trkpt>
      <trkpt lat="49.26038" lon="-0.16073">
        <ele>1.6</ele>
        <time>2024-05-26T06:44:04Z</time>
      </trkpt>
      <trkpt lat="49.26028" lon="-0.16072">
        <ele>1.4</ele>
        <time>2024-05-26T06:44:05Z</time>
      </trkpt>
      <trkpt lat="49.26022" lon="-0.16071">
        <ele>1.6</ele>
        <time>2024-05-26T06:44:06Z</time>
      </trkpt>
      <trkpt lat="49.26013" lon="-0.16069">
        <ele>1.6</ele>
        <time>2024-05-26T06:44:07Z</time>
      </trkpt>
      <trkpt lat="49.26006" lon="-0.16068">
        <ele>1.4</ele>
        <time>2024-05-26T06:44:08Z</time>
      </trkpt>
      <trkpt lat="49.26" lon="-0.16066">
        <ele>1.4</ele>
        <time>2024-05-26T06:44:09Z</time>
      </trkpt>
      <trkpt lat="49.25993" lon="-0.16064">
        <ele>1.4</ele>
        <time>2024-05-26T06:44:10Z</time>
      </trkpt>
      <trkpt lat="49.25984" lon="-0.16062">
        <ele>1.4</ele>
        <time>2024-05-26T06:44:11Z</time>
      </trkpt>
      <trkpt lat="49.25979" lon="-0.1606">
        <ele>1.4</ele>
        <time>2024-05-26T06:44:12Z</time>
      </trkpt>
      <trkpt lat="49.2597" lon="-0.16058">
        <ele>1.4</ele>
        <time>2024-05-26T06:44:13Z</time>
      </trkpt>
      <trkpt lat="49.25965" lon="-0.16056">
        <ele>1.4</ele>
        <time>2024-05-26T06:44:14Z</time>
      </trkpt>
      <trkpt lat="49.25957" lon="-0.16054">
        <ele>1.4</ele>
        <time>2024-05-26T06:44:15Z</time>
      </trkpt>
      <trkpt lat="49.25949" lon="-0.16052">
        <ele>1.4</ele>
        <time>2024-05-26T06:44:16Z</time>
      </trkpt>
      <trkpt lat="49.25943" lon="-0.16051">
        <ele>1.4</ele>
        <time>2024-05-26T06:44:17Z</time>
      </trkpt>
      <trkpt lat="49.25936" lon="-0.16049">
        <ele>1.4</ele>
        <time>2024-05-26T06:44:18Z</time>
      </trkpt>
      <trkpt lat="49.25929" lon="-0.16047">
        <ele>1.4</ele>
        <time>2024-05-26T06:44:19Z</time>
      </trkpt>
      <trkpt lat="49.2592" lon="-0.16044">
        <ele>1.4</ele>
        <time>2024-05-26T06:44:20Z</time>
      </trkpt>
      <trkpt lat="49.25915" lon="-0.16043">
        <ele>1.4</ele>
        <time>2024-05-26T06:44:21Z</time>
      </trkpt>
      <trkpt lat="49.25906" lon="-0.16041">
        <ele>1.4</ele>
        <time>2024-05-26T06:44:22Z</time>
      </trkpt>
      <trkpt lat="49.25899" lon="-0.16039">
        <ele>1.4</ele>
        <time>2024-05-26T06:44:23Z</time>
      </trkpt>
      <trkpt lat="49.25893" lon="-0.16037">
        <ele>1.4</ele>
        <time>2024-05-26T06:44:24Z</time>
      </trkpt>
      <trkpt lat="49.25884" lon="-0.16035">
        <ele>1.4</ele>
        <time>2024-05-26T06:44:25Z</time>
      </trkpt>
      <trkpt lat="49.25878" lon="-0.16034">
        <ele>1.4</ele>
        <time>2024-05-26T06:44:26Z</time>
      </trkpt>
      <trkpt lat="49.25871" lon="-0.16032">
        <ele>1.4</ele>
        <time>2024-05-26T06:44:27Z</time>
      </trkpt>
      <trkpt lat="49.25862" lon="-0.1603">
        <ele>1.4</ele>
        <time>2024-05-26T06:44:28Z</time>
      </trkpt>
      <trkpt lat="49.25855" lon="-0.16028">
        <ele>1.4</ele>
        <time>2024-05-26T06:44:29Z</time>
      </trkpt>
      <trkpt lat="49.25849" lon="-0.16026">
        <ele>1.4</ele>
        <time>2024-05-26T06:44:30Z</time>
      </trkpt>
      <trkpt lat="49.2584" lon="-0.16023">
        <ele>1.4</ele>
        <time>2024-05-26T06:44:31Z</time>
      </trkpt>
      <trkpt lat="49.25834" lon="-0.16022">
        <ele>1.4</ele>
        <time>2024-05-26T06:44:32Z</time>
      </trkpt>
      <trkpt lat="49.25827" lon="-0.1602">
        <ele>1.4</ele>
        <time>2024-05-26T06:44:33Z</time>
      </trkpt>
      <trkpt lat="49.2582" lon="-0.16019">
        <ele>1.4</ele>
        <time>2024-05-26T06:44:34Z</time>
      </trkpt>
      <trkpt lat="49.25812" lon="-0.16017">
        <ele>1.4</ele>
        <time>2024-05-26T06:44:35Z</time>
      </trkpt>
      <trkpt lat="49.25805" lon="-0.16015">
        <ele>1.4</ele>
        <time>2024-05-26T06:44:36Z</time>
      </trkpt>
      <trkpt lat="49.25796" lon="-0.16012">
        <ele>1.4</ele>
        <time>2024-05-26T06:44:37Z</time>
      </trkpt>
      <trkpt lat="49.2579" lon="-0.16011">
        <ele>1.4</ele>
        <time>2024-05-26T06:44:38Z</time>
      </trkpt>
      <trkpt lat="49.25782" lon="-0.16009">
        <ele>1.4</ele>
        <time>2024-05-26T06:44:39Z</time>
      </trkpt>
      <trkpt lat="49.25775" lon="-0.16007">
        <ele>1.4</ele>
        <time>2024-05-26T06:44:40Z</time>
      </trkpt>
      <trkpt lat="49.25766" lon="-0.16005">
        <ele>1.4</ele>
        <time>2024-05-26T06:44:41Z</time>
      </trkpt>
      <trkpt lat="49.2576" lon="-0.16004">
        <ele>1.4</ele>
        <time>2024-05-26T06:44:42Z</time>
      </trkpt>
      <trkpt lat="49.25753" lon="-0.16002">
        <ele>1.4</ele>
        <time>2024-05-26T06:44:43Z</time>
      </trkpt>
      <trkpt lat="49.25745" lon="-0.16">
        <ele>1.4</ele>
        <time>2024-05-26T06:44:44Z</time>
      </trkpt>
      <trkpt lat="49.25738" lon="-0.15998">
        <ele>1.4</ele>
        <time>2024-05-26T06:44:45Z</time>
      </trkpt>
      <trkpt lat="49.25729" lon="-0.15995">
        <ele>1.4</ele>
        <time>2024-05-26T06:44:46Z</time>
      </trkpt>
      <trkpt lat="49.25722" lon="-0.15993">
        <ele>1.4</ele>
        <time>2024-05-26T06:44:47Z</time>
      </trkpt>
      <trkpt lat="49.25716" lon="-0.15992">
        <ele>1.4</ele>
        <time>2024-05-26T06:44:48Z</time>
      </trkpt>
      <trkpt lat="49.25707" lon="-0.15989">
        <ele>1.4</ele>
        <time>2024-05-26T06:44:49Z</time>
      </trkpt>
      <trkpt lat="49.25702" lon="-0.15988">
        <ele>1.4</ele>
        <time>2024-05-26T06:44:50Z</time>
      </trkpt>
      <trkpt lat="49.25694" lon="-0.15986">
        <ele>1.4</ele>
        <time>2024-05-26T06:44:51Z</time>
      </trkpt>
      <trkpt lat="49.25685" lon="-0.15984">
        <ele>1.4</ele>
        <time>2024-05-26T06:44:52Z</time>
      </trkpt>
      <trkpt lat="49.25679" lon="-0.15982">
        <ele>1.4</ele>
        <time>2024-05-26T06:44:53Z</time>
      </trkpt>
      <trkpt lat="49.25672" lon="-0.1598">
        <ele>1.4</ele>
        <time>2024-05-26T06:44:54Z</time>
      </trkpt>
      <trkpt lat="49.25663" lon="-0.15978">
        <ele>1.4</ele>
        <time>2024-05-26T06:44:55Z</time>
      </trkpt>
      <trkpt lat="49.25657" lon="-0.15978">
        <ele>1.4</ele>
        <time>2024-05-26T06:44:56Z</time>
      </trkpt>
      <trkpt lat="49.2565" lon="-0.15977">
        <ele>1.4</ele>
        <time>2024-05-26T06:44:57Z</time>
      </trkpt>
      <trkpt lat="49.25643" lon="-0.15976">
        <ele>1.4</ele>
        <time>2024-05-26T06:44:58Z</time>
      </trkpt>
      <trkpt lat="49.25636" lon="-0.15975">
        <ele>1.4</ele>
        <time>2024-05-26T06:44:59Z</time>
      </trkpt>
      <trkpt lat="49.25628" lon="-0.15975">
        <ele>1.4</ele>
        <time>2024-05-26T06:45:00Z</time>
      </trkpt>
      <trkpt lat="49.25621" lon="-0.15974">
        <ele>1.4</ele>
        <time>2024-05-26T06:45:01Z</time>
      </trkpt>
      <trkpt lat="49.25614" lon="-0.15974">
        <ele>1.4</ele>
        <time>2024-05-26T06:45:02Z</time>
      </trkpt>
      <trkpt lat="49.25607" lon="-0.15974">
        <ele>1.4</ele>
        <time>2024-05-26T06:45:03Z</time>
      </trkpt>
      <trkpt lat="49.25598" lon="-0.15974">
        <ele>1.4</ele>
        <time>2024-05-26T06:45:04Z</time>
      </trkpt>
      <trkpt lat="49.25591" lon="-0.15974">
        <ele>1.4</ele>
        <time>2024-05-26T06:45:05Z</time>
      </trkpt>
      <trkpt lat="49.25585" lon="-0.15975">
        <ele>1.4</ele>
        <time>2024-05-26T06:45:06Z</time>
      </trkpt>
      <trkpt lat="49.25576" lon="-0.15976">
        <ele>1.6</ele>
        <time>2024-05-26T06:45:07Z</time>
      </trkpt>
      <trkpt lat="49.25569" lon="-0.15977">
        <ele>1.6</ele>
        <time>2024-05-26T06:45:08Z</time>
      </trkpt>
      <trkpt lat="49.25564" lon="-0.15978">
        <ele>1.8</ele>
        <time>2024-05-26T06:45:09Z</time>
      </trkpt>
      <trkpt lat="49.25556" lon="-0.15979">
        <ele>1.8</ele>
        <time>2024-05-26T06:45:10Z</time>
      </trkpt>
      <trkpt lat="49.25548" lon="-0.15982">
        <ele>1.8</ele>
        <time>2024-05-26T06:45:11Z</time>
      </trkpt>
      <trkpt lat="49.25542" lon="-0.15984">
        <ele>1.8</ele>
        <time>2024-05-26T06:45:12Z</time>
      </trkpt>
      <trkpt lat="49.25535" lon="-0.15986">
        <ele>2</ele>
        <time>2024-05-26T06:45:13Z</time>
      </trkpt>
      <trkpt lat="49.25527" lon="-0.15989">
        <ele>2</ele>
        <time>2024-05-26T06:45:14Z</time>
      </trkpt>
      <trkpt lat="49.2552" lon="-0.15991">
        <ele>2</ele>
        <time>2024-05-26T06:45:15Z</time>
      </trkpt>
      <trkpt lat="49.25514" lon="-0.15994">
        <ele>2</ele>
        <time>2024-05-26T06:45:16Z</time>
      </trkpt>
      <trkpt lat="49.25505" lon="-0.15997">
        <ele>2</ele>
        <time>2024-05-26T06:45:17Z</time>
      </trkpt>
      <trkpt lat="49.255" lon="-0.15999">
        <ele>2</ele>
        <time>2024-05-26T06:45:18Z</time>
      </trkpt>
      <trkpt lat="49.25493" lon="-0.16002">
        <ele>2.2</ele>
        <time>2024-05-26T06:45:19Z</time>
      </trkpt>
      <trkpt lat="49.25485" lon="-0.16006">
        <ele>2.2</ele>
        <time>2024-05-26T06:45:20Z</time>
      </trkpt>
      <trkpt lat="49.25479" lon="-0.16009">
        <ele>2.2</ele>
        <time>2024-05-26T06:45:21Z</time>
      </trkpt>
      <trkpt lat="49.25472" lon="-0.16013">
        <ele>2.2</ele>
        <time>2024-05-26T06:45:22Z</time>
      </trkpt>
      <trkpt lat="49.25465" lon="-0.16017">
        <ele>2.2</ele>
        <time>2024-05-26T06:45:23Z</time>
      </trkpt>
      <trkpt lat="49.25457" lon="-0.16022">
        <ele>2.2</ele>
        <time>2024-05-26T06:45:24Z</time>
      </trkpt>
      <trkpt lat="49.25452" lon="-0.16025">
        <ele>2.2</ele>
        <time>2024-05-26T06:45:25Z</time>
      </trkpt>
      <trkpt lat="49.25446" lon="-0.1603">
        <ele>2.2</ele>
        <time>2024-05-26T06:45:26Z</time>
      </trkpt>
      <trkpt lat="49.25438" lon="-0.16036">
        <ele>2.2</ele>
        <time>2024-05-26T06:45:27Z</time>
      </trkpt>
      <trkpt lat="49.25432" lon="-0.1604">
        <ele>2.4</ele>
        <time>2024-05-26T06:45:28Z</time>
      </trkpt>
      <trkpt lat="49.25425" lon="-0.16046">
        <ele>2.4</ele>
        <time>2024-05-26T06:45:29Z</time>
      </trkpt>
      <trkpt lat="49.2542" lon="-0.16049">
        <ele>2.4</ele>
        <time>2024-05-26T06:45:30Z</time>
      </trkpt>
      <trkpt lat="49.25413" lon="-0.16054">
        <ele>2.4</ele>
        <time>2024-05-26T06:45:31Z</time>
      </trkpt>
      <trkpt lat="49.25406" lon="-0.16059">
        <ele>2.4</ele>
        <time>2024-05-26T06:45:32Z</time>
      </trkpt>
      <trkpt lat="49.254" lon="-0.16064">
        <ele>2.4</ele>
        <time>2024-05-26T06:45:33Z</time>
      </trkpt>
      <trkpt lat="49.25395" lon="-0.16067">
        <ele>2.4</ele>
        <time>2024-05-26T06:45:34Z</time>
      </trkpt>
      <trkpt lat="49.25389" lon="-0.16073">
        <ele>2.6</ele>
        <time>2024-05-26T06:45:35Z</time>
      </trkpt>
      <trkpt lat="49.25384" lon="-0.16077">
        <ele>2.6</ele>
        <time>2024-05-26T06:45:36Z</time>
      </trkpt>
      <trkpt lat="49.25379" lon="-0.16081">
        <ele>2.6</ele>
        <time>2024-05-26T06:45:37Z</time>
      </trkpt>
      <trkpt lat="49.25372" lon="-0.16087">
        <ele>2.8</ele>
        <time>2024-05-26T06:45:38Z</time>
      </trkpt>
      <trkpt lat="49.25366" lon="-0.16091">
        <ele>3</ele>
        <time>2024-05-26T06:45:39Z</time>
      </trkpt>
      <trkpt lat="49.2536" lon="-0.16096">
        <ele>3</ele>
        <time>2024-05-26T06:45:40Z</time>
      </trkpt>
      <trkpt lat="49.25354" lon="-0.16101">
        <ele>3.2</ele>
        <time>2024-05-26T06:45:41Z</time>
      </trkpt>
      <trkpt lat="49.2535" lon="-0.16104">
        <ele>3.2</ele>
        <time>2024-05-26T06:45:42Z</time>
      </trkpt>
      <trkpt lat="49.25344" lon="-0.16108">
        <ele>3.4</ele>
        <time>2024-05-26T06:45:43Z</time>
      </trkpt>
      <trkpt lat="49.25338" lon="-0.16113">
        <ele>3.6</ele>
        <time>2024-05-26T06:45:44Z</time>
      </trkpt>
      <trkpt lat="49.25332" lon="-0.16117">
        <ele>3.8</ele>
        <time>2024-05-26T06:45:45Z</time>
      </trkpt>
      <trkpt lat="49.25326" lon="-0.16121">
        <ele>4</ele>
        <time>2024-05-26T06:45:46Z</time>
      </trkpt>
      <trkpt lat="49.2532" lon="-0.16127">
        <ele>4.2</ele>
        <time>2024-05-26T06:45:47Z</time>
      </trkpt>
      <trkpt lat="49.25314" lon="-0.16131">
        <ele>4.2</ele>
        <time>2024-05-26T06:45:48Z</time>
      </trkpt>
      <trkpt lat="49.25309" lon="-0.16134">
        <ele>4.4</ele>
        <time>2024-05-26T06:45:49Z</time>
      </trkpt>
      <trkpt lat="49.25303" lon="-0.16139">
        <ele>4.4</ele>
        <time>2024-05-26T06:45:50Z</time>
      </trkpt>
      <trkpt lat="49.25297" lon="-0.16144">
        <ele>4.4</ele>
        <time>2024-05-26T06:45:51Z</time>
      </trkpt>
      <trkpt lat="49.25292" lon="-0.16147">
        <ele>4.8</ele>
        <time>2024-05-26T06:45:52Z</time>
      </trkpt>
      <trkpt lat="49.25284" lon="-0.16153">
        <ele>4.8</ele>
        <time>2024-05-26T06:45:53Z</time>
      </trkpt>
      <trkpt lat="49.2528" lon="-0.16156">
        <ele>5.2</ele>
        <time>2024-05-26T06:45:54Z</time>
      </trkpt>
      <trkpt lat="49.25274" lon="-0.1616">
        <ele>5.4</ele>
        <time>2024-05-26T06:45:55Z</time>
      </trkpt>
      <trkpt lat="49.25266" lon="-0.16166">
        <ele>5.6</ele>
        <time>2024-05-26T06:45:56Z</time>
      </trkpt>
      <trkpt lat="49.2526" lon="-0.1617">
        <ele>5.6</ele>
        <time>2024-05-26T06:45:57Z</time>
      </trkpt>
      <trkpt lat="49.25255" lon="-0.16174">
        <ele>5.6</ele>
        <time>2024-05-26T06:45:58Z</time>
      </trkpt>
      <trkpt lat="49.2525" lon="-0.16179">
        <ele>5.8</ele>
        <time>2024-05-26T06:45:59Z</time>
      </trkpt>
      <trkpt lat="49.25244" lon="-0.16183">
        <ele>6</ele>
        <time>2024-05-26T06:46:00Z</time>
      </trkpt>
      <trkpt lat="49.25239" lon="-0.16188">
        <ele>6</ele>
        <time>2024-05-26T06:46:01Z</time>
      </trkpt>
      <trkpt lat="49.25232" lon="-0.16194">
        <ele>6.2</ele>
        <time>2024-05-26T06:46:02Z</time>
      </trkpt>
      <trkpt lat="49.25227" lon="-0.16198">
        <ele>6.4</ele>
        <time>2024-05-26T06:46:03Z</time>
      </trkpt>
      <trkpt lat="49.25221" lon="-0.16203">
        <ele>6.4</ele>
        <time>2024-05-26T06:46:04Z</time>
      </trkpt>
      <trkpt lat="49.25215" lon="-0.16208">
        <ele>6.6</ele>
        <time>2024-05-26T06:46:05Z</time>
      </trkpt>
      <trkpt lat="49.2521" lon="-0.16213">
        <ele>6.6</ele>
        <time>2024-05-26T06:46:06Z</time>
      </trkpt>
      <trkpt lat="49.25204" lon="-0.16218">
        <ele>6.6</ele>
        <time>2024-05-26T06:46:07Z</time>
      </trkpt>
      <trkpt lat="49.25197" lon="-0.16224">
        <ele>6.8</ele>
        <time>2024-05-26T06:46:08Z</time>
      </trkpt>
      <trkpt lat="49.25192" lon="-0.16229">
        <ele>6.8</ele>
        <time>2024-05-26T06:46:09Z</time>
      </trkpt>
      <trkpt lat="49.25187" lon="-0.16234">
        <ele>6.8</ele>
        <time>2024-05-26T06:46:10Z</time>
      </trkpt>
      <trkpt lat="49.25182" lon="-0.1624">
        <ele>6.8</ele>
        <time>2024-05-26T06:46:11Z</time>
      </trkpt>
      <trkpt lat="49.25177" lon="-0.16245">
        <ele>7</ele>
        <time>2024-05-26T06:46:12Z</time>
      </trkpt>
      <trkpt lat="49.25172" lon="-0.1625">
        <ele>7</ele>
        <time>2024-05-26T06:46:13Z</time>
      </trkpt>
      <trkpt lat="49.25168" lon="-0.16254">
        <ele>7</ele>
        <time>2024-05-26T06:46:14Z</time>
      </trkpt>
      <trkpt lat="49.25165" lon="-0.16256">
        <ele>7</ele>
        <time>2024-05-26T06:46:15Z</time>
      </trkpt>
      <trkpt lat="49.2516" lon="-0.16256">
        <ele>7</ele>
        <time>2024-05-26T06:46:16Z</time>
      </trkpt>
      <trkpt lat="49.25157" lon="-0.16254">
        <ele>7</ele>
        <time>2024-05-26T06:46:17Z</time>
      </trkpt>
      <trkpt lat="49.25154" lon="-0.16249">
        <ele>7.2</ele>
        <time>2024-05-26T06:46:18Z</time>
      </trkpt>
      <trkpt lat="49.25151" lon="-0.16243">
        <ele>7.2</ele>
        <time>2024-05-26T06:46:19Z</time>
      </trkpt>
      <trkpt lat="49.25149" lon="-0.1624">
        <ele>7.2</ele>
        <time>2024-05-26T06:46:20Z</time>
      </trkpt>
      <trkpt lat="49.25146" lon="-0.16235">
        <ele>7.4</ele>
        <time>2024-05-26T06:46:21Z</time>
      </trkpt>
      <trkpt lat="49.25141" lon="-0.1623">
        <ele>7.4</ele>
        <time>2024-05-26T06:46:22Z</time>
      </trkpt>
      <trkpt lat="49.25138" lon="-0.16228">
        <ele>7.6</ele>
        <time>2024-05-26T06:46:23Z</time>
      </trkpt>
      <trkpt lat="49.25133" lon="-0.16225">
        <ele>7.6</ele>
        <time>2024-05-26T06:46:24Z</time>
      </trkpt>
      <trkpt lat="49.25128" lon="-0.16221">
        <ele>7.8</ele>
        <time>2024-05-26T06:46:25Z</time>
      </trkpt>
      <trkpt lat="49.25124" lon="-0.16219">
        <ele>8.2</ele>
        <time>2024-05-26T06:46:26Z</time>
      </trkpt>
      <trkpt lat="49.2512" lon="-0.16216">
        <ele>8</ele>
        <time>2024-05-26T06:46:27Z</time>
      </trkpt>
      <trkpt lat="49.25116" lon="-0.16213">
        <ele>8.2</ele>
        <time>2024-05-26T06:46:28Z</time>
      </trkpt>
      <trkpt lat="49.25111" lon="-0.16209">
        <ele>8.2</ele>
        <time>2024-05-26T06:46:29Z</time>
      </trkpt>
      <trkpt lat="49.25107" lon="-0.16207">
        <ele>8.2</ele>
        <time>2024-05-26T06:46:30Z</time>
      </trkpt>
      <trkpt lat="49.25101" lon="-0.16204">
        <ele>8.2</ele>
        <time>2024-05-26T06:46:31Z</time>
      </trkpt>
      <trkpt lat="49.25095" lon="-0.16202">
        <ele>8.4</ele>
        <time>2024-05-26T06:46:32Z</time>
      </trkpt>
      <trkpt lat="49.25091" lon="-0.162">
        <ele>8.4</ele>
        <time>2024-05-26T06:46:33Z</time>
      </trkpt>
      <trkpt lat="49.25085" lon="-0.16197">
        <ele>8.4</ele>
        <time>2024-05-26T06:46:34Z</time>
      </trkpt>
      <trkpt lat="49.25079" lon="-0.16194">
        <ele>8.4</ele>
        <time>2024-05-26T06:46:35Z</time>
      </trkpt>
      <trkpt lat="49.25073" lon="-0.16191">
        <ele>8.4</ele>
        <time>2024-05-26T06:46:36Z</time>
      </trkpt>
      <trkpt lat="49.25067" lon="-0.16188">
        <ele>8.4</ele>
        <time>2024-05-26T06:46:37Z</time>
      </trkpt>
      <trkpt lat="49.2506" lon="-0.16185">
        <ele>8.4</ele>
        <time>2024-05-26T06:46:38Z</time>
      </trkpt>
      <trkpt lat="49.25053" lon="-0.16183">
        <ele>8.4</ele>
        <time>2024-05-26T06:46:39Z</time>
      </trkpt>
      <trkpt lat="49.25046" lon="-0.16181">
        <ele>8.4</ele>
        <time>2024-05-26T06:46:40Z</time>
      </trkpt>
      <trkpt lat="49.25039" lon="-0.16179">
        <ele>8.4</ele>
        <time>2024-05-26T06:46:41Z</time>
      </trkpt>
      <trkpt lat="49.25032" lon="-0.16177">
        <ele>8.4</ele>
        <time>2024-05-26T06:46:42Z</time>
      </trkpt>
      <trkpt lat="49.25025" lon="-0.16175">
        <ele>8.4</ele>
        <time>2024-05-26T06:46:43Z</time>
      </trkpt>
      <trkpt lat="49.25019" lon="-0.16174">
        <ele>8.4</ele>
        <time>2024-05-26T06:46:44Z</time>
      </trkpt>
      <trkpt lat="49.25012" lon="-0.16173">
        <ele>8.4</ele>
        <time>2024-05-26T06:46:45Z</time>
      </trkpt>
      <trkpt lat="49.25005" lon="-0.16173">
        <ele>8.4</ele>
        <time>2024-05-26T06:46:46Z</time>
      </trkpt>
      <trkpt lat="49.24999" lon="-0.16172">
        <ele>8.4</ele>
        <time>2024-05-26T06:46:47Z</time>
      </trkpt>
      <trkpt lat="49.24993" lon="-0.16172">
        <ele>8.4</ele>
        <time>2024-05-26T06:46:48Z</time>
      </trkpt>
      <trkpt lat="49.24986" lon="-0.16172">
        <ele>8.6</ele>
        <time>2024-05-26T06:46:49Z</time>
      </trkpt>
      <trkpt lat="49.24979" lon="-0.16172">
        <ele>8.6</ele>
        <time>2024-05-26T06:46:50Z</time>
      </trkpt>
      <trkpt lat="49.24972" lon="-0.16171">
        <ele>8.6</ele>
        <time>2024-05-26T06:46:51Z</time>
      </trkpt>
      <trkpt lat="49.24965" lon="-0.16171">
        <ele>8.8</ele>
        <time>2024-05-26T06:46:52Z</time>
      </trkpt>
      <trkpt lat="49.24959" lon="-0.16171">
        <ele>8.8</ele>
        <time>2024-05-26T06:46:53Z</time>
      </trkpt>
      <trkpt lat="49.24952" lon="-0.16172">
        <ele>9</ele>
        <time>2024-05-26T06:46:54Z</time>
      </trkpt>
      <trkpt lat="49.24945" lon="-0.16172">
        <ele>9</ele>
        <time>2024-05-26T06:46:55Z</time>
      </trkpt>
      <trkpt lat="49.24938" lon="-0.16173">
        <ele>9</ele>
        <time>2024-05-26T06:46:56Z</time>
      </trkpt>
      <trkpt lat="49.24932" lon="-0.16174">
        <ele>9</ele>
        <time>2024-05-26T06:46:57Z</time>
      </trkpt>
      <trkpt lat="49.24925" lon="-0.16175">
        <ele>9</ele>
        <time>2024-05-26T06:46:58Z</time>
      </trkpt>
      <trkpt lat="49.24918" lon="-0.16176">
        <ele>9.2</ele>
        <time>2024-05-26T06:46:59Z</time>
      </trkpt>
      <trkpt lat="49.24911" lon="-0.16178">
        <ele>9.2</ele>
        <time>2024-05-26T06:47:00Z</time>
      </trkpt>
      <trkpt lat="49.24904" lon="-0.16179">
        <ele>9.2</ele>
        <time>2024-05-26T06:47:01Z</time>
      </trkpt>
      <trkpt lat="49.24897" lon="-0.16181">
        <ele>9.4</ele>
        <time>2024-05-26T06:47:02Z</time>
      </trkpt>
      <trkpt lat="49.24889" lon="-0.16182">
        <ele>9.4</ele>
        <time>2024-05-26T06:47:03Z</time>
      </trkpt>
      <trkpt lat="49.24882" lon="-0.16183">
        <ele>9.4</ele>
        <time>2024-05-26T06:47:04Z</time>
      </trkpt>
      <trkpt lat="49.24875" lon="-0.16185">
        <ele>9.4</ele>
        <time>2024-05-26T06:47:05Z</time>
      </trkpt>
      <trkpt lat="49.24867" lon="-0.16187">
        <ele>9.4</ele>
        <time>2024-05-26T06:47:06Z</time>
      </trkpt>
      <trkpt lat="49.2486" lon="-0.16188">
        <ele>9.4</ele>
        <time>2024-05-26T06:47:07Z</time>
      </trkpt>
      <trkpt lat="49.24853" lon="-0.1619">
        <ele>9.4</ele>
        <time>2024-05-26T06:47:08Z</time>
      </trkpt>
      <trkpt lat="49.24846" lon="-0.16191">
        <ele>9.4</ele>
        <time>2024-05-26T06:47:09Z</time>
      </trkpt>
      <trkpt lat="49.24839" lon="-0.16193">
        <ele>9.4</ele>
        <time>2024-05-26T06:47:10Z</time>
      </trkpt>
      <trkpt lat="49.24832" lon="-0.16194">
        <ele>9.4</ele>
        <time>2024-05-26T06:47:11Z</time>
      </trkpt>
      <trkpt lat="49.24825" lon="-0.16196">
        <ele>9.4</ele>
        <time>2024-05-26T06:47:12Z</time>
      </trkpt>
      <trkpt lat="49.24816" lon="-0.16197">
        <ele>9.4</ele>
        <time>2024-05-26T06:47:13Z</time>
      </trkpt>
      <trkpt lat="49.24811" lon="-0.16198">
        <ele>9.4</ele>
        <time>2024-05-26T06:47:14Z</time>
      </trkpt>
      <trkpt lat="49.24804" lon="-0.162">
        <ele>9.4</ele>
        <time>2024-05-26T06:47:15Z</time>
      </trkpt>
      <trkpt lat="49.24797" lon="-0.16202">
        <ele>9.4</ele>
        <time>2024-05-26T06:47:16Z</time>
      </trkpt>
      <trkpt lat="49.2479" lon="-0.16204">
        <ele>9.4</ele>
        <time>2024-05-26T06:47:17Z</time>
      </trkpt>
      <trkpt lat="49.24783" lon="-0.16205">
        <ele>9.4</ele>
        <time>2024-05-26T06:47:18Z</time>
      </trkpt>
      <trkpt lat="49.24776" lon="-0.16207">
        <ele>9.4</ele>
        <time>2024-05-26T06:47:19Z</time>
      </trkpt>
      <trkpt lat="49.24769" lon="-0.16208">
        <ele>9.4</ele>
        <time>2024-05-26T06:47:20Z</time>
      </trkpt>
      <trkpt lat="49.24762" lon="-0.1621">
        <ele>9.6</ele>
        <time>2024-05-26T06:47:21Z</time>
      </trkpt>
      <trkpt lat="49.24754" lon="-0.16212">
        <ele>9.6</ele>
        <time>2024-05-26T06:47:22Z</time>
      </trkpt>
      <trkpt lat="49.24747" lon="-0.16214">
        <ele>9.8</ele>
        <time>2024-05-26T06:47:23Z</time>
      </trkpt>
      <trkpt lat="49.24739" lon="-0.16216">
        <ele>9.8</ele>
        <time>2024-05-26T06:47:24Z</time>
      </trkpt>
      <trkpt lat="49.24732" lon="-0.16218">
        <ele>9.8</ele>
        <time>2024-05-26T06:47:25Z</time>
      </trkpt>
      <trkpt lat="49.24725" lon="-0.16219">
        <ele>9.8</ele>
        <time>2024-05-26T06:47:26Z</time>
      </trkpt>
      <trkpt lat="49.24718" lon="-0.16221">
        <ele>10</ele>
        <time>2024-05-26T06:47:27Z</time>
      </trkpt>
      <trkpt lat="49.24711" lon="-0.16224">
        <ele>10</ele>
        <time>2024-05-26T06:47:28Z</time>
      </trkpt>
      <trkpt lat="49.24703" lon="-0.16227">
        <ele>10</ele>
        <time>2024-05-26T06:47:29Z</time>
      </trkpt>
      <trkpt lat="49.24696" lon="-0.16231">
        <ele>10</ele>
        <time>2024-05-26T06:47:30Z</time>
      </trkpt>
      <trkpt lat="49.24689" lon="-0.16235">
        <ele>10</ele>
        <time>2024-05-26T06:47:31Z</time>
      </trkpt>
      <trkpt lat="49.24682" lon="-0.1624">
        <ele>10</ele>
        <time>2024-05-26T06:47:32Z</time>
      </trkpt>
      <trkpt lat="49.24676" lon="-0.16246">
        <ele>10.2</ele>
        <time>2024-05-26T06:47:33Z</time>
      </trkpt>
      <trkpt lat="49.24669" lon="-0.16252">
        <ele>10.2</ele>
        <time>2024-05-26T06:47:34Z</time>
      </trkpt>
      <trkpt lat="49.24663" lon="-0.16258">
        <ele>10.2</ele>
        <time>2024-05-26T06:47:35Z</time>
      </trkpt>
      <trkpt lat="49.24658" lon="-0.16264">
        <ele>10.2</ele>
        <time>2024-05-26T06:47:36Z</time>
      </trkpt>
      <trkpt lat="49.24651" lon="-0.1627">
        <ele>10.2</ele>
        <time>2024-05-26T06:47:37Z</time>
      </trkpt>
      <trkpt lat="49.24645" lon="-0.16277">
        <ele>10.2</ele>
        <time>2024-05-26T06:47:38Z</time>
      </trkpt>
      <trkpt lat="49.24639" lon="-0.16284">
        <ele>10.4</ele>
        <time>2024-05-26T06:47:39Z</time>
      </trkpt>
      <trkpt lat="49.24633" lon="-0.16291">
        <ele>10.4</ele>
        <time>2024-05-26T06:47:40Z</time>
      </trkpt>
      <trkpt lat="49.24627" lon="-0.16299">
        <ele>10.6</ele>
        <time>2024-05-26T06:47:41Z</time>
      </trkpt>
      <trkpt lat="49.24622" lon="-0.16306">
        <ele>10.8</ele>
        <time>2024-05-26T06:47:42Z</time>
      </trkpt>
      <trkpt lat="49.24616" lon="-0.16314">
        <ele>10.8</ele>
        <time>2024-05-26T06:47:43Z</time>
      </trkpt>
      <trkpt lat="49.2461" lon="-0.16323">
        <ele>11</ele>
        <time>2024-05-26T06:47:44Z</time>
      </trkpt>
      <trkpt lat="49.24605" lon="-0.16331">
        <ele>11</ele>
        <time>2024-05-26T06:47:45Z</time>
      </trkpt>
      <trkpt lat="49.246" lon="-0.16339">
        <ele>11</ele>
        <time>2024-05-26T06:47:46Z</time>
      </trkpt>
      <trkpt lat="49.24596" lon="-0.16347">
        <ele>11.2</ele>
        <time>2024-05-26T06:47:47Z</time>
      </trkpt>
      <trkpt lat="49.24591" lon="-0.16354">
        <ele>11.2</ele>
        <time>2024-05-26T06:47:48Z</time>
      </trkpt>
      <trkpt lat="49.24586" lon="-0.16362">
        <ele>11.2</ele>
        <time>2024-05-26T06:47:49Z</time>
      </trkpt>
      <trkpt lat="49.24581" lon="-0.1637">
        <ele>11.2</ele>
        <time>2024-05-26T06:47:50Z</time>
      </trkpt>
      <trkpt lat="49.24576" lon="-0.16378">
        <ele>11.2</ele>
        <time>2024-05-26T06:47:51Z</time>
      </trkpt>
      <trkpt lat="49.24571" lon="-0.16387">
        <ele>11.2</ele>
        <time>2024-05-26T06:47:52Z</time>
      </trkpt>
      <trkpt lat="49.24566" lon="-0.16395">
        <ele>11.2</ele>
        <time>2024-05-26T06:47:53Z</time>
      </trkpt>
      <trkpt lat="49.24561" lon="-0.16403">
        <ele>11.4</ele>
        <time>2024-05-26T06:47:54Z</time>
      </trkpt>
      <trkpt lat="49.24556" lon="-0.16411">
        <ele>11.4</ele>
        <time>2024-05-26T06:47:55Z</time>
      </trkpt>
      <trkpt lat="49.24551" lon="-0.1642">
        <ele>11.4</ele>
        <time>2024-05-26T06:47:56Z</time>
      </trkpt>
      <trkpt lat="49.24546" lon="-0.16428">
        <ele>11.6</ele>
        <time>2024-05-26T06:47:57Z</time>
      </trkpt>
      <trkpt lat="49.2454" lon="-0.16436">
        <ele>11.6</ele>
        <time>2024-05-26T06:47:58Z</time>
      </trkpt>
      <trkpt lat="49.24535" lon="-0.16444">
        <ele>11.6</ele>
        <time>2024-05-26T06:47:59Z</time>
      </trkpt>
      <trkpt lat="49.24529" lon="-0.16453">
        <ele>11.6</ele>
        <time>2024-05-26T06:48:00Z</time>
      </trkpt>
      <trkpt lat="49.24524" lon="-0.16461">
        <ele>11.6</ele>
        <time>2024-05-26T06:48:01Z</time>
      </trkpt>
      <trkpt lat="49.24519" lon="-0.1647">
        <ele>11.6</ele>
        <time>2024-05-26T06:48:02Z</time>
      </trkpt>
      <trkpt lat="49.24513" lon="-0.16479">
        <ele>11.6</ele>
        <time>2024-05-26T06:48:03Z</time>
      </trkpt>
      <trkpt lat="49.24507" lon="-0.16488">
        <ele>11.6</ele>
        <time>2024-05-26T06:48:04Z</time>
      </trkpt>
      <trkpt lat="49.24502" lon="-0.16497">
        <ele>11.6</ele>
        <time>2024-05-26T06:48:05Z</time>
      </trkpt>
      <trkpt lat="49.24497" lon="-0.16505">
        <ele>11.6</ele>
        <time>2024-05-26T06:48:06Z</time>
      </trkpt>
      <trkpt lat="49.24492" lon="-0.16514">
        <ele>11.6</ele>
        <time>2024-05-26T06:48:07Z</time>
      </trkpt>
      <trkpt lat="49.24487" lon="-0.16524">
        <ele>11.8</ele>
        <time>2024-05-26T06:48:08Z</time>
      </trkpt>
      <trkpt lat="49.24483" lon="-0.16534">
        <ele>11.8</ele>
        <time>2024-05-26T06:48:09Z</time>
      </trkpt>
      <trkpt lat="49.2448" lon="-0.16544">
        <ele>11.8</ele>
        <time>2024-05-26T06:48:10Z</time>
      </trkpt>
      <trkpt lat="49.24477" lon="-0.16554">
        <ele>11.8</ele>
        <time>2024-05-26T06:48:11Z</time>
      </trkpt>
      <trkpt lat="49.24474" lon="-0.16565">
        <ele>11.8</ele>
        <time>2024-05-26T06:48:12Z</time>
      </trkpt>
      <trkpt lat="49.24471" lon="-0.16575">
        <ele>11.8</ele>
        <time>2024-05-26T06:48:13Z</time>
      </trkpt>
      <trkpt lat="49.24467" lon="-0.16584">
        <ele>11.8</ele>
        <time>2024-05-26T06:48:14Z</time>
      </trkpt>
      <trkpt lat="49.24463" lon="-0.16594">
        <ele>11.8</ele>
        <time>2024-05-26T06:48:15Z</time>
      </trkpt>
      <trkpt lat="49.24459" lon="-0.16604">
        <ele>11.8</ele>
        <time>2024-05-26T06:48:16Z</time>
      </trkpt>
      <trkpt lat="49.24455" lon="-0.16613">
        <ele>11.8</ele>
        <time>2024-05-26T06:48:17Z</time>
      </trkpt>
      <trkpt lat="49.2445" lon="-0.16622">
        <ele>12</ele>
        <time>2024-05-26T06:48:18Z</time>
      </trkpt>
      <trkpt lat="49.24445" lon="-0.16631">
        <ele>12</ele>
        <time>2024-05-26T06:48:19Z</time>
      </trkpt>
      <trkpt lat="49.24441" lon="-0.1664">
        <ele>12.2</ele>
        <time>2024-05-26T06:48:20Z</time>
      </trkpt>
      <trkpt lat="49.24435" lon="-0.16649">
        <ele>12.2</ele>
        <time>2024-05-26T06:48:21Z</time>
      </trkpt>
      <trkpt lat="49.2443" lon="-0.16658">
        <ele>12.2</ele>
        <time>2024-05-26T06:48:22Z</time>
      </trkpt>
      <trkpt lat="49.24424" lon="-0.16667">
        <ele>12.2</ele>
        <time>2024-05-26T06:48:23Z</time>
      </trkpt>
      <trkpt lat="49.24418" lon="-0.16676">
        <ele>12.4</ele>
        <time>2024-05-26T06:48:24Z</time>
      </trkpt>
      <trkpt lat="49.24413" lon="-0.16685">
        <ele>12.4</ele>
        <time>2024-05-26T06:48:25Z</time>
      </trkpt>
      <trkpt lat="49.24407" lon="-0.16694">
        <ele>12.4</ele>
        <time>2024-05-26T06:48:26Z</time>
      </trkpt>
      <trkpt lat="49.24402" lon="-0.16703">
        <ele>12.4</ele>
        <time>2024-05-26T06:48:27Z</time>
      </trkpt>
      <trkpt lat="49.24397" lon="-0.16713">
        <ele>12.4</ele>
        <time>2024-05-26T06:48:28Z</time>
      </trkpt>
      <trkpt lat="49.24392" lon="-0.16722">
        <ele>12.4</ele>
        <time>2024-05-26T06:48:29Z</time>
      </trkpt>
      <trkpt lat="49.24387" lon="-0.16731">
        <ele>12.4</ele>
        <time>2024-05-26T06:48:30Z</time>
      </trkpt>
      <trkpt lat="49.24382" lon="-0.1674">
        <ele>12.2</ele>
        <time>2024-05-26T06:48:31Z</time>
      </trkpt>
      <trkpt lat="49.24376" lon="-0.16749">
        <ele>12.2</ele>
        <time>2024-05-26T06:48:32Z</time>
      </trkpt>
      <trkpt lat="49.24371" lon="-0.16757">
        <ele>12.2</ele>
        <time>2024-05-26T06:48:33Z</time>
      </trkpt>
      <trkpt lat="49.24366" lon="-0.16766">
        <ele>12.2</ele>
        <time>2024-05-26T06:48:34Z</time>
      </trkpt>
      <trkpt lat="49.24361" lon="-0.16775">
        <ele>12.2</ele>
        <time>2024-05-26T06:48:35Z</time>
      </trkpt>
      <trkpt lat="49.24356" lon="-0.16785">
        <ele>12</ele>
        <time>2024-05-26T06:48:36Z</time>
      </trkpt>
      <trkpt lat="49.24353" lon="-0.16796">
        <ele>12</ele>
        <time>2024-05-26T06:48:37Z</time>
      </trkpt>
      <trkpt lat="49.24352" lon="-0.16808">
        <ele>11.8</ele>
        <time>2024-05-26T06:48:38Z</time>
      </trkpt>
      <trkpt lat="49.24352" lon="-0.16819">
        <ele>11.8</ele>
        <time>2024-05-26T06:48:39Z</time>
      </trkpt>
      <trkpt lat="49.24353" lon="-0.1683">
        <ele>11.8</ele>
        <time>2024-05-26T06:48:40Z</time>
      </trkpt>
      <trkpt lat="49.24354" lon="-0.1684">
        <ele>11.6</ele>
        <time>2024-05-26T06:48:41Z</time>
      </trkpt>
      <trkpt lat="49.24356" lon="-0.16851">
        <ele>11.6</ele>
        <time>2024-05-26T06:48:42Z</time>
      </trkpt>
      <trkpt lat="49.24358" lon="-0.16862">
        <ele>11.6</ele>
        <time>2024-05-26T06:48:43Z</time>
      </trkpt>
      <trkpt lat="49.24359" lon="-0.16873">
        <ele>11.6</ele>
        <time>2024-05-26T06:48:44Z</time>
      </trkpt>
      <trkpt lat="49.24361" lon="-0.16883">
        <ele>11.6</ele>
        <time>2024-05-26T06:48:45Z</time>
      </trkpt>
      <trkpt lat="49.24362" lon="-0.16894">
        <ele>11.6</ele>
        <time>2024-05-26T06:48:46Z</time>
      </trkpt>
      <trkpt lat="49.24364" lon="-0.16904">
        <ele>11.6</ele>
        <time>2024-05-26T06:48:47Z</time>
      </trkpt>
      <trkpt lat="49.24365" lon="-0.16913">
        <ele>11.6</ele>
        <time>2024-05-26T06:48:48Z</time>
      </trkpt>
      <trkpt lat="49.24366" lon="-0.16923">
        <ele>11.6</ele>
        <time>2024-05-26T06:48:49Z</time>
      </trkpt>
      <trkpt lat="49.24368" lon="-0.16932">
        <ele>11.6</ele>
        <time>2024-05-26T06:48:50Z</time>
      </trkpt>
      <trkpt lat="49.24369" lon="-0.16942">
        <ele>11.8</ele>
        <time>2024-05-26T06:48:51Z</time>
      </trkpt>
      <trkpt lat="49.24371" lon="-0.16951">
        <ele>11.8</ele>
        <time>2024-05-26T06:48:52Z</time>
      </trkpt>
      <trkpt lat="49.24372" lon="-0.16961">
        <ele>11.8</ele>
        <time>2024-05-26T06:48:53Z</time>
      </trkpt>
      <trkpt lat="49.24373" lon="-0.16971">
        <ele>12</ele>
        <time>2024-05-26T06:48:54Z</time>
      </trkpt>
      <trkpt lat="49.24374" lon="-0.16981">
        <ele>12.2</ele>
        <time>2024-05-26T06:48:55Z</time>
      </trkpt>
      <trkpt lat="49.24375" lon="-0.16991">
        <ele>12.4</ele>
        <time>2024-05-26T06:48:56Z</time>
      </trkpt>
      <trkpt lat="49.24376" lon="-0.17001">
        <ele>12.4</ele>
        <time>2024-05-26T06:48:57Z</time>
      </trkpt>
      <trkpt lat="49.24378" lon="-0.17012">
        <ele>12.6</ele>
        <time>2024-05-26T06:48:58Z</time>
      </trkpt>
      <trkpt lat="49.24379" lon="-0.17022">
        <ele>12.6</ele>
        <time>2024-05-26T06:48:59Z</time>
      </trkpt>
      <trkpt lat="49.2438" lon="-0.17032">
        <ele>12.8</ele>
        <time>2024-05-26T06:49:00Z</time>
      </trkpt>
      <trkpt lat="49.24381" lon="-0.17042">
        <ele>12.8</ele>
        <time>2024-05-26T06:49:01Z</time>
      </trkpt>
      <trkpt lat="49.24382" lon="-0.17053">
        <ele>12.8</ele>
        <time>2024-05-26T06:49:02Z</time>
      </trkpt>
      <trkpt lat="49.24383" lon="-0.17062">
        <ele>12.8</ele>
        <time>2024-05-26T06:49:03Z</time>
      </trkpt>
      <trkpt lat="49.24384" lon="-0.17073">
        <ele>13</ele>
        <time>2024-05-26T06:49:04Z</time>
      </trkpt>
      <trkpt lat="49.24385" lon="-0.17083">
        <ele>13</ele>
        <time>2024-05-26T06:49:05Z</time>
      </trkpt>
      <trkpt lat="49.24386" lon="-0.17093">
        <ele>13</ele>
        <time>2024-05-26T06:49:06Z</time>
      </trkpt>
      <trkpt lat="49.24386" lon="-0.17104">
        <ele>13</ele>
        <time>2024-05-26T06:49:07Z</time>
      </trkpt>
      <trkpt lat="49.24386" lon="-0.17114">
        <ele>13.2</ele>
        <time>2024-05-26T06:49:08Z</time>
      </trkpt>
      <trkpt lat="49.24386" lon="-0.17125">
        <ele>13.2</ele>
        <time>2024-05-26T06:49:09Z</time>
      </trkpt>
      <trkpt lat="49.24386" lon="-0.17136">
        <ele>13.6</ele>
        <time>2024-05-26T06:49:10Z</time>
      </trkpt>
      <trkpt lat="49.24386" lon="-0.17146">
        <ele>13.8</ele>
        <time>2024-05-26T06:49:11Z</time>
      </trkpt>
      <trkpt lat="49.24386" lon="-0.17157">
        <ele>14</ele>
        <time>2024-05-26T06:49:12Z</time>
      </trkpt>
      <trkpt lat="49.24386" lon="-0.17167">
        <ele>14</ele>
        <time>2024-05-26T06:49:13Z</time>
      </trkpt>
      <trkpt lat="49.24386" lon="-0.17178">
        <ele>14</ele>
        <time>2024-05-26T06:49:14Z</time>
      </trkpt>
      <trkpt lat="49.24386" lon="-0.17189">
        <ele>14.2</ele>
        <time>2024-05-26T06:49:15Z</time>
      </trkpt>
      <trkpt lat="49.24386" lon="-0.172">
        <ele>14.2</ele>
        <time>2024-05-26T06:49:16Z</time>
      </trkpt>
      <trkpt lat="49.24385" lon="-0.1721">
        <ele>14.2</ele>
        <time>2024-05-26T06:49:17Z</time>
      </trkpt>
      <trkpt lat="49.24385" lon="-0.17221">
        <ele>14.4</ele>
        <time>2024-05-26T06:49:18Z</time>
      </trkpt>
      <trkpt lat="49.24384" lon="-0.17232">
        <ele>14.4</ele>
        <time>2024-05-26T06:49:19Z</time>
      </trkpt>
      <trkpt lat="49.24384" lon="-0.17242">
        <ele>14.4</ele>
        <time>2024-05-26T06:49:20Z</time>
      </trkpt>
      <trkpt lat="49.24384" lon="-0.17253">
        <ele>14.6</ele>
        <time>2024-05-26T06:49:21Z</time>
      </trkpt>
      <trkpt lat="49.24384" lon="-0.17263">
        <ele>14.6</ele>
        <time>2024-05-26T06:49:22Z</time>
      </trkpt>
      <trkpt lat="49.24383" lon="-0.17274">
        <ele>14.8</ele>
        <time>2024-05-26T06:49:23Z</time>
      </trkpt>
      <trkpt lat="49.24383" lon="-0.17284">
        <ele>14.8</ele>
        <time>2024-05-26T06:49:24Z</time>
      </trkpt>
      <trkpt lat="49.24383" lon="-0.17295">
        <ele>14.8</ele>
        <time>2024-05-26T06:49:25Z</time>
      </trkpt>
      <trkpt lat="49.24383" lon="-0.17305">
        <ele>14.8</ele>
        <time>2024-05-26T06:49:26Z</time>
      </trkpt>
      <trkpt lat="49.24382" lon="-0.17316">
        <ele>14.8</ele>
        <time>2024-05-26T06:49:27Z</time>
      </trkpt>
      <trkpt lat="49.24382" lon="-0.17326">
        <ele>14.8</ele>
        <time>2024-05-26T06:49:28Z</time>
      </trkpt>
      <trkpt lat="49.24382" lon="-0.17336">
        <ele>14.8</ele>
        <time>2024-05-26T06:49:29Z</time>
      </trkpt>
      <trkpt lat="49.24382" lon="-0.17347">
        <ele>14.8</ele>
        <time>2024-05-26T06:49:30Z</time>
      </trkpt>
      <trkpt lat="49.24382" lon="-0.17357">
        <ele>14.8</ele>
        <time>2024-05-26T06:49:31Z</time>
      </trkpt>
      <trkpt lat="49.24382" lon="-0.17368">
        <ele>14.8</ele>
        <time>2024-05-26T06:49:32Z</time>
      </trkpt>
      <trkpt lat="49.24381" lon="-0.17379">
        <ele>14.8</ele>
        <time>2024-05-26T06:49:33Z</time>
      </trkpt>
      <trkpt lat="49.2438" lon="-0.17388">
        <ele>14.8</ele>
        <time>2024-05-26T06:49:34Z</time>
      </trkpt>
      <trkpt lat="49.24378" lon="-0.17397">
        <ele>14.8</ele>
        <time>2024-05-26T06:49:35Z</time>
      </trkpt>
      <trkpt lat="49.24373" lon="-0.17404">
        <ele>14.8</ele>
        <time>2024-05-26T06:49:36Z</time>
      </trkpt>
      <trkpt lat="49.24367" lon="-0.1741">
        <ele>14.8</ele>
        <time>2024-05-26T06:49:37Z</time>
      </trkpt>
      <trkpt lat="49.24361" lon="-0.17413">
        <ele>14.8</ele>
        <time>2024-05-26T06:49:38Z</time>
      </trkpt>
      <trkpt lat="49.24354" lon="-0.17415">
        <ele>14.6</ele>
        <time>2024-05-26T06:49:39Z</time>
      </trkpt>
      <trkpt lat="49.24347" lon="-0.17416">
        <ele>14.6</ele>
        <time>2024-05-26T06:49:40Z</time>
      </trkpt>
      <trkpt lat="49.24339" lon="-0.17417">
        <ele>14.4</ele>
        <time>2024-05-26T06:49:41Z</time>
      </trkpt>
      <trkpt lat="49.24332" lon="-0.17418">
        <ele>14.2</ele>
        <time>2024-05-26T06:49:42Z</time>
      </trkpt>
      <trkpt lat="49.24324" lon="-0.17419">
        <ele>14</ele>
        <time>2024-05-26T06:49:43Z</time>
      </trkpt>
      <trkpt lat="49.24317" lon="-0.1742">
        <ele>14</ele>
        <time>2024-05-26T06:49:44Z</time>
      </trkpt>
      <trkpt lat="49.2431" lon="-0.1742">
        <ele>13.8</ele>
        <time>2024-05-26T06:49:45Z</time>
      </trkpt>
      <trkpt lat="49.24303" lon="-0.1742">
        <ele>13.8</ele>
        <time>2024-05-26T06:49:46Z</time>
      </trkpt>
      <trkpt lat="49.24297" lon="-0.1742">
        <ele>13.8</ele>
        <time>2024-05-26T06:49:47Z</time>
      </trkpt>
      <trkpt lat="49.2429" lon="-0.1742">
        <ele>13.6</ele>
        <time>2024-05-26T06:49:48Z</time>
      </trkpt>
      <trkpt lat="49.24283" lon="-0.17421">
        <ele>13.6</ele>
        <time>2024-05-26T06:49:49Z</time>
      </trkpt>
      <trkpt lat="49.24277" lon="-0.17421">
        <ele>13.4</ele>
        <time>2024-05-26T06:49:50Z</time>
      </trkpt>
      <trkpt lat="49.2427" lon="-0.17422">
        <ele>13.4</ele>
        <time>2024-05-26T06:49:51Z</time>
      </trkpt>
      <trkpt lat="49.24263" lon="-0.17422">
        <ele>13.4</ele>
        <time>2024-05-26T06:49:52Z</time>
      </trkpt>
      <trkpt lat="49.24256" lon="-0.17423">
        <ele>13.4</ele>
        <time>2024-05-26T06:49:53Z</time>
      </trkpt>
      <trkpt lat="49.24249" lon="-0.17424">
        <ele>13.4</ele>
        <time>2024-05-26T06:49:54Z</time>
      </trkpt>
      <trkpt lat="49.24242" lon="-0.17425">
        <ele>13.2</ele>
        <time>2024-05-26T06:49:55Z</time>
      </trkpt>
      <trkpt lat="49.24235" lon="-0.17427">
        <ele>13.2</ele>
        <time>2024-05-26T06:49:56Z</time>
      </trkpt>
      <trkpt lat="49.24229" lon="-0.17429">
        <ele>13</ele>
        <time>2024-05-26T06:49:57Z</time>
      </trkpt>
      <trkpt lat="49.24223" lon="-0.17431">
        <ele>13</ele>
        <time>2024-05-26T06:49:58Z</time>
      </trkpt>
      <trkpt lat="49.24216" lon="-0.17435">
        <ele>13</ele>
        <time>2024-05-26T06:49:59Z</time>
      </trkpt>
      <trkpt lat="49.2421" lon="-0.1744">
        <ele>12.8</ele>
        <time>2024-05-26T06:50:00Z</time>
      </trkpt>
      <trkpt lat="49.24205" lon="-0.17447">
        <ele>12.8</ele>
        <time>2024-05-26T06:50:01Z</time>
      </trkpt>
      <trkpt lat="49.24201" lon="-0.17456">
        <ele>12.6</ele>
        <time>2024-05-26T06:50:02Z</time>
      </trkpt>
      <trkpt lat="49.24199" lon="-0.17465">
        <ele>12.6</ele>
        <time>2024-05-26T06:50:03Z</time>
      </trkpt>
      <trkpt lat="49.24197" lon="-0.17476">
        <ele>12.4</ele>
        <time>2024-05-26T06:50:04Z</time>
      </trkpt>
      <trkpt lat="49.24197" lon="-0.17486">
        <ele>12.2</ele>
        <time>2024-05-26T06:50:05Z</time>
      </trkpt>
      <trkpt lat="49.24196" lon="-0.17497">
        <ele>12.2</ele>
        <time>2024-05-26T06:50:06Z</time>
      </trkpt>
      <trkpt lat="49.24196" lon="-0.17506">
        <ele>12.2</ele>
        <time>2024-05-26T06:50:07Z</time>
      </trkpt>
      <trkpt lat="49.24196" lon="-0.17516">
        <ele>12</ele>
        <time>2024-05-26T06:50:08Z</time>
      </trkpt>
      <trkpt lat="49.24196" lon="-0.17525">
        <ele>12</ele>
        <time>2024-05-26T06:50:09Z</time>
      </trkpt>
      <trkpt lat="49.24193" lon="-0.17534">
        <ele>12</ele>
        <time>2024-05-26T06:50:10Z</time>
      </trkpt>
      <trkpt lat="49.24189" lon="-0.17542">
        <ele>11.8</ele>
        <time>2024-05-26T06:50:11Z</time>
      </trkpt>
      <trkpt lat="49.24184" lon="-0.17548">
        <ele>11.8</ele>
        <time>2024-05-26T06:50:12Z</time>
      </trkpt>
      <trkpt lat="49.24178" lon="-0.17554">
        <ele>11.8</ele>
        <time>2024-05-26T06:50:13Z</time>
      </trkpt>
      <trkpt lat="49.24171" lon="-0.17559">
        <ele>11.8</ele>
        <time>2024-05-26T06:50:14Z</time>
      </trkpt>
      <trkpt lat="49.24163" lon="-0.17564">
        <ele>11.6</ele>
        <time>2024-05-26T06:50:15Z</time>
      </trkpt>
      <trkpt lat="49.24156" lon="-0.1757">
        <ele>11.6</ele>
        <time>2024-05-26T06:50:16Z</time>
      </trkpt>
      <trkpt lat="49.24149" lon="-0.17576">
        <ele>11.6</ele>
        <time>2024-05-26T06:50:17Z</time>
      </trkpt>
      <trkpt lat="49.24141" lon="-0.17582">
        <ele>11.4</ele>
        <time>2024-05-26T06:50:18Z</time>
      </trkpt>
      <trkpt lat="49.24133" lon="-0.17588">
        <ele>11.4</ele>
        <time>2024-05-26T06:50:19Z</time>
      </trkpt>
      <trkpt lat="49.24126" lon="-0.17596">
        <ele>11.2</ele>
        <time>2024-05-26T06:50:20Z</time>
      </trkpt>
      <trkpt lat="49.2412" lon="-0.17605">
        <ele>11</ele>
        <time>2024-05-26T06:50:21Z</time>
      </trkpt>
      <trkpt lat="49.24114" lon="-0.17616">
        <ele>10.4</ele>
        <time>2024-05-26T06:50:22Z</time>
      </trkpt>
      <trkpt lat="49.2411" lon="-0.17628">
        <ele>10.2</ele>
        <time>2024-05-26T06:50:23Z</time>
      </trkpt>
      <trkpt lat="49.24107" lon="-0.17641">
        <ele>9.8</ele>
        <time>2024-05-26T06:50:24Z</time>
      </trkpt>
      <trkpt lat="49.24106" lon="-0.17655">
        <ele>9</ele>
        <time>2024-05-26T06:50:25Z</time>
      </trkpt>
      <trkpt lat="49.24106" lon="-0.17664">
        <ele>8.6</ele>
        <time>2024-05-26T06:50:26Z</time>
      </trkpt>
      <trkpt lat="49.24106" lon="-0.17675">
        <ele>8</ele>
        <time>2024-05-26T06:50:27Z</time>
      </trkpt>
      <trkpt lat="49.24107" lon="-0.17686">
        <ele>7.6</ele>
        <time>2024-05-26T06:50:28Z</time>
      </trkpt>
      <trkpt lat="49.24108" lon="-0.17696">
        <ele>7.4</ele>
        <time>2024-05-26T06:50:29Z</time>
      </trkpt>
      <trkpt lat="49.24109" lon="-0.17707">
        <ele>7</ele>
        <time>2024-05-26T06:50:30Z</time>
      </trkpt>
      <trkpt lat="49.24109" lon="-0.17716">
        <ele>6.8</ele>
        <time>2024-05-26T06:50:31Z</time>
      </trkpt>
      <trkpt lat="49.24109" lon="-0.17725">
        <ele>6.6</ele>
        <time>2024-05-26T06:50:32Z</time>
      </trkpt>
      <trkpt lat="49.24109" lon="-0.17733">
        <ele>6.6</ele>
        <time>2024-05-26T06:50:33Z</time>
      </trkpt>
      <trkpt lat="49.24108" lon="-0.1774">
        <ele>6.6</ele>
        <time>2024-05-26T06:50:34Z</time>
      </trkpt>
      <trkpt lat="49.24108" lon="-0.17746">
        <ele>6.4</ele>
        <time>2024-05-26T06:50:35Z</time>
      </trkpt>
      <trkpt lat="49.24107" lon="-0.17751">
        <ele>6.4</ele>
        <time>2024-05-26T06:50:36Z</time>
      </trkpt>
      <trkpt lat="49.24105" lon="-0.17755">
        <ele>6.6</ele>
        <time>2024-05-26T06:50:37Z</time>
      </trkpt>
      <trkpt lat="49.24102" lon="-0.17757">
        <ele>6.4</ele>
        <time>2024-05-26T06:50:38Z</time>
      </trkpt>
      <trkpt lat="49.24097" lon="-0.17757">
        <ele>6.4</ele>
        <time>2024-05-26T06:50:39Z</time>
      </trkpt>
      <trkpt lat="49.24091" lon="-0.17756">
        <ele>6.4</ele>
        <time>2024-05-26T06:50:40Z</time>
      </trkpt>
      <trkpt lat="49.24084" lon="-0.17756">
        <ele>6.2</ele>
        <time>2024-05-26T06:50:41Z</time>
      </trkpt>
      <trkpt lat="49.24076" lon="-0.17756">
        <ele>6.4</ele>
        <time>2024-05-26T06:50:42Z</time>
      </trkpt>
      <trkpt lat="49.2407" lon="-0.17755">
        <ele>6.4</ele>
        <time>2024-05-26T06:50:43Z</time>
      </trkpt>
      <trkpt lat="49.24062" lon="-0.17753">
        <ele>6.4</ele>
        <time>2024-05-26T06:50:44Z</time>
      </trkpt>
      <trkpt lat="49.24055" lon="-0.17752">
        <ele>6.4</ele>
        <time>2024-05-26T06:50:45Z</time>
      </trkpt>
      <trkpt lat="49.24046" lon="-0.17752">
        <ele>6.2</ele>
        <time>2024-05-26T06:50:46Z</time>
      </trkpt>
      <trkpt lat="49.2404" lon="-0.17752">
        <ele>6.4</ele>
        <time>2024-05-26T06:50:47Z</time>
      </trkpt>
      <trkpt lat="49.24031" lon="-0.17753">
        <ele>6.6</ele>
        <time>2024-05-26T06:50:48Z</time>
      </trkpt>
      <trkpt lat="49.24024" lon="-0.17754">
        <ele>6.4</ele>
        <time>2024-05-26T06:50:49Z</time>
      </trkpt>
      <trkpt lat="49.24019" lon="-0.17756">
        <ele>6.6</ele>
        <time>2024-05-26T06:50:50Z</time>
      </trkpt>
      <trkpt lat="49.24012" lon="-0.17758">
        <ele>6.8</ele>
        <time>2024-05-26T06:50:51Z</time>
      </trkpt>
      <trkpt lat="49.24005" lon="-0.17759">
        <ele>6.8</ele>
        <time>2024-05-26T06:50:52Z</time>
      </trkpt>
      <trkpt lat="49.23998" lon="-0.1776">
        <ele>6.8</ele>
        <time>2024-05-26T06:50:53Z</time>
      </trkpt>
      <trkpt lat="49.23991" lon="-0.17762">
        <ele>6.8</ele>
        <time>2024-05-26T06:50:54Z</time>
      </trkpt>
      <trkpt lat="49.23984" lon="-0.17762">
        <ele>6.8</ele>
        <time>2024-05-26T06:50:55Z</time>
      </trkpt>
      <trkpt lat="49.23977" lon="-0.17762">
        <ele>7</ele>
        <time>2024-05-26T06:50:56Z</time>
      </trkpt>
      <trkpt lat="49.23969" lon="-0.17762">
        <ele>6.6</ele>
        <time>2024-05-26T06:50:57Z</time>
      </trkpt>
      <trkpt lat="49.23962" lon="-0.17762">
        <ele>6.6</ele>
        <time>2024-05-26T06:50:58Z</time>
      </trkpt>
      <trkpt lat="49.23954" lon="-0.17761">
        <ele>6.4</ele>
        <time>2024-05-26T06:50:59Z</time>
      </trkpt>
      <trkpt lat="49.23947" lon="-0.17761">
        <ele>6.4</ele>
        <time>2024-05-26T06:51:00Z</time>
      </trkpt>
      <trkpt lat="49.23939" lon="-0.17761">
        <ele>6.2</ele>
        <time>2024-05-26T06:51:01Z</time>
      </trkpt>
      <trkpt lat="49.23932" lon="-0.17762">
        <ele>6.2</ele>
        <time>2024-05-26T06:51:02Z</time>
      </trkpt>
      <trkpt lat="49.23924" lon="-0.17762">
        <ele>6.2</ele>
        <time>2024-05-26T06:51:03Z</time>
      </trkpt>
      <trkpt lat="49.23916" lon="-0.17762">
        <ele>6.2</ele>
        <time>2024-05-26T06:51:04Z</time>
      </trkpt>
      <trkpt lat="49.23908" lon="-0.17764">
        <ele>6.2</ele>
        <time>2024-05-26T06:51:05Z</time>
      </trkpt>
      <trkpt lat="49.239" lon="-0.17766">
        <ele>6.2</ele>
        <time>2024-05-26T06:51:06Z</time>
      </trkpt>
      <trkpt lat="49.23892" lon="-0.17769">
        <ele>6</ele>
        <time>2024-05-26T06:51:07Z</time>
      </trkpt>
      <trkpt lat="49.23884" lon="-0.17774">
        <ele>5.8</ele>
        <time>2024-05-26T06:51:08Z</time>
      </trkpt>
      <trkpt lat="49.23876" lon="-0.1778">
        <ele>5.4</ele>
        <time>2024-05-26T06:51:09Z</time>
      </trkpt>
      <trkpt lat="49.23869" lon="-0.17786">
        <ele>5.2</ele>
        <time>2024-05-26T06:51:10Z</time>
      </trkpt>
      <trkpt lat="49.23862" lon="-0.17792">
        <ele>4.8</ele>
        <time>2024-05-26T06:51:11Z</time>
      </trkpt>
      <trkpt lat="49.23855" lon="-0.17798">
        <ele>4.4</ele>
        <time>2024-05-26T06:51:12Z</time>
      </trkpt>
      <trkpt lat="49.23849" lon="-0.17804">
        <ele>4</ele>
        <time>2024-05-26T06:51:13Z</time>
      </trkpt>
      <trkpt lat="49.23843" lon="-0.1781">
        <ele>4</ele>
        <time>2024-05-26T06:51:14Z</time>
      </trkpt>
      <trkpt lat="49.23836" lon="-0.17816">
        <ele>3.6</ele>
        <time>2024-05-26T06:51:15Z</time>
      </trkpt>
      <trkpt lat="49.2383" lon="-0.17823">
        <ele>3.4</ele>
        <time>2024-05-26T06:51:16Z</time>
      </trkpt>
      <trkpt lat="49.23823" lon="-0.17829">
        <ele>2.8</ele>
        <time>2024-05-26T06:51:17Z</time>
      </trkpt>
      <trkpt lat="49.23817" lon="-0.17834">
        <ele>2.6</ele>
        <time>2024-05-26T06:51:18Z</time>
      </trkpt>
      <trkpt lat="49.2381" lon="-0.1784">
        <ele>2.4</ele>
        <time>2024-05-26T06:51:19Z</time>
      </trkpt>
      <trkpt lat="49.23804" lon="-0.17845">
        <ele>2.2</ele>
        <time>2024-05-26T06:51:20Z</time>
      </trkpt>
      <trkpt lat="49.23796" lon="-0.17852">
        <ele>2.2</ele>
        <time>2024-05-26T06:51:21Z</time>
      </trkpt>
      <trkpt lat="49.2379" lon="-0.17857">
        <ele>2</ele>
        <time>2024-05-26T06:51:22Z</time>
      </trkpt>
      <trkpt lat="49.23784" lon="-0.17863">
        <ele>2</ele>
        <time>2024-05-26T06:51:23Z</time>
      </trkpt>
      <trkpt lat="49.23775" lon="-0.1787">
        <ele>2</ele>
        <time>2024-05-26T06:51:24Z</time>
      </trkpt>
      <trkpt lat="49.23769" lon="-0.17876">
        <ele>2</ele>
        <time>2024-05-26T06:51:25Z</time>
      </trkpt>
      <trkpt lat="49.23763" lon="-0.17881">
        <ele>2</ele>
        <time>2024-05-26T06:51:26Z</time>
      </trkpt>
      <trkpt lat="49.23757" lon="-0.17887">
        <ele>1.8</ele>
        <time>2024-05-26T06:51:27Z</time>
      </trkpt>
      <trkpt lat="49.2375" lon="-0.17893">
        <ele>1.8</ele>
        <time>2024-05-26T06:51:28Z</time>
      </trkpt>
      <trkpt lat="49.23743" lon="-0.17899">
        <ele>1.6</ele>
        <time>2024-05-26T06:51:29Z</time>
      </trkpt>
      <trkpt lat="49.23736" lon="-0.17904">
        <ele>1.6</ele>
        <time>2024-05-26T06:51:30Z</time>
      </trkpt>
      <trkpt lat="49.23729" lon="-0.17909">
        <ele>1.6</ele>
        <time>2024-05-26T06:51:31Z</time>
      </trkpt>
      <trkpt lat="49.23721" lon="-0.17913">
        <ele>1.4</ele>
        <time>2024-05-26T06:51:32Z</time>
      </trkpt>
      <trkpt lat="49.23714" lon="-0.17918">
        <ele>1.4</ele>
        <time>2024-05-26T06:51:33Z</time>
      </trkpt>
      <trkpt lat="49.23707" lon="-0.17923">
        <ele>1.4</ele>
        <time>2024-05-26T06:51:34Z</time>
      </trkpt>
      <trkpt lat="49.23701" lon="-0.17927">
        <ele>1.4</ele>
        <time>2024-05-26T06:51:35Z</time>
      </trkpt>
      <trkpt lat="49.23694" lon="-0.17932">
        <ele>1.2</ele>
        <time>2024-05-26T06:51:36Z</time>
      </trkpt>
      <trkpt lat="49.23687" lon="-0.17936">
        <ele>1.2</ele>
        <time>2024-05-26T06:51:37Z</time>
      </trkpt>
      <trkpt lat="49.2368" lon="-0.1794">
        <ele>1.2</ele>
        <time>2024-05-26T06:51:38Z</time>
      </trkpt>
      <trkpt lat="49.23674" lon="-0.17944">
        <ele>1.2</ele>
        <time>2024-05-26T06:51:39Z</time>
      </trkpt>
      <trkpt lat="49.23667" lon="-0.17947">
        <ele>1</ele>
        <time>2024-05-26T06:51:40Z</time>
      </trkpt>
      <trkpt lat="49.23661" lon="-0.17951">
        <ele>1</ele>
        <time>2024-05-26T06:51:41Z</time>
      </trkpt>
      <trkpt lat="49.23654" lon="-0.17955">
        <ele>1</ele>
        <time>2024-05-26T06:51:42Z</time>
      </trkpt>
      <trkpt lat="49.23647" lon="-0.17958">
        <ele>1</ele>
        <time>2024-05-26T06:51:43Z</time>
      </trkpt>
      <trkpt lat="49.2364" lon="-0.17963">
        <ele>1</ele>
        <time>2024-05-26T06:51:44Z</time>
      </trkpt>
      <trkpt lat="49.23633" lon="-0.17967">
        <ele>1.2</ele>
        <time>2024-05-26T06:51:45Z</time>
      </trkpt>
      <trkpt lat="49.23626" lon="-0.17971">
        <ele>1.2</ele>
        <time>2024-05-26T06:51:46Z</time>
      </trkpt>
      <trkpt lat="49.2362" lon="-0.17975">
        <ele>1.2</ele>
        <time>2024-05-26T06:51:47Z</time>
      </trkpt>
      <trkpt lat="49.23613" lon="-0.17979">
        <ele>1.4</ele>
        <time>2024-05-26T06:51:48Z</time>
      </trkpt>
      <trkpt lat="49.23606" lon="-0.17982">
        <ele>1.4</ele>
        <time>2024-05-26T06:51:49Z</time>
      </trkpt>
      <trkpt lat="49.23599" lon="-0.17986">
        <ele>1.4</ele>
        <time>2024-05-26T06:51:50Z</time>
      </trkpt>
      <trkpt lat="49.23592" lon="-0.17989">
        <ele>1.4</ele>
        <time>2024-05-26T06:51:51Z</time>
      </trkpt>
      <trkpt lat="49.23586" lon="-0.17993">
        <ele>1.4</ele>
        <time>2024-05-26T06:51:52Z</time>
      </trkpt>
      <trkpt lat="49.23579" lon="-0.17997">
        <ele>1.4</ele>
        <time>2024-05-26T06:51:53Z</time>
      </trkpt>
      <trkpt lat="49.23572" lon="-0.18">
        <ele>1.4</ele>
        <time>2024-05-26T06:51:54Z</time>
      </trkpt>
      <trkpt lat="49.23566" lon="-0.18004">
        <ele>1.6</ele>
        <time>2024-05-26T06:51:55Z</time>
      </trkpt>
      <trkpt lat="49.23559" lon="-0.18007">
        <ele>1.6</ele>
        <time>2024-05-26T06:51:56Z</time>
      </trkpt>
      <trkpt lat="49.23552" lon="-0.1801">
        <ele>1.6</ele>
        <time>2024-05-26T06:51:57Z</time>
      </trkpt>
      <trkpt lat="49.23546" lon="-0.18014">
        <ele>1.8</ele>
        <time>2024-05-26T06:51:58Z</time>
      </trkpt>
      <trkpt lat="49.23539" lon="-0.18016">
        <ele>1.8</ele>
        <time>2024-05-26T06:51:59Z</time>
      </trkpt>
      <trkpt lat="49.23532" lon="-0.18017">
        <ele>1.8</ele>
        <time>2024-05-26T06:52:00Z</time>
      </trkpt>
      <trkpt lat="49.23526" lon="-0.18015">
        <ele>2</ele>
        <time>2024-05-26T06:52:01Z</time>
      </trkpt>
      <trkpt lat="49.2352" lon="-0.18011">
        <ele>2</ele>
        <time>2024-05-26T06:52:02Z</time>
      </trkpt>
      <trkpt lat="49.23515" lon="-0.18004">
        <ele>2</ele>
        <time>2024-05-26T06:52:03Z</time>
      </trkpt>
      <trkpt lat="49.2351" lon="-0.17996">
        <ele>2</ele>
        <time>2024-05-26T06:52:04Z</time>
      </trkpt>
      <trkpt lat="49.23508" lon="-0.17985">
        <ele>2</ele>
        <time>2024-05-26T06:52:05Z</time>
      </trkpt>
      <trkpt lat="49.23505" lon="-0.17974">
        <ele>2</ele>
        <time>2024-05-26T06:52:06Z</time>
      </trkpt>
      <trkpt lat="49.23504" lon="-0.17962">
        <ele>2</ele>
        <time>2024-05-26T06:52:07Z</time>
      </trkpt>
      <trkpt lat="49.23502" lon="-0.17951">
        <ele>2</ele>
        <time>2024-05-26T06:52:08Z</time>
      </trkpt>
      <trkpt lat="49.235" lon="-0.17938">
        <ele>2</ele>
        <time>2024-05-26T06:52:09Z</time>
      </trkpt>
      <trkpt lat="49.23498" lon="-0.17926">
        <ele>2</ele>
        <time>2024-05-26T06:52:10Z</time>
      </trkpt>
      <trkpt lat="49.23497" lon="-0.17914">
        <ele>2</ele>
        <time>2024-05-26T06:52:11Z</time>
      </trkpt>
      <trkpt lat="49.23495" lon="-0.17902">
        <ele>2</ele>
        <time>2024-05-26T06:52:12Z</time>
      </trkpt>
      <trkpt lat="49.23492" lon="-0.17891">
        <ele>2</ele>
        <time>2024-05-26T06:52:13Z</time>
      </trkpt>
      <trkpt lat="49.2349" lon="-0.17879">
        <ele>1.8</ele>
        <time>2024-05-26T06:52:14Z</time>
      </trkpt>
      <trkpt lat="49.23487" lon="-0.17868">
        <ele>1.8</ele>
        <time>2024-05-26T06:52:15Z</time>
      </trkpt>
      <trkpt lat="49.23483" lon="-0.17857">
        <ele>1.8</ele>
        <time>2024-05-26T06:52:16Z</time>
      </trkpt>
      <trkpt lat="49.23478" lon="-0.17848">
        <ele>1.8</ele>
        <time>2024-05-26T06:52:17Z</time>
      </trkpt>
      <trkpt lat="49.23473" lon="-0.17839">
        <ele>1.8</ele>
        <time>2024-05-26T06:52:18Z</time>
      </trkpt>
      <trkpt lat="49.23467" lon="-0.1783">
        <ele>1.6</ele>
        <time>2024-05-26T06:52:19Z</time>
      </trkpt>
      <trkpt lat="49.23461" lon="-0.17823">
        <ele>1.6</ele>
        <time>2024-05-26T06:52:20Z</time>
      </trkpt>
      <trkpt lat="49.23455" lon="-0.17816">
        <ele>1.6</ele>
        <time>2024-05-26T06:52:21Z</time>
      </trkpt>
      <trkpt lat="49.23449" lon="-0.17809">
        <ele>1.6</ele>
        <time>2024-05-26T06:52:22Z</time>
      </trkpt>
      <trkpt lat="49.23442" lon="-0.17803">
        <ele>1.6</ele>
        <time>2024-05-26T06:52:23Z</time>
      </trkpt>
      <trkpt lat="49.23436" lon="-0.17797">
        <ele>1.6</ele>
        <time>2024-05-26T06:52:24Z</time>
      </trkpt>
      <trkpt lat="49.2343" lon="-0.17791">
        <ele>1.6</ele>
        <time>2024-05-26T06:52:25Z</time>
      </trkpt>
      <trkpt lat="49.23423" lon="-0.17785">
        <ele>1.6</ele>
        <time>2024-05-26T06:52:26Z</time>
      </trkpt>
      <trkpt lat="49.23417" lon="-0.17779">
        <ele>1.6</ele>
        <time>2024-05-26T06:52:27Z</time>
      </trkpt>
      <trkpt lat="49.2341" lon="-0.17773">
        <ele>1.6</ele>
        <time>2024-05-26T06:52:28Z</time>
      </trkpt>
      <trkpt lat="49.23404" lon="-0.17767">
        <ele>1.6</ele>
        <time>2024-05-26T06:52:29Z</time>
      </trkpt>
      <trkpt lat="49.23397" lon="-0.1776">
        <ele>1.6</ele>
        <time>2024-05-26T06:52:30Z</time>
      </trkpt>
      <trkpt lat="49.23391" lon="-0.17754">
        <ele>1.6</ele>
        <time>2024-05-26T06:52:31Z</time>
      </trkpt>
      <trkpt lat="49.23385" lon="-0.17748">
        <ele>1.6</ele>
        <time>2024-05-26T06:52:32Z</time>
      </trkpt>
      <trkpt lat="49.23378" lon="-0.17743">
        <ele>1.6</ele>
        <time>2024-05-26T06:52:33Z</time>
      </trkpt>
      <trkpt lat="49.23372" lon="-0.17737">
        <ele>1.8</ele>
        <time>2024-05-26T06:52:34Z</time>
      </trkpt>
      <trkpt lat="49.23365" lon="-0.17732">
        <ele>1.8</ele>
        <time>2024-05-26T06:52:35Z</time>
      </trkpt>
      <trkpt lat="49.23359" lon="-0.17727">
        <ele>1.8</ele>
        <time>2024-05-26T06:52:36Z</time>
      </trkpt>
      <trkpt lat="49.23352" lon="-0.17722">
        <ele>1.8</ele>
        <time>2024-05-26T06:52:37Z</time>
      </trkpt>
      <trkpt lat="49.23345" lon="-0.17718">
        <ele>1.8</ele>
        <time>2024-05-26T06:52:38Z</time>
      </trkpt>
      <trkpt lat="49.23339" lon="-0.17714">
        <ele>2</ele>
        <time>2024-05-26T06:52:39Z</time>
      </trkpt>
      <trkpt lat="49.23332" lon="-0.17709">
        <ele>2</ele>
        <time>2024-05-26T06:52:40Z</time>
      </trkpt>
      <trkpt lat="49.23326" lon="-0.17705">
        <ele>2</ele>
        <time>2024-05-26T06:52:41Z</time>
      </trkpt>
      <trkpt lat="49.23319" lon="-0.17701">
        <ele>2</ele>
        <time>2024-05-26T06:52:42Z</time>
      </trkpt>
      <trkpt lat="49.23312" lon="-0.17697">
        <ele>2</ele>
        <time>2024-05-26T06:52:43Z</time>
      </trkpt>
      <trkpt lat="49.23305" lon="-0.17693">
        <ele>2</ele>
        <time>2024-05-26T06:52:44Z</time>
      </trkpt>
      <trkpt lat="49.23299" lon="-0.1769">
        <ele>2</ele>
        <time>2024-05-26T06:52:45Z</time>
      </trkpt>
      <trkpt lat="49.23292" lon="-0.17687">
        <ele>2</ele>
        <time>2024-05-26T06:52:46Z</time>
      </trkpt>
      <trkpt lat="49.23285" lon="-0.17683">
        <ele>2.2</ele>
        <time>2024-05-26T06:52:47Z</time>
      </trkpt>
      <trkpt lat="49.23278" lon="-0.17679">
        <ele>2.2</ele>
        <time>2024-05-26T06:52:48Z</time>
      </trkpt>
      <trkpt lat="49.23271" lon="-0.17676">
        <ele>2.2</ele>
        <time>2024-05-26T06:52:49Z</time>
      </trkpt>
      <trkpt lat="49.23265" lon="-0.17672">
        <ele>2.2</ele>
        <time>2024-05-26T06:52:50Z</time>
      </trkpt>
      <trkpt lat="49.23258" lon="-0.17668">
        <ele>2.2</ele>
        <time>2024-05-26T06:52:51Z</time>
      </trkpt>
      <trkpt lat="49.23251" lon="-0.17664">
        <ele>2.4</ele>
        <time>2024-05-26T06:52:52Z</time>
      </trkpt>
      <trkpt lat="49.23244" lon="-0.17661">
        <ele>2.4</ele>
        <time>2024-05-26T06:52:53Z</time>
      </trkpt>
      <trkpt lat="49.23237" lon="-0.17658">
        <ele>2.4</ele>
        <time>2024-05-26T06:52:54Z</time>
      </trkpt>
      <trkpt lat="49.2323" lon="-0.17654">
        <ele>2.4</ele>
        <time>2024-05-26T06:52:55Z</time>
      </trkpt>
      <trkpt lat="49.23223" lon="-0.17651">
        <ele>2.4</ele>
        <time>2024-05-26T06:52:56Z</time>
      </trkpt>
      <trkpt lat="49.23216" lon="-0.17648">
        <ele>2.4</ele>
        <time>2024-05-26T06:52:57Z</time>
      </trkpt>
      <trkpt lat="49.23209" lon="-0.17644">
        <ele>2.6</ele>
        <time>2024-05-26T06:52:58Z</time>
      </trkpt>
      <trkpt lat="49.23202" lon="-0.17641">
        <ele>2.6</ele>
        <time>2024-05-26T06:52:59Z</time>
      </trkpt>
      <trkpt lat="49.23195" lon="-0.17638">
        <ele>2.8</ele>
        <time>2024-05-26T06:53:00Z</time>
      </trkpt>
      <trkpt lat="49.23188" lon="-0.17635">
        <ele>2.8</ele>
        <time>2024-05-26T06:53:01Z</time>
      </trkpt>
      <trkpt lat="49.23181" lon="-0.17632">
        <ele>3</ele>
        <time>2024-05-26T06:53:02Z</time>
      </trkpt>
      <trkpt lat="49.23174" lon="-0.1763">
        <ele>3</ele>
        <time>2024-05-26T06:53:03Z</time>
      </trkpt>
      <trkpt lat="49.23167" lon="-0.17628">
        <ele>3.2</ele>
        <time>2024-05-26T06:53:04Z</time>
      </trkpt>
      <trkpt lat="49.2316" lon="-0.17625">
        <ele>3.2</ele>
        <time>2024-05-26T06:53:05Z</time>
      </trkpt>
      <trkpt lat="49.23152" lon="-0.17624">
        <ele>3.2</ele>
        <time>2024-05-26T06:53:06Z</time>
      </trkpt>
      <trkpt lat="49.23145" lon="-0.17621">
        <ele>3.4</ele>
        <time>2024-05-26T06:53:07Z</time>
      </trkpt>
      <trkpt lat="49.23138" lon="-0.17619">
        <ele>3.6</ele>
        <time>2024-05-26T06:53:08Z</time>
      </trkpt>
      <trkpt lat="49.23131" lon="-0.17618">
        <ele>3.6</ele>
        <time>2024-05-26T06:53:09Z</time>
      </trkpt>
      <trkpt lat="49.23124" lon="-0.17617">
        <ele>3.6</ele>
        <time>2024-05-26T06:53:10Z</time>
      </trkpt>
      <trkpt lat="49.23117" lon="-0.17615">
        <ele>3.8</ele>
        <time>2024-05-26T06:53:11Z</time>
      </trkpt>
      <trkpt lat="49.2311" lon="-0.17615">
        <ele>3.8</ele>
        <time>2024-05-26T06:53:12Z</time>
      </trkpt>
      <trkpt lat="49.23103" lon="-0.17614">
        <ele>3.8</ele>
        <time>2024-05-26T06:53:13Z</time>
      </trkpt>
      <trkpt lat="49.23095" lon="-0.17614">
        <ele>3.8</ele>
        <time>2024-05-26T06:53:14Z</time>
      </trkpt>
      <trkpt lat="49.23088" lon="-0.17614">
        <ele>3.8</ele>
        <time>2024-05-26T06:53:15Z</time>
      </trkpt>
      <trkpt lat="49.2308" lon="-0.17614">
        <ele>3.8</ele>
        <time>2024-05-26T06:53:16Z</time>
      </trkpt>
      <trkpt lat="49.23073" lon="-0.17614">
        <ele>3.8</ele>
        <time>2024-05-26T06:53:17Z</time>
      </trkpt>
      <trkpt lat="49.23065" lon="-0.17616">
        <ele>3.6</ele>
        <time>2024-05-26T06:53:18Z</time>
      </trkpt>
      <trkpt lat="49.23057" lon="-0.17617">
        <ele>3.6</ele>
        <time>2024-05-26T06:53:19Z</time>
      </trkpt>
      <trkpt lat="49.23049" lon="-0.17618">
        <ele>3.6</ele>
        <time>2024-05-26T06:53:20Z</time>
      </trkpt>
      <trkpt lat="49.23041" lon="-0.1762">
        <ele>3.4</ele>
        <time>2024-05-26T06:53:21Z</time>
      </trkpt>
      <trkpt lat="49.23034" lon="-0.17621">
        <ele>3.2</ele>
        <time>2024-05-26T06:53:22Z</time>
      </trkpt>
      <trkpt lat="49.23026" lon="-0.17624">
        <ele>3.2</ele>
        <time>2024-05-26T06:53:23Z</time>
      </trkpt>
      <trkpt lat="49.23019" lon="-0.17626">
        <ele>3</ele>
        <time>2024-05-26T06:53:24Z</time>
      </trkpt>
      <trkpt lat="49.23011" lon="-0.17629">
        <ele>3</ele>
        <time>2024-05-26T06:53:25Z</time>
      </trkpt>
      <trkpt lat="49.23004" lon="-0.17633">
        <ele>2.8</ele>
        <time>2024-05-26T06:53:26Z</time>
      </trkpt>
      <trkpt lat="49.22997" lon="-0.17636">
        <ele>2.6</ele>
        <time>2024-05-26T06:53:27Z</time>
      </trkpt>
      <trkpt lat="49.22989" lon="-0.17639">
        <ele>2.6</ele>
        <time>2024-05-26T06:53:28Z</time>
      </trkpt>
      <trkpt lat="49.22982" lon="-0.17643">
        <ele>2.4</ele>
        <time>2024-05-26T06:53:29Z</time>
      </trkpt>
      <trkpt lat="49.22975" lon="-0.17646">
        <ele>2.4</ele>
        <time>2024-05-26T06:53:30Z</time>
      </trkpt>
      <trkpt lat="49.22968" lon="-0.1765">
        <ele>2.4</ele>
        <time>2024-05-26T06:53:31Z</time>
      </trkpt>
      <trkpt lat="49.22961" lon="-0.17653">
        <ele>2.2</ele>
        <time>2024-05-26T06:53:32Z</time>
      </trkpt>
      <trkpt lat="49.22954" lon="-0.17657">
        <ele>2.2</ele>
        <time>2024-05-26T06:53:33Z</time>
      </trkpt>
      <trkpt lat="49.22947" lon="-0.17661">
        <ele>2</ele>
        <time>2024-05-26T06:53:34Z</time>
      </trkpt>
      <trkpt lat="49.2294" lon="-0.17665">
        <ele>2</ele>
        <time>2024-05-26T06:53:35Z</time>
      </trkpt>
      <trkpt lat="49.22933" lon="-0.17669">
        <ele>2</ele>
        <time>2024-05-26T06:53:36Z</time>
      </trkpt>
      <trkpt lat="49.22925" lon="-0.17673">
        <ele>2</ele>
        <time>2024-05-26T06:53:37Z</time>
      </trkpt>
      <trkpt lat="49.22918" lon="-0.17677">
        <ele>2</ele>
        <time>2024-05-26T06:53:38Z</time>
      </trkpt>
      <trkpt lat="49.22911" lon="-0.17681">
        <ele>2</ele>
        <time>2024-05-26T06:53:39Z</time>
      </trkpt>
      <trkpt lat="49.22903" lon="-0.17684">
        <ele>2</ele>
        <time>2024-05-26T06:53:40Z</time>
      </trkpt>
      <trkpt lat="49.22896" lon="-0.17687">
        <ele>1.8</ele>
        <time>2024-05-26T06:53:41Z</time>
      </trkpt>
      <trkpt lat="49.22888" lon="-0.1769">
        <ele>1.8</ele>
        <time>2024-05-26T06:53:42Z</time>
      </trkpt>
      <trkpt lat="49.22881" lon="-0.17692">
        <ele>1.6</ele>
        <time>2024-05-26T06:53:43Z</time>
      </trkpt>
      <trkpt lat="49.22873" lon="-0.17693">
        <ele>1.6</ele>
        <time>2024-05-26T06:53:44Z</time>
      </trkpt>
      <trkpt lat="49.22865" lon="-0.17694">
        <ele>1.4</ele>
        <time>2024-05-26T06:53:45Z</time>
      </trkpt>
      <trkpt lat="49.22858" lon="-0.17695">
        <ele>1.2</ele>
        <time>2024-05-26T06:53:46Z</time>
      </trkpt>
      <trkpt lat="49.2285" lon="-0.17695">
        <ele>1</ele>
        <time>2024-05-26T06:53:47Z</time>
      </trkpt>
      <trkpt lat="49.22843" lon="-0.17696">
        <ele>0.8</ele>
        <time>2024-05-26T06:53:48Z</time>
      </trkpt>
      <trkpt lat="49.22835" lon="-0.17696">
        <ele>0.6</ele>
        <time>2024-05-26T06:53:49Z</time>
      </trkpt>
      <trkpt lat="49.22828" lon="-0.17697">
        <ele>0.6</ele>
        <time>2024-05-26T06:53:50Z</time>
      </trkpt>
      <trkpt lat="49.2282" lon="-0.17698">
        <ele>0.6</ele>
        <time>2024-05-26T06:53:51Z</time>
      </trkpt>
      <trkpt lat="49.22813" lon="-0.17699">
        <ele>0.6</ele>
        <time>2024-05-26T06:53:52Z</time>
      </trkpt>
      <trkpt lat="49.22806" lon="-0.17701">
        <ele>0.6</ele>
        <time>2024-05-26T06:53:53Z</time>
      </trkpt>
      <trkpt lat="49.22799" lon="-0.17702">
        <ele>0.6</ele>
        <time>2024-05-26T06:53:54Z</time>
      </trkpt>
      <trkpt lat="49.22792" lon="-0.17705">
        <ele>0.6</ele>
        <time>2024-05-26T06:53:55Z</time>
      </trkpt>
      <trkpt lat="49.22785" lon="-0.17707">
        <ele>0.6</ele>
        <time>2024-05-26T06:53:56Z</time>
      </trkpt>
      <trkpt lat="49.22778" lon="-0.1771">
        <ele>0.6</ele>
        <time>2024-05-26T06:53:57Z</time>
      </trkpt>
      <trkpt lat="49.2277" lon="-0.17713">
        <ele>0.6</ele>
        <time>2024-05-26T06:53:58Z</time>
      </trkpt>
      <trkpt lat="49.22764" lon="-0.17717">
        <ele>0.4</ele>
        <time>2024-05-26T06:53:59Z</time>
      </trkpt>
      <trkpt lat="49.22757" lon="-0.17721">
        <ele>0.4</ele>
        <time>2024-05-26T06:54:00Z</time>
      </trkpt>
      <trkpt lat="49.22751" lon="-0.17725">
        <ele>0.4</ele>
        <time>2024-05-26T06:54:01Z</time>
      </trkpt>
      <trkpt lat="49.22744" lon="-0.17729">
        <ele>0.4</ele>
        <time>2024-05-26T06:54:02Z</time>
      </trkpt>
      <trkpt lat="49.22738" lon="-0.17733">
        <ele>0.4</ele>
        <time>2024-05-26T06:54:03Z</time>
      </trkpt>
      <trkpt lat="49.22732" lon="-0.17738">
        <ele>0.4</ele>
        <time>2024-05-26T06:54:04Z</time>
      </trkpt>
      <trkpt lat="49.22726" lon="-0.17743">
        <ele>0.4</ele>
        <time>2024-05-26T06:54:05Z</time>
      </trkpt>
      <trkpt lat="49.2272" lon="-0.17749">
        <ele>0.4</ele>
        <time>2024-05-26T06:54:06Z</time>
      </trkpt>
      <trkpt lat="49.22715" lon="-0.17756">
        <ele>0.4</ele>
        <time>2024-05-26T06:54:07Z</time>
      </trkpt>
      <trkpt lat="49.22709" lon="-0.17764">
        <ele>0.4</ele>
        <time>2024-05-26T06:54:08Z</time>
      </trkpt>
      <trkpt lat="49.22704" lon="-0.17771">
        <ele>0.4</ele>
        <time>2024-05-26T06:54:09Z</time>
      </trkpt>
      <trkpt lat="49.22699" lon="-0.17779">
        <ele>0.4</ele>
        <time>2024-05-26T06:54:10Z</time>
      </trkpt>
      <trkpt lat="49.22695" lon="-0.17788">
        <ele>0.4</ele>
        <time>2024-05-26T06:54:11Z</time>
      </trkpt>
      <trkpt lat="49.22691" lon="-0.17796">
        <ele>0.4</ele>
        <time>2024-05-26T06:54:12Z</time>
      </trkpt>
      <trkpt lat="49.22686" lon="-0.17804">
        <ele>0.4</ele>
        <time>2024-05-26T06:54:13Z</time>
      </trkpt>
      <trkpt lat="49.22681" lon="-0.17812">
        <ele>0.4</ele>
        <time>2024-05-26T06:54:14Z</time>
      </trkpt>
      <trkpt lat="49.22676" lon="-0.17819">
        <ele>0.2</ele>
        <time>2024-05-26T06:54:15Z</time>
      </trkpt>
      <trkpt lat="49.22671" lon="-0.17826">
        <ele>0.2</ele>
        <time>2024-05-26T06:54:16Z</time>
      </trkpt>
      <trkpt lat="49.22665" lon="-0.17832">
        <ele>0.2</ele>
        <time>2024-05-26T06:54:17Z</time>
      </trkpt>
      <trkpt lat="49.2266" lon="-0.17837">
        <ele>0.2</ele>
        <time>2024-05-26T06:54:18Z</time>
      </trkpt>
      <trkpt lat="49.22654" lon="-0.17842">
        <ele>0.2</ele>
        <time>2024-05-26T06:54:19Z</time>
      </trkpt>
      <trkpt lat="49.22648" lon="-0.17846">
        <ele>0.2</ele>
        <time>2024-05-26T06:54:20Z</time>
      </trkpt>
      <trkpt lat="49.22642" lon="-0.17849">
        <ele>0.2</ele>
        <time>2024-05-26T06:54:21Z</time>
      </trkpt>
      <trkpt lat="49.22635" lon="-0.17853">
        <ele>0.2</ele>
        <time>2024-05-26T06:54:22Z</time>
      </trkpt>
      <trkpt lat="49.22629" lon="-0.17857">
        <ele>0.2</ele>
        <time>2024-05-26T06:54:23Z</time>
      </trkpt>
      <trkpt lat="49.22623" lon="-0.1786">
        <ele>0.2</ele>
        <time>2024-05-26T06:54:24Z</time>
      </trkpt>
      <trkpt lat="49.22616" lon="-0.17863">
        <ele>0.2</ele>
        <time>2024-05-26T06:54:25Z</time>
      </trkpt>
      <trkpt lat="49.2261" lon="-0.17865">
        <ele>0.2</ele>
        <time>2024-05-26T06:54:26Z</time>
      </trkpt>
      <trkpt lat="49.22603" lon="-0.17868">
        <ele>0.2</ele>
        <time>2024-05-26T06:54:27Z</time>
      </trkpt>
      <trkpt lat="49.22597" lon="-0.17869">
        <ele>0.2</ele>
        <time>2024-05-26T06:54:28Z</time>
      </trkpt>
      <trkpt lat="49.2259" lon="-0.17871">
        <ele>0.2</ele>
        <time>2024-05-26T06:54:29Z</time>
      </trkpt>
      <trkpt lat="49.22583" lon="-0.17872">
        <ele>0.2</ele>
        <time>2024-05-26T06:54:30Z</time>
      </trkpt>
      <trkpt lat="49.22576" lon="-0.17873">
        <ele>0.2</ele>
        <time>2024-05-26T06:54:31Z</time>
      </trkpt>
      <trkpt lat="49.22569" lon="-0.17874">
        <ele>0.4</ele>
        <time>2024-05-26T06:54:32Z</time>
      </trkpt>
      <trkpt lat="49.22562" lon="-0.17874">
        <ele>0.4</ele>
        <time>2024-05-26T06:54:33Z</time>
      </trkpt>
      <trkpt lat="49.22555" lon="-0.17874">
        <ele>0.4</ele>
        <time>2024-05-26T06:54:34Z</time>
      </trkpt>
      <trkpt lat="49.22548" lon="-0.17874">
        <ele>0.4</ele>
        <time>2024-05-26T06:54:35Z</time>
      </trkpt>
      <trkpt lat="49.22541" lon="-0.17874">
        <ele>0.4</ele>
        <time>2024-05-26T06:54:36Z</time>
      </trkpt>
      <trkpt lat="49.22535" lon="-0.17874">
        <ele>0.4</ele>
        <time>2024-05-26T06:54:37Z</time>
      </trkpt>
      <trkpt lat="49.22528" lon="-0.17873">
        <ele>0.4</ele>
        <time>2024-05-26T06:54:38Z</time>
      </trkpt>
      <trkpt lat="49.22521" lon="-0.17873">
        <ele>0.4</ele>
        <time>2024-05-26T06:54:39Z</time>
      </trkpt>
      <trkpt lat="49.22514" lon="-0.17872">
        <ele>0.4</ele>
        <time>2024-05-26T06:54:40Z</time>
      </trkpt>
      <trkpt lat="49.22507" lon="-0.1787">
        <ele>0.4</ele>
        <time>2024-05-26T06:54:41Z</time>
      </trkpt>
      <trkpt lat="49.22501" lon="-0.17869">
        <ele>0.4</ele>
        <time>2024-05-26T06:54:42Z</time>
      </trkpt>
      <trkpt lat="49.22494" lon="-0.17867">
        <ele>0.4</ele>
        <time>2024-05-26T06:54:43Z</time>
      </trkpt>
      <trkpt lat="49.22487" lon="-0.17865">
        <ele>0.6</ele>
        <time>2024-05-26T06:54:44Z</time>
      </trkpt>
      <trkpt lat="49.2248" lon="-0.17863">
        <ele>0.6</ele>
        <time>2024-05-26T06:54:45Z</time>
      </trkpt>
      <trkpt lat="49.22474" lon="-0.17861">
        <ele>0.6</ele>
        <time>2024-05-26T06:54:46Z</time>
      </trkpt>
      <trkpt lat="49.22467" lon="-0.17859">
        <ele>0.8</ele>
        <time>2024-05-26T06:54:47Z</time>
      </trkpt>
      <trkpt lat="49.2246" lon="-0.17857">
        <ele>1</ele>
        <time>2024-05-26T06:54:48Z</time>
      </trkpt>
      <trkpt lat="49.22454" lon="-0.17855">
        <ele>1.2</ele>
        <time>2024-05-26T06:54:49Z</time>
      </trkpt>
      <trkpt lat="49.22447" lon="-0.17853">
        <ele>1.2</ele>
        <time>2024-05-26T06:54:50Z</time>
      </trkpt>
      <trkpt lat="49.2244" lon="-0.1785">
        <ele>1.4</ele>
        <time>2024-05-26T06:54:51Z</time>
      </trkpt>
      <trkpt lat="49.22434" lon="-0.17847">
        <ele>1.6</ele>
        <time>2024-05-26T06:54:52Z</time>
      </trkpt>
      <trkpt lat="49.22427" lon="-0.17844">
        <ele>1.6</ele>
        <time>2024-05-26T06:54:53Z</time>
      </trkpt>
      <trkpt lat="49.22421" lon="-0.17842">
        <ele>1.8</ele>
        <time>2024-05-26T06:54:54Z</time>
      </trkpt>
      <trkpt lat="49.22414" lon="-0.17839">
        <ele>1.8</ele>
        <time>2024-05-26T06:54:55Z</time>
      </trkpt>
      <trkpt lat="49.22407" lon="-0.17836">
        <ele>2</ele>
        <time>2024-05-26T06:54:56Z</time>
      </trkpt>
      <trkpt lat="49.224" lon="-0.17833">
        <ele>2</ele>
        <time>2024-05-26T06:54:57Z</time>
      </trkpt>
      <trkpt lat="49.22393" lon="-0.17831">
        <ele>2</ele>
        <time>2024-05-26T06:54:58Z</time>
      </trkpt>
      <trkpt lat="49.22386" lon="-0.17828">
        <ele>2</ele>
        <time>2024-05-26T06:54:59Z</time>
      </trkpt>
      <trkpt lat="49.22379" lon="-0.17826">
        <ele>2.2</ele>
        <time>2024-05-26T06:55:00Z</time>
      </trkpt>
      <trkpt lat="49.22371" lon="-0.17824">
        <ele>2.2</ele>
        <time>2024-05-26T06:55:01Z</time>
      </trkpt>
      <trkpt lat="49.22364" lon="-0.17822">
        <ele>2.2</ele>
        <time>2024-05-26T06:55:02Z</time>
      </trkpt>
      <trkpt lat="49.22357" lon="-0.17821">
        <ele>2.2</ele>
        <time>2024-05-26T06:55:03Z</time>
      </trkpt>
      <trkpt lat="49.2235" lon="-0.17819">
        <ele>2.2</ele>
        <time>2024-05-26T06:55:04Z</time>
      </trkpt>
      <trkpt lat="49.22342" lon="-0.17818">
        <ele>2.2</ele>
        <time>2024-05-26T06:55:05Z</time>
      </trkpt>
      <trkpt lat="49.22335" lon="-0.17818">
        <ele>2.2</ele>
        <time>2024-05-26T06:55:06Z</time>
      </trkpt>
      <trkpt lat="49.22327" lon="-0.17818">
        <ele>2</ele>
        <time>2024-05-26T06:55:07Z</time>
      </trkpt>
      <trkpt lat="49.2232" lon="-0.17818">
        <ele>2</ele>
        <time>2024-05-26T06:55:08Z</time>
      </trkpt>
      <trkpt lat="49.22312" lon="-0.17819">
        <ele>1.6</ele>
        <time>2024-05-26T06:55:09Z</time>
      </trkpt>
      <trkpt lat="49.22305" lon="-0.17819">
        <ele>1.4</ele>
        <time>2024-05-26T06:55:10Z</time>
      </trkpt>
      <trkpt lat="49.22297" lon="-0.1782">
        <ele>1.4</ele>
        <time>2024-05-26T06:55:11Z</time>
      </trkpt>
      <trkpt lat="49.2229" lon="-0.1782">
        <ele>1.2</ele>
        <time>2024-05-26T06:55:12Z</time>
      </trkpt>
      <trkpt lat="49.22282" lon="-0.1782">
        <ele>1</ele>
        <time>2024-05-26T06:55:13Z</time>
      </trkpt>
      <trkpt lat="49.22275" lon="-0.17821">
        <ele>0.8</ele>
        <time>2024-05-26T06:55:14Z</time>
      </trkpt>
      <trkpt lat="49.22268" lon="-0.17821">
        <ele>0.8</ele>
        <time>2024-05-26T06:55:15Z</time>
      </trkpt>
      <trkpt lat="49.2226" lon="-0.17822">
        <ele>0.6</ele>
        <time>2024-05-26T06:55:16Z</time>
      </trkpt>
      <trkpt lat="49.22253" lon="-0.17823">
        <ele>0.4</ele>
        <time>2024-05-26T06:55:17Z</time>
      </trkpt>
      <trkpt lat="49.22246" lon="-0.17824">
        <ele>0.2</ele>
        <time>2024-05-26T06:55:18Z</time>
      </trkpt>
      <trkpt lat="49.22239" lon="-0.17825">
        <ele>0.2</ele>
        <time>2024-05-26T06:55:19Z</time>
      </trkpt>
      <trkpt lat="49.22231" lon="-0.17826">
        <ele>0.2</ele>
        <time>2024-05-26T06:55:20Z</time>
      </trkpt>
      <trkpt lat="49.22224" lon="-0.17827">
        <ele>4.8</ele>
        <time>2024-05-26T06:55:21Z</time>
      </trkpt>
      <trkpt lat="49.22217" lon="-0.17829">
        <ele>4.9</ele>
        <time>2024-05-26T06:55:22Z</time>
      </trkpt>
      <trkpt lat="49.2221" lon="-0.17832">
        <ele>4.9</ele>
        <time>2024-05-26T06:55:23Z</time>
      </trkpt>
      <trkpt lat="49.22203" lon="-0.17834">
        <ele>5</ele>
        <time>2024-05-26T06:55:24Z</time>
      </trkpt>
      <trkpt lat="49.22196" lon="-0.17837">
        <ele>5.1</ele>
        <time>2024-05-26T06:55:25Z</time>
      </trkpt>
      <trkpt lat="49.22189" lon="-0.1784">
        <ele>5.2</ele>
        <time>2024-05-26T06:55:26Z</time>
      </trkpt>
      <trkpt lat="49.22182" lon="-0.17843">
        <ele>5.2</ele>
        <time>2024-05-26T06:55:27Z</time>
      </trkpt>
      <trkpt lat="49.22175" lon="-0.17846">
        <ele>5.1</ele>
        <time>2024-05-26T06:55:28Z</time>
      </trkpt>
      <trkpt lat="49.22168" lon="-0.17849">
        <ele>5</ele>
        <time>2024-05-26T06:55:29Z</time>
      </trkpt>
      <trkpt lat="49.22161" lon="-0.17852">
        <ele>5</ele>
        <time>2024-05-26T06:55:30Z</time>
      </trkpt>
      <trkpt lat="49.22154" lon="-0.17854">
        <ele>0.2</ele>
        <time>2024-05-26T06:55:31Z</time>
      </trkpt>
      <trkpt lat="49.22148" lon="-0.17856">
        <ele>0.2</ele>
        <time>2024-05-26T06:55:32Z</time>
      </trkpt>
      <trkpt lat="49.22141" lon="-0.17859">
        <ele>0.2</ele>
        <time>2024-05-26T06:55:33Z</time>
      </trkpt>
      <trkpt lat="49.22133" lon="-0.17861">
        <ele>0.4</ele>
        <time>2024-05-26T06:55:34Z</time>
      </trkpt>
      <trkpt lat="49.22126" lon="-0.17862">
        <ele>0.4</ele>
        <time>2024-05-26T06:55:35Z</time>
      </trkpt>
      <trkpt lat="49.22119" lon="-0.17864">
        <ele>0.4</ele>
        <time>2024-05-26T06:55:36Z</time>
      </trkpt>
      <trkpt lat="49.22112" lon="-0.17864">
        <ele>0.6</ele>
        <time>2024-05-26T06:55:37Z</time>
      </trkpt>
      <trkpt lat="49.22105" lon="-0.17865">
        <ele>0.6</ele>
        <time>2024-05-26T06:55:38Z</time>
      </trkpt>
      <trkpt lat="49.22097" lon="-0.17865">
        <ele>0.6</ele>
        <time>2024-05-26T06:55:39Z</time>
      </trkpt>
      <trkpt lat="49.2209" lon="-0.17866">
        <ele>0.6</ele>
        <time>2024-05-26T06:55:40Z</time>
      </trkpt>
      <trkpt lat="49.22083" lon="-0.17868">
        <ele>0.6</ele>
        <time>2024-05-26T06:55:41Z</time>
      </trkpt>
      <trkpt lat="49.22075" lon="-0.17869">
        <ele>0.6</ele>
        <time>2024-05-26T06:55:42Z</time>
      </trkpt>
      <trkpt lat="49.22068" lon="-0.17871">
        <ele>0.6</ele>
        <time>2024-05-26T06:55:43Z</time>
      </trkpt>
      <trkpt lat="49.22061" lon="-0.17873">
        <ele>0.6</ele>
        <time>2024-05-26T06:55:44Z</time>
      </trkpt>
      <trkpt lat="49.22054" lon="-0.17876">
        <ele>0.6</ele>
        <time>2024-05-26T06:55:45Z</time>
      </trkpt>
      <trkpt lat="49.22047" lon="-0.17879">
        <ele>0.6</ele>
        <time>2024-05-26T06:55:46Z</time>
      </trkpt>
      <trkpt lat="49.2204" lon="-0.17883">
        <ele>0.6</ele>
        <time>2024-05-26T06:55:47Z</time>
      </trkpt>
      <trkpt lat="49.22033" lon="-0.17887">
        <ele>0.6</ele>
        <time>2024-05-26T06:55:48Z</time>
      </trkpt>
      <trkpt lat="49.22026" lon="-0.17892">
        <ele>0.6</ele>
        <time>2024-05-26T06:55:49Z</time>
      </trkpt>
      <trkpt lat="49.2202" lon="-0.17897">
        <ele>0.6</ele>
        <time>2024-05-26T06:55:50Z</time>
      </trkpt>
      <trkpt lat="49.22013" lon="-0.17902">
        <ele>0.6</ele>
        <time>2024-05-26T06:55:51Z</time>
      </trkpt>
      <trkpt lat="49.22007" lon="-0.17907">
        <ele>0.6</ele>
        <time>2024-05-26T06:55:52Z</time>
      </trkpt>
      <trkpt lat="49.22001" lon="-0.17911">
        <ele>0.6</ele>
        <time>2024-05-26T06:55:53Z</time>
      </trkpt>
      <trkpt lat="49.21994" lon="-0.17915">
        <ele>0.6</ele>
        <time>2024-05-26T06:55:54Z</time>
      </trkpt>
      <trkpt lat="49.21988" lon="-0.17918">
        <ele>0.6</ele>
        <time>2024-05-26T06:55:55Z</time>
      </trkpt>
      <trkpt lat="49.21981" lon="-0.17921">
        <ele>0.6</ele>
        <time>2024-05-26T06:55:56Z</time>
      </trkpt>
      <trkpt lat="49.21975" lon="-0.17924">
        <ele>0.6</ele>
        <time>2024-05-26T06:55:57Z</time>
      </trkpt>
      <trkpt lat="49.21968" lon="-0.17926">
        <ele>0.6</ele>
        <time>2024-05-26T06:55:58Z</time>
      </trkpt>
      <trkpt lat="49.21962" lon="-0.17927">
        <ele>0.6</ele>
        <time>2024-05-26T06:55:59Z</time>
      </trkpt>
      <trkpt lat="49.21956" lon="-0.17928">
        <ele>0.6</ele>
        <time>2024-05-26T06:56:00Z</time>
      </trkpt>
      <trkpt lat="49.2195" lon="-0.17929">
        <ele>0.6</ele>
        <time>2024-05-26T06:56:01Z</time>
      </trkpt>
      <trkpt lat="49.21943" lon="-0.1793">
        <ele>0.6</ele>
        <time>2024-05-26T06:56:02Z</time>
      </trkpt>
      <trkpt lat="49.21937" lon="-0.17931">
        <ele>0.8</ele>
        <time>2024-05-26T06:56:03Z</time>
      </trkpt>
      <trkpt lat="49.21931" lon="-0.17933">
        <ele>1</ele>
        <time>2024-05-26T06:56:04Z</time>
      </trkpt>
      <trkpt lat="49.21926" lon="-0.17934">
        <ele>1.2</ele>
        <time>2024-05-26T06:56:05Z</time>
      </trkpt>
      <trkpt lat="49.2192" lon="-0.17935">
        <ele>1.2</ele>
        <time>2024-05-26T06:56:06Z</time>
      </trkpt>
      <trkpt lat="49.21914" lon="-0.17935">
        <ele>1.4</ele>
        <time>2024-05-26T06:56:07Z</time>
      </trkpt>
      <trkpt lat="49.21909" lon="-0.17935">
        <ele>1.6</ele>
        <time>2024-05-26T06:56:08Z</time>
      </trkpt>
      <trkpt lat="49.21904" lon="-0.17935">
        <ele>1.6</ele>
        <time>2024-05-26T06:56:09Z</time>
      </trkpt>
      <trkpt lat="49.21898" lon="-0.17933">
        <ele>1.8</ele>
        <time>2024-05-26T06:56:10Z</time>
      </trkpt>
      <trkpt lat="49.21892" lon="-0.17932">
        <ele>1.8</ele>
        <time>2024-05-26T06:56:11Z</time>
      </trkpt>
      <trkpt lat="49.21887" lon="-0.17931">
        <ele>2</ele>
        <time>2024-05-26T06:56:12Z</time>
      </trkpt>
      <trkpt lat="49.21881" lon="-0.17929">
        <ele>2.4</ele>
        <time>2024-05-26T06:56:13Z</time>
      </trkpt>
      <trkpt lat="49.21875" lon="-0.17926">
        <ele>2.8</ele>
        <time>2024-05-26T06:56:14Z</time>
      </trkpt>
      <trkpt lat="49.21869" lon="-0.17924">
        <ele>3.2</ele>
        <time>2024-05-26T06:56:15Z</time>
      </trkpt>
      <trkpt lat="49.21864" lon="-0.17921">
        <ele>3.8</ele>
        <time>2024-05-26T06:56:16Z</time>
      </trkpt>
      <trkpt lat="49.21858" lon="-0.17918">
        <ele>4.4</ele>
        <time>2024-05-26T06:56:17Z</time>
      </trkpt>
      <trkpt lat="49.21852" lon="-0.17915">
        <ele>4.6</ele>
        <time>2024-05-26T06:56:18Z</time>
      </trkpt>
      <trkpt lat="49.21845" lon="-0.17912">
        <ele>4.8</ele>
        <time>2024-05-26T06:56:19Z</time>
      </trkpt>
      <trkpt lat="49.21839" lon="-0.17909">
        <ele>4.8</ele>
        <time>2024-05-26T06:56:20Z</time>
      </trkpt>
      <trkpt lat="49.21832" lon="-0.17906">
        <ele>4.8</ele>
        <time>2024-05-26T06:56:21Z</time>
      </trkpt>
      <trkpt lat="49.21825" lon="-0.17903">
        <ele>5</ele>
        <time>2024-05-26T06:56:22Z</time>
      </trkpt>
      <trkpt lat="49.21818" lon="-0.179">
        <ele>5</ele>
        <time>2024-05-26T06:56:23Z</time>
      </trkpt>
      <trkpt lat="49.21811" lon="-0.17898">
        <ele>5</ele>
        <time>2024-05-26T06:56:24Z</time>
      </trkpt>
      <trkpt lat="49.21804" lon="-0.17895">
        <ele>5</ele>
        <time>2024-05-26T06:56:25Z</time>
      </trkpt>
      <trkpt lat="49.21796" lon="-0.17893">
        <ele>5</ele>
        <time>2024-05-26T06:56:26Z</time>
      </trkpt>
      <trkpt lat="49.21789" lon="-0.17892">
        <ele>5</ele>
        <time>2024-05-26T06:56:27Z</time>
      </trkpt>
      <trkpt lat="49.21781" lon="-0.1789">
        <ele>5</ele>
        <time>2024-05-26T06:56:28Z</time>
      </trkpt>
      <trkpt lat="49.21774" lon="-0.17887">
        <ele>5</ele>
        <time>2024-05-26T06:56:29Z</time>
      </trkpt>
      <trkpt lat="49.21766" lon="-0.17885">
        <ele>4.8</ele>
        <time>2024-05-26T06:56:30Z</time>
      </trkpt>
      <trkpt lat="49.21758" lon="-0.17884">
        <ele>4.8</ele>
        <time>2024-05-26T06:56:31Z</time>
      </trkpt>
      <trkpt lat="49.21751" lon="-0.17883">
        <ele>4.6</ele>
        <time>2024-05-26T06:56:32Z</time>
      </trkpt>
      <trkpt lat="49.21743" lon="-0.17882">
        <ele>4.6</ele>
        <time>2024-05-26T06:56:33Z</time>
      </trkpt>
      <trkpt lat="49.21734" lon="-0.17882">
        <ele>4.4</ele>
        <time>2024-05-26T06:56:34Z</time>
      </trkpt>
      <trkpt lat="49.21728" lon="-0.17882">
        <ele>4.4</ele>
        <time>2024-05-26T06:56:35Z</time>
      </trkpt>
      <trkpt lat="49.2172" lon="-0.17882">
        <ele>4</ele>
        <time>2024-05-26T06:56:36Z</time>
      </trkpt>
      <trkpt lat="49.21711" lon="-0.17883">
        <ele>3.8</ele>
        <time>2024-05-26T06:56:37Z</time>
      </trkpt>
      <trkpt lat="49.21705" lon="-0.17884">
        <ele>3.4</ele>
        <time>2024-05-26T06:56:38Z</time>
      </trkpt>
      <trkpt lat="49.21697" lon="-0.17885">
        <ele>3.4</ele>
        <time>2024-05-26T06:56:39Z</time>
      </trkpt>
      <trkpt lat="49.21688" lon="-0.17887">
        <ele>3.2</ele>
        <time>2024-05-26T06:56:40Z</time>
      </trkpt>
      <trkpt lat="49.21681" lon="-0.17889">
        <ele>2.8</ele>
        <time>2024-05-26T06:56:41Z</time>
      </trkpt>
      <trkpt lat="49.21674" lon="-0.17891">
        <ele>2.8</ele>
        <time>2024-05-26T06:56:42Z</time>
      </trkpt>
      <trkpt lat="49.21665" lon="-0.17893">
        <ele>2.6</ele>
        <time>2024-05-26T06:56:43Z</time>
      </trkpt>
      <trkpt lat="49.21659" lon="-0.17896">
        <ele>2</ele>
        <time>2024-05-26T06:56:44Z</time>
      </trkpt>
      <trkpt lat="49.21652" lon="-0.17898">
        <ele>1.6</ele>
        <time>2024-05-26T06:56:45Z</time>
      </trkpt>
      <trkpt lat="49.21646" lon="-0.179">
        <ele>1.6</ele>
        <time>2024-05-26T06:56:46Z</time>
      </trkpt>
      <trkpt lat="49.21638" lon="-0.17903">
        <ele>1.2</ele>
        <time>2024-05-26T06:56:47Z</time>
      </trkpt>
      <trkpt lat="49.2163" lon="-0.17906">
        <ele>1.2</ele>
        <time>2024-05-26T06:56:48Z</time>
      </trkpt>
      <trkpt lat="49.21623" lon="-0.1791">
        <ele>1</ele>
        <time>2024-05-26T06:56:49Z</time>
      </trkpt>
      <trkpt lat="49.21614" lon="-0.17914">
        <ele>1</ele>
        <time>2024-05-26T06:56:50Z</time>
      </trkpt>
      <trkpt lat="49.21607" lon="-0.17918">
        <ele>1</ele>
        <time>2024-05-26T06:56:51Z</time>
      </trkpt>
      <trkpt lat="49.21602" lon="-0.17921">
        <ele>0.8</ele>
        <time>2024-05-26T06:56:52Z</time>
      </trkpt>
      <trkpt lat="49.21593" lon="-0.17925">
        <ele>0.8</ele>
        <time>2024-05-26T06:56:53Z</time>
      </trkpt>
      <trkpt lat="49.21587" lon="-0.17928">
        <ele>0.6</ele>
        <time>2024-05-26T06:56:54Z</time>
      </trkpt>
      <trkpt lat="49.21579" lon="-0.17931">
        <ele>0.6</ele>
        <time>2024-05-26T06:56:55Z</time>
      </trkpt>
      <trkpt lat="49.2157" lon="-0.17935">
        <ele>0.6</ele>
        <time>2024-05-26T06:56:56Z</time>
      </trkpt>
      <trkpt lat="49.21562" lon="-0.17937">
        <ele>0.6</ele>
        <time>2024-05-26T06:56:57Z</time>
      </trkpt>
      <trkpt lat="49.21556" lon="-0.17939">
        <ele>0.6</ele>
        <time>2024-05-26T06:56:58Z</time>
      </trkpt>
      <trkpt lat="49.21547" lon="-0.17942">
        <ele>0.4</ele>
        <time>2024-05-26T06:56:59Z</time>
      </trkpt>
      <trkpt lat="49.2154" lon="-0.17943">
        <ele>0.4</ele>
        <time>2024-05-26T06:57:00Z</time>
      </trkpt>
      <trkpt lat="49.21533" lon="-0.17944">
        <ele>0.4</ele>
        <time>2024-05-26T06:57:01Z</time>
      </trkpt>
      <trkpt lat="49.21524" lon="-0.17946">
        <ele>0.4</ele>
        <time>2024-05-26T06:57:02Z</time>
      </trkpt>
      <trkpt lat="49.21518" lon="-0.17948">
        <ele>0.4</ele>
        <time>2024-05-26T06:57:03Z</time>
      </trkpt>
      <trkpt lat="49.2151" lon="-0.17949">
        <ele>0.4</ele>
        <time>2024-05-26T06:57:04Z</time>
      </trkpt>
      <trkpt lat="49.21501" lon="-0.17951">
        <ele>0.2</ele>
        <time>2024-05-26T06:57:05Z</time>
      </trkpt>
      <trkpt lat="49.21495" lon="-0.17952">
        <ele>0.2</ele>
        <time>2024-05-26T06:57:06Z</time>
      </trkpt>
      <trkpt lat="49.21487" lon="-0.17953">
        <ele>0.2</ele>
        <time>2024-05-26T06:57:07Z</time>
      </trkpt>
      <trkpt lat="49.21478" lon="-0.17954">
        <ele>-0.2</ele>
        <time>2024-05-26T06:57:08Z</time>
      </trkpt>
      <trkpt lat="49.21472" lon="-0.17953">
        <ele>-0.4</ele>
        <time>2024-05-26T06:57:09Z</time>
      </trkpt>
      <trkpt lat="49.21464" lon="-0.17953">
        <ele>-0.6</ele>
        <time>2024-05-26T06:57:10Z</time>
      </trkpt>
      <trkpt lat="49.21456" lon="-0.17952">
        <ele>-0.6</ele>
        <time>2024-05-26T06:57:11Z</time>
      </trkpt>
      <trkpt lat="49.21449" lon="-0.17951">
        <ele>-0.6</ele>
        <time>2024-05-26T06:57:12Z</time>
      </trkpt>
      <trkpt lat="49.21442" lon="-0.1795">
        <ele>-0.6</ele>
        <time>2024-05-26T06:57:13Z</time>
      </trkpt>
      <trkpt lat="49.21433" lon="-0.17948">
        <ele>-0.6</ele>
        <time>2024-05-26T06:57:14Z</time>
      </trkpt>
      <trkpt lat="49.21426" lon="-0.17947">
        <ele>-0.8</ele>
        <time>2024-05-26T06:57:15Z</time>
      </trkpt>
      <trkpt lat="49.2142" lon="-0.17946">
        <ele>-0.8</ele>
        <time>2024-05-26T06:57:16Z</time>
      </trkpt>
      <trkpt lat="49.21413" lon="-0.17945">
        <ele>-0.8</ele>
        <time>2024-05-26T06:57:17Z</time>
      </trkpt>
      <trkpt lat="49.21406" lon="-0.17944">
        <ele>-0.8</ele>
        <time>2024-05-26T06:57:18Z</time>
      </trkpt>
      <trkpt lat="49.21398" lon="-0.17944">
        <ele>-0.8</ele>
        <time>2024-05-26T06:57:19Z</time>
      </trkpt>
      <trkpt lat="49.21391" lon="-0.17946">
        <ele>-0.8</ele>
        <time>2024-05-26T06:57:20Z</time>
      </trkpt>
      <trkpt lat="49.21384" lon="-0.17948">
        <ele>-0.8</ele>
        <time>2024-05-26T06:57:21Z</time>
      </trkpt>
      <trkpt lat="49.21377" lon="-0.17951">
        <ele>-0.6</ele>
        <time>2024-05-26T06:57:22Z</time>
      </trkpt>
      <trkpt lat="49.21368" lon="-0.17955">
        <ele>-0.6</ele>
        <time>2024-05-26T06:57:23Z</time>
      </trkpt>
      <trkpt lat="49.21362" lon="-0.17959">
        <ele>-0.6</ele>
        <time>2024-05-26T06:57:24Z</time>
      </trkpt>
      <trkpt lat="49.21356" lon="-0.17962">
        <ele>-0.6</ele>
        <time>2024-05-26T06:57:25Z</time>
      </trkpt>
      <trkpt lat="49.21348" lon="-0.17967">
        <ele>-0.6</ele>
        <time>2024-05-26T06:57:26Z</time>
      </trkpt>
      <trkpt lat="49.21342" lon="-0.17969">
        <ele>-0.6</ele>
        <time>2024-05-26T06:57:27Z</time>
      </trkpt>
      <trkpt lat="49.21336" lon="-0.17973">
        <ele>-0.6</ele>
        <time>2024-05-26T06:57:28Z</time>
      </trkpt>
      <trkpt lat="49.21329" lon="-0.17976">
        <ele>-0.6</ele>
        <time>2024-05-26T06:57:29Z</time>
      </trkpt>
      <trkpt lat="49.21322" lon="-0.17978">
        <ele>-0.6</ele>
        <time>2024-05-26T06:57:30Z</time>
      </trkpt>
      <trkpt lat="49.21315" lon="-0.17979">
        <ele>-0.6</ele>
        <time>2024-05-26T06:57:31Z</time>
      </trkpt>
      <trkpt lat="49.21308" lon="-0.17979">
        <ele>-0.6</ele>
        <time>2024-05-26T06:57:32Z</time>
      </trkpt>
      <trkpt lat="49.21302" lon="-0.17978">
        <ele>-0.6</ele>
        <time>2024-05-26T06:57:33Z</time>
      </trkpt>
      <trkpt lat="49.21295" lon="-0.17976">
        <ele>-0.4</ele>
        <time>2024-05-26T06:57:34Z</time>
      </trkpt>
      <trkpt lat="49.21287" lon="-0.17973">
        <ele>-0.4</ele>
        <time>2024-05-26T06:57:35Z</time>
      </trkpt>
      <trkpt lat="49.21282" lon="-0.17969">
        <ele>-0.4</ele>
        <time>2024-05-26T06:57:36Z</time>
      </trkpt>
      <trkpt lat="49.21276" lon="-0.17964">
        <ele>-0.4</ele>
        <time>2024-05-26T06:57:37Z</time>
      </trkpt>
      <trkpt lat="49.21269" lon="-0.17956">
        <ele>-0.4</ele>
        <time>2024-05-26T06:57:38Z</time>
      </trkpt>
      <trkpt lat="49.21265" lon="-0.1795">
        <ele>-0.2</ele>
        <time>2024-05-26T06:57:39Z</time>
      </trkpt>
      <trkpt lat="49.2126" lon="-0.17942">
        <ele>-0.2</ele>
        <time>2024-05-26T06:57:40Z</time>
      </trkpt>
      <trkpt lat="49.21254" lon="-0.17935">
        <ele>-0.2</ele>
        <time>2024-05-26T06:57:41Z</time>
      </trkpt>
      <trkpt lat="49.21249" lon="-0.17929">
        <ele>5.1</ele>
        <time>2024-05-26T06:57:42Z</time>
      </trkpt>
      <trkpt lat="49.21243" lon="-0.17923">
        <ele>5.3</ele>
        <time>2024-05-26T06:57:43Z</time>
      </trkpt>
      <trkpt lat="49.21237" lon="-0.17918">
        <ele>5.5</ele>
        <time>2024-05-26T06:57:44Z</time>
      </trkpt>
      <trkpt lat="49.21231" lon="-0.17913">
        <ele>0.2</ele>
        <time>2024-05-26T06:57:45Z</time>
      </trkpt>
      <trkpt lat="49.21225" lon="-0.17908">
        <ele>0.4</ele>
        <time>2024-05-26T06:57:46Z</time>
      </trkpt>
      <trkpt lat="49.21219" lon="-0.17904">
        <ele>0.4</ele>
        <time>2024-05-26T06:57:47Z</time>
      </trkpt>
      <trkpt lat="49.21213" lon="-0.179">
        <ele>0.6</ele>
        <time>2024-05-26T06:57:48Z</time>
      </trkpt>
      <trkpt lat="49.21207" lon="-0.17896">
        <ele>0.6</ele>
        <time>2024-05-26T06:57:49Z</time>
      </trkpt>
      <trkpt lat="49.21202" lon="-0.17893">
        <ele>0.8</ele>
        <time>2024-05-26T06:57:50Z</time>
      </trkpt>
      <trkpt lat="49.21196" lon="-0.17889">
        <ele>0.8</ele>
        <time>2024-05-26T06:57:51Z</time>
      </trkpt>
      <trkpt lat="49.21191" lon="-0.17886">
        <ele>1</ele>
        <time>2024-05-26T06:57:52Z</time>
      </trkpt>
      <trkpt lat="49.21185" lon="-0.17884">
        <ele>1</ele>
        <time>2024-05-26T06:57:53Z</time>
      </trkpt>
      <trkpt lat="49.21178" lon="-0.17881">
        <ele>1</ele>
        <time>2024-05-26T06:57:54Z</time>
      </trkpt>
      <trkpt lat="49.21172" lon="-0.1788">
        <ele>1</ele>
        <time>2024-05-26T06:57:55Z</time>
      </trkpt>
      <trkpt lat="49.21166" lon="-0.17878">
        <ele>1.2</ele>
        <time>2024-05-26T06:57:56Z</time>
      </trkpt>
      <trkpt lat="49.2116" lon="-0.17877">
        <ele>1.2</ele>
        <time>2024-05-26T06:57:57Z</time>
      </trkpt>
      <trkpt lat="49.21154" lon="-0.17876">
        <ele>1.4</ele>
        <time>2024-05-26T06:57:58Z</time>
      </trkpt>
      <trkpt lat="49.21148" lon="-0.17875">
        <ele>1.8</ele>
        <time>2024-05-26T06:57:59Z</time>
      </trkpt>
      <trkpt lat="49.21142" lon="-0.17874">
        <ele>2.2</ele>
        <time>2024-05-26T06:58:00Z</time>
      </trkpt>
      <trkpt lat="49.21135" lon="-0.17873">
        <ele>2.8</ele>
        <time>2024-05-26T06:58:01Z</time>
      </trkpt>
      <trkpt lat="49.21129" lon="-0.17873">
        <ele>3.2</ele>
        <time>2024-05-26T06:58:02Z</time>
      </trkpt>
      <trkpt lat="49.21123" lon="-0.17872">
        <ele>3.4</ele>
        <time>2024-05-26T06:58:03Z</time>
      </trkpt>
      <trkpt lat="49.21117" lon="-0.17872">
        <ele>3.6</ele>
        <time>2024-05-26T06:58:04Z</time>
      </trkpt>
      <trkpt lat="49.2111" lon="-0.17871">
        <ele>3.6</ele>
        <time>2024-05-26T06:58:05Z</time>
      </trkpt>
      <trkpt lat="49.21104" lon="-0.1787">
        <ele>4</ele>
        <time>2024-05-26T06:58:06Z</time>
      </trkpt>
      <trkpt lat="49.21097" lon="-0.17869">
        <ele>4.2</ele>
        <time>2024-05-26T06:58:07Z</time>
      </trkpt>
      <trkpt lat="49.21091" lon="-0.17868">
        <ele>4.4</ele>
        <time>2024-05-26T06:58:08Z</time>
      </trkpt>
      <trkpt lat="49.21084" lon="-0.17868">
        <ele>4.4</ele>
        <time>2024-05-26T06:58:09Z</time>
      </trkpt>
      <trkpt lat="49.21077" lon="-0.17867">
        <ele>4.6</ele>
        <time>2024-05-26T06:58:10Z</time>
      </trkpt>
      <trkpt lat="49.2107" lon="-0.17866">
        <ele>4.8</ele>
        <time>2024-05-26T06:58:11Z</time>
      </trkpt>
      <trkpt lat="49.21063" lon="-0.17865">
        <ele>4.8</ele>
        <time>2024-05-26T06:58:12Z</time>
      </trkpt>
      <trkpt lat="49.21056" lon="-0.17864">
        <ele>5</ele>
        <time>2024-05-26T06:58:13Z</time>
      </trkpt>
      <trkpt lat="49.21049" lon="-0.17863">
        <ele>5</ele>
        <time>2024-05-26T06:58:14Z</time>
      </trkpt>
      <trkpt lat="49.21042" lon="-0.17862">
        <ele>5</ele>
        <time>2024-05-26T06:58:15Z</time>
      </trkpt>
      <trkpt lat="49.21035" lon="-0.17861">
        <ele>5.2</ele>
        <time>2024-05-26T06:58:16Z</time>
      </trkpt>
      <trkpt lat="49.21028" lon="-0.17861">
        <ele>5.2</ele>
        <time>2024-05-26T06:58:17Z</time>
      </trkpt>
      <trkpt lat="49.21021" lon="-0.1786">
        <ele>5.2</ele>
        <time>2024-05-26T06:58:18Z</time>
      </trkpt>
      <trkpt lat="49.21013" lon="-0.1786">
        <ele>5.2</ele>
        <time>2024-05-26T06:58:19Z</time>
      </trkpt>
      <trkpt lat="49.21006" lon="-0.17859">
        <ele>5.4</ele>
        <time>2024-05-26T06:58:20Z</time>
      </trkpt>
      <trkpt lat="49.20998" lon="-0.17859">
        <ele>5.4</ele>
        <time>2024-05-26T06:58:21Z</time>
      </trkpt>
      <trkpt lat="49.2099" lon="-0.17859">
        <ele>5.4</ele>
        <time>2024-05-26T06:58:22Z</time>
      </trkpt>
      <trkpt lat="49.20983" lon="-0.17859">
        <ele>5.6</ele>
        <time>2024-05-26T06:58:23Z</time>
      </trkpt>
      <trkpt lat="49.20975" lon="-0.1786">
        <ele>5.6</ele>
        <time>2024-05-26T06:58:24Z</time>
      </trkpt>
      <trkpt lat="49.20968" lon="-0.1786">
        <ele>5.6</ele>
        <time>2024-05-26T06:58:25Z</time>
      </trkpt>
      <trkpt lat="49.20961" lon="-0.17861">
        <ele>5.8</ele>
        <time>2024-05-26T06:58:26Z</time>
      </trkpt>
      <trkpt lat="49.20954" lon="-0.17862">
        <ele>5.8</ele>
        <time>2024-05-26T06:58:27Z</time>
      </trkpt>
      <trkpt lat="49.20947" lon="-0.17863">
        <ele>5.8</ele>
        <time>2024-05-26T06:58:28Z</time>
      </trkpt>
      <trkpt lat="49.2094" lon="-0.17864">
        <ele>6</ele>
        <time>2024-05-26T06:58:29Z</time>
      </trkpt>
      <trkpt lat="49.20933" lon="-0.17865">
        <ele>6</ele>
        <time>2024-05-26T06:58:30Z</time>
      </trkpt>
      <trkpt lat="49.20926" lon="-0.17866">
        <ele>6.2</ele>
        <time>2024-05-26T06:58:31Z</time>
      </trkpt>
      <trkpt lat="49.20919" lon="-0.17867">
        <ele>6.4</ele>
        <time>2024-05-26T06:58:32Z</time>
      </trkpt>
      <trkpt lat="49.20912" lon="-0.17868">
        <ele>6.6</ele>
        <time>2024-05-26T06:58:33Z</time>
      </trkpt>
      <trkpt lat="49.20904" lon="-0.17869">
        <ele>6.6</ele>
        <time>2024-05-26T06:58:34Z</time>
      </trkpt>
      <trkpt lat="49.20896" lon="-0.1787">
        <ele>6.8</ele>
        <time>2024-05-26T06:58:35Z</time>
      </trkpt>
      <trkpt lat="49.20888" lon="-0.17871">
        <ele>6.8</ele>
        <time>2024-05-26T06:58:36Z</time>
      </trkpt>
      <trkpt lat="49.20881" lon="-0.17872">
        <ele>7</ele>
        <time>2024-05-26T06:58:37Z</time>
      </trkpt>
      <trkpt lat="49.20873" lon="-0.17872">
        <ele>7</ele>
        <time>2024-05-26T06:58:38Z</time>
      </trkpt>
      <trkpt lat="49.20866" lon="-0.17872">
        <ele>7</ele>
        <time>2024-05-26T06:58:39Z</time>
      </trkpt>
      <trkpt lat="49.20859" lon="-0.17871">
        <ele>7</ele>
        <time>2024-05-26T06:58:40Z</time>
      </trkpt>
      <trkpt lat="49.20852" lon="-0.1787">
        <ele>7.2</ele>
        <time>2024-05-26T06:58:41Z</time>
      </trkpt>
      <trkpt lat="49.20844" lon="-0.17869">
        <ele>7.2</ele>
        <time>2024-05-26T06:58:42Z</time>
      </trkpt>
      <trkpt lat="49.20836" lon="-0.17867">
        <ele>7.4</ele>
        <time>2024-05-26T06:58:43Z</time>
      </trkpt>
      <trkpt lat="49.20827" lon="-0.17863">
        <ele>7.4</ele>
        <time>2024-05-26T06:58:44Z</time>
      </trkpt>
      <trkpt lat="49.20821" lon="-0.17861">
        <ele>7.4</ele>
        <time>2024-05-26T06:58:45Z</time>
      </trkpt>
      <trkpt lat="49.20814" lon="-0.17858">
        <ele>7.4</ele>
        <time>2024-05-26T06:58:46Z</time>
      </trkpt>
      <trkpt lat="49.20806" lon="-0.17855">
        <ele>7.4</ele>
        <time>2024-05-26T06:58:47Z</time>
      </trkpt>
      <trkpt lat="49.20798" lon="-0.17852">
        <ele>7.4</ele>
        <time>2024-05-26T06:58:48Z</time>
      </trkpt>
      <trkpt lat="49.2079" lon="-0.1785">
        <ele>7.4</ele>
        <time>2024-05-26T06:58:49Z</time>
      </trkpt>
      <trkpt lat="49.20782" lon="-0.17847">
        <ele>7.4</ele>
        <time>2024-05-26T06:58:50Z</time>
      </trkpt>
      <trkpt lat="49.20774" lon="-0.17844">
        <ele>7.4</ele>
        <time>2024-05-26T06:58:51Z</time>
      </trkpt>
      <trkpt lat="49.20764" lon="-0.17841">
        <ele>7.4</ele>
        <time>2024-05-26T06:58:52Z</time>
      </trkpt>
      <trkpt lat="49.20758" lon="-0.17839">
        <ele>7.2</ele>
        <time>2024-05-26T06:58:53Z</time>
      </trkpt>
      <trkpt lat="49.2075" lon="-0.17836">
        <ele>7.2</ele>
        <time>2024-05-26T06:58:54Z</time>
      </trkpt>
      <trkpt lat="49.20742" lon="-0.17833">
        <ele>6.8</ele>
        <time>2024-05-26T06:58:55Z</time>
      </trkpt>
      <trkpt lat="49.20734" lon="-0.1783">
        <ele>6.4</ele>
        <time>2024-05-26T06:58:56Z</time>
      </trkpt>
      <trkpt lat="49.20725" lon="-0.17827">
        <ele>6</ele>
        <time>2024-05-26T06:58:57Z</time>
      </trkpt>
      <trkpt lat="49.20717" lon="-0.17824">
        <ele>5.8</ele>
        <time>2024-05-26T06:58:58Z</time>
      </trkpt>
      <trkpt lat="49.20709" lon="-0.17821">
        <ele>5.6</ele>
        <time>2024-05-26T06:58:59Z</time>
      </trkpt>
      <trkpt lat="49.207" lon="-0.17818">
        <ele>5.4</ele>
        <time>2024-05-26T06:59:00Z</time>
      </trkpt>
      <trkpt lat="49.20692" lon="-0.17814">
        <ele>5.2</ele>
        <time>2024-05-26T06:59:01Z</time>
      </trkpt>
      <trkpt lat="49.20683" lon="-0.17809">
        <ele>4.8</ele>
        <time>2024-05-26T06:59:02Z</time>
      </trkpt>
      <trkpt lat="49.20675" lon="-0.17804">
        <ele>4.4</ele>
        <time>2024-05-26T06:59:03Z</time>
      </trkpt>
      <trkpt lat="49.20667" lon="-0.17799">
        <ele>4</ele>
        <time>2024-05-26T06:59:04Z</time>
      </trkpt>
      <trkpt lat="49.20659" lon="-0.17793">
        <ele>3.8</ele>
        <time>2024-05-26T06:59:05Z</time>
      </trkpt>
      <trkpt lat="49.20651" lon="-0.17789">
        <ele>3.4</ele>
        <time>2024-05-26T06:59:06Z</time>
      </trkpt>
      <trkpt lat="49.20644" lon="-0.17783">
        <ele>3</ele>
        <time>2024-05-26T06:59:07Z</time>
      </trkpt>
      <trkpt lat="49.20637" lon="-0.17777">
        <ele>3</ele>
        <time>2024-05-26T06:59:08Z</time>
      </trkpt>
      <trkpt lat="49.20631" lon="-0.17771">
        <ele>2.4</ele>
        <time>2024-05-26T06:59:09Z</time>
      </trkpt>
      <trkpt lat="49.20624" lon="-0.17765">
        <ele>2</ele>
        <time>2024-05-26T06:59:10Z</time>
      </trkpt>
      <trkpt lat="49.20617" lon="-0.1776">
        <ele>1.4</ele>
        <time>2024-05-26T06:59:11Z</time>
      </trkpt>
      <trkpt lat="49.2061" lon="-0.17755">
        <ele>0.8</ele>
        <time>2024-05-26T06:59:12Z</time>
      </trkpt>
      <trkpt lat="49.20603" lon="-0.1775">
        <ele>0.4</ele>
        <time>2024-05-26T06:59:13Z</time>
      </trkpt>
      <trkpt lat="49.20595" lon="-0.17747">
        <ele>0.2</ele>
        <time>2024-05-26T06:59:14Z</time>
      </trkpt>
      <trkpt lat="49.20587" lon="-0.17745">
        <ele>4.8</ele>
        <time>2024-05-26T06:59:15Z</time>
      </trkpt>
      <trkpt lat="49.2058" lon="-0.17744">
        <ele>4.8</ele>
        <time>2024-05-26T06:59:16Z</time>
      </trkpt>
      <trkpt lat="49.20572" lon="-0.17745">
        <ele>0.2</ele>
        <time>2024-05-26T06:59:17Z</time>
      </trkpt>
      <trkpt lat="49.20564" lon="-0.17746">
        <ele>4.9</ele>
        <time>2024-05-26T06:59:18Z</time>
      </trkpt>
      <trkpt lat="49.20557" lon="-0.17747">
        <ele>4.9</ele>
        <time>2024-05-26T06:59:19Z</time>
      </trkpt>
      <trkpt lat="49.20549" lon="-0.17748">
        <ele>0.2</ele>
        <time>2024-05-26T06:59:20Z</time>
      </trkpt>
      <trkpt lat="49.20541" lon="-0.17749">
        <ele>5</ele>
        <time>2024-05-26T06:59:21Z</time>
      </trkpt>
      <trkpt lat="49.20533" lon="-0.17749">
        <ele>-0.2</ele>
        <time>2024-05-26T06:59:22Z</time>
      </trkpt>
      <trkpt lat="49.20526" lon="-0.1775">
        <ele>-0.2</ele>
        <time>2024-05-26T06:59:23Z</time>
      </trkpt>
      <trkpt lat="49.20518" lon="-0.1775">
        <ele>-0.2</ele>
        <time>2024-05-26T06:59:24Z</time>
      </trkpt>
      <trkpt lat="49.2051" lon="-0.17751">
        <ele>-0.2</ele>
        <time>2024-05-26T06:59:25Z</time>
      </trkpt>
      <trkpt lat="49.20503" lon="-0.17751">
        <ele>-0.2</ele>
        <time>2024-05-26T06:59:26Z</time>
      </trkpt>
      <trkpt lat="49.20495" lon="-0.17751">
        <ele>-0.2</ele>
        <time>2024-05-26T06:59:27Z</time>
      </trkpt>
      <trkpt lat="49.20488" lon="-0.17751">
        <ele>5</ele>
        <time>2024-05-26T06:59:28Z</time>
      </trkpt>
      <trkpt lat="49.2048" lon="-0.1775">
        <ele>5</ele>
        <time>2024-05-26T06:59:29Z</time>
      </trkpt>
      <trkpt lat="49.20473" lon="-0.17749">
        <ele>5</ele>
        <time>2024-05-26T06:59:30Z</time>
      </trkpt>
      <trkpt lat="49.20465" lon="-0.17748">
        <ele>-0.2</ele>
        <time>2024-05-26T06:59:31Z</time>
      </trkpt>
      <trkpt lat="49.20458" lon="-0.17747">
        <ele>-0.2</ele>
        <time>2024-05-26T06:59:32Z</time>
      </trkpt>
      <trkpt lat="49.20451" lon="-0.17744">
        <ele>5.8</ele>
        <time>2024-05-26T06:59:33Z</time>
      </trkpt>
      <trkpt lat="49.20444" lon="-0.17742">
        <ele>6</ele>
        <time>2024-05-26T06:59:34Z</time>
      </trkpt>
      <trkpt lat="49.20436" lon="-0.1774">
        <ele>6.2</ele>
        <time>2024-05-26T06:59:35Z</time>
      </trkpt>
      <trkpt lat="49.2043" lon="-0.17737">
        <ele>6.3</ele>
        <time>2024-05-26T06:59:36Z</time>
      </trkpt>
      <trkpt lat="49.20423" lon="-0.17734">
        <ele>6.3</ele>
        <time>2024-05-26T06:59:37Z</time>
      </trkpt>
      <trkpt lat="49.20416" lon="-0.17732">
        <ele>6.3</ele>
        <time>2024-05-26T06:59:38Z</time>
      </trkpt>
      <trkpt lat="49.2041" lon="-0.17729">
        <ele>6.3</ele>
        <time>2024-05-26T06:59:39Z</time>
      </trkpt>
      <trkpt lat="49.20403" lon="-0.17727">
        <ele>6.2</ele>
        <time>2024-05-26T06:59:40Z</time>
      </trkpt>
      <trkpt lat="49.20396" lon="-0.17724">
        <ele>6.1</ele>
        <time>2024-05-26T06:59:41Z</time>
      </trkpt>
      <trkpt lat="49.20389" lon="-0.17721">
        <ele>6</ele>
        <time>2024-05-26T06:59:42Z</time>
      </trkpt>
      <trkpt lat="49.20382" lon="-0.17718">
        <ele>6</ele>
        <time>2024-05-26T06:59:43Z</time>
      </trkpt>
      <trkpt lat="49.20375" lon="-0.17715">
        <ele>0.2</ele>
        <time>2024-05-26T06:59:44Z</time>
      </trkpt>
      <trkpt lat="49.20368" lon="-0.17712">
        <ele>0.4</ele>
        <time>2024-05-26T06:59:45Z</time>
      </trkpt>
      <trkpt lat="49.2036" lon="-0.17709">
        <ele>0.8</ele>
        <time>2024-05-26T06:59:46Z</time>
      </trkpt>
      <trkpt lat="49.20353" lon="-0.17707">
        <ele>1</ele>
        <time>2024-05-26T06:59:47Z</time>
      </trkpt>
      <trkpt lat="49.20345" lon="-0.17704">
        <ele>1.2</ele>
        <time>2024-05-26T06:59:48Z</time>
      </trkpt>
      <trkpt lat="49.20338" lon="-0.17702">
        <ele>1.4</ele>
        <time>2024-05-26T06:59:49Z</time>
      </trkpt>
      <trkpt lat="49.2033" lon="-0.17699">
        <ele>1.4</ele>
        <time>2024-05-26T06:59:50Z</time>
      </trkpt>
      <trkpt lat="49.20322" lon="-0.17698">
        <ele>1.6</ele>
        <time>2024-05-26T06:59:51Z</time>
      </trkpt>
      <trkpt lat="49.20314" lon="-0.17696">
        <ele>1.8</ele>
        <time>2024-05-26T06:59:52Z</time>
      </trkpt>
      <trkpt lat="49.20307" lon="-0.17695">
        <ele>1.8</ele>
        <time>2024-05-26T06:59:53Z</time>
      </trkpt>
      <trkpt lat="49.20299" lon="-0.17693">
        <ele>1.8</ele>
        <time>2024-05-26T06:59:54Z</time>
      </trkpt>
      <trkpt lat="49.20291" lon="-0.17692">
        <ele>1.8</ele>
        <time>2024-05-26T06:59:55Z</time>
      </trkpt>
      <trkpt lat="49.20283" lon="-0.1769">
        <ele>2</ele>
        <time>2024-05-26T06:59:56Z</time>
      </trkpt>
      <trkpt lat="49.20276" lon="-0.17689">
        <ele>2</ele>
        <time>2024-05-26T06:59:57Z</time>
      </trkpt>
      <trkpt lat="49.20268" lon="-0.17688">
        <ele>2</ele>
        <time>2024-05-26T06:59:58Z</time>
      </trkpt>
      <trkpt lat="49.20261" lon="-0.17687">
        <ele>2</ele>
        <time>2024-05-26T06:59:59Z</time>
      </trkpt>
      <trkpt lat="49.20253" lon="-0.17686">
        <ele>2</ele>
        <time>2024-05-26T07:00:00Z</time>
      </trkpt>
      <trkpt lat="49.20246" lon="-0.17685">
        <ele>1.8</ele>
        <time>2024-05-26T07:00:01Z</time>
      </trkpt>
      <trkpt lat="49.20238" lon="-0.17684">
        <ele>1.8</ele>
        <time>2024-05-26T07:00:02Z</time>
      </trkpt>
      <trkpt lat="49.20231" lon="-0.17683">
        <ele>1.8</ele>
        <time>2024-05-26T07:00:03Z</time>
      </trkpt>
      <trkpt lat="49.20224" lon="-0.17683">
        <ele>1.6</ele>
        <time>2024-05-26T07:00:04Z</time>
      </trkpt>
      <trkpt lat="49.20217" lon="-0.17682">
        <ele>1.4</ele>
        <time>2024-05-26T07:00:05Z</time>
      </trkpt>
      <trkpt lat="49.20209" lon="-0.17681">
        <ele>1.2</ele>
        <time>2024-05-26T07:00:06Z</time>
      </trkpt>
      <trkpt lat="49.20202" lon="-0.1768">
        <ele>1.2</ele>
        <time>2024-05-26T07:00:07Z</time>
      </trkpt>
      <trkpt lat="49.20195" lon="-0.17679">
        <ele>1</ele>
        <time>2024-05-26T07:00:08Z</time>
      </trkpt>
      <trkpt lat="49.20188" lon="-0.17678">
        <ele>1</ele>
        <time>2024-05-26T07:00:09Z</time>
      </trkpt>
      <trkpt lat="49.20181" lon="-0.17677">
        <ele>1</ele>
        <time>2024-05-26T07:00:10Z</time>
      </trkpt>
      <trkpt lat="49.20174" lon="-0.17676">
        <ele>1</ele>
        <time>2024-05-26T07:00:11Z</time>
      </trkpt>
      <trkpt lat="49.20167" lon="-0.17675">
        <ele>1</ele>
        <time>2024-05-26T07:00:12Z</time>
      </trkpt>
      <trkpt lat="49.20159" lon="-0.17674">
        <ele>1</ele>
        <time>2024-05-26T07:00:13Z</time>
      </trkpt>
      <trkpt lat="49.20152" lon="-0.17673">
        <ele>1</ele>
        <time>2024-05-26T07:00:14Z</time>
      </trkpt>
      <trkpt lat="49.20145" lon="-0.17673">
        <ele>1</ele>
        <time>2024-05-26T07:00:15Z</time>
      </trkpt>
      <trkpt lat="49.20138" lon="-0.17672">
        <ele>1</ele>
        <time>2024-05-26T07:00:16Z</time>
      </trkpt>
      <trkpt lat="49.20131" lon="-0.17671">
        <ele>1</ele>
        <time>2024-05-26T07:00:17Z</time>
      </trkpt>
      <trkpt lat="49.20124" lon="-0.17669">
        <ele>1.2</ele>
        <time>2024-05-26T07:00:18Z</time>
      </trkpt>
      <trkpt lat="49.20117" lon="-0.17668">
        <ele>1.2</ele>
        <time>2024-05-26T07:00:19Z</time>
      </trkpt>
      <trkpt lat="49.2011" lon="-0.17668">
        <ele>1.4</ele>
        <time>2024-05-26T07:00:20Z</time>
      </trkpt>
      <trkpt lat="49.20103" lon="-0.17667">
        <ele>1.6</ele>
        <time>2024-05-26T07:00:21Z</time>
      </trkpt>
      <trkpt lat="49.20096" lon="-0.17666">
        <ele>1.6</ele>
        <time>2024-05-26T07:00:22Z</time>
      </trkpt>
      <trkpt lat="49.2009" lon="-0.17665">
        <ele>1.6</ele>
        <time>2024-05-26T07:00:23Z</time>
      </trkpt>
      <trkpt lat="49.20083" lon="-0.17663">
        <ele>1.8</ele>
        <time>2024-05-26T07:00:24Z</time>
      </trkpt>
      <trkpt lat="49.20077" lon="-0.17662">
        <ele>1.8</ele>
        <time>2024-05-26T07:00:25Z</time>
      </trkpt>
      <trkpt lat="49.2007" lon="-0.17662">
        <ele>2</ele>
        <time>2024-05-26T07:00:26Z</time>
      </trkpt>
      <trkpt lat="49.20062" lon="-0.17661">
        <ele>2.2</ele>
        <time>2024-05-26T07:00:27Z</time>
      </trkpt>
      <trkpt lat="49.20057" lon="-0.17661">
        <ele>2.2</ele>
        <time>2024-05-26T07:00:28Z</time>
      </trkpt>
      <trkpt lat="49.20051" lon="-0.17661">
        <ele>2.4</ele>
        <time>2024-05-26T07:00:29Z</time>
      </trkpt>
      <trkpt lat="49.20044" lon="-0.17661">
        <ele>2.6</ele>
        <time>2024-05-26T07:00:30Z</time>
      </trkpt>
      <trkpt lat="49.20038" lon="-0.17658">
        <ele>2.6</ele>
        <time>2024-05-26T07:00:31Z</time>
      </trkpt>
      <trkpt lat="49.20032" lon="-0.17657">
        <ele>2.8</ele>
        <time>2024-05-26T07:00:32Z</time>
      </trkpt>
      <trkpt lat="49.20026" lon="-0.17656">
        <ele>2.8</ele>
        <time>2024-05-26T07:00:33Z</time>
      </trkpt>
      <trkpt lat="49.2002" lon="-0.17656">
        <ele>2.8</ele>
        <time>2024-05-26T07:00:34Z</time>
      </trkpt>
      <trkpt lat="49.20013" lon="-0.17655">
        <ele>3</ele>
        <time>2024-05-26T07:00:35Z</time>
      </trkpt>
      <trkpt lat="49.20007" lon="-0.17654">
        <ele>3.2</ele>
        <time>2024-05-26T07:00:36Z</time>
      </trkpt>
      <trkpt lat="49.20001" lon="-0.17653">
        <ele>3.2</ele>
        <time>2024-05-26T07:00:37Z</time>
      </trkpt>
      <trkpt lat="49.19995" lon="-0.17652">
        <ele>3.4</ele>
        <time>2024-05-26T07:00:38Z</time>
      </trkpt>
      <trkpt lat="49.19989" lon="-0.17651">
        <ele>3.6</ele>
        <time>2024-05-26T07:00:39Z</time>
      </trkpt>
      <trkpt lat="49.19983" lon="-0.1765">
        <ele>3.6</ele>
        <time>2024-05-26T07:00:40Z</time>
      </trkpt>
      <trkpt lat="49.19977" lon="-0.17649">
        <ele>3.8</ele>
        <time>2024-05-26T07:00:41Z</time>
      </trkpt>
      <trkpt lat="49.1997" lon="-0.17648">
        <ele>4</ele>
        <time>2024-05-26T07:00:42Z</time>
      </trkpt>
      <trkpt lat="49.19964" lon="-0.17648">
        <ele>4.4</ele>
        <time>2024-05-26T07:00:43Z</time>
      </trkpt>
      <trkpt lat="49.19958" lon="-0.17646">
        <ele>4.6</ele>
        <time>2024-05-26T07:00:44Z</time>
      </trkpt>
      <trkpt lat="49.19952" lon="-0.17644">
        <ele>4.8</ele>
        <time>2024-05-26T07:00:45Z</time>
      </trkpt>
      <trkpt lat="49.19945" lon="-0.17643">
        <ele>5</ele>
        <time>2024-05-26T07:00:46Z</time>
      </trkpt>
      <trkpt lat="49.19939" lon="-0.17642">
        <ele>5</ele>
        <time>2024-05-26T07:00:47Z</time>
      </trkpt>
      <trkpt lat="49.19933" lon="-0.1764">
        <ele>5.2</ele>
        <time>2024-05-26T07:00:48Z</time>
      </trkpt>
      <trkpt lat="49.19927" lon="-0.17639">
        <ele>5.2</ele>
        <time>2024-05-26T07:00:49Z</time>
      </trkpt>
      <trkpt lat="49.19921" lon="-0.17637">
        <ele>5.2</ele>
        <time>2024-05-26T07:00:50Z</time>
      </trkpt>
      <trkpt lat="49.19915" lon="-0.17635">
        <ele>5.4</ele>
        <time>2024-05-26T07:00:51Z</time>
      </trkpt>
      <trkpt lat="49.19909" lon="-0.17634">
        <ele>5.4</ele>
        <time>2024-05-26T07:00:52Z</time>
      </trkpt>
      <trkpt lat="49.19903" lon="-0.17633">
        <ele>5.4</ele>
        <time>2024-05-26T07:00:53Z</time>
      </trkpt>
      <trkpt lat="49.19896" lon="-0.17631">
        <ele>5.4</ele>
        <time>2024-05-26T07:00:54Z</time>
      </trkpt>
      <trkpt lat="49.1989" lon="-0.1763">
        <ele>5.4</ele>
        <time>2024-05-26T07:00:55Z</time>
      </trkpt>
      <trkpt lat="49.19884" lon="-0.17629">
        <ele>5.4</ele>
        <time>2024-05-26T07:00:56Z</time>
      </trkpt>
      <trkpt lat="49.19878" lon="-0.17628">
        <ele>5.6</ele>
        <time>2024-05-26T07:00:57Z</time>
      </trkpt>
      <trkpt lat="49.19872" lon="-0.17626">
        <ele>5.6</ele>
        <time>2024-05-26T07:00:58Z</time>
      </trkpt>
      <trkpt lat="49.19865" lon="-0.17625">
        <ele>5.6</ele>
        <time>2024-05-26T07:00:59Z</time>
      </trkpt>
      <trkpt lat="49.19859" lon="-0.17623">
        <ele>5.6</ele>
        <time>2024-05-26T07:01:00Z</time>
      </trkpt>
      <trkpt lat="49.19853" lon="-0.17621">
        <ele>5.8</ele>
        <time>2024-05-26T07:01:01Z</time>
      </trkpt>
      <trkpt lat="49.19847" lon="-0.1762">
        <ele>5.8</ele>
        <time>2024-05-26T07:01:02Z</time>
      </trkpt>
      <trkpt lat="49.19841" lon="-0.17618">
        <ele>5.8</ele>
        <time>2024-05-26T07:01:03Z</time>
      </trkpt>
      <trkpt lat="49.19835" lon="-0.17617">
        <ele>6</ele>
        <time>2024-05-26T07:01:04Z</time>
      </trkpt>
      <trkpt lat="49.19828" lon="-0.17616">
        <ele>6</ele>
        <time>2024-05-26T07:01:05Z</time>
      </trkpt>
      <trkpt lat="49.19822" lon="-0.17614">
        <ele>6</ele>
        <time>2024-05-26T07:01:06Z</time>
      </trkpt>
      <trkpt lat="49.19816" lon="-0.17613">
        <ele>6.2</ele>
        <time>2024-05-26T07:01:07Z</time>
      </trkpt>
      <trkpt lat="49.19809" lon="-0.17613">
        <ele>6.4</ele>
        <time>2024-05-26T07:01:08Z</time>
      </trkpt>
      <trkpt lat="49.19803" lon="-0.17612">
        <ele>6.4</ele>
        <time>2024-05-26T07:01:09Z</time>
      </trkpt>
      <trkpt lat="49.19796" lon="-0.17612">
        <ele>6.6</ele>
        <time>2024-05-26T07:01:10Z</time>
      </trkpt>
      <trkpt lat="49.1979" lon="-0.17612">
        <ele>6.8</ele>
        <time>2024-05-26T07:01:11Z</time>
      </trkpt>
      <trkpt lat="49.19784" lon="-0.17613">
        <ele>6.8</ele>
        <time>2024-05-26T07:01:12Z</time>
      </trkpt>
      <trkpt lat="49.19778" lon="-0.17614">
        <ele>7</ele>
        <time>2024-05-26T07:01:13Z</time>
      </trkpt>
      <trkpt lat="49.19771" lon="-0.17616">
        <ele>7</ele>
        <time>2024-05-26T07:01:14Z</time>
      </trkpt>
      <trkpt lat="49.19766" lon="-0.17617">
        <ele>7.2</ele>
        <time>2024-05-26T07:01:15Z</time>
      </trkpt>
      <trkpt lat="49.1976" lon="-0.17619">
        <ele>7.4</ele>
        <time>2024-05-26T07:01:16Z</time>
      </trkpt>
      <trkpt lat="49.19755" lon="-0.1762">
        <ele>7.6</ele>
        <time>2024-05-26T07:01:17Z</time>
      </trkpt>
      <trkpt lat="49.19749" lon="-0.17622">
        <ele>7.4</ele>
        <time>2024-05-26T07:01:18Z</time>
      </trkpt>
      <trkpt lat="49.19744" lon="-0.17625">
        <ele>7.6</ele>
        <time>2024-05-26T07:01:19Z</time>
      </trkpt>
      <trkpt lat="49.19739" lon="-0.17627">
        <ele>7.6</ele>
        <time>2024-05-26T07:01:20Z</time>
      </trkpt>
      <trkpt lat="49.19733" lon="-0.17628">
        <ele>7.8</ele>
        <time>2024-05-26T07:01:21Z</time>
      </trkpt>
      <trkpt lat="49.19728" lon="-0.17631">
        <ele>8</ele>
        <time>2024-05-26T07:01:22Z</time>
      </trkpt>
      <trkpt lat="49.19723" lon="-0.17633">
        <ele>8.2</ele>
        <time>2024-05-26T07:01:23Z</time>
      </trkpt>
      <trkpt lat="49.19717" lon="-0.17636">
        <ele>8.4</ele>
        <time>2024-05-26T07:01:24Z</time>
      </trkpt>
      <trkpt lat="49.19711" lon="-0.17638">
        <ele>8.6</ele>
        <time>2024-05-26T07:01:25Z</time>
      </trkpt>
      <trkpt lat="49.19706" lon="-0.17641">
        <ele>9</ele>
        <time>2024-05-26T07:01:26Z</time>
      </trkpt>
      <trkpt lat="49.197" lon="-0.17643">
        <ele>9.2</ele>
        <time>2024-05-26T07:01:27Z</time>
      </trkpt>
      <trkpt lat="49.19695" lon="-0.17645">
        <ele>9.4</ele>
        <time>2024-05-26T07:01:28Z</time>
      </trkpt>
      <trkpt lat="49.19689" lon="-0.17646">
        <ele>9.8</ele>
        <time>2024-05-26T07:01:29Z</time>
      </trkpt>
      <trkpt lat="49.19685" lon="-0.17648">
        <ele>10</ele>
        <time>2024-05-26T07:01:30Z</time>
      </trkpt>
      <trkpt lat="49.1968" lon="-0.1765">
        <ele>10.2</ele>
        <time>2024-05-26T07:01:31Z</time>
      </trkpt>
      <trkpt lat="49.19675" lon="-0.17651">
        <ele>10.4</ele>
        <time>2024-05-26T07:01:32Z</time>
      </trkpt>
      <trkpt lat="49.19671" lon="-0.17652">
        <ele>10.4</ele>
        <time>2024-05-26T07:01:33Z</time>
      </trkpt>
      <trkpt lat="49.19667" lon="-0.17654">
        <ele>10.6</ele>
        <time>2024-05-26T07:01:34Z</time>
      </trkpt>
      <trkpt lat="49.19663" lon="-0.17656">
        <ele>10.8</ele>
        <time>2024-05-26T07:01:35Z</time>
      </trkpt>
      <trkpt lat="49.1966" lon="-0.1766">
        <ele>11</ele>
        <time>2024-05-26T07:01:36Z</time>
      </trkpt>
      <trkpt lat="49.19659" lon="-0.17665">
        <ele>11.4</ele>
        <time>2024-05-26T07:01:37Z</time>
      </trkpt>
      <trkpt lat="49.19659" lon="-0.1767">
        <ele>11.6</ele>
        <time>2024-05-26T07:01:38Z</time>
      </trkpt>
      <trkpt lat="49.19659" lon="-0.17676">
        <ele>11.8</ele>
        <time>2024-05-26T07:01:39Z</time>
      </trkpt>
      <trkpt lat="49.1966" lon="-0.17682">
        <ele>12.2</ele>
        <time>2024-05-26T07:01:40Z</time>
      </trkpt>
      <trkpt lat="49.1966" lon="-0.17688">
        <ele>12.6</ele>
        <time>2024-05-26T07:01:41Z</time>
      </trkpt>
      <trkpt lat="49.19661" lon="-0.17695">
        <ele>12.8</ele>
        <time>2024-05-26T07:01:42Z</time>
      </trkpt>
      <trkpt lat="49.19661" lon="-0.17701">
        <ele>13.2</ele>
        <time>2024-05-26T07:01:43Z</time>
      </trkpt>
      <trkpt lat="49.1966" lon="-0.17708">
        <ele>13.4</ele>
        <time>2024-05-26T07:01:44Z</time>
      </trkpt>
      <trkpt lat="49.19659" lon="-0.17716">
        <ele>13.8</ele>
        <time>2024-05-26T07:01:45Z</time>
      </trkpt>
      <trkpt lat="49.19657" lon="-0.17723">
        <ele>13.8</ele>
        <time>2024-05-26T07:01:46Z</time>
      </trkpt>
      <trkpt lat="49.19655" lon="-0.1773">
        <ele>14</ele>
        <time>2024-05-26T07:01:47Z</time>
      </trkpt>
      <trkpt lat="49.19653" lon="-0.17738">
        <ele>14</ele>
        <time>2024-05-26T07:01:48Z</time>
      </trkpt>
      <trkpt lat="49.1965" lon="-0.17745">
        <ele>14.2</ele>
        <time>2024-05-26T07:01:49Z</time>
      </trkpt>
      <trkpt lat="49.19647" lon="-0.17752">
        <ele>14.2</ele>
        <time>2024-05-26T07:01:50Z</time>
      </trkpt>
      <trkpt lat="49.19644" lon="-0.17759">
        <ele>14.2</ele>
        <time>2024-05-26T07:01:51Z</time>
      </trkpt>
      <trkpt lat="49.19641" lon="-0.17766">
        <ele>14.4</ele>
        <time>2024-05-26T07:01:52Z</time>
      </trkpt>
      <trkpt lat="49.19638" lon="-0.17773">
        <ele>14.4</ele>
        <time>2024-05-26T07:01:53Z</time>
      </trkpt>
      <trkpt lat="49.19635" lon="-0.1778">
        <ele>14.4</ele>
        <time>2024-05-26T07:01:54Z</time>
      </trkpt>
      <trkpt lat="49.19632" lon="-0.17786">
        <ele>14.4</ele>
        <time>2024-05-26T07:01:55Z</time>
      </trkpt>
      <trkpt lat="49.19628" lon="-0.17793">
        <ele>14.6</ele>
        <time>2024-05-26T07:01:56Z</time>
      </trkpt>
      <trkpt lat="49.19624" lon="-0.17799">
        <ele>14.6</ele>
        <time>2024-05-26T07:01:57Z</time>
      </trkpt>
      <trkpt lat="49.19621" lon="-0.17804">
        <ele>14.6</ele>
        <time>2024-05-26T07:01:58Z</time>
      </trkpt>
      <trkpt lat="49.19617" lon="-0.1781">
        <ele>14.6</ele>
        <time>2024-05-26T07:01:59Z</time>
      </trkpt>
      <trkpt lat="49.19614" lon="-0.17816">
        <ele>14.6</ele>
        <time>2024-05-26T07:02:00Z</time>
      </trkpt>
      <trkpt lat="49.19611" lon="-0.17821">
        <ele>14.6</ele>
        <time>2024-05-26T07:02:01Z</time>
      </trkpt>
      <trkpt lat="49.19608" lon="-0.17825">
        <ele>14.8</ele>
        <time>2024-05-26T07:02:02Z</time>
      </trkpt>
      <trkpt lat="49.19605" lon="-0.1783">
        <ele>14.8</ele>
        <time>2024-05-26T07:02:03Z</time>
      </trkpt>
      <trkpt lat="49.19601" lon="-0.17835">
        <ele>15</ele>
        <time>2024-05-26T07:02:04Z</time>
      </trkpt>
      <trkpt lat="49.19598" lon="-0.1784">
        <ele>15</ele>
        <time>2024-05-26T07:02:05Z</time>
      </trkpt>
      <trkpt lat="49.19595" lon="-0.17844">
        <ele>15</ele>
        <time>2024-05-26T07:02:06Z</time>
      </trkpt>
      <trkpt lat="49.19592" lon="-0.17849">
        <ele>15.2</ele>
        <time>2024-05-26T07:02:07Z</time>
      </trkpt>
      <trkpt lat="49.19589" lon="-0.17853">
        <ele>15.4</ele>
        <time>2024-05-26T07:02:08Z</time>
      </trkpt>
      <trkpt lat="49.19585" lon="-0.17857">
        <ele>16</ele>
        <time>2024-05-26T07:02:09Z</time>
      </trkpt>
      <trkpt lat="49.19582" lon="-0.17862">
        <ele>16.4</ele>
        <time>2024-05-26T07:02:10Z</time>
      </trkpt>
      <trkpt lat="49.19578" lon="-0.17867">
        <ele>16.8</ele>
        <time>2024-05-26T07:02:11Z</time>
      </trkpt>
      <trkpt lat="49.19575" lon="-0.17871">
        <ele>17.2</ele>
        <time>2024-05-26T07:02:12Z</time>
      </trkpt>
      <trkpt lat="49.19571" lon="-0.17877">
        <ele>17.4</ele>
        <time>2024-05-26T07:02:13Z</time>
      </trkpt>
      <trkpt lat="49.19567" lon="-0.17882">
        <ele>17.4</ele>
        <time>2024-05-26T07:02:14Z</time>
      </trkpt>
      <trkpt lat="49.19564" lon="-0.17887">
        <ele>17.8</ele>
        <time>2024-05-26T07:02:15Z</time>
      </trkpt>
      <trkpt lat="49.1956" lon="-0.17892">
        <ele>18.2</ele>
        <time>2024-05-26T07:02:16Z</time>
      </trkpt>
      <trkpt lat="49.19556" lon="-0.17897">
        <ele>18.4</ele>
        <time>2024-05-26T07:02:17Z</time>
      </trkpt>
      <trkpt lat="49.19553" lon="-0.17903">
        <ele>18.8</ele>
        <time>2024-05-26T07:02:18Z</time>
      </trkpt>
      <trkpt lat="49.19549" lon="-0.17908">
        <ele>19.2</ele>
        <time>2024-05-26T07:02:19Z</time>
      </trkpt>
      <trkpt lat="49.19545" lon="-0.17914">
        <ele>19.4</ele>
        <time>2024-05-26T07:02:20Z</time>
      </trkpt>
      <trkpt lat="49.19541" lon="-0.1792">
        <ele>19.6</ele>
        <time>2024-05-26T07:02:21Z</time>
      </trkpt>
      <trkpt lat="49.19537" lon="-0.17925">
        <ele>19.6</ele>
        <time>2024-05-26T07:02:22Z</time>
      </trkpt>
      <trkpt lat="49.19533" lon="-0.17931">
        <ele>19.8</ele>
        <time>2024-05-26T07:02:23Z</time>
      </trkpt>
      <trkpt lat="49.19529" lon="-0.17937">
        <ele>20.2</ele>
        <time>2024-05-26T07:02:24Z</time>
      </trkpt>
      <trkpt lat="49.19525" lon="-0.17943">
        <ele>20.4</ele>
        <time>2024-05-26T07:02:25Z</time>
      </trkpt>
      <trkpt lat="49.19522" lon="-0.17949">
        <ele>20.6</ele>
        <time>2024-05-26T07:02:26Z</time>
      </trkpt>
      <trkpt lat="49.19518" lon="-0.17954">
        <ele>21</ele>
        <time>2024-05-26T07:02:27Z</time>
      </trkpt>
      <trkpt lat="49.19514" lon="-0.1796">
        <ele>21.2</ele>
        <time>2024-05-26T07:02:28Z</time>
      </trkpt>
      <trkpt lat="49.19511" lon="-0.17966">
        <ele>21.4</ele>
        <time>2024-05-26T07:02:29Z</time>
      </trkpt>
      <trkpt lat="49.19507" lon="-0.17972">
        <ele>21.6</ele>
        <time>2024-05-26T07:02:30Z</time>
      </trkpt>
      <trkpt lat="49.19504" lon="-0.17978">
        <ele>21.6</ele>
        <time>2024-05-26T07:02:31Z</time>
      </trkpt>
      <trkpt lat="49.19501" lon="-0.17985">
        <ele>21.6</ele>
        <time>2024-05-26T07:02:32Z</time>
      </trkpt>
      <trkpt lat="49.19497" lon="-0.1799">
        <ele>21.8</ele>
        <time>2024-05-26T07:02:33Z</time>
      </trkpt>
      <trkpt lat="49.19494" lon="-0.17996">
        <ele>21.8</ele>
        <time>2024-05-26T07:02:34Z</time>
      </trkpt>
      <trkpt lat="49.19491" lon="-0.18002">
        <ele>21.8</ele>
        <time>2024-05-26T07:02:35Z</time>
      </trkpt>
      <trkpt lat="49.19488" lon="-0.18008">
        <ele>22</ele>
        <time>2024-05-26T07:02:36Z</time>
      </trkpt>
      <trkpt lat="49.19484" lon="-0.18014">
        <ele>22</ele>
        <time>2024-05-26T07:02:37Z</time>
      </trkpt>
      <trkpt lat="49.19481" lon="-0.1802">
        <ele>22.2</ele>
        <time>2024-05-26T07:02:38Z</time>
      </trkpt>
      <trkpt lat="49.19477" lon="-0.18026">
        <ele>22.4</ele>
        <time>2024-05-26T07:02:39Z</time>
      </trkpt>
      <trkpt lat="49.19472" lon="-0.18032">
        <ele>22.6</ele>
        <time>2024-05-26T07:02:40Z</time>
      </trkpt>
      <trkpt lat="49.19468" lon="-0.18038">
        <ele>22.8</ele>
        <time>2024-05-26T07:02:41Z</time>
      </trkpt>
      <trkpt lat="49.19464" lon="-0.18044">
        <ele>23</ele>
        <time>2024-05-26T07:02:42Z</time>
      </trkpt>
      <trkpt lat="49.1946" lon="-0.1805">
        <ele>23.4</ele>
        <time>2024-05-26T07:02:43Z</time>
      </trkpt>
      <trkpt lat="49.19455" lon="-0.18056">
        <ele>23.4</ele>
        <time>2024-05-26T07:02:44Z</time>
      </trkpt>
      <trkpt lat="49.19451" lon="-0.18062">
        <ele>23.8</ele>
        <time>2024-05-26T07:02:45Z</time>
      </trkpt>
      <trkpt lat="49.19447" lon="-0.18068">
        <ele>24</ele>
        <time>2024-05-26T07:02:46Z</time>
      </trkpt>
      <trkpt lat="49.19442" lon="-0.18074">
        <ele>24.2</ele>
        <time>2024-05-26T07:02:47Z</time>
      </trkpt>
      <trkpt lat="49.19437" lon="-0.18079">
        <ele>24.4</ele>
        <time>2024-05-26T07:02:48Z</time>
      </trkpt>
      <trkpt lat="49.19432" lon="-0.18085">
        <ele>24.4</ele>
        <time>2024-05-26T07:02:49Z</time>
      </trkpt>
      <trkpt lat="49.19428" lon="-0.18091">
        <ele>24.6</ele>
        <time>2024-05-26T07:02:50Z</time>
      </trkpt>
      <trkpt lat="49.19423" lon="-0.18096">
        <ele>24.6</ele>
        <time>2024-05-26T07:02:51Z</time>
      </trkpt>
      <trkpt lat="49.19418" lon="-0.18101">
        <ele>24.6</ele>
        <time>2024-05-26T07:02:52Z</time>
      </trkpt>
      <trkpt lat="49.19413" lon="-0.18106">
        <ele>24.8</ele>
        <time>2024-05-26T07:02:53Z</time>
      </trkpt>
      <trkpt lat="49.19407" lon="-0.1811">
        <ele>24.8</ele>
        <time>2024-05-26T07:02:54Z</time>
      </trkpt>
      <trkpt lat="49.19402" lon="-0.18113">
        <ele>24.8</ele>
        <time>2024-05-26T07:02:55Z</time>
      </trkpt>
      <trkpt lat="49.19397" lon="-0.18117">
        <ele>24.8</ele>
        <time>2024-05-26T07:02:56Z</time>
      </trkpt>
      <trkpt lat="49.19391" lon="-0.18121">
        <ele>25</ele>
        <time>2024-05-26T07:02:57Z</time>
      </trkpt>
      <trkpt lat="49.19386" lon="-0.18125">
        <ele>25</ele>
        <time>2024-05-26T07:02:58Z</time>
      </trkpt>
      <trkpt lat="49.1938" lon="-0.18128">
        <ele>25</ele>
        <time>2024-05-26T07:02:59Z</time>
      </trkpt>
      <trkpt lat="49.19374" lon="-0.18131">
        <ele>25.2</ele>
        <time>2024-05-26T07:03:00Z</time>
      </trkpt>
      <trkpt lat="49.19368" lon="-0.18135">
        <ele>25.2</ele>
        <time>2024-05-26T07:03:01Z</time>
      </trkpt>
      <trkpt lat="49.19362" lon="-0.18138">
        <ele>25.2</ele>
        <time>2024-05-26T07:03:02Z</time>
      </trkpt>
      <trkpt lat="49.19356" lon="-0.18142">
        <ele>25.4</ele>
        <time>2024-05-26T07:03:03Z</time>
      </trkpt>
      <trkpt lat="49.1935" lon="-0.18146">
        <ele>25.6</ele>
        <time>2024-05-26T07:03:04Z</time>
      </trkpt>
      <trkpt lat="49.19345" lon="-0.18149">
        <ele>25.6</ele>
        <time>2024-05-26T07:03:05Z</time>
      </trkpt>
      <trkpt lat="49.19339" lon="-0.18153">
        <ele>25.8</ele>
        <time>2024-05-26T07:03:06Z</time>
      </trkpt>
      <trkpt lat="49.19334" lon="-0.18157">
        <ele>25.8</ele>
        <time>2024-05-26T07:03:07Z</time>
      </trkpt>
      <trkpt lat="49.19328" lon="-0.18162">
        <ele>25.8</ele>
        <time>2024-05-26T07:03:08Z</time>
      </trkpt>
      <trkpt lat="49.19323" lon="-0.18166">
        <ele>26</ele>
        <time>2024-05-26T07:03:09Z</time>
      </trkpt>
      <trkpt lat="49.19317" lon="-0.1817">
        <ele>26</ele>
        <time>2024-05-26T07:03:10Z</time>
      </trkpt>
      <trkpt lat="49.19312" lon="-0.18175">
        <ele>26</ele>
        <time>2024-05-26T07:03:11Z</time>
      </trkpt>
      <trkpt lat="49.19306" lon="-0.1818">
        <ele>26</ele>
        <time>2024-05-26T07:03:12Z</time>
      </trkpt>
      <trkpt lat="49.19301" lon="-0.18185">
        <ele>26</ele>
        <time>2024-05-26T07:03:13Z</time>
      </trkpt>
      <trkpt lat="49.19295" lon="-0.18189">
        <ele>26.2</ele>
        <time>2024-05-26T07:03:14Z</time>
      </trkpt>
      <trkpt lat="49.19289" lon="-0.18194">
        <ele>26.2</ele>
        <time>2024-05-26T07:03:15Z</time>
      </trkpt>
      <trkpt lat="49.19284" lon="-0.18199">
        <ele>26.2</ele>
        <time>2024-05-26T07:03:16Z</time>
      </trkpt>
      <trkpt lat="49.19278" lon="-0.18204">
        <ele>26.2</ele>
        <time>2024-05-26T07:03:17Z</time>
      </trkpt>
      <trkpt lat="49.19272" lon="-0.1821">
        <ele>26.2</ele>
        <time>2024-05-26T07:03:18Z</time>
      </trkpt>
      <trkpt lat="49.19266" lon="-0.18215">
        <ele>26.2</ele>
        <time>2024-05-26T07:03:19Z</time>
      </trkpt>
      <trkpt lat="49.1926" lon="-0.18221">
        <ele>26.2</ele>
        <time>2024-05-26T07:03:20Z</time>
      </trkpt>
      <trkpt lat="49.19254" lon="-0.18227">
        <ele>26.2</ele>
        <time>2024-05-26T07:03:21Z</time>
      </trkpt>
      <trkpt lat="49.19248" lon="-0.18232">
        <ele>26.2</ele>
        <time>2024-05-26T07:03:22Z</time>
      </trkpt>
      <trkpt lat="49.19242" lon="-0.18238">
        <ele>26.2</ele>
        <time>2024-05-26T07:03:23Z</time>
      </trkpt>
      <trkpt lat="49.19237" lon="-0.18244">
        <ele>26.2</ele>
        <time>2024-05-26T07:03:24Z</time>
      </trkpt>
      <trkpt lat="49.19231" lon="-0.1825">
        <ele>26.2</ele>
        <time>2024-05-26T07:03:25Z</time>
      </trkpt>
      <trkpt lat="49.19226" lon="-0.18255">
        <ele>26.2</ele>
        <time>2024-05-26T07:03:26Z</time>
      </trkpt>
      <trkpt lat="49.1922" lon="-0.18261">
        <ele>26.2</ele>
        <time>2024-05-26T07:03:27Z</time>
      </trkpt>
      <trkpt lat="49.19214" lon="-0.18267">
        <ele>26.2</ele>
        <time>2024-05-26T07:03:28Z</time>
      </trkpt>
      <trkpt lat="49.19209" lon="-0.18273">
        <ele>26.4</ele>
        <time>2024-05-26T07:03:29Z</time>
      </trkpt>
      <trkpt lat="49.19203" lon="-0.18279">
        <ele>26.4</ele>
        <time>2024-05-26T07:03:30Z</time>
      </trkpt>
      <trkpt lat="49.19197" lon="-0.18285">
        <ele>26.4</ele>
        <time>2024-05-26T07:03:31Z</time>
      </trkpt>
      <trkpt lat="49.19192" lon="-0.18291">
        <ele>26.4</ele>
        <time>2024-05-26T07:03:32Z</time>
      </trkpt>
      <trkpt lat="49.19186" lon="-0.18297">
        <ele>26.4</ele>
        <time>2024-05-26T07:03:33Z</time>
      </trkpt>
      <trkpt lat="49.19181" lon="-0.18303">
        <ele>26.4</ele>
        <time>2024-05-26T07:03:34Z</time>
      </trkpt>
      <trkpt lat="49.19176" lon="-0.1831">
        <ele>26.4</ele>
        <time>2024-05-26T07:03:35Z</time>
      </trkpt>
      <trkpt lat="49.19171" lon="-0.18316">
        <ele>26.6</ele>
        <time>2024-05-26T07:03:36Z</time>
      </trkpt>
      <trkpt lat="49.19165" lon="-0.18322">
        <ele>26.6</ele>
        <time>2024-05-26T07:03:37Z</time>
      </trkpt>
      <trkpt lat="49.1916" lon="-0.18327">
        <ele>26.6</ele>
        <time>2024-05-26T07:03:38Z</time>
      </trkpt>
      <trkpt lat="49.19155" lon="-0.18333">
        <ele>26.6</ele>
        <time>2024-05-26T07:03:39Z</time>
      </trkpt>
      <trkpt lat="49.19149" lon="-0.18339">
        <ele>26.6</ele>
        <time>2024-05-26T07:03:40Z</time>
      </trkpt>
      <trkpt lat="49.19144" lon="-0.18345">
        <ele>26.6</ele>
        <time>2024-05-26T07:03:41Z</time>
      </trkpt>
      <trkpt lat="49.19139" lon="-0.1835">
        <ele>26.6</ele>
        <time>2024-05-26T07:03:42Z</time>
      </trkpt>
      <trkpt lat="49.19133" lon="-0.18355">
        <ele>26.8</ele>
        <time>2024-05-26T07:03:43Z</time>
      </trkpt>
      <trkpt lat="49.19127" lon="-0.18359">
        <ele>26.8</ele>
        <time>2024-05-26T07:03:44Z</time>
      </trkpt>
      <trkpt lat="49.19122" lon="-0.18363">
        <ele>27</ele>
        <time>2024-05-26T07:03:45Z</time>
      </trkpt>
      <trkpt lat="49.19116" lon="-0.18368">
        <ele>27</ele>
        <time>2024-05-26T07:03:46Z</time>
      </trkpt>
      <trkpt lat="49.1911" lon="-0.18372">
        <ele>27</ele>
        <time>2024-05-26T07:03:47Z</time>
      </trkpt>
      <trkpt lat="49.19104" lon="-0.18375">
        <ele>27</ele>
        <time>2024-05-26T07:03:48Z</time>
      </trkpt>
      <trkpt lat="49.19098" lon="-0.1838">
        <ele>27.2</ele>
        <time>2024-05-26T07:03:49Z</time>
      </trkpt>
      <trkpt lat="49.19092" lon="-0.18383">
        <ele>27.4</ele>
        <time>2024-05-26T07:03:50Z</time>
      </trkpt>
      <trkpt lat="49.19086" lon="-0.18387">
        <ele>27.6</ele>
        <time>2024-05-26T07:03:51Z</time>
      </trkpt>
      <trkpt lat="49.1908" lon="-0.18391">
        <ele>27.8</ele>
        <time>2024-05-26T07:03:52Z</time>
      </trkpt>
      <trkpt lat="49.19074" lon="-0.18395">
        <ele>28</ele>
        <time>2024-05-26T07:03:53Z</time>
      </trkpt>
      <trkpt lat="49.19068" lon="-0.18399">
        <ele>28</ele>
        <time>2024-05-26T07:03:54Z</time>
      </trkpt>
      <trkpt lat="49.19062" lon="-0.18403">
        <ele>28.2</ele>
        <time>2024-05-26T07:03:55Z</time>
      </trkpt>
      <trkpt lat="49.19056" lon="-0.18408">
        <ele>28.2</ele>
        <time>2024-05-26T07:03:56Z</time>
      </trkpt>
      <trkpt lat="49.19049" lon="-0.18413">
        <ele>28.2</ele>
        <time>2024-05-26T07:03:57Z</time>
      </trkpt>
      <trkpt lat="49.19043" lon="-0.18417">
        <ele>28.4</ele>
        <time>2024-05-26T07:03:58Z</time>
      </trkpt>
      <trkpt lat="49.19037" lon="-0.18422">
        <ele>28.4</ele>
        <time>2024-05-26T07:03:59Z</time>
      </trkpt>
      <trkpt lat="49.19031" lon="-0.18426">
        <ele>28.4</ele>
        <time>2024-05-26T07:04:00Z</time>
      </trkpt>
      <trkpt lat="49.19024" lon="-0.1843">
        <ele>28.4</ele>
        <time>2024-05-26T07:04:01Z</time>
      </trkpt>
      <trkpt lat="49.19018" lon="-0.18435">
        <ele>28.6</ele>
        <time>2024-05-26T07:04:02Z</time>
      </trkpt>
      <trkpt lat="49.19012" lon="-0.1844">
        <ele>28.6</ele>
        <time>2024-05-26T07:04:03Z</time>
      </trkpt>
      <trkpt lat="49.19006" lon="-0.18446">
        <ele>28.6</ele>
        <time>2024-05-26T07:04:04Z</time>
      </trkpt>
      <trkpt lat="49.19" lon="-0.18451">
        <ele>28.6</ele>
        <time>2024-05-26T07:04:05Z</time>
      </trkpt>
      <trkpt lat="49.18994" lon="-0.18457">
        <ele>28.6</ele>
        <time>2024-05-26T07:04:06Z</time>
      </trkpt>
      <trkpt lat="49.18989" lon="-0.18462">
        <ele>28.6</ele>
        <time>2024-05-26T07:04:07Z</time>
      </trkpt>
      <trkpt lat="49.18983" lon="-0.18467">
        <ele>28.8</ele>
        <time>2024-05-26T07:04:08Z</time>
      </trkpt>
      <trkpt lat="49.18977" lon="-0.18472">
        <ele>28.8</ele>
        <time>2024-05-26T07:04:09Z</time>
      </trkpt>
      <trkpt lat="49.18972" lon="-0.18477">
        <ele>28.8</ele>
        <time>2024-05-26T07:04:10Z</time>
      </trkpt>
      <trkpt lat="49.18967" lon="-0.18483">
        <ele>28.8</ele>
        <time>2024-05-26T07:04:11Z</time>
      </trkpt>
      <trkpt lat="49.18961" lon="-0.18488">
        <ele>29</ele>
        <time>2024-05-26T07:04:12Z</time>
      </trkpt>
      <trkpt lat="49.18956" lon="-0.18493">
        <ele>29</ele>
        <time>2024-05-26T07:04:13Z</time>
      </trkpt>
      <trkpt lat="49.18951" lon="-0.18497">
        <ele>29.2</ele>
        <time>2024-05-26T07:04:14Z</time>
      </trkpt>
      <trkpt lat="49.18945" lon="-0.18502">
        <ele>29.2</ele>
        <time>2024-05-26T07:04:15Z</time>
      </trkpt>
      <trkpt lat="49.18939" lon="-0.18507">
        <ele>29.4</ele>
        <time>2024-05-26T07:04:16Z</time>
      </trkpt>
      <trkpt lat="49.18934" lon="-0.18512">
        <ele>29.4</ele>
        <time>2024-05-26T07:04:17Z</time>
      </trkpt>
      <trkpt lat="49.18928" lon="-0.18517">
        <ele>29.4</ele>
        <time>2024-05-26T07:04:18Z</time>
      </trkpt>
      <trkpt lat="49.18923" lon="-0.18522">
        <ele>29.6</ele>
        <time>2024-05-26T07:04:19Z</time>
      </trkpt>
      <trkpt lat="49.18918" lon="-0.18527">
        <ele>29.6</ele>
        <time>2024-05-26T07:04:20Z</time>
      </trkpt>
      <trkpt lat="49.18912" lon="-0.18532">
        <ele>29.6</ele>
        <time>2024-05-26T07:04:21Z</time>
      </trkpt>
      <trkpt lat="49.18907" lon="-0.18537">
        <ele>29.6</ele>
        <time>2024-05-26T07:04:22Z</time>
      </trkpt>
      <trkpt lat="49.18902" lon="-0.18542">
        <ele>29.6</ele>
        <time>2024-05-26T07:04:23Z</time>
      </trkpt>
      <trkpt lat="49.18896" lon="-0.18547">
        <ele>29.8</ele>
        <time>2024-05-26T07:04:24Z</time>
      </trkpt>
      <trkpt lat="49.18891" lon="-0.18552">
        <ele>29.8</ele>
        <time>2024-05-26T07:04:25Z</time>
      </trkpt>
      <trkpt lat="49.18885" lon="-0.18557">
        <ele>29.8</ele>
        <time>2024-05-26T07:04:26Z</time>
      </trkpt>
      <trkpt lat="49.1888" lon="-0.18562">
        <ele>30</ele>
        <time>2024-05-26T07:04:27Z</time>
      </trkpt>
      <trkpt lat="49.18874" lon="-0.18567">
        <ele>30</ele>
        <time>2024-05-26T07:04:28Z</time>
      </trkpt>
      <trkpt lat="49.18869" lon="-0.18572">
        <ele>30</ele>
        <time>2024-05-26T07:04:29Z</time>
      </trkpt>
      <trkpt lat="49.18863" lon="-0.18576">
        <ele>30</ele>
        <time>2024-05-26T07:04:30Z</time>
      </trkpt>
      <trkpt lat="49.18857" lon="-0.1858">
        <ele>30</ele>
        <time>2024-05-26T07:04:31Z</time>
      </trkpt>
      <trkpt lat="49.18851" lon="-0.18584">
        <ele>30.2</ele>
        <time>2024-05-26T07:04:32Z</time>
      </trkpt>
      <trkpt lat="49.18845" lon="-0.18587">
        <ele>30.2</ele>
        <time>2024-05-26T07:04:33Z</time>
      </trkpt>
      <trkpt lat="49.18839" lon="-0.18591">
        <ele>30.2</ele>
        <time>2024-05-26T07:04:34Z</time>
      </trkpt>
      <trkpt lat="49.18833" lon="-0.18594">
        <ele>30.2</ele>
        <time>2024-05-26T07:04:35Z</time>
      </trkpt>
      <trkpt lat="49.18827" lon="-0.18598">
        <ele>30.2</ele>
        <time>2024-05-26T07:04:36Z</time>
      </trkpt>
      <trkpt lat="49.18821" lon="-0.18601">
        <ele>30.2</ele>
        <time>2024-05-26T07:04:37Z</time>
      </trkpt>
      <trkpt lat="49.18815" lon="-0.18605">
        <ele>30.2</ele>
        <time>2024-05-26T07:04:38Z</time>
      </trkpt>
      <trkpt lat="49.18809" lon="-0.18609">
        <ele>30.2</ele>
        <time>2024-05-26T07:04:39Z</time>
      </trkpt>
      <trkpt lat="49.18803" lon="-0.18612">
        <ele>30.2</ele>
        <time>2024-05-26T07:04:40Z</time>
      </trkpt>
      <trkpt lat="49.18797" lon="-0.18616">
        <ele>30.2</ele>
        <time>2024-05-26T07:04:41Z</time>
      </trkpt>
      <trkpt lat="49.18791" lon="-0.1862">
        <ele>30.2</ele>
        <time>2024-05-26T07:04:42Z</time>
      </trkpt>
      <trkpt lat="49.18786" lon="-0.18624">
        <ele>30.2</ele>
        <time>2024-05-26T07:04:43Z</time>
      </trkpt>
      <trkpt lat="49.1878" lon="-0.18627">
        <ele>30.2</ele>
        <time>2024-05-26T07:04:44Z</time>
      </trkpt>
      <trkpt lat="49.18774" lon="-0.18631">
        <ele>30.2</ele>
        <time>2024-05-26T07:04:45Z</time>
      </trkpt>
      <trkpt lat="49.18768" lon="-0.18634">
        <ele>30.2</ele>
        <time>2024-05-26T07:04:46Z</time>
      </trkpt>
      <trkpt lat="49.18762" lon="-0.18638">
        <ele>30.2</ele>
        <time>2024-05-26T07:04:47Z</time>
      </trkpt>
      <trkpt lat="49.18756" lon="-0.18641">
        <ele>30.2</ele>
        <time>2024-05-26T07:04:48Z</time>
      </trkpt>
      <trkpt lat="49.18751" lon="-0.18645">
        <ele>30.2</ele>
        <time>2024-05-26T07:04:49Z</time>
      </trkpt>
      <trkpt lat="49.18745" lon="-0.18648">
        <ele>30.2</ele>
        <time>2024-05-26T07:04:50Z</time>
      </trkpt>
      <trkpt lat="49.18739" lon="-0.18652">
        <ele>30.4</ele>
        <time>2024-05-26T07:04:51Z</time>
      </trkpt>
      <trkpt lat="49.18733" lon="-0.18655">
        <ele>30.4</ele>
        <time>2024-05-26T07:04:52Z</time>
      </trkpt>
      <trkpt lat="49.18727" lon="-0.18659">
        <ele>30.4</ele>
        <time>2024-05-26T07:04:53Z</time>
      </trkpt>
      <trkpt lat="49.18722" lon="-0.18662">
        <ele>30.4</ele>
        <time>2024-05-26T07:04:54Z</time>
      </trkpt>
      <trkpt lat="49.18716" lon="-0.18665">
        <ele>30.4</ele>
        <time>2024-05-26T07:04:55Z</time>
      </trkpt>
      <trkpt lat="49.18711" lon="-0.18669">
        <ele>30.4</ele>
        <time>2024-05-26T07:04:56Z</time>
      </trkpt>
      <trkpt lat="49.18707" lon="-0.18674">
        <ele>30.4</ele>
        <time>2024-05-26T07:04:57Z</time>
      </trkpt>
      <trkpt lat="49.18703" lon="-0.18679">
        <ele>30.6</ele>
        <time>2024-05-26T07:04:58Z</time>
      </trkpt>
      <trkpt lat="49.18699" lon="-0.18684">
        <ele>30.6</ele>
        <time>2024-05-26T07:04:59Z</time>
      </trkpt>
      <trkpt lat="49.18695" lon="-0.18689">
        <ele>30.6</ele>
        <time>2024-05-26T07:05:00Z</time>
      </trkpt>
      <trkpt lat="49.1869" lon="-0.18694">
        <ele>30.6</ele>
        <time>2024-05-26T07:05:01Z</time>
      </trkpt>
      <trkpt lat="49.18685" lon="-0.187">
        <ele>30.8</ele>
        <time>2024-05-26T07:05:02Z</time>
      </trkpt>
      <trkpt lat="49.18681" lon="-0.18705">
        <ele>30.8</ele>
        <time>2024-05-26T07:05:03Z</time>
      </trkpt>
      <trkpt lat="49.18676" lon="-0.18711">
        <ele>30.8</ele>
        <time>2024-05-26T07:05:04Z</time>
      </trkpt>
      <trkpt lat="49.18671" lon="-0.18716">
        <ele>30.8</ele>
        <time>2024-05-26T07:05:05Z</time>
      </trkpt>
      <trkpt lat="49.18666" lon="-0.18722">
        <ele>31</ele>
        <time>2024-05-26T07:05:06Z</time>
      </trkpt>
      <trkpt lat="49.18661" lon="-0.18728">
        <ele>31</ele>
        <time>2024-05-26T07:05:07Z</time>
      </trkpt>
      <trkpt lat="49.18657" lon="-0.18733">
        <ele>31</ele>
        <time>2024-05-26T07:05:08Z</time>
      </trkpt>
      <trkpt lat="49.18652" lon="-0.18739">
        <ele>31</ele>
        <time>2024-05-26T07:05:09Z</time>
      </trkpt>
      <trkpt lat="49.18647" lon="-0.18744">
        <ele>31.2</ele>
        <time>2024-05-26T07:05:10Z</time>
      </trkpt>
      <trkpt lat="49.18643" lon="-0.18749">
        <ele>31.2</ele>
        <time>2024-05-26T07:05:11Z</time>
      </trkpt>
      <trkpt lat="49.18638" lon="-0.18754">
        <ele>31.2</ele>
        <time>2024-05-26T07:05:12Z</time>
      </trkpt>
      <trkpt lat="49.18633" lon="-0.1876">
        <ele>31.2</ele>
        <time>2024-05-26T07:05:13Z</time>
      </trkpt>
      <trkpt lat="49.18628" lon="-0.18766">
        <ele>31.2</ele>
        <time>2024-05-26T07:05:14Z</time>
      </trkpt>
      <trkpt lat="49.18623" lon="-0.18771">
        <ele>31.2</ele>
        <time>2024-05-26T07:05:15Z</time>
      </trkpt>
      <trkpt lat="49.18619" lon="-0.18777">
        <ele>31.2</ele>
        <time>2024-05-26T07:05:16Z</time>
      </trkpt>
      <trkpt lat="49.18614" lon="-0.18782">
        <ele>31.2</ele>
        <time>2024-05-26T07:05:17Z</time>
      </trkpt>
      <trkpt lat="49.1861" lon="-0.18787">
        <ele>31.2</ele>
        <time>2024-05-26T07:05:18Z</time>
      </trkpt>
      <trkpt lat="49.18606" lon="-0.18792">
        <ele>31.2</ele>
        <time>2024-05-26T07:05:19Z</time>
      </trkpt>
      <trkpt lat="49.18602" lon="-0.18797">
        <ele>31.2</ele>
        <time>2024-05-26T07:05:20Z</time>
      </trkpt>
      <trkpt lat="49.18598" lon="-0.18802">
        <ele>31.2</ele>
        <time>2024-05-26T07:05:21Z</time>
      </trkpt>
      <trkpt lat="49.18593" lon="-0.18807">
        <ele>31.2</ele>
        <time>2024-05-26T07:05:22Z</time>
      </trkpt>
      <trkpt lat="49.18589" lon="-0.18812">
        <ele>31.2</ele>
        <time>2024-05-26T07:05:23Z</time>
      </trkpt>
      <trkpt lat="49.18585" lon="-0.18818">
        <ele>31.2</ele>
        <time>2024-05-26T07:05:24Z</time>
      </trkpt>
      <trkpt lat="49.18581" lon="-0.18824">
        <ele>31.2</ele>
        <time>2024-05-26T07:05:25Z</time>
      </trkpt>
      <trkpt lat="49.18578" lon="-0.1883">
        <ele>31.2</ele>
        <time>2024-05-26T07:05:26Z</time>
      </trkpt>
      <trkpt lat="49.18575" lon="-0.18836">
        <ele>31.2</ele>
        <time>2024-05-26T07:05:27Z</time>
      </trkpt>
      <trkpt lat="49.18572" lon="-0.18842">
        <ele>31.4</ele>
        <time>2024-05-26T07:05:28Z</time>
      </trkpt>
      <trkpt lat="49.18569" lon="-0.18848">
        <ele>31.4</ele>
        <time>2024-05-26T07:05:29Z</time>
      </trkpt>
      <trkpt lat="49.18567" lon="-0.18852">
        <ele>31.4</ele>
        <time>2024-05-26T07:05:30Z</time>
      </trkpt>
      <trkpt lat="49.18564" lon="-0.18855">
        <ele>31.4</ele>
        <time>2024-05-26T07:05:31Z</time>
      </trkpt>
      <trkpt lat="49.1856" lon="-0.18856">
        <ele>31.4</ele>
        <time>2024-05-26T07:05:32Z</time>
      </trkpt>
      <trkpt lat="49.18556" lon="-0.18855">
        <ele>31.4</ele>
        <time>2024-05-26T07:05:33Z</time>
      </trkpt>
      <trkpt lat="49.18551" lon="-0.18853">
        <ele>31.6</ele>
        <time>2024-05-26T07:05:34Z</time>
      </trkpt>
      <trkpt lat="49.18547" lon="-0.1885">
        <ele>31.6</ele>
        <time>2024-05-26T07:05:35Z</time>
      </trkpt>
      <trkpt lat="49.18542" lon="-0.18848">
        <ele>31.6</ele>
        <time>2024-05-26T07:05:36Z</time>
      </trkpt>
      <trkpt lat="49.18537" lon="-0.18846">
        <ele>31.8</ele>
        <time>2024-05-26T07:05:37Z</time>
      </trkpt>
      <trkpt lat="49.18532" lon="-0.18845">
        <ele>32</ele>
        <time>2024-05-26T07:05:38Z</time>
      </trkpt>
      <trkpt lat="49.18527" lon="-0.18844">
        <ele>32</ele>
        <time>2024-05-26T07:05:39Z</time>
      </trkpt>
      <trkpt lat="49.18522" lon="-0.18842">
        <ele>32</ele>
        <time>2024-05-26T07:05:40Z</time>
      </trkpt>
      <trkpt lat="49.18517" lon="-0.18841">
        <ele>32</ele>
        <time>2024-05-26T07:05:41Z</time>
      </trkpt>
      <trkpt lat="49.18512" lon="-0.1884">
        <ele>32.2</ele>
        <time>2024-05-26T07:05:42Z</time>
      </trkpt>
      <trkpt lat="49.18507" lon="-0.18839">
        <ele>32.2</ele>
        <time>2024-05-26T07:05:43Z</time>
      </trkpt>
      <trkpt lat="49.18502" lon="-0.18838">
        <ele>32.2</ele>
        <time>2024-05-26T07:05:44Z</time>
      </trkpt>
      <trkpt lat="49.18497" lon="-0.18837">
        <ele>32.2</ele>
        <time>2024-05-26T07:05:45Z</time>
      </trkpt>
      <trkpt lat="49.18491" lon="-0.18836">
        <ele>32.2</ele>
        <time>2024-05-26T07:05:46Z</time>
      </trkpt>
      <trkpt lat="49.18486" lon="-0.18835">
        <ele>32.2</ele>
        <time>2024-05-26T07:05:47Z</time>
      </trkpt>
      <trkpt lat="49.18481" lon="-0.18835">
        <ele>32.2</ele>
        <time>2024-05-26T07:05:48Z</time>
      </trkpt>
      <trkpt lat="49.18476" lon="-0.18835">
        <ele>32.2</ele>
        <time>2024-05-26T07:05:49Z</time>
      </trkpt>
      <trkpt lat="49.18471" lon="-0.18834">
        <ele>32.2</ele>
        <time>2024-05-26T07:05:50Z</time>
      </trkpt>
      <trkpt lat="49.18466" lon="-0.18834">
        <ele>32.2</ele>
        <time>2024-05-26T07:05:51Z</time>
      </trkpt>
      <trkpt lat="49.18461" lon="-0.18834">
        <ele>32</ele>
        <time>2024-05-26T07:05:52Z</time>
      </trkpt>
      <trkpt lat="49.18455" lon="-0.18833">
        <ele>32</ele>
        <time>2024-05-26T07:05:53Z</time>
      </trkpt>
      <trkpt lat="49.1845" lon="-0.18833">
        <ele>32</ele>
        <time>2024-05-26T07:05:54Z</time>
      </trkpt>
      <trkpt lat="49.18445" lon="-0.18833">
        <ele>32</ele>
        <time>2024-05-26T07:05:55Z</time>
      </trkpt>
      <trkpt lat="49.1844" lon="-0.18832">
        <ele>32</ele>
        <time>2024-05-26T07:05:56Z</time>
      </trkpt>
      <trkpt lat="49.18435" lon="-0.1883">
        <ele>32</ele>
        <time>2024-05-26T07:05:57Z</time>
      </trkpt>
      <trkpt lat="49.18429" lon="-0.18828">
        <ele>32</ele>
        <time>2024-05-26T07:05:58Z</time>
      </trkpt>
      <trkpt lat="49.18424" lon="-0.18826">
        <ele>32</ele>
        <time>2024-05-26T07:05:59Z</time>
      </trkpt>
      <trkpt lat="49.18419" lon="-0.18824">
        <ele>32</ele>
        <time>2024-05-26T07:06:00Z</time>
      </trkpt>
      <trkpt lat="49.18413" lon="-0.18822">
        <ele>32</ele>
        <time>2024-05-26T07:06:01Z</time>
      </trkpt>
      <trkpt lat="49.18408" lon="-0.1882">
        <ele>32</ele>
        <time>2024-05-26T07:06:02Z</time>
      </trkpt>
      <trkpt lat="49.18402" lon="-0.18818">
        <ele>32</ele>
        <time>2024-05-26T07:06:03Z</time>
      </trkpt>
      <trkpt lat="49.18397" lon="-0.18817">
        <ele>32.2</ele>
        <time>2024-05-26T07:06:04Z</time>
      </trkpt>
      <trkpt lat="49.18391" lon="-0.18815">
        <ele>32.2</ele>
        <time>2024-05-26T07:06:05Z</time>
      </trkpt>
      <trkpt lat="49.18385" lon="-0.18813">
        <ele>32.2</ele>
        <time>2024-05-26T07:06:06Z</time>
      </trkpt>
      <trkpt lat="49.18379" lon="-0.18811">
        <ele>32.2</ele>
        <time>2024-05-26T07:06:07Z</time>
      </trkpt>
      <trkpt lat="49.18374" lon="-0.18809">
        <ele>32.2</ele>
        <time>2024-05-26T07:06:08Z</time>
      </trkpt>
      <trkpt lat="49.18369" lon="-0.18807">
        <ele>32</ele>
        <time>2024-05-26T07:06:09Z</time>
      </trkpt>
      <trkpt lat="49.18364" lon="-0.18805">
        <ele>32</ele>
        <time>2024-05-26T07:06:10Z</time>
      </trkpt>
      <trkpt lat="49.18359" lon="-0.18803">
        <ele>32</ele>
        <time>2024-05-26T07:06:11Z</time>
      </trkpt>
      <trkpt lat="49.18354" lon="-0.18802">
        <ele>32</ele>
        <time>2024-05-26T07:06:12Z</time>
      </trkpt>
      <trkpt lat="49.1835" lon="-0.188">
        <ele>32</ele>
        <time>2024-05-26T07:06:13Z</time>
      </trkpt>
      <trkpt lat="49.18345" lon="-0.18798">
        <ele>32</ele>
        <time>2024-05-26T07:06:14Z</time>
      </trkpt>
      <trkpt lat="49.18341" lon="-0.18796">
        <ele>32</ele>
        <time>2024-05-26T07:06:15Z</time>
      </trkpt>
      <trkpt lat="49.18337" lon="-0.18795">
        <ele>32</ele>
        <time>2024-05-26T07:06:16Z</time>
      </trkpt>
      <trkpt lat="49.18333" lon="-0.18794">
        <ele>32</ele>
        <time>2024-05-26T07:06:17Z</time>
      </trkpt>
      <trkpt lat="49.18328" lon="-0.18792">
        <ele>32</ele>
        <time>2024-05-26T07:06:18Z</time>
      </trkpt>
      <trkpt lat="49.18324" lon="-0.18791">
        <ele>32</ele>
        <time>2024-05-26T07:06:19Z</time>
      </trkpt>
      <trkpt lat="49.18319" lon="-0.18789">
        <ele>32</ele>
        <time>2024-05-26T07:06:20Z</time>
      </trkpt>
      <trkpt lat="49.18314" lon="-0.18787">
        <ele>32</ele>
        <time>2024-05-26T07:06:21Z</time>
      </trkpt>
      <trkpt lat="49.18309" lon="-0.18785">
        <ele>32</ele>
        <time>2024-05-26T07:06:22Z</time>
      </trkpt>
      <trkpt lat="49.18305" lon="-0.18783">
        <ele>32</ele>
        <time>2024-05-26T07:06:23Z</time>
      </trkpt>
      <trkpt lat="49.183" lon="-0.18781">
        <ele>32.2</ele>
        <time>2024-05-26T07:06:24Z</time>
      </trkpt>
      <trkpt lat="49.18295" lon="-0.18779">
        <ele>32.2</ele>
        <time>2024-05-26T07:06:25Z</time>
      </trkpt>
      <trkpt lat="49.18289" lon="-0.18777">
        <ele>32.2</ele>
        <time>2024-05-26T07:06:26Z</time>
      </trkpt>
      <trkpt lat="49.18284" lon="-0.18776">
        <ele>32.2</ele>
        <time>2024-05-26T07:06:27Z</time>
      </trkpt>
      <trkpt lat="49.18279" lon="-0.18774">
        <ele>32.2</ele>
        <time>2024-05-26T07:06:28Z</time>
      </trkpt>
      <trkpt lat="49.18274" lon="-0.18773">
        <ele>32.2</ele>
        <time>2024-05-26T07:06:29Z</time>
      </trkpt>
      <trkpt lat="49.18269" lon="-0.18773">
        <ele>32.2</ele>
        <time>2024-05-26T07:06:30Z</time>
      </trkpt>
      <trkpt lat="49.18263" lon="-0.18773">
        <ele>32.2</ele>
        <time>2024-05-26T07:06:31Z</time>
      </trkpt>
      <trkpt lat="49.18258" lon="-0.18772">
        <ele>32.2</ele>
        <time>2024-05-26T07:06:32Z</time>
      </trkpt>
      <trkpt lat="49.18253" lon="-0.1877">
        <ele>32.2</ele>
        <time>2024-05-26T07:06:33Z</time>
      </trkpt>
      <trkpt lat="49.18248" lon="-0.18766">
        <ele>32.2</ele>
        <time>2024-05-26T07:06:34Z</time>
      </trkpt>
      <trkpt lat="49.18243" lon="-0.18762">
        <ele>32.2</ele>
        <time>2024-05-26T07:06:35Z</time>
      </trkpt>
      <trkpt lat="49.18238" lon="-0.18758">
        <ele>32.2</ele>
        <time>2024-05-26T07:06:36Z</time>
      </trkpt>
      <trkpt lat="49.18232" lon="-0.18755">
        <ele>32.2</ele>
        <time>2024-05-26T07:06:37Z</time>
      </trkpt>
      <trkpt lat="49.18228" lon="-0.18752">
        <ele>32.2</ele>
        <time>2024-05-26T07:06:38Z</time>
      </trkpt>
      <trkpt lat="49.18224" lon="-0.18749">
        <ele>32.2</ele>
        <time>2024-05-26T07:06:39Z</time>
      </trkpt>
      <trkpt lat="49.1822" lon="-0.18747">
        <ele>32.2</ele>
        <time>2024-05-26T07:06:40Z</time>
      </trkpt>
      <trkpt lat="49.18216" lon="-0.18744">
        <ele>32.2</ele>
        <time>2024-05-26T07:06:41Z</time>
      </trkpt>
      <trkpt lat="49.18213" lon="-0.18742">
        <ele>32.2</ele>
        <time>2024-05-26T07:06:42Z</time>
      </trkpt>
      <trkpt lat="49.1821" lon="-0.1874">
        <ele>32.2</ele>
        <time>2024-05-26T07:06:43Z</time>
      </trkpt>
      <trkpt lat="49.18207" lon="-0.18738">
        <ele>32.2</ele>
        <time>2024-05-26T07:06:44Z</time>
      </trkpt>
      <trkpt lat="49.18204" lon="-0.18736">
        <ele>32.2</ele>
        <time>2024-05-26T07:06:45Z</time>
      </trkpt>
      <trkpt lat="49.18201" lon="-0.18734">
        <ele>32</ele>
        <time>2024-05-26T07:06:46Z</time>
      </trkpt>
      <trkpt lat="49.18198" lon="-0.18731">
        <ele>32</ele>
        <time>2024-05-26T07:06:47Z</time>
      </trkpt>
      <trkpt lat="49.18195" lon="-0.18729">
        <ele>32</ele>
        <time>2024-05-26T07:06:48Z</time>
      </trkpt>
      <trkpt lat="49.18192" lon="-0.18727">
        <ele>32</ele>
        <time>2024-05-26T07:06:49Z</time>
      </trkpt>
      <trkpt lat="49.18189" lon="-0.18725">
        <ele>32</ele>
        <time>2024-05-26T07:06:50Z</time>
      </trkpt>
      <trkpt lat="49.18186" lon="-0.18723">
        <ele>32</ele>
        <time>2024-05-26T07:06:51Z</time>
      </trkpt>
      <trkpt lat="49.18183" lon="-0.1872">
        <ele>32</ele>
        <time>2024-05-26T07:06:52Z</time>
      </trkpt>
      <trkpt lat="49.18181" lon="-0.18718">
        <ele>32</ele>
        <time>2024-05-26T07:06:53Z</time>
      </trkpt>
      <trkpt lat="49.18179" lon="-0.18718">
        <ele>32</ele>
        <time>2024-05-26T07:06:54Z</time>
      </trkpt>
      <trkpt lat="49.18178" lon="-0.18717">
        <ele>32</ele>
        <time>2024-05-26T07:06:55Z</time>
      </trkpt>
      <trkpt lat="49.18177" lon="-0.18717">
        <ele>32</ele>
        <time>2024-05-26T07:06:56Z</time>
      </trkpt>
      <trkpt lat="49.18177" lon="-0.18717">
        <ele>32</ele>
        <time>2024-05-26T07:06:57Z</time>
      </trkpt>
      <trkpt lat="49.18172" lon="-0.18715">
        <ele>32.2</ele>
        <time>2024-05-26T07:07:03Z</time>
      </trkpt>
      <trkpt lat="49.1817" lon="-0.18713">
        <ele>32.2</ele>
        <time>2024-05-26T07:07:04Z</time>
      </trkpt>
      <trkpt lat="49.18168" lon="-0.18711">
        <ele>32.2</ele>
        <time>2024-05-26T07:07:05Z</time>
      </trkpt>
      <trkpt lat="49.18165" lon="-0.18709">
        <ele>32.2</ele>
        <time>2024-05-26T07:07:06Z</time>
      </trkpt>
      <trkpt lat="49.18162" lon="-0.18707">
        <ele>32.2</ele>
        <time>2024-05-26T07:07:07Z</time>
      </trkpt>
      <trkpt lat="49.18159" lon="-0.18705">
        <ele>32.2</ele>
        <time>2024-05-26T07:07:08Z</time>
      </trkpt>
      <trkpt lat="49.18155" lon="-0.18703">
        <ele>32.2</ele>
        <time>2024-05-26T07:07:09Z</time>
      </trkpt>
      <trkpt lat="49.18151" lon="-0.187">
        <ele>32.2</ele>
        <time>2024-05-26T07:07:10Z</time>
      </trkpt>
      <trkpt lat="49.18146" lon="-0.18697">
        <ele>32.2</ele>
        <time>2024-05-26T07:07:11Z</time>
      </trkpt>
      <trkpt lat="49.18141" lon="-0.18693">
        <ele>32.2</ele>
        <time>2024-05-26T07:07:12Z</time>
      </trkpt>
      <trkpt lat="49.18136" lon="-0.1869">
        <ele>32.2</ele>
        <time>2024-05-26T07:07:13Z</time>
      </trkpt>
      <trkpt lat="49.18131" lon="-0.18686">
        <ele>32.2</ele>
        <time>2024-05-26T07:07:14Z</time>
      </trkpt>
      <trkpt lat="49.18125" lon="-0.18682">
        <ele>32.2</ele>
        <time>2024-05-26T07:07:15Z</time>
      </trkpt>
      <trkpt lat="49.18118" lon="-0.18679">
        <ele>32.2</ele>
        <time>2024-05-26T07:07:16Z</time>
      </trkpt>
      <trkpt lat="49.18112" lon="-0.18676">
        <ele>32</ele>
        <time>2024-05-26T07:07:17Z</time>
      </trkpt>
      <trkpt lat="49.18105" lon="-0.18673">
        <ele>31.6</ele>
        <time>2024-05-26T07:07:18Z</time>
      </trkpt>
      <trkpt lat="49.18098" lon="-0.1867">
        <ele>31.4</ele>
        <time>2024-05-26T07:07:19Z</time>
      </trkpt>
      <trkpt lat="49.18091" lon="-0.18667">
        <ele>31.4</ele>
        <time>2024-05-26T07:07:20Z</time>
      </trkpt>
      <trkpt lat="49.18084" lon="-0.18664">
        <ele>31.4</ele>
        <time>2024-05-26T07:07:21Z</time>
      </trkpt>
      <trkpt lat="49.18077" lon="-0.18662">
        <ele>31.2</ele>
        <time>2024-05-26T07:07:22Z</time>
      </trkpt>
      <trkpt lat="49.1807" lon="-0.18659">
        <ele>31.2</ele>
        <time>2024-05-26T07:07:23Z</time>
      </trkpt>
      <trkpt lat="49.18063" lon="-0.18656">
        <ele>31.2</ele>
        <time>2024-05-26T07:07:24Z</time>
      </trkpt>
      <trkpt lat="49.18056" lon="-0.18654">
        <ele>31.2</ele>
        <time>2024-05-26T07:07:25Z</time>
      </trkpt>
      <trkpt lat="49.1805" lon="-0.18652">
        <ele>31.2</ele>
        <time>2024-05-26T07:07:26Z</time>
      </trkpt>
      <trkpt lat="49.18043" lon="-0.1865">
        <ele>31</ele>
        <time>2024-05-26T07:07:27Z</time>
      </trkpt>
      <trkpt lat="49.18037" lon="-0.18648">
        <ele>31</ele>
        <time>2024-05-26T07:07:28Z</time>
      </trkpt>
      <trkpt lat="49.18031" lon="-0.18647">
        <ele>31</ele>
        <time>2024-05-26T07:07:29Z</time>
      </trkpt>
      <trkpt lat="49.18025" lon="-0.18646">
        <ele>31</ele>
        <time>2024-05-26T07:07:30Z</time>
      </trkpt>
      <trkpt lat="49.18019" lon="-0.18645">
        <ele>31</ele>
        <time>2024-05-26T07:07:31Z</time>
      </trkpt>
      <trkpt lat="49.18013" lon="-0.18643">
        <ele>31</ele>
        <time>2024-05-26T07:07:32Z</time>
      </trkpt>
      <trkpt lat="49.18006" lon="-0.18642">
        <ele>31</ele>
        <time>2024-05-26T07:07:33Z</time>
      </trkpt>
      <trkpt lat="49.18" lon="-0.18641">
        <ele>31</ele>
        <time>2024-05-26T07:07:34Z</time>
      </trkpt>
      <trkpt lat="49.17994" lon="-0.1864">
        <ele>31</ele>
        <time>2024-05-26T07:07:35Z</time>
      </trkpt>
      <trkpt lat="49.17987" lon="-0.18639">
        <ele>31</ele>
        <time>2024-05-26T07:07:36Z</time>
      </trkpt>
      <trkpt lat="49.17981" lon="-0.18639">
        <ele>31</ele>
        <time>2024-05-26T07:07:37Z</time>
      </trkpt>
      <trkpt lat="49.17976" lon="-0.18642">
        <ele>31.2</ele>
        <time>2024-05-26T07:07:38Z</time>
      </trkpt>
      <trkpt lat="49.17971" lon="-0.18648">
        <ele>31.4</ele>
        <time>2024-05-26T07:07:39Z</time>
      </trkpt>
      <trkpt lat="49.17968" lon="-0.18656">
        <ele>31.6</ele>
        <time>2024-05-26T07:07:40Z</time>
      </trkpt>
      <trkpt lat="49.17965" lon="-0.18666">
        <ele>31.6</ele>
        <time>2024-05-26T07:07:41Z</time>
      </trkpt>
      <trkpt lat="49.17964" lon="-0.18676">
        <ele>31.8</ele>
        <time>2024-05-26T07:07:42Z</time>
      </trkpt>
      <trkpt lat="49.17964" lon="-0.18686">
        <ele>32</ele>
        <time>2024-05-26T07:07:43Z</time>
      </trkpt>
      <trkpt lat="49.17964" lon="-0.18696">
        <ele>32</ele>
        <time>2024-05-26T07:07:44Z</time>
      </trkpt>
      <trkpt lat="49.17964" lon="-0.18706">
        <ele>32</ele>
        <time>2024-05-26T07:07:45Z</time>
      </trkpt>
      <trkpt lat="49.17963" lon="-0.18717">
        <ele>32</ele>
        <time>2024-05-26T07:07:46Z</time>
      </trkpt>
      <trkpt lat="49.17963" lon="-0.18727">
        <ele>32.2</ele>
        <time>2024-05-26T07:07:47Z</time>
      </trkpt>
      <trkpt lat="49.17963" lon="-0.18737">
        <ele>32.2</ele>
        <time>2024-05-26T07:07:48Z</time>
      </trkpt>
      <trkpt lat="49.17962" lon="-0.18747">
        <ele>32.2</ele>
        <time>2024-05-26T07:07:49Z</time>
      </trkpt>
      <trkpt lat="49.17962" lon="-0.18758">
        <ele>32.2</ele>
        <time>2024-05-26T07:07:50Z</time>
      </trkpt>
      <trkpt lat="49.17961" lon="-0.18768">
        <ele>32.4</ele>
        <time>2024-05-26T07:07:51Z</time>
      </trkpt>
      <trkpt lat="49.1796" lon="-0.18778">
        <ele>32.4</ele>
        <time>2024-05-26T07:07:52Z</time>
      </trkpt>
      <trkpt lat="49.1796" lon="-0.18788">
        <ele>32.4</ele>
        <time>2024-05-26T07:07:53Z</time>
      </trkpt>
      <trkpt lat="49.17959" lon="-0.18798">
        <ele>32.4</ele>
        <time>2024-05-26T07:07:54Z</time>
      </trkpt>
      <trkpt lat="49.17959" lon="-0.18807">
        <ele>32.4</ele>
        <time>2024-05-26T07:07:55Z</time>
      </trkpt>
      <trkpt lat="49.17959" lon="-0.18816">
        <ele>32.6</ele>
        <time>2024-05-26T07:07:56Z</time>
      </trkpt>
      <trkpt lat="49.17959" lon="-0.18825">
        <ele>32.6</ele>
        <time>2024-05-26T07:07:57Z</time>
      </trkpt>
      <trkpt lat="49.17959" lon="-0.18834">
        <ele>32.6</ele>
        <time>2024-05-26T07:07:58Z</time>
      </trkpt>
      <trkpt lat="49.17959" lon="-0.18843">
        <ele>32.6</ele>
        <time>2024-05-26T07:07:59Z</time>
      </trkpt>
      <trkpt lat="49.17958" lon="-0.18851">
        <ele>32.6</ele>
        <time>2024-05-26T07:08:00Z</time>
      </trkpt>
      <trkpt lat="49.17957" lon="-0.18859">
        <ele>32.8</ele>
        <time>2024-05-26T07:08:01Z</time>
      </trkpt>
      <trkpt lat="49.17953" lon="-0.18867">
        <ele>32.8</ele>
        <time>2024-05-26T07:08:02Z</time>
      </trkpt>
      <trkpt lat="49.17949" lon="-0.18874">
        <ele>32.8</ele>
        <time>2024-05-26T07:08:03Z</time>
      </trkpt>
      <trkpt lat="49.17945" lon="-0.1888">
        <ele>32.8</ele>
        <time>2024-05-26T07:08:04Z</time>
      </trkpt>
      <trkpt lat="49.1794" lon="-0.18886">
        <ele>32.8</ele>
        <time>2024-05-26T07:08:05Z</time>
      </trkpt>
      <trkpt lat="49.17935" lon="-0.18893">
        <ele>32.8</ele>
        <time>2024-05-26T07:08:06Z</time>
      </trkpt>
      <trkpt lat="49.1793" lon="-0.189">
        <ele>32.8</ele>
        <time>2024-05-26T07:08:07Z</time>
      </trkpt>
      <trkpt lat="49.17924" lon="-0.18907">
        <ele>32.6</ele>
        <time>2024-05-26T07:08:08Z</time>
      </trkpt>
      <trkpt lat="49.17919" lon="-0.18915">
        <ele>32.8</ele>
        <time>2024-05-26T07:08:09Z</time>
      </trkpt>
      <trkpt lat="49.17914" lon="-0.18922">
        <ele>32.6</ele>
        <time>2024-05-26T07:08:10Z</time>
      </trkpt>
      <trkpt lat="49.17908" lon="-0.1893">
        <ele>32.6</ele>
        <time>2024-05-26T07:08:11Z</time>
      </trkpt>
      <trkpt lat="49.17902" lon="-0.18937">
        <ele>32.6</ele>
        <time>2024-05-26T07:08:12Z</time>
      </trkpt>
      <trkpt lat="49.17897" lon="-0.18944">
        <ele>32.6</ele>
        <time>2024-05-26T07:08:13Z</time>
      </trkpt>
      <trkpt lat="49.17891" lon="-0.18951">
        <ele>32.6</ele>
        <time>2024-05-26T07:08:14Z</time>
      </trkpt>
      <trkpt lat="49.17885" lon="-0.18958">
        <ele>32.6</ele>
        <time>2024-05-26T07:08:15Z</time>
      </trkpt>
      <trkpt lat="49.17879" lon="-0.18964">
        <ele>32.6</ele>
        <time>2024-05-26T07:08:16Z</time>
      </trkpt>
      <trkpt lat="49.17874" lon="-0.18969">
        <ele>32.4</ele>
        <time>2024-05-26T07:08:17Z</time>
      </trkpt>
      <trkpt lat="49.17868" lon="-0.18975">
        <ele>32.4</ele>
        <time>2024-05-26T07:08:18Z</time>
      </trkpt>
      <trkpt lat="49.17863" lon="-0.18981">
        <ele>32.4</ele>
        <time>2024-05-26T07:08:19Z</time>
      </trkpt>
      <trkpt lat="49.17857" lon="-0.18987">
        <ele>32.4</ele>
        <time>2024-05-26T07:08:20Z</time>
      </trkpt>
      <trkpt lat="49.17852" lon="-0.18992">
        <ele>32.4</ele>
        <time>2024-05-26T07:08:21Z</time>
      </trkpt>
      <trkpt lat="49.17847" lon="-0.18998">
        <ele>32.4</ele>
        <time>2024-05-26T07:08:22Z</time>
      </trkpt>
      <trkpt lat="49.17842" lon="-0.19004">
        <ele>32.4</ele>
        <time>2024-05-26T07:08:23Z</time>
      </trkpt>
      <trkpt lat="49.17837" lon="-0.19011">
        <ele>32.4</ele>
        <time>2024-05-26T07:08:24Z</time>
      </trkpt>
      <trkpt lat="49.17831" lon="-0.19017">
        <ele>32.4</ele>
        <time>2024-05-26T07:08:25Z</time>
      </trkpt>
      <trkpt lat="49.17826" lon="-0.19023">
        <ele>32.4</ele>
        <time>2024-05-26T07:08:26Z</time>
      </trkpt>
      <trkpt lat="49.1782" lon="-0.19029">
        <ele>32.4</ele>
        <time>2024-05-26T07:08:27Z</time>
      </trkpt>
      <trkpt lat="49.17815" lon="-0.19035">
        <ele>32.4</ele>
        <time>2024-05-26T07:08:28Z</time>
      </trkpt>
      <trkpt lat="49.17809" lon="-0.19041">
        <ele>32.4</ele>
        <time>2024-05-26T07:08:29Z</time>
      </trkpt>
      <trkpt lat="49.17804" lon="-0.19048">
        <ele>32.4</ele>
        <time>2024-05-26T07:08:30Z</time>
      </trkpt>
      <trkpt lat="49.17798" lon="-0.19054">
        <ele>32.4</ele>
        <time>2024-05-26T07:08:31Z</time>
      </trkpt>
      <trkpt lat="49.17793" lon="-0.19061">
        <ele>32.4</ele>
        <time>2024-05-26T07:08:32Z</time>
      </trkpt>
      <trkpt lat="49.17789" lon="-0.19067">
        <ele>32.6</ele>
        <time>2024-05-26T07:08:33Z</time>
      </trkpt>
      <trkpt lat="49.17784" lon="-0.19074">
        <ele>32.6</ele>
        <time>2024-05-26T07:08:34Z</time>
      </trkpt>
      <trkpt lat="49.1778" lon="-0.19082">
        <ele>32.6</ele>
        <time>2024-05-26T07:08:35Z</time>
      </trkpt>
      <trkpt lat="49.17775" lon="-0.19089">
        <ele>32.6</ele>
        <time>2024-05-26T07:08:36Z</time>
      </trkpt>
      <trkpt lat="49.17771" lon="-0.19097">
        <ele>32.6</ele>
        <time>2024-05-26T07:08:37Z</time>
      </trkpt>
      <trkpt lat="49.17766" lon="-0.19104">
        <ele>32.6</ele>
        <time>2024-05-26T07:08:38Z</time>
      </trkpt>
      <trkpt lat="49.17762" lon="-0.19111">
        <ele>32.6</ele>
        <time>2024-05-26T07:08:39Z</time>
      </trkpt>
      <trkpt lat="49.17757" lon="-0.19119">
        <ele>32.6</ele>
        <time>2024-05-26T07:08:40Z</time>
      </trkpt>
      <trkpt lat="49.17753" lon="-0.19127">
        <ele>32.6</ele>
        <time>2024-05-26T07:08:41Z</time>
      </trkpt>
      <trkpt lat="49.17748" lon="-0.19135">
        <ele>32.6</ele>
        <time>2024-05-26T07:08:42Z</time>
      </trkpt>
      <trkpt lat="49.17744" lon="-0.19143">
        <ele>32.6</ele>
        <time>2024-05-26T07:08:43Z</time>
      </trkpt>
      <trkpt lat="49.1774" lon="-0.19151">
        <ele>32.6</ele>
        <time>2024-05-26T07:08:44Z</time>
      </trkpt>
      <trkpt lat="49.17735" lon="-0.19159">
        <ele>32.6</ele>
        <time>2024-05-26T07:08:45Z</time>
      </trkpt>
      <trkpt lat="49.17731" lon="-0.19166">
        <ele>32.6</ele>
        <time>2024-05-26T07:08:46Z</time>
      </trkpt>
      <trkpt lat="49.17727" lon="-0.19175">
        <ele>32.6</ele>
        <time>2024-05-26T07:08:47Z</time>
      </trkpt>
      <trkpt lat="49.17723" lon="-0.19183">
        <ele>32.6</ele>
        <time>2024-05-26T07:08:48Z</time>
      </trkpt>
      <trkpt lat="49.17719" lon="-0.19191">
        <ele>32.6</ele>
        <time>2024-05-26T07:08:49Z</time>
      </trkpt>
      <trkpt lat="49.17714" lon="-0.192">
        <ele>32.6</ele>
        <time>2024-05-26T07:08:50Z</time>
      </trkpt>
      <trkpt lat="49.1771" lon="-0.19208">
        <ele>32.6</ele>
        <time>2024-05-26T07:08:51Z</time>
      </trkpt>
      <trkpt lat="49.17706" lon="-0.19216">
        <ele>32.6</ele>
        <time>2024-05-26T07:08:52Z</time>
      </trkpt>
      <trkpt lat="49.17702" lon="-0.19225">
        <ele>32.6</ele>
        <time>2024-05-26T07:08:53Z</time>
      </trkpt>
      <trkpt lat="49.17698" lon="-0.19234">
        <ele>32.6</ele>
        <time>2024-05-26T07:08:54Z</time>
      </trkpt>
      <trkpt lat="49.17694" lon="-0.19243">
        <ele>32.4</ele>
        <time>2024-05-26T07:08:55Z</time>
      </trkpt>
      <trkpt lat="49.1769" lon="-0.19252">
        <ele>32.4</ele>
        <time>2024-05-26T07:08:56Z</time>
      </trkpt>
      <trkpt lat="49.17686" lon="-0.19261">
        <ele>32.4</ele>
        <time>2024-05-26T07:08:57Z</time>
      </trkpt>
      <trkpt lat="49.17682" lon="-0.1927">
        <ele>32.4</ele>
        <time>2024-05-26T07:08:58Z</time>
      </trkpt>
      <trkpt lat="49.17678" lon="-0.1928">
        <ele>32.2</ele>
        <time>2024-05-26T07:08:59Z</time>
      </trkpt>
      <trkpt lat="49.17675" lon="-0.19289">
        <ele>32.2</ele>
        <time>2024-05-26T07:09:00Z</time>
      </trkpt>
      <trkpt lat="49.17671" lon="-0.19298">
        <ele>32.2</ele>
        <time>2024-05-26T07:09:01Z</time>
      </trkpt>
      <trkpt lat="49.17668" lon="-0.19308">
        <ele>32.2</ele>
        <time>2024-05-26T07:09:02Z</time>
      </trkpt>
      <trkpt lat="49.17664" lon="-0.19317">
        <ele>32.2</ele>
        <time>2024-05-26T07:09:03Z</time>
      </trkpt>
      <trkpt lat="49.17661" lon="-0.19327">
        <ele>32.2</ele>
        <time>2024-05-26T07:09:04Z</time>
      </trkpt>
      <trkpt lat="49.17657" lon="-0.19337">
        <ele>32.2</ele>
        <time>2024-05-26T07:09:05Z</time>
      </trkpt>
      <trkpt lat="49.17654" lon="-0.19347">
        <ele>32.2</ele>
        <time>2024-05-26T07:09:06Z</time>
      </trkpt>
      <trkpt lat="49.17651" lon="-0.19358">
        <ele>32.2</ele>
        <time>2024-05-26T07:09:07Z</time>
      </trkpt>
      <trkpt lat="49.17647" lon="-0.19369">
        <ele>32.2</ele>
        <time>2024-05-26T07:09:08Z</time>
      </trkpt>
      <trkpt lat="49.17644" lon="-0.1938">
        <ele>32</ele>
        <time>2024-05-26T07:09:09Z</time>
      </trkpt>
      <trkpt lat="49.17642" lon="-0.19391">
        <ele>32</ele>
        <time>2024-05-26T07:09:10Z</time>
      </trkpt>
      <trkpt lat="49.17639" lon="-0.19402">
        <ele>32</ele>
        <time>2024-05-26T07:09:11Z</time>
      </trkpt>
      <trkpt lat="49.17637" lon="-0.19414">
        <ele>31.8</ele>
        <time>2024-05-26T07:09:12Z</time>
      </trkpt>
      <trkpt lat="49.17634" lon="-0.19428">
        <ele>31.8</ele>
        <time>2024-05-26T07:09:13Z</time>
      </trkpt>
      <trkpt lat="49.17631" lon="-0.19441">
        <ele>31.2</ele>
        <time>2024-05-26T07:09:14Z</time>
      </trkpt>
      <trkpt lat="49.17628" lon="-0.19455">
        <ele>31</ele>
        <time>2024-05-26T07:09:15Z</time>
      </trkpt>
      <trkpt lat="49.17624" lon="-0.19469">
        <ele>30.4</ele>
        <time>2024-05-26T07:09:16Z</time>
      </trkpt>
      <trkpt lat="49.17621" lon="-0.19483">
        <ele>30</ele>
        <time>2024-05-26T07:09:17Z</time>
      </trkpt>
      <trkpt lat="49.17618" lon="-0.19497">
        <ele>29.8</ele>
        <time>2024-05-26T07:09:18Z</time>
      </trkpt>
      <trkpt lat="49.17615" lon="-0.19512">
        <ele>29.6</ele>
        <time>2024-05-26T07:09:19Z</time>
      </trkpt>
      <trkpt lat="49.17611" lon="-0.19527">
        <ele>28.2</ele>
        <time>2024-05-26T07:09:20Z</time>
      </trkpt>
      <trkpt lat="49.17607" lon="-0.19543">
        <ele>27.4</ele>
        <time>2024-05-26T07:09:21Z</time>
      </trkpt>
      <trkpt lat="49.17603" lon="-0.19559">
        <ele>26</ele>
        <time>2024-05-26T07:09:22Z</time>
      </trkpt>
      <trkpt lat="49.17599" lon="-0.19574">
        <ele>24.8</ele>
        <time>2024-05-26T07:09:23Z</time>
      </trkpt>
      <trkpt lat="49.17595" lon="-0.19589">
        <ele>24.2</ele>
        <time>2024-05-26T07:09:24Z</time>
      </trkpt>
      <trkpt lat="49.1759" lon="-0.19604">
        <ele>23.4</ele>
        <time>2024-05-26T07:09:25Z</time>
      </trkpt>
      <trkpt lat="49.17586" lon="-0.19618">
        <ele>22.2</ele>
        <time>2024-05-26T07:09:26Z</time>
      </trkpt>
      <trkpt lat="49.17581" lon="-0.19633">
        <ele>21.4</ele>
        <time>2024-05-26T07:09:27Z</time>
      </trkpt>
      <trkpt lat="49.17575" lon="-0.19648">
        <ele>20.2</ele>
        <time>2024-05-26T07:09:28Z</time>
      </trkpt>
      <trkpt lat="49.1757" lon="-0.19663">
        <ele>19.6</ele>
        <time>2024-05-26T07:09:29Z</time>
      </trkpt>
      <trkpt lat="49.17565" lon="-0.19679">
        <ele>19</ele>
        <time>2024-05-26T07:09:30Z</time>
      </trkpt>
      <trkpt lat="49.1756" lon="-0.19695">
        <ele>19</ele>
        <time>2024-05-26T07:09:31Z</time>
      </trkpt>
      <trkpt lat="49.17555" lon="-0.19711">
        <ele>17.6</ele>
        <time>2024-05-26T07:09:32Z</time>
      </trkpt>
      <trkpt lat="49.1755" lon="-0.19727">
        <ele>16.6</ele>
        <time>2024-05-26T07:09:33Z</time>
      </trkpt>
      <trkpt lat="49.17546" lon="-0.19744">
        <ele>16</ele>
        <time>2024-05-26T07:09:34Z</time>
      </trkpt>
      <trkpt lat="49.17542" lon="-0.19761">
        <ele>15.4</ele>
        <time>2024-05-26T07:09:35Z</time>
      </trkpt>
      <trkpt lat="49.17539" lon="-0.19777">
        <ele>14.6</ele>
        <time>2024-05-26T07:09:36Z</time>
      </trkpt>
      <trkpt lat="49.17535" lon="-0.19794">
        <ele>14</ele>
        <time>2024-05-26T07:09:37Z</time>
      </trkpt>
      <trkpt lat="49.17531" lon="-0.1981">
        <ele>13.6</ele>
        <time>2024-05-26T07:09:38Z</time>
      </trkpt>
      <trkpt lat="49.17527" lon="-0.19826">
        <ele>13.4</ele>
        <time>2024-05-26T07:09:39Z</time>
      </trkpt>
      <trkpt lat="49.17523" lon="-0.19843">
        <ele>12.8</ele>
        <time>2024-05-26T07:09:40Z</time>
      </trkpt>
      <trkpt lat="49.17519" lon="-0.19859">
        <ele>12.4</ele>
        <time>2024-05-26T07:09:41Z</time>
      </trkpt>
      <trkpt lat="49.17516" lon="-0.19876">
        <ele>11.8</ele>
        <time>2024-05-26T07:09:42Z</time>
      </trkpt>
      <trkpt lat="49.17511" lon="-0.19893">
        <ele>11.2</ele>
        <time>2024-05-26T07:09:43Z</time>
      </trkpt>
      <trkpt lat="49.17508" lon="-0.19909">
        <ele>10.6</ele>
        <time>2024-05-26T07:09:44Z</time>
      </trkpt>
      <trkpt lat="49.17504" lon="-0.19926">
        <ele>10</ele>
        <time>2024-05-26T07:09:45Z</time>
      </trkpt>
      <trkpt lat="49.175" lon="-0.19942">
        <ele>9.4</ele>
        <time>2024-05-26T07:09:46Z</time>
      </trkpt>
      <trkpt lat="49.17496" lon="-0.19959">
        <ele>9</ele>
        <time>2024-05-26T07:09:47Z</time>
      </trkpt>
      <trkpt lat="49.17492" lon="-0.19975">
        <ele>8.2</ele>
        <time>2024-05-26T07:09:48Z</time>
      </trkpt>
      <trkpt lat="49.17489" lon="-0.19992">
        <ele>7.8</ele>
        <time>2024-05-26T07:09:49Z</time>
      </trkpt>
      <trkpt lat="49.17484" lon="-0.20008">
        <ele>7.6</ele>
        <time>2024-05-26T07:09:50Z</time>
      </trkpt>
      <trkpt lat="49.1748" lon="-0.20025">
        <ele>7</ele>
        <time>2024-05-26T07:09:51Z</time>
      </trkpt>
      <trkpt lat="49.17476" lon="-0.20041">
        <ele>7</ele>
        <time>2024-05-26T07:09:52Z</time>
      </trkpt>
      <trkpt lat="49.17473" lon="-0.20057">
        <ele>6.6</ele>
        <time>2024-05-26T07:09:53Z</time>
      </trkpt>
      <trkpt lat="49.17469" lon="-0.20072">
        <ele>6.4</ele>
        <time>2024-05-26T07:09:54Z</time>
      </trkpt>
      <trkpt lat="49.17466" lon="-0.20088">
        <ele>6</ele>
        <time>2024-05-26T07:09:55Z</time>
      </trkpt>
      <trkpt lat="49.17462" lon="-0.20103">
        <ele>6</ele>
        <time>2024-05-26T07:09:56Z</time>
      </trkpt>
      <trkpt lat="49.17459" lon="-0.20118">
        <ele>5.8</ele>
        <time>2024-05-26T07:09:57Z</time>
      </trkpt>
      <trkpt lat="49.17455" lon="-0.20133">
        <ele>5.8</ele>
        <time>2024-05-26T07:09:58Z</time>
      </trkpt>
      <trkpt lat="49.17451" lon="-0.20147">
        <ele>5.4</ele>
        <time>2024-05-26T07:09:59Z</time>
      </trkpt>
      <trkpt lat="49.17448" lon="-0.20162">
        <ele>5.4</ele>
        <time>2024-05-26T07:10:00Z</time>
      </trkpt>
      <trkpt lat="49.17444" lon="-0.20176">
        <ele>5.4</ele>
        <time>2024-05-26T07:10:01Z</time>
      </trkpt>
      <trkpt lat="49.17441" lon="-0.2019">
        <ele>5.2</ele>
        <time>2024-05-26T07:10:02Z</time>
      </trkpt>
      <trkpt lat="49.17438" lon="-0.20203">
        <ele>5.2</ele>
        <time>2024-05-26T07:10:03Z</time>
      </trkpt>
      <trkpt lat="49.17435" lon="-0.20216">
        <ele>5</ele>
        <time>2024-05-26T07:10:04Z</time>
      </trkpt>
      <trkpt lat="49.17432" lon="-0.20229">
        <ele>4.8</ele>
        <time>2024-05-26T07:10:05Z</time>
      </trkpt>
      <trkpt lat="49.1743" lon="-0.20242">
        <ele>4.6</ele>
        <time>2024-05-26T07:10:06Z</time>
      </trkpt>
      <trkpt lat="49.17428" lon="-0.20255">
        <ele>4.4</ele>
        <time>2024-05-26T07:10:07Z</time>
      </trkpt>
      <trkpt lat="49.17425" lon="-0.20268">
        <ele>4.4</ele>
        <time>2024-05-26T07:10:08Z</time>
      </trkpt>
      <trkpt lat="49.17423" lon="-0.20281">
        <ele>4.4</ele>
        <time>2024-05-26T07:10:09Z</time>
      </trkpt>
      <trkpt lat="49.17421" lon="-0.20294">
        <ele>4.2</ele>
        <time>2024-05-26T07:10:10Z</time>
      </trkpt>
      <trkpt lat="49.17419" lon="-0.20307">
        <ele>4.2</ele>
        <time>2024-05-26T07:10:11Z</time>
      </trkpt>
      <trkpt lat="49.17417" lon="-0.20321">
        <ele>4</ele>
        <time>2024-05-26T07:10:12Z</time>
      </trkpt>
      <trkpt lat="49.17415" lon="-0.20334">
        <ele>4</ele>
        <time>2024-05-26T07:10:13Z</time>
      </trkpt>
      <trkpt lat="49.17413" lon="-0.20348">
        <ele>4</ele>
        <time>2024-05-26T07:10:14Z</time>
      </trkpt>
      <trkpt lat="49.17411" lon="-0.20362">
        <ele>3.8</ele>
        <time>2024-05-26T07:10:15Z</time>
      </trkpt>
      <trkpt lat="49.17409" lon="-0.20375">
        <ele>3.8</ele>
        <time>2024-05-26T07:10:16Z</time>
      </trkpt>
      <trkpt lat="49.17407" lon="-0.20389">
        <ele>3.6</ele>
        <time>2024-05-26T07:10:17Z</time>
      </trkpt>
      <trkpt lat="49.17405" lon="-0.20403">
        <ele>3.6</ele>
        <time>2024-05-26T07:10:18Z</time>
      </trkpt>
      <trkpt lat="49.17403" lon="-0.20416">
        <ele>3.6</ele>
        <time>2024-05-26T07:10:19Z</time>
      </trkpt>
      <trkpt lat="49.174" lon="-0.20429">
        <ele>3.4</ele>
        <time>2024-05-26T07:10:20Z</time>
      </trkpt>
      <trkpt lat="49.17398" lon="-0.20442">
        <ele>3.4</ele>
        <time>2024-05-26T07:10:21Z</time>
      </trkpt>
      <trkpt lat="49.17395" lon="-0.20455">
        <ele>3.4</ele>
        <time>2024-05-26T07:10:22Z</time>
      </trkpt>
      <trkpt lat="49.17393" lon="-0.20467">
        <ele>3.4</ele>
        <time>2024-05-26T07:10:23Z</time>
      </trkpt>
      <trkpt lat="49.1739" lon="-0.20479">
        <ele>3.4</ele>
        <time>2024-05-26T07:10:24Z</time>
      </trkpt>
      <trkpt lat="49.17388" lon="-0.20491">
        <ele>3.4</ele>
        <time>2024-05-26T07:10:25Z</time>
      </trkpt>
      <trkpt lat="49.17385" lon="-0.20504">
        <ele>3.4</ele>
        <time>2024-05-26T07:10:26Z</time>
      </trkpt>
      <trkpt lat="49.17384" lon="-0.20516">
        <ele>3.4</ele>
        <time>2024-05-26T07:10:27Z</time>
      </trkpt>
      <trkpt lat="49.17382" lon="-0.20528">
        <ele>3.4</ele>
        <time>2024-05-26T07:10:28Z</time>
      </trkpt>
      <trkpt lat="49.1738" lon="-0.20539">
        <ele>3.4</ele>
        <time>2024-05-26T07:10:29Z</time>
      </trkpt>
      <trkpt lat="49.17377" lon="-0.20551">
        <ele>3.4</ele>
        <time>2024-05-26T07:10:30Z</time>
      </trkpt>
      <trkpt lat="49.17375" lon="-0.20562">
        <ele>3.4</ele>
        <time>2024-05-26T07:10:31Z</time>
      </trkpt>
      <trkpt lat="49.17372" lon="-0.20572">
        <ele>3.4</ele>
        <time>2024-05-26T07:10:32Z</time>
      </trkpt>
      <trkpt lat="49.17367" lon="-0.20582">
        <ele>3.4</ele>
        <time>2024-05-26T07:10:33Z</time>
      </trkpt>
      <trkpt lat="49.17362" lon="-0.2059">
        <ele>3.4</ele>
        <time>2024-05-26T07:10:34Z</time>
      </trkpt>
      <trkpt lat="49.17355" lon="-0.20597">
        <ele>3.6</ele>
        <time>2024-05-26T07:10:35Z</time>
      </trkpt>
      <trkpt lat="49.17348" lon="-0.20601">
        <ele>3.6</ele>
        <time>2024-05-26T07:10:36Z</time>
      </trkpt>
      <trkpt lat="49.1734" lon="-0.20603">
        <ele>3.6</ele>
        <time>2024-05-26T07:10:37Z</time>
      </trkpt>
      <trkpt lat="49.17332" lon="-0.20606">
        <ele>3.6</ele>
        <time>2024-05-26T07:10:38Z</time>
      </trkpt>
      <trkpt lat="49.17324" lon="-0.20607">
        <ele>3.6</ele>
        <time>2024-05-26T07:10:39Z</time>
      </trkpt>
      <trkpt lat="49.17316" lon="-0.20609">
        <ele>3.6</ele>
        <time>2024-05-26T07:10:40Z</time>
      </trkpt>
      <trkpt lat="49.17309" lon="-0.20611">
        <ele>3.6</ele>
        <time>2024-05-26T07:10:41Z</time>
      </trkpt>
      <trkpt lat="49.17301" lon="-0.20613">
        <ele>3.4</ele>
        <time>2024-05-26T07:10:42Z</time>
      </trkpt>
      <trkpt lat="49.17294" lon="-0.20617">
        <ele>3.4</ele>
        <time>2024-05-26T07:10:43Z</time>
      </trkpt>
      <trkpt lat="49.17286" lon="-0.20621">
        <ele>3.4</ele>
        <time>2024-05-26T07:10:44Z</time>
      </trkpt>
      <trkpt lat="49.17279" lon="-0.20626">
        <ele>3.4</ele>
        <time>2024-05-26T07:10:45Z</time>
      </trkpt>
      <trkpt lat="49.17272" lon="-0.20631">
        <ele>3.4</ele>
        <time>2024-05-26T07:10:46Z</time>
      </trkpt>
      <trkpt lat="49.17265" lon="-0.20637">
        <ele>3.4</ele>
        <time>2024-05-26T07:10:47Z</time>
      </trkpt>
      <trkpt lat="49.17259" lon="-0.20644">
        <ele>3.4</ele>
        <time>2024-05-26T07:10:48Z</time>
      </trkpt>
      <trkpt lat="49.17252" lon="-0.2065">
        <ele>3.4</ele>
        <time>2024-05-26T07:10:49Z</time>
      </trkpt>
      <trkpt lat="49.17245" lon="-0.20657">
        <ele>3.6</ele>
        <time>2024-05-26T07:10:50Z</time>
      </trkpt>
      <trkpt lat="49.17238" lon="-0.20663">
        <ele>3.4</ele>
        <time>2024-05-26T07:10:51Z</time>
      </trkpt>
      <trkpt lat="49.17232" lon="-0.20669">
        <ele>3.4</ele>
        <time>2024-05-26T07:10:52Z</time>
      </trkpt>
      <trkpt lat="49.17225" lon="-0.20674">
        <ele>3.4</ele>
        <time>2024-05-26T07:10:53Z</time>
      </trkpt>
      <trkpt lat="49.17218" lon="-0.2068">
        <ele>3.4</ele>
        <time>2024-05-26T07:10:54Z</time>
      </trkpt>
      <trkpt lat="49.17211" lon="-0.20685">
        <ele>3.4</ele>
        <time>2024-05-26T07:10:55Z</time>
      </trkpt>
      <trkpt lat="49.17204" lon="-0.20689">
        <ele>3.4</ele>
        <time>2024-05-26T07:10:56Z</time>
      </trkpt>
      <trkpt lat="49.17196" lon="-0.20693">
        <ele>3.4</ele>
        <time>2024-05-26T07:10:57Z</time>
      </trkpt>
      <trkpt lat="49.17189" lon="-0.20696">
        <ele>3.6</ele>
        <time>2024-05-26T07:10:58Z</time>
      </trkpt>
      <trkpt lat="49.17182" lon="-0.20698">
        <ele>3.6</ele>
        <time>2024-05-26T07:10:59Z</time>
      </trkpt>
      <trkpt lat="49.17175" lon="-0.20699">
        <ele>3.8</ele>
        <time>2024-05-26T07:11:00Z</time>
      </trkpt>
      <trkpt lat="49.17167" lon="-0.207">
        <ele>3.8</ele>
        <time>2024-05-26T07:11:01Z</time>
      </trkpt>
      <trkpt lat="49.1716" lon="-0.20702">
        <ele>3.8</ele>
        <time>2024-05-26T07:11:02Z</time>
      </trkpt>
      <trkpt lat="49.17152" lon="-0.20704">
        <ele>4</ele>
        <time>2024-05-26T07:11:03Z</time>
      </trkpt>
      <trkpt lat="49.17145" lon="-0.20707">
        <ele>4.2</ele>
        <time>2024-05-26T07:11:04Z</time>
      </trkpt>
      <trkpt lat="49.17138" lon="-0.20709">
        <ele>4.2</ele>
        <time>2024-05-26T07:11:05Z</time>
      </trkpt>
      <trkpt lat="49.17131" lon="-0.20713">
        <ele>4.4</ele>
        <time>2024-05-26T07:11:06Z</time>
      </trkpt>
      <trkpt lat="49.17124" lon="-0.20717">
        <ele>4.6</ele>
        <time>2024-05-26T07:11:07Z</time>
      </trkpt>
      <trkpt lat="49.17117" lon="-0.20721">
        <ele>4.6</ele>
        <time>2024-05-26T07:11:08Z</time>
      </trkpt>
      <trkpt lat="49.17111" lon="-0.20725">
        <ele>4.8</ele>
        <time>2024-05-26T07:11:09Z</time>
      </trkpt>
      <trkpt lat="49.17104" lon="-0.20729">
        <ele>5</ele>
        <time>2024-05-26T07:11:10Z</time>
      </trkpt>
      <trkpt lat="49.17097" lon="-0.20733">
        <ele>5.2</ele>
        <time>2024-05-26T07:11:11Z</time>
      </trkpt>
      <trkpt lat="49.1709" lon="-0.20738">
        <ele>5.2</ele>
        <time>2024-05-26T07:11:12Z</time>
      </trkpt>
      <trkpt lat="49.17083" lon="-0.20743">
        <ele>5.2</ele>
        <time>2024-05-26T07:11:13Z</time>
      </trkpt>
      <trkpt lat="49.17076" lon="-0.20749">
        <ele>5.4</ele>
        <time>2024-05-26T07:11:14Z</time>
      </trkpt>
      <trkpt lat="49.17069" lon="-0.20754">
        <ele>5.4</ele>
        <time>2024-05-26T07:11:15Z</time>
      </trkpt>
      <trkpt lat="49.17063" lon="-0.2076">
        <ele>5.8</ele>
        <time>2024-05-26T07:11:16Z</time>
      </trkpt>
      <trkpt lat="49.17056" lon="-0.20765">
        <ele>6</ele>
        <time>2024-05-26T07:11:17Z</time>
      </trkpt>
      <trkpt lat="49.1705" lon="-0.20771">
        <ele>6</ele>
        <time>2024-05-26T07:11:18Z</time>
      </trkpt>
      <trkpt lat="49.17043" lon="-0.20776">
        <ele>6.2</ele>
        <time>2024-05-26T07:11:19Z</time>
      </trkpt>
      <trkpt lat="49.17036" lon="-0.20781">
        <ele>6.2</ele>
        <time>2024-05-26T07:11:20Z</time>
      </trkpt>
      <trkpt lat="49.1703" lon="-0.20787">
        <ele>6.4</ele>
        <time>2024-05-26T07:11:21Z</time>
      </trkpt>
      <trkpt lat="49.17023" lon="-0.20793">
        <ele>6.4</ele>
        <time>2024-05-26T07:11:22Z</time>
      </trkpt>
      <trkpt lat="49.17016" lon="-0.20798">
        <ele>6.4</ele>
        <time>2024-05-26T07:11:23Z</time>
      </trkpt>
      <trkpt lat="49.1701" lon="-0.20805">
        <ele>6.4</ele>
        <time>2024-05-26T07:11:24Z</time>
      </trkpt>
      <trkpt lat="49.17003" lon="-0.20811">
        <ele>6.4</ele>
        <time>2024-05-26T07:11:25Z</time>
      </trkpt>
      <trkpt lat="49.16996" lon="-0.20817">
        <ele>6.4</ele>
        <time>2024-05-26T07:11:26Z</time>
      </trkpt>
      <trkpt lat="49.16989" lon="-0.20824">
        <ele>6.4</ele>
        <time>2024-05-26T07:11:27Z</time>
      </trkpt>
      <trkpt lat="49.16983" lon="-0.20831">
        <ele>6.4</ele>
        <time>2024-05-26T07:11:28Z</time>
      </trkpt>
      <trkpt lat="49.16977" lon="-0.20839">
        <ele>6.4</ele>
        <time>2024-05-26T07:11:29Z</time>
      </trkpt>
      <trkpt lat="49.1697" lon="-0.20846">
        <ele>6.4</ele>
        <time>2024-05-26T07:11:30Z</time>
      </trkpt>
      <trkpt lat="49.16964" lon="-0.20853">
        <ele>6.4</ele>
        <time>2024-05-26T07:11:31Z</time>
      </trkpt>
      <trkpt lat="49.16958" lon="-0.20861">
        <ele>6.4</ele>
        <time>2024-05-26T07:11:32Z</time>
      </trkpt>
      <trkpt lat="49.16952" lon="-0.20868">
        <ele>6.4</ele>
        <time>2024-05-26T07:11:33Z</time>
      </trkpt>
      <trkpt lat="49.16946" lon="-0.20876">
        <ele>6.4</ele>
        <time>2024-05-26T07:11:34Z</time>
      </trkpt>
      <trkpt lat="49.16939" lon="-0.20883">
        <ele>6.4</ele>
        <time>2024-05-26T07:11:35Z</time>
      </trkpt>
      <trkpt lat="49.16933" lon="-0.2089">
        <ele>6.4</ele>
        <time>2024-05-26T07:11:36Z</time>
      </trkpt>
      <trkpt lat="49.16927" lon="-0.20897">
        <ele>6.4</ele>
        <time>2024-05-26T07:11:37Z</time>
      </trkpt>
      <trkpt lat="49.16921" lon="-0.20905">
        <ele>6.4</ele>
        <time>2024-05-26T07:11:38Z</time>
      </trkpt>
      <trkpt lat="49.16914" lon="-0.20911">
        <ele>6.4</ele>
        <time>2024-05-26T07:11:39Z</time>
      </trkpt>
      <trkpt lat="49.16908" lon="-0.20918">
        <ele>6.4</ele>
        <time>2024-05-26T07:11:40Z</time>
      </trkpt>
      <trkpt lat="49.16901" lon="-0.20926">
        <ele>6.4</ele>
        <time>2024-05-26T07:11:41Z</time>
      </trkpt>
      <trkpt lat="49.16895" lon="-0.20933">
        <ele>6.4</ele>
        <time>2024-05-26T07:11:42Z</time>
      </trkpt>
      <trkpt lat="49.16889" lon="-0.2094">
        <ele>6.4</ele>
        <time>2024-05-26T07:11:43Z</time>
      </trkpt>
      <trkpt lat="49.16882" lon="-0.20947">
        <ele>6.4</ele>
        <time>2024-05-26T07:11:44Z</time>
      </trkpt>
      <trkpt lat="49.16876" lon="-0.20953">
        <ele>6.4</ele>
        <time>2024-05-26T07:11:45Z</time>
      </trkpt>
      <trkpt lat="49.16869" lon="-0.2096">
        <ele>6.4</ele>
        <time>2024-05-26T07:11:46Z</time>
      </trkpt>
      <trkpt lat="49.16862" lon="-0.20967">
        <ele>6.4</ele>
        <time>2024-05-26T07:11:47Z</time>
      </trkpt>
      <trkpt lat="49.16855" lon="-0.20975">
        <ele>6.4</ele>
        <time>2024-05-26T07:11:48Z</time>
      </trkpt>
      <trkpt lat="49.16848" lon="-0.20983">
        <ele>6.2</ele>
        <time>2024-05-26T07:11:49Z</time>
      </trkpt>
      <trkpt lat="49.16842" lon="-0.20991">
        <ele>6.2</ele>
        <time>2024-05-26T07:11:50Z</time>
      </trkpt>
      <trkpt lat="49.16835" lon="-0.20999">
        <ele>6.2</ele>
        <time>2024-05-26T07:11:51Z</time>
      </trkpt>
      <trkpt lat="49.16829" lon="-0.21008">
        <ele>6.2</ele>
        <time>2024-05-26T07:11:52Z</time>
      </trkpt>
      <trkpt lat="49.16822" lon="-0.21017">
        <ele>6.2</ele>
        <time>2024-05-26T07:11:53Z</time>
      </trkpt>
      <trkpt lat="49.16816" lon="-0.21025">
        <ele>6</ele>
        <time>2024-05-26T07:11:54Z</time>
      </trkpt>
      <trkpt lat="49.1681" lon="-0.21034">
        <ele>6</ele>
        <time>2024-05-26T07:11:55Z</time>
      </trkpt>
      <trkpt lat="49.16805" lon="-0.21043">
        <ele>6</ele>
        <time>2024-05-26T07:11:56Z</time>
      </trkpt>
      <trkpt lat="49.16799" lon="-0.21052">
        <ele>5.8</ele>
        <time>2024-05-26T07:11:57Z</time>
      </trkpt>
      <trkpt lat="49.16794" lon="-0.21061">
        <ele>5.6</ele>
        <time>2024-05-26T07:11:58Z</time>
      </trkpt>
      <trkpt lat="49.16788" lon="-0.2107">
        <ele>5.4</ele>
        <time>2024-05-26T07:11:59Z</time>
      </trkpt>
      <trkpt lat="49.16783" lon="-0.21079">
        <ele>5</ele>
        <time>2024-05-26T07:12:00Z</time>
      </trkpt>
      <trkpt lat="49.16777" lon="-0.21088">
        <ele>4.6</ele>
        <time>2024-05-26T07:12:01Z</time>
      </trkpt>
      <trkpt lat="49.16771" lon="-0.21097">
        <ele>4.4</ele>
        <time>2024-05-26T07:12:02Z</time>
      </trkpt>
      <trkpt lat="49.16766" lon="-0.21105">
        <ele>4.2</ele>
        <time>2024-05-26T07:12:03Z</time>
      </trkpt>
      <trkpt lat="49.1676" lon="-0.21114">
        <ele>4.2</ele>
        <time>2024-05-26T07:12:04Z</time>
      </trkpt>
      <trkpt lat="49.16755" lon="-0.21124">
        <ele>4.2</ele>
        <time>2024-05-26T07:12:05Z</time>
      </trkpt>
      <trkpt lat="49.16751" lon="-0.21134">
        <ele>4.2</ele>
        <time>2024-05-26T07:12:06Z</time>
      </trkpt>
      <trkpt lat="49.16746" lon="-0.21144">
        <ele>4</ele>
        <time>2024-05-26T07:12:07Z</time>
      </trkpt>
      <trkpt lat="49.16743" lon="-0.21154">
        <ele>3.8</ele>
        <time>2024-05-26T07:12:08Z</time>
      </trkpt>
      <trkpt lat="49.16739" lon="-0.21165">
        <ele>3.8</ele>
        <time>2024-05-26T07:12:09Z</time>
      </trkpt>
      <trkpt lat="49.16736" lon="-0.21176">
        <ele>3.6</ele>
        <time>2024-05-26T07:12:10Z</time>
      </trkpt>
      <trkpt lat="49.16733" lon="-0.21186">
        <ele>3.6</ele>
        <time>2024-05-26T07:12:11Z</time>
      </trkpt>
      <trkpt lat="49.16731" lon="-0.21197">
        <ele>3.8</ele>
        <time>2024-05-26T07:12:12Z</time>
      </trkpt>
      <trkpt lat="49.16728" lon="-0.21208">
        <ele>3.6</ele>
        <time>2024-05-26T07:12:13Z</time>
      </trkpt>
      <trkpt lat="49.16726" lon="-0.21219">
        <ele>3.8</ele>
        <time>2024-05-26T07:12:14Z</time>
      </trkpt>
      <trkpt lat="49.16724" lon="-0.2123">
        <ele>3.8</ele>
        <time>2024-05-26T07:12:15Z</time>
      </trkpt>
      <trkpt lat="49.16721" lon="-0.21241">
        <ele>3.8</ele>
        <time>2024-05-26T07:12:16Z</time>
      </trkpt>
      <trkpt lat="49.16719" lon="-0.21251">
        <ele>3.6</ele>
        <time>2024-05-26T07:12:17Z</time>
      </trkpt>
      <trkpt lat="49.16716" lon="-0.21262">
        <ele>3.6</ele>
        <time>2024-05-26T07:12:18Z</time>
      </trkpt>
      <trkpt lat="49.16714" lon="-0.21273">
        <ele>3.6</ele>
        <time>2024-05-26T07:12:19Z</time>
      </trkpt>
      <trkpt lat="49.16711" lon="-0.21283">
        <ele>3.6</ele>
        <time>2024-05-26T07:12:20Z</time>
      </trkpt>
      <trkpt lat="49.16708" lon="-0.21294">
        <ele>3.6</ele>
        <time>2024-05-26T07:12:21Z</time>
      </trkpt>
      <trkpt lat="49.16705" lon="-0.21304">
        <ele>3.8</ele>
        <time>2024-05-26T07:12:22Z</time>
      </trkpt>
      <trkpt lat="49.16701" lon="-0.21313">
        <ele>3.8</ele>
        <time>2024-05-26T07:12:23Z</time>
      </trkpt>
      <trkpt lat="49.16698" lon="-0.21322">
        <ele>3.8</ele>
        <time>2024-05-26T07:12:24Z</time>
      </trkpt>
      <trkpt lat="49.16694" lon="-0.21332">
        <ele>3.6</ele>
        <time>2024-05-26T07:12:25Z</time>
      </trkpt>
      <trkpt lat="49.16689" lon="-0.2134">
        <ele>3.6</ele>
        <time>2024-05-26T07:12:26Z</time>
      </trkpt>
      <trkpt lat="49.16684" lon="-0.21348">
        <ele>3.6</ele>
        <time>2024-05-26T07:12:27Z</time>
      </trkpt>
      <trkpt lat="49.16678" lon="-0.21355">
        <ele>3.8</ele>
        <time>2024-05-26T07:12:28Z</time>
      </trkpt>
      <trkpt lat="49.16672" lon="-0.2136">
        <ele>3.8</ele>
        <time>2024-05-26T07:12:29Z</time>
      </trkpt>
      <trkpt lat="49.16665" lon="-0.21364">
        <ele>4</ele>
        <time>2024-05-26T07:12:30Z</time>
      </trkpt>
      <trkpt lat="49.16658" lon="-0.21366">
        <ele>4</ele>
        <time>2024-05-26T07:12:31Z</time>
      </trkpt>
      <trkpt lat="49.16651" lon="-0.21368">
        <ele>4</ele>
        <time>2024-05-26T07:12:32Z</time>
      </trkpt>
      <trkpt lat="49.16644" lon="-0.21368">
        <ele>4.2</ele>
        <time>2024-05-26T07:12:33Z</time>
      </trkpt>
      <trkpt lat="49.16637" lon="-0.21368">
        <ele>4</ele>
        <time>2024-05-26T07:12:34Z</time>
      </trkpt>
      <trkpt lat="49.1663" lon="-0.21368">
        <ele>4</ele>
        <time>2024-05-26T07:12:35Z</time>
      </trkpt>
      <trkpt lat="49.16622" lon="-0.21368">
        <ele>4</ele>
        <time>2024-05-26T07:12:36Z</time>
      </trkpt>
      <trkpt lat="49.16615" lon="-0.21368">
        <ele>4</ele>
        <time>2024-05-26T07:12:37Z</time>
      </trkpt>
      <trkpt lat="49.16607" lon="-0.21368">
        <ele>4.2</ele>
        <time>2024-05-26T07:12:38Z</time>
      </trkpt>
      <trkpt lat="49.166" lon="-0.21368">
        <ele>4.2</ele>
        <time>2024-05-26T07:12:39Z</time>
      </trkpt>
      <trkpt lat="49.16592" lon="-0.21367">
        <ele>4.2</ele>
        <time>2024-05-26T07:12:40Z</time>
      </trkpt>
      <trkpt lat="49.16585" lon="-0.21365">
        <ele>4.2</ele>
        <time>2024-05-26T07:12:41Z</time>
      </trkpt>
      <trkpt lat="49.16577" lon="-0.21363">
        <ele>4.2</ele>
        <time>2024-05-26T07:12:42Z</time>
      </trkpt>
      <trkpt lat="49.1657" lon="-0.21361">
        <ele>4.4</ele>
        <time>2024-05-26T07:12:43Z</time>
      </trkpt>
      <trkpt lat="49.16563" lon="-0.2136">
        <ele>4.6</ele>
        <time>2024-05-26T07:12:44Z</time>
      </trkpt>
      <trkpt lat="49.16555" lon="-0.21358">
        <ele>4.6</ele>
        <time>2024-05-26T07:12:45Z</time>
      </trkpt>
      <trkpt lat="49.16548" lon="-0.21356">
        <ele>4.6</ele>
        <time>2024-05-26T07:12:46Z</time>
      </trkpt>
      <trkpt lat="49.16541" lon="-0.21354">
        <ele>4.6</ele>
        <time>2024-05-26T07:12:47Z</time>
      </trkpt>
      <trkpt lat="49.16533" lon="-0.21352">
        <ele>4.4</ele>
        <time>2024-05-26T07:12:48Z</time>
      </trkpt>
      <trkpt lat="49.16526" lon="-0.21351">
        <ele>4.2</ele>
        <time>2024-05-26T07:12:49Z</time>
      </trkpt>
      <trkpt lat="49.16519" lon="-0.2135">
        <ele>4.2</ele>
        <time>2024-05-26T07:12:50Z</time>
      </trkpt>
      <trkpt lat="49.16511" lon="-0.2135">
        <ele>4.2</ele>
        <time>2024-05-26T07:12:51Z</time>
      </trkpt>
      <trkpt lat="49.16504" lon="-0.2135">
        <ele>4.2</ele>
        <time>2024-05-26T07:12:52Z</time>
      </trkpt>
      <trkpt lat="49.16497" lon="-0.2135">
        <ele>4.2</ele>
        <time>2024-05-26T07:12:53Z</time>
      </trkpt>
      <trkpt lat="49.1649" lon="-0.2135">
        <ele>4.2</ele>
        <time>2024-05-26T07:12:54Z</time>
      </trkpt>
      <trkpt lat="49.16482" lon="-0.2135">
        <ele>4.2</ele>
        <time>2024-05-26T07:12:55Z</time>
      </trkpt>
      <trkpt lat="49.16475" lon="-0.21351">
        <ele>4.2</ele>
        <time>2024-05-26T07:12:56Z</time>
      </trkpt>
      <trkpt lat="49.16468" lon="-0.21352">
        <ele>4.2</ele>
        <time>2024-05-26T07:12:57Z</time>
      </trkpt>
      <trkpt lat="49.16461" lon="-0.21353">
        <ele>4</ele>
        <time>2024-05-26T07:12:58Z</time>
      </trkpt>
      <trkpt lat="49.16454" lon="-0.21354">
        <ele>4</ele>
        <time>2024-05-26T07:12:59Z</time>
      </trkpt>
      <trkpt lat="49.16447" lon="-0.21355">
        <ele>4</ele>
        <time>2024-05-26T07:13:00Z</time>
      </trkpt>
      <trkpt lat="49.16439" lon="-0.21357">
        <ele>4</ele>
        <time>2024-05-26T07:13:01Z</time>
      </trkpt>
      <trkpt lat="49.16432" lon="-0.21358">
        <ele>4</ele>
        <time>2024-05-26T07:13:02Z</time>
      </trkpt>
      <trkpt lat="49.16425" lon="-0.21359">
        <ele>4.2</ele>
        <time>2024-05-26T07:13:03Z</time>
      </trkpt>
      <trkpt lat="49.16417" lon="-0.21361">
        <ele>4.2</ele>
        <time>2024-05-26T07:13:04Z</time>
      </trkpt>
      <trkpt lat="49.1641" lon="-0.21362">
        <ele>4.2</ele>
        <time>2024-05-26T07:13:05Z</time>
      </trkpt>
      <trkpt lat="49.16403" lon="-0.21364">
        <ele>4.2</ele>
        <time>2024-05-26T07:13:06Z</time>
      </trkpt>
      <trkpt lat="49.16395" lon="-0.21367">
        <ele>4.2</ele>
        <time>2024-05-26T07:13:07Z</time>
      </trkpt>
      <trkpt lat="49.16388" lon="-0.2137">
        <ele>4.2</ele>
        <time>2024-05-26T07:13:08Z</time>
      </trkpt>
      <trkpt lat="49.1638" lon="-0.21374">
        <ele>4.2</ele>
        <time>2024-05-26T07:13:09Z</time>
      </trkpt>
      <trkpt lat="49.16374" lon="-0.21379">
        <ele>4.2</ele>
        <time>2024-05-26T07:13:10Z</time>
      </trkpt>
      <trkpt lat="49.16367" lon="-0.21384">
        <ele>4.2</ele>
        <time>2024-05-26T07:13:11Z</time>
      </trkpt>
      <trkpt lat="49.1636" lon="-0.2139">
        <ele>4.2</ele>
        <time>2024-05-26T07:13:12Z</time>
      </trkpt>
      <trkpt lat="49.16354" lon="-0.21397">
        <ele>4.2</ele>
        <time>2024-05-26T07:13:13Z</time>
      </trkpt>
      <trkpt lat="49.16348" lon="-0.21403">
        <ele>4.2</ele>
        <time>2024-05-26T07:13:14Z</time>
      </trkpt>
      <trkpt lat="49.16342" lon="-0.2141">
        <ele>4</ele>
        <time>2024-05-26T07:13:15Z</time>
      </trkpt>
      <trkpt lat="49.16336" lon="-0.21416">
        <ele>4</ele>
        <time>2024-05-26T07:13:16Z</time>
      </trkpt>
      <trkpt lat="49.1633" lon="-0.21423">
        <ele>4</ele>
        <time>2024-05-26T07:13:17Z</time>
      </trkpt>
      <trkpt lat="49.16324" lon="-0.2143">
        <ele>4</ele>
        <time>2024-05-26T07:13:18Z</time>
      </trkpt>
      <trkpt lat="49.16318" lon="-0.21436">
        <ele>4</ele>
        <time>2024-05-26T07:13:19Z</time>
      </trkpt>
      <trkpt lat="49.16312" lon="-0.21443">
        <ele>4</ele>
        <time>2024-05-26T07:13:20Z</time>
      </trkpt>
      <trkpt lat="49.16306" lon="-0.2145">
        <ele>4</ele>
        <time>2024-05-26T07:13:21Z</time>
      </trkpt>
      <trkpt lat="49.16299" lon="-0.21456">
        <ele>3.8</ele>
        <time>2024-05-26T07:13:22Z</time>
      </trkpt>
      <trkpt lat="49.16293" lon="-0.21463">
        <ele>3.4</ele>
        <time>2024-05-26T07:13:23Z</time>
      </trkpt>
      <trkpt lat="49.16287" lon="-0.21469">
        <ele>3.2</ele>
        <time>2024-05-26T07:13:24Z</time>
      </trkpt>
      <trkpt lat="49.16281" lon="-0.21476">
        <ele>3</ele>
        <time>2024-05-26T07:13:25Z</time>
      </trkpt>
      <trkpt lat="49.16275" lon="-0.21482">
        <ele>3</ele>
        <time>2024-05-26T07:13:26Z</time>
      </trkpt>
      <trkpt lat="49.16269" lon="-0.21489">
        <ele>2.8</ele>
        <time>2024-05-26T07:13:27Z</time>
      </trkpt>
      <trkpt lat="49.16263" lon="-0.21495">
        <ele>2.8</ele>
        <time>2024-05-26T07:13:28Z</time>
      </trkpt>
      <trkpt lat="49.16257" lon="-0.21501">
        <ele>2.8</ele>
        <time>2024-05-26T07:13:29Z</time>
      </trkpt>
      <trkpt lat="49.16251" lon="-0.21508">
        <ele>2.6</ele>
        <time>2024-05-26T07:13:30Z</time>
      </trkpt>
      <trkpt lat="49.16245" lon="-0.21515">
        <ele>2.6</ele>
        <time>2024-05-26T07:13:31Z</time>
      </trkpt>
      <trkpt lat="49.16239" lon="-0.21521">
        <ele>2.6</ele>
        <time>2024-05-26T07:13:32Z</time>
      </trkpt>
      <trkpt lat="49.16233" lon="-0.21528">
        <ele>2.6</ele>
        <time>2024-05-26T07:13:33Z</time>
      </trkpt>
      <trkpt lat="49.16227" lon="-0.21536">
        <ele>2.6</ele>
        <time>2024-05-26T07:13:34Z</time>
      </trkpt>
      <trkpt lat="49.16222" lon="-0.21544">
        <ele>2.6</ele>
        <time>2024-05-26T07:13:35Z</time>
      </trkpt>
      <trkpt lat="49.16217" lon="-0.21553">
        <ele>2.6</ele>
        <time>2024-05-26T07:13:36Z</time>
      </trkpt>
      <trkpt lat="49.16212" lon="-0.21562">
        <ele>2.6</ele>
        <time>2024-05-26T07:13:37Z</time>
      </trkpt>
      <trkpt lat="49.16208" lon="-0.21571">
        <ele>2.6</ele>
        <time>2024-05-26T07:13:38Z</time>
      </trkpt>
      <trkpt lat="49.16205" lon="-0.21582">
        <ele>2.6</ele>
        <time>2024-05-26T07:13:39Z</time>
      </trkpt>
      <trkpt lat="49.16202" lon="-0.21592">
        <ele>2.6</ele>
        <time>2024-05-26T07:13:40Z</time>
      </trkpt>
      <trkpt lat="49.162" lon="-0.21602">
        <ele>2.4</ele>
        <time>2024-05-26T07:13:41Z</time>
      </trkpt>
      <trkpt lat="49.16197" lon="-0.21612">
        <ele>2.4</ele>
        <time>2024-05-26T07:13:42Z</time>
      </trkpt>
      <trkpt lat="49.16195" lon="-0.21623">
        <ele>2.4</ele>
        <time>2024-05-26T07:13:43Z</time>
      </trkpt>
      <trkpt lat="49.16192" lon="-0.21633">
        <ele>2.4</ele>
        <time>2024-05-26T07:13:44Z</time>
      </trkpt>
      <trkpt lat="49.16191" lon="-0.21642">
        <ele>2.4</ele>
        <time>2024-05-26T07:13:45Z</time>
      </trkpt>
      <trkpt lat="49.16189" lon="-0.21652">
        <ele>2.4</ele>
        <time>2024-05-26T07:13:46Z</time>
      </trkpt>
      <trkpt lat="49.16187" lon="-0.21662">
        <ele>2.4</ele>
        <time>2024-05-26T07:13:47Z</time>
      </trkpt>
      <trkpt lat="49.16185" lon="-0.21673">
        <ele>2.4</ele>
        <time>2024-05-26T07:13:48Z</time>
      </trkpt>
      <trkpt lat="49.16183" lon="-0.21683">
        <ele>2.4</ele>
        <time>2024-05-26T07:13:49Z</time>
      </trkpt>
      <trkpt lat="49.16182" lon="-0.21694">
        <ele>2.4</ele>
        <time>2024-05-26T07:13:50Z</time>
      </trkpt>
      <trkpt lat="49.1618" lon="-0.21705">
        <ele>2.4</ele>
        <time>2024-05-26T07:13:51Z</time>
      </trkpt>
      <trkpt lat="49.16179" lon="-0.21715">
        <ele>2.4</ele>
        <time>2024-05-26T07:13:52Z</time>
      </trkpt>
      <trkpt lat="49.16177" lon="-0.21726">
        <ele>2.6</ele>
        <time>2024-05-26T07:13:53Z</time>
      </trkpt>
      <trkpt lat="49.16176" lon="-0.21738">
        <ele>2.8</ele>
        <time>2024-05-26T07:13:54Z</time>
      </trkpt>
      <trkpt lat="49.16174" lon="-0.21748">
        <ele>2.8</ele>
        <time>2024-05-26T07:13:55Z</time>
      </trkpt>
      <trkpt lat="49.16172" lon="-0.21759">
        <ele>2.8</ele>
        <time>2024-05-26T07:13:56Z</time>
      </trkpt>
      <trkpt lat="49.16171" lon="-0.2177">
        <ele>2.8</ele>
        <time>2024-05-26T07:13:57Z</time>
      </trkpt>
      <trkpt lat="49.16169" lon="-0.21781">
        <ele>2.8</ele>
        <time>2024-05-26T07:13:58Z</time>
      </trkpt>
      <trkpt lat="49.16169" lon="-0.21792">
        <ele>2.8</ele>
        <time>2024-05-26T07:13:59Z</time>
      </trkpt>
      <trkpt lat="49.16168" lon="-0.21802">
        <ele>2.8</ele>
        <time>2024-05-26T07:14:00Z</time>
      </trkpt>
      <trkpt lat="49.16168" lon="-0.21812">
        <ele>2.8</ele>
        <time>2024-05-26T07:14:01Z</time>
      </trkpt>
      <trkpt lat="49.16168" lon="-0.21823">
        <ele>2.8</ele>
        <time>2024-05-26T07:14:02Z</time>
      </trkpt>
      <trkpt lat="49.16167" lon="-0.21834">
        <ele>2.8</ele>
        <time>2024-05-26T07:14:03Z</time>
      </trkpt>
      <trkpt lat="49.16167" lon="-0.21845">
        <ele>2.8</ele>
        <time>2024-05-26T07:14:04Z</time>
      </trkpt>
      <trkpt lat="49.16167" lon="-0.21855">
        <ele>2.8</ele>
        <time>2024-05-26T07:14:05Z</time>
      </trkpt>
      <trkpt lat="49.16166" lon="-0.21866">
        <ele>2.8</ele>
        <time>2024-05-26T07:14:06Z</time>
      </trkpt>
      <trkpt lat="49.16166" lon="-0.21877">
        <ele>2.8</ele>
        <time>2024-05-26T07:14:07Z</time>
      </trkpt>
      <trkpt lat="49.16165" lon="-0.21887">
        <ele>2.8</ele>
        <time>2024-05-26T07:14:08Z</time>
      </trkpt>
      <trkpt lat="49.16164" lon="-0.21898">
        <ele>2.8</ele>
        <time>2024-05-26T07:14:09Z</time>
      </trkpt>
      <trkpt lat="49.16163" lon="-0.21909">
        <ele>2.8</ele>
        <time>2024-05-26T07:14:10Z</time>
      </trkpt>
      <trkpt lat="49.16161" lon="-0.21919">
        <ele>2.8</ele>
        <time>2024-05-26T07:14:11Z</time>
      </trkpt>
      <trkpt lat="49.16159" lon="-0.21929">
        <ele>2.8</ele>
        <time>2024-05-26T07:14:12Z</time>
      </trkpt>
      <trkpt lat="49.16156" lon="-0.21939">
        <ele>2.8</ele>
        <time>2024-05-26T07:14:13Z</time>
      </trkpt>
      <trkpt lat="49.16152" lon="-0.21949">
        <ele>2.8</ele>
        <time>2024-05-26T07:14:14Z</time>
      </trkpt>
      <trkpt lat="49.16147" lon="-0.21957">
        <ele>2.8</ele>
        <time>2024-05-26T07:14:15Z</time>
      </trkpt>
      <trkpt lat="49.16141" lon="-0.21963">
        <ele>2.8</ele>
        <time>2024-05-26T07:14:16Z</time>
      </trkpt>
      <trkpt lat="49.16135" lon="-0.21969">
        <ele>2.8</ele>
        <time>2024-05-26T07:14:17Z</time>
      </trkpt>
      <trkpt lat="49.16129" lon="-0.21973">
        <ele>2.8</ele>
        <time>2024-05-26T07:14:18Z</time>
      </trkpt>
      <trkpt lat="49.16122" lon="-0.21977">
        <ele>2.8</ele>
        <time>2024-05-26T07:14:19Z</time>
      </trkpt>
      <trkpt lat="49.16115" lon="-0.2198">
        <ele>2.6</ele>
        <time>2024-05-26T07:14:20Z</time>
      </trkpt>
      <trkpt lat="49.16109" lon="-0.21984">
        <ele>2.6</ele>
        <time>2024-05-26T07:14:21Z</time>
      </trkpt>
      <trkpt lat="49.16102" lon="-0.21987">
        <ele>2.6</ele>
        <time>2024-05-26T07:14:22Z</time>
      </trkpt>
      <trkpt lat="49.16096" lon="-0.21991">
        <ele>2.6</ele>
        <time>2024-05-26T07:14:23Z</time>
      </trkpt>
      <trkpt lat="49.16089" lon="-0.21994">
        <ele>2.6</ele>
        <time>2024-05-26T07:14:24Z</time>
      </trkpt>
      <trkpt lat="49.16083" lon="-0.21998">
        <ele>2.6</ele>
        <time>2024-05-26T07:14:25Z</time>
      </trkpt>
      <trkpt lat="49.16076" lon="-0.22002">
        <ele>2.6</ele>
        <time>2024-05-26T07:14:26Z</time>
      </trkpt>
      <trkpt lat="49.1607" lon="-0.22007">
        <ele>2.6</ele>
        <time>2024-05-26T07:14:27Z</time>
      </trkpt>
      <trkpt lat="49.16064" lon="-0.22012">
        <ele>2.6</ele>
        <time>2024-05-26T07:14:28Z</time>
      </trkpt>
      <trkpt lat="49.16057" lon="-0.22017">
        <ele>2.4</ele>
        <time>2024-05-26T07:14:29Z</time>
      </trkpt>
      <trkpt lat="49.16051" lon="-0.22022">
        <ele>2.4</ele>
        <time>2024-05-26T07:14:30Z</time>
      </trkpt>
      <trkpt lat="49.16045" lon="-0.22027">
        <ele>2.4</ele>
        <time>2024-05-26T07:14:31Z</time>
      </trkpt>
      <trkpt lat="49.16039" lon="-0.22032">
        <ele>2.4</ele>
        <time>2024-05-26T07:14:32Z</time>
      </trkpt>
      <trkpt lat="49.16032" lon="-0.22037">
        <ele>2.4</ele>
        <time>2024-05-26T07:14:33Z</time>
      </trkpt>
      <trkpt lat="49.16026" lon="-0.22042">
        <ele>2.4</ele>
        <time>2024-05-26T07:14:34Z</time>
      </trkpt>
      <trkpt lat="49.1602" lon="-0.22047">
        <ele>2.4</ele>
        <time>2024-05-26T07:14:35Z</time>
      </trkpt>
      <trkpt lat="49.16014" lon="-0.22052">
        <ele>2.4</ele>
        <time>2024-05-26T07:14:36Z</time>
      </trkpt>
      <trkpt lat="49.16008" lon="-0.22057">
        <ele>2.4</ele>
        <time>2024-05-26T07:14:37Z</time>
      </trkpt>
      <trkpt lat="49.16001" lon="-0.22062">
        <ele>2.4</ele>
        <time>2024-05-26T07:14:38Z</time>
      </trkpt>
      <trkpt lat="49.15995" lon="-0.22066">
        <ele>2.4</ele>
        <time>2024-05-26T07:14:39Z</time>
      </trkpt>
      <trkpt lat="49.15989" lon="-0.22071">
        <ele>2.4</ele>
        <time>2024-05-26T07:14:40Z</time>
      </trkpt>
      <trkpt lat="49.15982" lon="-0.22076">
        <ele>2.4</ele>
        <time>2024-05-26T07:14:41Z</time>
      </trkpt>
      <trkpt lat="49.15976" lon="-0.22082">
        <ele>2.6</ele>
        <time>2024-05-26T07:14:42Z</time>
      </trkpt>
      <trkpt lat="49.15971" lon="-0.22086">
        <ele>2.6</ele>
        <time>2024-05-26T07:14:43Z</time>
      </trkpt>
      <trkpt lat="49.15965" lon="-0.22091">
        <ele>2.6</ele>
        <time>2024-05-26T07:14:44Z</time>
      </trkpt>
      <trkpt lat="49.15959" lon="-0.22096">
        <ele>2.6</ele>
        <time>2024-05-26T07:14:45Z</time>
      </trkpt>
      <trkpt lat="49.15953" lon="-0.221">
        <ele>2.6</ele>
        <time>2024-05-26T07:14:46Z</time>
      </trkpt>
      <trkpt lat="49.15946" lon="-0.22104">
        <ele>2.6</ele>
        <time>2024-05-26T07:14:47Z</time>
      </trkpt>
      <trkpt lat="49.1594" lon="-0.22108">
        <ele>2.8</ele>
        <time>2024-05-26T07:14:48Z</time>
      </trkpt>
      <trkpt lat="49.15934" lon="-0.22112">
        <ele>2.8</ele>
        <time>2024-05-26T07:14:49Z</time>
      </trkpt>
      <trkpt lat="49.15928" lon="-0.22116">
        <ele>2.8</ele>
        <time>2024-05-26T07:14:50Z</time>
      </trkpt>
      <trkpt lat="49.15921" lon="-0.22119">
        <ele>2.8</ele>
        <time>2024-05-26T07:14:51Z</time>
      </trkpt>
      <trkpt lat="49.15915" lon="-0.22121">
        <ele>2.8</ele>
        <time>2024-05-26T07:14:52Z</time>
      </trkpt>
      <trkpt lat="49.15908" lon="-0.22123">
        <ele>2.8</ele>
        <time>2024-05-26T07:14:53Z</time>
      </trkpt>
      <trkpt lat="49.15902" lon="-0.22125">
        <ele>3</ele>
        <time>2024-05-26T07:14:54Z</time>
      </trkpt>
      <trkpt lat="49.15895" lon="-0.22127">
        <ele>3</ele>
        <time>2024-05-26T07:14:55Z</time>
      </trkpt>
      <trkpt lat="49.15888" lon="-0.22129">
        <ele>3</ele>
        <time>2024-05-26T07:14:56Z</time>
      </trkpt>
      <trkpt lat="49.15882" lon="-0.22131">
        <ele>3</ele>
        <time>2024-05-26T07:14:57Z</time>
      </trkpt>
      <trkpt lat="49.15875" lon="-0.22133">
        <ele>3</ele>
        <time>2024-05-26T07:14:58Z</time>
      </trkpt>
      <trkpt lat="49.15868" lon="-0.22135">
        <ele>3.2</ele>
        <time>2024-05-26T07:14:59Z</time>
      </trkpt>
      <trkpt lat="49.15862" lon="-0.22137">
        <ele>3.2</ele>
        <time>2024-05-26T07:15:00Z</time>
      </trkpt>
      <trkpt lat="49.15855" lon="-0.22139">
        <ele>3.2</ele>
        <time>2024-05-26T07:15:01Z</time>
      </trkpt>
      <trkpt lat="49.15849" lon="-0.22141">
        <ele>3.2</ele>
        <time>2024-05-26T07:15:02Z</time>
      </trkpt>
      <trkpt lat="49.15842" lon="-0.22143">
        <ele>3.8</ele>
        <time>2024-05-26T07:15:03Z</time>
      </trkpt>
      <trkpt lat="49.15836" lon="-0.22145">
        <ele>4.2</ele>
        <time>2024-05-26T07:15:04Z</time>
      </trkpt>
      <trkpt lat="49.15829" lon="-0.22147">
        <ele>4.4</ele>
        <time>2024-05-26T07:15:05Z</time>
      </trkpt>
      <trkpt lat="49.15823" lon="-0.22149">
        <ele>4.4</ele>
        <time>2024-05-26T07:15:06Z</time>
      </trkpt>
      <trkpt lat="49.15816" lon="-0.22151">
        <ele>4.6</ele>
        <time>2024-05-26T07:15:07Z</time>
      </trkpt>
      <trkpt lat="49.1581" lon="-0.22153">
        <ele>4.8</ele>
        <time>2024-05-26T07:15:08Z</time>
      </trkpt>
      <trkpt lat="49.15803" lon="-0.22155">
        <ele>4.8</ele>
        <time>2024-05-26T07:15:09Z</time>
      </trkpt>
      <trkpt lat="49.15795" lon="-0.22156">
        <ele>5</ele>
        <time>2024-05-26T07:15:10Z</time>
      </trkpt>
      <trkpt lat="49.15788" lon="-0.22159">
        <ele>5</ele>
        <time>2024-05-26T07:15:11Z</time>
      </trkpt>
      <trkpt lat="49.15781" lon="-0.22161">
        <ele>5</ele>
        <time>2024-05-26T07:15:12Z</time>
      </trkpt>
      <trkpt lat="49.15773" lon="-0.22163">
        <ele>5</ele>
        <time>2024-05-26T07:15:13Z</time>
      </trkpt>
      <trkpt lat="49.15766" lon="-0.22165">
        <ele>5</ele>
        <time>2024-05-26T07:15:14Z</time>
      </trkpt>
      <trkpt lat="49.15759" lon="-0.22167">
        <ele>5</ele>
        <time>2024-05-26T07:15:15Z</time>
      </trkpt>
      <trkpt lat="49.15751" lon="-0.22169">
        <ele>5</ele>
        <time>2024-05-26T07:15:16Z</time>
      </trkpt>
      <trkpt lat="49.15744" lon="-0.22171">
        <ele>5</ele>
        <time>2024-05-26T07:15:17Z</time>
      </trkpt>
      <trkpt lat="49.15736" lon="-0.22172">
        <ele>4.8</ele>
        <time>2024-05-26T07:15:18Z</time>
      </trkpt>
      <trkpt lat="49.15729" lon="-0.22173">
        <ele>4.6</ele>
        <time>2024-05-26T07:15:19Z</time>
      </trkpt>
      <trkpt lat="49.15721" lon="-0.22174">
        <ele>4.6</ele>
        <time>2024-05-26T07:15:20Z</time>
      </trkpt>
      <trkpt lat="49.15714" lon="-0.22174">
        <ele>4.6</ele>
        <time>2024-05-26T07:15:21Z</time>
      </trkpt>
      <trkpt lat="49.15706" lon="-0.22174">
        <ele>4.4</ele>
        <time>2024-05-26T07:15:22Z</time>
      </trkpt>
      <trkpt lat="49.15699" lon="-0.22173">
        <ele>4</ele>
        <time>2024-05-26T07:15:23Z</time>
      </trkpt>
      <trkpt lat="49.15691" lon="-0.22171">
        <ele>3.6</ele>
        <time>2024-05-26T07:15:24Z</time>
      </trkpt>
      <trkpt lat="49.15684" lon="-0.2217">
        <ele>3.6</ele>
        <time>2024-05-26T07:15:25Z</time>
      </trkpt>
      <trkpt lat="49.15676" lon="-0.22168">
        <ele>3.4</ele>
        <time>2024-05-26T07:15:26Z</time>
      </trkpt>
      <trkpt lat="49.15669" lon="-0.22167">
        <ele>3.4</ele>
        <time>2024-05-26T07:15:27Z</time>
      </trkpt>
      <trkpt lat="49.15661" lon="-0.22165">
        <ele>3.2</ele>
        <time>2024-05-26T07:15:28Z</time>
      </trkpt>
      <trkpt lat="49.15653" lon="-0.22164">
        <ele>3.2</ele>
        <time>2024-05-26T07:15:29Z</time>
      </trkpt>
      <trkpt lat="49.15646" lon="-0.22162">
        <ele>3</ele>
        <time>2024-05-26T07:15:30Z</time>
      </trkpt>
      <trkpt lat="49.15638" lon="-0.22161">
        <ele>2.8</ele>
        <time>2024-05-26T07:15:31Z</time>
      </trkpt>
      <trkpt lat="49.15631" lon="-0.22159">
        <ele>2.6</ele>
        <time>2024-05-26T07:15:32Z</time>
      </trkpt>
      <trkpt lat="49.15623" lon="-0.22158">
        <ele>2.4</ele>
        <time>2024-05-26T07:15:33Z</time>
      </trkpt>
      <trkpt lat="49.15616" lon="-0.22156">
        <ele>2.4</ele>
        <time>2024-05-26T07:15:34Z</time>
      </trkpt>
      <trkpt lat="49.15609" lon="-0.22155">
        <ele>2.2</ele>
        <time>2024-05-26T07:15:35Z</time>
      </trkpt>
      <trkpt lat="49.15601" lon="-0.22153">
        <ele>2.2</ele>
        <time>2024-05-26T07:15:36Z</time>
      </trkpt>
      <trkpt lat="49.15594" lon="-0.22152">
        <ele>2.2</ele>
        <time>2024-05-26T07:15:37Z</time>
      </trkpt>
      <trkpt lat="49.15587" lon="-0.2215">
        <ele>2</ele>
        <time>2024-05-26T07:15:38Z</time>
      </trkpt>
      <trkpt lat="49.15579" lon="-0.22148">
        <ele>2</ele>
        <time>2024-05-26T07:15:39Z</time>
      </trkpt>
      <trkpt lat="49.15572" lon="-0.22146">
        <ele>2</ele>
        <time>2024-05-26T07:15:40Z</time>
      </trkpt>
      <trkpt lat="49.15564" lon="-0.22145">
        <ele>1.8</ele>
        <time>2024-05-26T07:15:41Z</time>
      </trkpt>
      <trkpt lat="49.15557" lon="-0.22144">
        <ele>1.8</ele>
        <time>2024-05-26T07:15:42Z</time>
      </trkpt>
      <trkpt lat="49.15549" lon="-0.22144">
        <ele>1.8</ele>
        <time>2024-05-26T07:15:43Z</time>
      </trkpt>
      <trkpt lat="49.15542" lon="-0.22143">
        <ele>1.8</ele>
        <time>2024-05-26T07:15:44Z</time>
      </trkpt>
      <trkpt lat="49.15534" lon="-0.22142">
        <ele>1.8</ele>
        <time>2024-05-26T07:15:45Z</time>
      </trkpt>
      <trkpt lat="49.15527" lon="-0.22141">
        <ele>1.8</ele>
        <time>2024-05-26T07:15:46Z</time>
      </trkpt>
      <trkpt lat="49.1552" lon="-0.2214">
        <ele>1.8</ele>
        <time>2024-05-26T07:15:47Z</time>
      </trkpt>
      <trkpt lat="49.15512" lon="-0.22139">
        <ele>1.8</ele>
        <time>2024-05-26T07:15:48Z</time>
      </trkpt>
      <trkpt lat="49.15505" lon="-0.22139">
        <ele>1.6</ele>
        <time>2024-05-26T07:15:49Z</time>
      </trkpt>
      <trkpt lat="49.15497" lon="-0.22139">
        <ele>1.6</ele>
        <time>2024-05-26T07:15:50Z</time>
      </trkpt>
      <trkpt lat="49.1549" lon="-0.22138">
        <ele>1.4</ele>
        <time>2024-05-26T07:15:51Z</time>
      </trkpt>
      <trkpt lat="49.15483" lon="-0.22138">
        <ele>1.4</ele>
        <time>2024-05-26T07:15:52Z</time>
      </trkpt>
      <trkpt lat="49.15475" lon="-0.22137">
        <ele>1.4</ele>
        <time>2024-05-26T07:15:53Z</time>
      </trkpt>
      <trkpt lat="49.15468" lon="-0.22137">
        <ele>1.4</ele>
        <time>2024-05-26T07:15:54Z</time>
      </trkpt>
      <trkpt lat="49.15461" lon="-0.22137">
        <ele>1.4</ele>
        <time>2024-05-26T07:15:55Z</time>
      </trkpt>
      <trkpt lat="49.15454" lon="-0.22136">
        <ele>1.4</ele>
        <time>2024-05-26T07:15:56Z</time>
      </trkpt>
      <trkpt lat="49.15446" lon="-0.22136">
        <ele>1.4</ele>
        <time>2024-05-26T07:15:57Z</time>
      </trkpt>
      <trkpt lat="49.15439" lon="-0.22136">
        <ele>1.4</ele>
        <time>2024-05-26T07:15:58Z</time>
      </trkpt>
      <trkpt lat="49.15432" lon="-0.22136">
        <ele>1.4</ele>
        <time>2024-05-26T07:15:59Z</time>
      </trkpt>
      <trkpt lat="49.15425" lon="-0.22136">
        <ele>1.4</ele>
        <time>2024-05-26T07:16:00Z</time>
      </trkpt>
      <trkpt lat="49.15418" lon="-0.22136">
        <ele>1.4</ele>
        <time>2024-05-26T07:16:01Z</time>
      </trkpt>
      <trkpt lat="49.1541" lon="-0.22137">
        <ele>1.4</ele>
        <time>2024-05-26T07:16:02Z</time>
      </trkpt>
      <trkpt lat="49.15403" lon="-0.22139">
        <ele>1.4</ele>
        <time>2024-05-26T07:16:03Z</time>
      </trkpt>
      <trkpt lat="49.15397" lon="-0.22143">
        <ele>1.4</ele>
        <time>2024-05-26T07:16:04Z</time>
      </trkpt>
      <trkpt lat="49.15391" lon="-0.22148">
        <ele>1.4</ele>
        <time>2024-05-26T07:16:05Z</time>
      </trkpt>
      <trkpt lat="49.15385" lon="-0.22154">
        <ele>1.4</ele>
        <time>2024-05-26T07:16:06Z</time>
      </trkpt>
      <trkpt lat="49.1538" lon="-0.22161">
        <ele>1.4</ele>
        <time>2024-05-26T07:16:07Z</time>
      </trkpt>
      <trkpt lat="49.15375" lon="-0.22169">
        <ele>1.4</ele>
        <time>2024-05-26T07:16:08Z</time>
      </trkpt>
      <trkpt lat="49.1537" lon="-0.22176">
        <ele>1.4</ele>
        <time>2024-05-26T07:16:09Z</time>
      </trkpt>
      <trkpt lat="49.15365" lon="-0.22184">
        <ele>1.4</ele>
        <time>2024-05-26T07:16:10Z</time>
      </trkpt>
      <trkpt lat="49.1536" lon="-0.22191">
        <ele>1.4</ele>
        <time>2024-05-26T07:16:11Z</time>
      </trkpt>
      <trkpt lat="49.15355" lon="-0.22199">
        <ele>1.4</ele>
        <time>2024-05-26T07:16:12Z</time>
      </trkpt>
      <trkpt lat="49.15351" lon="-0.22206">
        <ele>1.4</ele>
        <time>2024-05-26T07:16:13Z</time>
      </trkpt>
      <trkpt lat="49.15346" lon="-0.22214">
        <ele>1.4</ele>
        <time>2024-05-26T07:16:14Z</time>
      </trkpt>
      <trkpt lat="49.15341" lon="-0.22222">
        <ele>1.4</ele>
        <time>2024-05-26T07:16:15Z</time>
      </trkpt>
      <trkpt lat="49.15337" lon="-0.22229">
        <ele>1.4</ele>
        <time>2024-05-26T07:16:16Z</time>
      </trkpt>
      <trkpt lat="49.15333" lon="-0.22236">
        <ele>1.4</ele>
        <time>2024-05-26T07:16:17Z</time>
      </trkpt>
      <trkpt lat="49.15329" lon="-0.22243">
        <ele>1.4</ele>
        <time>2024-05-26T07:16:18Z</time>
      </trkpt>
      <trkpt lat="49.15325" lon="-0.2225">
        <ele>1.4</ele>
        <time>2024-05-26T07:16:19Z</time>
      </trkpt>
      <trkpt lat="49.15321" lon="-0.22258">
        <ele>1.4</ele>
        <time>2024-05-26T07:16:20Z</time>
      </trkpt>
      <trkpt lat="49.15317" lon="-0.22266">
        <ele>1.4</ele>
        <time>2024-05-26T07:16:21Z</time>
      </trkpt>
      <trkpt lat="49.15313" lon="-0.22274">
        <ele>1.4</ele>
        <time>2024-05-26T07:16:22Z</time>
      </trkpt>
      <trkpt lat="49.15311" lon="-0.22283">
        <ele>1.4</ele>
        <time>2024-05-26T07:16:23Z</time>
      </trkpt>
      <trkpt lat="49.15308" lon="-0.22292">
        <ele>1.4</ele>
        <time>2024-05-26T07:16:24Z</time>
      </trkpt>
      <trkpt lat="49.15306" lon="-0.223">
        <ele>1.4</ele>
        <time>2024-05-26T07:16:25Z</time>
      </trkpt>
      <trkpt lat="49.15303" lon="-0.2231">
        <ele>1.4</ele>
        <time>2024-05-26T07:16:26Z</time>
      </trkpt>
      <trkpt lat="49.15301" lon="-0.22319">
        <ele>1.4</ele>
        <time>2024-05-26T07:16:27Z</time>
      </trkpt>
      <trkpt lat="49.15298" lon="-0.22328">
        <ele>1.4</ele>
        <time>2024-05-26T07:16:28Z</time>
      </trkpt>
      <trkpt lat="49.15295" lon="-0.22337">
        <ele>1.4</ele>
        <time>2024-05-26T07:16:29Z</time>
      </trkpt>
      <trkpt lat="49.15293" lon="-0.22346">
        <ele>1.4</ele>
        <time>2024-05-26T07:16:30Z</time>
      </trkpt>
      <trkpt lat="49.1529" lon="-0.22355">
        <ele>1.4</ele>
        <time>2024-05-26T07:16:31Z</time>
      </trkpt>
      <trkpt lat="49.15286" lon="-0.22363">
        <ele>1.4</ele>
        <time>2024-05-26T07:16:32Z</time>
      </trkpt>
      <trkpt lat="49.15282" lon="-0.2237">
        <ele>1.4</ele>
        <time>2024-05-26T07:16:33Z</time>
      </trkpt>
      <trkpt lat="49.15277" lon="-0.22376">
        <ele>1.4</ele>
        <time>2024-05-26T07:16:34Z</time>
      </trkpt>
      <trkpt lat="49.15271" lon="-0.22382">
        <ele>1.4</ele>
        <time>2024-05-26T07:16:35Z</time>
      </trkpt>
      <trkpt lat="49.15266" lon="-0.22388">
        <ele>1.4</ele>
        <time>2024-05-26T07:16:36Z</time>
      </trkpt>
      <trkpt lat="49.1526" lon="-0.22393">
        <ele>1.4</ele>
        <time>2024-05-26T07:16:37Z</time>
      </trkpt>
      <trkpt lat="49.15253" lon="-0.22401">
        <ele>1.4</ele>
        <time>2024-05-26T07:16:38Z</time>
      </trkpt>
      <trkpt lat="49.15249" lon="-0.22406">
        <ele>1.6</ele>
        <time>2024-05-26T07:16:39Z</time>
      </trkpt>
      <trkpt lat="49.15243" lon="-0.22412">
        <ele>1.6</ele>
        <time>2024-05-26T07:16:40Z</time>
      </trkpt>
      <trkpt lat="49.15238" lon="-0.22418">
        <ele>1.6</ele>
        <time>2024-05-26T07:16:41Z</time>
      </trkpt>
      <trkpt lat="49.15233" lon="-0.22425">
        <ele>1.6</ele>
        <time>2024-05-26T07:16:42Z</time>
      </trkpt>
      <trkpt lat="49.15228" lon="-0.22432">
        <ele>1.6</ele>
        <time>2024-05-26T07:16:43Z</time>
      </trkpt>
      <trkpt lat="49.15223" lon="-0.22439">
        <ele>1.6</ele>
        <time>2024-05-26T07:16:44Z</time>
      </trkpt>
      <trkpt lat="49.15219" lon="-0.22445">
        <ele>1.4</ele>
        <time>2024-05-26T07:16:45Z</time>
      </trkpt>
      <trkpt lat="49.15215" lon="-0.22452">
        <ele>1.4</ele>
        <time>2024-05-26T07:16:46Z</time>
      </trkpt>
      <trkpt lat="49.15211" lon="-0.22458">
        <ele>1.6</ele>
        <time>2024-05-26T07:16:47Z</time>
      </trkpt>
      <trkpt lat="49.15208" lon="-0.22464">
        <ele>1.6</ele>
        <time>2024-05-26T07:16:48Z</time>
      </trkpt>
      <trkpt lat="49.15205" lon="-0.22471">
        <ele>1.6</ele>
        <time>2024-05-26T07:16:49Z</time>
      </trkpt>
      <trkpt lat="49.15203" lon="-0.22478">
        <ele>1.8</ele>
        <time>2024-05-26T07:16:50Z</time>
      </trkpt>
      <trkpt lat="49.15204" lon="-0.22486">
        <ele>1.8</ele>
        <time>2024-05-26T07:16:51Z</time>
      </trkpt>
      <trkpt lat="49.15205" lon="-0.22493">
        <ele>1.6</ele>
        <time>2024-05-26T07:16:52Z</time>
      </trkpt>
      <trkpt lat="49.15208" lon="-0.22499">
        <ele>1.6</ele>
        <time>2024-05-26T07:16:53Z</time>
      </trkpt>
      <trkpt lat="49.15211" lon="-0.22506">
        <ele>2</ele>
        <time>2024-05-26T07:16:54Z</time>
      </trkpt>
      <trkpt lat="49.15214" lon="-0.22512">
        <ele>2</ele>
        <time>2024-05-26T07:16:55Z</time>
      </trkpt>
      <trkpt lat="49.15217" lon="-0.2252">
        <ele>2</ele>
        <time>2024-05-26T07:16:56Z</time>
      </trkpt>
      <trkpt lat="49.1522" lon="-0.22527">
        <ele>2</ele>
        <time>2024-05-26T07:16:57Z</time>
      </trkpt>
      <trkpt lat="49.15223" lon="-0.22534">
        <ele>2.2</ele>
        <time>2024-05-26T07:16:58Z</time>
      </trkpt>
      <trkpt lat="49.15226" lon="-0.22541">
        <ele>2.4</ele>
        <time>2024-05-26T07:16:59Z</time>
      </trkpt>
      <trkpt lat="49.1523" lon="-0.22548">
        <ele>2.6</ele>
        <time>2024-05-26T07:17:00Z</time>
      </trkpt>
      <trkpt lat="49.15233" lon="-0.22555">
        <ele>2.6</ele>
        <time>2024-05-26T07:17:01Z</time>
      </trkpt>
      <trkpt lat="49.15237" lon="-0.22562">
        <ele>2.8</ele>
        <time>2024-05-26T07:17:02Z</time>
      </trkpt>
      <trkpt lat="49.1524" lon="-0.22569">
        <ele>3</ele>
        <time>2024-05-26T07:17:03Z</time>
      </trkpt>
      <trkpt lat="49.15244" lon="-0.22577">
        <ele>3</ele>
        <time>2024-05-26T07:17:04Z</time>
      </trkpt>
      <trkpt lat="49.15247" lon="-0.22584">
        <ele>3.2</ele>
        <time>2024-05-26T07:17:05Z</time>
      </trkpt>
      <trkpt lat="49.15251" lon="-0.22592">
        <ele>3.2</ele>
        <time>2024-05-26T07:17:06Z</time>
      </trkpt>
      <trkpt lat="49.15255" lon="-0.22599">
        <ele>3.4</ele>
        <time>2024-05-26T07:17:07Z</time>
      </trkpt>
      <trkpt lat="49.15259" lon="-0.22606">
        <ele>3.4</ele>
        <time>2024-05-26T07:17:08Z</time>
      </trkpt>
      <trkpt lat="49.15262" lon="-0.22614">
        <ele>3.4</ele>
        <time>2024-05-26T07:17:09Z</time>
      </trkpt>
      <trkpt lat="49.15266" lon="-0.22622">
        <ele>3.4</ele>
        <time>2024-05-26T07:17:10Z</time>
      </trkpt>
      <trkpt lat="49.1527" lon="-0.22629">
        <ele>3.6</ele>
        <time>2024-05-26T07:17:11Z</time>
      </trkpt>
      <trkpt lat="49.15274" lon="-0.22637">
        <ele>3.6</ele>
        <time>2024-05-26T07:17:12Z</time>
      </trkpt>
      <trkpt lat="49.15278" lon="-0.22645">
        <ele>3.6</ele>
        <time>2024-05-26T07:17:13Z</time>
      </trkpt>
      <trkpt lat="49.15281" lon="-0.22653">
        <ele>3.8</ele>
        <time>2024-05-26T07:17:14Z</time>
      </trkpt>
      <trkpt lat="49.15285" lon="-0.22661">
        <ele>3.8</ele>
        <time>2024-05-26T07:17:15Z</time>
      </trkpt>
      <trkpt lat="49.15289" lon="-0.22669">
        <ele>3.8</ele>
        <time>2024-05-26T07:17:16Z</time>
      </trkpt>
      <trkpt lat="49.15292" lon="-0.22678">
        <ele>3.8</ele>
        <time>2024-05-26T07:17:17Z</time>
      </trkpt>
      <trkpt lat="49.15296" lon="-0.22688">
        <ele>3.8</ele>
        <time>2024-05-26T07:17:18Z</time>
      </trkpt>
      <trkpt lat="49.15298" lon="-0.22696">
        <ele>4</ele>
        <time>2024-05-26T07:17:19Z</time>
      </trkpt>
      <trkpt lat="49.153" lon="-0.22705">
        <ele>4.4</ele>
        <time>2024-05-26T07:17:20Z</time>
      </trkpt>
      <trkpt lat="49.153" lon="-0.22714">
        <ele>4.4</ele>
        <time>2024-05-26T07:17:21Z</time>
      </trkpt>
      <trkpt lat="49.15301" lon="-0.22722">
        <ele>4.6</ele>
        <time>2024-05-26T07:17:22Z</time>
      </trkpt>
      <trkpt lat="49.153" lon="-0.2273">
        <ele>5</ele>
        <time>2024-05-26T07:17:23Z</time>
      </trkpt>
      <trkpt lat="49.15298" lon="-0.22738">
        <ele>5</ele>
        <time>2024-05-26T07:17:24Z</time>
      </trkpt>
      <trkpt lat="49.15296" lon="-0.22745">
        <ele>5.2</ele>
        <time>2024-05-26T07:17:25Z</time>
      </trkpt>
      <trkpt lat="49.15295" lon="-0.22753">
        <ele>5.4</ele>
        <time>2024-05-26T07:17:26Z</time>
      </trkpt>
      <trkpt lat="49.15293" lon="-0.22761">
        <ele>5.6</ele>
        <time>2024-05-26T07:17:27Z</time>
      </trkpt>
      <trkpt lat="49.15291" lon="-0.22769">
        <ele>5.8</ele>
        <time>2024-05-26T07:17:28Z</time>
      </trkpt>
      <trkpt lat="49.15289" lon="-0.22777">
        <ele>5.8</ele>
        <time>2024-05-26T07:17:29Z</time>
      </trkpt>
      <trkpt lat="49.15288" lon="-0.22786">
        <ele>6.2</ele>
        <time>2024-05-26T07:17:30Z</time>
      </trkpt>
      <trkpt lat="49.15286" lon="-0.22794">
        <ele>6.4</ele>
        <time>2024-05-26T07:17:31Z</time>
      </trkpt>
      <trkpt lat="49.15284" lon="-0.22803">
        <ele>6.6</ele>
        <time>2024-05-26T07:17:32Z</time>
      </trkpt>
      <trkpt lat="49.15282" lon="-0.22812">
        <ele>6.8</ele>
        <time>2024-05-26T07:17:33Z</time>
      </trkpt>
      <trkpt lat="49.1528" lon="-0.22821">
        <ele>6.8</ele>
        <time>2024-05-26T07:17:34Z</time>
      </trkpt>
      <trkpt lat="49.15278" lon="-0.2283">
        <ele>7</ele>
        <time>2024-05-26T07:17:35Z</time>
      </trkpt>
      <trkpt lat="49.15277" lon="-0.22839">
        <ele>7</ele>
        <time>2024-05-26T07:17:36Z</time>
      </trkpt>
      <trkpt lat="49.15274" lon="-0.22849">
        <ele>7</ele>
        <time>2024-05-26T07:17:37Z</time>
      </trkpt>
      <trkpt lat="49.15272" lon="-0.22858">
        <ele>7.2</ele>
        <time>2024-05-26T07:17:38Z</time>
      </trkpt>
      <trkpt lat="49.1527" lon="-0.22868">
        <ele>7.2</ele>
        <time>2024-05-26T07:17:39Z</time>
      </trkpt>
      <trkpt lat="49.15268" lon="-0.22877">
        <ele>7.4</ele>
        <time>2024-05-26T07:17:40Z</time>
      </trkpt>
      <trkpt lat="49.15266" lon="-0.22885">
        <ele>7.4</ele>
        <time>2024-05-26T07:17:41Z</time>
      </trkpt>
      <trkpt lat="49.15264" lon="-0.22894">
        <ele>7.6</ele>
        <time>2024-05-26T07:17:42Z</time>
      </trkpt>
      <trkpt lat="49.15262" lon="-0.22904">
        <ele>7.8</ele>
        <time>2024-05-26T07:17:43Z</time>
      </trkpt>
      <trkpt lat="49.1526" lon="-0.22913">
        <ele>7.8</ele>
        <time>2024-05-26T07:17:44Z</time>
      </trkpt>
      <trkpt lat="49.15258" lon="-0.22922">
        <ele>8</ele>
        <time>2024-05-26T07:17:45Z</time>
      </trkpt>
      <trkpt lat="49.15256" lon="-0.22931">
        <ele>8</ele>
        <time>2024-05-26T07:17:46Z</time>
      </trkpt>
      <trkpt lat="49.15254" lon="-0.2294">
        <ele>8</ele>
        <time>2024-05-26T07:17:47Z</time>
      </trkpt>
      <trkpt lat="49.15252" lon="-0.22949">
        <ele>8.2</ele>
        <time>2024-05-26T07:17:48Z</time>
      </trkpt>
      <trkpt lat="49.1525" lon="-0.22958">
        <ele>8.2</ele>
        <time>2024-05-26T07:17:49Z</time>
      </trkpt>
      <trkpt lat="49.15248" lon="-0.22968">
        <ele>8.4</ele>
        <time>2024-05-26T07:17:50Z</time>
      </trkpt>
      <trkpt lat="49.15247" lon="-0.22977">
        <ele>8.6</ele>
        <time>2024-05-26T07:17:51Z</time>
      </trkpt>
      <trkpt lat="49.15244" lon="-0.22987">
        <ele>8.6</ele>
        <time>2024-05-26T07:17:52Z</time>
      </trkpt>
      <trkpt lat="49.15242" lon="-0.22996">
        <ele>8.6</ele>
        <time>2024-05-26T07:17:53Z</time>
      </trkpt>
      <trkpt lat="49.15241" lon="-0.23006">
        <ele>8.8</ele>
        <time>2024-05-26T07:17:54Z</time>
      </trkpt>
      <trkpt lat="49.15239" lon="-0.23015">
        <ele>8.8</ele>
        <time>2024-05-26T07:17:55Z</time>
      </trkpt>
      <trkpt lat="49.15237" lon="-0.23024">
        <ele>8.8</ele>
        <time>2024-05-26T07:17:56Z</time>
      </trkpt>
      <trkpt lat="49.15235" lon="-0.23034">
        <ele>8.8</ele>
        <time>2024-05-26T07:17:57Z</time>
      </trkpt>
      <trkpt lat="49.15233" lon="-0.23044">
        <ele>8.8</ele>
        <time>2024-05-26T07:17:58Z</time>
      </trkpt>
      <trkpt lat="49.15231" lon="-0.23053">
        <ele>8.8</ele>
        <time>2024-05-26T07:17:59Z</time>
      </trkpt>
      <trkpt lat="49.15229" lon="-0.23063">
        <ele>8.8</ele>
        <time>2024-05-26T07:18:00Z</time>
      </trkpt>
      <trkpt lat="49.15227" lon="-0.23073">
        <ele>8.8</ele>
        <time>2024-05-26T07:18:01Z</time>
      </trkpt>
      <trkpt lat="49.15224" lon="-0.23082">
        <ele>8.8</ele>
        <time>2024-05-26T07:18:02Z</time>
      </trkpt>
      <trkpt lat="49.15222" lon="-0.23092">
        <ele>9</ele>
        <time>2024-05-26T07:18:03Z</time>
      </trkpt>
      <trkpt lat="49.1522" lon="-0.23102">
        <ele>9.2</ele>
        <time>2024-05-26T07:18:04Z</time>
      </trkpt>
      <trkpt lat="49.15218" lon="-0.23112">
        <ele>9.2</ele>
        <time>2024-05-26T07:18:05Z</time>
      </trkpt>
      <trkpt lat="49.15216" lon="-0.23121">
        <ele>9.2</ele>
        <time>2024-05-26T07:18:06Z</time>
      </trkpt>
      <trkpt lat="49.15214" lon="-0.2313">
        <ele>9.4</ele>
        <time>2024-05-26T07:18:07Z</time>
      </trkpt>
      <trkpt lat="49.15212" lon="-0.2314">
        <ele>9.4</ele>
        <time>2024-05-26T07:18:08Z</time>
      </trkpt>
      <trkpt lat="49.1521" lon="-0.23149">
        <ele>9.4</ele>
        <time>2024-05-26T07:18:09Z</time>
      </trkpt>
      <trkpt lat="49.15209" lon="-0.23159">
        <ele>9.4</ele>
        <time>2024-05-26T07:18:10Z</time>
      </trkpt>
      <trkpt lat="49.15207" lon="-0.23169">
        <ele>9.4</ele>
        <time>2024-05-26T07:18:11Z</time>
      </trkpt>
      <trkpt lat="49.15205" lon="-0.23178">
        <ele>9.4</ele>
        <time>2024-05-26T07:18:12Z</time>
      </trkpt>
      <trkpt lat="49.15203" lon="-0.23188">
        <ele>9.4</ele>
        <time>2024-05-26T07:18:13Z</time>
      </trkpt>
      <trkpt lat="49.15201" lon="-0.23198">
        <ele>9.4</ele>
        <time>2024-05-26T07:18:14Z</time>
      </trkpt>
      <trkpt lat="49.15199" lon="-0.23208">
        <ele>9.4</ele>
        <time>2024-05-26T07:18:15Z</time>
      </trkpt>
      <trkpt lat="49.15197" lon="-0.23218">
        <ele>9.6</ele>
        <time>2024-05-26T07:18:16Z</time>
      </trkpt>
      <trkpt lat="49.15195" lon="-0.23228">
        <ele>9.6</ele>
        <time>2024-05-26T07:18:17Z</time>
      </trkpt>
      <trkpt lat="49.15193" lon="-0.23238">
        <ele>9.6</ele>
        <time>2024-05-26T07:18:18Z</time>
      </trkpt>
      <trkpt lat="49.15191" lon="-0.23248">
        <ele>9.8</ele>
        <time>2024-05-26T07:18:19Z</time>
      </trkpt>
      <trkpt lat="49.15188" lon="-0.23259">
        <ele>10</ele>
        <time>2024-05-26T07:18:20Z</time>
      </trkpt>
      <trkpt lat="49.15187" lon="-0.23267">
        <ele>10</ele>
        <time>2024-05-26T07:18:21Z</time>
      </trkpt>
      <trkpt lat="49.15185" lon="-0.23277">
        <ele>10</ele>
        <time>2024-05-26T07:18:22Z</time>
      </trkpt>
      <trkpt lat="49.15183" lon="-0.23287">
        <ele>10.2</ele>
        <time>2024-05-26T07:18:23Z</time>
      </trkpt>
      <trkpt lat="49.15181" lon="-0.23296">
        <ele>10.2</ele>
        <time>2024-05-26T07:18:24Z</time>
      </trkpt>
      <trkpt lat="49.15179" lon="-0.23306">
        <ele>10.2</ele>
        <time>2024-05-26T07:18:25Z</time>
      </trkpt>
      <trkpt lat="49.15176" lon="-0.23316">
        <ele>10.2</ele>
        <time>2024-05-26T07:18:26Z</time>
      </trkpt>
      <trkpt lat="49.15174" lon="-0.23326">
        <ele>10.2</ele>
        <time>2024-05-26T07:18:27Z</time>
      </trkpt>
      <trkpt lat="49.15172" lon="-0.23335">
        <ele>10.2</ele>
        <time>2024-05-26T07:18:28Z</time>
      </trkpt>
      <trkpt lat="49.1517" lon="-0.23344">
        <ele>10.2</ele>
        <time>2024-05-26T07:18:29Z</time>
      </trkpt>
      <trkpt lat="49.15168" lon="-0.23354">
        <ele>10.2</ele>
        <time>2024-05-26T07:18:30Z</time>
      </trkpt>
      <trkpt lat="49.15166" lon="-0.23363">
        <ele>10.2</ele>
        <time>2024-05-26T07:18:31Z</time>
      </trkpt>
      <trkpt lat="49.15164" lon="-0.23373">
        <ele>10.2</ele>
        <time>2024-05-26T07:18:32Z</time>
      </trkpt>
      <trkpt lat="49.15162" lon="-0.23383">
        <ele>10.2</ele>
        <time>2024-05-26T07:18:33Z</time>
      </trkpt>
      <trkpt lat="49.1516" lon="-0.23392">
        <ele>10.2</ele>
        <time>2024-05-26T07:18:34Z</time>
      </trkpt>
      <trkpt lat="49.15159" lon="-0.23402">
        <ele>10.2</ele>
        <time>2024-05-26T07:18:35Z</time>
      </trkpt>
      <trkpt lat="49.15157" lon="-0.23411">
        <ele>10.2</ele>
        <time>2024-05-26T07:18:36Z</time>
      </trkpt>
      <trkpt lat="49.15155" lon="-0.23421">
        <ele>10.2</ele>
        <time>2024-05-26T07:18:37Z</time>
      </trkpt>
      <trkpt lat="49.15153" lon="-0.2343">
        <ele>10.4</ele>
        <time>2024-05-26T07:18:38Z</time>
      </trkpt>
      <trkpt lat="49.15152" lon="-0.2344">
        <ele>10.4</ele>
        <time>2024-05-26T07:18:39Z</time>
      </trkpt>
      <trkpt lat="49.1515" lon="-0.23449">
        <ele>10.4</ele>
        <time>2024-05-26T07:18:40Z</time>
      </trkpt>
      <trkpt lat="49.15148" lon="-0.23459">
        <ele>10.4</ele>
        <time>2024-05-26T07:18:41Z</time>
      </trkpt>
      <trkpt lat="49.15146" lon="-0.23468">
        <ele>10.4</ele>
        <time>2024-05-26T07:18:42Z</time>
      </trkpt>
      <trkpt lat="49.15144" lon="-0.23478">
        <ele>10.4</ele>
        <time>2024-05-26T07:18:43Z</time>
      </trkpt>
      <trkpt lat="49.15143" lon="-0.23488">
        <ele>10.6</ele>
        <time>2024-05-26T07:18:44Z</time>
      </trkpt>
      <trkpt lat="49.1514" lon="-0.23497">
        <ele>10.6</ele>
        <time>2024-05-26T07:18:45Z</time>
      </trkpt>
      <trkpt lat="49.15138" lon="-0.23506">
        <ele>10.6</ele>
        <time>2024-05-26T07:18:46Z</time>
      </trkpt>
      <trkpt lat="49.15136" lon="-0.23515">
        <ele>10.6</ele>
        <time>2024-05-26T07:18:47Z</time>
      </trkpt>
      <trkpt lat="49.15134" lon="-0.23524">
        <ele>10.8</ele>
        <time>2024-05-26T07:18:48Z</time>
      </trkpt>
      <trkpt lat="49.15133" lon="-0.23533">
        <ele>10.8</ele>
        <time>2024-05-26T07:18:49Z</time>
      </trkpt>
      <trkpt lat="49.15131" lon="-0.23542">
        <ele>10.8</ele>
        <time>2024-05-26T07:18:50Z</time>
      </trkpt>
      <trkpt lat="49.15129" lon="-0.23551">
        <ele>10.8</ele>
        <time>2024-05-26T07:18:51Z</time>
      </trkpt>
      <trkpt lat="49.15126" lon="-0.2356">
        <ele>11</ele>
        <time>2024-05-26T07:18:52Z</time>
      </trkpt>
      <trkpt lat="49.15124" lon="-0.23569">
        <ele>11</ele>
        <time>2024-05-26T07:18:53Z</time>
      </trkpt>
      <trkpt lat="49.15122" lon="-0.23578">
        <ele>11</ele>
        <time>2024-05-26T07:18:54Z</time>
      </trkpt>
      <trkpt lat="49.1512" lon="-0.23587">
        <ele>11.4</ele>
        <time>2024-05-26T07:18:55Z</time>
      </trkpt>
      <trkpt lat="49.15118" lon="-0.23596">
        <ele>11.6</ele>
        <time>2024-05-26T07:18:56Z</time>
      </trkpt>
      <trkpt lat="49.15115" lon="-0.23606">
        <ele>12</ele>
        <time>2024-05-26T07:18:57Z</time>
      </trkpt>
      <trkpt lat="49.15113" lon="-0.23615">
        <ele>12.2</ele>
        <time>2024-05-26T07:18:58Z</time>
      </trkpt>
      <trkpt lat="49.1511" lon="-0.23625">
        <ele>12.4</ele>
        <time>2024-05-26T07:18:59Z</time>
      </trkpt>
      <trkpt lat="49.15108" lon="-0.23635">
        <ele>12.4</ele>
        <time>2024-05-26T07:19:00Z</time>
      </trkpt>
      <trkpt lat="49.15105" lon="-0.23645">
        <ele>12.8</ele>
        <time>2024-05-26T07:19:01Z</time>
      </trkpt>
      <trkpt lat="49.15102" lon="-0.23655">
        <ele>12.8</ele>
        <time>2024-05-26T07:19:02Z</time>
      </trkpt>
      <trkpt lat="49.15099" lon="-0.23665">
        <ele>13</ele>
        <time>2024-05-26T07:19:03Z</time>
      </trkpt>
      <trkpt lat="49.15096" lon="-0.23675">
        <ele>13.4</ele>
        <time>2024-05-26T07:19:04Z</time>
      </trkpt>
      <trkpt lat="49.15093" lon="-0.23684">
        <ele>13.8</ele>
        <time>2024-05-26T07:19:05Z</time>
      </trkpt>
      <trkpt lat="49.1509" lon="-0.23695">
        <ele>14.2</ele>
        <time>2024-05-26T07:19:06Z</time>
      </trkpt>
      <trkpt lat="49.15087" lon="-0.23705">
        <ele>14.4</ele>
        <time>2024-05-26T07:19:07Z</time>
      </trkpt>
      <trkpt lat="49.15084" lon="-0.23715">
        <ele>14.6</ele>
        <time>2024-05-26T07:19:08Z</time>
      </trkpt>
      <trkpt lat="49.15081" lon="-0.23725">
        <ele>14.8</ele>
        <time>2024-05-26T07:19:09Z</time>
      </trkpt>
      <trkpt lat="49.15078" lon="-0.23736">
        <ele>15</ele>
        <time>2024-05-26T07:19:10Z</time>
      </trkpt>
      <trkpt lat="49.15075" lon="-0.23746">
        <ele>15</ele>
        <time>2024-05-26T07:19:11Z</time>
      </trkpt>
      <trkpt lat="49.15072" lon="-0.23757">
        <ele>15.2</ele>
        <time>2024-05-26T07:19:12Z</time>
      </trkpt>
      <trkpt lat="49.15069" lon="-0.23767">
        <ele>15.4</ele>
        <time>2024-05-26T07:19:13Z</time>
      </trkpt>
      <trkpt lat="49.15066" lon="-0.23777">
        <ele>15.6</ele>
        <time>2024-05-26T07:19:14Z</time>
      </trkpt>
      <trkpt lat="49.15063" lon="-0.23787">
        <ele>15.6</ele>
        <time>2024-05-26T07:19:15Z</time>
      </trkpt>
      <trkpt lat="49.1506" lon="-0.23796">
        <ele>16</ele>
        <time>2024-05-26T07:19:16Z</time>
      </trkpt>
      <trkpt lat="49.15057" lon="-0.23806">
        <ele>16.2</ele>
        <time>2024-05-26T07:19:17Z</time>
      </trkpt>
      <trkpt lat="49.15054" lon="-0.23815">
        <ele>16.4</ele>
        <time>2024-05-26T07:19:18Z</time>
      </trkpt>
      <trkpt lat="49.15051" lon="-0.23825">
        <ele>16.6</ele>
        <time>2024-05-26T07:19:19Z</time>
      </trkpt>
      <trkpt lat="49.15049" lon="-0.23834">
        <ele>16.8</ele>
        <time>2024-05-26T07:19:20Z</time>
      </trkpt>
      <trkpt lat="49.15046" lon="-0.23843">
        <ele>16.8</ele>
        <time>2024-05-26T07:19:21Z</time>
      </trkpt>
      <trkpt lat="49.15044" lon="-0.23853">
        <ele>16.8</ele>
        <time>2024-05-26T07:19:22Z</time>
      </trkpt>
      <trkpt lat="49.15042" lon="-0.23862">
        <ele>17</ele>
        <time>2024-05-26T07:19:23Z</time>
      </trkpt>
      <trkpt lat="49.15039" lon="-0.23871">
        <ele>17.2</ele>
        <time>2024-05-26T07:19:24Z</time>
      </trkpt>
      <trkpt lat="49.15038" lon="-0.23881">
        <ele>17.2</ele>
        <time>2024-05-26T07:19:25Z</time>
      </trkpt>
      <trkpt lat="49.15036" lon="-0.2389">
        <ele>17.2</ele>
        <time>2024-05-26T07:19:26Z</time>
      </trkpt>
      <trkpt lat="49.15034" lon="-0.23899">
        <ele>17.4</ele>
        <time>2024-05-26T07:19:27Z</time>
      </trkpt>
      <trkpt lat="49.15033" lon="-0.23908">
        <ele>17.4</ele>
        <time>2024-05-26T07:19:28Z</time>
      </trkpt>
      <trkpt lat="49.15032" lon="-0.23916">
        <ele>17.4</ele>
        <time>2024-05-26T07:19:29Z</time>
      </trkpt>
      <trkpt lat="49.15031" lon="-0.23925">
        <ele>17.4</ele>
        <time>2024-05-26T07:19:30Z</time>
      </trkpt>
      <trkpt lat="49.1503" lon="-0.23934">
        <ele>17.4</ele>
        <time>2024-05-26T07:19:31Z</time>
      </trkpt>
      <trkpt lat="49.15029" lon="-0.23943">
        <ele>17.4</ele>
        <time>2024-05-26T07:19:32Z</time>
      </trkpt>
      <trkpt lat="49.15029" lon="-0.23953">
        <ele>17.4</ele>
        <time>2024-05-26T07:19:33Z</time>
      </trkpt>
      <trkpt lat="49.15028" lon="-0.23962">
        <ele>17.4</ele>
        <time>2024-05-26T07:19:34Z</time>
      </trkpt>
      <trkpt lat="49.15028" lon="-0.23971">
        <ele>17.2</ele>
        <time>2024-05-26T07:19:35Z</time>
      </trkpt>
      <trkpt lat="49.15027" lon="-0.23981">
        <ele>17</ele>
        <time>2024-05-26T07:19:36Z</time>
      </trkpt>
      <trkpt lat="49.15027" lon="-0.23991">
        <ele>16.8</ele>
        <time>2024-05-26T07:19:37Z</time>
      </trkpt>
      <trkpt lat="49.15026" lon="-0.24001">
        <ele>16.6</ele>
        <time>2024-05-26T07:19:38Z</time>
      </trkpt>
      <trkpt lat="49.15026" lon="-0.2401">
        <ele>16.6</ele>
        <time>2024-05-26T07:19:39Z</time>
      </trkpt>
      <trkpt lat="49.15025" lon="-0.2402">
        <ele>16.6</ele>
        <time>2024-05-26T07:19:40Z</time>
      </trkpt>
      <trkpt lat="49.15025" lon="-0.24031">
        <ele>16.4</ele>
        <time>2024-05-26T07:19:41Z</time>
      </trkpt>
      <trkpt lat="49.15024" lon="-0.24041">
        <ele>16.4</ele>
        <time>2024-05-26T07:19:42Z</time>
      </trkpt>
      <trkpt lat="49.15023" lon="-0.24051">
        <ele>16.4</ele>
        <time>2024-05-26T07:19:43Z</time>
      </trkpt>
      <trkpt lat="49.15022" lon="-0.24062">
        <ele>16.4</ele>
        <time>2024-05-26T07:19:44Z</time>
      </trkpt>
      <trkpt lat="49.15021" lon="-0.24073">
        <ele>16.4</ele>
        <time>2024-05-26T07:19:45Z</time>
      </trkpt>
      <trkpt lat="49.1502" lon="-0.24084">
        <ele>16.4</ele>
        <time>2024-05-26T07:19:46Z</time>
      </trkpt>
      <trkpt lat="49.15018" lon="-0.24095">
        <ele>16.4</ele>
        <time>2024-05-26T07:19:47Z</time>
      </trkpt>
      <trkpt lat="49.15016" lon="-0.24106">
        <ele>16.2</ele>
        <time>2024-05-26T07:19:48Z</time>
      </trkpt>
      <trkpt lat="49.15015" lon="-0.24117">
        <ele>16.2</ele>
        <time>2024-05-26T07:19:49Z</time>
      </trkpt>
      <trkpt lat="49.15013" lon="-0.24129">
        <ele>16.2</ele>
        <time>2024-05-26T07:19:50Z</time>
      </trkpt>
      <trkpt lat="49.15011" lon="-0.2414">
        <ele>16.2</ele>
        <time>2024-05-26T07:19:51Z</time>
      </trkpt>
      <trkpt lat="49.15008" lon="-0.24151">
        <ele>16</ele>
        <time>2024-05-26T07:19:52Z</time>
      </trkpt>
      <trkpt lat="49.15006" lon="-0.24162">
        <ele>16</ele>
        <time>2024-05-26T07:19:53Z</time>
      </trkpt>
      <trkpt lat="49.15003" lon="-0.24173">
        <ele>16</ele>
        <time>2024-05-26T07:19:54Z</time>
      </trkpt>
      <trkpt lat="49.15001" lon="-0.24184">
        <ele>16</ele>
        <time>2024-05-26T07:19:55Z</time>
      </trkpt>
      <trkpt lat="49.14999" lon="-0.24195">
        <ele>16</ele>
        <time>2024-05-26T07:19:56Z</time>
      </trkpt>
      <trkpt lat="49.14997" lon="-0.24206">
        <ele>16</ele>
        <time>2024-05-26T07:19:57Z</time>
      </trkpt>
      <trkpt lat="49.14995" lon="-0.24217">
        <ele>15.8</ele>
        <time>2024-05-26T07:19:58Z</time>
      </trkpt>
      <trkpt lat="49.14992" lon="-0.24228">
        <ele>15.8</ele>
        <time>2024-05-26T07:19:59Z</time>
      </trkpt>
      <trkpt lat="49.1499" lon="-0.24238">
        <ele>15.6</ele>
        <time>2024-05-26T07:20:00Z</time>
      </trkpt>
      <trkpt lat="49.14988" lon="-0.24249">
        <ele>15.6</ele>
        <time>2024-05-26T07:20:01Z</time>
      </trkpt>
      <trkpt lat="49.14985" lon="-0.2426">
        <ele>15.6</ele>
        <time>2024-05-26T07:20:02Z</time>
      </trkpt>
      <trkpt lat="49.14983" lon="-0.2427">
        <ele>15.4</ele>
        <time>2024-05-26T07:20:03Z</time>
      </trkpt>
      <trkpt lat="49.14981" lon="-0.24281">
        <ele>15.4</ele>
        <time>2024-05-26T07:20:04Z</time>
      </trkpt>
      <trkpt lat="49.14978" lon="-0.24292">
        <ele>15.2</ele>
        <time>2024-05-26T07:20:05Z</time>
      </trkpt>
      <trkpt lat="49.14976" lon="-0.24303">
        <ele>15.2</ele>
        <time>2024-05-26T07:20:06Z</time>
      </trkpt>
      <trkpt lat="49.14974" lon="-0.24314">
        <ele>15</ele>
        <time>2024-05-26T07:20:07Z</time>
      </trkpt>
      <trkpt lat="49.14971" lon="-0.24325">
        <ele>15</ele>
        <time>2024-05-26T07:20:08Z</time>
      </trkpt>
      <trkpt lat="49.14969" lon="-0.24337">
        <ele>15</ele>
        <time>2024-05-26T07:20:09Z</time>
      </trkpt>
      <trkpt lat="49.14966" lon="-0.24348">
        <ele>14.8</ele>
        <time>2024-05-26T07:20:10Z</time>
      </trkpt>
      <trkpt lat="49.14964" lon="-0.24359">
        <ele>14.8</ele>
        <time>2024-05-26T07:20:11Z</time>
      </trkpt>
      <trkpt lat="49.14961" lon="-0.24371">
        <ele>14.8</ele>
        <time>2024-05-26T07:20:12Z</time>
      </trkpt>
      <trkpt lat="49.14959" lon="-0.24382">
        <ele>14.6</ele>
        <time>2024-05-26T07:20:13Z</time>
      </trkpt>
      <trkpt lat="49.14956" lon="-0.24393">
        <ele>14.6</ele>
        <time>2024-05-26T07:20:14Z</time>
      </trkpt>
      <trkpt lat="49.14954" lon="-0.24404">
        <ele>14.6</ele>
        <time>2024-05-26T07:20:15Z</time>
      </trkpt>
      <trkpt lat="49.14951" lon="-0.24416">
        <ele>14.6</ele>
        <time>2024-05-26T07:20:16Z</time>
      </trkpt>
      <trkpt lat="49.14948" lon="-0.24427">
        <ele>14.4</ele>
        <time>2024-05-26T07:20:17Z</time>
      </trkpt>
      <trkpt lat="49.14946" lon="-0.24438">
        <ele>14.4</ele>
        <time>2024-05-26T07:20:18Z</time>
      </trkpt>
      <trkpt lat="49.14943" lon="-0.2445">
        <ele>14.4</ele>
        <time>2024-05-26T07:20:19Z</time>
      </trkpt>
      <trkpt lat="49.1494" lon="-0.24461">
        <ele>14.2</ele>
        <time>2024-05-26T07:20:20Z</time>
      </trkpt>
      <trkpt lat="49.14938" lon="-0.24472">
        <ele>14.2</ele>
        <time>2024-05-26T07:20:21Z</time>
      </trkpt>
      <trkpt lat="49.14936" lon="-0.24483">
        <ele>14.2</ele>
        <time>2024-05-26T07:20:22Z</time>
      </trkpt>
      <trkpt lat="49.14933" lon="-0.24494">
        <ele>14.2</ele>
        <time>2024-05-26T07:20:23Z</time>
      </trkpt>
      <trkpt lat="49.14931" lon="-0.24505">
        <ele>14</ele>
        <time>2024-05-26T07:20:24Z</time>
      </trkpt>
      <trkpt lat="49.14928" lon="-0.24515">
        <ele>13.8</ele>
        <time>2024-05-26T07:20:25Z</time>
      </trkpt>
      <trkpt lat="49.14926" lon="-0.24525">
        <ele>13.8</ele>
        <time>2024-05-26T07:20:26Z</time>
      </trkpt>
      <trkpt lat="49.14923" lon="-0.24536">
        <ele>13.8</ele>
        <time>2024-05-26T07:20:27Z</time>
      </trkpt>
      <trkpt lat="49.14921" lon="-0.24547">
        <ele>13.8</ele>
        <time>2024-05-26T07:20:28Z</time>
      </trkpt>
      <trkpt lat="49.14918" lon="-0.24558">
        <ele>13.8</ele>
        <time>2024-05-26T07:20:29Z</time>
      </trkpt>
      <trkpt lat="49.14916" lon="-0.24569">
        <ele>13.8</ele>
        <time>2024-05-26T07:20:30Z</time>
      </trkpt>
      <trkpt lat="49.14914" lon="-0.2458">
        <ele>13.8</ele>
        <time>2024-05-26T07:20:31Z</time>
      </trkpt>
      <trkpt lat="49.14911" lon="-0.24591">
        <ele>13.8</ele>
        <time>2024-05-26T07:20:32Z</time>
      </trkpt>
      <trkpt lat="49.14908" lon="-0.24603">
        <ele>13.8</ele>
        <time>2024-05-26T07:20:33Z</time>
      </trkpt>
      <trkpt lat="49.14906" lon="-0.24614">
        <ele>13.8</ele>
        <time>2024-05-26T07:20:34Z</time>
      </trkpt>
      <trkpt lat="49.14903" lon="-0.24626">
        <ele>13.8</ele>
        <time>2024-05-26T07:20:35Z</time>
      </trkpt>
      <trkpt lat="49.149" lon="-0.24638">
        <ele>13.8</ele>
        <time>2024-05-26T07:20:36Z</time>
      </trkpt>
      <trkpt lat="49.14898" lon="-0.24651">
        <ele>13.8</ele>
        <time>2024-05-26T07:20:37Z</time>
      </trkpt>
      <trkpt lat="49.14895" lon="-0.24663">
        <ele>14</ele>
        <time>2024-05-26T07:20:38Z</time>
      </trkpt>
      <trkpt lat="49.14892" lon="-0.24676">
        <ele>14</ele>
        <time>2024-05-26T07:20:39Z</time>
      </trkpt>
      <trkpt lat="49.1489" lon="-0.24688">
        <ele>14</ele>
        <time>2024-05-26T07:20:40Z</time>
      </trkpt>
      <trkpt lat="49.14887" lon="-0.247">
        <ele>14</ele>
        <time>2024-05-26T07:20:41Z</time>
      </trkpt>
      <trkpt lat="49.14884" lon="-0.24712">
        <ele>14</ele>
        <time>2024-05-26T07:20:42Z</time>
      </trkpt>
      <trkpt lat="49.14881" lon="-0.24724">
        <ele>14</ele>
        <time>2024-05-26T07:20:43Z</time>
      </trkpt>
      <trkpt lat="49.14878" lon="-0.24736">
        <ele>14</ele>
        <time>2024-05-26T07:20:44Z</time>
      </trkpt>
      <trkpt lat="49.14876" lon="-0.24749">
        <ele>14</ele>
        <time>2024-05-26T07:20:45Z</time>
      </trkpt>
      <trkpt lat="49.14872" lon="-0.24762">
        <ele>14</ele>
        <time>2024-05-26T07:20:46Z</time>
      </trkpt>
      <trkpt lat="49.14869" lon="-0.24774">
        <ele>14</ele>
        <time>2024-05-26T07:20:47Z</time>
      </trkpt>
      <trkpt lat="49.14866" lon="-0.24787">
        <ele>14</ele>
        <time>2024-05-26T07:20:48Z</time>
      </trkpt>
      <trkpt lat="49.14863" lon="-0.248">
        <ele>14</ele>
        <time>2024-05-26T07:20:49Z</time>
      </trkpt>
      <trkpt lat="49.14861" lon="-0.24812">
        <ele>14</ele>
        <time>2024-05-26T07:20:50Z</time>
      </trkpt>
      <trkpt lat="49.14858" lon="-0.24824">
        <ele>14</ele>
        <time>2024-05-26T07:20:51Z</time>
      </trkpt>
      <trkpt lat="49.14856" lon="-0.24836">
        <ele>14</ele>
        <time>2024-05-26T07:20:52Z</time>
      </trkpt>
      <trkpt lat="49.14853" lon="-0.24848">
        <ele>14</ele>
        <time>2024-05-26T07:20:53Z</time>
      </trkpt>
      <trkpt lat="49.14851" lon="-0.2486">
        <ele>14</ele>
        <time>2024-05-26T07:20:54Z</time>
      </trkpt>
      <trkpt lat="49.14848" lon="-0.24872">
        <ele>14</ele>
        <time>2024-05-26T07:20:55Z</time>
      </trkpt>
      <trkpt lat="49.14846" lon="-0.24885">
        <ele>14</ele>
        <time>2024-05-26T07:20:56Z</time>
      </trkpt>
      <trkpt lat="49.14843" lon="-0.24897">
        <ele>14.2</ele>
        <time>2024-05-26T07:20:57Z</time>
      </trkpt>
      <trkpt lat="49.1484" lon="-0.2491">
        <ele>14.2</ele>
        <time>2024-05-26T07:20:58Z</time>
      </trkpt>
      <trkpt lat="49.14836" lon="-0.24922">
        <ele>14.4</ele>
        <time>2024-05-26T07:20:59Z</time>
      </trkpt>
      <trkpt lat="49.14831" lon="-0.24933">
        <ele>14.6</ele>
        <time>2024-05-26T07:21:00Z</time>
      </trkpt>
      <trkpt lat="49.14826" lon="-0.24943">
        <ele>14.8</ele>
        <time>2024-05-26T07:21:01Z</time>
      </trkpt>
      <trkpt lat="49.14821" lon="-0.24953">
        <ele>14.8</ele>
        <time>2024-05-26T07:21:02Z</time>
      </trkpt>
      <trkpt lat="49.14815" lon="-0.24962">
        <ele>14.8</ele>
        <time>2024-05-26T07:21:03Z</time>
      </trkpt>
      <trkpt lat="49.14808" lon="-0.2497">
        <ele>15</ele>
        <time>2024-05-26T07:21:04Z</time>
      </trkpt>
      <trkpt lat="49.14801" lon="-0.24978">
        <ele>15</ele>
        <time>2024-05-26T07:21:05Z</time>
      </trkpt>
      <trkpt lat="49.14795" lon="-0.24985">
        <ele>15.2</ele>
        <time>2024-05-26T07:21:06Z</time>
      </trkpt>
      <trkpt lat="49.14788" lon="-0.24992">
        <ele>15.2</ele>
        <time>2024-05-26T07:21:07Z</time>
      </trkpt>
      <trkpt lat="49.14782" lon="-0.24999">
        <ele>15.2</ele>
        <time>2024-05-26T07:21:08Z</time>
      </trkpt>
      <trkpt lat="49.14776" lon="-0.25007">
        <ele>15.4</ele>
        <time>2024-05-26T07:21:09Z</time>
      </trkpt>
      <trkpt lat="49.1477" lon="-0.25013">
        <ele>15.4</ele>
        <time>2024-05-26T07:21:10Z</time>
      </trkpt>
      <trkpt lat="49.14764" lon="-0.2502">
        <ele>15.6</ele>
        <time>2024-05-26T07:21:11Z</time>
      </trkpt>
      <trkpt lat="49.14758" lon="-0.25027">
        <ele>15.6</ele>
        <time>2024-05-26T07:21:12Z</time>
      </trkpt>
      <trkpt lat="49.14752" lon="-0.25034">
        <ele>15.8</ele>
        <time>2024-05-26T07:21:13Z</time>
      </trkpt>
      <trkpt lat="49.14746" lon="-0.25041">
        <ele>15.8</ele>
        <time>2024-05-26T07:21:14Z</time>
      </trkpt>
      <trkpt lat="49.1474" lon="-0.25048">
        <ele>16</ele>
        <time>2024-05-26T07:21:15Z</time>
      </trkpt>
      <trkpt lat="49.14735" lon="-0.25054">
        <ele>16</ele>
        <time>2024-05-26T07:21:16Z</time>
      </trkpt>
      <trkpt lat="49.14729" lon="-0.2506">
        <ele>16.2</ele>
        <time>2024-05-26T07:21:17Z</time>
      </trkpt>
      <trkpt lat="49.14724" lon="-0.25067">
        <ele>16.2</ele>
        <time>2024-05-26T07:21:18Z</time>
      </trkpt>
      <trkpt lat="49.14718" lon="-0.25073">
        <ele>16.4</ele>
        <time>2024-05-26T07:21:19Z</time>
      </trkpt>
      <trkpt lat="49.14712" lon="-0.25079">
        <ele>16.6</ele>
        <time>2024-05-26T07:21:20Z</time>
      </trkpt>
      <trkpt lat="49.14706" lon="-0.25085">
        <ele>16.8</ele>
        <time>2024-05-26T07:21:21Z</time>
      </trkpt>
      <trkpt lat="49.147" lon="-0.25092">
        <ele>16.8</ele>
        <time>2024-05-26T07:21:22Z</time>
      </trkpt>
      <trkpt lat="49.14694" lon="-0.25099">
        <ele>16.8</ele>
        <time>2024-05-26T07:21:23Z</time>
      </trkpt>
      <trkpt lat="49.14688" lon="-0.25106">
        <ele>16.8</ele>
        <time>2024-05-26T07:21:24Z</time>
      </trkpt>
      <trkpt lat="49.14682" lon="-0.25112">
        <ele>17</ele>
        <time>2024-05-26T07:21:25Z</time>
      </trkpt>
      <trkpt lat="49.14676" lon="-0.25119">
        <ele>17</ele>
        <time>2024-05-26T07:21:26Z</time>
      </trkpt>
      <trkpt lat="49.14671" lon="-0.25125">
        <ele>17</ele>
        <time>2024-05-26T07:21:27Z</time>
      </trkpt>
      <trkpt lat="49.14665" lon="-0.25131">
        <ele>17</ele>
        <time>2024-05-26T07:21:28Z</time>
      </trkpt>
      <trkpt lat="49.1466" lon="-0.25138">
        <ele>17</ele>
        <time>2024-05-26T07:21:29Z</time>
      </trkpt>
      <trkpt lat="49.14654" lon="-0.25144">
        <ele>17</ele>
        <time>2024-05-26T07:21:30Z</time>
      </trkpt>
      <trkpt lat="49.14649" lon="-0.2515">
        <ele>17</ele>
        <time>2024-05-26T07:21:31Z</time>
      </trkpt>
      <trkpt lat="49.14644" lon="-0.25156">
        <ele>17</ele>
        <time>2024-05-26T07:21:32Z</time>
      </trkpt>
      <trkpt lat="49.14638" lon="-0.25162">
        <ele>17</ele>
        <time>2024-05-26T07:21:33Z</time>
      </trkpt>
      <trkpt lat="49.14633" lon="-0.25167">
        <ele>17</ele>
        <time>2024-05-26T07:21:34Z</time>
      </trkpt>
      <trkpt lat="49.14629" lon="-0.25173">
        <ele>16.6</ele>
        <time>2024-05-26T07:21:35Z</time>
      </trkpt>
      <trkpt lat="49.14624" lon="-0.25178">
        <ele>16.6</ele>
        <time>2024-05-26T07:21:36Z</time>
      </trkpt>
      <trkpt lat="49.14619" lon="-0.25184">
        <ele>16.6</ele>
        <time>2024-05-26T07:21:37Z</time>
      </trkpt>
      <trkpt lat="49.14614" lon="-0.25189">
        <ele>16.6</ele>
        <time>2024-05-26T07:21:38Z</time>
      </trkpt>
      <trkpt lat="49.14609" lon="-0.25194">
        <ele>16.4</ele>
        <time>2024-05-26T07:21:39Z</time>
      </trkpt>
      <trkpt lat="49.14604" lon="-0.25199">
        <ele>16.4</ele>
        <time>2024-05-26T07:21:40Z</time>
      </trkpt>
      <trkpt lat="49.14599" lon="-0.25205">
        <ele>16.4</ele>
        <time>2024-05-26T07:21:41Z</time>
      </trkpt>
      <trkpt lat="49.14595" lon="-0.2521">
        <ele>16.2</ele>
        <time>2024-05-26T07:21:42Z</time>
      </trkpt>
      <trkpt lat="49.1459" lon="-0.25215">
        <ele>16.2</ele>
        <time>2024-05-26T07:21:43Z</time>
      </trkpt>
      <trkpt lat="49.14586" lon="-0.2522">
        <ele>16.2</ele>
        <time>2024-05-26T07:21:44Z</time>
      </trkpt>
      <trkpt lat="49.14581" lon="-0.25225">
        <ele>16.2</ele>
        <time>2024-05-26T07:21:45Z</time>
      </trkpt>
      <trkpt lat="49.14577" lon="-0.25229">
        <ele>16</ele>
        <time>2024-05-26T07:21:46Z</time>
      </trkpt>
      <trkpt lat="49.14573" lon="-0.25234">
        <ele>16</ele>
        <time>2024-05-26T07:21:47Z</time>
      </trkpt>
      <trkpt lat="49.14569" lon="-0.25239">
        <ele>16</ele>
        <time>2024-05-26T07:21:48Z</time>
      </trkpt>
      <trkpt lat="49.14565" lon="-0.25243">
        <ele>16</ele>
        <time>2024-05-26T07:21:49Z</time>
      </trkpt>
      <trkpt lat="49.14561" lon="-0.25248">
        <ele>16</ele>
        <time>2024-05-26T07:21:50Z</time>
      </trkpt>
      <trkpt lat="49.14557" lon="-0.25251">
        <ele>16</ele>
        <time>2024-05-26T07:21:51Z</time>
      </trkpt>
      <trkpt lat="49.14554" lon="-0.25255">
        <ele>16</ele>
        <time>2024-05-26T07:21:52Z</time>
      </trkpt>
      <trkpt lat="49.14551" lon="-0.25258">
        <ele>16</ele>
        <time>2024-05-26T07:21:53Z</time>
      </trkpt>
      <trkpt lat="49.14549" lon="-0.25261">
        <ele>16</ele>
        <time>2024-05-26T07:21:54Z</time>
      </trkpt>
      <trkpt lat="49.14546" lon="-0.25264">
        <ele>16</ele>
        <time>2024-05-26T07:21:55Z</time>
      </trkpt>
      <trkpt lat="49.14544" lon="-0.25267">
        <ele>16</ele>
        <time>2024-05-26T07:21:56Z</time>
      </trkpt>
      <trkpt lat="49.14543" lon="-0.25269">
        <ele>16</ele>
        <time>2024-05-26T07:21:57Z</time>
      </trkpt>
      <trkpt lat="49.14542" lon="-0.2527">
        <ele>16</ele>
        <time>2024-05-26T07:21:58Z</time>
      </trkpt>
      <trkpt lat="49.14542" lon="-0.25271">
        <ele>16</ele>
        <time>2024-05-26T07:21:59Z</time>
      </trkpt>
      <trkpt lat="49.14542" lon="-0.25271">
        <ele>16.2</ele>
        <time>2024-05-26T07:22:00Z</time>
      </trkpt>
      <trkpt lat="49.14537" lon="-0.25273">
        <ele>17.4</ele>
        <time>2024-05-26T07:23:32Z</time>
      </trkpt>
      <trkpt lat="49.14536" lon="-0.25275">
        <ele>17.4</ele>
        <time>2024-05-26T07:23:33Z</time>
      </trkpt>
      <trkpt lat="49.14535" lon="-0.25276">
        <ele>17.4</ele>
        <time>2024-05-26T07:23:34Z</time>
      </trkpt>
      <trkpt lat="49.14534" lon="-0.25277">
        <ele>17.4</ele>
        <time>2024-05-26T07:23:35Z</time>
      </trkpt>
      <trkpt lat="49.14534" lon="-0.25277">
        <ele>17.4</ele>
        <time>2024-05-26T07:23:36Z</time>
      </trkpt>
      <trkpt lat="49.14528" lon="-0.25276">
        <ele>17.2</ele>
        <time>2024-05-26T07:23:46Z</time>
      </trkpt>
      <trkpt lat="49.14526" lon="-0.25274">
        <ele>17.2</ele>
        <time>2024-05-26T07:23:47Z</time>
      </trkpt>
      <trkpt lat="49.14524" lon="-0.25272">
        <ele>17.2</ele>
        <time>2024-05-26T07:23:48Z</time>
      </trkpt>
      <trkpt lat="49.14521" lon="-0.25268">
        <ele>17.2</ele>
        <time>2024-05-26T07:23:49Z</time>
      </trkpt>
      <trkpt lat="49.14519" lon="-0.25264">
        <ele>17.2</ele>
        <time>2024-05-26T07:23:50Z</time>
      </trkpt>
      <trkpt lat="49.14516" lon="-0.25258">
        <ele>17</ele>
        <time>2024-05-26T07:23:51Z</time>
      </trkpt>
      <trkpt lat="49.14513" lon="-0.25252">
        <ele>17</ele>
        <time>2024-05-26T07:23:52Z</time>
      </trkpt>
      <trkpt lat="49.14509" lon="-0.25245">
        <ele>17</ele>
        <time>2024-05-26T07:23:53Z</time>
      </trkpt>
      <trkpt lat="49.14506" lon="-0.25238">
        <ele>17</ele>
        <time>2024-05-26T07:23:54Z</time>
      </trkpt>
      <trkpt lat="49.14503" lon="-0.2523">
        <ele>17</ele>
        <time>2024-05-26T07:23:55Z</time>
      </trkpt>
      <trkpt lat="49.145" lon="-0.25223">
        <ele>17</ele>
        <time>2024-05-26T07:23:56Z</time>
      </trkpt>
      <trkpt lat="49.14497" lon="-0.25216">
        <ele>16.8</ele>
        <time>2024-05-26T07:23:57Z</time>
      </trkpt>
      <trkpt lat="49.14493" lon="-0.25209">
        <ele>16.8</ele>
        <time>2024-05-26T07:23:58Z</time>
      </trkpt>
      <trkpt lat="49.1449" lon="-0.25201">
        <ele>16.8</ele>
        <time>2024-05-26T07:23:59Z</time>
      </trkpt>
      <trkpt lat="49.14486" lon="-0.25194">
        <ele>16.8</ele>
        <time>2024-05-26T07:24:00Z</time>
      </trkpt>
      <trkpt lat="49.14482" lon="-0.25186">
        <ele>16.8</ele>
        <time>2024-05-26T07:24:01Z</time>
      </trkpt>
      <trkpt lat="49.14478" lon="-0.25179">
        <ele>16.8</ele>
        <time>2024-05-26T07:24:02Z</time>
      </trkpt>
      <trkpt lat="49.14475" lon="-0.25171">
        <ele>17</ele>
        <time>2024-05-26T07:24:03Z</time>
      </trkpt>
      <trkpt lat="49.14471" lon="-0.25162">
        <ele>17</ele>
        <time>2024-05-26T07:24:04Z</time>
      </trkpt>
      <trkpt lat="49.14467" lon="-0.25154">
        <ele>17</ele>
        <time>2024-05-26T07:24:05Z</time>
      </trkpt>
      <trkpt lat="49.14463" lon="-0.25146">
        <ele>17.2</ele>
        <time>2024-05-26T07:24:06Z</time>
      </trkpt>
      <trkpt lat="49.14459" lon="-0.25137">
        <ele>17.4</ele>
        <time>2024-05-26T07:24:07Z</time>
      </trkpt>
      <trkpt lat="49.14455" lon="-0.25129">
        <ele>17.4</ele>
        <time>2024-05-26T07:24:08Z</time>
      </trkpt>
      <trkpt lat="49.14451" lon="-0.2512">
        <ele>17.2</ele>
        <time>2024-05-26T07:24:09Z</time>
      </trkpt>
      <trkpt lat="49.14447" lon="-0.25111">
        <ele>17.4</ele>
        <time>2024-05-26T07:24:10Z</time>
      </trkpt>
      <trkpt lat="49.14443" lon="-0.25103">
        <ele>17.4</ele>
        <time>2024-05-26T07:24:11Z</time>
      </trkpt>
      <trkpt lat="49.14439" lon="-0.25093">
        <ele>17.4</ele>
        <time>2024-05-26T07:24:12Z</time>
      </trkpt>
      <trkpt lat="49.14435" lon="-0.25084">
        <ele>17.6</ele>
        <time>2024-05-26T07:24:13Z</time>
      </trkpt>
      <trkpt lat="49.14431" lon="-0.25075">
        <ele>17.6</ele>
        <time>2024-05-26T07:24:14Z</time>
      </trkpt>
      <trkpt lat="49.14427" lon="-0.25066">
        <ele>17.6</ele>
        <time>2024-05-26T07:24:15Z</time>
      </trkpt>
      <trkpt lat="49.14423" lon="-0.25057">
        <ele>17.8</ele>
        <time>2024-05-26T07:24:16Z</time>
      </trkpt>
      <trkpt lat="49.14419" lon="-0.25048">
        <ele>17.8</ele>
        <time>2024-05-26T07:24:17Z</time>
      </trkpt>
      <trkpt lat="49.14414" lon="-0.25039">
        <ele>17.8</ele>
        <time>2024-05-26T07:24:18Z</time>
      </trkpt>
      <trkpt lat="49.1441" lon="-0.2503">
        <ele>18</ele>
        <time>2024-05-26T07:24:19Z</time>
      </trkpt>
      <trkpt lat="49.14405" lon="-0.2502">
        <ele>18</ele>
        <time>2024-05-26T07:24:20Z</time>
      </trkpt>
      <trkpt lat="49.14401" lon="-0.25011">
        <ele>18</ele>
        <time>2024-05-26T07:24:21Z</time>
      </trkpt>
      <trkpt lat="49.14396" lon="-0.25002">
        <ele>18</ele>
        <time>2024-05-26T07:24:22Z</time>
      </trkpt>
      <trkpt lat="49.14392" lon="-0.24992">
        <ele>18</ele>
        <time>2024-05-26T07:24:23Z</time>
      </trkpt>
      <trkpt lat="49.14388" lon="-0.24983">
        <ele>18</ele>
        <time>2024-05-26T07:24:24Z</time>
      </trkpt>
      <trkpt lat="49.14384" lon="-0.24973">
        <ele>18</ele>
        <time>2024-05-26T07:24:25Z</time>
      </trkpt>
      <trkpt lat="49.14379" lon="-0.24964">
        <ele>18</ele>
        <time>2024-05-26T07:24:26Z</time>
      </trkpt>
      <trkpt lat="49.14375" lon="-0.24955">
        <ele>18</ele>
        <time>2024-05-26T07:24:27Z</time>
      </trkpt>
      <trkpt lat="49.14371" lon="-0.24945">
        <ele>18</ele>
        <time>2024-05-26T07:24:28Z</time>
      </trkpt>
      <trkpt lat="49.14366" lon="-0.24936">
        <ele>18</ele>
        <time>2024-05-26T07:24:29Z</time>
      </trkpt>
      <trkpt lat="49.14362" lon="-0.24926">
        <ele>18</ele>
        <time>2024-05-26T07:24:30Z</time>
      </trkpt>
      <trkpt lat="49.14358" lon="-0.24916">
        <ele>18.2</ele>
        <time>2024-05-26T07:24:31Z</time>
      </trkpt>
      <trkpt lat="49.14353" lon="-0.24906">
        <ele>18.2</ele>
        <time>2024-05-26T07:24:32Z</time>
      </trkpt>
      <trkpt lat="49.14349" lon="-0.24897">
        <ele>18.2</ele>
        <time>2024-05-26T07:24:33Z</time>
      </trkpt>
      <trkpt lat="49.14345" lon="-0.24887">
        <ele>18.2</ele>
        <time>2024-05-26T07:24:34Z</time>
      </trkpt>
      <trkpt lat="49.1434" lon="-0.24877">
        <ele>18.2</ele>
        <time>2024-05-26T07:24:35Z</time>
      </trkpt>
      <trkpt lat="49.14336" lon="-0.24868">
        <ele>18.2</ele>
        <time>2024-05-26T07:24:36Z</time>
      </trkpt>
      <trkpt lat="49.14332" lon="-0.24858">
        <ele>18.2</ele>
        <time>2024-05-26T07:24:37Z</time>
      </trkpt>
      <trkpt lat="49.14328" lon="-0.24849">
        <ele>18.2</ele>
        <time>2024-05-26T07:24:38Z</time>
      </trkpt>
      <trkpt lat="49.14324" lon="-0.24839">
        <ele>18.2</ele>
        <time>2024-05-26T07:24:39Z</time>
      </trkpt>
      <trkpt lat="49.14319" lon="-0.24829">
        <ele>18.2</ele>
        <time>2024-05-26T07:24:40Z</time>
      </trkpt>
      <trkpt lat="49.14315" lon="-0.2482">
        <ele>18.2</ele>
        <time>2024-05-26T07:24:41Z</time>
      </trkpt>
      <trkpt lat="49.14311" lon="-0.2481">
        <ele>18.2</ele>
        <time>2024-05-26T07:24:42Z</time>
      </trkpt>
      <trkpt lat="49.14307" lon="-0.24801">
        <ele>18.2</ele>
        <time>2024-05-26T07:24:43Z</time>
      </trkpt>
      <trkpt lat="49.14302" lon="-0.24791">
        <ele>18.2</ele>
        <time>2024-05-26T07:24:44Z</time>
      </trkpt>
      <trkpt lat="49.14298" lon="-0.24781">
        <ele>18.2</ele>
        <time>2024-05-26T07:24:45Z</time>
      </trkpt>
      <trkpt lat="49.14293" lon="-0.24771">
        <ele>18.2</ele>
        <time>2024-05-26T07:24:46Z</time>
      </trkpt>
      <trkpt lat="49.14289" lon="-0.24762">
        <ele>18.2</ele>
        <time>2024-05-26T07:24:47Z</time>
      </trkpt>
      <trkpt lat="49.14285" lon="-0.24752">
        <ele>18.2</ele>
        <time>2024-05-26T07:24:48Z</time>
      </trkpt>
      <trkpt lat="49.1428" lon="-0.24742">
        <ele>18.2</ele>
        <time>2024-05-26T07:24:49Z</time>
      </trkpt>
      <trkpt lat="49.14276" lon="-0.24733">
        <ele>18.2</ele>
        <time>2024-05-26T07:24:50Z</time>
      </trkpt>
      <trkpt lat="49.14272" lon="-0.24723">
        <ele>18.2</ele>
        <time>2024-05-26T07:24:51Z</time>
      </trkpt>
      <trkpt lat="49.14268" lon="-0.24713">
        <ele>18.2</ele>
        <time>2024-05-26T07:24:52Z</time>
      </trkpt>
      <trkpt lat="49.14263" lon="-0.24703">
        <ele>18.2</ele>
        <time>2024-05-26T07:24:53Z</time>
      </trkpt>
      <trkpt lat="49.14258" lon="-0.24693">
        <ele>18.2</ele>
        <time>2024-05-26T07:24:54Z</time>
      </trkpt>
      <trkpt lat="49.14254" lon="-0.24683">
        <ele>18.2</ele>
        <time>2024-05-26T07:24:55Z</time>
      </trkpt>
      <trkpt lat="49.1425" lon="-0.24673">
        <ele>18.2</ele>
        <time>2024-05-26T07:24:56Z</time>
      </trkpt>
      <trkpt lat="49.14245" lon="-0.24662">
        <ele>18.2</ele>
        <time>2024-05-26T07:24:57Z</time>
      </trkpt>
      <trkpt lat="49.14241" lon="-0.24652">
        <ele>18.2</ele>
        <time>2024-05-26T07:24:58Z</time>
      </trkpt>
      <trkpt lat="49.14237" lon="-0.24642">
        <ele>18.2</ele>
        <time>2024-05-26T07:24:59Z</time>
      </trkpt>
      <trkpt lat="49.14232" lon="-0.24633">
        <ele>18.2</ele>
        <time>2024-05-26T07:25:00Z</time>
      </trkpt>
      <trkpt lat="49.14228" lon="-0.24623">
        <ele>18.2</ele>
        <time>2024-05-26T07:25:01Z</time>
      </trkpt>
      <trkpt lat="49.14223" lon="-0.24614">
        <ele>18.2</ele>
        <time>2024-05-26T07:25:02Z</time>
      </trkpt>
      <trkpt lat="49.14218" lon="-0.24605">
        <ele>18</ele>
        <time>2024-05-26T07:25:03Z</time>
      </trkpt>
      <trkpt lat="49.14213" lon="-0.24597">
        <ele>18</ele>
        <time>2024-05-26T07:25:04Z</time>
      </trkpt>
      <trkpt lat="49.14207" lon="-0.24589">
        <ele>18</ele>
        <time>2024-05-26T07:25:05Z</time>
      </trkpt>
      <trkpt lat="49.14201" lon="-0.24582">
        <ele>18</ele>
        <time>2024-05-26T07:25:06Z</time>
      </trkpt>
      <trkpt lat="49.14194" lon="-0.24577">
        <ele>18</ele>
        <time>2024-05-26T07:25:07Z</time>
      </trkpt>
      <trkpt lat="49.14187" lon="-0.24576">
        <ele>18</ele>
        <time>2024-05-26T07:25:08Z</time>
      </trkpt>
      <trkpt lat="49.14179" lon="-0.24578">
        <ele>18</ele>
        <time>2024-05-26T07:25:09Z</time>
      </trkpt>
      <trkpt lat="49.14172" lon="-0.24583">
        <ele>18</ele>
        <time>2024-05-26T07:25:10Z</time>
      </trkpt>
      <trkpt lat="49.14166" lon="-0.24589">
        <ele>18</ele>
        <time>2024-05-26T07:25:11Z</time>
      </trkpt>
      <trkpt lat="49.1416" lon="-0.24598">
        <ele>18</ele>
        <time>2024-05-26T07:25:12Z</time>
      </trkpt>
      <trkpt lat="49.14156" lon="-0.24608">
        <ele>18</ele>
        <time>2024-05-26T07:25:13Z</time>
      </trkpt>
      <trkpt lat="49.14151" lon="-0.24617">
        <ele>17.8</ele>
        <time>2024-05-26T07:25:14Z</time>
      </trkpt>
      <trkpt lat="49.14147" lon="-0.24626">
        <ele>17.8</ele>
        <time>2024-05-26T07:25:15Z</time>
      </trkpt>
      <trkpt lat="49.14142" lon="-0.24635">
        <ele>17.8</ele>
        <time>2024-05-26T07:25:16Z</time>
      </trkpt>
      <trkpt lat="49.14138" lon="-0.24644">
        <ele>17.6</ele>
        <time>2024-05-26T07:25:17Z</time>
      </trkpt>
      <trkpt lat="49.14134" lon="-0.24654">
        <ele>17.4</ele>
        <time>2024-05-26T07:25:18Z</time>
      </trkpt>
      <trkpt lat="49.1413" lon="-0.24663">
        <ele>17.4</ele>
        <time>2024-05-26T07:25:19Z</time>
      </trkpt>
      <trkpt lat="49.14126" lon="-0.24673">
        <ele>17.4</ele>
        <time>2024-05-26T07:25:20Z</time>
      </trkpt>
      <trkpt lat="49.14121" lon="-0.24682">
        <ele>17.4</ele>
        <time>2024-05-26T07:25:21Z</time>
      </trkpt>
      <trkpt lat="49.14117" lon="-0.24691">
        <ele>17.4</ele>
        <time>2024-05-26T07:25:22Z</time>
      </trkpt>
      <trkpt lat="49.14113" lon="-0.24701">
        <ele>17.4</ele>
        <time>2024-05-26T07:25:23Z</time>
      </trkpt>
      <trkpt lat="49.14109" lon="-0.2471">
        <ele>17.4</ele>
        <time>2024-05-26T07:25:24Z</time>
      </trkpt>
      <trkpt lat="49.14104" lon="-0.24719">
        <ele>17.4</ele>
        <time>2024-05-26T07:25:25Z</time>
      </trkpt>
      <trkpt lat="49.141" lon="-0.24728">
        <ele>17.4</ele>
        <time>2024-05-26T07:25:26Z</time>
      </trkpt>
      <trkpt lat="49.14096" lon="-0.24738">
        <ele>17.2</ele>
        <time>2024-05-26T07:25:27Z</time>
      </trkpt>
      <trkpt lat="49.14092" lon="-0.24747">
        <ele>17.2</ele>
        <time>2024-05-26T07:25:28Z</time>
      </trkpt>
      <trkpt lat="49.14088" lon="-0.24756">
        <ele>17.2</ele>
        <time>2024-05-26T07:25:29Z</time>
      </trkpt>
      <trkpt lat="49.14084" lon="-0.24765">
        <ele>17.2</ele>
        <time>2024-05-26T07:25:30Z</time>
      </trkpt>
      <trkpt lat="49.1408" lon="-0.24774">
        <ele>17.2</ele>
        <time>2024-05-26T07:25:31Z</time>
      </trkpt>
      <trkpt lat="49.14076" lon="-0.24784">
        <ele>17.2</ele>
        <time>2024-05-26T07:25:32Z</time>
      </trkpt>
      <trkpt lat="49.14072" lon="-0.24793">
        <ele>17.2</ele>
        <time>2024-05-26T07:25:33Z</time>
      </trkpt>
      <trkpt lat="49.14068" lon="-0.24802">
        <ele>17.2</ele>
        <time>2024-05-26T07:25:34Z</time>
      </trkpt>
      <trkpt lat="49.14063" lon="-0.24811">
        <ele>17.2</ele>
        <time>2024-05-26T07:25:35Z</time>
      </trkpt>
      <trkpt lat="49.14059" lon="-0.24821">
        <ele>17.2</ele>
        <time>2024-05-26T07:25:36Z</time>
      </trkpt>
      <trkpt lat="49.14055" lon="-0.2483">
        <ele>17.2</ele>
        <time>2024-05-26T07:25:37Z</time>
      </trkpt>
      <trkpt lat="49.14051" lon="-0.24839">
        <ele>17.2</ele>
        <time>2024-05-26T07:25:38Z</time>
      </trkpt>
      <trkpt lat="49.14047" lon="-0.24848">
        <ele>17.2</ele>
        <time>2024-05-26T07:25:39Z</time>
      </trkpt>
      <trkpt lat="49.14043" lon="-0.24857">
        <ele>17.2</ele>
        <time>2024-05-26T07:25:40Z</time>
      </trkpt>
      <trkpt lat="49.14039" lon="-0.24866">
        <ele>17.2</ele>
        <time>2024-05-26T07:25:41Z</time>
      </trkpt>
      <trkpt lat="49.14035" lon="-0.24875">
        <ele>17.2</ele>
        <time>2024-05-26T07:25:42Z</time>
      </trkpt>
      <trkpt lat="49.14031" lon="-0.24884">
        <ele>17.2</ele>
        <time>2024-05-26T07:25:43Z</time>
      </trkpt>
      <trkpt lat="49.14027" lon="-0.24893">
        <ele>17.2</ele>
        <time>2024-05-26T07:25:44Z</time>
      </trkpt>
      <trkpt lat="49.14023" lon="-0.24902">
        <ele>17.2</ele>
        <time>2024-05-26T07:25:45Z</time>
      </trkpt>
      <trkpt lat="49.14019" lon="-0.24911">
        <ele>17.4</ele>
        <time>2024-05-26T07:25:46Z</time>
      </trkpt>
      <trkpt lat="49.14015" lon="-0.2492">
        <ele>17.4</ele>
        <time>2024-05-26T07:25:47Z</time>
      </trkpt>
      <trkpt lat="49.14011" lon="-0.24928">
        <ele>17.4</ele>
        <time>2024-05-26T07:25:48Z</time>
      </trkpt>
      <trkpt lat="49.14007" lon="-0.24937">
        <ele>17.4</ele>
        <time>2024-05-26T07:25:49Z</time>
      </trkpt>
      <trkpt lat="49.14003" lon="-0.24946">
        <ele>17.4</ele>
        <time>2024-05-26T07:25:50Z</time>
      </trkpt>
      <trkpt lat="49.13999" lon="-0.24955">
        <ele>17.6</ele>
        <time>2024-05-26T07:25:51Z</time>
      </trkpt>
      <trkpt lat="49.13995" lon="-0.24964">
        <ele>17.6</ele>
        <time>2024-05-26T07:25:52Z</time>
      </trkpt>
      <trkpt lat="49.13991" lon="-0.24973">
        <ele>17.6</ele>
        <time>2024-05-26T07:25:53Z</time>
      </trkpt>
      <trkpt lat="49.13986" lon="-0.24982">
        <ele>17.6</ele>
        <time>2024-05-26T07:25:54Z</time>
      </trkpt>
      <trkpt lat="49.13982" lon="-0.24991">
        <ele>17.6</ele>
        <time>2024-05-26T07:25:55Z</time>
      </trkpt>
      <trkpt lat="49.13978" lon="-0.25">
        <ele>17.6</ele>
        <time>2024-05-26T07:25:56Z</time>
      </trkpt>
      <trkpt lat="49.13974" lon="-0.25009">
        <ele>17.6</ele>
        <time>2024-05-26T07:25:57Z</time>
      </trkpt>
      <trkpt lat="49.1397" lon="-0.25018">
        <ele>17.6</ele>
        <time>2024-05-26T07:25:58Z</time>
      </trkpt>
      <trkpt lat="49.13966" lon="-0.25027">
        <ele>17.8</ele>
        <time>2024-05-26T07:25:59Z</time>
      </trkpt>
      <trkpt lat="49.13962" lon="-0.25037">
        <ele>17.8</ele>
        <time>2024-05-26T07:26:00Z</time>
      </trkpt>
      <trkpt lat="49.13958" lon="-0.25046">
        <ele>17.8</ele>
        <time>2024-05-26T07:26:01Z</time>
      </trkpt>
      <trkpt lat="49.13953" lon="-0.25055">
        <ele>17.8</ele>
        <time>2024-05-26T07:26:02Z</time>
      </trkpt>
      <trkpt lat="49.13949" lon="-0.25064">
        <ele>17.8</ele>
        <time>2024-05-26T07:26:03Z</time>
      </trkpt>
      <trkpt lat="49.13945" lon="-0.25073">
        <ele>17.8</ele>
        <time>2024-05-26T07:26:04Z</time>
      </trkpt>
      <trkpt lat="49.13942" lon="-0.25082">
        <ele>17.8</ele>
        <time>2024-05-26T07:26:05Z</time>
      </trkpt>
      <trkpt lat="49.13938" lon="-0.25091">
        <ele>17.8</ele>
        <time>2024-05-26T07:26:06Z</time>
      </trkpt>
      <trkpt lat="49.13934" lon="-0.25099">
        <ele>17.8</ele>
        <time>2024-05-26T07:26:07Z</time>
      </trkpt>
      <trkpt lat="49.1393" lon="-0.25108">
        <ele>17.8</ele>
        <time>2024-05-26T07:26:08Z</time>
      </trkpt>
      <trkpt lat="49.13926" lon="-0.25116">
        <ele>17.8</ele>
        <time>2024-05-26T07:26:09Z</time>
      </trkpt>
      <trkpt lat="49.13922" lon="-0.25124">
        <ele>17.8</ele>
        <time>2024-05-26T07:26:10Z</time>
      </trkpt>
      <trkpt lat="49.13918" lon="-0.25131">
        <ele>18</ele>
        <time>2024-05-26T07:26:11Z</time>
      </trkpt>
      <trkpt lat="49.13914" lon="-0.25138">
        <ele>18</ele>
        <time>2024-05-26T07:26:12Z</time>
      </trkpt>
      <trkpt lat="49.1391" lon="-0.25145">
        <ele>18</ele>
        <time>2024-05-26T07:26:13Z</time>
      </trkpt>
      <trkpt lat="49.13906" lon="-0.25152">
        <ele>18</ele>
        <time>2024-05-26T07:26:14Z</time>
      </trkpt>
      <trkpt lat="49.13902" lon="-0.25159">
        <ele>18.2</ele>
        <time>2024-05-26T07:26:15Z</time>
      </trkpt>
      <trkpt lat="49.13897" lon="-0.25165">
        <ele>18.4</ele>
        <time>2024-05-26T07:26:16Z</time>
      </trkpt>
      <trkpt lat="49.13893" lon="-0.25172">
        <ele>18.6</ele>
        <time>2024-05-26T07:26:17Z</time>
      </trkpt>
      <trkpt lat="49.13888" lon="-0.25178">
        <ele>18.8</ele>
        <time>2024-05-26T07:26:18Z</time>
      </trkpt>
      <trkpt lat="49.13883" lon="-0.25184">
        <ele>19</ele>
        <time>2024-05-26T07:26:19Z</time>
      </trkpt>
      <trkpt lat="49.13878" lon="-0.2519">
        <ele>19.4</ele>
        <time>2024-05-26T07:26:20Z</time>
      </trkpt>
      <trkpt lat="49.13874" lon="-0.25196">
        <ele>19.6</ele>
        <time>2024-05-26T07:26:21Z</time>
      </trkpt>
      <trkpt lat="49.13869" lon="-0.25202">
        <ele>20</ele>
        <time>2024-05-26T07:26:22Z</time>
      </trkpt>
      <trkpt lat="49.13864" lon="-0.25208">
        <ele>20.4</ele>
        <time>2024-05-26T07:26:23Z</time>
      </trkpt>
      <trkpt lat="49.13858" lon="-0.25214">
        <ele>20.8</ele>
        <time>2024-05-26T07:26:24Z</time>
      </trkpt>
      <trkpt lat="49.13853" lon="-0.25219">
        <ele>21</ele>
        <time>2024-05-26T07:26:25Z</time>
      </trkpt>
      <trkpt lat="49.13847" lon="-0.25225">
        <ele>21.4</ele>
        <time>2024-05-26T07:26:26Z</time>
      </trkpt>
      <trkpt lat="49.13841" lon="-0.2523">
        <ele>21.8</ele>
        <time>2024-05-26T07:26:27Z</time>
      </trkpt>
      <trkpt lat="49.13836" lon="-0.25235">
        <ele>22.4</ele>
        <time>2024-05-26T07:26:28Z</time>
      </trkpt>
      <trkpt lat="49.1383" lon="-0.2524">
        <ele>23</ele>
        <time>2024-05-26T07:26:29Z</time>
      </trkpt>
      <trkpt lat="49.13824" lon="-0.25246">
        <ele>23.6</ele>
        <time>2024-05-26T07:26:30Z</time>
      </trkpt>
      <trkpt lat="49.13819" lon="-0.25252">
        <ele>24.2</ele>
        <time>2024-05-26T07:26:31Z</time>
      </trkpt>
      <trkpt lat="49.13813" lon="-0.25257">
        <ele>24.2</ele>
        <time>2024-05-26T07:26:32Z</time>
      </trkpt>
      <trkpt lat="49.13807" lon="-0.25263">
        <ele>24.4</ele>
        <time>2024-05-26T07:26:33Z</time>
      </trkpt>
      <trkpt lat="49.13802" lon="-0.25268">
        <ele>24.4</ele>
        <time>2024-05-26T07:26:34Z</time>
      </trkpt>
      <trkpt lat="49.13796" lon="-0.25273">
        <ele>24.6</ele>
        <time>2024-05-26T07:26:35Z</time>
      </trkpt>
      <trkpt lat="49.1379" lon="-0.25279">
        <ele>24.6</ele>
        <time>2024-05-26T07:26:36Z</time>
      </trkpt>
      <trkpt lat="49.13784" lon="-0.25285">
        <ele>24.4</ele>
        <time>2024-05-26T07:26:37Z</time>
      </trkpt>
      <trkpt lat="49.13778" lon="-0.25291">
        <ele>24.6</ele>
        <time>2024-05-26T07:26:38Z</time>
      </trkpt>
      <trkpt lat="49.13772" lon="-0.25297">
        <ele>24.6</ele>
        <time>2024-05-26T07:26:39Z</time>
      </trkpt>
      <trkpt lat="49.13765" lon="-0.25304">
        <ele>24.6</ele>
        <time>2024-05-26T07:26:40Z</time>
      </trkpt>
      <trkpt lat="49.13759" lon="-0.2531">
        <ele>25</ele>
        <time>2024-05-26T07:26:41Z</time>
      </trkpt>
      <trkpt lat="49.13753" lon="-0.25316">
        <ele>25</ele>
        <time>2024-05-26T07:26:42Z</time>
      </trkpt>
      <trkpt lat="49.13746" lon="-0.25322">
        <ele>25.2</ele>
        <time>2024-05-26T07:26:43Z</time>
      </trkpt>
      <trkpt lat="49.13739" lon="-0.25328">
        <ele>25.2</ele>
        <time>2024-05-26T07:26:44Z</time>
      </trkpt>
      <trkpt lat="49.13733" lon="-0.25335">
        <ele>25.2</ele>
        <time>2024-05-26T07:26:45Z</time>
      </trkpt>
      <trkpt lat="49.13726" lon="-0.25341">
        <ele>25.2</ele>
        <time>2024-05-26T07:26:46Z</time>
      </trkpt>
      <trkpt lat="49.1372" lon="-0.25348">
        <ele>25</ele>
        <time>2024-05-26T07:26:47Z</time>
      </trkpt>
      <trkpt lat="49.13713" lon="-0.25355">
        <ele>25</ele>
        <time>2024-05-26T07:26:48Z</time>
      </trkpt>
      <trkpt lat="49.13706" lon="-0.25363">
        <ele>25</ele>
        <time>2024-05-26T07:26:49Z</time>
      </trkpt>
      <trkpt lat="49.137" lon="-0.2537">
        <ele>25</ele>
        <time>2024-05-26T07:26:50Z</time>
      </trkpt>
      <trkpt lat="49.13694" lon="-0.25378">
        <ele>25</ele>
        <time>2024-05-26T07:26:51Z</time>
      </trkpt>
      <trkpt lat="49.13688" lon="-0.25386">
        <ele>25</ele>
        <time>2024-05-26T07:26:52Z</time>
      </trkpt>
      <trkpt lat="49.13682" lon="-0.25395">
        <ele>25</ele>
        <time>2024-05-26T07:26:53Z</time>
      </trkpt>
      <trkpt lat="49.13677" lon="-0.25404">
        <ele>24.6</ele>
        <time>2024-05-26T07:26:54Z</time>
      </trkpt>
      <trkpt lat="49.13671" lon="-0.25414">
        <ele>24.6</ele>
        <time>2024-05-26T07:26:55Z</time>
      </trkpt>
      <trkpt lat="49.13666" lon="-0.25424">
        <ele>23.8</ele>
        <time>2024-05-26T07:26:56Z</time>
      </trkpt>
      <trkpt lat="49.13662" lon="-0.25434">
        <ele>23.4</ele>
        <time>2024-05-26T07:26:57Z</time>
      </trkpt>
      <trkpt lat="49.13657" lon="-0.25445">
        <ele>22.6</ele>
        <time>2024-05-26T07:26:58Z</time>
      </trkpt>
      <trkpt lat="49.13653" lon="-0.25455">
        <ele>22</ele>
        <time>2024-05-26T07:26:59Z</time>
      </trkpt>
      <trkpt lat="49.1365" lon="-0.25466">
        <ele>21.4</ele>
        <time>2024-05-26T07:27:00Z</time>
      </trkpt>
      <trkpt lat="49.13647" lon="-0.25477">
        <ele>21</ele>
        <time>2024-05-26T07:27:01Z</time>
      </trkpt>
      <trkpt lat="49.13644" lon="-0.25487">
        <ele>20.8</ele>
        <time>2024-05-26T07:27:02Z</time>
      </trkpt>
      <trkpt lat="49.13642" lon="-0.25498">
        <ele>20.6</ele>
        <time>2024-05-26T07:27:03Z</time>
      </trkpt>
      <trkpt lat="49.13639" lon="-0.25509">
        <ele>20.2</ele>
        <time>2024-05-26T07:27:04Z</time>
      </trkpt>
      <trkpt lat="49.13637" lon="-0.2552">
        <ele>20</ele>
        <time>2024-05-26T07:27:05Z</time>
      </trkpt>
      <trkpt lat="49.13636" lon="-0.25531">
        <ele>19.6</ele>
        <time>2024-05-26T07:27:06Z</time>
      </trkpt>
      <trkpt lat="49.13634" lon="-0.25542">
        <ele>19.6</ele>
        <time>2024-05-26T07:27:07Z</time>
      </trkpt>
      <trkpt lat="49.13633" lon="-0.25553">
        <ele>19.4</ele>
        <time>2024-05-26T07:27:08Z</time>
      </trkpt>
      <trkpt lat="49.13633" lon="-0.25564">
        <ele>19.6</ele>
        <time>2024-05-26T07:27:09Z</time>
      </trkpt>
      <trkpt lat="49.13632" lon="-0.25575">
        <ele>19.4</ele>
        <time>2024-05-26T07:27:10Z</time>
      </trkpt>
      <trkpt lat="49.13632" lon="-0.25587">
        <ele>19.4</ele>
        <time>2024-05-26T07:27:11Z</time>
      </trkpt>
      <trkpt lat="49.13632" lon="-0.25598">
        <ele>19.6</ele>
        <time>2024-05-26T07:27:12Z</time>
      </trkpt>
      <trkpt lat="49.13633" lon="-0.25609">
        <ele>19.4</ele>
        <time>2024-05-26T07:27:13Z</time>
      </trkpt>
      <trkpt lat="49.13634" lon="-0.2562">
        <ele>19.4</ele>
        <time>2024-05-26T07:27:14Z</time>
      </trkpt>
      <trkpt lat="49.13635" lon="-0.25631">
        <ele>19.4</ele>
        <time>2024-05-26T07:27:15Z</time>
      </trkpt>
      <trkpt lat="49.13636" lon="-0.25642">
        <ele>19.4</ele>
        <time>2024-05-26T07:27:16Z</time>
      </trkpt>
      <trkpt lat="49.13638" lon="-0.25652">
        <ele>19.6</ele>
        <time>2024-05-26T07:27:17Z</time>
      </trkpt>
      <trkpt lat="49.13641" lon="-0.25663">
        <ele>19.6</ele>
        <time>2024-05-26T07:27:18Z</time>
      </trkpt>
      <trkpt lat="49.13643" lon="-0.25674">
        <ele>20</ele>
        <time>2024-05-26T07:27:19Z</time>
      </trkpt>
      <trkpt lat="49.13646" lon="-0.25685">
        <ele>20.2</ele>
        <time>2024-05-26T07:27:20Z</time>
      </trkpt>
      <trkpt lat="49.13649" lon="-0.25695">
        <ele>20.4</ele>
        <time>2024-05-26T07:27:21Z</time>
      </trkpt>
      <trkpt lat="49.13653" lon="-0.25706">
        <ele>20.4</ele>
        <time>2024-05-26T07:27:22Z</time>
      </trkpt>
      <trkpt lat="49.13657" lon="-0.25715">
        <ele>20.6</ele>
        <time>2024-05-26T07:27:23Z</time>
      </trkpt>
      <trkpt lat="49.13661" lon="-0.25725">
        <ele>20.6</ele>
        <time>2024-05-26T07:27:24Z</time>
      </trkpt>
      <trkpt lat="49.13665" lon="-0.25734">
        <ele>20.6</ele>
        <time>2024-05-26T07:27:25Z</time>
      </trkpt>
      <trkpt lat="49.1367" lon="-0.25743">
        <ele>20.6</ele>
        <time>2024-05-26T07:27:26Z</time>
      </trkpt>
      <trkpt lat="49.13675" lon="-0.25752">
        <ele>20.6</ele>
        <time>2024-05-26T07:27:27Z</time>
      </trkpt>
      <trkpt lat="49.1368" lon="-0.2576">
        <ele>20.6</ele>
        <time>2024-05-26T07:27:28Z</time>
      </trkpt>
      <trkpt lat="49.13686" lon="-0.25768">
        <ele>20.6</ele>
        <time>2024-05-26T07:27:29Z</time>
      </trkpt>
      <trkpt lat="49.13692" lon="-0.25775">
        <ele>20.6</ele>
        <time>2024-05-26T07:27:30Z</time>
      </trkpt>
      <trkpt lat="49.13698" lon="-0.25783">
        <ele>20.6</ele>
        <time>2024-05-26T07:27:31Z</time>
      </trkpt>
      <trkpt lat="49.13704" lon="-0.2579">
        <ele>20.2</ele>
        <time>2024-05-26T07:27:32Z</time>
      </trkpt>
      <trkpt lat="49.13711" lon="-0.25796">
        <ele>20.4</ele>
        <time>2024-05-26T07:27:33Z</time>
      </trkpt>
      <trkpt lat="49.13718" lon="-0.25802">
        <ele>20.4</ele>
        <time>2024-05-26T07:27:34Z</time>
      </trkpt>
      <trkpt lat="49.13725" lon="-0.25808">
        <ele>20.4</ele>
        <time>2024-05-26T07:27:35Z</time>
      </trkpt>
      <trkpt lat="49.13732" lon="-0.25815">
        <ele>20.4</ele>
        <time>2024-05-26T07:27:36Z</time>
      </trkpt>
      <trkpt lat="49.13739" lon="-0.2582">
        <ele>20.4</ele>
        <time>2024-05-26T07:27:37Z</time>
      </trkpt>
      <trkpt lat="49.13746" lon="-0.25827">
        <ele>20.2</ele>
        <time>2024-05-26T07:27:38Z</time>
      </trkpt>
      <trkpt lat="49.13753" lon="-0.25832">
        <ele>20.2</ele>
        <time>2024-05-26T07:27:39Z</time>
      </trkpt>
      <trkpt lat="49.1376" lon="-0.25838">
        <ele>20</ele>
        <time>2024-05-26T07:27:40Z</time>
      </trkpt>
      <trkpt lat="49.13767" lon="-0.25843">
        <ele>20</ele>
        <time>2024-05-26T07:27:41Z</time>
      </trkpt>
      <trkpt lat="49.13774" lon="-0.25849">
        <ele>20</ele>
        <time>2024-05-26T07:27:42Z</time>
      </trkpt>
      <trkpt lat="49.13781" lon="-0.25855">
        <ele>20.2</ele>
        <time>2024-05-26T07:27:43Z</time>
      </trkpt>
      <trkpt lat="49.13788" lon="-0.25861">
        <ele>20</ele>
        <time>2024-05-26T07:27:44Z</time>
      </trkpt>
      <trkpt lat="49.13795" lon="-0.25868">
        <ele>20</ele>
        <time>2024-05-26T07:27:45Z</time>
      </trkpt>
      <trkpt lat="49.13802" lon="-0.25874">
        <ele>20</ele>
        <time>2024-05-26T07:27:46Z</time>
      </trkpt>
      <trkpt lat="49.13809" lon="-0.2588">
        <ele>20.2</ele>
        <time>2024-05-26T07:27:47Z</time>
      </trkpt>
      <trkpt lat="49.13815" lon="-0.25886">
        <ele>19.8</ele>
        <time>2024-05-26T07:27:48Z</time>
      </trkpt>
      <trkpt lat="49.13822" lon="-0.25893">
        <ele>20</ele>
        <time>2024-05-26T07:27:49Z</time>
      </trkpt>
      <trkpt lat="49.13828" lon="-0.25901">
        <ele>20</ele>
        <time>2024-05-26T07:27:50Z</time>
      </trkpt>
      <trkpt lat="49.13834" lon="-0.25909">
        <ele>19.8</ele>
        <time>2024-05-26T07:27:51Z</time>
      </trkpt>
      <trkpt lat="49.13839" lon="-0.25918">
        <ele>19.8</ele>
        <time>2024-05-26T07:27:52Z</time>
      </trkpt>
      <trkpt lat="49.13845" lon="-0.25927">
        <ele>19.6</ele>
        <time>2024-05-26T07:27:53Z</time>
      </trkpt>
      <trkpt lat="49.13849" lon="-0.25937">
        <ele>19.6</ele>
        <time>2024-05-26T07:27:54Z</time>
      </trkpt>
      <trkpt lat="49.13854" lon="-0.25947">
        <ele>19.4</ele>
        <time>2024-05-26T07:27:55Z</time>
      </trkpt>
      <trkpt lat="49.13858" lon="-0.25956">
        <ele>19.2</ele>
        <time>2024-05-26T07:27:56Z</time>
      </trkpt>
      <trkpt lat="49.13862" lon="-0.25967">
        <ele>19.2</ele>
        <time>2024-05-26T07:27:57Z</time>
      </trkpt>
      <trkpt lat="49.13866" lon="-0.25977">
        <ele>19.2</ele>
        <time>2024-05-26T07:27:58Z</time>
      </trkpt>
      <trkpt lat="49.1387" lon="-0.25987">
        <ele>19.2</ele>
        <time>2024-05-26T07:27:59Z</time>
      </trkpt>
      <trkpt lat="49.13873" lon="-0.25998">
        <ele>19</ele>
        <time>2024-05-26T07:28:00Z</time>
      </trkpt>
      <trkpt lat="49.13876" lon="-0.26009">
        <ele>19</ele>
        <time>2024-05-26T07:28:01Z</time>
      </trkpt>
      <trkpt lat="49.13879" lon="-0.26019">
        <ele>19</ele>
        <time>2024-05-26T07:28:02Z</time>
      </trkpt>
      <trkpt lat="49.13881" lon="-0.2603">
        <ele>19</ele>
        <time>2024-05-26T07:28:03Z</time>
      </trkpt>
      <trkpt lat="49.13884" lon="-0.26041">
        <ele>19</ele>
        <time>2024-05-26T07:28:04Z</time>
      </trkpt>
      <trkpt lat="49.13885" lon="-0.26052">
        <ele>19</ele>
        <time>2024-05-26T07:28:05Z</time>
      </trkpt>
      <trkpt lat="49.13887" lon="-0.26063">
        <ele>19</ele>
        <time>2024-05-26T07:28:06Z</time>
      </trkpt>
      <trkpt lat="49.13888" lon="-0.26074">
        <ele>19</ele>
        <time>2024-05-26T07:28:07Z</time>
      </trkpt>
      <trkpt lat="49.13889" lon="-0.26085">
        <ele>19</ele>
        <time>2024-05-26T07:28:08Z</time>
      </trkpt>
      <trkpt lat="49.13889" lon="-0.26096">
        <ele>19</ele>
        <time>2024-05-26T07:28:09Z</time>
      </trkpt>
      <trkpt lat="49.13891" lon="-0.26107">
        <ele>19</ele>
        <time>2024-05-26T07:28:10Z</time>
      </trkpt>
      <trkpt lat="49.13892" lon="-0.26118">
        <ele>19</ele>
        <time>2024-05-26T07:28:11Z</time>
      </trkpt>
      <trkpt lat="49.13893" lon="-0.26128">
        <ele>19</ele>
        <time>2024-05-26T07:28:12Z</time>
      </trkpt>
      <trkpt lat="49.13894" lon="-0.26138">
        <ele>19</ele>
        <time>2024-05-26T07:28:13Z</time>
      </trkpt>
      <trkpt lat="49.13896" lon="-0.26149">
        <ele>19</ele>
        <time>2024-05-26T07:28:14Z</time>
      </trkpt>
      <trkpt lat="49.13897" lon="-0.26159">
        <ele>19.2</ele>
        <time>2024-05-26T07:28:15Z</time>
      </trkpt>
      <trkpt lat="49.13898" lon="-0.2617">
        <ele>19.2</ele>
        <time>2024-05-26T07:28:16Z</time>
      </trkpt>
      <trkpt lat="49.13898" lon="-0.26181">
        <ele>19.2</ele>
        <time>2024-05-26T07:28:17Z</time>
      </trkpt>
      <trkpt lat="49.13899" lon="-0.26192">
        <ele>19.2</ele>
        <time>2024-05-26T07:28:18Z</time>
      </trkpt>
      <trkpt lat="49.13898" lon="-0.26203">
        <ele>19.2</ele>
        <time>2024-05-26T07:28:19Z</time>
      </trkpt>
      <trkpt lat="49.13898" lon="-0.26214">
        <ele>19.2</ele>
        <time>2024-05-26T07:28:20Z</time>
      </trkpt>
      <trkpt lat="49.13898" lon="-0.26225">
        <ele>19.4</ele>
        <time>2024-05-26T07:28:21Z</time>
      </trkpt>
      <trkpt lat="49.13898" lon="-0.26236">
        <ele>19.4</ele>
        <time>2024-05-26T07:28:22Z</time>
      </trkpt>
      <trkpt lat="49.13899" lon="-0.26247">
        <ele>19.4</ele>
        <time>2024-05-26T07:28:23Z</time>
      </trkpt>
      <trkpt lat="49.139" lon="-0.26258">
        <ele>19.4</ele>
        <time>2024-05-26T07:28:24Z</time>
      </trkpt>
      <trkpt lat="49.13901" lon="-0.26269">
        <ele>19.4</ele>
        <time>2024-05-26T07:28:25Z</time>
      </trkpt>
      <trkpt lat="49.13902" lon="-0.26281">
        <ele>19.4</ele>
        <time>2024-05-26T07:28:26Z</time>
      </trkpt>
      <trkpt lat="49.13903" lon="-0.26292">
        <ele>19.6</ele>
        <time>2024-05-26T07:28:27Z</time>
      </trkpt>
      <trkpt lat="49.13904" lon="-0.26304">
        <ele>19.6</ele>
        <time>2024-05-26T07:28:28Z</time>
      </trkpt>
      <trkpt lat="49.13905" lon="-0.26316">
        <ele>19.6</ele>
        <time>2024-05-26T07:28:29Z</time>
      </trkpt>
      <trkpt lat="49.13906" lon="-0.26328">
        <ele>19.6</ele>
        <time>2024-05-26T07:28:30Z</time>
      </trkpt>
      <trkpt lat="49.13907" lon="-0.2634">
        <ele>19.6</ele>
        <time>2024-05-26T07:28:31Z</time>
      </trkpt>
      <trkpt lat="49.13908" lon="-0.26352">
        <ele>19.4</ele>
        <time>2024-05-26T07:28:32Z</time>
      </trkpt>
      <trkpt lat="49.13909" lon="-0.26364">
        <ele>19.2</ele>
        <time>2024-05-26T07:28:33Z</time>
      </trkpt>
      <trkpt lat="49.13909" lon="-0.26376">
        <ele>19.2</ele>
        <time>2024-05-26T07:28:34Z</time>
      </trkpt>
      <trkpt lat="49.13909" lon="-0.26388">
        <ele>19.2</ele>
        <time>2024-05-26T07:28:35Z</time>
      </trkpt>
      <trkpt lat="49.1391" lon="-0.264">
        <ele>19.2</ele>
        <time>2024-05-26T07:28:36Z</time>
      </trkpt>
      <trkpt lat="49.13911" lon="-0.26412">
        <ele>19.2</ele>
        <time>2024-05-26T07:28:37Z</time>
      </trkpt>
      <trkpt lat="49.13911" lon="-0.26424">
        <ele>19.2</ele>
        <time>2024-05-26T07:28:38Z</time>
      </trkpt>
      <trkpt lat="49.13912" lon="-0.26436">
        <ele>19</ele>
        <time>2024-05-26T07:28:39Z</time>
      </trkpt>
      <trkpt lat="49.13913" lon="-0.26447">
        <ele>18.8</ele>
        <time>2024-05-26T07:28:40Z</time>
      </trkpt>
      <trkpt lat="49.13914" lon="-0.26459">
        <ele>18.8</ele>
        <time>2024-05-26T07:28:41Z</time>
      </trkpt>
      <trkpt lat="49.13915" lon="-0.2647">
        <ele>18.6</ele>
        <time>2024-05-26T07:28:42Z</time>
      </trkpt>
      <trkpt lat="49.13916" lon="-0.26481">
        <ele>18.4</ele>
        <time>2024-05-26T07:28:43Z</time>
      </trkpt>
      <trkpt lat="49.13917" lon="-0.26492">
        <ele>18.2</ele>
        <time>2024-05-26T07:28:44Z</time>
      </trkpt>
      <trkpt lat="49.13918" lon="-0.26504">
        <ele>18</ele>
        <time>2024-05-26T07:28:45Z</time>
      </trkpt>
      <trkpt lat="49.13917" lon="-0.26515">
        <ele>17.8</ele>
        <time>2024-05-26T07:28:46Z</time>
      </trkpt>
      <trkpt lat="49.13915" lon="-0.26525">
        <ele>17.8</ele>
        <time>2024-05-26T07:28:47Z</time>
      </trkpt>
      <trkpt lat="49.13911" lon="-0.26535">
        <ele>17.8</ele>
        <time>2024-05-26T07:28:48Z</time>
      </trkpt>
      <trkpt lat="49.13906" lon="-0.26544">
        <ele>17.8</ele>
        <time>2024-05-26T07:28:49Z</time>
      </trkpt>
      <trkpt lat="49.13901" lon="-0.26552">
        <ele>17.8</ele>
        <time>2024-05-26T07:28:50Z</time>
      </trkpt>
      <trkpt lat="49.13896" lon="-0.2656">
        <ele>17.6</ele>
        <time>2024-05-26T07:28:51Z</time>
      </trkpt>
      <trkpt lat="49.13891" lon="-0.26567">
        <ele>17.6</ele>
        <time>2024-05-26T07:28:52Z</time>
      </trkpt>
      <trkpt lat="49.13886" lon="-0.26576">
        <ele>17.6</ele>
        <time>2024-05-26T07:28:53Z</time>
      </trkpt>
      <trkpt lat="49.13883" lon="-0.26586">
        <ele>17.6</ele>
        <time>2024-05-26T07:28:54Z</time>
      </trkpt>
      <trkpt lat="49.13881" lon="-0.26595">
        <ele>17.6</ele>
        <time>2024-05-26T07:28:55Z</time>
      </trkpt>
      <trkpt lat="49.1388" lon="-0.26605">
        <ele>17.6</ele>
        <time>2024-05-26T07:28:56Z</time>
      </trkpt>
      <trkpt lat="49.13881" lon="-0.26614">
        <ele>17.6</ele>
        <time>2024-05-26T07:28:57Z</time>
      </trkpt>
      <trkpt lat="49.13881" lon="-0.26624">
        <ele>17.6</ele>
        <time>2024-05-26T07:28:58Z</time>
      </trkpt>
      <trkpt lat="49.13882" lon="-0.26633">
        <ele>17.6</ele>
        <time>2024-05-26T07:28:59Z</time>
      </trkpt>
      <trkpt lat="49.13884" lon="-0.26643">
        <ele>17.8</ele>
        <time>2024-05-26T07:29:00Z</time>
      </trkpt>
      <trkpt lat="49.13885" lon="-0.26652">
        <ele>17.8</ele>
        <time>2024-05-26T07:29:01Z</time>
      </trkpt>
      <trkpt lat="49.13887" lon="-0.26662">
        <ele>17.8</ele>
        <time>2024-05-26T07:29:02Z</time>
      </trkpt>
      <trkpt lat="49.13888" lon="-0.26672">
        <ele>18</ele>
        <time>2024-05-26T07:29:03Z</time>
      </trkpt>
      <trkpt lat="49.13889" lon="-0.26682">
        <ele>18.2</ele>
        <time>2024-05-26T07:29:04Z</time>
      </trkpt>
      <trkpt lat="49.1389" lon="-0.26692">
        <ele>18.2</ele>
        <time>2024-05-26T07:29:05Z</time>
      </trkpt>
      <trkpt lat="49.13891" lon="-0.26702">
        <ele>18.4</ele>
        <time>2024-05-26T07:29:06Z</time>
      </trkpt>
      <trkpt lat="49.13892" lon="-0.26712">
        <ele>18.4</ele>
        <time>2024-05-26T07:29:07Z</time>
      </trkpt>
      <trkpt lat="49.13892" lon="-0.26721">
        <ele>18.8</ele>
        <time>2024-05-26T07:29:08Z</time>
      </trkpt>
      <trkpt lat="49.13892" lon="-0.26731">
        <ele>19</ele>
        <time>2024-05-26T07:29:09Z</time>
      </trkpt>
      <trkpt lat="49.13891" lon="-0.26741">
        <ele>19.2</ele>
        <time>2024-05-26T07:29:10Z</time>
      </trkpt>
      <trkpt lat="49.1389" lon="-0.2675">
        <ele>19.2</ele>
        <time>2024-05-26T07:29:11Z</time>
      </trkpt>
      <trkpt lat="49.13889" lon="-0.2676">
        <ele>19.2</ele>
        <time>2024-05-26T07:29:12Z</time>
      </trkpt>
      <trkpt lat="49.13887" lon="-0.26769">
        <ele>19.2</ele>
        <time>2024-05-26T07:29:13Z</time>
      </trkpt>
      <trkpt lat="49.13884" lon="-0.26779">
        <ele>19.4</ele>
        <time>2024-05-26T07:29:14Z</time>
      </trkpt>
      <trkpt lat="49.13881" lon="-0.26788">
        <ele>19.4</ele>
        <time>2024-05-26T07:29:15Z</time>
      </trkpt>
      <trkpt lat="49.13878" lon="-0.26797">
        <ele>19.4</ele>
        <time>2024-05-26T07:29:16Z</time>
      </trkpt>
      <trkpt lat="49.13875" lon="-0.26806">
        <ele>19.4</ele>
        <time>2024-05-26T07:29:17Z</time>
      </trkpt>
      <trkpt lat="49.13872" lon="-0.26815">
        <ele>19.4</ele>
        <time>2024-05-26T07:29:18Z</time>
      </trkpt>
      <trkpt lat="49.13868" lon="-0.26824">
        <ele>19.4</ele>
        <time>2024-05-26T07:29:19Z</time>
      </trkpt>
      <trkpt lat="49.13865" lon="-0.26832">
        <ele>19.4</ele>
        <time>2024-05-26T07:29:20Z</time>
      </trkpt>
      <trkpt lat="49.13861" lon="-0.26841">
        <ele>19.4</ele>
        <time>2024-05-26T07:29:21Z</time>
      </trkpt>
      <trkpt lat="49.13858" lon="-0.26849">
        <ele>19.4</ele>
        <time>2024-05-26T07:29:22Z</time>
      </trkpt>
      <trkpt lat="49.13854" lon="-0.26858">
        <ele>19.4</ele>
        <time>2024-05-26T07:29:23Z</time>
      </trkpt>
      <trkpt lat="49.13851" lon="-0.26867">
        <ele>19.4</ele>
        <time>2024-05-26T07:29:24Z</time>
      </trkpt>
      <trkpt lat="49.13847" lon="-0.26875">
        <ele>19.6</ele>
        <time>2024-05-26T07:29:25Z</time>
      </trkpt>
      <trkpt lat="49.13844" lon="-0.26884">
        <ele>19.6</ele>
        <time>2024-05-26T07:29:26Z</time>
      </trkpt>
      <trkpt lat="49.1384" lon="-0.26892">
        <ele>19.8</ele>
        <time>2024-05-26T07:29:27Z</time>
      </trkpt>
      <trkpt lat="49.13837" lon="-0.26901">
        <ele>20</ele>
        <time>2024-05-26T07:29:28Z</time>
      </trkpt>
      <trkpt lat="49.13833" lon="-0.26909">
        <ele>20</ele>
        <time>2024-05-26T07:29:29Z</time>
      </trkpt>
      <trkpt lat="49.1383" lon="-0.26918">
        <ele>20</ele>
        <time>2024-05-26T07:29:30Z</time>
      </trkpt>
      <trkpt lat="49.13826" lon="-0.26926">
        <ele>20.2</ele>
        <time>2024-05-26T07:29:31Z</time>
      </trkpt>
      <trkpt lat="49.13822" lon="-0.26934">
        <ele>20.2</ele>
        <time>2024-05-26T07:29:32Z</time>
      </trkpt>
      <trkpt lat="49.13818" lon="-0.26942">
        <ele>20.4</ele>
        <time>2024-05-26T07:29:33Z</time>
      </trkpt>
      <trkpt lat="49.13815" lon="-0.2695">
        <ele>20.4</ele>
        <time>2024-05-26T07:29:34Z</time>
      </trkpt>
      <trkpt lat="49.13811" lon="-0.26958">
        <ele>20.6</ele>
        <time>2024-05-26T07:29:35Z</time>
      </trkpt>
      <trkpt lat="49.13807" lon="-0.26966">
        <ele>20.8</ele>
        <time>2024-05-26T07:29:36Z</time>
      </trkpt>
      <trkpt lat="49.13803" lon="-0.26974">
        <ele>21</ele>
        <time>2024-05-26T07:29:37Z</time>
      </trkpt>
      <trkpt lat="49.13799" lon="-0.26983">
        <ele>21</ele>
        <time>2024-05-26T07:29:38Z</time>
      </trkpt>
      <trkpt lat="49.13795" lon="-0.26991">
        <ele>21.2</ele>
        <time>2024-05-26T07:29:39Z</time>
      </trkpt>
      <trkpt lat="49.13791" lon="-0.27">
        <ele>21.2</ele>
        <time>2024-05-26T07:29:40Z</time>
      </trkpt>
      <trkpt lat="49.13788" lon="-0.27008">
        <ele>21.4</ele>
        <time>2024-05-26T07:29:41Z</time>
      </trkpt>
      <trkpt lat="49.13784" lon="-0.27016">
        <ele>21.6</ele>
        <time>2024-05-26T07:29:42Z</time>
      </trkpt>
      <trkpt lat="49.1378" lon="-0.27024">
        <ele>21.6</ele>
        <time>2024-05-26T07:29:43Z</time>
      </trkpt>
      <trkpt lat="49.13775" lon="-0.27033">
        <ele>21.6</ele>
        <time>2024-05-26T07:29:44Z</time>
      </trkpt>
      <trkpt lat="49.13771" lon="-0.27041">
        <ele>21.8</ele>
        <time>2024-05-26T07:29:45Z</time>
      </trkpt>
      <trkpt lat="49.13767" lon="-0.27049">
        <ele>22.2</ele>
        <time>2024-05-26T07:29:46Z</time>
      </trkpt>
      <trkpt lat="49.13763" lon="-0.27057">
        <ele>22.6</ele>
        <time>2024-05-26T07:29:47Z</time>
      </trkpt>
      <trkpt lat="49.13759" lon="-0.27064">
        <ele>22.8</ele>
        <time>2024-05-26T07:29:48Z</time>
      </trkpt>
      <trkpt lat="49.13755" lon="-0.27072">
        <ele>23</ele>
        <time>2024-05-26T07:29:49Z</time>
      </trkpt>
      <trkpt lat="49.13752" lon="-0.2708">
        <ele>23</ele>
        <time>2024-05-26T07:29:50Z</time>
      </trkpt>
      <trkpt lat="49.13748" lon="-0.27088">
        <ele>23.2</ele>
        <time>2024-05-26T07:29:51Z</time>
      </trkpt>
      <trkpt lat="49.13745" lon="-0.27095">
        <ele>23.2</ele>
        <time>2024-05-26T07:29:52Z</time>
      </trkpt>
      <trkpt lat="49.13741" lon="-0.27103">
        <ele>23.2</ele>
        <time>2024-05-26T07:29:53Z</time>
      </trkpt>
      <trkpt lat="49.13737" lon="-0.27111">
        <ele>23.2</ele>
        <time>2024-05-26T07:29:54Z</time>
      </trkpt>
      <trkpt lat="49.13733" lon="-0.27119">
        <ele>23.4</ele>
        <time>2024-05-26T07:29:55Z</time>
      </trkpt>
      <trkpt lat="49.13728" lon="-0.27127">
        <ele>23.4</ele>
        <time>2024-05-26T07:29:56Z</time>
      </trkpt>
      <trkpt lat="49.13724" lon="-0.27136">
        <ele>23.4</ele>
        <time>2024-05-26T07:29:57Z</time>
      </trkpt>
      <trkpt lat="49.13719" lon="-0.27145">
        <ele>23.4</ele>
        <time>2024-05-26T07:29:58Z</time>
      </trkpt>
      <trkpt lat="49.13715" lon="-0.27155">
        <ele>23.6</ele>
        <time>2024-05-26T07:29:59Z</time>
      </trkpt>
      <trkpt lat="49.1371" lon="-0.27165">
        <ele>23.6</ele>
        <time>2024-05-26T07:30:00Z</time>
      </trkpt>
      <trkpt lat="49.13706" lon="-0.27173">
        <ele>23.6</ele>
        <time>2024-05-26T07:30:01Z</time>
      </trkpt>
      <trkpt lat="49.13701" lon="-0.27182">
        <ele>23.6</ele>
        <time>2024-05-26T07:30:02Z</time>
      </trkpt>
      <trkpt lat="49.13697" lon="-0.27191">
        <ele>23.6</ele>
        <time>2024-05-26T07:30:03Z</time>
      </trkpt>
      <trkpt lat="49.13693" lon="-0.272">
        <ele>23.6</ele>
        <time>2024-05-26T07:30:04Z</time>
      </trkpt>
      <trkpt lat="49.13688" lon="-0.27209">
        <ele>23.6</ele>
        <time>2024-05-26T07:30:05Z</time>
      </trkpt>
      <trkpt lat="49.13684" lon="-0.27218">
        <ele>23.8</ele>
        <time>2024-05-26T07:30:06Z</time>
      </trkpt>
      <trkpt lat="49.13679" lon="-0.27227">
        <ele>23.8</ele>
        <time>2024-05-26T07:30:07Z</time>
      </trkpt>
      <trkpt lat="49.13675" lon="-0.27237">
        <ele>23.8</ele>
        <time>2024-05-26T07:30:08Z</time>
      </trkpt>
      <trkpt lat="49.1367" lon="-0.27246">
        <ele>24</ele>
        <time>2024-05-26T07:30:09Z</time>
      </trkpt>
      <trkpt lat="49.13665" lon="-0.27256">
        <ele>24</ele>
        <time>2024-05-26T07:30:10Z</time>
      </trkpt>
      <trkpt lat="49.13661" lon="-0.27265">
        <ele>24.2</ele>
        <time>2024-05-26T07:30:11Z</time>
      </trkpt>
      <trkpt lat="49.13656" lon="-0.27274">
        <ele>24.2</ele>
        <time>2024-05-26T07:30:12Z</time>
      </trkpt>
      <trkpt lat="49.13651" lon="-0.27282">
        <ele>24.4</ele>
        <time>2024-05-26T07:30:13Z</time>
      </trkpt>
      <trkpt lat="49.13647" lon="-0.27291">
        <ele>24.4</ele>
        <time>2024-05-26T07:30:14Z</time>
      </trkpt>
      <trkpt lat="49.13643" lon="-0.273">
        <ele>24.4</ele>
        <time>2024-05-26T07:30:15Z</time>
      </trkpt>
      <trkpt lat="49.13638" lon="-0.27309">
        <ele>24.4</ele>
        <time>2024-05-26T07:30:16Z</time>
      </trkpt>
      <trkpt lat="49.13634" lon="-0.27318">
        <ele>24.4</ele>
        <time>2024-05-26T07:30:17Z</time>
      </trkpt>
      <trkpt lat="49.1363" lon="-0.27326">
        <ele>24.4</ele>
        <time>2024-05-26T07:30:18Z</time>
      </trkpt>
      <trkpt lat="49.13625" lon="-0.27335">
        <ele>24.4</ele>
        <time>2024-05-26T07:30:19Z</time>
      </trkpt>
      <trkpt lat="49.13621" lon="-0.27344">
        <ele>24.4</ele>
        <time>2024-05-26T07:30:20Z</time>
      </trkpt>
      <trkpt lat="49.13617" lon="-0.27353">
        <ele>24.4</ele>
        <time>2024-05-26T07:30:21Z</time>
      </trkpt>
      <trkpt lat="49.13613" lon="-0.27362">
        <ele>24</ele>
        <time>2024-05-26T07:30:22Z</time>
      </trkpt>
      <trkpt lat="49.13609" lon="-0.27371">
        <ele>23.8</ele>
        <time>2024-05-26T07:30:23Z</time>
      </trkpt>
      <trkpt lat="49.13604" lon="-0.2738">
        <ele>23.8</ele>
        <time>2024-05-26T07:30:24Z</time>
      </trkpt>
      <trkpt lat="49.136" lon="-0.27389">
        <ele>23.6</ele>
        <time>2024-05-26T07:30:25Z</time>
      </trkpt>
      <trkpt lat="49.13596" lon="-0.27397">
        <ele>23.6</ele>
        <time>2024-05-26T07:30:26Z</time>
      </trkpt>
      <trkpt lat="49.13593" lon="-0.27406">
        <ele>23.6</ele>
        <time>2024-05-26T07:30:27Z</time>
      </trkpt>
      <trkpt lat="49.13589" lon="-0.27416">
        <ele>23.6</ele>
        <time>2024-05-26T07:30:28Z</time>
      </trkpt>
      <trkpt lat="49.13586" lon="-0.27425">
        <ele>23.6</ele>
        <time>2024-05-26T07:30:29Z</time>
      </trkpt>
      <trkpt lat="49.13582" lon="-0.27433">
        <ele>23.6</ele>
        <time>2024-05-26T07:30:30Z</time>
      </trkpt>
      <trkpt lat="49.13578" lon="-0.27441">
        <ele>23.4</ele>
        <time>2024-05-26T07:30:31Z</time>
      </trkpt>
      <trkpt lat="49.13574" lon="-0.27449">
        <ele>23.4</ele>
        <time>2024-05-26T07:30:32Z</time>
      </trkpt>
      <trkpt lat="49.1357" lon="-0.27458">
        <ele>23.4</ele>
        <time>2024-05-26T07:30:33Z</time>
      </trkpt>
      <trkpt lat="49.13567" lon="-0.27468">
        <ele>23.4</ele>
        <time>2024-05-26T07:30:34Z</time>
      </trkpt>
      <trkpt lat="49.13564" lon="-0.27477">
        <ele>23.6</ele>
        <time>2024-05-26T07:30:35Z</time>
      </trkpt>
      <trkpt lat="49.13561" lon="-0.27488">
        <ele>23.6</ele>
        <time>2024-05-26T07:30:36Z</time>
      </trkpt>
      <trkpt lat="49.1356" lon="-0.27499">
        <ele>23.6</ele>
        <time>2024-05-26T07:30:37Z</time>
      </trkpt>
      <trkpt lat="49.13559" lon="-0.2751">
        <ele>23.6</ele>
        <time>2024-05-26T07:30:38Z</time>
      </trkpt>
      <trkpt lat="49.13558" lon="-0.27521">
        <ele>23.6</ele>
        <time>2024-05-26T07:30:39Z</time>
      </trkpt>
      <trkpt lat="49.13557" lon="-0.27532">
        <ele>23.6</ele>
        <time>2024-05-26T07:30:40Z</time>
      </trkpt>
      <trkpt lat="49.13557" lon="-0.27543">
        <ele>24</ele>
        <time>2024-05-26T07:30:41Z</time>
      </trkpt>
      <trkpt lat="49.13556" lon="-0.27555">
        <ele>24.2</ele>
        <time>2024-05-26T07:30:42Z</time>
      </trkpt>
      <trkpt lat="49.13556" lon="-0.27566">
        <ele>24.4</ele>
        <time>2024-05-26T07:30:43Z</time>
      </trkpt>
      <trkpt lat="49.13556" lon="-0.27577">
        <ele>24.6</ele>
        <time>2024-05-26T07:30:44Z</time>
      </trkpt>
      <trkpt lat="49.13556" lon="-0.27588">
        <ele>24.6</ele>
        <time>2024-05-26T07:30:45Z</time>
      </trkpt>
      <trkpt lat="49.13556" lon="-0.276">
        <ele>24.6</ele>
        <time>2024-05-26T07:30:46Z</time>
      </trkpt>
      <trkpt lat="49.13556" lon="-0.27611">
        <ele>24.6</ele>
        <time>2024-05-26T07:30:47Z</time>
      </trkpt>
      <trkpt lat="49.13555" lon="-0.27623">
        <ele>24.6</ele>
        <time>2024-05-26T07:30:48Z</time>
      </trkpt>
      <trkpt lat="49.13555" lon="-0.27634">
        <ele>24.6</ele>
        <time>2024-05-26T07:30:49Z</time>
      </trkpt>
      <trkpt lat="49.13555" lon="-0.27645">
        <ele>24.6</ele>
        <time>2024-05-26T07:30:50Z</time>
      </trkpt>
      <trkpt lat="49.13555" lon="-0.27656">
        <ele>24.6</ele>
        <time>2024-05-26T07:30:51Z</time>
      </trkpt>
      <trkpt lat="49.13555" lon="-0.27668">
        <ele>24.6</ele>
        <time>2024-05-26T07:30:52Z</time>
      </trkpt>
      <trkpt lat="49.13555" lon="-0.27679">
        <ele>24.6</ele>
        <time>2024-05-26T07:30:53Z</time>
      </trkpt>
      <trkpt lat="49.13555" lon="-0.2769">
        <ele>24.6</ele>
        <time>2024-05-26T07:30:54Z</time>
      </trkpt>
      <trkpt lat="49.13555" lon="-0.277">
        <ele>24.6</ele>
        <time>2024-05-26T07:30:55Z</time>
      </trkpt>
      <trkpt lat="49.13554" lon="-0.27711">
        <ele>24.6</ele>
        <time>2024-05-26T07:30:56Z</time>
      </trkpt>
      <trkpt lat="49.13554" lon="-0.27722">
        <ele>24.6</ele>
        <time>2024-05-26T07:30:57Z</time>
      </trkpt>
      <trkpt lat="49.13553" lon="-0.27733">
        <ele>24.6</ele>
        <time>2024-05-26T07:30:58Z</time>
      </trkpt>
      <trkpt lat="49.13553" lon="-0.27744">
        <ele>24.6</ele>
        <time>2024-05-26T07:30:59Z</time>
      </trkpt>
      <trkpt lat="49.13552" lon="-0.27755">
        <ele>24.6</ele>
        <time>2024-05-26T07:31:00Z</time>
      </trkpt>
      <trkpt lat="49.13552" lon="-0.27766">
        <ele>24.6</ele>
        <time>2024-05-26T07:31:01Z</time>
      </trkpt>
      <trkpt lat="49.13552" lon="-0.27777">
        <ele>24.6</ele>
        <time>2024-05-26T07:31:02Z</time>
      </trkpt>
      <trkpt lat="49.13551" lon="-0.27788">
        <ele>24.6</ele>
        <time>2024-05-26T07:31:03Z</time>
      </trkpt>
      <trkpt lat="49.1355" lon="-0.278">
        <ele>24.8</ele>
        <time>2024-05-26T07:31:04Z</time>
      </trkpt>
      <trkpt lat="49.13548" lon="-0.2781">
        <ele>25</ele>
        <time>2024-05-26T07:31:05Z</time>
      </trkpt>
      <trkpt lat="49.13546" lon="-0.27821">
        <ele>25</ele>
        <time>2024-05-26T07:31:06Z</time>
      </trkpt>
      <trkpt lat="49.13544" lon="-0.27833">
        <ele>25</ele>
        <time>2024-05-26T07:31:07Z</time>
      </trkpt>
      <trkpt lat="49.13542" lon="-0.27844">
        <ele>25</ele>
        <time>2024-05-26T07:31:08Z</time>
      </trkpt>
      <trkpt lat="49.1354" lon="-0.27855">
        <ele>25</ele>
        <time>2024-05-26T07:31:09Z</time>
      </trkpt>
      <trkpt lat="49.13539" lon="-0.27865">
        <ele>25.2</ele>
        <time>2024-05-26T07:31:10Z</time>
      </trkpt>
      <trkpt lat="49.13537" lon="-0.27876">
        <ele>25.2</ele>
        <time>2024-05-26T07:31:11Z</time>
      </trkpt>
      <trkpt lat="49.13536" lon="-0.27886">
        <ele>25.2</ele>
        <time>2024-05-26T07:31:12Z</time>
      </trkpt>
      <trkpt lat="49.13535" lon="-0.27897">
        <ele>25.2</ele>
        <time>2024-05-26T07:31:13Z</time>
      </trkpt>
      <trkpt lat="49.13534" lon="-0.27908">
        <ele>25.2</ele>
        <time>2024-05-26T07:31:14Z</time>
      </trkpt>
      <trkpt lat="49.13534" lon="-0.27919">
        <ele>25.2</ele>
        <time>2024-05-26T07:31:15Z</time>
      </trkpt>
      <trkpt lat="49.13533" lon="-0.27929">
        <ele>25.2</ele>
        <time>2024-05-26T07:31:16Z</time>
      </trkpt>
      <trkpt lat="49.13533" lon="-0.2794">
        <ele>25.2</ele>
        <time>2024-05-26T07:31:17Z</time>
      </trkpt>
      <trkpt lat="49.13533" lon="-0.27951">
        <ele>25.2</ele>
        <time>2024-05-26T07:31:18Z</time>
      </trkpt>
      <trkpt lat="49.13534" lon="-0.27962">
        <ele>25.2</ele>
        <time>2024-05-26T07:31:19Z</time>
      </trkpt>
      <trkpt lat="49.13533" lon="-0.27973">
        <ele>25.2</ele>
        <time>2024-05-26T07:31:20Z</time>
      </trkpt>
      <trkpt lat="49.13532" lon="-0.27984">
        <ele>25.2</ele>
        <time>2024-05-26T07:31:21Z</time>
      </trkpt>
      <trkpt lat="49.13531" lon="-0.27995">
        <ele>25</ele>
        <time>2024-05-26T07:31:22Z</time>
      </trkpt>
      <trkpt lat="49.13529" lon="-0.28007">
        <ele>25</ele>
        <time>2024-05-26T07:31:23Z</time>
      </trkpt>
      <trkpt lat="49.13528" lon="-0.28019">
        <ele>25</ele>
        <time>2024-05-26T07:31:24Z</time>
      </trkpt>
      <trkpt lat="49.13528" lon="-0.28031">
        <ele>25</ele>
        <time>2024-05-26T07:31:25Z</time>
      </trkpt>
      <trkpt lat="49.13527" lon="-0.28043">
        <ele>25</ele>
        <time>2024-05-26T07:31:26Z</time>
      </trkpt>
      <trkpt lat="49.13526" lon="-0.28055">
        <ele>25</ele>
        <time>2024-05-26T07:31:27Z</time>
      </trkpt>
      <trkpt lat="49.13525" lon="-0.28067">
        <ele>25</ele>
        <time>2024-05-26T07:31:28Z</time>
      </trkpt>
      <trkpt lat="49.13524" lon="-0.28079">
        <ele>25</ele>
        <time>2024-05-26T07:31:29Z</time>
      </trkpt>
      <trkpt lat="49.13524" lon="-0.2809">
        <ele>24.8</ele>
        <time>2024-05-26T07:31:30Z</time>
      </trkpt>
      <trkpt lat="49.13523" lon="-0.28102">
        <ele>24.8</ele>
        <time>2024-05-26T07:31:31Z</time>
      </trkpt>
      <trkpt lat="49.13522" lon="-0.28113">
        <ele>24.8</ele>
        <time>2024-05-26T07:31:32Z</time>
      </trkpt>
      <trkpt lat="49.13522" lon="-0.28125">
        <ele>24.8</ele>
        <time>2024-05-26T07:31:33Z</time>
      </trkpt>
      <trkpt lat="49.13521" lon="-0.28136">
        <ele>24.8</ele>
        <time>2024-05-26T07:31:34Z</time>
      </trkpt>
      <trkpt lat="49.13521" lon="-0.28148">
        <ele>24.8</ele>
        <time>2024-05-26T07:31:35Z</time>
      </trkpt>
      <trkpt lat="49.1352" lon="-0.28159">
        <ele>24.8</ele>
        <time>2024-05-26T07:31:36Z</time>
      </trkpt>
      <trkpt lat="49.13519" lon="-0.2817">
        <ele>24.8</ele>
        <time>2024-05-26T07:31:37Z</time>
      </trkpt>
      <trkpt lat="49.13519" lon="-0.28181">
        <ele>24.8</ele>
        <time>2024-05-26T07:31:38Z</time>
      </trkpt>
      <trkpt lat="49.13518" lon="-0.28192">
        <ele>24.8</ele>
        <time>2024-05-26T07:31:39Z</time>
      </trkpt>
      <trkpt lat="49.13518" lon="-0.28203">
        <ele>24.8</ele>
        <time>2024-05-26T07:31:40Z</time>
      </trkpt>
      <trkpt lat="49.13517" lon="-0.28215">
        <ele>24.8</ele>
        <time>2024-05-26T07:31:41Z</time>
      </trkpt>
      <trkpt lat="49.13516" lon="-0.28226">
        <ele>24.8</ele>
        <time>2024-05-26T07:31:42Z</time>
      </trkpt>
      <trkpt lat="49.13516" lon="-0.28237">
        <ele>24.8</ele>
        <time>2024-05-26T07:31:43Z</time>
      </trkpt>
      <trkpt lat="49.13515" lon="-0.28248">
        <ele>24.8</ele>
        <time>2024-05-26T07:31:44Z</time>
      </trkpt>
      <trkpt lat="49.13514" lon="-0.2826">
        <ele>24.8</ele>
        <time>2024-05-26T07:31:45Z</time>
      </trkpt>
      <trkpt lat="49.13514" lon="-0.28271">
        <ele>24.8</ele>
        <time>2024-05-26T07:31:46Z</time>
      </trkpt>
      <trkpt lat="49.13513" lon="-0.28282">
        <ele>24.8</ele>
        <time>2024-05-26T07:31:47Z</time>
      </trkpt>
      <trkpt lat="49.13513" lon="-0.28293">
        <ele>25</ele>
        <time>2024-05-26T07:31:48Z</time>
      </trkpt>
      <trkpt lat="49.13512" lon="-0.28304">
        <ele>25</ele>
        <time>2024-05-26T07:31:49Z</time>
      </trkpt>
      <trkpt lat="49.13511" lon="-0.28315">
        <ele>25</ele>
        <time>2024-05-26T07:31:50Z</time>
      </trkpt>
      <trkpt lat="49.1351" lon="-0.28327">
        <ele>25.2</ele>
        <time>2024-05-26T07:31:51Z</time>
      </trkpt>
      <trkpt lat="49.13509" lon="-0.28338">
        <ele>25.4</ele>
        <time>2024-05-26T07:31:52Z</time>
      </trkpt>
      <trkpt lat="49.13509" lon="-0.2835">
        <ele>25.4</ele>
        <time>2024-05-26T07:31:53Z</time>
      </trkpt>
      <trkpt lat="49.13508" lon="-0.28361">
        <ele>25.4</ele>
        <time>2024-05-26T07:31:54Z</time>
      </trkpt>
      <trkpt lat="49.13507" lon="-0.28373">
        <ele>25.4</ele>
        <time>2024-05-26T07:31:55Z</time>
      </trkpt>
      <trkpt lat="49.13507" lon="-0.28384">
        <ele>25.4</ele>
        <time>2024-05-26T07:31:56Z</time>
      </trkpt>
      <trkpt lat="49.13506" lon="-0.28396">
        <ele>25.6</ele>
        <time>2024-05-26T07:31:57Z</time>
      </trkpt>
      <trkpt lat="49.13505" lon="-0.28408">
        <ele>25.6</ele>
        <time>2024-05-26T07:31:58Z</time>
      </trkpt>
      <trkpt lat="49.13504" lon="-0.2842">
        <ele>25.6</ele>
        <time>2024-05-26T07:31:59Z</time>
      </trkpt>
      <trkpt lat="49.13503" lon="-0.28431">
        <ele>25.8</ele>
        <time>2024-05-26T07:32:00Z</time>
      </trkpt>
      <trkpt lat="49.13502" lon="-0.28443">
        <ele>25.8</ele>
        <time>2024-05-26T07:32:01Z</time>
      </trkpt>
      <trkpt lat="49.13501" lon="-0.28454">
        <ele>25.8</ele>
        <time>2024-05-26T07:32:02Z</time>
      </trkpt>
      <trkpt lat="49.135" lon="-0.28465">
        <ele>25.8</ele>
        <time>2024-05-26T07:32:03Z</time>
      </trkpt>
      <trkpt lat="49.135" lon="-0.28476">
        <ele>25.8</ele>
        <time>2024-05-26T07:32:04Z</time>
      </trkpt>
      <trkpt lat="49.13499" lon="-0.28487">
        <ele>25.8</ele>
        <time>2024-05-26T07:32:05Z</time>
      </trkpt>
      <trkpt lat="49.13498" lon="-0.28499">
        <ele>25.8</ele>
        <time>2024-05-26T07:32:06Z</time>
      </trkpt>
      <trkpt lat="49.13497" lon="-0.2851">
        <ele>25.8</ele>
        <time>2024-05-26T07:32:07Z</time>
      </trkpt>
      <trkpt lat="49.13496" lon="-0.28522">
        <ele>25.8</ele>
        <time>2024-05-26T07:32:08Z</time>
      </trkpt>
      <trkpt lat="49.13495" lon="-0.28533">
        <ele>25.8</ele>
        <time>2024-05-26T07:32:09Z</time>
      </trkpt>
      <trkpt lat="49.13494" lon="-0.28544">
        <ele>25.8</ele>
        <time>2024-05-26T07:32:10Z</time>
      </trkpt>
      <trkpt lat="49.13494" lon="-0.28556">
        <ele>25.8</ele>
        <time>2024-05-26T07:32:11Z</time>
      </trkpt>
      <trkpt lat="49.13493" lon="-0.28567">
        <ele>25.8</ele>
        <time>2024-05-26T07:32:12Z</time>
      </trkpt>
      <trkpt lat="49.13493" lon="-0.28579">
        <ele>25.4</ele>
        <time>2024-05-26T07:32:13Z</time>
      </trkpt>
      <trkpt lat="49.13492" lon="-0.2859">
        <ele>25.4</ele>
        <time>2024-05-26T07:32:14Z</time>
      </trkpt>
      <trkpt lat="49.13491" lon="-0.28602">
        <ele>25.2</ele>
        <time>2024-05-26T07:32:15Z</time>
      </trkpt>
      <trkpt lat="49.1349" lon="-0.28614">
        <ele>25.2</ele>
        <time>2024-05-26T07:32:16Z</time>
      </trkpt>
      <trkpt lat="49.13489" lon="-0.28625">
        <ele>25</ele>
        <time>2024-05-26T07:32:17Z</time>
      </trkpt>
      <trkpt lat="49.13489" lon="-0.28637">
        <ele>25</ele>
        <time>2024-05-26T07:32:18Z</time>
      </trkpt>
      <trkpt lat="49.13489" lon="-0.28649">
        <ele>25</ele>
        <time>2024-05-26T07:32:19Z</time>
      </trkpt>
      <trkpt lat="49.13489" lon="-0.28661">
        <ele>24.8</ele>
        <time>2024-05-26T07:32:20Z</time>
      </trkpt>
      <trkpt lat="49.1349" lon="-0.28673">
        <ele>24.8</ele>
        <time>2024-05-26T07:32:21Z</time>
      </trkpt>
      <trkpt lat="49.1349" lon="-0.28685">
        <ele>24.8</ele>
        <time>2024-05-26T07:32:22Z</time>
      </trkpt>
      <trkpt lat="49.13491" lon="-0.28697">
        <ele>24.8</ele>
        <time>2024-05-26T07:32:23Z</time>
      </trkpt>
      <trkpt lat="49.13492" lon="-0.28709">
        <ele>24.8</ele>
        <time>2024-05-26T07:32:24Z</time>
      </trkpt>
      <trkpt lat="49.13493" lon="-0.28721">
        <ele>24.8</ele>
        <time>2024-05-26T07:32:25Z</time>
      </trkpt>
      <trkpt lat="49.13494" lon="-0.28734">
        <ele>24.8</ele>
        <time>2024-05-26T07:32:26Z</time>
      </trkpt>
      <trkpt lat="49.13495" lon="-0.28746">
        <ele>24.8</ele>
        <time>2024-05-26T07:32:27Z</time>
      </trkpt>
      <trkpt lat="49.13496" lon="-0.28758">
        <ele>24.8</ele>
        <time>2024-05-26T07:32:28Z</time>
      </trkpt>
      <trkpt lat="49.13497" lon="-0.2877">
        <ele>24.8</ele>
        <time>2024-05-26T07:32:29Z</time>
      </trkpt>
      <trkpt lat="49.13498" lon="-0.28782">
        <ele>24.8</ele>
        <time>2024-05-26T07:32:30Z</time>
      </trkpt>
      <trkpt lat="49.13499" lon="-0.28793">
        <ele>24.8</ele>
        <time>2024-05-26T07:32:31Z</time>
      </trkpt>
      <trkpt lat="49.13499" lon="-0.28804">
        <ele>24.8</ele>
        <time>2024-05-26T07:32:32Z</time>
      </trkpt>
      <trkpt lat="49.135" lon="-0.28815">
        <ele>24.8</ele>
        <time>2024-05-26T07:32:33Z</time>
      </trkpt>
      <trkpt lat="49.13499" lon="-0.28827">
        <ele>24.8</ele>
        <time>2024-05-26T07:32:34Z</time>
      </trkpt>
      <trkpt lat="49.13498" lon="-0.28838">
        <ele>24.8</ele>
        <time>2024-05-26T07:32:35Z</time>
      </trkpt>
      <trkpt lat="49.13497" lon="-0.28848">
        <ele>25</ele>
        <time>2024-05-26T07:32:36Z</time>
      </trkpt>
      <trkpt lat="49.13496" lon="-0.28859">
        <ele>25</ele>
        <time>2024-05-26T07:32:37Z</time>
      </trkpt>
      <trkpt lat="49.13495" lon="-0.28871">
        <ele>25</ele>
        <time>2024-05-26T07:32:38Z</time>
      </trkpt>
      <trkpt lat="49.13495" lon="-0.28882">
        <ele>25</ele>
        <time>2024-05-26T07:32:39Z</time>
      </trkpt>
      <trkpt lat="49.13494" lon="-0.28893">
        <ele>25.2</ele>
        <time>2024-05-26T07:32:40Z</time>
      </trkpt>
      <trkpt lat="49.13493" lon="-0.28904">
        <ele>25.2</ele>
        <time>2024-05-26T07:32:41Z</time>
      </trkpt>
      <trkpt lat="49.13491" lon="-0.28916">
        <ele>25.2</ele>
        <time>2024-05-26T07:32:42Z</time>
      </trkpt>
      <trkpt lat="49.1349" lon="-0.28927">
        <ele>25.2</ele>
        <time>2024-05-26T07:32:43Z</time>
      </trkpt>
      <trkpt lat="49.13489" lon="-0.28938">
        <ele>25.2</ele>
        <time>2024-05-26T07:32:44Z</time>
      </trkpt>
      <trkpt lat="49.13487" lon="-0.28949">
        <ele>25.4</ele>
        <time>2024-05-26T07:32:45Z</time>
      </trkpt>
      <trkpt lat="49.13486" lon="-0.28959">
        <ele>25.4</ele>
        <time>2024-05-26T07:32:46Z</time>
      </trkpt>
      <trkpt lat="49.13485" lon="-0.2897">
        <ele>25.4</ele>
        <time>2024-05-26T07:32:47Z</time>
      </trkpt>
      <trkpt lat="49.13484" lon="-0.28981">
        <ele>25.4</ele>
        <time>2024-05-26T07:32:48Z</time>
      </trkpt>
      <trkpt lat="49.13483" lon="-0.28991">
        <ele>25.6</ele>
        <time>2024-05-26T07:32:49Z</time>
      </trkpt>
      <trkpt lat="49.13482" lon="-0.29002">
        <ele>25.6</ele>
        <time>2024-05-26T07:32:50Z</time>
      </trkpt>
      <trkpt lat="49.13481" lon="-0.29012">
        <ele>25.6</ele>
        <time>2024-05-26T07:32:51Z</time>
      </trkpt>
      <trkpt lat="49.1348" lon="-0.29021">
        <ele>25.6</ele>
        <time>2024-05-26T07:32:52Z</time>
      </trkpt>
      <trkpt lat="49.13479" lon="-0.29031">
        <ele>25.6</ele>
        <time>2024-05-26T07:32:53Z</time>
      </trkpt>
      <trkpt lat="49.13479" lon="-0.29039">
        <ele>25.6</ele>
        <time>2024-05-26T07:32:54Z</time>
      </trkpt>
      <trkpt lat="49.1348" lon="-0.29048">
        <ele>25.6</ele>
        <time>2024-05-26T07:32:55Z</time>
      </trkpt>
      <trkpt lat="49.13482" lon="-0.29057">
        <ele>25.8</ele>
        <time>2024-05-26T07:32:56Z</time>
      </trkpt>
      <trkpt lat="49.13483" lon="-0.29065">
        <ele>26</ele>
        <time>2024-05-26T07:32:57Z</time>
      </trkpt>
      <trkpt lat="49.13481" lon="-0.29074">
        <ele>26</ele>
        <time>2024-05-26T07:32:58Z</time>
      </trkpt>
      <trkpt lat="49.13479" lon="-0.29082">
        <ele>26.2</ele>
        <time>2024-05-26T07:32:59Z</time>
      </trkpt>
      <trkpt lat="49.13477" lon="-0.29091">
        <ele>26.2</ele>
        <time>2024-05-26T07:33:00Z</time>
      </trkpt>
      <trkpt lat="49.13476" lon="-0.291">
        <ele>26.4</ele>
        <time>2024-05-26T07:33:01Z</time>
      </trkpt>
      <trkpt lat="49.13476" lon="-0.2911">
        <ele>26.4</ele>
        <time>2024-05-26T07:33:02Z</time>
      </trkpt>
      <trkpt lat="49.13476" lon="-0.2912">
        <ele>26.4</ele>
        <time>2024-05-26T07:33:03Z</time>
      </trkpt>
      <trkpt lat="49.13476" lon="-0.29131">
        <ele>26.4</ele>
        <time>2024-05-26T07:33:04Z</time>
      </trkpt>
      <trkpt lat="49.13477" lon="-0.29141">
        <ele>26.4</ele>
        <time>2024-05-26T07:33:05Z</time>
      </trkpt>
      <trkpt lat="49.13478" lon="-0.29152">
        <ele>26.4</ele>
        <time>2024-05-26T07:33:06Z</time>
      </trkpt>
      <trkpt lat="49.13479" lon="-0.29163">
        <ele>26.4</ele>
        <time>2024-05-26T07:33:07Z</time>
      </trkpt>
      <trkpt lat="49.13481" lon="-0.29173">
        <ele>26.4</ele>
        <time>2024-05-26T07:33:08Z</time>
      </trkpt>
      <trkpt lat="49.13483" lon="-0.29183">
        <ele>26.4</ele>
        <time>2024-05-26T07:33:09Z</time>
      </trkpt>
      <trkpt lat="49.13484" lon="-0.29193">
        <ele>26.4</ele>
        <time>2024-05-26T07:33:10Z</time>
      </trkpt>
      <trkpt lat="49.13486" lon="-0.29203">
        <ele>26.4</ele>
        <time>2024-05-26T07:33:11Z</time>
      </trkpt>
      <trkpt lat="49.13488" lon="-0.29212">
        <ele>26.4</ele>
        <time>2024-05-26T07:33:12Z</time>
      </trkpt>
      <trkpt lat="49.13489" lon="-0.29221">
        <ele>26.4</ele>
        <time>2024-05-26T07:33:13Z</time>
      </trkpt>
      <trkpt lat="49.13491" lon="-0.29229">
        <ele>26.4</ele>
        <time>2024-05-26T07:33:14Z</time>
      </trkpt>
      <trkpt lat="49.13493" lon="-0.29238">
        <ele>26.4</ele>
        <time>2024-05-26T07:33:15Z</time>
      </trkpt>
      <trkpt lat="49.13495" lon="-0.29246">
        <ele>26.4</ele>
        <time>2024-05-26T07:33:16Z</time>
      </trkpt>
      <trkpt lat="49.13496" lon="-0.29253">
        <ele>26.4</ele>
        <time>2024-05-26T07:33:17Z</time>
      </trkpt>
      <trkpt lat="49.13497" lon="-0.2926">
        <ele>26.4</ele>
        <time>2024-05-26T07:33:18Z</time>
      </trkpt>
      <trkpt lat="49.13499" lon="-0.29266">
        <ele>26.4</ele>
        <time>2024-05-26T07:33:19Z</time>
      </trkpt>
      <trkpt lat="49.135" lon="-0.29272">
        <ele>26.4</ele>
        <time>2024-05-26T07:33:20Z</time>
      </trkpt>
      <trkpt lat="49.13501" lon="-0.29278">
        <ele>26.4</ele>
        <time>2024-05-26T07:33:21Z</time>
      </trkpt>
      <trkpt lat="49.13502" lon="-0.29285">
        <ele>26.4</ele>
        <time>2024-05-26T07:33:22Z</time>
      </trkpt>
      <trkpt lat="49.13504" lon="-0.29292">
        <ele>26.4</ele>
        <time>2024-05-26T07:33:23Z</time>
      </trkpt>
      <trkpt lat="49.13505" lon="-0.29299">
        <ele>26.4</ele>
        <time>2024-05-26T07:33:24Z</time>
      </trkpt>
      <trkpt lat="49.13506" lon="-0.29306">
        <ele>26.4</ele>
        <time>2024-05-26T07:33:25Z</time>
      </trkpt>
      <trkpt lat="49.13507" lon="-0.29313">
        <ele>26.4</ele>
        <time>2024-05-26T07:33:26Z</time>
      </trkpt>
      <trkpt lat="49.13509" lon="-0.2932">
        <ele>26.4</ele>
        <time>2024-05-26T07:33:27Z</time>
      </trkpt>
      <trkpt lat="49.13511" lon="-0.29327">
        <ele>26.4</ele>
        <time>2024-05-26T07:33:28Z</time>
      </trkpt>
      <trkpt lat="49.13513" lon="-0.29334">
        <ele>26.4</ele>
        <time>2024-05-26T07:33:29Z</time>
      </trkpt>
      <trkpt lat="49.13514" lon="-0.29342">
        <ele>26.4</ele>
        <time>2024-05-26T07:33:30Z</time>
      </trkpt>
      <trkpt lat="49.13516" lon="-0.2935">
        <ele>26.2</ele>
        <time>2024-05-26T07:33:31Z</time>
      </trkpt>
      <trkpt lat="49.13518" lon="-0.29358">
        <ele>26.2</ele>
        <time>2024-05-26T07:33:32Z</time>
      </trkpt>
      <trkpt lat="49.1352" lon="-0.29366">
        <ele>26.2</ele>
        <time>2024-05-26T07:33:33Z</time>
      </trkpt>
      <trkpt lat="49.13522" lon="-0.29373">
        <ele>26.2</ele>
        <time>2024-05-26T07:33:34Z</time>
      </trkpt>
      <trkpt lat="49.13524" lon="-0.2938">
        <ele>26.2</ele>
        <time>2024-05-26T07:33:35Z</time>
      </trkpt>
      <trkpt lat="49.13526" lon="-0.29388">
        <ele>26.2</ele>
        <time>2024-05-26T07:33:36Z</time>
      </trkpt>
      <trkpt lat="49.13529" lon="-0.29396">
        <ele>25.8</ele>
        <time>2024-05-26T07:33:37Z</time>
      </trkpt>
      <trkpt lat="49.13531" lon="-0.29404">
        <ele>25.8</ele>
        <time>2024-05-26T07:33:38Z</time>
      </trkpt>
      <trkpt lat="49.13533" lon="-0.29413">
        <ele>25.6</ele>
        <time>2024-05-26T07:33:39Z</time>
      </trkpt>
      <trkpt lat="49.13535" lon="-0.29421">
        <ele>25.6</ele>
        <time>2024-05-26T07:33:40Z</time>
      </trkpt>
      <trkpt lat="49.13537" lon="-0.2943">
        <ele>25.4</ele>
        <time>2024-05-26T07:33:41Z</time>
      </trkpt>
      <trkpt lat="49.1354" lon="-0.29439">
        <ele>25.4</ele>
        <time>2024-05-26T07:33:42Z</time>
      </trkpt>
      <trkpt lat="49.13542" lon="-0.29447">
        <ele>25.6</ele>
        <time>2024-05-26T07:33:43Z</time>
      </trkpt>
      <trkpt lat="49.13544" lon="-0.29456">
        <ele>25.4</ele>
        <time>2024-05-26T07:33:44Z</time>
      </trkpt>
      <trkpt lat="49.13546" lon="-0.29464">
        <ele>25.4</ele>
        <time>2024-05-26T07:33:45Z</time>
      </trkpt>
      <trkpt lat="49.13548" lon="-0.29472">
        <ele>25.4</ele>
        <time>2024-05-26T07:33:46Z</time>
      </trkpt>
      <trkpt lat="49.1355" lon="-0.2948">
        <ele>25.2</ele>
        <time>2024-05-26T07:33:47Z</time>
      </trkpt>
      <trkpt lat="49.13552" lon="-0.29488">
        <ele>25.2</ele>
        <time>2024-05-26T07:33:48Z</time>
      </trkpt>
      <trkpt lat="49.13554" lon="-0.29495">
        <ele>25.2</ele>
        <time>2024-05-26T07:33:49Z</time>
      </trkpt>
      <trkpt lat="49.13555" lon="-0.29502">
        <ele>25.2</ele>
        <time>2024-05-26T07:33:50Z</time>
      </trkpt>
      <trkpt lat="49.13556" lon="-0.29508">
        <ele>25.2</ele>
        <time>2024-05-26T07:33:51Z</time>
      </trkpt>
      <trkpt lat="49.13555" lon="-0.29515">
        <ele>25.2</ele>
        <time>2024-05-26T07:33:52Z</time>
      </trkpt>
      <trkpt lat="49.13553" lon="-0.29521">
        <ele>25.2</ele>
        <time>2024-05-26T07:33:53Z</time>
      </trkpt>
      <trkpt lat="49.13549" lon="-0.29525">
        <ele>25.2</ele>
        <time>2024-05-26T07:33:54Z</time>
      </trkpt>
      <trkpt lat="49.13545" lon="-0.29528">
        <ele>25.2</ele>
        <time>2024-05-26T07:33:55Z</time>
      </trkpt>
      <trkpt lat="49.1354" lon="-0.29529">
        <ele>25.2</ele>
        <time>2024-05-26T07:33:56Z</time>
      </trkpt>
      <trkpt lat="49.13534" lon="-0.29531">
        <ele>25.2</ele>
        <time>2024-05-26T07:33:57Z</time>
      </trkpt>
      <trkpt lat="49.13529" lon="-0.29533">
        <ele>25.2</ele>
        <time>2024-05-26T07:33:58Z</time>
      </trkpt>
      <trkpt lat="49.13523" lon="-0.29535">
        <ele>25.2</ele>
        <time>2024-05-26T07:33:59Z</time>
      </trkpt>
      <trkpt lat="49.13517" lon="-0.29538">
        <ele>25.2</ele>
        <time>2024-05-26T07:34:00Z</time>
      </trkpt>
      <trkpt lat="49.13512" lon="-0.29541">
        <ele>25.4</ele>
        <time>2024-05-26T07:34:01Z</time>
      </trkpt>
      <trkpt lat="49.13506" lon="-0.29544">
        <ele>25.4</ele>
        <time>2024-05-26T07:34:02Z</time>
      </trkpt>
      <trkpt lat="49.135" lon="-0.29547">
        <ele>25.4</ele>
        <time>2024-05-26T07:34:03Z</time>
      </trkpt>
      <trkpt lat="49.13494" lon="-0.2955">
        <ele>25.4</ele>
        <time>2024-05-26T07:34:04Z</time>
      </trkpt>
      <trkpt lat="49.13488" lon="-0.29553">
        <ele>25.4</ele>
        <time>2024-05-26T07:34:05Z</time>
      </trkpt>
      <trkpt lat="49.13482" lon="-0.29558">
        <ele>25.4</ele>
        <time>2024-05-26T07:34:06Z</time>
      </trkpt>
      <trkpt lat="49.13477" lon="-0.29562">
        <ele>25.4</ele>
        <time>2024-05-26T07:34:07Z</time>
      </trkpt>
      <trkpt lat="49.13471" lon="-0.29567">
        <ele>25.4</ele>
        <time>2024-05-26T07:34:08Z</time>
      </trkpt>
      <trkpt lat="49.13465" lon="-0.29571">
        <ele>25.4</ele>
        <time>2024-05-26T07:34:09Z</time>
      </trkpt>
      <trkpt lat="49.13459" lon="-0.29576">
        <ele>25.4</ele>
        <time>2024-05-26T07:34:10Z</time>
      </trkpt>
      <trkpt lat="49.13453" lon="-0.2958">
        <ele>25.4</ele>
        <time>2024-05-26T07:34:11Z</time>
      </trkpt>
      <trkpt lat="49.13447" lon="-0.29586">
        <ele>25.4</ele>
        <time>2024-05-26T07:34:12Z</time>
      </trkpt>
      <trkpt lat="49.13441" lon="-0.2959">
        <ele>25.4</ele>
        <time>2024-05-26T07:34:13Z</time>
      </trkpt>
      <trkpt lat="49.13435" lon="-0.29595">
        <ele>25.4</ele>
        <time>2024-05-26T07:34:14Z</time>
      </trkpt>
      <trkpt lat="49.13429" lon="-0.29599">
        <ele>25.4</ele>
        <time>2024-05-26T07:34:15Z</time>
      </trkpt>
      <trkpt lat="49.13424" lon="-0.29604">
        <ele>25.4</ele>
        <time>2024-05-26T07:34:16Z</time>
      </trkpt>
      <trkpt lat="49.13418" lon="-0.29609">
        <ele>25.4</ele>
        <time>2024-05-26T07:34:17Z</time>
      </trkpt>
      <trkpt lat="49.13412" lon="-0.29613">
        <ele>25.4</ele>
        <time>2024-05-26T07:34:18Z</time>
      </trkpt>
      <trkpt lat="49.13406" lon="-0.29618">
        <ele>25.4</ele>
        <time>2024-05-26T07:34:19Z</time>
      </trkpt>
      <trkpt lat="49.13401" lon="-0.29622">
        <ele>25.4</ele>
        <time>2024-05-26T07:34:20Z</time>
      </trkpt>
      <trkpt lat="49.13396" lon="-0.29626">
        <ele>25.4</ele>
        <time>2024-05-26T07:34:21Z</time>
      </trkpt>
      <trkpt lat="49.13391" lon="-0.2963">
        <ele>25.4</ele>
        <time>2024-05-26T07:34:22Z</time>
      </trkpt>
      <trkpt lat="49.13387" lon="-0.29634">
        <ele>25.4</ele>
        <time>2024-05-26T07:34:23Z</time>
      </trkpt>
      <trkpt lat="49.13382" lon="-0.29638">
        <ele>25.4</ele>
        <time>2024-05-26T07:34:24Z</time>
      </trkpt>
      <trkpt lat="49.13378" lon="-0.29641">
        <ele>25.4</ele>
        <time>2024-05-26T07:34:25Z</time>
      </trkpt>
      <trkpt lat="49.13373" lon="-0.29642">
        <ele>25.6</ele>
        <time>2024-05-26T07:34:26Z</time>
      </trkpt>
      <trkpt lat="49.13369" lon="-0.2964">
        <ele>25.6</ele>
        <time>2024-05-26T07:34:27Z</time>
      </trkpt>
      <trkpt lat="49.13364" lon="-0.29637">
        <ele>25.6</ele>
        <time>2024-05-26T07:34:28Z</time>
      </trkpt>
      <trkpt lat="49.13359" lon="-0.29634">
        <ele>25.6</ele>
        <time>2024-05-26T07:34:29Z</time>
      </trkpt>
      <trkpt lat="49.13354" lon="-0.29631">
        <ele>25.6</ele>
        <time>2024-05-26T07:34:30Z</time>
      </trkpt>
      <trkpt lat="49.13349" lon="-0.29629">
        <ele>25.8</ele>
        <time>2024-05-26T07:34:31Z</time>
      </trkpt>
      <trkpt lat="49.13343" lon="-0.29627">
        <ele>25.8</ele>
        <time>2024-05-26T07:34:32Z</time>
      </trkpt>
      <trkpt lat="49.13338" lon="-0.29625">
        <ele>26</ele>
        <time>2024-05-26T07:34:33Z</time>
      </trkpt>
      <trkpt lat="49.13332" lon="-0.29623">
        <ele>26</ele>
        <time>2024-05-26T07:34:34Z</time>
      </trkpt>
      <trkpt lat="49.13326" lon="-0.29622">
        <ele>26</ele>
        <time>2024-05-26T07:34:35Z</time>
      </trkpt>
      <trkpt lat="49.1332" lon="-0.2962">
        <ele>26</ele>
        <time>2024-05-26T07:34:36Z</time>
      </trkpt>
      <trkpt lat="49.13314" lon="-0.29618">
        <ele>26</ele>
        <time>2024-05-26T07:34:37Z</time>
      </trkpt>
      <trkpt lat="49.13308" lon="-0.29617">
        <ele>26.2</ele>
        <time>2024-05-26T07:34:38Z</time>
      </trkpt>
      <trkpt lat="49.13302" lon="-0.29615">
        <ele>26.2</ele>
        <time>2024-05-26T07:34:39Z</time>
      </trkpt>
      <trkpt lat="49.13296" lon="-0.29613">
        <ele>26.2</ele>
        <time>2024-05-26T07:34:40Z</time>
      </trkpt>
      <trkpt lat="49.1329" lon="-0.29611">
        <ele>26.4</ele>
        <time>2024-05-26T07:34:41Z</time>
      </trkpt>
      <trkpt lat="49.13284" lon="-0.29609">
        <ele>26.6</ele>
        <time>2024-05-26T07:34:42Z</time>
      </trkpt>
      <trkpt lat="49.13278" lon="-0.29607">
        <ele>26.8</ele>
        <time>2024-05-26T07:34:43Z</time>
      </trkpt>
      <trkpt lat="49.13272" lon="-0.29605">
        <ele>27</ele>
        <time>2024-05-26T07:34:44Z</time>
      </trkpt>
      <trkpt lat="49.13266" lon="-0.29605">
        <ele>27.4</ele>
        <time>2024-05-26T07:34:45Z</time>
      </trkpt>
      <trkpt lat="49.1326" lon="-0.29604">
        <ele>27.6</ele>
        <time>2024-05-26T07:34:46Z</time>
      </trkpt>
      <trkpt lat="49.13254" lon="-0.29605">
        <ele>27.8</ele>
        <time>2024-05-26T07:34:47Z</time>
      </trkpt>
      <trkpt lat="49.13248" lon="-0.29605">
        <ele>28</ele>
        <time>2024-05-26T07:34:48Z</time>
      </trkpt>
      <trkpt lat="49.13242" lon="-0.29606">
        <ele>28.2</ele>
        <time>2024-05-26T07:34:49Z</time>
      </trkpt>
      <trkpt lat="49.13236" lon="-0.29607">
        <ele>28.4</ele>
        <time>2024-05-26T07:34:50Z</time>
      </trkpt>
      <trkpt lat="49.1323" lon="-0.29609">
        <ele>28.6</ele>
        <time>2024-05-26T07:34:51Z</time>
      </trkpt>
      <trkpt lat="49.13224" lon="-0.29611">
        <ele>28.6</ele>
        <time>2024-05-26T07:34:52Z</time>
      </trkpt>
      <trkpt lat="49.13218" lon="-0.29613">
        <ele>28.6</ele>
        <time>2024-05-26T07:34:53Z</time>
      </trkpt>
      <trkpt lat="49.13212" lon="-0.29616">
        <ele>28.6</ele>
        <time>2024-05-26T07:34:54Z</time>
      </trkpt>
      <trkpt lat="49.13206" lon="-0.29619">
        <ele>28.6</ele>
        <time>2024-05-26T07:34:55Z</time>
      </trkpt>
      <trkpt lat="49.13199" lon="-0.29621">
        <ele>28.6</ele>
        <time>2024-05-26T07:34:56Z</time>
      </trkpt>
      <trkpt lat="49.13193" lon="-0.29624">
        <ele>28.8</ele>
        <time>2024-05-26T07:34:57Z</time>
      </trkpt>
      <trkpt lat="49.13187" lon="-0.29627">
        <ele>28.8</ele>
        <time>2024-05-26T07:34:58Z</time>
      </trkpt>
      <trkpt lat="49.13181" lon="-0.2963">
        <ele>28.8</ele>
        <time>2024-05-26T07:34:59Z</time>
      </trkpt>
      <trkpt lat="49.13174" lon="-0.29633">
        <ele>28.8</ele>
        <time>2024-05-26T07:35:00Z</time>
      </trkpt>
      <trkpt lat="49.13168" lon="-0.29636">
        <ele>29</ele>
        <time>2024-05-26T07:35:01Z</time>
      </trkpt>
      <trkpt lat="49.13162" lon="-0.29639">
        <ele>29</ele>
        <time>2024-05-26T07:35:02Z</time>
      </trkpt>
      <trkpt lat="49.13156" lon="-0.29642">
        <ele>29.2</ele>
        <time>2024-05-26T07:35:03Z</time>
      </trkpt>
      <trkpt lat="49.1315" lon="-0.29644">
        <ele>29.4</ele>
        <time>2024-05-26T07:35:04Z</time>
      </trkpt>
      <trkpt lat="49.13144" lon="-0.29648">
        <ele>29.4</ele>
        <time>2024-05-26T07:35:05Z</time>
      </trkpt>
      <trkpt lat="49.13138" lon="-0.29651">
        <ele>29.4</ele>
        <time>2024-05-26T07:35:06Z</time>
      </trkpt>
      <trkpt lat="49.13132" lon="-0.29654">
        <ele>29.4</ele>
        <time>2024-05-26T07:35:07Z</time>
      </trkpt>
      <trkpt lat="49.13126" lon="-0.29657">
        <ele>29.6</ele>
        <time>2024-05-26T07:35:08Z</time>
      </trkpt>
      <trkpt lat="49.1312" lon="-0.2966">
        <ele>29.6</ele>
        <time>2024-05-26T07:35:09Z</time>
      </trkpt>
      <trkpt lat="49.13114" lon="-0.29663">
        <ele>29.6</ele>
        <time>2024-05-26T07:35:10Z</time>
      </trkpt>
      <trkpt lat="49.13108" lon="-0.29667">
        <ele>29.8</ele>
        <time>2024-05-26T07:35:11Z</time>
      </trkpt>
      <trkpt lat="49.13102" lon="-0.2967">
        <ele>29.8</ele>
        <time>2024-05-26T07:35:12Z</time>
      </trkpt>
      <trkpt lat="49.13095" lon="-0.29673">
        <ele>29.8</ele>
        <time>2024-05-26T07:35:13Z</time>
      </trkpt>
      <trkpt lat="49.13088" lon="-0.29676">
        <ele>29.8</ele>
        <time>2024-05-26T07:35:14Z</time>
      </trkpt>
      <trkpt lat="49.13082" lon="-0.2968">
        <ele>29.8</ele>
        <time>2024-05-26T07:35:15Z</time>
      </trkpt>
      <trkpt lat="49.13076" lon="-0.29683">
        <ele>30</ele>
        <time>2024-05-26T07:35:16Z</time>
      </trkpt>
      <trkpt lat="49.13069" lon="-0.29686">
        <ele>30</ele>
        <time>2024-05-26T07:35:17Z</time>
      </trkpt>
      <trkpt lat="49.13063" lon="-0.2969">
        <ele>30</ele>
        <time>2024-05-26T07:35:18Z</time>
      </trkpt>
      <trkpt lat="49.13056" lon="-0.29693">
        <ele>30</ele>
        <time>2024-05-26T07:35:19Z</time>
      </trkpt>
      <trkpt lat="49.1305" lon="-0.29696">
        <ele>30</ele>
        <time>2024-05-26T07:35:20Z</time>
      </trkpt>
      <trkpt lat="49.13043" lon="-0.29698">
        <ele>30</ele>
        <time>2024-05-26T07:35:21Z</time>
      </trkpt>
      <trkpt lat="49.13037" lon="-0.29701">
        <ele>30.2</ele>
        <time>2024-05-26T07:35:22Z</time>
      </trkpt>
      <trkpt lat="49.1303" lon="-0.29703">
        <ele>30.2</ele>
        <time>2024-05-26T07:35:23Z</time>
      </trkpt>
      <trkpt lat="49.13024" lon="-0.29706">
        <ele>30.2</ele>
        <time>2024-05-26T07:35:24Z</time>
      </trkpt>
      <trkpt lat="49.13017" lon="-0.29709">
        <ele>30.2</ele>
        <time>2024-05-26T07:35:25Z</time>
      </trkpt>
      <trkpt lat="49.13011" lon="-0.29712">
        <ele>30.4</ele>
        <time>2024-05-26T07:35:26Z</time>
      </trkpt>
      <trkpt lat="49.13004" lon="-0.29715">
        <ele>30.4</ele>
        <time>2024-05-26T07:35:27Z</time>
      </trkpt>
      <trkpt lat="49.12998" lon="-0.29718">
        <ele>30.4</ele>
        <time>2024-05-26T07:35:28Z</time>
      </trkpt>
      <trkpt lat="49.12992" lon="-0.29721">
        <ele>30.4</ele>
        <time>2024-05-26T07:35:29Z</time>
      </trkpt>
      <trkpt lat="49.12985" lon="-0.29724">
        <ele>30.4</ele>
        <time>2024-05-26T07:35:30Z</time>
      </trkpt>
      <trkpt lat="49.12979" lon="-0.29727">
        <ele>30.4</ele>
        <time>2024-05-26T07:35:31Z</time>
      </trkpt>
      <trkpt lat="49.12973" lon="-0.2973">
        <ele>30.4</ele>
        <time>2024-05-26T07:35:32Z</time>
      </trkpt>
      <trkpt lat="49.12966" lon="-0.29733">
        <ele>30.4</ele>
        <time>2024-05-26T07:35:33Z</time>
      </trkpt>
      <trkpt lat="49.1296" lon="-0.29736">
        <ele>30.4</ele>
        <time>2024-05-26T07:35:34Z</time>
      </trkpt>
      <trkpt lat="49.12954" lon="-0.29739">
        <ele>30.4</ele>
        <time>2024-05-26T07:35:35Z</time>
      </trkpt>
      <trkpt lat="49.12947" lon="-0.29742">
        <ele>30.4</ele>
        <time>2024-05-26T07:35:36Z</time>
      </trkpt>
      <trkpt lat="49.12941" lon="-0.29744">
        <ele>30.4</ele>
        <time>2024-05-26T07:35:37Z</time>
      </trkpt>
      <trkpt lat="49.12934" lon="-0.29747">
        <ele>30.4</ele>
        <time>2024-05-26T07:35:38Z</time>
      </trkpt>
      <trkpt lat="49.12928" lon="-0.2975">
        <ele>30.4</ele>
        <time>2024-05-26T07:35:39Z</time>
      </trkpt>
      <trkpt lat="49.12922" lon="-0.29753">
        <ele>30.4</ele>
        <time>2024-05-26T07:35:40Z</time>
      </trkpt>
      <trkpt lat="49.12915" lon="-0.29756">
        <ele>30.4</ele>
        <time>2024-05-26T07:35:41Z</time>
      </trkpt>
      <trkpt lat="49.12909" lon="-0.29758">
        <ele>30.4</ele>
        <time>2024-05-26T07:35:42Z</time>
      </trkpt>
      <trkpt lat="49.12903" lon="-0.29761">
        <ele>30.4</ele>
        <time>2024-05-26T07:35:43Z</time>
      </trkpt>
      <trkpt lat="49.12896" lon="-0.29764">
        <ele>30.6</ele>
        <time>2024-05-26T07:35:44Z</time>
      </trkpt>
      <trkpt lat="49.1289" lon="-0.29767">
        <ele>30.6</ele>
        <time>2024-05-26T07:35:45Z</time>
      </trkpt>
      <trkpt lat="49.12883" lon="-0.2977">
        <ele>30.6</ele>
        <time>2024-05-26T07:35:46Z</time>
      </trkpt>
      <trkpt lat="49.12876" lon="-0.29773">
        <ele>30.8</ele>
        <time>2024-05-26T07:35:47Z</time>
      </trkpt>
      <trkpt lat="49.1287" lon="-0.29777">
        <ele>31</ele>
        <time>2024-05-26T07:35:48Z</time>
      </trkpt>
      <trkpt lat="49.12863" lon="-0.2978">
        <ele>31</ele>
        <time>2024-05-26T07:35:49Z</time>
      </trkpt>
      <trkpt lat="49.12856" lon="-0.29783">
        <ele>31.2</ele>
        <time>2024-05-26T07:35:50Z</time>
      </trkpt>
      <trkpt lat="49.12849" lon="-0.29786">
        <ele>31.4</ele>
        <time>2024-05-26T07:35:51Z</time>
      </trkpt>
      <trkpt lat="49.12842" lon="-0.29789">
        <ele>31.4</ele>
        <time>2024-05-26T07:35:52Z</time>
      </trkpt>
      <trkpt lat="49.12835" lon="-0.29792">
        <ele>31.4</ele>
        <time>2024-05-26T07:35:53Z</time>
      </trkpt>
      <trkpt lat="49.12829" lon="-0.29795">
        <ele>31.6</ele>
        <time>2024-05-26T07:35:54Z</time>
      </trkpt>
      <trkpt lat="49.12821" lon="-0.29799">
        <ele>31.6</ele>
        <time>2024-05-26T07:35:55Z</time>
      </trkpt>
      <trkpt lat="49.12814" lon="-0.29802">
        <ele>31.6</ele>
        <time>2024-05-26T07:35:56Z</time>
      </trkpt>
      <trkpt lat="49.12807" lon="-0.29805">
        <ele>31.6</ele>
        <time>2024-05-26T07:35:57Z</time>
      </trkpt>
      <trkpt lat="49.12799" lon="-0.29808">
        <ele>31.6</ele>
        <time>2024-05-26T07:35:58Z</time>
      </trkpt>
      <trkpt lat="49.12791" lon="-0.29812">
        <ele>31.6</ele>
        <time>2024-05-26T07:35:59Z</time>
      </trkpt>
      <trkpt lat="49.12784" lon="-0.29815">
        <ele>31.6</ele>
        <time>2024-05-26T07:36:00Z</time>
      </trkpt>
      <trkpt lat="49.12776" lon="-0.29819">
        <ele>31.6</ele>
        <time>2024-05-26T07:36:01Z</time>
      </trkpt>
      <trkpt lat="49.12769" lon="-0.29822">
        <ele>31.6</ele>
        <time>2024-05-26T07:36:02Z</time>
      </trkpt>
      <trkpt lat="49.12761" lon="-0.29825">
        <ele>31.6</ele>
        <time>2024-05-26T07:36:03Z</time>
      </trkpt>
      <trkpt lat="49.12754" lon="-0.29828">
        <ele>31.6</ele>
        <time>2024-05-26T07:36:04Z</time>
      </trkpt>
      <trkpt lat="49.12747" lon="-0.29832">
        <ele>31.6</ele>
        <time>2024-05-26T07:36:05Z</time>
      </trkpt>
      <trkpt lat="49.12739" lon="-0.29835">
        <ele>31.6</ele>
        <time>2024-05-26T07:36:06Z</time>
      </trkpt>
      <trkpt lat="49.12732" lon="-0.29838">
        <ele>31.6</ele>
        <time>2024-05-26T07:36:07Z</time>
      </trkpt>
      <trkpt lat="49.12724" lon="-0.29841">
        <ele>31.4</ele>
        <time>2024-05-26T07:36:08Z</time>
      </trkpt>
      <trkpt lat="49.12717" lon="-0.29845">
        <ele>31.4</ele>
        <time>2024-05-26T07:36:09Z</time>
      </trkpt>
      <trkpt lat="49.12709" lon="-0.29848">
        <ele>31.4</ele>
        <time>2024-05-26T07:36:10Z</time>
      </trkpt>
      <trkpt lat="49.12702" lon="-0.29851">
        <ele>31.4</ele>
        <time>2024-05-26T07:36:11Z</time>
      </trkpt>
      <trkpt lat="49.12695" lon="-0.29855">
        <ele>31.4</ele>
        <time>2024-05-26T07:36:12Z</time>
      </trkpt>
      <trkpt lat="49.12687" lon="-0.29858">
        <ele>31.4</ele>
        <time>2024-05-26T07:36:13Z</time>
      </trkpt>
      <trkpt lat="49.1268" lon="-0.29862">
        <ele>31.4</ele>
        <time>2024-05-26T07:36:14Z</time>
      </trkpt>
      <trkpt lat="49.12673" lon="-0.29865">
        <ele>31.4</ele>
        <time>2024-05-26T07:36:15Z</time>
      </trkpt>
      <trkpt lat="49.12666" lon="-0.29868">
        <ele>31.4</ele>
        <time>2024-05-26T07:36:16Z</time>
      </trkpt>
      <trkpt lat="49.12658" lon="-0.29871">
        <ele>31.4</ele>
        <time>2024-05-26T07:36:17Z</time>
      </trkpt>
      <trkpt lat="49.12651" lon="-0.29875">
        <ele>31.4</ele>
        <time>2024-05-26T07:36:18Z</time>
      </trkpt>
      <trkpt lat="49.12644" lon="-0.29878">
        <ele>31.4</ele>
        <time>2024-05-26T07:36:19Z</time>
      </trkpt>
      <trkpt lat="49.12637" lon="-0.29881">
        <ele>31.4</ele>
        <time>2024-05-26T07:36:20Z</time>
      </trkpt>
      <trkpt lat="49.1263" lon="-0.29884">
        <ele>31.4</ele>
        <time>2024-05-26T07:36:21Z</time>
      </trkpt>
      <trkpt lat="49.12623" lon="-0.29887">
        <ele>31.4</ele>
        <time>2024-05-26T07:36:22Z</time>
      </trkpt>
      <trkpt lat="49.12615" lon="-0.29891">
        <ele>31.6</ele>
        <time>2024-05-26T07:36:23Z</time>
      </trkpt>
      <trkpt lat="49.12608" lon="-0.29894">
        <ele>31.6</ele>
        <time>2024-05-26T07:36:24Z</time>
      </trkpt>
      <trkpt lat="49.12601" lon="-0.29898">
        <ele>31.6</ele>
        <time>2024-05-26T07:36:25Z</time>
      </trkpt>
      <trkpt lat="49.12595" lon="-0.29901">
        <ele>31.8</ele>
        <time>2024-05-26T07:36:26Z</time>
      </trkpt>
      <trkpt lat="49.12587" lon="-0.29904">
        <ele>31.8</ele>
        <time>2024-05-26T07:36:27Z</time>
      </trkpt>
      <trkpt lat="49.1258" lon="-0.29907">
        <ele>32</ele>
        <time>2024-05-26T07:36:28Z</time>
      </trkpt>
      <trkpt lat="49.12573" lon="-0.2991">
        <ele>32.2</ele>
        <time>2024-05-26T07:36:29Z</time>
      </trkpt>
      <trkpt lat="49.12566" lon="-0.29913">
        <ele>32.2</ele>
        <time>2024-05-26T07:36:30Z</time>
      </trkpt>
      <trkpt lat="49.12559" lon="-0.29916">
        <ele>32.2</ele>
        <time>2024-05-26T07:36:31Z</time>
      </trkpt>
      <trkpt lat="49.12552" lon="-0.29919">
        <ele>32.4</ele>
        <time>2024-05-26T07:36:32Z</time>
      </trkpt>
      <trkpt lat="49.12545" lon="-0.29921">
        <ele>32.4</ele>
        <time>2024-05-26T07:36:33Z</time>
      </trkpt>
      <trkpt lat="49.12539" lon="-0.29924">
        <ele>32.4</ele>
        <time>2024-05-26T07:36:34Z</time>
      </trkpt>
      <trkpt lat="49.12532" lon="-0.29927">
        <ele>32.4</ele>
        <time>2024-05-26T07:36:35Z</time>
      </trkpt>
      <trkpt lat="49.12525" lon="-0.2993">
        <ele>32.4</ele>
        <time>2024-05-26T07:36:36Z</time>
      </trkpt>
      <trkpt lat="49.12518" lon="-0.29932">
        <ele>32.6</ele>
        <time>2024-05-26T07:36:37Z</time>
      </trkpt>
      <trkpt lat="49.12512" lon="-0.29935">
        <ele>32.6</ele>
        <time>2024-05-26T07:36:38Z</time>
      </trkpt>
      <trkpt lat="49.12505" lon="-0.29938">
        <ele>32.6</ele>
        <time>2024-05-26T07:36:39Z</time>
      </trkpt>
      <trkpt lat="49.12499" lon="-0.2994">
        <ele>33</ele>
        <time>2024-05-26T07:36:40Z</time>
      </trkpt>
      <trkpt lat="49.12493" lon="-0.29941">
        <ele>33.4</ele>
        <time>2024-05-26T07:36:41Z</time>
      </trkpt>
      <trkpt lat="49.12487" lon="-0.29943">
        <ele>33.4</ele>
        <time>2024-05-26T07:36:42Z</time>
      </trkpt>
      <trkpt lat="49.12481" lon="-0.29945">
        <ele>34</ele>
        <time>2024-05-26T07:36:43Z</time>
      </trkpt>
      <trkpt lat="49.12475" lon="-0.29948">
        <ele>34.2</ele>
        <time>2024-05-26T07:36:44Z</time>
      </trkpt>
      <trkpt lat="49.12469" lon="-0.29951">
        <ele>34.4</ele>
        <time>2024-05-26T07:36:45Z</time>
      </trkpt>
      <trkpt lat="49.12465" lon="-0.29955">
        <ele>34.6</ele>
        <time>2024-05-26T07:36:46Z</time>
      </trkpt>
      <trkpt lat="49.12461" lon="-0.29961">
        <ele>34.8</ele>
        <time>2024-05-26T07:36:47Z</time>
      </trkpt>
      <trkpt lat="49.12458" lon="-0.29968">
        <ele>34.8</ele>
        <time>2024-05-26T07:36:48Z</time>
      </trkpt>
      <trkpt lat="49.12455" lon="-0.29976">
        <ele>35</ele>
        <time>2024-05-26T07:36:49Z</time>
      </trkpt>
      <trkpt lat="49.12451" lon="-0.29982">
        <ele>35</ele>
        <time>2024-05-26T07:36:50Z</time>
      </trkpt>
      <trkpt lat="49.12447" lon="-0.29988">
        <ele>35</ele>
        <time>2024-05-26T07:36:51Z</time>
      </trkpt>
      <trkpt lat="49.12443" lon="-0.29995">
        <ele>35</ele>
        <time>2024-05-26T07:36:52Z</time>
      </trkpt>
      <trkpt lat="49.1244" lon="-0.30003">
        <ele>35.2</ele>
        <time>2024-05-26T07:36:53Z</time>
      </trkpt>
      <trkpt lat="49.12439" lon="-0.30012">
        <ele>35.2</ele>
        <time>2024-05-26T07:36:54Z</time>
      </trkpt>
      <trkpt lat="49.12439" lon="-0.30022">
        <ele>35.6</ele>
        <time>2024-05-26T07:36:55Z</time>
      </trkpt>
      <trkpt lat="49.12439" lon="-0.30032">
        <ele>36</ele>
        <time>2024-05-26T07:36:56Z</time>
      </trkpt>
      <trkpt lat="49.12439" lon="-0.30042">
        <ele>36.6</ele>
        <time>2024-05-26T07:36:57Z</time>
      </trkpt>
      <trkpt lat="49.12439" lon="-0.30052">
        <ele>36.8</ele>
        <time>2024-05-26T07:36:58Z</time>
      </trkpt>
      <trkpt lat="49.12439" lon="-0.30062">
        <ele>37</ele>
        <time>2024-05-26T07:36:59Z</time>
      </trkpt>
      <trkpt lat="49.12439" lon="-0.30072">
        <ele>37.2</ele>
        <time>2024-05-26T07:37:00Z</time>
      </trkpt>
      <trkpt lat="49.12438" lon="-0.30082">
        <ele>37.4</ele>
        <time>2024-05-26T07:37:01Z</time>
      </trkpt>
      <trkpt lat="49.12439" lon="-0.30091">
        <ele>37.4</ele>
        <time>2024-05-26T07:37:02Z</time>
      </trkpt>
      <trkpt lat="49.12438" lon="-0.301">
        <ele>37.2</ele>
        <time>2024-05-26T07:37:03Z</time>
      </trkpt>
      <trkpt lat="49.12438" lon="-0.30109">
        <ele>37.2</ele>
        <time>2024-05-26T07:37:04Z</time>
      </trkpt>
      <trkpt lat="49.12438" lon="-0.30119">
        <ele>37.6</ele>
        <time>2024-05-26T07:37:05Z</time>
      </trkpt>
      <trkpt lat="49.12438" lon="-0.30128">
        <ele>37.4</ele>
        <time>2024-05-26T07:37:06Z</time>
      </trkpt>
      <trkpt lat="49.12438" lon="-0.30137">
        <ele>37.6</ele>
        <time>2024-05-26T07:37:07Z</time>
      </trkpt>
      <trkpt lat="49.12438" lon="-0.30146">
        <ele>37.8</ele>
        <time>2024-05-26T07:37:08Z</time>
      </trkpt>
      <trkpt lat="49.12437" lon="-0.30155">
        <ele>38.2</ele>
        <time>2024-05-26T07:37:09Z</time>
      </trkpt>
      <trkpt lat="49.12436" lon="-0.30164">
        <ele>38.4</ele>
        <time>2024-05-26T07:37:10Z</time>
      </trkpt>
      <trkpt lat="49.12436" lon="-0.30173">
        <ele>38.6</ele>
        <time>2024-05-26T07:37:11Z</time>
      </trkpt>
      <trkpt lat="49.12435" lon="-0.30183">
        <ele>38.8</ele>
        <time>2024-05-26T07:37:12Z</time>
      </trkpt>
      <trkpt lat="49.12435" lon="-0.30192">
        <ele>39</ele>
        <time>2024-05-26T07:37:13Z</time>
      </trkpt>
      <trkpt lat="49.12435" lon="-0.30201">
        <ele>39.4</ele>
        <time>2024-05-26T07:37:14Z</time>
      </trkpt>
      <trkpt lat="49.12434" lon="-0.30211">
        <ele>39.4</ele>
        <time>2024-05-26T07:37:15Z</time>
      </trkpt>
      <trkpt lat="49.12434" lon="-0.3022">
        <ele>39.6</ele>
        <time>2024-05-26T07:37:16Z</time>
      </trkpt>
      <trkpt lat="49.12433" lon="-0.3023">
        <ele>39.6</ele>
        <time>2024-05-26T07:37:17Z</time>
      </trkpt>
      <trkpt lat="49.12433" lon="-0.30239">
        <ele>39.8</ele>
        <time>2024-05-26T07:37:18Z</time>
      </trkpt>
      <trkpt lat="49.12432" lon="-0.30249">
        <ele>40.2</ele>
        <time>2024-05-26T07:37:19Z</time>
      </trkpt>
      <trkpt lat="49.12432" lon="-0.30259">
        <ele>40.6</ele>
        <time>2024-05-26T07:37:20Z</time>
      </trkpt>
      <trkpt lat="49.12432" lon="-0.30268">
        <ele>40.8</ele>
        <time>2024-05-26T07:37:21Z</time>
      </trkpt>
      <trkpt lat="49.12431" lon="-0.30277">
        <ele>41</ele>
        <time>2024-05-26T07:37:22Z</time>
      </trkpt>
      <trkpt lat="49.12431" lon="-0.30286">
        <ele>41</ele>
        <time>2024-05-26T07:37:23Z</time>
      </trkpt>
      <trkpt lat="49.1243" lon="-0.30296">
        <ele>41.2</ele>
        <time>2024-05-26T07:37:24Z</time>
      </trkpt>
      <trkpt lat="49.1243" lon="-0.30305">
        <ele>41.2</ele>
        <time>2024-05-26T07:37:25Z</time>
      </trkpt>
      <trkpt lat="49.1243" lon="-0.30314">
        <ele>41.2</ele>
        <time>2024-05-26T07:37:26Z</time>
      </trkpt>
      <trkpt lat="49.12429" lon="-0.30323">
        <ele>41.2</ele>
        <time>2024-05-26T07:37:27Z</time>
      </trkpt>
      <trkpt lat="49.12428" lon="-0.30332">
        <ele>41.2</ele>
        <time>2024-05-26T07:37:28Z</time>
      </trkpt>
      <trkpt lat="49.12428" lon="-0.30341">
        <ele>41.4</ele>
        <time>2024-05-26T07:37:29Z</time>
      </trkpt>
      <trkpt lat="49.12428" lon="-0.30351">
        <ele>41.8</ele>
        <time>2024-05-26T07:37:30Z</time>
      </trkpt>
      <trkpt lat="49.12428" lon="-0.3036">
        <ele>42</ele>
        <time>2024-05-26T07:37:31Z</time>
      </trkpt>
      <trkpt lat="49.12428" lon="-0.30369">
        <ele>42.2</ele>
        <time>2024-05-26T07:37:32Z</time>
      </trkpt>
      <trkpt lat="49.12428" lon="-0.30379">
        <ele>42.6</ele>
        <time>2024-05-26T07:37:33Z</time>
      </trkpt>
      <trkpt lat="49.12428" lon="-0.30388">
        <ele>43</ele>
        <time>2024-05-26T07:37:34Z</time>
      </trkpt>
      <trkpt lat="49.12428" lon="-0.30398">
        <ele>43.4</ele>
        <time>2024-05-26T07:37:35Z</time>
      </trkpt>
      <trkpt lat="49.12428" lon="-0.30407">
        <ele>43.8</ele>
        <time>2024-05-26T07:37:36Z</time>
      </trkpt>
      <trkpt lat="49.12429" lon="-0.30416">
        <ele>44</ele>
        <time>2024-05-26T07:37:37Z</time>
      </trkpt>
      <trkpt lat="49.12429" lon="-0.30426">
        <ele>44.4</ele>
        <time>2024-05-26T07:37:38Z</time>
      </trkpt>
      <trkpt lat="49.1243" lon="-0.30435">
        <ele>44.8</ele>
        <time>2024-05-26T07:37:39Z</time>
      </trkpt>
      <trkpt lat="49.12431" lon="-0.30445">
        <ele>45</ele>
        <time>2024-05-26T07:37:40Z</time>
      </trkpt>
      <trkpt lat="49.12432" lon="-0.30454">
        <ele>45.2</ele>
        <time>2024-05-26T07:37:41Z</time>
      </trkpt>
      <trkpt lat="49.12433" lon="-0.30463">
        <ele>45.6</ele>
        <time>2024-05-26T07:37:42Z</time>
      </trkpt>
      <trkpt lat="49.12434" lon="-0.30473">
        <ele>45.8</ele>
        <time>2024-05-26T07:37:43Z</time>
      </trkpt>
      <trkpt lat="49.12435" lon="-0.30482">
        <ele>46</ele>
        <time>2024-05-26T07:37:44Z</time>
      </trkpt>
      <trkpt lat="49.12437" lon="-0.30491">
        <ele>46.2</ele>
        <time>2024-05-26T07:37:45Z</time>
      </trkpt>
      <trkpt lat="49.12438" lon="-0.30501">
        <ele>46.6</ele>
        <time>2024-05-26T07:37:46Z</time>
      </trkpt>
      <trkpt lat="49.1244" lon="-0.3051">
        <ele>46.6</ele>
        <time>2024-05-26T07:37:47Z</time>
      </trkpt>
      <trkpt lat="49.12441" lon="-0.3052">
        <ele>47</ele>
        <time>2024-05-26T07:37:48Z</time>
      </trkpt>
      <trkpt lat="49.12443" lon="-0.30529">
        <ele>47.4</ele>
        <time>2024-05-26T07:37:49Z</time>
      </trkpt>
      <trkpt lat="49.12445" lon="-0.30539">
        <ele>47.6</ele>
        <time>2024-05-26T07:37:50Z</time>
      </trkpt>
      <trkpt lat="49.12447" lon="-0.30548">
        <ele>48</ele>
        <time>2024-05-26T07:37:51Z</time>
      </trkpt>
      <trkpt lat="49.12449" lon="-0.30557">
        <ele>48.4</ele>
        <time>2024-05-26T07:37:52Z</time>
      </trkpt>
      <trkpt lat="49.12451" lon="-0.30565">
        <ele>48.6</ele>
        <time>2024-05-26T07:37:53Z</time>
      </trkpt>
      <trkpt lat="49.12453" lon="-0.30574">
        <ele>48.8</ele>
        <time>2024-05-26T07:37:54Z</time>
      </trkpt>
      <trkpt lat="49.12456" lon="-0.30583">
        <ele>49</ele>
        <time>2024-05-26T07:37:55Z</time>
      </trkpt>
      <trkpt lat="49.12458" lon="-0.30592">
        <ele>49.2</ele>
        <time>2024-05-26T07:37:56Z</time>
      </trkpt>
      <trkpt lat="49.12461" lon="-0.30601">
        <ele>49.4</ele>
        <time>2024-05-26T07:37:57Z</time>
      </trkpt>
      <trkpt lat="49.12464" lon="-0.30609">
        <ele>49.6</ele>
        <time>2024-05-26T07:37:58Z</time>
      </trkpt>
      <trkpt lat="49.12467" lon="-0.30618">
        <ele>49.6</ele>
        <time>2024-05-26T07:37:59Z</time>
      </trkpt>
      <trkpt lat="49.1247" lon="-0.30627">
        <ele>49.6</ele>
        <time>2024-05-26T07:38:00Z</time>
      </trkpt>
      <trkpt lat="49.12473" lon="-0.30635">
        <ele>49.8</ele>
        <time>2024-05-26T07:38:01Z</time>
      </trkpt>
      <trkpt lat="49.12476" lon="-0.30644">
        <ele>49.8</ele>
        <time>2024-05-26T07:38:02Z</time>
      </trkpt>
      <trkpt lat="49.1248" lon="-0.30652">
        <ele>49.8</ele>
        <time>2024-05-26T07:38:03Z</time>
      </trkpt>
      <trkpt lat="49.12483" lon="-0.3066">
        <ele>49.8</ele>
        <time>2024-05-26T07:38:04Z</time>
      </trkpt>
      <trkpt lat="49.12486" lon="-0.30668">
        <ele>49.8</ele>
        <time>2024-05-26T07:38:05Z</time>
      </trkpt>
      <trkpt lat="49.12489" lon="-0.30676">
        <ele>49.8</ele>
        <time>2024-05-26T07:38:06Z</time>
      </trkpt>
      <trkpt lat="49.12493" lon="-0.30684">
        <ele>49.8</ele>
        <time>2024-05-26T07:38:07Z</time>
      </trkpt>
      <trkpt lat="49.12496" lon="-0.30692">
        <ele>49.8</ele>
        <time>2024-05-26T07:38:08Z</time>
      </trkpt>
      <trkpt lat="49.125" lon="-0.30699">
        <ele>49.8</ele>
        <time>2024-05-26T07:38:09Z</time>
      </trkpt>
      <trkpt lat="49.12505" lon="-0.30705">
        <ele>49.8</ele>
        <time>2024-05-26T07:38:10Z</time>
      </trkpt>
      <trkpt lat="49.1251" lon="-0.30711">
        <ele>49.8</ele>
        <time>2024-05-26T07:38:11Z</time>
      </trkpt>
      <trkpt lat="49.12515" lon="-0.30717">
        <ele>49.8</ele>
        <time>2024-05-26T07:38:12Z</time>
      </trkpt>
      <trkpt lat="49.12521" lon="-0.30722">
        <ele>49.8</ele>
        <time>2024-05-26T07:38:13Z</time>
      </trkpt>
      <trkpt lat="49.12525" lon="-0.30729">
        <ele>49.8</ele>
        <time>2024-05-26T07:38:14Z</time>
      </trkpt>
      <trkpt lat="49.12528" lon="-0.30737">
        <ele>49.8</ele>
        <time>2024-05-26T07:38:15Z</time>
      </trkpt>
      <trkpt lat="49.12529" lon="-0.30747">
        <ele>49.8</ele>
        <time>2024-05-26T07:38:16Z</time>
      </trkpt>
      <trkpt lat="49.12528" lon="-0.30756">
        <ele>49.8</ele>
        <time>2024-05-26T07:38:17Z</time>
      </trkpt>
      <trkpt lat="49.12529" lon="-0.30766">
        <ele>49.8</ele>
        <time>2024-05-26T07:38:18Z</time>
      </trkpt>
      <trkpt lat="49.12532" lon="-0.30776">
        <ele>49.6</ele>
        <time>2024-05-26T07:38:19Z</time>
      </trkpt>
      <trkpt lat="49.12535" lon="-0.30785">
        <ele>49.6</ele>
        <time>2024-05-26T07:38:20Z</time>
      </trkpt>
      <trkpt lat="49.12538" lon="-0.30795">
        <ele>49.4</ele>
        <time>2024-05-26T07:38:21Z</time>
      </trkpt>
      <trkpt lat="49.12542" lon="-0.30804">
        <ele>49.2</ele>
        <time>2024-05-26T07:38:22Z</time>
      </trkpt>
      <trkpt lat="49.12546" lon="-0.30814">
        <ele>49</ele>
        <time>2024-05-26T07:38:23Z</time>
      </trkpt>
      <trkpt lat="49.12549" lon="-0.30822">
        <ele>48.6</ele>
        <time>2024-05-26T07:38:24Z</time>
      </trkpt>
      <trkpt lat="49.12553" lon="-0.30831">
        <ele>48.4</ele>
        <time>2024-05-26T07:38:25Z</time>
      </trkpt>
      <trkpt lat="49.12556" lon="-0.3084">
        <ele>48.2</ele>
        <time>2024-05-26T07:38:26Z</time>
      </trkpt>
      <trkpt lat="49.12559" lon="-0.30849">
        <ele>48.2</ele>
        <time>2024-05-26T07:38:27Z</time>
      </trkpt>
      <trkpt lat="49.12563" lon="-0.30857">
        <ele>48</ele>
        <time>2024-05-26T07:38:28Z</time>
      </trkpt>
      <trkpt lat="49.12566" lon="-0.30866">
        <ele>47.8</ele>
        <time>2024-05-26T07:38:29Z</time>
      </trkpt>
      <trkpt lat="49.1257" lon="-0.30875">
        <ele>47.8</ele>
        <time>2024-05-26T07:38:30Z</time>
      </trkpt>
      <trkpt lat="49.12574" lon="-0.30883">
        <ele>47.8</ele>
        <time>2024-05-26T07:38:31Z</time>
      </trkpt>
      <trkpt lat="49.12578" lon="-0.30891">
        <ele>47.6</ele>
        <time>2024-05-26T07:38:32Z</time>
      </trkpt>
      <trkpt lat="49.12582" lon="-0.30898">
        <ele>47.6</ele>
        <time>2024-05-26T07:38:33Z</time>
      </trkpt>
      <trkpt lat="49.12587" lon="-0.30905">
        <ele>47.4</ele>
        <time>2024-05-26T07:38:34Z</time>
      </trkpt>
      <trkpt lat="49.12593" lon="-0.30909">
        <ele>47.4</ele>
        <time>2024-05-26T07:38:35Z</time>
      </trkpt>
      <trkpt lat="49.12599" lon="-0.30912">
        <ele>47.4</ele>
        <time>2024-05-26T07:38:36Z</time>
      </trkpt>
      <trkpt lat="49.12604" lon="-0.30916">
        <ele>47.4</ele>
        <time>2024-05-26T07:38:37Z</time>
      </trkpt>
      <trkpt lat="49.1261" lon="-0.3092">
        <ele>47.4</ele>
        <time>2024-05-26T07:38:38Z</time>
      </trkpt>
      <trkpt lat="49.12615" lon="-0.30927">
        <ele>47.2</ele>
        <time>2024-05-26T07:38:39Z</time>
      </trkpt>
      <trkpt lat="49.12618" lon="-0.30936">
        <ele>47.2</ele>
        <time>2024-05-26T07:38:40Z</time>
      </trkpt>
      <trkpt lat="49.1262" lon="-0.30946">
        <ele>47.2</ele>
        <time>2024-05-26T07:38:41Z</time>
      </trkpt>
      <trkpt lat="49.1262" lon="-0.30956">
        <ele>47.2</ele>
        <time>2024-05-26T07:38:42Z</time>
      </trkpt>
      <trkpt lat="49.12618" lon="-0.30966">
        <ele>47.2</ele>
        <time>2024-05-26T07:38:43Z</time>
      </trkpt>
      <trkpt lat="49.12616" lon="-0.30975">
        <ele>47.2</ele>
        <time>2024-05-26T07:38:44Z</time>
      </trkpt>
      <trkpt lat="49.12614" lon="-0.30984">
        <ele>47</ele>
        <time>2024-05-26T07:38:45Z</time>
      </trkpt>
      <trkpt lat="49.12613" lon="-0.30993">
        <ele>47</ele>
        <time>2024-05-26T07:38:46Z</time>
      </trkpt>
      <trkpt lat="49.12614" lon="-0.31003">
        <ele>46.8</ele>
        <time>2024-05-26T07:38:47Z</time>
      </trkpt>
      <trkpt lat="49.12615" lon="-0.31013">
        <ele>46.8</ele>
        <time>2024-05-26T07:38:48Z</time>
      </trkpt>
      <trkpt lat="49.12617" lon="-0.31023">
        <ele>46.8</ele>
        <time>2024-05-26T07:38:49Z</time>
      </trkpt>
      <trkpt lat="49.12619" lon="-0.31032">
        <ele>46.8</ele>
        <time>2024-05-26T07:38:50Z</time>
      </trkpt>
      <trkpt lat="49.12621" lon="-0.31042">
        <ele>46.4</ele>
        <time>2024-05-26T07:38:51Z</time>
      </trkpt>
      <trkpt lat="49.12623" lon="-0.31052">
        <ele>46.2</ele>
        <time>2024-05-26T07:38:52Z</time>
      </trkpt>
      <trkpt lat="49.12625" lon="-0.31061">
        <ele>46.2</ele>
        <time>2024-05-26T07:38:53Z</time>
      </trkpt>
      <trkpt lat="49.12627" lon="-0.31071">
        <ele>46.2</ele>
        <time>2024-05-26T07:38:54Z</time>
      </trkpt>
      <trkpt lat="49.12629" lon="-0.31081">
        <ele>46</ele>
        <time>2024-05-26T07:38:55Z</time>
      </trkpt>
      <trkpt lat="49.12631" lon="-0.3109">
        <ele>46</ele>
        <time>2024-05-26T07:38:56Z</time>
      </trkpt>
      <trkpt lat="49.12634" lon="-0.311">
        <ele>46</ele>
        <time>2024-05-26T07:38:57Z</time>
      </trkpt>
      <trkpt lat="49.12636" lon="-0.3111">
        <ele>45.8</ele>
        <time>2024-05-26T07:38:58Z</time>
      </trkpt>
      <trkpt lat="49.12638" lon="-0.3112">
        <ele>45.8</ele>
        <time>2024-05-26T07:38:59Z</time>
      </trkpt>
      <trkpt lat="49.1264" lon="-0.3113">
        <ele>45.8</ele>
        <time>2024-05-26T07:39:00Z</time>
      </trkpt>
      <trkpt lat="49.12642" lon="-0.3114">
        <ele>45.8</ele>
        <time>2024-05-26T07:39:01Z</time>
      </trkpt>
      <trkpt lat="49.12644" lon="-0.3115">
        <ele>45.6</ele>
        <time>2024-05-26T07:39:02Z</time>
      </trkpt>
      <trkpt lat="49.12647" lon="-0.3116">
        <ele>45.6</ele>
        <time>2024-05-26T07:39:03Z</time>
      </trkpt>
      <trkpt lat="49.12649" lon="-0.31169">
        <ele>45.6</ele>
        <time>2024-05-26T07:39:04Z</time>
      </trkpt>
      <trkpt lat="49.12651" lon="-0.3118">
        <ele>45.6</ele>
        <time>2024-05-26T07:39:05Z</time>
      </trkpt>
      <trkpt lat="49.12653" lon="-0.3119">
        <ele>45.6</ele>
        <time>2024-05-26T07:39:06Z</time>
      </trkpt>
      <trkpt lat="49.12655" lon="-0.312">
        <ele>45.8</ele>
        <time>2024-05-26T07:39:07Z</time>
      </trkpt>
      <trkpt lat="49.12657" lon="-0.3121">
        <ele>45.8</ele>
        <time>2024-05-26T07:39:08Z</time>
      </trkpt>
      <trkpt lat="49.12659" lon="-0.31221">
        <ele>45.8</ele>
        <time>2024-05-26T07:39:09Z</time>
      </trkpt>
      <trkpt lat="49.1266" lon="-0.31231">
        <ele>46</ele>
        <time>2024-05-26T07:39:10Z</time>
      </trkpt>
      <trkpt lat="49.12662" lon="-0.31241">
        <ele>46</ele>
        <time>2024-05-26T07:39:11Z</time>
      </trkpt>
      <trkpt lat="49.12664" lon="-0.31252">
        <ele>46</ele>
        <time>2024-05-26T07:39:12Z</time>
      </trkpt>
      <trkpt lat="49.12665" lon="-0.31263">
        <ele>46</ele>
        <time>2024-05-26T07:39:13Z</time>
      </trkpt>
      <trkpt lat="49.12666" lon="-0.31273">
        <ele>46</ele>
        <time>2024-05-26T07:39:14Z</time>
      </trkpt>
      <trkpt lat="49.12667" lon="-0.31284">
        <ele>46</ele>
        <time>2024-05-26T07:39:15Z</time>
      </trkpt>
      <trkpt lat="49.12668" lon="-0.31295">
        <ele>46.2</ele>
        <time>2024-05-26T07:39:16Z</time>
      </trkpt>
      <trkpt lat="49.12669" lon="-0.31306">
        <ele>46.2</ele>
        <time>2024-05-26T07:39:17Z</time>
      </trkpt>
      <trkpt lat="49.12669" lon="-0.31317">
        <ele>46.2</ele>
        <time>2024-05-26T07:39:18Z</time>
      </trkpt>
      <trkpt lat="49.1267" lon="-0.31328">
        <ele>46.4</ele>
        <time>2024-05-26T07:39:19Z</time>
      </trkpt>
      <trkpt lat="49.1267" lon="-0.31339">
        <ele>46.4</ele>
        <time>2024-05-26T07:39:20Z</time>
      </trkpt>
      <trkpt lat="49.12671" lon="-0.31351">
        <ele>46.6</ele>
        <time>2024-05-26T07:39:21Z</time>
      </trkpt>
      <trkpt lat="49.12671" lon="-0.31361">
        <ele>47</ele>
        <time>2024-05-26T07:39:22Z</time>
      </trkpt>
      <trkpt lat="49.12671" lon="-0.31373">
        <ele>47</ele>
        <time>2024-05-26T07:39:23Z</time>
      </trkpt>
      <trkpt lat="49.12671" lon="-0.31384">
        <ele>47.2</ele>
        <time>2024-05-26T07:39:24Z</time>
      </trkpt>
      <trkpt lat="49.12671" lon="-0.31395">
        <ele>47.2</ele>
        <time>2024-05-26T07:39:25Z</time>
      </trkpt>
      <trkpt lat="49.1267" lon="-0.31406">
        <ele>47.2</ele>
        <time>2024-05-26T07:39:26Z</time>
      </trkpt>
      <trkpt lat="49.1267" lon="-0.31416">
        <ele>47.4</ele>
        <time>2024-05-26T07:39:27Z</time>
      </trkpt>
      <trkpt lat="49.12669" lon="-0.31427">
        <ele>47.4</ele>
        <time>2024-05-26T07:39:28Z</time>
      </trkpt>
      <trkpt lat="49.12668" lon="-0.31438">
        <ele>47.6</ele>
        <time>2024-05-26T07:39:29Z</time>
      </trkpt>
      <trkpt lat="49.12668" lon="-0.31449">
        <ele>47.6</ele>
        <time>2024-05-26T07:39:30Z</time>
      </trkpt>
      <trkpt lat="49.12668" lon="-0.3146">
        <ele>47.8</ele>
        <time>2024-05-26T07:39:31Z</time>
      </trkpt>
      <trkpt lat="49.12667" lon="-0.31471">
        <ele>48</ele>
        <time>2024-05-26T07:39:32Z</time>
      </trkpt>
      <trkpt lat="49.12667" lon="-0.31482">
        <ele>48.2</ele>
        <time>2024-05-26T07:39:33Z</time>
      </trkpt>
      <trkpt lat="49.12666" lon="-0.31492">
        <ele>48.4</ele>
        <time>2024-05-26T07:39:34Z</time>
      </trkpt>
      <trkpt lat="49.12666" lon="-0.31503">
        <ele>48.6</ele>
        <time>2024-05-26T07:39:35Z</time>
      </trkpt>
      <trkpt lat="49.12666" lon="-0.31513">
        <ele>48.6</ele>
        <time>2024-05-26T07:39:36Z</time>
      </trkpt>
      <trkpt lat="49.12666" lon="-0.31523">
        <ele>48.6</ele>
        <time>2024-05-26T07:39:37Z</time>
      </trkpt>
      <trkpt lat="49.12665" lon="-0.31533">
        <ele>48.6</ele>
        <time>2024-05-26T07:39:38Z</time>
      </trkpt>
      <trkpt lat="49.12665" lon="-0.31543">
        <ele>48.8</ele>
        <time>2024-05-26T07:39:39Z</time>
      </trkpt>
      <trkpt lat="49.12664" lon="-0.31552">
        <ele>48.8</ele>
        <time>2024-05-26T07:39:40Z</time>
      </trkpt>
      <trkpt lat="49.12664" lon="-0.31562">
        <ele>48.8</ele>
        <time>2024-05-26T07:39:41Z</time>
      </trkpt>
      <trkpt lat="49.12663" lon="-0.31572">
        <ele>48.8</ele>
        <time>2024-05-26T07:39:42Z</time>
      </trkpt>
      <trkpt lat="49.12663" lon="-0.31582">
        <ele>49</ele>
        <time>2024-05-26T07:39:43Z</time>
      </trkpt>
      <trkpt lat="49.12663" lon="-0.31592">
        <ele>49.2</ele>
        <time>2024-05-26T07:39:44Z</time>
      </trkpt>
      <trkpt lat="49.12663" lon="-0.31602">
        <ele>49.4</ele>
        <time>2024-05-26T07:39:45Z</time>
      </trkpt>
      <trkpt lat="49.12662" lon="-0.31612">
        <ele>49.6</ele>
        <time>2024-05-26T07:39:46Z</time>
      </trkpt>
      <trkpt lat="49.12662" lon="-0.31622">
        <ele>49.6</ele>
        <time>2024-05-26T07:39:47Z</time>
      </trkpt>
      <trkpt lat="49.12662" lon="-0.31632">
        <ele>49.6</ele>
        <time>2024-05-26T07:39:48Z</time>
      </trkpt>
      <trkpt lat="49.12661" lon="-0.31641">
        <ele>49.8</ele>
        <time>2024-05-26T07:39:49Z</time>
      </trkpt>
      <trkpt lat="49.12661" lon="-0.31651">
        <ele>49.8</ele>
        <time>2024-05-26T07:39:50Z</time>
      </trkpt>
      <trkpt lat="49.12661" lon="-0.3166">
        <ele>50</ele>
        <time>2024-05-26T07:39:51Z</time>
      </trkpt>
      <trkpt lat="49.1266" lon="-0.3167">
        <ele>50</ele>
        <time>2024-05-26T07:39:52Z</time>
      </trkpt>
      <trkpt lat="49.1266" lon="-0.31679">
        <ele>50</ele>
        <time>2024-05-26T07:39:53Z</time>
      </trkpt>
      <trkpt lat="49.12659" lon="-0.31688">
        <ele>50.2</ele>
        <time>2024-05-26T07:39:54Z</time>
      </trkpt>
      <trkpt lat="49.12659" lon="-0.31698">
        <ele>50.4</ele>
        <time>2024-05-26T07:39:55Z</time>
      </trkpt>
      <trkpt lat="49.12659" lon="-0.31707">
        <ele>50.4</ele>
        <time>2024-05-26T07:39:56Z</time>
      </trkpt>
      <trkpt lat="49.12658" lon="-0.31717">
        <ele>50.6</ele>
        <time>2024-05-26T07:39:57Z</time>
      </trkpt>
      <trkpt lat="49.12658" lon="-0.31726">
        <ele>50.6</ele>
        <time>2024-05-26T07:39:58Z</time>
      </trkpt>
      <trkpt lat="49.12657" lon="-0.31735">
        <ele>50.6</ele>
        <time>2024-05-26T07:39:59Z</time>
      </trkpt>
      <trkpt lat="49.12657" lon="-0.31745">
        <ele>50.6</ele>
        <time>2024-05-26T07:40:00Z</time>
      </trkpt>
      <trkpt lat="49.12656" lon="-0.31754">
        <ele>50.8</ele>
        <time>2024-05-26T07:40:01Z</time>
      </trkpt>
      <trkpt lat="49.12655" lon="-0.31764">
        <ele>50.8</ele>
        <time>2024-05-26T07:40:02Z</time>
      </trkpt>
      <trkpt lat="49.12654" lon="-0.31773">
        <ele>50.8</ele>
        <time>2024-05-26T07:40:03Z</time>
      </trkpt>
      <trkpt lat="49.12653" lon="-0.31782">
        <ele>50.8</ele>
        <time>2024-05-26T07:40:04Z</time>
      </trkpt>
      <trkpt lat="49.12651" lon="-0.31792">
        <ele>51</ele>
        <time>2024-05-26T07:40:05Z</time>
      </trkpt>
      <trkpt lat="49.12649" lon="-0.31801">
        <ele>51</ele>
        <time>2024-05-26T07:40:06Z</time>
      </trkpt>
      <trkpt lat="49.12647" lon="-0.3181">
        <ele>51.2</ele>
        <time>2024-05-26T07:40:07Z</time>
      </trkpt>
      <trkpt lat="49.12645" lon="-0.3182">
        <ele>51.2</ele>
        <time>2024-05-26T07:40:08Z</time>
      </trkpt>
      <trkpt lat="49.12642" lon="-0.31829">
        <ele>51.4</ele>
        <time>2024-05-26T07:40:09Z</time>
      </trkpt>
      <trkpt lat="49.1264" lon="-0.31839">
        <ele>51.6</ele>
        <time>2024-05-26T07:40:10Z</time>
      </trkpt>
      <trkpt lat="49.12638" lon="-0.31848">
        <ele>52</ele>
        <time>2024-05-26T07:40:11Z</time>
      </trkpt>
      <trkpt lat="49.12635" lon="-0.31857">
        <ele>52.6</ele>
        <time>2024-05-26T07:40:12Z</time>
      </trkpt>
      <trkpt lat="49.12633" lon="-0.31866">
        <ele>52.8</ele>
        <time>2024-05-26T07:40:13Z</time>
      </trkpt>
      <trkpt lat="49.12631" lon="-0.31875">
        <ele>52.8</ele>
        <time>2024-05-26T07:40:14Z</time>
      </trkpt>
      <trkpt lat="49.12629" lon="-0.31884">
        <ele>53</ele>
        <time>2024-05-26T07:40:15Z</time>
      </trkpt>
      <trkpt lat="49.12627" lon="-0.31893">
        <ele>53</ele>
        <time>2024-05-26T07:40:16Z</time>
      </trkpt>
      <trkpt lat="49.12625" lon="-0.31903">
        <ele>53.2</ele>
        <time>2024-05-26T07:40:17Z</time>
      </trkpt>
      <trkpt lat="49.12622" lon="-0.31912">
        <ele>53.2</ele>
        <time>2024-05-26T07:40:18Z</time>
      </trkpt>
      <trkpt lat="49.1262" lon="-0.31921">
        <ele>53.2</ele>
        <time>2024-05-26T07:40:19Z</time>
      </trkpt>
      <trkpt lat="49.12618" lon="-0.3193">
        <ele>53.2</ele>
        <time>2024-05-26T07:40:20Z</time>
      </trkpt>
      <trkpt lat="49.12616" lon="-0.3194">
        <ele>53.2</ele>
        <time>2024-05-26T07:40:21Z</time>
      </trkpt>
      <trkpt lat="49.12614" lon="-0.31949">
        <ele>53.4</ele>
        <time>2024-05-26T07:40:22Z</time>
      </trkpt>
      <trkpt lat="49.12612" lon="-0.31958">
        <ele>53.4</ele>
        <time>2024-05-26T07:40:23Z</time>
      </trkpt>
      <trkpt lat="49.12609" lon="-0.31967">
        <ele>53.6</ele>
        <time>2024-05-26T07:40:24Z</time>
      </trkpt>
      <trkpt lat="49.12607" lon="-0.31977">
        <ele>53.6</ele>
        <time>2024-05-26T07:40:25Z</time>
      </trkpt>
      <trkpt lat="49.12605" lon="-0.31986">
        <ele>53.6</ele>
        <time>2024-05-26T07:40:26Z</time>
      </trkpt>
      <trkpt lat="49.12603" lon="-0.31995">
        <ele>53.6</ele>
        <time>2024-05-26T07:40:27Z</time>
      </trkpt>
      <trkpt lat="49.12601" lon="-0.32004">
        <ele>53.8</ele>
        <time>2024-05-26T07:40:28Z</time>
      </trkpt>
      <trkpt lat="49.12598" lon="-0.32013">
        <ele>53.8</ele>
        <time>2024-05-26T07:40:29Z</time>
      </trkpt>
      <trkpt lat="49.12596" lon="-0.32022">
        <ele>54</ele>
        <time>2024-05-26T07:40:30Z</time>
      </trkpt>
      <trkpt lat="49.12593" lon="-0.32031">
        <ele>54</ele>
        <time>2024-05-26T07:40:31Z</time>
      </trkpt>
      <trkpt lat="49.12591" lon="-0.3204">
        <ele>54</ele>
        <time>2024-05-26T07:40:32Z</time>
      </trkpt>
      <trkpt lat="49.12588" lon="-0.32048">
        <ele>54.2</ele>
        <time>2024-05-26T07:40:33Z</time>
      </trkpt>
      <trkpt lat="49.12586" lon="-0.32057">
        <ele>54.4</ele>
        <time>2024-05-26T07:40:34Z</time>
      </trkpt>
      <trkpt lat="49.12582" lon="-0.32066">
        <ele>54.4</ele>
        <time>2024-05-26T07:40:35Z</time>
      </trkpt>
      <trkpt lat="49.1258" lon="-0.32074">
        <ele>54.6</ele>
        <time>2024-05-26T07:40:36Z</time>
      </trkpt>
      <trkpt lat="49.12577" lon="-0.32082">
        <ele>54.6</ele>
        <time>2024-05-26T07:40:37Z</time>
      </trkpt>
      <trkpt lat="49.12573" lon="-0.32091">
        <ele>54.6</ele>
        <time>2024-05-26T07:40:38Z</time>
      </trkpt>
      <trkpt lat="49.1257" lon="-0.32099">
        <ele>54.6</ele>
        <time>2024-05-26T07:40:39Z</time>
      </trkpt>
      <trkpt lat="49.12567" lon="-0.32107">
        <ele>54.6</ele>
        <time>2024-05-26T07:40:40Z</time>
      </trkpt>
      <trkpt lat="49.12563" lon="-0.32115">
        <ele>54.6</ele>
        <time>2024-05-26T07:40:41Z</time>
      </trkpt>
      <trkpt lat="49.1256" lon="-0.32123">
        <ele>54.6</ele>
        <time>2024-05-26T07:40:42Z</time>
      </trkpt>
      <trkpt lat="49.12557" lon="-0.32131">
        <ele>54.4</ele>
        <time>2024-05-26T07:40:43Z</time>
      </trkpt>
      <trkpt lat="49.12553" lon="-0.32139">
        <ele>54.6</ele>
        <time>2024-05-26T07:40:44Z</time>
      </trkpt>
      <trkpt lat="49.12549" lon="-0.32146">
        <ele>54.6</ele>
        <time>2024-05-26T07:40:45Z</time>
      </trkpt>
      <trkpt lat="49.12546" lon="-0.32155">
        <ele>54.4</ele>
        <time>2024-05-26T07:40:46Z</time>
      </trkpt>
      <trkpt lat="49.12543" lon="-0.32163">
        <ele>54.6</ele>
        <time>2024-05-26T07:40:47Z</time>
      </trkpt>
      <trkpt lat="49.12539" lon="-0.32171">
        <ele>54.6</ele>
        <time>2024-05-26T07:40:48Z</time>
      </trkpt>
      <trkpt lat="49.12536" lon="-0.32179">
        <ele>54.6</ele>
        <time>2024-05-26T07:40:49Z</time>
      </trkpt>
      <trkpt lat="49.12532" lon="-0.32187">
        <ele>54.6</ele>
        <time>2024-05-26T07:40:50Z</time>
      </trkpt>
      <trkpt lat="49.12528" lon="-0.32196">
        <ele>54.6</ele>
        <time>2024-05-26T07:40:51Z</time>
      </trkpt>
      <trkpt lat="49.12524" lon="-0.32204">
        <ele>54.6</ele>
        <time>2024-05-26T07:40:52Z</time>
      </trkpt>
      <trkpt lat="49.12521" lon="-0.32213">
        <ele>54.6</ele>
        <time>2024-05-26T07:40:53Z</time>
      </trkpt>
      <trkpt lat="49.12517" lon="-0.32221">
        <ele>54.4</ele>
        <time>2024-05-26T07:40:54Z</time>
      </trkpt>
      <trkpt lat="49.12513" lon="-0.3223">
        <ele>54.4</ele>
        <time>2024-05-26T07:40:55Z</time>
      </trkpt>
      <trkpt lat="49.12509" lon="-0.32239">
        <ele>54.4</ele>
        <time>2024-05-26T07:40:56Z</time>
      </trkpt>
      <trkpt lat="49.12506" lon="-0.32248">
        <ele>54</ele>
        <time>2024-05-26T07:40:57Z</time>
      </trkpt>
      <trkpt lat="49.12502" lon="-0.32257">
        <ele>54</ele>
        <time>2024-05-26T07:40:58Z</time>
      </trkpt>
      <trkpt lat="49.12498" lon="-0.32266">
        <ele>54</ele>
        <time>2024-05-26T07:40:59Z</time>
      </trkpt>
      <trkpt lat="49.12494" lon="-0.32275">
        <ele>53.8</ele>
        <time>2024-05-26T07:41:00Z</time>
      </trkpt>
      <trkpt lat="49.1249" lon="-0.32284">
        <ele>53.4</ele>
        <time>2024-05-26T07:41:01Z</time>
      </trkpt>
      <trkpt lat="49.12487" lon="-0.32293">
        <ele>53.4</ele>
        <time>2024-05-26T07:41:02Z</time>
      </trkpt>
      <trkpt lat="49.12483" lon="-0.32302">
        <ele>53</ele>
        <time>2024-05-26T07:41:03Z</time>
      </trkpt>
      <trkpt lat="49.12479" lon="-0.32311">
        <ele>53</ele>
        <time>2024-05-26T07:41:04Z</time>
      </trkpt>
      <trkpt lat="49.12476" lon="-0.3232">
        <ele>53</ele>
        <time>2024-05-26T07:41:05Z</time>
      </trkpt>
      <trkpt lat="49.12471" lon="-0.32329">
        <ele>52.8</ele>
        <time>2024-05-26T07:41:06Z</time>
      </trkpt>
      <trkpt lat="49.12468" lon="-0.32338">
        <ele>52.8</ele>
        <time>2024-05-26T07:41:07Z</time>
      </trkpt>
      <trkpt lat="49.12464" lon="-0.32347">
        <ele>52.8</ele>
        <time>2024-05-26T07:41:08Z</time>
      </trkpt>
      <trkpt lat="49.12459" lon="-0.32355">
        <ele>52.8</ele>
        <time>2024-05-26T07:41:09Z</time>
      </trkpt>
      <trkpt lat="49.12454" lon="-0.32364">
        <ele>52.8</ele>
        <time>2024-05-26T07:41:10Z</time>
      </trkpt>
      <trkpt lat="49.12449" lon="-0.32371">
        <ele>52.8</ele>
        <time>2024-05-26T07:41:11Z</time>
      </trkpt>
      <trkpt lat="49.12443" lon="-0.32378">
        <ele>52.6</ele>
        <time>2024-05-26T07:41:12Z</time>
      </trkpt>
      <trkpt lat="49.12437" lon="-0.32385">
        <ele>52.6</ele>
        <time>2024-05-26T07:41:13Z</time>
      </trkpt>
      <trkpt lat="49.12431" lon="-0.3239">
        <ele>52.6</ele>
        <time>2024-05-26T07:41:14Z</time>
      </trkpt>
      <trkpt lat="49.12425" lon="-0.32395">
        <ele>52.6</ele>
        <time>2024-05-26T07:41:15Z</time>
      </trkpt>
      <trkpt lat="49.12418" lon="-0.32399">
        <ele>52.6</ele>
        <time>2024-05-26T07:41:16Z</time>
      </trkpt>
      <trkpt lat="49.12411" lon="-0.32403">
        <ele>52.6</ele>
        <time>2024-05-26T07:41:17Z</time>
      </trkpt>
      <trkpt lat="49.12405" lon="-0.32406">
        <ele>52.6</ele>
        <time>2024-05-26T07:41:18Z</time>
      </trkpt>
      <trkpt lat="49.12398" lon="-0.32408">
        <ele>52.6</ele>
        <time>2024-05-26T07:41:19Z</time>
      </trkpt>
      <trkpt lat="49.1239" lon="-0.3241">
        <ele>52.4</ele>
        <time>2024-05-26T07:41:20Z</time>
      </trkpt>
      <trkpt lat="49.12383" lon="-0.32412">
        <ele>52.2</ele>
        <time>2024-05-26T07:41:21Z</time>
      </trkpt>
      <trkpt lat="49.12376" lon="-0.32414">
        <ele>51.8</ele>
        <time>2024-05-26T07:41:22Z</time>
      </trkpt>
      <trkpt lat="49.12369" lon="-0.32417">
        <ele>51.8</ele>
        <time>2024-05-26T07:41:23Z</time>
      </trkpt>
      <trkpt lat="49.12361" lon="-0.32419">
        <ele>51.8</ele>
        <time>2024-05-26T07:41:24Z</time>
      </trkpt>
      <trkpt lat="49.12354" lon="-0.32421">
        <ele>51.6</ele>
        <time>2024-05-26T07:41:25Z</time>
      </trkpt>
      <trkpt lat="49.12346" lon="-0.32423">
        <ele>51.6</ele>
        <time>2024-05-26T07:41:26Z</time>
      </trkpt>
      <trkpt lat="49.12339" lon="-0.32424">
        <ele>51.4</ele>
        <time>2024-05-26T07:41:27Z</time>
      </trkpt>
      <trkpt lat="49.12332" lon="-0.32426">
        <ele>51.4</ele>
        <time>2024-05-26T07:41:28Z</time>
      </trkpt>
      <trkpt lat="49.12324" lon="-0.32428">
        <ele>51.4</ele>
        <time>2024-05-26T07:41:29Z</time>
      </trkpt>
      <trkpt lat="49.12317" lon="-0.32431">
        <ele>51.4</ele>
        <time>2024-05-26T07:41:30Z</time>
      </trkpt>
      <trkpt lat="49.1231" lon="-0.32433">
        <ele>51.4</ele>
        <time>2024-05-26T07:41:31Z</time>
      </trkpt>
      <trkpt lat="49.12303" lon="-0.32436">
        <ele>51.4</ele>
        <time>2024-05-26T07:41:32Z</time>
      </trkpt>
      <trkpt lat="49.12296" lon="-0.3244">
        <ele>51.4</ele>
        <time>2024-05-26T07:41:33Z</time>
      </trkpt>
      <trkpt lat="49.1229" lon="-0.32445">
        <ele>51.4</ele>
        <time>2024-05-26T07:41:34Z</time>
      </trkpt>
      <trkpt lat="49.12284" lon="-0.3245">
        <ele>51.6</ele>
        <time>2024-05-26T07:41:35Z</time>
      </trkpt>
      <trkpt lat="49.12278" lon="-0.32455">
        <ele>52</ele>
        <time>2024-05-26T07:41:36Z</time>
      </trkpt>
      <trkpt lat="49.12272" lon="-0.32461">
        <ele>52.2</ele>
        <time>2024-05-26T07:41:37Z</time>
      </trkpt>
      <trkpt lat="49.12267" lon="-0.32467">
        <ele>52.6</ele>
        <time>2024-05-26T07:41:38Z</time>
      </trkpt>
      <trkpt lat="49.12262" lon="-0.32474">
        <ele>52.8</ele>
        <time>2024-05-26T07:41:39Z</time>
      </trkpt>
      <trkpt lat="49.12258" lon="-0.32482">
        <ele>53</ele>
        <time>2024-05-26T07:41:40Z</time>
      </trkpt>
      <trkpt lat="49.12254" lon="-0.32489">
        <ele>53.4</ele>
        <time>2024-05-26T07:41:41Z</time>
      </trkpt>
      <trkpt lat="49.12249" lon="-0.32497">
        <ele>53.6</ele>
        <time>2024-05-26T07:41:42Z</time>
      </trkpt>
      <trkpt lat="49.12246" lon="-0.32505">
        <ele>53.6</ele>
        <time>2024-05-26T07:41:43Z</time>
      </trkpt>
      <trkpt lat="49.12242" lon="-0.32514">
        <ele>53.8</ele>
        <time>2024-05-26T07:41:44Z</time>
      </trkpt>
      <trkpt lat="49.12239" lon="-0.32524">
        <ele>53.8</ele>
        <time>2024-05-26T07:41:45Z</time>
      </trkpt>
      <trkpt lat="49.12237" lon="-0.32533">
        <ele>53.8</ele>
        <time>2024-05-26T07:41:46Z</time>
      </trkpt>
      <trkpt lat="49.12234" lon="-0.32542">
        <ele>54</ele>
        <time>2024-05-26T07:41:47Z</time>
      </trkpt>
      <trkpt lat="49.12232" lon="-0.32552">
        <ele>54.4</ele>
        <time>2024-05-26T07:41:48Z</time>
      </trkpt>
      <trkpt lat="49.1223" lon="-0.32562">
        <ele>54.6</ele>
        <time>2024-05-26T07:41:49Z</time>
      </trkpt>
      <trkpt lat="49.12228" lon="-0.32572">
        <ele>54.6</ele>
        <time>2024-05-26T07:41:50Z</time>
      </trkpt>
      <trkpt lat="49.12225" lon="-0.32582">
        <ele>54.8</ele>
        <time>2024-05-26T07:41:51Z</time>
      </trkpt>
      <trkpt lat="49.12223" lon="-0.32592">
        <ele>54.8</ele>
        <time>2024-05-26T07:41:52Z</time>
      </trkpt>
      <trkpt lat="49.12221" lon="-0.32603">
        <ele>55</ele>
        <time>2024-05-26T07:41:53Z</time>
      </trkpt>
      <trkpt lat="49.12219" lon="-0.32614">
        <ele>55</ele>
        <time>2024-05-26T07:41:54Z</time>
      </trkpt>
      <trkpt lat="49.12218" lon="-0.32626">
        <ele>55</ele>
        <time>2024-05-26T07:41:55Z</time>
      </trkpt>
      <trkpt lat="49.12217" lon="-0.32638">
        <ele>55</ele>
        <time>2024-05-26T07:41:56Z</time>
      </trkpt>
      <trkpt lat="49.12217" lon="-0.3265">
        <ele>55</ele>
        <time>2024-05-26T07:41:57Z</time>
      </trkpt>
      <trkpt lat="49.12217" lon="-0.32663">
        <ele>55</ele>
        <time>2024-05-26T07:41:58Z</time>
      </trkpt>
      <trkpt lat="49.12218" lon="-0.32676">
        <ele>55</ele>
        <time>2024-05-26T07:41:59Z</time>
      </trkpt>
      <trkpt lat="49.12219" lon="-0.32689">
        <ele>55</ele>
        <time>2024-05-26T07:42:00Z</time>
      </trkpt>
      <trkpt lat="49.1222" lon="-0.32701">
        <ele>55</ele>
        <time>2024-05-26T07:42:01Z</time>
      </trkpt>
      <trkpt lat="49.12222" lon="-0.32714">
        <ele>55</ele>
        <time>2024-05-26T07:42:02Z</time>
      </trkpt>
      <trkpt lat="49.12223" lon="-0.32727">
        <ele>55</ele>
        <time>2024-05-26T07:42:03Z</time>
      </trkpt>
      <trkpt lat="49.12224" lon="-0.32741">
        <ele>55</ele>
        <time>2024-05-26T07:42:04Z</time>
      </trkpt>
      <trkpt lat="49.12225" lon="-0.32754">
        <ele>54.8</ele>
        <time>2024-05-26T07:42:05Z</time>
      </trkpt>
      <trkpt lat="49.12226" lon="-0.32768">
        <ele>54.8</ele>
        <time>2024-05-26T07:42:06Z</time>
      </trkpt>
      <trkpt lat="49.12227" lon="-0.32783">
        <ele>54.8</ele>
        <time>2024-05-26T07:42:07Z</time>
      </trkpt>
      <trkpt lat="49.12227" lon="-0.32797">
        <ele>54.8</ele>
        <time>2024-05-26T07:42:08Z</time>
      </trkpt>
      <trkpt lat="49.12227" lon="-0.32812">
        <ele>54.4</ele>
        <time>2024-05-26T07:42:09Z</time>
      </trkpt>
      <trkpt lat="49.12225" lon="-0.32825">
        <ele>54</ele>
        <time>2024-05-26T07:42:10Z</time>
      </trkpt>
      <trkpt lat="49.12223" lon="-0.32839">
        <ele>53.4</ele>
        <time>2024-05-26T07:42:11Z</time>
      </trkpt>
      <trkpt lat="49.1222" lon="-0.32852">
        <ele>53</ele>
        <time>2024-05-26T07:42:12Z</time>
      </trkpt>
      <trkpt lat="49.12217" lon="-0.32864">
        <ele>52.8</ele>
        <time>2024-05-26T07:42:13Z</time>
      </trkpt>
      <trkpt lat="49.12213" lon="-0.32875">
        <ele>52.4</ele>
        <time>2024-05-26T07:42:14Z</time>
      </trkpt>
      <trkpt lat="49.12209" lon="-0.32886">
        <ele>52</ele>
        <time>2024-05-26T07:42:15Z</time>
      </trkpt>
      <trkpt lat="49.12204" lon="-0.32896">
        <ele>51.4</ele>
        <time>2024-05-26T07:42:16Z</time>
      </trkpt>
      <trkpt lat="49.122" lon="-0.32906">
        <ele>51.2</ele>
        <time>2024-05-26T07:42:17Z</time>
      </trkpt>
      <trkpt lat="49.12196" lon="-0.32916">
        <ele>50.8</ele>
        <time>2024-05-26T07:42:18Z</time>
      </trkpt>
      <trkpt lat="49.12191" lon="-0.32925">
        <ele>50.8</ele>
        <time>2024-05-26T07:42:19Z</time>
      </trkpt>
      <trkpt lat="49.12187" lon="-0.32935">
        <ele>50.6</ele>
        <time>2024-05-26T07:42:20Z</time>
      </trkpt>
      <trkpt lat="49.12183" lon="-0.32945">
        <ele>50.6</ele>
        <time>2024-05-26T07:42:21Z</time>
      </trkpt>
      <trkpt lat="49.12179" lon="-0.32955">
        <ele>50.4</ele>
        <time>2024-05-26T07:42:22Z</time>
      </trkpt>
      <trkpt lat="49.12176" lon="-0.32965">
        <ele>50.4</ele>
        <time>2024-05-26T07:42:23Z</time>
      </trkpt>
      <trkpt lat="49.12173" lon="-0.32975">
        <ele>50.4</ele>
        <time>2024-05-26T07:42:24Z</time>
      </trkpt>
      <trkpt lat="49.1217" lon="-0.32986">
        <ele>50.2</ele>
        <time>2024-05-26T07:42:25Z</time>
      </trkpt>
      <trkpt lat="49.12166" lon="-0.32996">
        <ele>50.2</ele>
        <time>2024-05-26T07:42:26Z</time>
      </trkpt>
      <trkpt lat="49.12163" lon="-0.33005">
        <ele>50.2</ele>
        <time>2024-05-26T07:42:27Z</time>
      </trkpt>
      <trkpt lat="49.1216" lon="-0.33015">
        <ele>50.2</ele>
        <time>2024-05-26T07:42:28Z</time>
      </trkpt>
      <trkpt lat="49.12157" lon="-0.33025">
        <ele>50.2</ele>
        <time>2024-05-26T07:42:29Z</time>
      </trkpt>
      <trkpt lat="49.12155" lon="-0.33035">
        <ele>50.2</ele>
        <time>2024-05-26T07:42:30Z</time>
      </trkpt>
      <trkpt lat="49.12152" lon="-0.33045">
        <ele>50.2</ele>
        <time>2024-05-26T07:42:31Z</time>
      </trkpt>
      <trkpt lat="49.12149" lon="-0.33054">
        <ele>50.2</ele>
        <time>2024-05-26T07:42:32Z</time>
      </trkpt>
      <trkpt lat="49.12145" lon="-0.33064">
        <ele>50.2</ele>
        <time>2024-05-26T07:42:33Z</time>
      </trkpt>
      <trkpt lat="49.12143" lon="-0.33073">
        <ele>50.4</ele>
        <time>2024-05-26T07:42:34Z</time>
      </trkpt>
      <trkpt lat="49.1214" lon="-0.33083">
        <ele>50.4</ele>
        <time>2024-05-26T07:42:35Z</time>
      </trkpt>
      <trkpt lat="49.12137" lon="-0.33092">
        <ele>50.6</ele>
        <time>2024-05-26T07:42:36Z</time>
      </trkpt>
      <trkpt lat="49.12134" lon="-0.33102">
        <ele>50.8</ele>
        <time>2024-05-26T07:42:37Z</time>
      </trkpt>
      <trkpt lat="49.12131" lon="-0.33112">
        <ele>50.8</ele>
        <time>2024-05-26T07:42:38Z</time>
      </trkpt>
      <trkpt lat="49.12129" lon="-0.33122">
        <ele>51</ele>
        <time>2024-05-26T07:42:39Z</time>
      </trkpt>
      <trkpt lat="49.12126" lon="-0.33131">
        <ele>51</ele>
        <time>2024-05-26T07:42:40Z</time>
      </trkpt>
      <trkpt lat="49.12123" lon="-0.33141">
        <ele>51</ele>
        <time>2024-05-26T07:42:41Z</time>
      </trkpt>
      <trkpt lat="49.1212" lon="-0.3315">
        <ele>51.2</ele>
        <time>2024-05-26T07:42:42Z</time>
      </trkpt>
      <trkpt lat="49.12117" lon="-0.33159">
        <ele>51.2</ele>
        <time>2024-05-26T07:42:43Z</time>
      </trkpt>
      <trkpt lat="49.12114" lon="-0.33169">
        <ele>51.4</ele>
        <time>2024-05-26T07:42:44Z</time>
      </trkpt>
      <trkpt lat="49.12111" lon="-0.33179">
        <ele>51.6</ele>
        <time>2024-05-26T07:42:45Z</time>
      </trkpt>
      <trkpt lat="49.12108" lon="-0.3319">
        <ele>51.6</ele>
        <time>2024-05-26T07:42:46Z</time>
      </trkpt>
      <trkpt lat="49.12106" lon="-0.33201">
        <ele>51.6</ele>
        <time>2024-05-26T07:42:47Z</time>
      </trkpt>
      <trkpt lat="49.12104" lon="-0.33212">
        <ele>51.6</ele>
        <time>2024-05-26T07:42:48Z</time>
      </trkpt>
      <trkpt lat="49.12101" lon="-0.33223">
        <ele>51.8</ele>
        <time>2024-05-26T07:42:49Z</time>
      </trkpt>
      <trkpt lat="49.12099" lon="-0.33234">
        <ele>51.8</ele>
        <time>2024-05-26T07:42:50Z</time>
      </trkpt>
      <trkpt lat="49.12096" lon="-0.33245">
        <ele>52</ele>
        <time>2024-05-26T07:42:51Z</time>
      </trkpt>
      <trkpt lat="49.12094" lon="-0.33257">
        <ele>52</ele>
        <time>2024-05-26T07:42:52Z</time>
      </trkpt>
      <trkpt lat="49.12092" lon="-0.33268">
        <ele>52</ele>
        <time>2024-05-26T07:42:53Z</time>
      </trkpt>
      <trkpt lat="49.1209" lon="-0.3328">
        <ele>52</ele>
        <time>2024-05-26T07:42:54Z</time>
      </trkpt>
      <trkpt lat="49.12089" lon="-0.33292">
        <ele>52</ele>
        <time>2024-05-26T07:42:55Z</time>
      </trkpt>
      <trkpt lat="49.12088" lon="-0.33304">
        <ele>52</ele>
        <time>2024-05-26T07:42:56Z</time>
      </trkpt>
      <trkpt lat="49.12088" lon="-0.33316">
        <ele>52</ele>
        <time>2024-05-26T07:42:57Z</time>
      </trkpt>
      <trkpt lat="49.12088" lon="-0.33328">
        <ele>52</ele>
        <time>2024-05-26T07:42:58Z</time>
      </trkpt>
      <trkpt lat="49.12088" lon="-0.33341">
        <ele>51.8</ele>
        <time>2024-05-26T07:42:59Z</time>
      </trkpt>
      <trkpt lat="49.12088" lon="-0.33353">
        <ele>51.8</ele>
        <time>2024-05-26T07:43:00Z</time>
      </trkpt>
      <trkpt lat="49.12089" lon="-0.33366">
        <ele>51.8</ele>
        <time>2024-05-26T07:43:01Z</time>
      </trkpt>
      <trkpt lat="49.12089" lon="-0.33379">
        <ele>51.2</ele>
        <time>2024-05-26T07:43:02Z</time>
      </trkpt>
      <trkpt lat="49.12089" lon="-0.33391">
        <ele>51</ele>
        <time>2024-05-26T07:43:03Z</time>
      </trkpt>
      <trkpt lat="49.1209" lon="-0.33403">
        <ele>51</ele>
        <time>2024-05-26T07:43:04Z</time>
      </trkpt>
      <trkpt lat="49.1209" lon="-0.33415">
        <ele>50.8</ele>
        <time>2024-05-26T07:43:05Z</time>
      </trkpt>
      <trkpt lat="49.12091" lon="-0.33426">
        <ele>50.8</ele>
        <time>2024-05-26T07:43:06Z</time>
      </trkpt>
      <trkpt lat="49.12091" lon="-0.33438">
        <ele>50.8</ele>
        <time>2024-05-26T07:43:07Z</time>
      </trkpt>
      <trkpt lat="49.12092" lon="-0.3345">
        <ele>50.8</ele>
        <time>2024-05-26T07:43:08Z</time>
      </trkpt>
      <trkpt lat="49.12092" lon="-0.33461">
        <ele>50.8</ele>
        <time>2024-05-26T07:43:09Z</time>
      </trkpt>
      <trkpt lat="49.12093" lon="-0.33473">
        <ele>50.8</ele>
        <time>2024-05-26T07:43:10Z</time>
      </trkpt>
      <trkpt lat="49.12093" lon="-0.33484">
        <ele>50.8</ele>
        <time>2024-05-26T07:43:11Z</time>
      </trkpt>
      <trkpt lat="49.12093" lon="-0.33495">
        <ele>50.8</ele>
        <time>2024-05-26T07:43:12Z</time>
      </trkpt>
      <trkpt lat="49.12094" lon="-0.33505">
        <ele>50.8</ele>
        <time>2024-05-26T07:43:13Z</time>
      </trkpt>
      <trkpt lat="49.12094" lon="-0.33516">
        <ele>51</ele>
        <time>2024-05-26T07:43:14Z</time>
      </trkpt>
      <trkpt lat="49.12094" lon="-0.33528">
        <ele>51</ele>
        <time>2024-05-26T07:43:15Z</time>
      </trkpt>
      <trkpt lat="49.12094" lon="-0.33539">
        <ele>51</ele>
        <time>2024-05-26T07:43:16Z</time>
      </trkpt>
      <trkpt lat="49.12094" lon="-0.3355">
        <ele>51.2</ele>
        <time>2024-05-26T07:43:17Z</time>
      </trkpt>
      <trkpt lat="49.12094" lon="-0.33561">
        <ele>51.4</ele>
        <time>2024-05-26T07:43:18Z</time>
      </trkpt>
      <trkpt lat="49.12094" lon="-0.33571">
        <ele>51.6</ele>
        <time>2024-05-26T07:43:19Z</time>
      </trkpt>
      <trkpt lat="49.12095" lon="-0.33581">
        <ele>51.6</ele>
        <time>2024-05-26T07:43:20Z</time>
      </trkpt>
      <trkpt lat="49.12095" lon="-0.33591">
        <ele>51.6</ele>
        <time>2024-05-26T07:43:21Z</time>
      </trkpt>
      <trkpt lat="49.12096" lon="-0.33601">
        <ele>52</ele>
        <time>2024-05-26T07:43:22Z</time>
      </trkpt>
      <trkpt lat="49.12096" lon="-0.33611">
        <ele>52.2</ele>
        <time>2024-05-26T07:43:23Z</time>
      </trkpt>
      <trkpt lat="49.12096" lon="-0.33621">
        <ele>52.2</ele>
        <time>2024-05-26T07:43:24Z</time>
      </trkpt>
      <trkpt lat="49.12096" lon="-0.33631">
        <ele>52.2</ele>
        <time>2024-05-26T07:43:25Z</time>
      </trkpt>
      <trkpt lat="49.12096" lon="-0.33641">
        <ele>52.2</ele>
        <time>2024-05-26T07:43:26Z</time>
      </trkpt>
      <trkpt lat="49.12096" lon="-0.33652">
        <ele>52.2</ele>
        <time>2024-05-26T07:43:27Z</time>
      </trkpt>
      <trkpt lat="49.12097" lon="-0.33662">
        <ele>52.2</ele>
        <time>2024-05-26T07:43:28Z</time>
      </trkpt>
      <trkpt lat="49.12097" lon="-0.33673">
        <ele>52.6</ele>
        <time>2024-05-26T07:43:29Z</time>
      </trkpt>
      <trkpt lat="49.12097" lon="-0.33683">
        <ele>52.6</ele>
        <time>2024-05-26T07:43:30Z</time>
      </trkpt>
      <trkpt lat="49.12098" lon="-0.33694">
        <ele>52.6</ele>
        <time>2024-05-26T07:43:31Z</time>
      </trkpt>
      <trkpt lat="49.12098" lon="-0.33705">
        <ele>52.6</ele>
        <time>2024-05-26T07:43:32Z</time>
      </trkpt>
      <trkpt lat="49.12098" lon="-0.33715">
        <ele>52.8</ele>
        <time>2024-05-26T07:43:33Z</time>
      </trkpt>
      <trkpt lat="49.12098" lon="-0.33726">
        <ele>52.8</ele>
        <time>2024-05-26T07:43:34Z</time>
      </trkpt>
      <trkpt lat="49.12099" lon="-0.33736">
        <ele>53.2</ele>
        <time>2024-05-26T07:43:35Z</time>
      </trkpt>
      <trkpt lat="49.12099" lon="-0.33747">
        <ele>53.4</ele>
        <time>2024-05-26T07:43:36Z</time>
      </trkpt>
      <trkpt lat="49.12099" lon="-0.33757">
        <ele>53.4</ele>
        <time>2024-05-26T07:43:37Z</time>
      </trkpt>
      <trkpt lat="49.12099" lon="-0.33768">
        <ele>53.4</ele>
        <time>2024-05-26T07:43:38Z</time>
      </trkpt>
      <trkpt lat="49.121" lon="-0.33779">
        <ele>53.4</ele>
        <time>2024-05-26T07:43:39Z</time>
      </trkpt>
      <trkpt lat="49.121" lon="-0.33789">
        <ele>53.6</ele>
        <time>2024-05-26T07:43:40Z</time>
      </trkpt>
      <trkpt lat="49.121" lon="-0.338">
        <ele>54</ele>
        <time>2024-05-26T07:43:41Z</time>
      </trkpt>
      <trkpt lat="49.12101" lon="-0.3381">
        <ele>54</ele>
        <time>2024-05-26T07:43:42Z</time>
      </trkpt>
      <trkpt lat="49.12101" lon="-0.33821">
        <ele>54</ele>
        <time>2024-05-26T07:43:43Z</time>
      </trkpt>
      <trkpt lat="49.12102" lon="-0.33832">
        <ele>54.2</ele>
        <time>2024-05-26T07:43:44Z</time>
      </trkpt>
      <trkpt lat="49.12102" lon="-0.33843">
        <ele>54.6</ele>
        <time>2024-05-26T07:43:45Z</time>
      </trkpt>
      <trkpt lat="49.12102" lon="-0.33853">
        <ele>54.6</ele>
        <time>2024-05-26T07:43:46Z</time>
      </trkpt>
      <trkpt lat="49.12102" lon="-0.33863">
        <ele>54.6</ele>
        <time>2024-05-26T07:43:47Z</time>
      </trkpt>
      <trkpt lat="49.12103" lon="-0.33874">
        <ele>54.6</ele>
        <time>2024-05-26T07:43:48Z</time>
      </trkpt>
      <trkpt lat="49.12103" lon="-0.33883">
        <ele>54.8</ele>
        <time>2024-05-26T07:43:49Z</time>
      </trkpt>
      <trkpt lat="49.12103" lon="-0.33894">
        <ele>54.8</ele>
        <time>2024-05-26T07:43:50Z</time>
      </trkpt>
      <trkpt lat="49.12104" lon="-0.33904">
        <ele>55.2</ele>
        <time>2024-05-26T07:43:51Z</time>
      </trkpt>
      <trkpt lat="49.12104" lon="-0.33914">
        <ele>55.2</ele>
        <time>2024-05-26T07:43:52Z</time>
      </trkpt>
      <trkpt lat="49.12104" lon="-0.33924">
        <ele>55.2</ele>
        <time>2024-05-26T07:43:53Z</time>
      </trkpt>
      <trkpt lat="49.12105" lon="-0.33934">
        <ele>55.2</ele>
        <time>2024-05-26T07:43:54Z</time>
      </trkpt>
      <trkpt lat="49.12105" lon="-0.33944">
        <ele>55.4</ele>
        <time>2024-05-26T07:43:55Z</time>
      </trkpt>
      <trkpt lat="49.12105" lon="-0.33954">
        <ele>55.4</ele>
        <time>2024-05-26T07:43:56Z</time>
      </trkpt>
      <trkpt lat="49.12105" lon="-0.33964">
        <ele>55.6</ele>
        <time>2024-05-26T07:43:57Z</time>
      </trkpt>
      <trkpt lat="49.12105" lon="-0.33974">
        <ele>55.6</ele>
        <time>2024-05-26T07:43:58Z</time>
      </trkpt>
      <trkpt lat="49.12105" lon="-0.33983">
        <ele>55.8</ele>
        <time>2024-05-26T07:43:59Z</time>
      </trkpt>
      <trkpt lat="49.12105" lon="-0.33993">
        <ele>56</ele>
        <time>2024-05-26T07:44:00Z</time>
      </trkpt>
      <trkpt lat="49.12105" lon="-0.34003">
        <ele>56.4</ele>
        <time>2024-05-26T07:44:01Z</time>
      </trkpt>
      <trkpt lat="49.12105" lon="-0.34012">
        <ele>56.6</ele>
        <time>2024-05-26T07:44:02Z</time>
      </trkpt>
      <trkpt lat="49.12105" lon="-0.34022">
        <ele>56.8</ele>
        <time>2024-05-26T07:44:03Z</time>
      </trkpt>
      <trkpt lat="49.12105" lon="-0.34032">
        <ele>57.2</ele>
        <time>2024-05-26T07:44:04Z</time>
      </trkpt>
      <trkpt lat="49.12105" lon="-0.34042">
        <ele>57.2</ele>
        <time>2024-05-26T07:44:05Z</time>
      </trkpt>
      <trkpt lat="49.12104" lon="-0.34052">
        <ele>57.4</ele>
        <time>2024-05-26T07:44:06Z</time>
      </trkpt>
      <trkpt lat="49.12104" lon="-0.34062">
        <ele>57.4</ele>
        <time>2024-05-26T07:44:07Z</time>
      </trkpt>
      <trkpt lat="49.12104" lon="-0.34072">
        <ele>57.8</ele>
        <time>2024-05-26T07:44:08Z</time>
      </trkpt>
      <trkpt lat="49.12104" lon="-0.34082">
        <ele>57.8</ele>
        <time>2024-05-26T07:44:09Z</time>
      </trkpt>
      <trkpt lat="49.12103" lon="-0.34092">
        <ele>57.8</ele>
        <time>2024-05-26T07:44:10Z</time>
      </trkpt>
      <trkpt lat="49.12103" lon="-0.34102">
        <ele>58</ele>
        <time>2024-05-26T07:44:11Z</time>
      </trkpt>
      <trkpt lat="49.12103" lon="-0.34112">
        <ele>58</ele>
        <time>2024-05-26T07:44:12Z</time>
      </trkpt>
      <trkpt lat="49.12103" lon="-0.34123">
        <ele>58</ele>
        <time>2024-05-26T07:44:13Z</time>
      </trkpt>
      <trkpt lat="49.12102" lon="-0.34133">
        <ele>58</ele>
        <time>2024-05-26T07:44:14Z</time>
      </trkpt>
      <trkpt lat="49.12102" lon="-0.34143">
        <ele>58</ele>
        <time>2024-05-26T07:44:15Z</time>
      </trkpt>
      <trkpt lat="49.12102" lon="-0.34153">
        <ele>58</ele>
        <time>2024-05-26T07:44:16Z</time>
      </trkpt>
      <trkpt lat="49.12101" lon="-0.34163">
        <ele>58.4</ele>
        <time>2024-05-26T07:44:17Z</time>
      </trkpt>
      <trkpt lat="49.12101" lon="-0.34173">
        <ele>58.4</ele>
        <time>2024-05-26T07:44:18Z</time>
      </trkpt>
      <trkpt lat="49.12101" lon="-0.34182">
        <ele>58.6</ele>
        <time>2024-05-26T07:44:19Z</time>
      </trkpt>
      <trkpt lat="49.12101" lon="-0.34192">
        <ele>58.6</ele>
        <time>2024-05-26T07:44:20Z</time>
      </trkpt>
      <trkpt lat="49.121" lon="-0.34201">
        <ele>58.6</ele>
        <time>2024-05-26T07:44:21Z</time>
      </trkpt>
      <trkpt lat="49.121" lon="-0.34211">
        <ele>58.6</ele>
        <time>2024-05-26T07:44:22Z</time>
      </trkpt>
      <trkpt lat="49.121" lon="-0.3422">
        <ele>58.6</ele>
        <time>2024-05-26T07:44:23Z</time>
      </trkpt>
      <trkpt lat="49.121" lon="-0.3423">
        <ele>58.6</ele>
        <time>2024-05-26T07:44:24Z</time>
      </trkpt>
      <trkpt lat="49.12099" lon="-0.34239">
        <ele>58.6</ele>
        <time>2024-05-26T07:44:25Z</time>
      </trkpt>
      <trkpt lat="49.12099" lon="-0.34249">
        <ele>59</ele>
        <time>2024-05-26T07:44:26Z</time>
      </trkpt>
      <trkpt lat="49.12099" lon="-0.34259">
        <ele>59</ele>
        <time>2024-05-26T07:44:27Z</time>
      </trkpt>
      <trkpt lat="49.12098" lon="-0.34268">
        <ele>59.2</ele>
        <time>2024-05-26T07:44:28Z</time>
      </trkpt>
      <trkpt lat="49.12098" lon="-0.34278">
        <ele>59.2</ele>
        <time>2024-05-26T07:44:29Z</time>
      </trkpt>
      <trkpt lat="49.12098" lon="-0.34288">
        <ele>59.2</ele>
        <time>2024-05-26T07:44:30Z</time>
      </trkpt>
      <trkpt lat="49.12098" lon="-0.34298">
        <ele>59.2</ele>
        <time>2024-05-26T07:44:31Z</time>
      </trkpt>
      <trkpt lat="49.12097" lon="-0.34308">
        <ele>59.4</ele>
        <time>2024-05-26T07:44:32Z</time>
      </trkpt>
      <trkpt lat="49.12097" lon="-0.34318">
        <ele>59.4</ele>
        <time>2024-05-26T07:44:33Z</time>
      </trkpt>
      <trkpt lat="49.12097" lon="-0.34328">
        <ele>59.8</ele>
        <time>2024-05-26T07:44:34Z</time>
      </trkpt>
      <trkpt lat="49.12096" lon="-0.34338">
        <ele>59.8</ele>
        <time>2024-05-26T07:44:35Z</time>
      </trkpt>
      <trkpt lat="49.12096" lon="-0.34348">
        <ele>59.8</ele>
        <time>2024-05-26T07:44:36Z</time>
      </trkpt>
      <trkpt lat="49.12096" lon="-0.34357">
        <ele>60</ele>
        <time>2024-05-26T07:44:37Z</time>
      </trkpt>
      <trkpt lat="49.12096" lon="-0.34367">
        <ele>60.2</ele>
        <time>2024-05-26T07:44:38Z</time>
      </trkpt>
      <trkpt lat="49.12095" lon="-0.34377">
        <ele>60.4</ele>
        <time>2024-05-26T07:44:39Z</time>
      </trkpt>
      <trkpt lat="49.12095" lon="-0.34387">
        <ele>60.4</ele>
        <time>2024-05-26T07:44:40Z</time>
      </trkpt>
      <trkpt lat="49.12095" lon="-0.34397">
        <ele>60.4</ele>
        <time>2024-05-26T07:44:41Z</time>
      </trkpt>
      <trkpt lat="49.12094" lon="-0.34408">
        <ele>60.6</ele>
        <time>2024-05-26T07:44:42Z</time>
      </trkpt>
      <trkpt lat="49.12094" lon="-0.34418">
        <ele>60.6</ele>
        <time>2024-05-26T07:44:43Z</time>
      </trkpt>
      <trkpt lat="49.12094" lon="-0.34428">
        <ele>60.6</ele>
        <time>2024-05-26T07:44:44Z</time>
      </trkpt>
      <trkpt lat="49.12094" lon="-0.34438">
        <ele>60.6</ele>
        <time>2024-05-26T07:44:45Z</time>
      </trkpt>
      <trkpt lat="49.12094" lon="-0.34448">
        <ele>60.6</ele>
        <time>2024-05-26T07:44:46Z</time>
      </trkpt>
      <trkpt lat="49.12093" lon="-0.34458">
        <ele>60.6</ele>
        <time>2024-05-26T07:44:47Z</time>
      </trkpt>
      <trkpt lat="49.12093" lon="-0.34469">
        <ele>60.6</ele>
        <time>2024-05-26T07:44:48Z</time>
      </trkpt>
      <trkpt lat="49.12093" lon="-0.34479">
        <ele>60.6</ele>
        <time>2024-05-26T07:44:49Z</time>
      </trkpt>
      <trkpt lat="49.12092" lon="-0.34489">
        <ele>60.6</ele>
        <time>2024-05-26T07:44:50Z</time>
      </trkpt>
      <trkpt lat="49.12092" lon="-0.34499">
        <ele>60.6</ele>
        <time>2024-05-26T07:44:51Z</time>
      </trkpt>
      <trkpt lat="49.12092" lon="-0.34509">
        <ele>60.6</ele>
        <time>2024-05-26T07:44:52Z</time>
      </trkpt>
      <trkpt lat="49.12092" lon="-0.34519">
        <ele>60.6</ele>
        <time>2024-05-26T07:44:53Z</time>
      </trkpt>
      <trkpt lat="49.12092" lon="-0.34529">
        <ele>60.6</ele>
        <time>2024-05-26T07:44:54Z</time>
      </trkpt>
      <trkpt lat="49.12092" lon="-0.34539">
        <ele>60.6</ele>
        <time>2024-05-26T07:44:55Z</time>
      </trkpt>
      <trkpt lat="49.12092" lon="-0.3455">
        <ele>60.6</ele>
        <time>2024-05-26T07:44:56Z</time>
      </trkpt>
      <trkpt lat="49.12092" lon="-0.34561">
        <ele>60.6</ele>
        <time>2024-05-26T07:44:57Z</time>
      </trkpt>
      <trkpt lat="49.12093" lon="-0.34571">
        <ele>60.6</ele>
        <time>2024-05-26T07:44:58Z</time>
      </trkpt>
      <trkpt lat="49.12093" lon="-0.34581">
        <ele>60.6</ele>
        <time>2024-05-26T07:44:59Z</time>
      </trkpt>
      <trkpt lat="49.12093" lon="-0.34592">
        <ele>60.6</ele>
        <time>2024-05-26T07:45:00Z</time>
      </trkpt>
      <trkpt lat="49.12093" lon="-0.34602">
        <ele>60.6</ele>
        <time>2024-05-26T07:45:01Z</time>
      </trkpt>
      <trkpt lat="49.12093" lon="-0.34613">
        <ele>60.6</ele>
        <time>2024-05-26T07:45:02Z</time>
      </trkpt>
      <trkpt lat="49.12093" lon="-0.34625">
        <ele>60.6</ele>
        <time>2024-05-26T07:45:03Z</time>
      </trkpt>
      <trkpt lat="49.12093" lon="-0.34638">
        <ele>60.6</ele>
        <time>2024-05-26T07:45:04Z</time>
      </trkpt>
      <trkpt lat="49.12093" lon="-0.34647">
        <ele>60.4</ele>
        <time>2024-05-26T07:45:05Z</time>
      </trkpt>
      <trkpt lat="49.12093" lon="-0.3466">
        <ele>60.4</ele>
        <time>2024-05-26T07:45:06Z</time>
      </trkpt>
      <trkpt lat="49.12093" lon="-0.34672">
        <ele>60.4</ele>
        <time>2024-05-26T07:45:07Z</time>
      </trkpt>
      <trkpt lat="49.12093" lon="-0.3468">
        <ele>60.4</ele>
        <time>2024-05-26T07:45:08Z</time>
      </trkpt>
      <trkpt lat="49.12094" lon="-0.34692">
        <ele>60.4</ele>
        <time>2024-05-26T07:45:09Z</time>
      </trkpt>
      <trkpt lat="49.12094" lon="-0.34703">
        <ele>60.6</ele>
        <time>2024-05-26T07:45:10Z</time>
      </trkpt>
      <trkpt lat="49.12094" lon="-0.34714">
        <ele>60.6</ele>
        <time>2024-05-26T07:45:11Z</time>
      </trkpt>
      <trkpt lat="49.12094" lon="-0.34725">
        <ele>60.6</ele>
        <time>2024-05-26T07:45:12Z</time>
      </trkpt>
      <trkpt lat="49.12094" lon="-0.34736">
        <ele>60.6</ele>
        <time>2024-05-26T07:45:13Z</time>
      </trkpt>
      <trkpt lat="49.12094" lon="-0.34747">
        <ele>60.6</ele>
        <time>2024-05-26T07:45:14Z</time>
      </trkpt>
      <trkpt lat="49.12094" lon="-0.34759">
        <ele>60.6</ele>
        <time>2024-05-26T07:45:15Z</time>
      </trkpt>
      <trkpt lat="49.12095" lon="-0.3477">
        <ele>60.6</ele>
        <time>2024-05-26T07:45:16Z</time>
      </trkpt>
      <trkpt lat="49.12095" lon="-0.34781">
        <ele>60.6</ele>
        <time>2024-05-26T07:45:17Z</time>
      </trkpt>
      <trkpt lat="49.12095" lon="-0.34793">
        <ele>60.6</ele>
        <time>2024-05-26T07:45:18Z</time>
      </trkpt>
      <trkpt lat="49.12095" lon="-0.34804">
        <ele>60.6</ele>
        <time>2024-05-26T07:45:19Z</time>
      </trkpt>
      <trkpt lat="49.12096" lon="-0.34815">
        <ele>60.6</ele>
        <time>2024-05-26T07:45:20Z</time>
      </trkpt>
      <trkpt lat="49.12096" lon="-0.34826">
        <ele>60.6</ele>
        <time>2024-05-26T07:45:21Z</time>
      </trkpt>
      <trkpt lat="49.12096" lon="-0.34837">
        <ele>60.6</ele>
        <time>2024-05-26T07:45:22Z</time>
      </trkpt>
      <trkpt lat="49.12096" lon="-0.34848">
        <ele>60.6</ele>
        <time>2024-05-26T07:45:23Z</time>
      </trkpt>
      <trkpt lat="49.12096" lon="-0.34859">
        <ele>60.6</ele>
        <time>2024-05-26T07:45:24Z</time>
      </trkpt>
      <trkpt lat="49.12096" lon="-0.34869">
        <ele>60.6</ele>
        <time>2024-05-26T07:45:25Z</time>
      </trkpt>
      <trkpt lat="49.12096" lon="-0.3488">
        <ele>60.6</ele>
        <time>2024-05-26T07:45:26Z</time>
      </trkpt>
      <trkpt lat="49.12096" lon="-0.34891">
        <ele>60.6</ele>
        <time>2024-05-26T07:45:27Z</time>
      </trkpt>
      <trkpt lat="49.12097" lon="-0.34902">
        <ele>60.6</ele>
        <time>2024-05-26T07:45:28Z</time>
      </trkpt>
      <trkpt lat="49.12096" lon="-0.34914">
        <ele>60.6</ele>
        <time>2024-05-26T07:45:29Z</time>
      </trkpt>
      <trkpt lat="49.12096" lon="-0.34925">
        <ele>60.6</ele>
        <time>2024-05-26T07:45:30Z</time>
      </trkpt>
      <trkpt lat="49.12097" lon="-0.34936">
        <ele>60.6</ele>
        <time>2024-05-26T07:45:31Z</time>
      </trkpt>
      <trkpt lat="49.12097" lon="-0.34947">
        <ele>60.6</ele>
        <time>2024-05-26T07:45:32Z</time>
      </trkpt>
      <trkpt lat="49.12097" lon="-0.34958">
        <ele>60.8</ele>
        <time>2024-05-26T07:45:33Z</time>
      </trkpt>
      <trkpt lat="49.12097" lon="-0.34969">
        <ele>60.8</ele>
        <time>2024-05-26T07:45:34Z</time>
      </trkpt>
      <trkpt lat="49.12098" lon="-0.3498">
        <ele>60.8</ele>
        <time>2024-05-26T07:45:35Z</time>
      </trkpt>
      <trkpt lat="49.12098" lon="-0.34991">
        <ele>60.8</ele>
        <time>2024-05-26T07:45:36Z</time>
      </trkpt>
      <trkpt lat="49.12098" lon="-0.35002">
        <ele>60.8</ele>
        <time>2024-05-26T07:45:37Z</time>
      </trkpt>
      <trkpt lat="49.12098" lon="-0.35013">
        <ele>60.8</ele>
        <time>2024-05-26T07:45:38Z</time>
      </trkpt>
      <trkpt lat="49.12098" lon="-0.35024">
        <ele>60.8</ele>
        <time>2024-05-26T07:45:39Z</time>
      </trkpt>
      <trkpt lat="49.12098" lon="-0.35035">
        <ele>61</ele>
        <time>2024-05-26T07:45:40Z</time>
      </trkpt>
      <trkpt lat="49.12098" lon="-0.35046">
        <ele>61</ele>
        <time>2024-05-26T07:45:41Z</time>
      </trkpt>
      <trkpt lat="49.12098" lon="-0.35056">
        <ele>61</ele>
        <time>2024-05-26T07:45:42Z</time>
      </trkpt>
      <trkpt lat="49.12098" lon="-0.35068">
        <ele>61</ele>
        <time>2024-05-26T07:45:43Z</time>
      </trkpt>
      <trkpt lat="49.12098" lon="-0.35079">
        <ele>61</ele>
        <time>2024-05-26T07:45:44Z</time>
      </trkpt>
      <trkpt lat="49.12098" lon="-0.3509">
        <ele>61</ele>
        <time>2024-05-26T07:45:45Z</time>
      </trkpt>
      <trkpt lat="49.12098" lon="-0.35101">
        <ele>61</ele>
        <time>2024-05-26T07:45:46Z</time>
      </trkpt>
      <trkpt lat="49.12098" lon="-0.35112">
        <ele>61</ele>
        <time>2024-05-26T07:45:47Z</time>
      </trkpt>
      <trkpt lat="49.12098" lon="-0.35123">
        <ele>61</ele>
        <time>2024-05-26T07:45:48Z</time>
      </trkpt>
      <trkpt lat="49.12098" lon="-0.35134">
        <ele>61</ele>
        <time>2024-05-26T07:45:49Z</time>
      </trkpt>
      <trkpt lat="49.12098" lon="-0.35145">
        <ele>61</ele>
        <time>2024-05-26T07:45:50Z</time>
      </trkpt>
      <trkpt lat="49.12097" lon="-0.35156">
        <ele>61</ele>
        <time>2024-05-26T07:45:51Z</time>
      </trkpt>
      <trkpt lat="49.12097" lon="-0.35168">
        <ele>61</ele>
        <time>2024-05-26T07:45:52Z</time>
      </trkpt>
      <trkpt lat="49.12097" lon="-0.3518">
        <ele>61</ele>
        <time>2024-05-26T07:45:53Z</time>
      </trkpt>
      <trkpt lat="49.12096" lon="-0.35191">
        <ele>61</ele>
        <time>2024-05-26T07:45:54Z</time>
      </trkpt>
      <trkpt lat="49.12095" lon="-0.35202">
        <ele>61</ele>
        <time>2024-05-26T07:45:55Z</time>
      </trkpt>
      <trkpt lat="49.12095" lon="-0.35213">
        <ele>60.8</ele>
        <time>2024-05-26T07:45:56Z</time>
      </trkpt>
      <trkpt lat="49.12094" lon="-0.35224">
        <ele>60.8</ele>
        <time>2024-05-26T07:45:57Z</time>
      </trkpt>
      <trkpt lat="49.12093" lon="-0.35236">
        <ele>60.8</ele>
        <time>2024-05-26T07:45:58Z</time>
      </trkpt>
      <trkpt lat="49.12091" lon="-0.35247">
        <ele>60.8</ele>
        <time>2024-05-26T07:45:59Z</time>
      </trkpt>
      <trkpt lat="49.1209" lon="-0.35258">
        <ele>60.8</ele>
        <time>2024-05-26T07:46:00Z</time>
      </trkpt>
      <trkpt lat="49.12089" lon="-0.35269">
        <ele>60.8</ele>
        <time>2024-05-26T07:46:01Z</time>
      </trkpt>
      <trkpt lat="49.12088" lon="-0.35279">
        <ele>60.8</ele>
        <time>2024-05-26T07:46:02Z</time>
      </trkpt>
      <trkpt lat="49.12087" lon="-0.3529">
        <ele>60.8</ele>
        <time>2024-05-26T07:46:03Z</time>
      </trkpt>
      <trkpt lat="49.12086" lon="-0.35301">
        <ele>60.8</ele>
        <time>2024-05-26T07:46:04Z</time>
      </trkpt>
      <trkpt lat="49.12085" lon="-0.35312">
        <ele>60.8</ele>
        <time>2024-05-26T07:46:05Z</time>
      </trkpt>
      <trkpt lat="49.12084" lon="-0.35323">
        <ele>60.8</ele>
        <time>2024-05-26T07:46:06Z</time>
      </trkpt>
      <trkpt lat="49.12082" lon="-0.35334">
        <ele>60.6</ele>
        <time>2024-05-26T07:46:07Z</time>
      </trkpt>
      <trkpt lat="49.12081" lon="-0.35346">
        <ele>60.6</ele>
        <time>2024-05-26T07:46:08Z</time>
      </trkpt>
      <trkpt lat="49.1208" lon="-0.35357">
        <ele>60.6</ele>
        <time>2024-05-26T07:46:09Z</time>
      </trkpt>
      <trkpt lat="49.12079" lon="-0.35368">
        <ele>60.2</ele>
        <time>2024-05-26T07:46:10Z</time>
      </trkpt>
      <trkpt lat="49.12078" lon="-0.35379">
        <ele>60</ele>
        <time>2024-05-26T07:46:11Z</time>
      </trkpt>
      <trkpt lat="49.12077" lon="-0.35389">
        <ele>59.8</ele>
        <time>2024-05-26T07:46:12Z</time>
      </trkpt>
      <trkpt lat="49.12076" lon="-0.35399">
        <ele>59.6</ele>
        <time>2024-05-26T07:46:13Z</time>
      </trkpt>
      <trkpt lat="49.12076" lon="-0.35409">
        <ele>59.6</ele>
        <time>2024-05-26T07:46:14Z</time>
      </trkpt>
      <trkpt lat="49.12077" lon="-0.35418">
        <ele>59.2</ele>
        <time>2024-05-26T07:46:15Z</time>
      </trkpt>
      <trkpt lat="49.12077" lon="-0.35427">
        <ele>59</ele>
        <time>2024-05-26T07:46:16Z</time>
      </trkpt>
      <trkpt lat="49.12077" lon="-0.35436">
        <ele>58.8</ele>
        <time>2024-05-26T07:46:17Z</time>
      </trkpt>
      <trkpt lat="49.12076" lon="-0.35444">
        <ele>58.6</ele>
        <time>2024-05-26T07:46:18Z</time>
      </trkpt>
      <trkpt lat="49.12073" lon="-0.3545">
        <ele>58.6</ele>
        <time>2024-05-26T07:46:19Z</time>
      </trkpt>
      <trkpt lat="49.12068" lon="-0.35452">
        <ele>58.6</ele>
        <time>2024-05-26T07:46:20Z</time>
      </trkpt>
      <trkpt lat="49.12062" lon="-0.35452">
        <ele>58.6</ele>
        <time>2024-05-26T07:46:21Z</time>
      </trkpt>
      <trkpt lat="49.12057" lon="-0.35449">
        <ele>58.6</ele>
        <time>2024-05-26T07:46:22Z</time>
      </trkpt>
      <trkpt lat="49.12051" lon="-0.35445">
        <ele>58.6</ele>
        <time>2024-05-26T07:46:23Z</time>
      </trkpt>
      <trkpt lat="49.12045" lon="-0.35442">
        <ele>58.6</ele>
        <time>2024-05-26T07:46:24Z</time>
      </trkpt>
      <trkpt lat="49.12038" lon="-0.3544">
        <ele>58.6</ele>
        <time>2024-05-26T07:46:25Z</time>
      </trkpt>
      <trkpt lat="49.12031" lon="-0.35438">
        <ele>58.6</ele>
        <time>2024-05-26T07:46:26Z</time>
      </trkpt>
      <trkpt lat="49.12024" lon="-0.35437">
        <ele>58.6</ele>
        <time>2024-05-26T07:46:27Z</time>
      </trkpt>
      <trkpt lat="49.12017" lon="-0.35436">
        <ele>58.8</ele>
        <time>2024-05-26T07:46:28Z</time>
      </trkpt>
      <trkpt lat="49.12011" lon="-0.35435">
        <ele>58.8</ele>
        <time>2024-05-26T07:46:29Z</time>
      </trkpt>
      <trkpt lat="49.12004" lon="-0.35434">
        <ele>59</ele>
        <time>2024-05-26T07:46:30Z</time>
      </trkpt>
      <trkpt lat="49.11997" lon="-0.35433">
        <ele>59</ele>
        <time>2024-05-26T07:46:31Z</time>
      </trkpt>
      <trkpt lat="49.1199" lon="-0.35431">
        <ele>59</ele>
        <time>2024-05-26T07:46:32Z</time>
      </trkpt>
      <trkpt lat="49.11983" lon="-0.3543">
        <ele>59</ele>
        <time>2024-05-26T07:46:33Z</time>
      </trkpt>
      <trkpt lat="49.11976" lon="-0.35429">
        <ele>58.8</ele>
        <time>2024-05-26T07:46:34Z</time>
      </trkpt>
      <trkpt lat="49.11968" lon="-0.35428">
        <ele>59</ele>
        <time>2024-05-26T07:46:35Z</time>
      </trkpt>
      <trkpt lat="49.11961" lon="-0.35427">
        <ele>59</ele>
        <time>2024-05-26T07:46:36Z</time>
      </trkpt>
      <trkpt lat="49.11953" lon="-0.35425">
        <ele>59</ele>
        <time>2024-05-26T07:46:37Z</time>
      </trkpt>
      <trkpt lat="49.11946" lon="-0.35424">
        <ele>59</ele>
        <time>2024-05-26T07:46:38Z</time>
      </trkpt>
      <trkpt lat="49.11938" lon="-0.35422">
        <ele>59</ele>
        <time>2024-05-26T07:46:39Z</time>
      </trkpt>
      <trkpt lat="49.11931" lon="-0.35421">
        <ele>59</ele>
        <time>2024-05-26T07:46:40Z</time>
      </trkpt>
      <trkpt lat="49.11924" lon="-0.3542">
        <ele>59</ele>
        <time>2024-05-26T07:46:41Z</time>
      </trkpt>
      <trkpt lat="49.11916" lon="-0.35419">
        <ele>59</ele>
        <time>2024-05-26T07:46:42Z</time>
      </trkpt>
      <trkpt lat="49.11909" lon="-0.35418">
        <ele>59</ele>
        <time>2024-05-26T07:46:43Z</time>
      </trkpt>
      <trkpt lat="49.11902" lon="-0.35417">
        <ele>59</ele>
        <time>2024-05-26T07:46:44Z</time>
      </trkpt>
      <trkpt lat="49.11895" lon="-0.35416">
        <ele>59</ele>
        <time>2024-05-26T07:46:45Z</time>
      </trkpt>
      <trkpt lat="49.11888" lon="-0.35415">
        <ele>58.8</ele>
        <time>2024-05-26T07:46:46Z</time>
      </trkpt>
      <trkpt lat="49.11881" lon="-0.35414">
        <ele>59</ele>
        <time>2024-05-26T07:46:47Z</time>
      </trkpt>
      <trkpt lat="49.11874" lon="-0.35413">
        <ele>59</ele>
        <time>2024-05-26T07:46:48Z</time>
      </trkpt>
      <trkpt lat="49.11868" lon="-0.35412">
        <ele>58.8</ele>
        <time>2024-05-26T07:46:49Z</time>
      </trkpt>
      <trkpt lat="49.11861" lon="-0.35411">
        <ele>58.8</ele>
        <time>2024-05-26T07:46:50Z</time>
      </trkpt>
      <trkpt lat="49.11854" lon="-0.35409">
        <ele>59</ele>
        <time>2024-05-26T07:46:51Z</time>
      </trkpt>
      <trkpt lat="49.11847" lon="-0.35408">
        <ele>59</ele>
        <time>2024-05-26T07:46:52Z</time>
      </trkpt>
      <trkpt lat="49.11841" lon="-0.35407">
        <ele>59</ele>
        <time>2024-05-26T07:46:53Z</time>
      </trkpt>
      <trkpt lat="49.11834" lon="-0.35406">
        <ele>59</ele>
        <time>2024-05-26T07:46:54Z</time>
      </trkpt>
      <trkpt lat="49.11827" lon="-0.35405">
        <ele>59</ele>
        <time>2024-05-26T07:46:55Z</time>
      </trkpt>
      <trkpt lat="49.1182" lon="-0.35403">
        <ele>59.2</ele>
        <time>2024-05-26T07:46:56Z</time>
      </trkpt>
      <trkpt lat="49.11813" lon="-0.35402">
        <ele>59.2</ele>
        <time>2024-05-26T07:46:57Z</time>
      </trkpt>
      <trkpt lat="49.11805" lon="-0.35401">
        <ele>59.4</ele>
        <time>2024-05-26T07:46:58Z</time>
      </trkpt>
      <trkpt lat="49.11798" lon="-0.35399">
        <ele>59.4</ele>
        <time>2024-05-26T07:46:59Z</time>
      </trkpt>
      <trkpt lat="49.1179" lon="-0.35398">
        <ele>59.4</ele>
        <time>2024-05-26T07:47:00Z</time>
      </trkpt>
      <trkpt lat="49.11783" lon="-0.35397">
        <ele>59.8</ele>
        <time>2024-05-26T07:47:01Z</time>
      </trkpt>
      <trkpt lat="49.11775" lon="-0.35395">
        <ele>59.8</ele>
        <time>2024-05-26T07:47:02Z</time>
      </trkpt>
      <trkpt lat="49.11768" lon="-0.35394">
        <ele>59.8</ele>
        <time>2024-05-26T07:47:03Z</time>
      </trkpt>
      <trkpt lat="49.1176" lon="-0.35393">
        <ele>60</ele>
        <time>2024-05-26T07:47:04Z</time>
      </trkpt>
      <trkpt lat="49.11752" lon="-0.35392">
        <ele>60</ele>
        <time>2024-05-26T07:47:05Z</time>
      </trkpt>
      <trkpt lat="49.11745" lon="-0.3539">
        <ele>60.2</ele>
        <time>2024-05-26T07:47:06Z</time>
      </trkpt>
      <trkpt lat="49.11737" lon="-0.35389">
        <ele>60.2</ele>
        <time>2024-05-26T07:47:07Z</time>
      </trkpt>
      <trkpt lat="49.1173" lon="-0.35387">
        <ele>60.4</ele>
        <time>2024-05-26T07:47:08Z</time>
      </trkpt>
      <trkpt lat="49.11722" lon="-0.35386">
        <ele>60.4</ele>
        <time>2024-05-26T07:47:09Z</time>
      </trkpt>
      <trkpt lat="49.11714" lon="-0.35384">
        <ele>60.6</ele>
        <time>2024-05-26T07:47:10Z</time>
      </trkpt>
      <trkpt lat="49.11707" lon="-0.35383">
        <ele>60.6</ele>
        <time>2024-05-26T07:47:11Z</time>
      </trkpt>
      <trkpt lat="49.11699" lon="-0.35382">
        <ele>60.8</ele>
        <time>2024-05-26T07:47:12Z</time>
      </trkpt>
      <trkpt lat="49.11692" lon="-0.3538">
        <ele>61</ele>
        <time>2024-05-26T07:47:13Z</time>
      </trkpt>
      <trkpt lat="49.11684" lon="-0.35379">
        <ele>61</ele>
        <time>2024-05-26T07:47:14Z</time>
      </trkpt>
      <trkpt lat="49.11677" lon="-0.35377">
        <ele>61</ele>
        <time>2024-05-26T07:47:15Z</time>
      </trkpt>
      <trkpt lat="49.1167" lon="-0.35375">
        <ele>61.2</ele>
        <time>2024-05-26T07:47:16Z</time>
      </trkpt>
      <trkpt lat="49.11663" lon="-0.35373">
        <ele>61.2</ele>
        <time>2024-05-26T07:47:17Z</time>
      </trkpt>
      <trkpt lat="49.11656" lon="-0.35371">
        <ele>61.2</ele>
        <time>2024-05-26T07:47:18Z</time>
      </trkpt>
      <trkpt lat="49.11648" lon="-0.35369">
        <ele>61.2</ele>
        <time>2024-05-26T07:47:19Z</time>
      </trkpt>
      <trkpt lat="49.11641" lon="-0.35367">
        <ele>61.2</ele>
        <time>2024-05-26T07:47:20Z</time>
      </trkpt>
      <trkpt lat="49.11633" lon="-0.35365">
        <ele>61.4</ele>
        <time>2024-05-26T07:47:21Z</time>
      </trkpt>
      <trkpt lat="49.11626" lon="-0.35363">
        <ele>61.4</ele>
        <time>2024-05-26T07:47:22Z</time>
      </trkpt>
      <trkpt lat="49.11618" lon="-0.35361">
        <ele>61.4</ele>
        <time>2024-05-26T07:47:23Z</time>
      </trkpt>
      <trkpt lat="49.1161" lon="-0.35358">
        <ele>61.6</ele>
        <time>2024-05-26T07:47:24Z</time>
      </trkpt>
      <trkpt lat="49.11603" lon="-0.35356">
        <ele>61.8</ele>
        <time>2024-05-26T07:47:25Z</time>
      </trkpt>
      <trkpt lat="49.11595" lon="-0.35353">
        <ele>61.8</ele>
        <time>2024-05-26T07:47:26Z</time>
      </trkpt>
      <trkpt lat="49.11587" lon="-0.35351">
        <ele>61.8</ele>
        <time>2024-05-26T07:47:27Z</time>
      </trkpt>
      <trkpt lat="49.11579" lon="-0.35349">
        <ele>61.8</ele>
        <time>2024-05-26T07:47:28Z</time>
      </trkpt>
      <trkpt lat="49.11572" lon="-0.35347">
        <ele>62</ele>
        <time>2024-05-26T07:47:29Z</time>
      </trkpt>
      <trkpt lat="49.11564" lon="-0.35344">
        <ele>62</ele>
        <time>2024-05-26T07:47:30Z</time>
      </trkpt>
      <trkpt lat="49.11556" lon="-0.35342">
        <ele>62</ele>
        <time>2024-05-26T07:47:31Z</time>
      </trkpt>
      <trkpt lat="49.11548" lon="-0.3534">
        <ele>62</ele>
        <time>2024-05-26T07:47:32Z</time>
      </trkpt>
      <trkpt lat="49.11541" lon="-0.35338">
        <ele>62</ele>
        <time>2024-05-26T07:47:33Z</time>
      </trkpt>
      <trkpt lat="49.11533" lon="-0.35336">
        <ele>62</ele>
        <time>2024-05-26T07:47:34Z</time>
      </trkpt>
      <trkpt lat="49.11525" lon="-0.35335">
        <ele>62</ele>
        <time>2024-05-26T07:47:35Z</time>
      </trkpt>
      <trkpt lat="49.11518" lon="-0.35333">
        <ele>62</ele>
        <time>2024-05-26T07:47:36Z</time>
      </trkpt>
      <trkpt lat="49.1151" lon="-0.35332">
        <ele>62</ele>
        <time>2024-05-26T07:47:37Z</time>
      </trkpt>
      <trkpt lat="49.11503" lon="-0.3533">
        <ele>62</ele>
        <time>2024-05-26T07:47:38Z</time>
      </trkpt>
      <trkpt lat="49.11496" lon="-0.35329">
        <ele>62</ele>
        <time>2024-05-26T07:47:39Z</time>
      </trkpt>
      <trkpt lat="49.11488" lon="-0.35327">
        <ele>61.8</ele>
        <time>2024-05-26T07:47:40Z</time>
      </trkpt>
      <trkpt lat="49.11481" lon="-0.35326">
        <ele>61.8</ele>
        <time>2024-05-26T07:47:41Z</time>
      </trkpt>
      <trkpt lat="49.11473" lon="-0.35324">
        <ele>61.8</ele>
        <time>2024-05-26T07:47:42Z</time>
      </trkpt>
      <trkpt lat="49.11466" lon="-0.35323">
        <ele>61.8</ele>
        <time>2024-05-26T07:47:43Z</time>
      </trkpt>
      <trkpt lat="49.11458" lon="-0.35321">
        <ele>61.8</ele>
        <time>2024-05-26T07:47:44Z</time>
      </trkpt>
      <trkpt lat="49.11451" lon="-0.3532">
        <ele>61.8</ele>
        <time>2024-05-26T07:47:45Z</time>
      </trkpt>
      <trkpt lat="49.11444" lon="-0.35318">
        <ele>61.8</ele>
        <time>2024-05-26T07:47:46Z</time>
      </trkpt>
      <trkpt lat="49.11437" lon="-0.35316">
        <ele>61.8</ele>
        <time>2024-05-26T07:47:47Z</time>
      </trkpt>
      <trkpt lat="49.1143" lon="-0.35315">
        <ele>61.8</ele>
        <time>2024-05-26T07:47:48Z</time>
      </trkpt>
      <trkpt lat="49.11423" lon="-0.35315">
        <ele>61.8</ele>
        <time>2024-05-26T07:47:49Z</time>
      </trkpt>
      <trkpt lat="49.11416" lon="-0.35316">
        <ele>61.6</ele>
        <time>2024-05-26T07:47:50Z</time>
      </trkpt>
      <trkpt lat="49.1141" lon="-0.3532">
        <ele>61.6</ele>
        <time>2024-05-26T07:47:51Z</time>
      </trkpt>
      <trkpt lat="49.11405" lon="-0.35326">
        <ele>61.6</ele>
        <time>2024-05-26T07:47:52Z</time>
      </trkpt>
      <trkpt lat="49.11402" lon="-0.35335">
        <ele>61.6</ele>
        <time>2024-05-26T07:47:53Z</time>
      </trkpt>
      <trkpt lat="49.114" lon="-0.35345">
        <ele>61.6</ele>
        <time>2024-05-26T07:47:54Z</time>
      </trkpt>
      <trkpt lat="49.114" lon="-0.35357">
        <ele>61.6</ele>
        <time>2024-05-26T07:47:55Z</time>
      </trkpt>
      <trkpt lat="49.114" lon="-0.35368">
        <ele>61.6</ele>
        <time>2024-05-26T07:47:56Z</time>
      </trkpt>
      <trkpt lat="49.114" lon="-0.3538">
        <ele>61.4</ele>
        <time>2024-05-26T07:47:57Z</time>
      </trkpt>
      <trkpt lat="49.114" lon="-0.35392">
        <ele>61.4</ele>
        <time>2024-05-26T07:47:58Z</time>
      </trkpt>
      <trkpt lat="49.114" lon="-0.35403">
        <ele>61.2</ele>
        <time>2024-05-26T07:47:59Z</time>
      </trkpt>
      <trkpt lat="49.11401" lon="-0.35414">
        <ele>61</ele>
        <time>2024-05-26T07:48:00Z</time>
      </trkpt>
      <trkpt lat="49.11402" lon="-0.35422">
        <ele>61</ele>
        <time>2024-05-26T07:48:01Z</time>
      </trkpt>
      <trkpt lat="49.11405" lon="-0.3543">
        <ele>60.8</ele>
        <time>2024-05-26T07:48:02Z</time>
      </trkpt>
      <trkpt lat="49.11407" lon="-0.35438">
        <ele>60.4</ele>
        <time>2024-05-26T07:48:03Z</time>
      </trkpt>
      <trkpt lat="49.11408" lon="-0.35446">
        <ele>60.4</ele>
        <time>2024-05-26T07:48:04Z</time>
      </trkpt>
      <trkpt lat="49.11407" lon="-0.35454">
        <ele>60.4</ele>
        <time>2024-05-26T07:48:05Z</time>
      </trkpt>
      <trkpt lat="49.11404" lon="-0.35461">
        <ele>60.2</ele>
        <time>2024-05-26T07:48:06Z</time>
      </trkpt>
      <trkpt lat="49.11399" lon="-0.35465">
        <ele>60</ele>
        <time>2024-05-26T07:48:07Z</time>
      </trkpt>
      <trkpt lat="49.11394" lon="-0.35466">
        <ele>59.8</ele>
        <time>2024-05-26T07:48:08Z</time>
      </trkpt>
      <trkpt lat="49.11389" lon="-0.35463">
        <ele>59.6</ele>
        <time>2024-05-26T07:48:09Z</time>
      </trkpt>
      <trkpt lat="49.11384" lon="-0.35457">
        <ele>59.6</ele>
        <time>2024-05-26T07:48:10Z</time>
      </trkpt>
      <trkpt lat="49.11378" lon="-0.35452">
        <ele>59.6</ele>
        <time>2024-05-26T07:48:11Z</time>
      </trkpt>
      <trkpt lat="49.11372" lon="-0.35448">
        <ele>59.4</ele>
        <time>2024-05-26T07:48:12Z</time>
      </trkpt>
      <trkpt lat="49.11365" lon="-0.35444">
        <ele>59.4</ele>
        <time>2024-05-26T07:48:13Z</time>
      </trkpt>
      <trkpt lat="49.11358" lon="-0.35441">
        <ele>59.4</ele>
        <time>2024-05-26T07:48:14Z</time>
      </trkpt>
      <trkpt lat="49.11351" lon="-0.35438">
        <ele>59.4</ele>
        <time>2024-05-26T07:48:15Z</time>
      </trkpt>
      <trkpt lat="49.11343" lon="-0.35436">
        <ele>59.4</ele>
        <time>2024-05-26T07:48:16Z</time>
      </trkpt>
      <trkpt lat="49.11336" lon="-0.35434">
        <ele>59.4</ele>
        <time>2024-05-26T07:48:17Z</time>
      </trkpt>
      <trkpt lat="49.11328" lon="-0.35432">
        <ele>59.2</ele>
        <time>2024-05-26T07:48:18Z</time>
      </trkpt>
      <trkpt lat="49.11321" lon="-0.3543">
        <ele>59.2</ele>
        <time>2024-05-26T07:48:19Z</time>
      </trkpt>
      <trkpt lat="49.11314" lon="-0.35427">
        <ele>59.2</ele>
        <time>2024-05-26T07:48:20Z</time>
      </trkpt>
      <trkpt lat="49.11307" lon="-0.35425">
        <ele>59.4</ele>
        <time>2024-05-26T07:48:21Z</time>
      </trkpt>
      <trkpt lat="49.113" lon="-0.35423">
        <ele>59.4</ele>
        <time>2024-05-26T07:48:22Z</time>
      </trkpt>
      <trkpt lat="49.11293" lon="-0.35421">
        <ele>59.6</ele>
        <time>2024-05-26T07:48:23Z</time>
      </trkpt>
      <trkpt lat="49.11286" lon="-0.35418">
        <ele>59.6</ele>
        <time>2024-05-26T07:48:24Z</time>
      </trkpt>
      <trkpt lat="49.1128" lon="-0.35415">
        <ele>59.6</ele>
        <time>2024-05-26T07:48:25Z</time>
      </trkpt>
      <trkpt lat="49.11273" lon="-0.35413">
        <ele>59.6</ele>
        <time>2024-05-26T07:48:26Z</time>
      </trkpt>
      <trkpt lat="49.11266" lon="-0.3541">
        <ele>59.6</ele>
        <time>2024-05-26T07:48:27Z</time>
      </trkpt>
      <trkpt lat="49.1126" lon="-0.35408">
        <ele>59.8</ele>
        <time>2024-05-26T07:48:28Z</time>
      </trkpt>
      <trkpt lat="49.11253" lon="-0.35406">
        <ele>59.8</ele>
        <time>2024-05-26T07:48:29Z</time>
      </trkpt>
      <trkpt lat="49.11246" lon="-0.35404">
        <ele>60</ele>
        <time>2024-05-26T07:48:30Z</time>
      </trkpt>
      <trkpt lat="49.11239" lon="-0.35402">
        <ele>60.2</ele>
        <time>2024-05-26T07:48:31Z</time>
      </trkpt>
      <trkpt lat="49.11233" lon="-0.354">
        <ele>60.4</ele>
        <time>2024-05-26T07:48:32Z</time>
      </trkpt>
      <trkpt lat="49.11226" lon="-0.35398">
        <ele>60.8</ele>
        <time>2024-05-26T07:48:33Z</time>
      </trkpt>
      <trkpt lat="49.1122" lon="-0.35396">
        <ele>61.4</ele>
        <time>2024-05-26T07:48:34Z</time>
      </trkpt>
      <trkpt lat="49.11213" lon="-0.35394">
        <ele>61.8</ele>
        <time>2024-05-26T07:48:35Z</time>
      </trkpt>
      <trkpt lat="49.11206" lon="-0.35392">
        <ele>62</ele>
        <time>2024-05-26T07:48:36Z</time>
      </trkpt>
      <trkpt lat="49.11199" lon="-0.3539">
        <ele>62.2</ele>
        <time>2024-05-26T07:48:37Z</time>
      </trkpt>
      <trkpt lat="49.11192" lon="-0.35388">
        <ele>62.4</ele>
        <time>2024-05-26T07:48:38Z</time>
      </trkpt>
      <trkpt lat="49.11185" lon="-0.35386">
        <ele>62.4</ele>
        <time>2024-05-26T07:48:39Z</time>
      </trkpt>
      <trkpt lat="49.11178" lon="-0.35384">
        <ele>62.6</ele>
        <time>2024-05-26T07:48:40Z</time>
      </trkpt>
      <trkpt lat="49.11171" lon="-0.35381">
        <ele>62.8</ele>
        <time>2024-05-26T07:48:41Z</time>
      </trkpt>
      <trkpt lat="49.11163" lon="-0.35379">
        <ele>63</ele>
        <time>2024-05-26T07:48:42Z</time>
      </trkpt>
      <trkpt lat="49.11156" lon="-0.35377">
        <ele>63</ele>
        <time>2024-05-26T07:48:43Z</time>
      </trkpt>
      <trkpt lat="49.11149" lon="-0.35374">
        <ele>63.2</ele>
        <time>2024-05-26T07:48:44Z</time>
      </trkpt>
      <trkpt lat="49.11141" lon="-0.35372">
        <ele>63.2</ele>
        <time>2024-05-26T07:48:45Z</time>
      </trkpt>
      <trkpt lat="49.11133" lon="-0.3537">
        <ele>63.4</ele>
        <time>2024-05-26T07:48:46Z</time>
      </trkpt>
      <trkpt lat="49.11125" lon="-0.35367">
        <ele>63.4</ele>
        <time>2024-05-26T07:48:47Z</time>
      </trkpt>
      <trkpt lat="49.11117" lon="-0.35365">
        <ele>63.4</ele>
        <time>2024-05-26T07:48:48Z</time>
      </trkpt>
      <trkpt lat="49.11109" lon="-0.35363">
        <ele>63.4</ele>
        <time>2024-05-26T07:48:49Z</time>
      </trkpt>
      <trkpt lat="49.11102" lon="-0.35361">
        <ele>63.6</ele>
        <time>2024-05-26T07:48:50Z</time>
      </trkpt>
      <trkpt lat="49.11094" lon="-0.35359">
        <ele>63.6</ele>
        <time>2024-05-26T07:48:51Z</time>
      </trkpt>
      <trkpt lat="49.11087" lon="-0.35356">
        <ele>63.6</ele>
        <time>2024-05-26T07:48:52Z</time>
      </trkpt>
      <trkpt lat="49.1108" lon="-0.35354">
        <ele>63.8</ele>
        <time>2024-05-26T07:48:53Z</time>
      </trkpt>
      <trkpt lat="49.11072" lon="-0.35351">
        <ele>63.8</ele>
        <time>2024-05-26T07:48:54Z</time>
      </trkpt>
      <trkpt lat="49.11064" lon="-0.35349">
        <ele>63.8</ele>
        <time>2024-05-26T07:48:55Z</time>
      </trkpt>
      <trkpt lat="49.11057" lon="-0.35346">
        <ele>63.8</ele>
        <time>2024-05-26T07:48:56Z</time>
      </trkpt>
      <trkpt lat="49.11049" lon="-0.35344">
        <ele>64</ele>
        <time>2024-05-26T07:48:57Z</time>
      </trkpt>
      <trkpt lat="49.11041" lon="-0.35342">
        <ele>64</ele>
        <time>2024-05-26T07:48:58Z</time>
      </trkpt>
      <trkpt lat="49.11033" lon="-0.35339">
        <ele>64</ele>
        <time>2024-05-26T07:48:59Z</time>
      </trkpt>
      <trkpt lat="49.11026" lon="-0.35337">
        <ele>64</ele>
        <time>2024-05-26T07:49:00Z</time>
      </trkpt>
      <trkpt lat="49.11018" lon="-0.35335">
        <ele>64</ele>
        <time>2024-05-26T07:49:01Z</time>
      </trkpt>
      <trkpt lat="49.11011" lon="-0.35332">
        <ele>64.2</ele>
        <time>2024-05-26T07:49:02Z</time>
      </trkpt>
      <trkpt lat="49.11004" lon="-0.3533">
        <ele>64.2</ele>
        <time>2024-05-26T07:49:03Z</time>
      </trkpt>
      <trkpt lat="49.10997" lon="-0.35328">
        <ele>64.2</ele>
        <time>2024-05-26T07:49:04Z</time>
      </trkpt>
      <trkpt lat="49.1099" lon="-0.35327">
        <ele>64.2</ele>
        <time>2024-05-26T07:49:05Z</time>
      </trkpt>
      <trkpt lat="49.10984" lon="-0.35326">
        <ele>64.6</ele>
        <time>2024-05-26T07:49:06Z</time>
      </trkpt>
      <trkpt lat="49.10977" lon="-0.35325">
        <ele>64.8</ele>
        <time>2024-05-26T07:49:07Z</time>
      </trkpt>
      <trkpt lat="49.1097" lon="-0.35324">
        <ele>64.8</ele>
        <time>2024-05-26T07:49:08Z</time>
      </trkpt>
      <trkpt lat="49.10964" lon="-0.35325">
        <ele>65</ele>
        <time>2024-05-26T07:49:09Z</time>
      </trkpt>
      <trkpt lat="49.10958" lon="-0.35325">
        <ele>65</ele>
        <time>2024-05-26T07:49:10Z</time>
      </trkpt>
      <trkpt lat="49.10952" lon="-0.35325">
        <ele>65</ele>
        <time>2024-05-26T07:49:11Z</time>
      </trkpt>
      <trkpt lat="49.10946" lon="-0.35326">
        <ele>65</ele>
        <time>2024-05-26T07:49:12Z</time>
      </trkpt>
      <trkpt lat="49.1094" lon="-0.35327">
        <ele>65.2</ele>
        <time>2024-05-26T07:49:13Z</time>
      </trkpt>
      <trkpt lat="49.10933" lon="-0.35328">
        <ele>65.2</ele>
        <time>2024-05-26T07:49:14Z</time>
      </trkpt>
      <trkpt lat="49.10927" lon="-0.3533">
        <ele>65.4</ele>
        <time>2024-05-26T07:49:15Z</time>
      </trkpt>
      <trkpt lat="49.1092" lon="-0.35331">
        <ele>65.4</ele>
        <time>2024-05-26T07:49:16Z</time>
      </trkpt>
      <trkpt lat="49.10913" lon="-0.35332">
        <ele>65.4</ele>
        <time>2024-05-26T07:49:17Z</time>
      </trkpt>
      <trkpt lat="49.10906" lon="-0.35333">
        <ele>65.6</ele>
        <time>2024-05-26T07:49:18Z</time>
      </trkpt>
      <trkpt lat="49.10898" lon="-0.35334">
        <ele>65.8</ele>
        <time>2024-05-26T07:49:19Z</time>
      </trkpt>
      <trkpt lat="49.10891" lon="-0.35335">
        <ele>66</ele>
        <time>2024-05-26T07:49:20Z</time>
      </trkpt>
      <trkpt lat="49.10884" lon="-0.35336">
        <ele>66.2</ele>
        <time>2024-05-26T07:49:21Z</time>
      </trkpt>
      <trkpt lat="49.10876" lon="-0.35338">
        <ele>66.4</ele>
        <time>2024-05-26T07:49:22Z</time>
      </trkpt>
      <trkpt lat="49.10869" lon="-0.3534">
        <ele>66.6</ele>
        <time>2024-05-26T07:49:23Z</time>
      </trkpt>
      <trkpt lat="49.10862" lon="-0.35341">
        <ele>66.8</ele>
        <time>2024-05-26T07:49:24Z</time>
      </trkpt>
      <trkpt lat="49.10854" lon="-0.35342">
        <ele>66.8</ele>
        <time>2024-05-26T07:49:25Z</time>
      </trkpt>
      <trkpt lat="49.10847" lon="-0.35344">
        <ele>66.8</ele>
        <time>2024-05-26T07:49:26Z</time>
      </trkpt>
      <trkpt lat="49.1084" lon="-0.35345">
        <ele>67</ele>
        <time>2024-05-26T07:49:27Z</time>
      </trkpt>
      <trkpt lat="49.10833" lon="-0.35346">
        <ele>67</ele>
        <time>2024-05-26T07:49:28Z</time>
      </trkpt>
      <trkpt lat="49.10826" lon="-0.35347">
        <ele>67</ele>
        <time>2024-05-26T07:49:29Z</time>
      </trkpt>
      <trkpt lat="49.10819" lon="-0.35348">
        <ele>67</ele>
        <time>2024-05-26T07:49:30Z</time>
      </trkpt>
      <trkpt lat="49.10812" lon="-0.3535">
        <ele>67</ele>
        <time>2024-05-26T07:49:31Z</time>
      </trkpt>
      <trkpt lat="49.10806" lon="-0.35351">
        <ele>67.2</ele>
        <time>2024-05-26T07:49:32Z</time>
      </trkpt>
      <trkpt lat="49.10799" lon="-0.35352">
        <ele>67.2</ele>
        <time>2024-05-26T07:49:33Z</time>
      </trkpt>
      <trkpt lat="49.10792" lon="-0.35354">
        <ele>67.2</ele>
        <time>2024-05-26T07:49:34Z</time>
      </trkpt>
      <trkpt lat="49.10786" lon="-0.35355">
        <ele>67.4</ele>
        <time>2024-05-26T07:49:35Z</time>
      </trkpt>
      <trkpt lat="49.10779" lon="-0.35356">
        <ele>67.4</ele>
        <time>2024-05-26T07:49:36Z</time>
      </trkpt>
      <trkpt lat="49.10772" lon="-0.35357">
        <ele>67.4</ele>
        <time>2024-05-26T07:49:37Z</time>
      </trkpt>
      <trkpt lat="49.10766" lon="-0.35358">
        <ele>67.4</ele>
        <time>2024-05-26T07:49:38Z</time>
      </trkpt>
      <trkpt lat="49.10759" lon="-0.35359">
        <ele>67.6</ele>
        <time>2024-05-26T07:49:39Z</time>
      </trkpt>
      <trkpt lat="49.10752" lon="-0.35361">
        <ele>67.6</ele>
        <time>2024-05-26T07:49:40Z</time>
      </trkpt>
      <trkpt lat="49.10745" lon="-0.35362">
        <ele>67.8</ele>
        <time>2024-05-26T07:49:41Z</time>
      </trkpt>
      <trkpt lat="49.10739" lon="-0.35364">
        <ele>67.8</ele>
        <time>2024-05-26T07:49:42Z</time>
      </trkpt>
      <trkpt lat="49.10732" lon="-0.35366">
        <ele>67.8</ele>
        <time>2024-05-26T07:49:43Z</time>
      </trkpt>
      <trkpt lat="49.10725" lon="-0.35367">
        <ele>68.2</ele>
        <time>2024-05-26T07:49:44Z</time>
      </trkpt>
      <trkpt lat="49.10718" lon="-0.35368">
        <ele>68.4</ele>
        <time>2024-05-26T07:49:45Z</time>
      </trkpt>
      <trkpt lat="49.10712" lon="-0.3537">
        <ele>68.4</ele>
        <time>2024-05-26T07:49:46Z</time>
      </trkpt>
      <trkpt lat="49.10706" lon="-0.35371">
        <ele>68.6</ele>
        <time>2024-05-26T07:49:47Z</time>
      </trkpt>
      <trkpt lat="49.10699" lon="-0.35373">
        <ele>68.8</ele>
        <time>2024-05-26T07:49:48Z</time>
      </trkpt>
      <trkpt lat="49.10692" lon="-0.35374">
        <ele>69</ele>
        <time>2024-05-26T07:49:49Z</time>
      </trkpt>
      <trkpt lat="49.10686" lon="-0.35375">
        <ele>69</ele>
        <time>2024-05-26T07:49:50Z</time>
      </trkpt>
      <trkpt lat="49.1068" lon="-0.35376">
        <ele>69.2</ele>
        <time>2024-05-26T07:49:51Z</time>
      </trkpt>
      <trkpt lat="49.10673" lon="-0.35377">
        <ele>69.2</ele>
        <time>2024-05-26T07:49:52Z</time>
      </trkpt>
      <trkpt lat="49.10666" lon="-0.35377">
        <ele>69.2</ele>
        <time>2024-05-26T07:49:53Z</time>
      </trkpt>
      <trkpt lat="49.10659" lon="-0.35376">
        <ele>69.2</ele>
        <time>2024-05-26T07:49:54Z</time>
      </trkpt>
      <trkpt lat="49.10652" lon="-0.35376">
        <ele>69.4</ele>
        <time>2024-05-26T07:49:55Z</time>
      </trkpt>
      <trkpt lat="49.10645" lon="-0.35375">
        <ele>69.4</ele>
        <time>2024-05-26T07:49:56Z</time>
      </trkpt>
      <trkpt lat="49.10637" lon="-0.35375">
        <ele>69.4</ele>
        <time>2024-05-26T07:49:57Z</time>
      </trkpt>
      <trkpt lat="49.10629" lon="-0.35374">
        <ele>69.4</ele>
        <time>2024-05-26T07:49:58Z</time>
      </trkpt>
      <trkpt lat="49.10622" lon="-0.35373">
        <ele>69.4</ele>
        <time>2024-05-26T07:49:59Z</time>
      </trkpt>
      <trkpt lat="49.10614" lon="-0.35372">
        <ele>69.6</ele>
        <time>2024-05-26T07:50:00Z</time>
      </trkpt>
      <trkpt lat="49.10606" lon="-0.35371">
        <ele>69.6</ele>
        <time>2024-05-26T07:50:01Z</time>
      </trkpt>
      <trkpt lat="49.10599" lon="-0.3537">
        <ele>69.6</ele>
        <time>2024-05-26T07:50:02Z</time>
      </trkpt>
      <trkpt lat="49.10591" lon="-0.35369">
        <ele>69.6</ele>
        <time>2024-05-26T07:50:03Z</time>
      </trkpt>
      <trkpt lat="49.10583" lon="-0.35369">
        <ele>69.8</ele>
        <time>2024-05-26T07:50:04Z</time>
      </trkpt>
      <trkpt lat="49.10576" lon="-0.35369">
        <ele>69.8</ele>
        <time>2024-05-26T07:50:05Z</time>
      </trkpt>
      <trkpt lat="49.10568" lon="-0.35369">
        <ele>69.8</ele>
        <time>2024-05-26T07:50:06Z</time>
      </trkpt>
      <trkpt lat="49.1056" lon="-0.35369">
        <ele>69.8</ele>
        <time>2024-05-26T07:50:07Z</time>
      </trkpt>
      <trkpt lat="49.10553" lon="-0.35369">
        <ele>70</ele>
        <time>2024-05-26T07:50:08Z</time>
      </trkpt>
      <trkpt lat="49.10546" lon="-0.35369">
        <ele>70</ele>
        <time>2024-05-26T07:50:09Z</time>
      </trkpt>
      <trkpt lat="49.10538" lon="-0.3537">
        <ele>70</ele>
        <time>2024-05-26T07:50:10Z</time>
      </trkpt>
      <trkpt lat="49.10531" lon="-0.3537">
        <ele>70</ele>
        <time>2024-05-26T07:50:11Z</time>
      </trkpt>
      <trkpt lat="49.10524" lon="-0.35371">
        <ele>70.2</ele>
        <time>2024-05-26T07:50:12Z</time>
      </trkpt>
      <trkpt lat="49.10517" lon="-0.35371">
        <ele>70.2</ele>
        <time>2024-05-26T07:50:13Z</time>
      </trkpt>
      <trkpt lat="49.1051" lon="-0.35372">
        <ele>70.4</ele>
        <time>2024-05-26T07:50:14Z</time>
      </trkpt>
      <trkpt lat="49.10503" lon="-0.35372">
        <ele>70.6</ele>
        <time>2024-05-26T07:50:15Z</time>
      </trkpt>
      <trkpt lat="49.10496" lon="-0.35373">
        <ele>70.8</ele>
        <time>2024-05-26T07:50:16Z</time>
      </trkpt>
      <trkpt lat="49.10489" lon="-0.35374">
        <ele>70.8</ele>
        <time>2024-05-26T07:50:17Z</time>
      </trkpt>
      <trkpt lat="49.10481" lon="-0.35374">
        <ele>71</ele>
        <time>2024-05-26T07:50:18Z</time>
      </trkpt>
      <trkpt lat="49.10475" lon="-0.35375">
        <ele>71.2</ele>
        <time>2024-05-26T07:50:19Z</time>
      </trkpt>
      <trkpt lat="49.10468" lon="-0.35376">
        <ele>71.2</ele>
        <time>2024-05-26T07:50:20Z</time>
      </trkpt>
      <trkpt lat="49.1046" lon="-0.35376">
        <ele>71.4</ele>
        <time>2024-05-26T07:50:21Z</time>
      </trkpt>
      <trkpt lat="49.10453" lon="-0.35377">
        <ele>71.4</ele>
        <time>2024-05-26T07:50:22Z</time>
      </trkpt>
      <trkpt lat="49.10446" lon="-0.35378">
        <ele>71.6</ele>
        <time>2024-05-26T07:50:23Z</time>
      </trkpt>
      <trkpt lat="49.10438" lon="-0.35378">
        <ele>71.8</ele>
        <time>2024-05-26T07:50:24Z</time>
      </trkpt>
      <trkpt lat="49.10431" lon="-0.35379">
        <ele>71.8</ele>
        <time>2024-05-26T07:50:25Z</time>
      </trkpt>
      <trkpt lat="49.10424" lon="-0.3538">
        <ele>72</ele>
        <time>2024-05-26T07:50:26Z</time>
      </trkpt>
      <trkpt lat="49.10416" lon="-0.3538">
        <ele>72</ele>
        <time>2024-05-26T07:50:27Z</time>
      </trkpt>
      <trkpt lat="49.10409" lon="-0.35381">
        <ele>72.2</ele>
        <time>2024-05-26T07:50:28Z</time>
      </trkpt>
      <trkpt lat="49.10402" lon="-0.35382">
        <ele>72.2</ele>
        <time>2024-05-26T07:50:29Z</time>
      </trkpt>
      <trkpt lat="49.10394" lon="-0.35383">
        <ele>72.4</ele>
        <time>2024-05-26T07:50:30Z</time>
      </trkpt>
      <trkpt lat="49.10387" lon="-0.35384">
        <ele>72.6</ele>
        <time>2024-05-26T07:50:31Z</time>
      </trkpt>
      <trkpt lat="49.1038" lon="-0.35385">
        <ele>73</ele>
        <time>2024-05-26T07:50:32Z</time>
      </trkpt>
      <trkpt lat="49.10373" lon="-0.35385">
        <ele>73.2</ele>
        <time>2024-05-26T07:50:33Z</time>
      </trkpt>
      <trkpt lat="49.10365" lon="-0.35385">
        <ele>73.4</ele>
        <time>2024-05-26T07:50:34Z</time>
      </trkpt>
      <trkpt lat="49.10358" lon="-0.35386">
        <ele>73.6</ele>
        <time>2024-05-26T07:50:35Z</time>
      </trkpt>
      <trkpt lat="49.1035" lon="-0.35386">
        <ele>73.6</ele>
        <time>2024-05-26T07:50:36Z</time>
      </trkpt>
      <trkpt lat="49.10343" lon="-0.35386">
        <ele>73.8</ele>
        <time>2024-05-26T07:50:37Z</time>
      </trkpt>
      <trkpt lat="49.10336" lon="-0.35386">
        <ele>73.8</ele>
        <time>2024-05-26T07:50:38Z</time>
      </trkpt>
      <trkpt lat="49.10329" lon="-0.35386">
        <ele>73.8</ele>
        <time>2024-05-26T07:50:39Z</time>
      </trkpt>
      <trkpt lat="49.10322" lon="-0.35386">
        <ele>74</ele>
        <time>2024-05-26T07:50:40Z</time>
      </trkpt>
      <trkpt lat="49.10316" lon="-0.35386">
        <ele>73.8</ele>
        <time>2024-05-26T07:50:41Z</time>
      </trkpt>
      <trkpt lat="49.10309" lon="-0.35386">
        <ele>74</ele>
        <time>2024-05-26T07:50:42Z</time>
      </trkpt>
      <trkpt lat="49.10302" lon="-0.35386">
        <ele>74.2</ele>
        <time>2024-05-26T07:50:43Z</time>
      </trkpt>
      <trkpt lat="49.10295" lon="-0.35386">
        <ele>74.2</ele>
        <time>2024-05-26T07:50:44Z</time>
      </trkpt>
      <trkpt lat="49.10288" lon="-0.35386">
        <ele>74.2</ele>
        <time>2024-05-26T07:50:45Z</time>
      </trkpt>
      <trkpt lat="49.1028" lon="-0.35386">
        <ele>74.4</ele>
        <time>2024-05-26T07:50:46Z</time>
      </trkpt>
      <trkpt lat="49.10273" lon="-0.35386">
        <ele>74.4</ele>
        <time>2024-05-26T07:50:47Z</time>
      </trkpt>
      <trkpt lat="49.10266" lon="-0.35385">
        <ele>74.4</ele>
        <time>2024-05-26T07:50:48Z</time>
      </trkpt>
      <trkpt lat="49.10258" lon="-0.35385">
        <ele>74.6</ele>
        <time>2024-05-26T07:50:49Z</time>
      </trkpt>
      <trkpt lat="49.10251" lon="-0.35385">
        <ele>74.6</ele>
        <time>2024-05-26T07:50:50Z</time>
      </trkpt>
      <trkpt lat="49.10244" lon="-0.35385">
        <ele>74.6</ele>
        <time>2024-05-26T07:50:51Z</time>
      </trkpt>
      <trkpt lat="49.10237" lon="-0.35385">
        <ele>74.8</ele>
        <time>2024-05-26T07:50:52Z</time>
      </trkpt>
      <trkpt lat="49.1023" lon="-0.35386">
        <ele>74.8</ele>
        <time>2024-05-26T07:50:53Z</time>
      </trkpt>
      <trkpt lat="49.10223" lon="-0.35386">
        <ele>74.8</ele>
        <time>2024-05-26T07:50:54Z</time>
      </trkpt>
      <trkpt lat="49.10216" lon="-0.35386">
        <ele>74.8</ele>
        <time>2024-05-26T07:50:55Z</time>
      </trkpt>
      <trkpt lat="49.10209" lon="-0.35386">
        <ele>75</ele>
        <time>2024-05-26T07:50:56Z</time>
      </trkpt>
      <trkpt lat="49.10201" lon="-0.35386">
        <ele>75</ele>
        <time>2024-05-26T07:50:57Z</time>
      </trkpt>
      <trkpt lat="49.10194" lon="-0.35386">
        <ele>75</ele>
        <time>2024-05-26T07:50:58Z</time>
      </trkpt>
      <trkpt lat="49.10186" lon="-0.35386">
        <ele>75</ele>
        <time>2024-05-26T07:50:59Z</time>
      </trkpt>
      <trkpt lat="49.10179" lon="-0.35385">
        <ele>75</ele>
        <time>2024-05-26T07:51:00Z</time>
      </trkpt>
      <trkpt lat="49.10171" lon="-0.35385">
        <ele>75</ele>
        <time>2024-05-26T07:51:01Z</time>
      </trkpt>
      <trkpt lat="49.10163" lon="-0.35384">
        <ele>75</ele>
        <time>2024-05-26T07:51:02Z</time>
      </trkpt>
      <trkpt lat="49.10155" lon="-0.35383">
        <ele>75.2</ele>
        <time>2024-05-26T07:51:03Z</time>
      </trkpt>
      <trkpt lat="49.10148" lon="-0.35382">
        <ele>75.2</ele>
        <time>2024-05-26T07:51:04Z</time>
      </trkpt>
      <trkpt lat="49.1014" lon="-0.35381">
        <ele>75.2</ele>
        <time>2024-05-26T07:51:05Z</time>
      </trkpt>
      <trkpt lat="49.10133" lon="-0.3538">
        <ele>75.2</ele>
        <time>2024-05-26T07:51:06Z</time>
      </trkpt>
      <trkpt lat="49.10125" lon="-0.35379">
        <ele>75.2</ele>
        <time>2024-05-26T07:51:07Z</time>
      </trkpt>
      <trkpt lat="49.10118" lon="-0.35378">
        <ele>75.2</ele>
        <time>2024-05-26T07:51:08Z</time>
      </trkpt>
      <trkpt lat="49.10111" lon="-0.35377">
        <ele>75.4</ele>
        <time>2024-05-26T07:51:09Z</time>
      </trkpt>
      <trkpt lat="49.10103" lon="-0.35376">
        <ele>75.6</ele>
        <time>2024-05-26T07:51:10Z</time>
      </trkpt>
      <trkpt lat="49.10096" lon="-0.35375">
        <ele>75.8</ele>
        <time>2024-05-26T07:51:11Z</time>
      </trkpt>
      <trkpt lat="49.10089" lon="-0.35374">
        <ele>75.8</ele>
        <time>2024-05-26T07:51:12Z</time>
      </trkpt>
      <trkpt lat="49.10082" lon="-0.35374">
        <ele>75.8</ele>
        <time>2024-05-26T07:51:13Z</time>
      </trkpt>
      <trkpt lat="49.10074" lon="-0.35374">
        <ele>75.8</ele>
        <time>2024-05-26T07:51:14Z</time>
      </trkpt>
      <trkpt lat="49.10068" lon="-0.35374">
        <ele>75.8</ele>
        <time>2024-05-26T07:51:15Z</time>
      </trkpt>
      <trkpt lat="49.10061" lon="-0.35374">
        <ele>75.8</ele>
        <time>2024-05-26T07:51:16Z</time>
      </trkpt>
      <trkpt lat="49.10056" lon="-0.35374">
        <ele>75.8</ele>
        <time>2024-05-26T07:51:17Z</time>
      </trkpt>
      <trkpt lat="49.1005" lon="-0.35374">
        <ele>76</ele>
        <time>2024-05-26T07:51:18Z</time>
      </trkpt>
      <trkpt lat="49.10046" lon="-0.35374">
        <ele>76</ele>
        <time>2024-05-26T07:51:19Z</time>
      </trkpt>
      <trkpt lat="49.10041" lon="-0.35374">
        <ele>76</ele>
        <time>2024-05-26T07:51:20Z</time>
      </trkpt>
      <trkpt lat="49.10036" lon="-0.35374">
        <ele>76</ele>
        <time>2024-05-26T07:51:21Z</time>
      </trkpt>
      <trkpt lat="49.10032" lon="-0.35374">
        <ele>76</ele>
        <time>2024-05-26T07:51:22Z</time>
      </trkpt>
      <trkpt lat="49.10027" lon="-0.35374">
        <ele>76</ele>
        <time>2024-05-26T07:51:23Z</time>
      </trkpt>
      <trkpt lat="49.10024" lon="-0.35374">
        <ele>76</ele>
        <time>2024-05-26T07:51:24Z</time>
      </trkpt>
      <trkpt lat="49.10021" lon="-0.35375">
        <ele>76</ele>
        <time>2024-05-26T07:51:25Z</time>
      </trkpt>
      <trkpt lat="49.10019" lon="-0.35376">
        <ele>76</ele>
        <time>2024-05-26T07:51:26Z</time>
      </trkpt>
      <trkpt lat="49.10017" lon="-0.35376">
        <ele>76</ele>
        <time>2024-05-26T07:51:27Z</time>
      </trkpt>
      <trkpt lat="49.10015" lon="-0.35377">
        <ele>76</ele>
        <time>2024-05-26T07:51:28Z</time>
      </trkpt>
      <trkpt lat="49.10013" lon="-0.35377">
        <ele>76</ele>
        <time>2024-05-26T07:51:29Z</time>
      </trkpt>
      <trkpt lat="49.10013" lon="-0.35377">
        <ele>76</ele>
        <time>2024-05-26T07:51:30Z</time>
      </trkpt>
      <trkpt lat="49.10013" lon="-0.35377">
        <ele>76</ele>
        <time>2024-05-26T07:51:31Z</time>
      </trkpt>
      <trkpt lat="49.10008" lon="-0.35376">
        <ele>76.4</ele>
        <time>2024-05-26T07:54:37Z</time>
      </trkpt>
      <trkpt lat="49.10007" lon="-0.35377">
        <ele>76.4</ele>
        <time>2024-05-26T07:54:38Z</time>
      </trkpt>
      <trkpt lat="49.10005" lon="-0.35377">
        <ele>76.4</ele>
        <time>2024-05-26T07:54:39Z</time>
      </trkpt>
      <trkpt lat="49.10003" lon="-0.35377">
        <ele>76.4</ele>
        <time>2024-05-26T07:54:40Z</time>
      </trkpt>
      <trkpt lat="49.10002" lon="-0.35377">
        <ele>76.4</ele>
        <time>2024-05-26T07:54:41Z</time>
      </trkpt>
      <trkpt lat="49.1" lon="-0.35377">
        <ele>76.4</ele>
        <time>2024-05-26T07:54:42Z</time>
      </trkpt>
      <trkpt lat="49.09998" lon="-0.35378">
        <ele>76.2</ele>
        <time>2024-05-26T07:54:43Z</time>
      </trkpt>
      <trkpt lat="49.09996" lon="-0.35378">
        <ele>76.2</ele>
        <time>2024-05-26T07:54:44Z</time>
      </trkpt>
      <trkpt lat="49.09994" lon="-0.35378">
        <ele>76.2</ele>
        <time>2024-05-26T07:54:45Z</time>
      </trkpt>
      <trkpt lat="49.09992" lon="-0.35378">
        <ele>76.2</ele>
        <time>2024-05-26T07:54:46Z</time>
      </trkpt>
      <trkpt lat="49.0999" lon="-0.35378">
        <ele>76.2</ele>
        <time>2024-05-26T07:54:47Z</time>
      </trkpt>
      <trkpt lat="49.09987" lon="-0.35378">
        <ele>76.2</ele>
        <time>2024-05-26T07:54:48Z</time>
      </trkpt>
      <trkpt lat="49.09985" lon="-0.35378">
        <ele>76</ele>
        <time>2024-05-26T07:54:49Z</time>
      </trkpt>
      <trkpt lat="49.09982" lon="-0.35378">
        <ele>76</ele>
        <time>2024-05-26T07:54:50Z</time>
      </trkpt>
      <trkpt lat="49.0998" lon="-0.35379">
        <ele>76</ele>
        <time>2024-05-26T07:54:51Z</time>
      </trkpt>
      <trkpt lat="49.09977" lon="-0.35379">
        <ele>76</ele>
        <time>2024-05-26T07:54:52Z</time>
      </trkpt>
      <trkpt lat="49.09974" lon="-0.35379">
        <ele>76</ele>
        <time>2024-05-26T07:54:53Z</time>
      </trkpt>
      <trkpt lat="49.09971" lon="-0.35379">
        <ele>76</ele>
        <time>2024-05-26T07:54:54Z</time>
      </trkpt>
      <trkpt lat="49.09968" lon="-0.35379">
        <ele>75.8</ele>
        <time>2024-05-26T07:54:55Z</time>
      </trkpt>
      <trkpt lat="49.09965" lon="-0.35379">
        <ele>75.8</ele>
        <time>2024-05-26T07:54:56Z</time>
      </trkpt>
      <trkpt lat="49.09961" lon="-0.35379">
        <ele>75.8</ele>
        <time>2024-05-26T07:54:57Z</time>
      </trkpt>
      <trkpt lat="49.09958" lon="-0.35379">
        <ele>75.8</ele>
        <time>2024-05-26T07:54:58Z</time>
      </trkpt>
      <trkpt lat="49.09955" lon="-0.35379">
        <ele>75.8</ele>
        <time>2024-05-26T07:54:59Z</time>
      </trkpt>
      <trkpt lat="49.09951" lon="-0.3538">
        <ele>75.8</ele>
        <time>2024-05-26T07:55:00Z</time>
      </trkpt>
      <trkpt lat="49.09948" lon="-0.3538">
        <ele>75.8</ele>
        <time>2024-05-26T07:55:01Z</time>
      </trkpt>
      <trkpt lat="49.09944" lon="-0.3538">
        <ele>75.6</ele>
        <time>2024-05-26T07:55:02Z</time>
      </trkpt>
      <trkpt lat="49.09941" lon="-0.35381">
        <ele>75.4</ele>
        <time>2024-05-26T07:55:03Z</time>
      </trkpt>
      <trkpt lat="49.09937" lon="-0.35381">
        <ele>75.4</ele>
        <time>2024-05-26T07:55:04Z</time>
      </trkpt>
      <trkpt lat="49.09933" lon="-0.35381">
        <ele>75.2</ele>
        <time>2024-05-26T07:55:05Z</time>
      </trkpt>
      <trkpt lat="49.09929" lon="-0.35382">
        <ele>75.2</ele>
        <time>2024-05-26T07:55:06Z</time>
      </trkpt>
      <trkpt lat="49.09925" lon="-0.35381">
        <ele>75.2</ele>
        <time>2024-05-26T07:55:07Z</time>
      </trkpt>
      <trkpt lat="49.0992" lon="-0.35382">
        <ele>75.2</ele>
        <time>2024-05-26T07:55:08Z</time>
      </trkpt>
      <trkpt lat="49.09916" lon="-0.35382">
        <ele>75</ele>
        <time>2024-05-26T07:55:09Z</time>
      </trkpt>
      <trkpt lat="49.09911" lon="-0.35383">
        <ele>75</ele>
        <time>2024-05-26T07:55:10Z</time>
      </trkpt>
      <trkpt lat="49.09906" lon="-0.35385">
        <ele>75</ele>
        <time>2024-05-26T07:55:11Z</time>
      </trkpt>
      <trkpt lat="49.09902" lon="-0.35389">
        <ele>74.8</ele>
        <time>2024-05-26T07:55:12Z</time>
      </trkpt>
      <trkpt lat="49.09898" lon="-0.35392">
        <ele>74.8</ele>
        <time>2024-05-26T07:55:13Z</time>
      </trkpt>
      <trkpt lat="49.09894" lon="-0.35396">
        <ele>74.8</ele>
        <time>2024-05-26T07:55:14Z</time>
      </trkpt>
      <trkpt lat="49.09889" lon="-0.35397">
        <ele>74.6</ele>
        <time>2024-05-26T07:55:15Z</time>
      </trkpt>
      <trkpt lat="49.09884" lon="-0.35397">
        <ele>74.6</ele>
        <time>2024-05-26T07:55:16Z</time>
      </trkpt>
      <trkpt lat="49.0988" lon="-0.35394">
        <ele>74.4</ele>
        <time>2024-05-26T07:55:17Z</time>
      </trkpt>
      <trkpt lat="49.09875" lon="-0.35389">
        <ele>74.4</ele>
        <time>2024-05-26T07:55:18Z</time>
      </trkpt>
      <trkpt lat="49.0987" lon="-0.35384">
        <ele>74.4</ele>
        <time>2024-05-26T07:55:19Z</time>
      </trkpt>
      <trkpt lat="49.09865" lon="-0.35379">
        <ele>74.2</ele>
        <time>2024-05-26T07:55:20Z</time>
      </trkpt>
      <trkpt lat="49.09859" lon="-0.35375">
        <ele>74</ele>
        <time>2024-05-26T07:55:21Z</time>
      </trkpt>
      <trkpt lat="49.09852" lon="-0.35371">
        <ele>74</ele>
        <time>2024-05-26T07:55:22Z</time>
      </trkpt>
      <trkpt lat="49.09845" lon="-0.35368">
        <ele>73.6</ele>
        <time>2024-05-26T07:55:23Z</time>
      </trkpt>
      <trkpt lat="49.09836" lon="-0.35364">
        <ele>73.4</ele>
        <time>2024-05-26T07:55:24Z</time>
      </trkpt>
      <trkpt lat="49.09828" lon="-0.35359">
        <ele>73.4</ele>
        <time>2024-05-26T07:55:25Z</time>
      </trkpt>
      <trkpt lat="49.0982" lon="-0.35354">
        <ele>73.2</ele>
        <time>2024-05-26T07:55:26Z</time>
      </trkpt>
      <trkpt lat="49.09811" lon="-0.35348">
        <ele>73</ele>
        <time>2024-05-26T07:55:27Z</time>
      </trkpt>
      <trkpt lat="49.09803" lon="-0.35341">
        <ele>72.8</ele>
        <time>2024-05-26T07:55:28Z</time>
      </trkpt>
      <trkpt lat="49.09794" lon="-0.35335">
        <ele>72.4</ele>
        <time>2024-05-26T07:55:29Z</time>
      </trkpt>
      <trkpt lat="49.09785" lon="-0.35328">
        <ele>71.8</ele>
        <time>2024-05-26T07:55:30Z</time>
      </trkpt>
      <trkpt lat="49.09777" lon="-0.3532">
        <ele>71.2</ele>
        <time>2024-05-26T07:55:31Z</time>
      </trkpt>
      <trkpt lat="49.09768" lon="-0.35312">
        <ele>70.2</ele>
        <time>2024-05-26T07:55:32Z</time>
      </trkpt>
      <trkpt lat="49.09759" lon="-0.35303">
        <ele>69.6</ele>
        <time>2024-05-26T07:55:33Z</time>
      </trkpt>
      <trkpt lat="49.09751" lon="-0.35293">
        <ele>68.6</ele>
        <time>2024-05-26T07:55:34Z</time>
      </trkpt>
      <trkpt lat="49.09742" lon="-0.35284">
        <ele>67.8</ele>
        <time>2024-05-26T07:55:35Z</time>
      </trkpt>
      <trkpt lat="49.09733" lon="-0.35274">
        <ele>67</ele>
        <time>2024-05-26T07:55:36Z</time>
      </trkpt>
      <trkpt lat="49.09723" lon="-0.35265">
        <ele>67</ele>
        <time>2024-05-26T07:55:37Z</time>
      </trkpt>
      <trkpt lat="49.09714" lon="-0.35255">
        <ele>66.4</ele>
        <time>2024-05-26T07:55:38Z</time>
      </trkpt>
      <trkpt lat="49.09704" lon="-0.35245">
        <ele>65.4</ele>
        <time>2024-05-26T07:55:39Z</time>
      </trkpt>
      <trkpt lat="49.09695" lon="-0.35234">
        <ele>64</ele>
        <time>2024-05-26T07:55:40Z</time>
      </trkpt>
      <trkpt lat="49.09685" lon="-0.35224">
        <ele>63</ele>
        <time>2024-05-26T07:55:41Z</time>
      </trkpt>
      <trkpt lat="49.09676" lon="-0.35214">
        <ele>62.4</ele>
        <time>2024-05-26T07:55:42Z</time>
      </trkpt>
      <trkpt lat="49.09666" lon="-0.35205">
        <ele>62</ele>
        <time>2024-05-26T07:55:43Z</time>
      </trkpt>
      <trkpt lat="49.09655" lon="-0.35198">
        <ele>61.6</ele>
        <time>2024-05-26T07:55:44Z</time>
      </trkpt>
      <trkpt lat="49.09644" lon="-0.3519">
        <ele>61</ele>
        <time>2024-05-26T07:55:45Z</time>
      </trkpt>
      <trkpt lat="49.09633" lon="-0.35184">
        <ele>60.4</ele>
        <time>2024-05-26T07:55:46Z</time>
      </trkpt>
      <trkpt lat="49.09621" lon="-0.35179">
        <ele>59</ele>
        <time>2024-05-26T07:55:47Z</time>
      </trkpt>
      <trkpt lat="49.0961" lon="-0.35175">
        <ele>58</ele>
        <time>2024-05-26T07:55:48Z</time>
      </trkpt>
      <trkpt lat="49.09599" lon="-0.35171">
        <ele>57.4</ele>
        <time>2024-05-26T07:55:49Z</time>
      </trkpt>
      <trkpt lat="49.09588" lon="-0.35167">
        <ele>56.6</ele>
        <time>2024-05-26T07:55:50Z</time>
      </trkpt>
      <trkpt lat="49.09578" lon="-0.35165">
        <ele>56</ele>
        <time>2024-05-26T07:55:51Z</time>
      </trkpt>
      <trkpt lat="49.09568" lon="-0.35162">
        <ele>55</ele>
        <time>2024-05-26T07:55:52Z</time>
      </trkpt>
      <trkpt lat="49.09558" lon="-0.3516">
        <ele>54.2</ele>
        <time>2024-05-26T07:55:53Z</time>
      </trkpt>
      <trkpt lat="49.09549" lon="-0.35157">
        <ele>53.2</ele>
        <time>2024-05-26T07:55:54Z</time>
      </trkpt>
      <trkpt lat="49.09539" lon="-0.35154">
        <ele>52</ele>
        <time>2024-05-26T07:55:55Z</time>
      </trkpt>
      <trkpt lat="49.09529" lon="-0.35152">
        <ele>51.2</ele>
        <time>2024-05-26T07:55:56Z</time>
      </trkpt>
      <trkpt lat="49.09519" lon="-0.3515">
        <ele>50.6</ele>
        <time>2024-05-26T07:55:57Z</time>
      </trkpt>
      <trkpt lat="49.09509" lon="-0.35148">
        <ele>50.6</ele>
        <time>2024-05-26T07:55:58Z</time>
      </trkpt>
      <trkpt lat="49.09499" lon="-0.35146">
        <ele>50.2</ele>
        <time>2024-05-26T07:55:59Z</time>
      </trkpt>
      <trkpt lat="49.09489" lon="-0.35143">
        <ele>50.2</ele>
        <time>2024-05-26T07:56:00Z</time>
      </trkpt>
      <trkpt lat="49.0948" lon="-0.35141">
        <ele>49.8</ele>
        <time>2024-05-26T07:56:01Z</time>
      </trkpt>
      <trkpt lat="49.0947" lon="-0.35137">
        <ele>49.4</ele>
        <time>2024-05-26T07:56:02Z</time>
      </trkpt>
      <trkpt lat="49.09461" lon="-0.35133">
        <ele>49</ele>
        <time>2024-05-26T07:56:03Z</time>
      </trkpt>
      <trkpt lat="49.09452" lon="-0.35129">
        <ele>48.8</ele>
        <time>2024-05-26T07:56:04Z</time>
      </trkpt>
      <trkpt lat="49.09443" lon="-0.35125">
        <ele>48.4</ele>
        <time>2024-05-26T07:56:05Z</time>
      </trkpt>
      <trkpt lat="49.09436" lon="-0.35122">
        <ele>48.2</ele>
        <time>2024-05-26T07:56:06Z</time>
      </trkpt>
      <trkpt lat="49.09429" lon="-0.35121">
        <ele>47.8</ele>
        <time>2024-05-26T07:56:07Z</time>
      </trkpt>
      <trkpt lat="49.09425" lon="-0.35119">
        <ele>47.6</ele>
        <time>2024-05-26T07:56:08Z</time>
      </trkpt>
      <trkpt lat="49.09421" lon="-0.35118">
        <ele>47</ele>
        <time>2024-05-26T07:56:09Z</time>
      </trkpt>
      <trkpt lat="49.09418" lon="-0.35117">
        <ele>46.8</ele>
        <time>2024-05-26T07:56:10Z</time>
      </trkpt>
      <trkpt lat="49.09417" lon="-0.35116">
        <ele>46.4</ele>
        <time>2024-05-26T07:56:11Z</time>
      </trkpt>
      <trkpt lat="49.09416" lon="-0.35115">
        <ele>46.2</ele>
        <time>2024-05-26T07:56:12Z</time>
      </trkpt>
      <trkpt lat="49.09416" lon="-0.35115">
        <ele>46</ele>
        <time>2024-05-26T07:56:13Z</time>
      </trkpt>
      <trkpt lat="49.09416" lon="-0.35115">
        <ele>46</ele>
        <time>2024-05-26T07:56:14Z</time>
      </trkpt>
      <trkpt lat="49.09413" lon="-0.35113">
        <ele>45.8</ele>
        <time>2024-05-26T07:56:52Z</time>
      </trkpt>
      <trkpt lat="49.09411" lon="-0.35112">
        <ele>45.8</ele>
        <time>2024-05-26T07:56:53Z</time>
      </trkpt>
      <trkpt lat="49.09408" lon="-0.35111">
        <ele>45.8</ele>
        <time>2024-05-26T07:56:54Z</time>
      </trkpt>
      <trkpt lat="49.09405" lon="-0.35112">
        <ele>45.8</ele>
        <time>2024-05-26T07:56:55Z</time>
      </trkpt>
      <trkpt lat="49.09401" lon="-0.35114">
        <ele>45.8</ele>
        <time>2024-05-26T07:56:56Z</time>
      </trkpt>
      <trkpt lat="49.09398" lon="-0.35119">
        <ele>45.8</ele>
        <time>2024-05-26T07:56:57Z</time>
      </trkpt>
      <trkpt lat="49.09394" lon="-0.35125">
        <ele>45.8</ele>
        <time>2024-05-26T07:56:58Z</time>
      </trkpt>
      <trkpt lat="49.09392" lon="-0.35131">
        <ele>45.4</ele>
        <time>2024-05-26T07:56:59Z</time>
      </trkpt>
      <trkpt lat="49.0939" lon="-0.35138">
        <ele>45.4</ele>
        <time>2024-05-26T07:57:00Z</time>
      </trkpt>
      <trkpt lat="49.09387" lon="-0.35146">
        <ele>45.4</ele>
        <time>2024-05-26T07:57:01Z</time>
      </trkpt>
      <trkpt lat="49.09385" lon="-0.35155">
        <ele>45.4</ele>
        <time>2024-05-26T07:57:02Z</time>
      </trkpt>
      <trkpt lat="49.09383" lon="-0.35164">
        <ele>45.2</ele>
        <time>2024-05-26T07:57:03Z</time>
      </trkpt>
      <trkpt lat="49.0938" lon="-0.35174">
        <ele>45.2</ele>
        <time>2024-05-26T07:57:04Z</time>
      </trkpt>
      <trkpt lat="49.09378" lon="-0.35181">
        <ele>45</ele>
        <time>2024-05-26T07:57:05Z</time>
      </trkpt>
      <trkpt lat="49.09376" lon="-0.35191">
        <ele>44.8</ele>
        <time>2024-05-26T07:57:06Z</time>
      </trkpt>
      <trkpt lat="49.09373" lon="-0.35202">
        <ele>44.8</ele>
        <time>2024-05-26T07:57:07Z</time>
      </trkpt>
      <trkpt lat="49.09371" lon="-0.3521">
        <ele>44.6</ele>
        <time>2024-05-26T07:57:08Z</time>
      </trkpt>
      <trkpt lat="49.09368" lon="-0.3522">
        <ele>44.4</ele>
        <time>2024-05-26T07:57:09Z</time>
      </trkpt>
      <trkpt lat="49.09365" lon="-0.3523">
        <ele>44</ele>
        <time>2024-05-26T07:57:10Z</time>
      </trkpt>
      <trkpt lat="49.09362" lon="-0.3524">
        <ele>43.8</ele>
        <time>2024-05-26T07:57:11Z</time>
      </trkpt>
      <trkpt lat="49.09359" lon="-0.3525">
        <ele>43.8</ele>
        <time>2024-05-26T07:57:12Z</time>
      </trkpt>
      <trkpt lat="49.09355" lon="-0.3526">
        <ele>43.6</ele>
        <time>2024-05-26T07:57:13Z</time>
      </trkpt>
      <trkpt lat="49.09351" lon="-0.3527">
        <ele>43.6</ele>
        <time>2024-05-26T07:57:14Z</time>
      </trkpt>
      <trkpt lat="49.09346" lon="-0.35279">
        <ele>43.6</ele>
        <time>2024-05-26T07:57:15Z</time>
      </trkpt>
      <trkpt lat="49.09342" lon="-0.35288">
        <ele>43.6</ele>
        <time>2024-05-26T07:57:16Z</time>
      </trkpt>
      <trkpt lat="49.09338" lon="-0.35297">
        <ele>43.6</ele>
        <time>2024-05-26T07:57:17Z</time>
      </trkpt>
      <trkpt lat="49.09334" lon="-0.35305">
        <ele>43.4</ele>
        <time>2024-05-26T07:57:18Z</time>
      </trkpt>
      <trkpt lat="49.09329" lon="-0.35314">
        <ele>43.4</ele>
        <time>2024-05-26T07:57:19Z</time>
      </trkpt>
      <trkpt lat="49.09325" lon="-0.35322">
        <ele>43.2</ele>
        <time>2024-05-26T07:57:20Z</time>
      </trkpt>
      <trkpt lat="49.0932" lon="-0.35329">
        <ele>43.2</ele>
        <time>2024-05-26T07:57:21Z</time>
      </trkpt>
      <trkpt lat="49.09316" lon="-0.35337">
        <ele>43</ele>
        <time>2024-05-26T07:57:22Z</time>
      </trkpt>
      <trkpt lat="49.09312" lon="-0.35346">
        <ele>43</ele>
        <time>2024-05-26T07:57:23Z</time>
      </trkpt>
      <trkpt lat="49.09308" lon="-0.35354">
        <ele>43</ele>
        <time>2024-05-26T07:57:24Z</time>
      </trkpt>
      <trkpt lat="49.09304" lon="-0.35363">
        <ele>42.6</ele>
        <time>2024-05-26T07:57:25Z</time>
      </trkpt>
      <trkpt lat="49.093" lon="-0.35371">
        <ele>42.2</ele>
        <time>2024-05-26T07:57:26Z</time>
      </trkpt>
      <trkpt lat="49.09296" lon="-0.3538">
        <ele>41.8</ele>
        <time>2024-05-26T07:57:27Z</time>
      </trkpt>
      <trkpt lat="49.09293" lon="-0.35389">
        <ele>41.6</ele>
        <time>2024-05-26T07:57:28Z</time>
      </trkpt>
      <trkpt lat="49.0929" lon="-0.35397">
        <ele>41.4</ele>
        <time>2024-05-26T07:57:29Z</time>
      </trkpt>
      <trkpt lat="49.09287" lon="-0.35406">
        <ele>41.4</ele>
        <time>2024-05-26T07:57:30Z</time>
      </trkpt>
      <trkpt lat="49.09283" lon="-0.35414">
        <ele>41.4</ele>
        <time>2024-05-26T07:57:31Z</time>
      </trkpt>
      <trkpt lat="49.0928" lon="-0.35422">
        <ele>41.4</ele>
        <time>2024-05-26T07:57:32Z</time>
      </trkpt>
      <trkpt lat="49.09277" lon="-0.3543">
        <ele>41.4</ele>
        <time>2024-05-26T07:57:33Z</time>
      </trkpt>
      <trkpt lat="49.09274" lon="-0.35438">
        <ele>41.2</ele>
        <time>2024-05-26T07:57:34Z</time>
      </trkpt>
      <trkpt lat="49.09271" lon="-0.35447">
        <ele>41.2</ele>
        <time>2024-05-26T07:57:35Z</time>
      </trkpt>
      <trkpt lat="49.09267" lon="-0.35455">
        <ele>41.2</ele>
        <time>2024-05-26T07:57:36Z</time>
      </trkpt>
      <trkpt lat="49.09263" lon="-0.35463">
        <ele>41.2</ele>
        <time>2024-05-26T07:57:37Z</time>
      </trkpt>
      <trkpt lat="49.09259" lon="-0.35472">
        <ele>41</ele>
        <time>2024-05-26T07:57:38Z</time>
      </trkpt>
      <trkpt lat="49.09255" lon="-0.3548">
        <ele>41</ele>
        <time>2024-05-26T07:57:39Z</time>
      </trkpt>
      <trkpt lat="49.09251" lon="-0.35489">
        <ele>41</ele>
        <time>2024-05-26T07:57:40Z</time>
      </trkpt>
      <trkpt lat="49.09248" lon="-0.35497">
        <ele>40.8</ele>
        <time>2024-05-26T07:57:41Z</time>
      </trkpt>
      <trkpt lat="49.09244" lon="-0.35506">
        <ele>40.8</ele>
        <time>2024-05-26T07:57:42Z</time>
      </trkpt>
      <trkpt lat="49.09241" lon="-0.35514">
        <ele>40.8</ele>
        <time>2024-05-26T07:57:43Z</time>
      </trkpt>
      <trkpt lat="49.09237" lon="-0.35521">
        <ele>40.8</ele>
        <time>2024-05-26T07:57:44Z</time>
      </trkpt>
      <trkpt lat="49.09233" lon="-0.35528">
        <ele>40.8</ele>
        <time>2024-05-26T07:57:45Z</time>
      </trkpt>
      <trkpt lat="49.09227" lon="-0.35534">
        <ele>40.8</ele>
        <time>2024-05-26T07:57:46Z</time>
      </trkpt>
      <trkpt lat="49.09221" lon="-0.35541">
        <ele>40.8</ele>
        <time>2024-05-26T07:57:47Z</time>
      </trkpt>
      <trkpt lat="49.09216" lon="-0.35549">
        <ele>40.8</ele>
        <time>2024-05-26T07:57:48Z</time>
      </trkpt>
      <trkpt lat="49.09211" lon="-0.35556">
        <ele>40.6</ele>
        <time>2024-05-26T07:57:49Z</time>
      </trkpt>
      <trkpt lat="49.09205" lon="-0.35564">
        <ele>40.6</ele>
        <time>2024-05-26T07:57:50Z</time>
      </trkpt>
      <trkpt lat="49.09199" lon="-0.35571">
        <ele>40.6</ele>
        <time>2024-05-26T07:57:51Z</time>
      </trkpt>
      <trkpt lat="49.09193" lon="-0.35579">
        <ele>40.4</ele>
        <time>2024-05-26T07:57:52Z</time>
      </trkpt>
      <trkpt lat="49.09188" lon="-0.35587">
        <ele>40.4</ele>
        <time>2024-05-26T07:57:53Z</time>
      </trkpt>
      <trkpt lat="49.09182" lon="-0.35594">
        <ele>40.4</ele>
        <time>2024-05-26T07:57:54Z</time>
      </trkpt>
      <trkpt lat="49.09176" lon="-0.35603">
        <ele>40.4</ele>
        <time>2024-05-26T07:57:55Z</time>
      </trkpt>
      <trkpt lat="49.09171" lon="-0.35611">
        <ele>40.2</ele>
        <time>2024-05-26T07:57:56Z</time>
      </trkpt>
      <trkpt lat="49.09166" lon="-0.35619">
        <ele>40.2</ele>
        <time>2024-05-26T07:57:57Z</time>
      </trkpt>
      <trkpt lat="49.09161" lon="-0.35627">
        <ele>40.2</ele>
        <time>2024-05-26T07:57:58Z</time>
      </trkpt>
      <trkpt lat="49.09156" lon="-0.35636">
        <ele>40</ele>
        <time>2024-05-26T07:57:59Z</time>
      </trkpt>
      <trkpt lat="49.09151" lon="-0.35646">
        <ele>40</ele>
        <time>2024-05-26T07:58:00Z</time>
      </trkpt>
      <trkpt lat="49.09147" lon="-0.35655">
        <ele>40</ele>
        <time>2024-05-26T07:58:01Z</time>
      </trkpt>
      <trkpt lat="49.09143" lon="-0.35665">
        <ele>40</ele>
        <time>2024-05-26T07:58:02Z</time>
      </trkpt>
      <trkpt lat="49.09139" lon="-0.35675">
        <ele>40</ele>
        <time>2024-05-26T07:58:03Z</time>
      </trkpt>
      <trkpt lat="49.09136" lon="-0.35685">
        <ele>40</ele>
        <time>2024-05-26T07:58:04Z</time>
      </trkpt>
      <trkpt lat="49.09134" lon="-0.35696">
        <ele>40</ele>
        <time>2024-05-26T07:58:05Z</time>
      </trkpt>
      <trkpt lat="49.09131" lon="-0.35706">
        <ele>40</ele>
        <time>2024-05-26T07:58:06Z</time>
      </trkpt>
      <trkpt lat="49.09129" lon="-0.35717">
        <ele>40</ele>
        <time>2024-05-26T07:58:07Z</time>
      </trkpt>
      <trkpt lat="49.09128" lon="-0.35728">
        <ele>39.8</ele>
        <time>2024-05-26T07:58:08Z</time>
      </trkpt>
      <trkpt lat="49.09126" lon="-0.35739">
        <ele>39.8</ele>
        <time>2024-05-26T07:58:09Z</time>
      </trkpt>
      <trkpt lat="49.09125" lon="-0.3575">
        <ele>39.8</ele>
        <time>2024-05-26T07:58:10Z</time>
      </trkpt>
      <trkpt lat="49.09125" lon="-0.35762">
        <ele>39.8</ele>
        <time>2024-05-26T07:58:11Z</time>
      </trkpt>
      <trkpt lat="49.09124" lon="-0.35773">
        <ele>39.8</ele>
        <time>2024-05-26T07:58:12Z</time>
      </trkpt>
      <trkpt lat="49.09123" lon="-0.35788">
        <ele>39.8</ele>
        <time>2024-05-26T07:58:13Z</time>
      </trkpt>
      <trkpt lat="49.09123" lon="-0.35798">
        <ele>40</ele>
        <time>2024-05-26T07:58:14Z</time>
      </trkpt>
      <trkpt lat="49.09123" lon="-0.3581">
        <ele>40</ele>
        <time>2024-05-26T07:58:15Z</time>
      </trkpt>
      <trkpt lat="49.09122" lon="-0.35823">
        <ele>40</ele>
        <time>2024-05-26T07:58:16Z</time>
      </trkpt>
      <trkpt lat="49.09123" lon="-0.35835">
        <ele>40</ele>
        <time>2024-05-26T07:58:17Z</time>
      </trkpt>
      <trkpt lat="49.09123" lon="-0.35848">
        <ele>40</ele>
        <time>2024-05-26T07:58:18Z</time>
      </trkpt>
      <trkpt lat="49.09123" lon="-0.3586">
        <ele>40</ele>
        <time>2024-05-26T07:58:19Z</time>
      </trkpt>
      <trkpt lat="49.09124" lon="-0.35872">
        <ele>39.8</ele>
        <time>2024-05-26T07:58:20Z</time>
      </trkpt>
      <trkpt lat="49.09125" lon="-0.35885">
        <ele>39.8</ele>
        <time>2024-05-26T07:58:21Z</time>
      </trkpt>
      <trkpt lat="49.09125" lon="-0.35897">
        <ele>39.8</ele>
        <time>2024-05-26T07:58:22Z</time>
      </trkpt>
      <trkpt lat="49.09126" lon="-0.3591">
        <ele>39.8</ele>
        <time>2024-05-26T07:58:23Z</time>
      </trkpt>
      <trkpt lat="49.09126" lon="-0.35922">
        <ele>39.8</ele>
        <time>2024-05-26T07:58:24Z</time>
      </trkpt>
      <trkpt lat="49.09127" lon="-0.35937">
        <ele>39.8</ele>
        <time>2024-05-26T07:58:25Z</time>
      </trkpt>
      <trkpt lat="49.09127" lon="-0.35947">
        <ele>39.6</ele>
        <time>2024-05-26T07:58:26Z</time>
      </trkpt>
      <trkpt lat="49.09127" lon="-0.35959">
        <ele>39.6</ele>
        <time>2024-05-26T07:58:27Z</time>
      </trkpt>
      <trkpt lat="49.09126" lon="-0.35975">
        <ele>39.6</ele>
        <time>2024-05-26T07:58:28Z</time>
      </trkpt>
      <trkpt lat="49.09124" lon="-0.35985">
        <ele>39.6</ele>
        <time>2024-05-26T07:58:29Z</time>
      </trkpt>
      <trkpt lat="49.09122" lon="-0.35998">
        <ele>39.4</ele>
        <time>2024-05-26T07:58:30Z</time>
      </trkpt>
      <trkpt lat="49.09119" lon="-0.36011">
        <ele>39.4</ele>
        <time>2024-05-26T07:58:31Z</time>
      </trkpt>
      <trkpt lat="49.09114" lon="-0.36023">
        <ele>39.4</ele>
        <time>2024-05-26T07:58:32Z</time>
      </trkpt>
      <trkpt lat="49.0911" lon="-0.36034">
        <ele>39.4</ele>
        <time>2024-05-26T07:58:33Z</time>
      </trkpt>
      <trkpt lat="49.09105" lon="-0.36045">
        <ele>39.2</ele>
        <time>2024-05-26T07:58:34Z</time>
      </trkpt>
      <trkpt lat="49.09099" lon="-0.36055">
        <ele>39.2</ele>
        <time>2024-05-26T07:58:35Z</time>
      </trkpt>
      <trkpt lat="49.09093" lon="-0.36065">
        <ele>39</ele>
        <time>2024-05-26T07:58:36Z</time>
      </trkpt>
      <trkpt lat="49.09087" lon="-0.36074">
        <ele>38.8</ele>
        <time>2024-05-26T07:58:37Z</time>
      </trkpt>
      <trkpt lat="49.0908" lon="-0.36084">
        <ele>38.6</ele>
        <time>2024-05-26T07:58:38Z</time>
      </trkpt>
      <trkpt lat="49.09074" lon="-0.36093">
        <ele>38.2</ele>
        <time>2024-05-26T07:58:39Z</time>
      </trkpt>
      <trkpt lat="49.09065" lon="-0.36103">
        <ele>38</ele>
        <time>2024-05-26T07:58:40Z</time>
      </trkpt>
      <trkpt lat="49.0906" lon="-0.3611">
        <ele>37.8</ele>
        <time>2024-05-26T07:58:41Z</time>
      </trkpt>
      <trkpt lat="49.09052" lon="-0.36119">
        <ele>37.2</ele>
        <time>2024-05-26T07:58:42Z</time>
      </trkpt>
      <trkpt lat="49.09044" lon="-0.36129">
        <ele>36.2</ele>
        <time>2024-05-26T07:58:43Z</time>
      </trkpt>
      <trkpt lat="49.09038" lon="-0.36136">
        <ele>35.8</ele>
        <time>2024-05-26T07:58:44Z</time>
      </trkpt>
      <trkpt lat="49.09031" lon="-0.36145">
        <ele>35.4</ele>
        <time>2024-05-26T07:58:45Z</time>
      </trkpt>
      <trkpt lat="49.09024" lon="-0.36154">
        <ele>35.4</ele>
        <time>2024-05-26T07:58:46Z</time>
      </trkpt>
      <trkpt lat="49.09017" lon="-0.36164">
        <ele>35.4</ele>
        <time>2024-05-26T07:58:47Z</time>
      </trkpt>
      <trkpt lat="49.09011" lon="-0.36173">
        <ele>35.2</ele>
        <time>2024-05-26T07:58:48Z</time>
      </trkpt>
      <trkpt lat="49.09004" lon="-0.36183">
        <ele>35</ele>
        <time>2024-05-26T07:58:49Z</time>
      </trkpt>
      <trkpt lat="49.08996" lon="-0.36194">
        <ele>34.8</ele>
        <time>2024-05-26T07:58:50Z</time>
      </trkpt>
      <trkpt lat="49.08991" lon="-0.36202">
        <ele>34.6</ele>
        <time>2024-05-26T07:58:51Z</time>
      </trkpt>
      <trkpt lat="49.08984" lon="-0.36214">
        <ele>34.4</ele>
        <time>2024-05-26T07:58:52Z</time>
      </trkpt>
      <trkpt lat="49.0898" lon="-0.36222">
        <ele>34.2</ele>
        <time>2024-05-26T07:58:53Z</time>
      </trkpt>
      <trkpt lat="49.08974" lon="-0.36232">
        <ele>34</ele>
        <time>2024-05-26T07:58:54Z</time>
      </trkpt>
      <trkpt lat="49.08967" lon="-0.36243">
        <ele>33.4</ele>
        <time>2024-05-26T07:58:55Z</time>
      </trkpt>
      <trkpt lat="49.08963" lon="-0.36251">
        <ele>33.2</ele>
        <time>2024-05-26T07:58:56Z</time>
      </trkpt>
      <trkpt lat="49.08958" lon="-0.3626">
        <ele>33.2</ele>
        <time>2024-05-26T07:58:57Z</time>
      </trkpt>
      <trkpt lat="49.08952" lon="-0.3627">
        <ele>33</ele>
        <time>2024-05-26T07:58:58Z</time>
      </trkpt>
      <trkpt lat="49.08947" lon="-0.36279">
        <ele>33</ele>
        <time>2024-05-26T07:58:59Z</time>
      </trkpt>
      <trkpt lat="49.08941" lon="-0.36289">
        <ele>33</ele>
        <time>2024-05-26T07:59:00Z</time>
      </trkpt>
      <trkpt lat="49.08934" lon="-0.36299">
        <ele>33</ele>
        <time>2024-05-26T07:59:01Z</time>
      </trkpt>
      <trkpt lat="49.0893" lon="-0.36307">
        <ele>33</ele>
        <time>2024-05-26T07:59:02Z</time>
      </trkpt>
      <trkpt lat="49.08924" lon="-0.36316">
        <ele>33</ele>
        <time>2024-05-26T07:59:03Z</time>
      </trkpt>
      <trkpt lat="49.08918" lon="-0.36326">
        <ele>33</ele>
        <time>2024-05-26T07:59:04Z</time>
      </trkpt>
      <trkpt lat="49.08914" lon="-0.36333">
        <ele>33</ele>
        <time>2024-05-26T07:59:05Z</time>
      </trkpt>
      <trkpt lat="49.08907" lon="-0.36343">
        <ele>33.2</ele>
        <time>2024-05-26T07:59:06Z</time>
      </trkpt>
      <trkpt lat="49.08903" lon="-0.3635">
        <ele>33.2</ele>
        <time>2024-05-26T07:59:07Z</time>
      </trkpt>
      <trkpt lat="49.08898" lon="-0.36359">
        <ele>33.4</ele>
        <time>2024-05-26T07:59:08Z</time>
      </trkpt>
      <trkpt lat="49.08893" lon="-0.36367">
        <ele>34</ele>
        <time>2024-05-26T07:59:09Z</time>
      </trkpt>
      <trkpt lat="49.08888" lon="-0.36375">
        <ele>34.4</ele>
        <time>2024-05-26T07:59:10Z</time>
      </trkpt>
      <trkpt lat="49.08884" lon="-0.36384">
        <ele>34.6</ele>
        <time>2024-05-26T07:59:11Z</time>
      </trkpt>
      <trkpt lat="49.08878" lon="-0.36394">
        <ele>34.6</ele>
        <time>2024-05-26T07:59:12Z</time>
      </trkpt>
      <trkpt lat="49.08874" lon="-0.364">
        <ele>35</ele>
        <time>2024-05-26T07:59:13Z</time>
      </trkpt>
      <trkpt lat="49.08868" lon="-0.3641">
        <ele>35.2</ele>
        <time>2024-05-26T07:59:14Z</time>
      </trkpt>
      <trkpt lat="49.08864" lon="-0.36419">
        <ele>35.4</ele>
        <time>2024-05-26T07:59:15Z</time>
      </trkpt>
      <trkpt lat="49.0886" lon="-0.36426">
        <ele>35.8</ele>
        <time>2024-05-26T07:59:16Z</time>
      </trkpt>
      <trkpt lat="49.08855" lon="-0.36437">
        <ele>36</ele>
        <time>2024-05-26T07:59:17Z</time>
      </trkpt>
      <trkpt lat="49.08851" lon="-0.36445">
        <ele>36.2</ele>
        <time>2024-05-26T07:59:18Z</time>
      </trkpt>
      <trkpt lat="49.08846" lon="-0.36454">
        <ele>36.2</ele>
        <time>2024-05-26T07:59:19Z</time>
      </trkpt>
      <trkpt lat="49.08842" lon="-0.36464">
        <ele>36.4</ele>
        <time>2024-05-26T07:59:20Z</time>
      </trkpt>
      <trkpt lat="49.08837" lon="-0.36474">
        <ele>36.4</ele>
        <time>2024-05-26T07:59:21Z</time>
      </trkpt>
      <trkpt lat="49.08831" lon="-0.36486">
        <ele>36.6</ele>
        <time>2024-05-26T07:59:22Z</time>
      </trkpt>
      <trkpt lat="49.08826" lon="-0.36496">
        <ele>36.6</ele>
        <time>2024-05-26T07:59:23Z</time>
      </trkpt>
      <trkpt lat="49.08822" lon="-0.36504">
        <ele>36.6</ele>
        <time>2024-05-26T07:59:24Z</time>
      </trkpt>
      <trkpt lat="49.08816" lon="-0.36517">
        <ele>36.6</ele>
        <time>2024-05-26T07:59:25Z</time>
      </trkpt>
      <trkpt lat="49.08811" lon="-0.36528">
        <ele>36.6</ele>
        <time>2024-05-26T07:59:26Z</time>
      </trkpt>
      <trkpt lat="49.08808" lon="-0.36538">
        <ele>36.4</ele>
        <time>2024-05-26T07:59:27Z</time>
      </trkpt>
      <trkpt lat="49.08802" lon="-0.36551">
        <ele>36.4</ele>
        <time>2024-05-26T07:59:28Z</time>
      </trkpt>
      <trkpt lat="49.08798" lon="-0.3656">
        <ele>36.6</ele>
        <time>2024-05-26T07:59:29Z</time>
      </trkpt>
      <trkpt lat="49.08794" lon="-0.36572">
        <ele>36.4</ele>
        <time>2024-05-26T07:59:30Z</time>
      </trkpt>
      <trkpt lat="49.08789" lon="-0.36584">
        <ele>36.4</ele>
        <time>2024-05-26T07:59:31Z</time>
      </trkpt>
      <trkpt lat="49.08784" lon="-0.36597">
        <ele>36.6</ele>
        <time>2024-05-26T07:59:32Z</time>
      </trkpt>
      <trkpt lat="49.08781" lon="-0.36606">
        <ele>36.4</ele>
        <time>2024-05-26T07:59:33Z</time>
      </trkpt>
      <trkpt lat="49.08777" lon="-0.36618">
        <ele>36.2</ele>
        <time>2024-05-26T07:59:34Z</time>
      </trkpt>
      <trkpt lat="49.08773" lon="-0.3663">
        <ele>36.2</ele>
        <time>2024-05-26T07:59:35Z</time>
      </trkpt>
      <trkpt lat="49.08768" lon="-0.36645">
        <ele>36.2</ele>
        <time>2024-05-26T07:59:36Z</time>
      </trkpt>
      <trkpt lat="49.08764" lon="-0.36655">
        <ele>35.8</ele>
        <time>2024-05-26T07:59:37Z</time>
      </trkpt>
      <trkpt lat="49.0876" lon="-0.36668">
        <ele>35.6</ele>
        <time>2024-05-26T07:59:38Z</time>
      </trkpt>
      <trkpt lat="49.08756" lon="-0.3668">
        <ele>35.2</ele>
        <time>2024-05-26T07:59:39Z</time>
      </trkpt>
      <trkpt lat="49.08752" lon="-0.36693">
        <ele>35</ele>
        <time>2024-05-26T07:59:40Z</time>
      </trkpt>
      <trkpt lat="49.08747" lon="-0.36706">
        <ele>34.2</ele>
        <time>2024-05-26T07:59:41Z</time>
      </trkpt>
      <trkpt lat="49.08743" lon="-0.36719">
        <ele>33.8</ele>
        <time>2024-05-26T07:59:42Z</time>
      </trkpt>
      <trkpt lat="49.08739" lon="-0.36733">
        <ele>33.4</ele>
        <time>2024-05-26T07:59:43Z</time>
      </trkpt>
      <trkpt lat="49.08733" lon="-0.36748">
        <ele>32.8</ele>
        <time>2024-05-26T07:59:44Z</time>
      </trkpt>
      <trkpt lat="49.08729" lon="-0.36759">
        <ele>32.2</ele>
        <time>2024-05-26T07:59:45Z</time>
      </trkpt>
      <trkpt lat="49.08724" lon="-0.36772">
        <ele>31.6</ele>
        <time>2024-05-26T07:59:46Z</time>
      </trkpt>
      <trkpt lat="49.0872" lon="-0.36786">
        <ele>31.4</ele>
        <time>2024-05-26T07:59:47Z</time>
      </trkpt>
      <trkpt lat="49.08715" lon="-0.36799">
        <ele>30.6</ele>
        <time>2024-05-26T07:59:48Z</time>
      </trkpt>
      <trkpt lat="49.0871" lon="-0.36812">
        <ele>30.6</ele>
        <time>2024-05-26T07:59:49Z</time>
      </trkpt>
      <trkpt lat="49.08703" lon="-0.36828">
        <ele>29.8</ele>
        <time>2024-05-26T07:59:50Z</time>
      </trkpt>
      <trkpt lat="49.08699" lon="-0.36839">
        <ele>29</ele>
        <time>2024-05-26T07:59:51Z</time>
      </trkpt>
      <trkpt lat="49.08693" lon="-0.36851">
        <ele>28.6</ele>
        <time>2024-05-26T07:59:52Z</time>
      </trkpt>
      <trkpt lat="49.08686" lon="-0.36864">
        <ele>28</ele>
        <time>2024-05-26T07:59:53Z</time>
      </trkpt>
      <trkpt lat="49.0868" lon="-0.36876">
        <ele>27.4</ele>
        <time>2024-05-26T07:59:54Z</time>
      </trkpt>
      <trkpt lat="49.08672" lon="-0.36887">
        <ele>27</ele>
        <time>2024-05-26T07:59:55Z</time>
      </trkpt>
      <trkpt lat="49.08664" lon="-0.36899">
        <ele>26.8</ele>
        <time>2024-05-26T07:59:56Z</time>
      </trkpt>
      <trkpt lat="49.08658" lon="-0.36908">
        <ele>26.6</ele>
        <time>2024-05-26T07:59:57Z</time>
      </trkpt>
      <trkpt lat="49.08651" lon="-0.36919">
        <ele>26.6</ele>
        <time>2024-05-26T07:59:58Z</time>
      </trkpt>
      <trkpt lat="49.08643" lon="-0.36932">
        <ele>26.2</ele>
        <time>2024-05-26T07:59:59Z</time>
      </trkpt>
      <trkpt lat="49.08638" lon="-0.36941">
        <ele>26</ele>
        <time>2024-05-26T08:00:00Z</time>
      </trkpt>
      <trkpt lat="49.08631" lon="-0.36952">
        <ele>25.8</ele>
        <time>2024-05-26T08:00:01Z</time>
      </trkpt>
      <trkpt lat="49.08625" lon="-0.36963">
        <ele>25.2</ele>
        <time>2024-05-26T08:00:02Z</time>
      </trkpt>
      <trkpt lat="49.08618" lon="-0.36975">
        <ele>24.6</ele>
        <time>2024-05-26T08:00:03Z</time>
      </trkpt>
      <trkpt lat="49.08611" lon="-0.36986">
        <ele>23.8</ele>
        <time>2024-05-26T08:00:04Z</time>
      </trkpt>
      <trkpt lat="49.08604" lon="-0.36998">
        <ele>23</ele>
        <time>2024-05-26T08:00:05Z</time>
      </trkpt>
      <trkpt lat="49.08596" lon="-0.37012">
        <ele>22.2</ele>
        <time>2024-05-26T08:00:06Z</time>
      </trkpt>
      <trkpt lat="49.0859" lon="-0.37021">
        <ele>21.8</ele>
        <time>2024-05-26T08:00:07Z</time>
      </trkpt>
      <trkpt lat="49.08582" lon="-0.37035">
        <ele>21.4</ele>
        <time>2024-05-26T08:00:08Z</time>
      </trkpt>
      <trkpt lat="49.08577" lon="-0.37045">
        <ele>21</ele>
        <time>2024-05-26T08:00:09Z</time>
      </trkpt>
      <trkpt lat="49.08572" lon="-0.37057">
        <ele>21</ele>
        <time>2024-05-26T08:00:10Z</time>
      </trkpt>
      <trkpt lat="49.08567" lon="-0.37069">
        <ele>20.8</ele>
        <time>2024-05-26T08:00:11Z</time>
      </trkpt>
      <trkpt lat="49.08561" lon="-0.37084">
        <ele>20.8</ele>
        <time>2024-05-26T08:00:12Z</time>
      </trkpt>
      <trkpt lat="49.08558" lon="-0.37093">
        <ele>20.6</ele>
        <time>2024-05-26T08:00:13Z</time>
      </trkpt>
      <trkpt lat="49.08553" lon="-0.37108">
        <ele>20.4</ele>
        <time>2024-05-26T08:00:14Z</time>
      </trkpt>
      <trkpt lat="49.08551" lon="-0.37117">
        <ele>20</ele>
        <time>2024-05-26T08:00:15Z</time>
      </trkpt>
      <trkpt lat="49.08547" lon="-0.3713">
        <ele>19.8</ele>
        <time>2024-05-26T08:00:16Z</time>
      </trkpt>
      <trkpt lat="49.08543" lon="-0.37144">
        <ele>19.6</ele>
        <time>2024-05-26T08:00:17Z</time>
      </trkpt>
      <trkpt lat="49.08541" lon="-0.37153">
        <ele>19.4</ele>
        <time>2024-05-26T08:00:18Z</time>
      </trkpt>
      <trkpt lat="49.08538" lon="-0.37165">
        <ele>19.4</ele>
        <time>2024-05-26T08:00:19Z</time>
      </trkpt>
      <trkpt lat="49.08536" lon="-0.37177">
        <ele>19.4</ele>
        <time>2024-05-26T08:00:20Z</time>
      </trkpt>
      <trkpt lat="49.08533" lon="-0.37188">
        <ele>19.4</ele>
        <time>2024-05-26T08:00:21Z</time>
      </trkpt>
      <trkpt lat="49.0853" lon="-0.37199">
        <ele>19.4</ele>
        <time>2024-05-26T08:00:22Z</time>
      </trkpt>
      <trkpt lat="49.08528" lon="-0.37211">
        <ele>19.4</ele>
        <time>2024-05-26T08:00:23Z</time>
      </trkpt>
      <trkpt lat="49.08526" lon="-0.37222">
        <ele>19.4</ele>
        <time>2024-05-26T08:00:24Z</time>
      </trkpt>
      <trkpt lat="49.08523" lon="-0.37234">
        <ele>19.4</ele>
        <time>2024-05-26T08:00:25Z</time>
      </trkpt>
      <trkpt lat="49.08521" lon="-0.37248">
        <ele>19.4</ele>
        <time>2024-05-26T08:00:26Z</time>
      </trkpt>
      <trkpt lat="49.08518" lon="-0.37257">
        <ele>19.4</ele>
        <time>2024-05-26T08:00:27Z</time>
      </trkpt>
      <trkpt lat="49.08516" lon="-0.37269">
        <ele>19.6</ele>
        <time>2024-05-26T08:00:28Z</time>
      </trkpt>
      <trkpt lat="49.08513" lon="-0.37281">
        <ele>19.8</ele>
        <time>2024-05-26T08:00:29Z</time>
      </trkpt>
      <trkpt lat="49.0851" lon="-0.37296">
        <ele>19.8</ele>
        <time>2024-05-26T08:00:30Z</time>
      </trkpt>
      <trkpt lat="49.08509" lon="-0.37306">
        <ele>19.8</ele>
        <time>2024-05-26T08:00:31Z</time>
      </trkpt>
      <trkpt lat="49.08507" lon="-0.37322">
        <ele>19.8</ele>
        <time>2024-05-26T08:00:32Z</time>
      </trkpt>
      <trkpt lat="49.08506" lon="-0.37332">
        <ele>19.8</ele>
        <time>2024-05-26T08:00:33Z</time>
      </trkpt>
      <trkpt lat="49.08505" lon="-0.37345">
        <ele>19.8</ele>
        <time>2024-05-26T08:00:34Z</time>
      </trkpt>
      <trkpt lat="49.08504" lon="-0.37361">
        <ele>19.8</ele>
        <time>2024-05-26T08:00:35Z</time>
      </trkpt>
      <trkpt lat="49.08503" lon="-0.37372">
        <ele>20</ele>
        <time>2024-05-26T08:00:36Z</time>
      </trkpt>
      <trkpt lat="49.08504" lon="-0.37386">
        <ele>20</ele>
        <time>2024-05-26T08:00:37Z</time>
      </trkpt>
      <trkpt lat="49.08504" lon="-0.37402">
        <ele>20</ele>
        <time>2024-05-26T08:00:38Z</time>
      </trkpt>
      <trkpt lat="49.08505" lon="-0.37413">
        <ele>19.8</ele>
        <time>2024-05-26T08:00:39Z</time>
      </trkpt>
      <trkpt lat="49.08505" lon="-0.37427">
        <ele>19.8</ele>
        <time>2024-05-26T08:00:40Z</time>
      </trkpt>
      <trkpt lat="49.08507" lon="-0.37444">
        <ele>19.8</ele>
        <time>2024-05-26T08:00:41Z</time>
      </trkpt>
      <trkpt lat="49.08508" lon="-0.37456">
        <ele>19.8</ele>
        <time>2024-05-26T08:00:42Z</time>
      </trkpt>
      <trkpt lat="49.08511" lon="-0.37472">
        <ele>19.6</ele>
        <time>2024-05-26T08:00:43Z</time>
      </trkpt>
      <trkpt lat="49.08513" lon="-0.37484">
        <ele>19.2</ele>
        <time>2024-05-26T08:00:44Z</time>
      </trkpt>
      <trkpt lat="49.08516" lon="-0.37498">
        <ele>18.8</ele>
        <time>2024-05-26T08:00:45Z</time>
      </trkpt>
      <trkpt lat="49.08519" lon="-0.37512">
        <ele>18.2</ele>
        <time>2024-05-26T08:00:46Z</time>
      </trkpt>
      <trkpt lat="49.08522" lon="-0.37526">
        <ele>18</ele>
        <time>2024-05-26T08:00:47Z</time>
      </trkpt>
      <trkpt lat="49.08525" lon="-0.37541">
        <ele>17</ele>
        <time>2024-05-26T08:00:48Z</time>
      </trkpt>
      <trkpt lat="49.08528" lon="-0.37556">
        <ele>15.8</ele>
        <time>2024-05-26T08:00:49Z</time>
      </trkpt>
      <trkpt lat="49.08531" lon="-0.37571">
        <ele>14</ele>
        <time>2024-05-26T08:00:50Z</time>
      </trkpt>
      <trkpt lat="49.08534" lon="-0.37586">
        <ele>14</ele>
        <time>2024-05-26T08:00:51Z</time>
      </trkpt>
      <trkpt lat="49.08537" lon="-0.37604">
        <ele>13.2</ele>
        <time>2024-05-26T08:00:52Z</time>
      </trkpt>
      <trkpt lat="49.0854" lon="-0.37618">
        <ele>12.6</ele>
        <time>2024-05-26T08:00:53Z</time>
      </trkpt>
      <trkpt lat="49.08543" lon="-0.3763">
        <ele>11.8</ele>
        <time>2024-05-26T08:00:54Z</time>
      </trkpt>
      <trkpt lat="49.08546" lon="-0.37647">
        <ele>11.2</ele>
        <time>2024-05-26T08:00:55Z</time>
      </trkpt>
      <trkpt lat="49.08548" lon="-0.37658">
        <ele>10.8</ele>
        <time>2024-05-26T08:00:56Z</time>
      </trkpt>
      <trkpt lat="49.08551" lon="-0.37672">
        <ele>10.4</ele>
        <time>2024-05-26T08:00:57Z</time>
      </trkpt>
      <trkpt lat="49.08554" lon="-0.37685">
        <ele>9.4</ele>
        <time>2024-05-26T08:00:58Z</time>
      </trkpt>
      <trkpt lat="49.08556" lon="-0.37695">
        <ele>8.6</ele>
        <time>2024-05-26T08:00:59Z</time>
      </trkpt>
      <trkpt lat="49.08559" lon="-0.3771">
        <ele>7.6</ele>
        <time>2024-05-26T08:01:00Z</time>
      </trkpt>
      <trkpt lat="49.08562" lon="-0.37722">
        <ele>6.8</ele>
        <time>2024-05-26T08:01:01Z</time>
      </trkpt>
      <trkpt lat="49.08564" lon="-0.37735">
        <ele>6.4</ele>
        <time>2024-05-26T08:01:02Z</time>
      </trkpt>
      <trkpt lat="49.08566" lon="-0.37746">
        <ele>6.2</ele>
        <time>2024-05-26T08:01:03Z</time>
      </trkpt>
      <trkpt lat="49.08568" lon="-0.37758">
        <ele>6.2</ele>
        <time>2024-05-26T08:01:04Z</time>
      </trkpt>
      <trkpt lat="49.08571" lon="-0.37769">
        <ele>6</ele>
        <time>2024-05-26T08:01:05Z</time>
      </trkpt>
      <trkpt lat="49.08573" lon="-0.37777">
        <ele>5.8</ele>
        <time>2024-05-26T08:01:06Z</time>
      </trkpt>
      <trkpt lat="49.08574" lon="-0.37788">
        <ele>5.8</ele>
        <time>2024-05-26T08:01:07Z</time>
      </trkpt>
      <trkpt lat="49.08576" lon="-0.378">
        <ele>6</ele>
        <time>2024-05-26T08:01:08Z</time>
      </trkpt>
      <trkpt lat="49.08576" lon="-0.37813">
        <ele>5.8</ele>
        <time>2024-05-26T08:01:09Z</time>
      </trkpt>
      <trkpt lat="49.08577" lon="-0.37825">
        <ele>5.8</ele>
        <time>2024-05-26T08:01:10Z</time>
      </trkpt>
      <trkpt lat="49.08577" lon="-0.37836">
        <ele>5.8</ele>
        <time>2024-05-26T08:01:11Z</time>
      </trkpt>
      <trkpt lat="49.08577" lon="-0.37846">
        <ele>5.8</ele>
        <time>2024-05-26T08:01:12Z</time>
      </trkpt>
      <trkpt lat="49.08577" lon="-0.37857">
        <ele>6.2</ele>
        <time>2024-05-26T08:01:13Z</time>
      </trkpt>
      <trkpt lat="49.08578" lon="-0.37867">
        <ele>6.2</ele>
        <time>2024-05-26T08:01:14Z</time>
      </trkpt>
      <trkpt lat="49.08579" lon="-0.37876">
        <ele>6.8</ele>
        <time>2024-05-26T08:01:15Z</time>
      </trkpt>
      <trkpt lat="49.0858" lon="-0.37885">
        <ele>7</ele>
        <time>2024-05-26T08:01:16Z</time>
      </trkpt>
      <trkpt lat="49.08583" lon="-0.37891">
        <ele>7.6</ele>
        <time>2024-05-26T08:01:17Z</time>
      </trkpt>
      <trkpt lat="49.08586" lon="-0.37896">
        <ele>7.8</ele>
        <time>2024-05-26T08:01:18Z</time>
      </trkpt>
      <trkpt lat="49.08589" lon="-0.37899">
        <ele>8.2</ele>
        <time>2024-05-26T08:01:19Z</time>
      </trkpt>
      <trkpt lat="49.08593" lon="-0.37902">
        <ele>8.6</ele>
        <time>2024-05-26T08:01:20Z</time>
      </trkpt>
      <trkpt lat="49.08596" lon="-0.37903">
        <ele>8.8</ele>
        <time>2024-05-26T08:01:21Z</time>
      </trkpt>
      <trkpt lat="49.08598" lon="-0.37905">
        <ele>9</ele>
        <time>2024-05-26T08:01:22Z</time>
      </trkpt>
      <trkpt lat="49.08599" lon="-0.37907">
        <ele>9.2</ele>
        <time>2024-05-26T08:01:23Z</time>
      </trkpt>
      <trkpt lat="49.08601" lon="-0.37911">
        <ele>9.4</ele>
        <time>2024-05-26T08:01:24Z</time>
      </trkpt>
      <trkpt lat="49.08601" lon="-0.37916">
        <ele>9.4</ele>
        <time>2024-05-26T08:01:25Z</time>
      </trkpt>
      <trkpt lat="49.08599" lon="-0.37922">
        <ele>9.8</ele>
        <time>2024-05-26T08:01:26Z</time>
      </trkpt>
      <trkpt lat="49.08597" lon="-0.37929">
        <ele>10</ele>
        <time>2024-05-26T08:01:27Z</time>
      </trkpt>
      <trkpt lat="49.08594" lon="-0.37935">
        <ele>10.2</ele>
        <time>2024-05-26T08:01:28Z</time>
      </trkpt>
      <trkpt lat="49.08589" lon="-0.37942">
        <ele>10.2</ele>
        <time>2024-05-26T08:01:29Z</time>
      </trkpt>
      <trkpt lat="49.08584" lon="-0.37948">
        <ele>10.2</ele>
        <time>2024-05-26T08:01:30Z</time>
      </trkpt>
      <trkpt lat="49.08578" lon="-0.37953">
        <ele>10.2</ele>
        <time>2024-05-26T08:01:31Z</time>
      </trkpt>
      <trkpt lat="49.08571" lon="-0.37958">
        <ele>10.2</ele>
        <time>2024-05-26T08:01:32Z</time>
      </trkpt>
      <trkpt lat="49.08565" lon="-0.37964">
        <ele>10.2</ele>
        <time>2024-05-26T08:01:33Z</time>
      </trkpt>
      <trkpt lat="49.08559" lon="-0.37971">
        <ele>10.2</ele>
        <time>2024-05-26T08:01:34Z</time>
      </trkpt>
      <trkpt lat="49.08552" lon="-0.37977">
        <ele>10.2</ele>
        <time>2024-05-26T08:01:35Z</time>
      </trkpt>
      <trkpt lat="49.08545" lon="-0.37983">
        <ele>10.2</ele>
        <time>2024-05-26T08:01:36Z</time>
      </trkpt>
      <trkpt lat="49.08538" lon="-0.37989">
        <ele>10.2</ele>
        <time>2024-05-26T08:01:37Z</time>
      </trkpt>
      <trkpt lat="49.08532" lon="-0.37995">
        <ele>10.2</ele>
        <time>2024-05-26T08:01:38Z</time>
      </trkpt>
      <trkpt lat="49.08525" lon="-0.38001">
        <ele>10.2</ele>
        <time>2024-05-26T08:01:39Z</time>
      </trkpt>
      <trkpt lat="49.08518" lon="-0.38006">
        <ele>9.8</ele>
        <time>2024-05-26T08:01:40Z</time>
      </trkpt>
      <trkpt lat="49.08512" lon="-0.3801">
        <ele>9.4</ele>
        <time>2024-05-26T08:01:41Z</time>
      </trkpt>
      <trkpt lat="49.08505" lon="-0.38015">
        <ele>9</ele>
        <time>2024-05-26T08:01:42Z</time>
      </trkpt>
      <trkpt lat="49.08499" lon="-0.38019">
        <ele>8.6</ele>
        <time>2024-05-26T08:01:43Z</time>
      </trkpt>
      <trkpt lat="49.08493" lon="-0.38022">
        <ele>8.6</ele>
        <time>2024-05-26T08:01:44Z</time>
      </trkpt>
      <trkpt lat="49.08489" lon="-0.38025">
        <ele>8.4</ele>
        <time>2024-05-26T08:01:45Z</time>
      </trkpt>
      <trkpt lat="49.08481" lon="-0.38028">
        <ele>8.4</ele>
        <time>2024-05-26T08:01:46Z</time>
      </trkpt>
      <trkpt lat="49.08477" lon="-0.3803">
        <ele>8.4</ele>
        <time>2024-05-26T08:01:47Z</time>
      </trkpt>
      <trkpt lat="49.08471" lon="-0.38033">
        <ele>8.4</ele>
        <time>2024-05-26T08:01:48Z</time>
      </trkpt>
      <trkpt lat="49.08466" lon="-0.38036">
        <ele>8.4</ele>
        <time>2024-05-26T08:01:49Z</time>
      </trkpt>
      <trkpt lat="49.08461" lon="-0.38038">
        <ele>8.4</ele>
        <time>2024-05-26T08:01:50Z</time>
      </trkpt>
      <trkpt lat="49.08455" lon="-0.38041">
        <ele>8.4</ele>
        <time>2024-05-26T08:01:51Z</time>
      </trkpt>
      <trkpt lat="49.08451" lon="-0.38043">
        <ele>8.6</ele>
        <time>2024-05-26T08:01:52Z</time>
      </trkpt>
      <trkpt lat="49.08446" lon="-0.38046">
        <ele>8.8</ele>
        <time>2024-05-26T08:01:53Z</time>
      </trkpt>
      <trkpt lat="49.08441" lon="-0.38049">
        <ele>8.8</ele>
        <time>2024-05-26T08:01:54Z</time>
      </trkpt>
      <trkpt lat="49.08435" lon="-0.38052">
        <ele>9</ele>
        <time>2024-05-26T08:01:55Z</time>
      </trkpt>
      <trkpt lat="49.08431" lon="-0.38055">
        <ele>9.4</ele>
        <time>2024-05-26T08:01:56Z</time>
      </trkpt>
      <trkpt lat="49.08426" lon="-0.38058">
        <ele>9.6</ele>
        <time>2024-05-26T08:01:57Z</time>
      </trkpt>
      <trkpt lat="49.08421" lon="-0.38061">
        <ele>10.2</ele>
        <time>2024-05-26T08:01:58Z</time>
      </trkpt>
      <trkpt lat="49.08416" lon="-0.38063">
        <ele>10.6</ele>
        <time>2024-05-26T08:01:59Z</time>
      </trkpt>
      <trkpt lat="49.08411" lon="-0.38065">
        <ele>11</ele>
        <time>2024-05-26T08:02:00Z</time>
      </trkpt>
      <trkpt lat="49.08406" lon="-0.38068">
        <ele>11.4</ele>
        <time>2024-05-26T08:02:01Z</time>
      </trkpt>
      <trkpt lat="49.08402" lon="-0.3807">
        <ele>11.6</ele>
        <time>2024-05-26T08:02:02Z</time>
      </trkpt>
      <trkpt lat="49.08397" lon="-0.38073">
        <ele>12</ele>
        <time>2024-05-26T08:02:03Z</time>
      </trkpt>
      <trkpt lat="49.08392" lon="-0.38076">
        <ele>12.4</ele>
        <time>2024-05-26T08:02:04Z</time>
      </trkpt>
      <trkpt lat="49.08387" lon="-0.38079">
        <ele>12.8</ele>
        <time>2024-05-26T08:02:05Z</time>
      </trkpt>
      <trkpt lat="49.08382" lon="-0.38081">
        <ele>13</ele>
        <time>2024-05-26T08:02:06Z</time>
      </trkpt>
      <trkpt lat="49.08377" lon="-0.38085">
        <ele>13</ele>
        <time>2024-05-26T08:02:07Z</time>
      </trkpt>
      <trkpt lat="49.08373" lon="-0.38087">
        <ele>13.4</ele>
        <time>2024-05-26T08:02:08Z</time>
      </trkpt>
      <trkpt lat="49.08368" lon="-0.3809">
        <ele>13.8</ele>
        <time>2024-05-26T08:02:09Z</time>
      </trkpt>
      <trkpt lat="49.08364" lon="-0.38093">
        <ele>14.2</ele>
        <time>2024-05-26T08:02:10Z</time>
      </trkpt>
      <trkpt lat="49.08359" lon="-0.38095">
        <ele>14.4</ele>
        <time>2024-05-26T08:02:11Z</time>
      </trkpt>
      <trkpt lat="49.08354" lon="-0.38098">
        <ele>14.8</ele>
        <time>2024-05-26T08:02:12Z</time>
      </trkpt>
      <trkpt lat="49.08349" lon="-0.38101">
        <ele>15.2</ele>
        <time>2024-05-26T08:02:13Z</time>
      </trkpt>
      <trkpt lat="49.08345" lon="-0.38104">
        <ele>15.4</ele>
        <time>2024-05-26T08:02:14Z</time>
      </trkpt>
      <trkpt lat="49.0834" lon="-0.38106">
        <ele>15.4</ele>
        <time>2024-05-26T08:02:15Z</time>
      </trkpt>
      <trkpt lat="49.08336" lon="-0.38109">
        <ele>15.6</ele>
        <time>2024-05-26T08:02:16Z</time>
      </trkpt>
      <trkpt lat="49.08331" lon="-0.38112">
        <ele>16</ele>
        <time>2024-05-26T08:02:17Z</time>
      </trkpt>
      <trkpt lat="49.08327" lon="-0.38114">
        <ele>16.2</ele>
        <time>2024-05-26T08:02:18Z</time>
      </trkpt>
      <trkpt lat="49.08322" lon="-0.38117">
        <ele>16.4</ele>
        <time>2024-05-26T08:02:19Z</time>
      </trkpt>
      <trkpt lat="49.08317" lon="-0.38119">
        <ele>16.6</ele>
        <time>2024-05-26T08:02:20Z</time>
      </trkpt>
      <trkpt lat="49.08312" lon="-0.38122">
        <ele>16.6</ele>
        <time>2024-05-26T08:02:21Z</time>
      </trkpt>
      <trkpt lat="49.08308" lon="-0.38125">
        <ele>16.8</ele>
        <time>2024-05-26T08:02:22Z</time>
      </trkpt>
      <trkpt lat="49.08303" lon="-0.38127">
        <ele>17.2</ele>
        <time>2024-05-26T08:02:23Z</time>
      </trkpt>
      <trkpt lat="49.08299" lon="-0.3813">
        <ele>17.8</ele>
        <time>2024-05-26T08:02:24Z</time>
      </trkpt>
      <trkpt lat="49.08294" lon="-0.38133">
        <ele>18</ele>
        <time>2024-05-26T08:02:25Z</time>
      </trkpt>
      <trkpt lat="49.08289" lon="-0.38136">
        <ele>18.6</ele>
        <time>2024-05-26T08:02:26Z</time>
      </trkpt>
      <trkpt lat="49.08284" lon="-0.38139">
        <ele>19</ele>
        <time>2024-05-26T08:02:27Z</time>
      </trkpt>
      <trkpt lat="49.0828" lon="-0.38141">
        <ele>19.4</ele>
        <time>2024-05-26T08:02:28Z</time>
      </trkpt>
      <trkpt lat="49.08275" lon="-0.38144">
        <ele>19.6</ele>
        <time>2024-05-26T08:02:29Z</time>
      </trkpt>
      <trkpt lat="49.0827" lon="-0.38147">
        <ele>20.2</ele>
        <time>2024-05-26T08:02:30Z</time>
      </trkpt>
      <trkpt lat="49.08265" lon="-0.3815">
        <ele>20.4</ele>
        <time>2024-05-26T08:02:31Z</time>
      </trkpt>
      <trkpt lat="49.08261" lon="-0.38153">
        <ele>20.8</ele>
        <time>2024-05-26T08:02:32Z</time>
      </trkpt>
      <trkpt lat="49.08255" lon="-0.38156">
        <ele>21</ele>
        <time>2024-05-26T08:02:33Z</time>
      </trkpt>
      <trkpt lat="49.0825" lon="-0.38158">
        <ele>21.4</ele>
        <time>2024-05-26T08:02:34Z</time>
      </trkpt>
      <trkpt lat="49.08246" lon="-0.3816">
        <ele>21.6</ele>
        <time>2024-05-26T08:02:35Z</time>
      </trkpt>
      <trkpt lat="49.08241" lon="-0.38164">
        <ele>21.6</ele>
        <time>2024-05-26T08:02:36Z</time>
      </trkpt>
      <trkpt lat="49.08237" lon="-0.38166">
        <ele>21.8</ele>
        <time>2024-05-26T08:02:37Z</time>
      </trkpt>
      <trkpt lat="49.08232" lon="-0.38168">
        <ele>22</ele>
        <time>2024-05-26T08:02:38Z</time>
      </trkpt>
      <trkpt lat="49.08226" lon="-0.38171">
        <ele>22.4</ele>
        <time>2024-05-26T08:02:39Z</time>
      </trkpt>
      <trkpt lat="49.08223" lon="-0.38173">
        <ele>22.6</ele>
        <time>2024-05-26T08:02:40Z</time>
      </trkpt>
      <trkpt lat="49.08218" lon="-0.38175">
        <ele>22.8</ele>
        <time>2024-05-26T08:02:41Z</time>
      </trkpt>
      <trkpt lat="49.08212" lon="-0.38179">
        <ele>23.2</ele>
        <time>2024-05-26T08:02:42Z</time>
      </trkpt>
      <trkpt lat="49.08208" lon="-0.38182">
        <ele>23.4</ele>
        <time>2024-05-26T08:02:43Z</time>
      </trkpt>
      <trkpt lat="49.08204" lon="-0.38184">
        <ele>23.6</ele>
        <time>2024-05-26T08:02:44Z</time>
      </trkpt>
      <trkpt lat="49.08198" lon="-0.38187">
        <ele>23.8</ele>
        <time>2024-05-26T08:02:45Z</time>
      </trkpt>
      <trkpt lat="49.08194" lon="-0.38189">
        <ele>24.2</ele>
        <time>2024-05-26T08:02:46Z</time>
      </trkpt>
      <trkpt lat="49.08189" lon="-0.38192">
        <ele>24.6</ele>
        <time>2024-05-26T08:02:47Z</time>
      </trkpt>
      <trkpt lat="49.08184" lon="-0.38194">
        <ele>24.8</ele>
        <time>2024-05-26T08:02:48Z</time>
      </trkpt>
      <trkpt lat="49.08179" lon="-0.38197">
        <ele>25</ele>
        <time>2024-05-26T08:02:49Z</time>
      </trkpt>
      <trkpt lat="49.08175" lon="-0.38199">
        <ele>25.4</ele>
        <time>2024-05-26T08:02:50Z</time>
      </trkpt>
      <trkpt lat="49.08169" lon="-0.38203">
        <ele>25.8</ele>
        <time>2024-05-26T08:02:51Z</time>
      </trkpt>
      <trkpt lat="49.08165" lon="-0.38205">
        <ele>26.2</ele>
        <time>2024-05-26T08:02:52Z</time>
      </trkpt>
      <trkpt lat="49.08161" lon="-0.38208">
        <ele>26.6</ele>
        <time>2024-05-26T08:02:53Z</time>
      </trkpt>
      <trkpt lat="49.08156" lon="-0.38211">
        <ele>26.8</ele>
        <time>2024-05-26T08:02:54Z</time>
      </trkpt>
      <trkpt lat="49.0815" lon="-0.38214">
        <ele>26.8</ele>
        <time>2024-05-26T08:02:55Z</time>
      </trkpt>
      <trkpt lat="49.08147" lon="-0.38216">
        <ele>27.2</ele>
        <time>2024-05-26T08:02:56Z</time>
      </trkpt>
      <trkpt lat="49.08142" lon="-0.38219">
        <ele>27.2</ele>
        <time>2024-05-26T08:02:57Z</time>
      </trkpt>
      <trkpt lat="49.08136" lon="-0.38222">
        <ele>27.6</ele>
        <time>2024-05-26T08:02:58Z</time>
      </trkpt>
      <trkpt lat="49.08133" lon="-0.38224">
        <ele>28</ele>
        <time>2024-05-26T08:02:59Z</time>
      </trkpt>
      <trkpt lat="49.08127" lon="-0.38227">
        <ele>28.4</ele>
        <time>2024-05-26T08:03:00Z</time>
      </trkpt>
      <trkpt lat="49.08123" lon="-0.3823">
        <ele>28.6</ele>
        <time>2024-05-26T08:03:01Z</time>
      </trkpt>
      <trkpt lat="49.08119" lon="-0.38232">
        <ele>28.8</ele>
        <time>2024-05-26T08:03:02Z</time>
      </trkpt>
      <trkpt lat="49.08113" lon="-0.38235">
        <ele>29</ele>
        <time>2024-05-26T08:03:03Z</time>
      </trkpt>
      <trkpt lat="49.08109" lon="-0.38237">
        <ele>29.2</ele>
        <time>2024-05-26T08:03:04Z</time>
      </trkpt>
      <trkpt lat="49.08104" lon="-0.3824">
        <ele>29.6</ele>
        <time>2024-05-26T08:03:05Z</time>
      </trkpt>
      <trkpt lat="49.08099" lon="-0.38243">
        <ele>29.8</ele>
        <time>2024-05-26T08:03:06Z</time>
      </trkpt>
      <trkpt lat="49.08095" lon="-0.38246">
        <ele>30.4</ele>
        <time>2024-05-26T08:03:07Z</time>
      </trkpt>
      <trkpt lat="49.08089" lon="-0.38249">
        <ele>30.4</ele>
        <time>2024-05-26T08:03:08Z</time>
      </trkpt>
      <trkpt lat="49.08083" lon="-0.38252">
        <ele>30.6</ele>
        <time>2024-05-26T08:03:09Z</time>
      </trkpt>
      <trkpt lat="49.08079" lon="-0.38254">
        <ele>31</ele>
        <time>2024-05-26T08:03:10Z</time>
      </trkpt>
      <trkpt lat="49.08074" lon="-0.38257">
        <ele>31.2</ele>
        <time>2024-05-26T08:03:11Z</time>
      </trkpt>
      <trkpt lat="49.0807" lon="-0.3826">
        <ele>31.4</ele>
        <time>2024-05-26T08:03:12Z</time>
      </trkpt>
      <trkpt lat="49.08065" lon="-0.38263">
        <ele>31.6</ele>
        <time>2024-05-26T08:03:13Z</time>
      </trkpt>
      <trkpt lat="49.08059" lon="-0.38266">
        <ele>31.6</ele>
        <time>2024-05-26T08:03:14Z</time>
      </trkpt>
      <trkpt lat="49.08054" lon="-0.3827">
        <ele>31.8</ele>
        <time>2024-05-26T08:03:15Z</time>
      </trkpt>
      <trkpt lat="49.08049" lon="-0.38272">
        <ele>31.8</ele>
        <time>2024-05-26T08:03:16Z</time>
      </trkpt>
      <trkpt lat="49.08044" lon="-0.38275">
        <ele>32</ele>
        <time>2024-05-26T08:03:17Z</time>
      </trkpt>
      <trkpt lat="49.08038" lon="-0.38279">
        <ele>32</ele>
        <time>2024-05-26T08:03:18Z</time>
      </trkpt>
      <trkpt lat="49.08034" lon="-0.38281">
        <ele>32</ele>
        <time>2024-05-26T08:03:19Z</time>
      </trkpt>
      <trkpt lat="49.08029" lon="-0.38285">
        <ele>32.2</ele>
        <time>2024-05-26T08:03:20Z</time>
      </trkpt>
      <trkpt lat="49.08024" lon="-0.38288">
        <ele>32.2</ele>
        <time>2024-05-26T08:03:21Z</time>
      </trkpt>
      <trkpt lat="49.08019" lon="-0.38292">
        <ele>32.4</ele>
        <time>2024-05-26T08:03:22Z</time>
      </trkpt>
      <trkpt lat="49.08015" lon="-0.38294">
        <ele>32.6</ele>
        <time>2024-05-26T08:03:23Z</time>
      </trkpt>
      <trkpt lat="49.0801" lon="-0.38298">
        <ele>32.8</ele>
        <time>2024-05-26T08:03:24Z</time>
      </trkpt>
      <trkpt lat="49.08005" lon="-0.38301">
        <ele>33.2</ele>
        <time>2024-05-26T08:03:25Z</time>
      </trkpt>
      <trkpt lat="49.08001" lon="-0.38304">
        <ele>33.4</ele>
        <time>2024-05-26T08:03:26Z</time>
      </trkpt>
      <trkpt lat="49.07995" lon="-0.38307">
        <ele>33.8</ele>
        <time>2024-05-26T08:03:27Z</time>
      </trkpt>
      <trkpt lat="49.07992" lon="-0.3831">
        <ele>34.2</ele>
        <time>2024-05-26T08:03:28Z</time>
      </trkpt>
      <trkpt lat="49.07987" lon="-0.38313">
        <ele>34.6</ele>
        <time>2024-05-26T08:03:29Z</time>
      </trkpt>
      <trkpt lat="49.07982" lon="-0.38316">
        <ele>34.8</ele>
        <time>2024-05-26T08:03:30Z</time>
      </trkpt>
      <trkpt lat="49.07977" lon="-0.38319">
        <ele>35</ele>
        <time>2024-05-26T08:03:31Z</time>
      </trkpt>
      <trkpt lat="49.07972" lon="-0.38322">
        <ele>35.4</ele>
        <time>2024-05-26T08:03:32Z</time>
      </trkpt>
      <trkpt lat="49.07968" lon="-0.38325">
        <ele>35.6</ele>
        <time>2024-05-26T08:03:33Z</time>
      </trkpt>
      <trkpt lat="49.07963" lon="-0.38328">
        <ele>35.8</ele>
        <time>2024-05-26T08:03:34Z</time>
      </trkpt>
      <trkpt lat="49.07959" lon="-0.38331">
        <ele>36.2</ele>
        <time>2024-05-26T08:03:35Z</time>
      </trkpt>
      <trkpt lat="49.07954" lon="-0.38334">
        <ele>36.2</ele>
        <time>2024-05-26T08:03:36Z</time>
      </trkpt>
      <trkpt lat="49.07948" lon="-0.38338">
        <ele>36.4</ele>
        <time>2024-05-26T08:03:37Z</time>
      </trkpt>
      <trkpt lat="49.07944" lon="-0.3834">
        <ele>36.4</ele>
        <time>2024-05-26T08:03:38Z</time>
      </trkpt>
      <trkpt lat="49.07939" lon="-0.38344">
        <ele>36.4</ele>
        <time>2024-05-26T08:03:39Z</time>
      </trkpt>
      <trkpt lat="49.07935" lon="-0.38346">
        <ele>36.4</ele>
        <time>2024-05-26T08:03:40Z</time>
      </trkpt>
      <trkpt lat="49.0793" lon="-0.3835">
        <ele>36.6</ele>
        <time>2024-05-26T08:03:41Z</time>
      </trkpt>
      <trkpt lat="49.07924" lon="-0.38354">
        <ele>36.6</ele>
        <time>2024-05-26T08:03:42Z</time>
      </trkpt>
      <trkpt lat="49.0792" lon="-0.38357">
        <ele>36.8</ele>
        <time>2024-05-26T08:03:43Z</time>
      </trkpt>
      <trkpt lat="49.07916" lon="-0.38359">
        <ele>37</ele>
        <time>2024-05-26T08:03:44Z</time>
      </trkpt>
      <trkpt lat="49.07912" lon="-0.38363">
        <ele>37.4</ele>
        <time>2024-05-26T08:03:45Z</time>
      </trkpt>
      <trkpt lat="49.07906" lon="-0.38368">
        <ele>37.8</ele>
        <time>2024-05-26T08:03:46Z</time>
      </trkpt>
      <trkpt lat="49.07902" lon="-0.38371">
        <ele>38</ele>
        <time>2024-05-26T08:03:47Z</time>
      </trkpt>
      <trkpt lat="49.07898" lon="-0.38374">
        <ele>38.2</ele>
        <time>2024-05-26T08:03:48Z</time>
      </trkpt>
      <trkpt lat="49.07892" lon="-0.38378">
        <ele>38.4</ele>
        <time>2024-05-26T08:03:49Z</time>
      </trkpt>
      <trkpt lat="49.07888" lon="-0.38381">
        <ele>38.8</ele>
        <time>2024-05-26T08:03:50Z</time>
      </trkpt>
      <trkpt lat="49.07883" lon="-0.38384">
        <ele>39</ele>
        <time>2024-05-26T08:03:51Z</time>
      </trkpt>
      <trkpt lat="49.07877" lon="-0.38388">
        <ele>39.6</ele>
        <time>2024-05-26T08:03:52Z</time>
      </trkpt>
      <trkpt lat="49.07872" lon="-0.38391">
        <ele>40</ele>
        <time>2024-05-26T08:03:53Z</time>
      </trkpt>
      <trkpt lat="49.07866" lon="-0.38396">
        <ele>40.4</ele>
        <time>2024-05-26T08:03:54Z</time>
      </trkpt>
      <trkpt lat="49.07862" lon="-0.38399">
        <ele>40.8</ele>
        <time>2024-05-26T08:03:55Z</time>
      </trkpt>
      <trkpt lat="49.07858" lon="-0.38402">
        <ele>41</ele>
        <time>2024-05-26T08:03:56Z</time>
      </trkpt>
      <trkpt lat="49.07853" lon="-0.38406">
        <ele>41.4</ele>
        <time>2024-05-26T08:03:57Z</time>
      </trkpt>
      <trkpt lat="49.07849" lon="-0.3841">
        <ele>41.8</ele>
        <time>2024-05-26T08:03:58Z</time>
      </trkpt>
      <trkpt lat="49.07844" lon="-0.38413">
        <ele>42</ele>
        <time>2024-05-26T08:03:59Z</time>
      </trkpt>
      <trkpt lat="49.0784" lon="-0.38417">
        <ele>42.2</ele>
        <time>2024-05-26T08:04:00Z</time>
      </trkpt>
      <trkpt lat="49.07835" lon="-0.38422">
        <ele>42.2</ele>
        <time>2024-05-26T08:04:01Z</time>
      </trkpt>
      <trkpt lat="49.07831" lon="-0.38425">
        <ele>42.2</ele>
        <time>2024-05-26T08:04:02Z</time>
      </trkpt>
      <trkpt lat="49.07826" lon="-0.3843">
        <ele>42.4</ele>
        <time>2024-05-26T08:04:03Z</time>
      </trkpt>
      <trkpt lat="49.07823" lon="-0.38433">
        <ele>42.4</ele>
        <time>2024-05-26T08:04:04Z</time>
      </trkpt>
      <trkpt lat="49.07818" lon="-0.38437">
        <ele>42.4</ele>
        <time>2024-05-26T08:04:05Z</time>
      </trkpt>
      <trkpt lat="49.07813" lon="-0.38442">
        <ele>42.6</ele>
        <time>2024-05-26T08:04:06Z</time>
      </trkpt>
      <trkpt lat="49.07809" lon="-0.38445">
        <ele>42.6</ele>
        <time>2024-05-26T08:04:07Z</time>
      </trkpt>
      <trkpt lat="49.07804" lon="-0.38449">
        <ele>42.6</ele>
        <time>2024-05-26T08:04:08Z</time>
      </trkpt>
      <trkpt lat="49.07799" lon="-0.38452">
        <ele>42.6</ele>
        <time>2024-05-26T08:04:09Z</time>
      </trkpt>
      <trkpt lat="49.07794" lon="-0.38455">
        <ele>42.8</ele>
        <time>2024-05-26T08:04:10Z</time>
      </trkpt>
      <trkpt lat="49.0779" lon="-0.38459">
        <ele>43</ele>
        <time>2024-05-26T08:04:11Z</time>
      </trkpt>
      <trkpt lat="49.07786" lon="-0.38462">
        <ele>43</ele>
        <time>2024-05-26T08:04:12Z</time>
      </trkpt>
      <trkpt lat="49.07781" lon="-0.38466">
        <ele>43.4</ele>
        <time>2024-05-26T08:04:13Z</time>
      </trkpt>
      <trkpt lat="49.07776" lon="-0.3847">
        <ele>43.4</ele>
        <time>2024-05-26T08:04:14Z</time>
      </trkpt>
      <trkpt lat="49.07772" lon="-0.38474">
        <ele>44</ele>
        <time>2024-05-26T08:04:15Z</time>
      </trkpt>
      <trkpt lat="49.07767" lon="-0.38477">
        <ele>44.4</ele>
        <time>2024-05-26T08:04:16Z</time>
      </trkpt>
      <trkpt lat="49.07761" lon="-0.38481">
        <ele>44.6</ele>
        <time>2024-05-26T08:04:17Z</time>
      </trkpt>
      <trkpt lat="49.07758" lon="-0.38484">
        <ele>44.8</ele>
        <time>2024-05-26T08:04:18Z</time>
      </trkpt>
      <trkpt lat="49.07753" lon="-0.38487">
        <ele>45</ele>
        <time>2024-05-26T08:04:19Z</time>
      </trkpt>
      <trkpt lat="49.07749" lon="-0.38491">
        <ele>45</ele>
        <time>2024-05-26T08:04:20Z</time>
      </trkpt>
      <trkpt lat="49.07744" lon="-0.38495">
        <ele>45.4</ele>
        <time>2024-05-26T08:04:21Z</time>
      </trkpt>
      <trkpt lat="49.0774" lon="-0.38499">
        <ele>45.4</ele>
        <time>2024-05-26T08:04:22Z</time>
      </trkpt>
      <trkpt lat="49.07736" lon="-0.38503">
        <ele>45.8</ele>
        <time>2024-05-26T08:04:23Z</time>
      </trkpt>
      <trkpt lat="49.07731" lon="-0.38507">
        <ele>46.2</ele>
        <time>2024-05-26T08:04:24Z</time>
      </trkpt>
      <trkpt lat="49.07726" lon="-0.3851">
        <ele>46.8</ele>
        <time>2024-05-26T08:04:25Z</time>
      </trkpt>
      <trkpt lat="49.07721" lon="-0.38515">
        <ele>47.2</ele>
        <time>2024-05-26T08:04:26Z</time>
      </trkpt>
      <trkpt lat="49.07718" lon="-0.38518">
        <ele>47.4</ele>
        <time>2024-05-26T08:04:27Z</time>
      </trkpt>
      <trkpt lat="49.07714" lon="-0.38522">
        <ele>47.6</ele>
        <time>2024-05-26T08:04:28Z</time>
      </trkpt>
      <trkpt lat="49.07708" lon="-0.38526">
        <ele>47.6</ele>
        <time>2024-05-26T08:04:29Z</time>
      </trkpt>
      <trkpt lat="49.07704" lon="-0.38529">
        <ele>47.6</ele>
        <time>2024-05-26T08:04:30Z</time>
      </trkpt>
      <trkpt lat="49.077" lon="-0.38533">
        <ele>47.8</ele>
        <time>2024-05-26T08:04:31Z</time>
      </trkpt>
      <trkpt lat="49.07694" lon="-0.38538">
        <ele>47.8</ele>
        <time>2024-05-26T08:04:32Z</time>
      </trkpt>
      <trkpt lat="49.07691" lon="-0.38541">
        <ele>48</ele>
        <time>2024-05-26T08:04:33Z</time>
      </trkpt>
      <trkpt lat="49.07686" lon="-0.38546">
        <ele>48</ele>
        <time>2024-05-26T08:04:34Z</time>
      </trkpt>
      <trkpt lat="49.0768" lon="-0.3855">
        <ele>48.2</ele>
        <time>2024-05-26T08:04:35Z</time>
      </trkpt>
      <trkpt lat="49.07676" lon="-0.38553">
        <ele>48.2</ele>
        <time>2024-05-26T08:04:36Z</time>
      </trkpt>
      <trkpt lat="49.07671" lon="-0.38558">
        <ele>48.4</ele>
        <time>2024-05-26T08:04:37Z</time>
      </trkpt>
      <trkpt lat="49.07666" lon="-0.38563">
        <ele>48.4</ele>
        <time>2024-05-26T08:04:38Z</time>
      </trkpt>
      <trkpt lat="49.07662" lon="-0.38566">
        <ele>48.6</ele>
        <time>2024-05-26T08:04:39Z</time>
      </trkpt>
      <trkpt lat="49.07657" lon="-0.3857">
        <ele>49</ele>
        <time>2024-05-26T08:04:40Z</time>
      </trkpt>
      <trkpt lat="49.07652" lon="-0.38574">
        <ele>49.4</ele>
        <time>2024-05-26T08:04:41Z</time>
      </trkpt>
      <trkpt lat="49.07647" lon="-0.38577">
        <ele>49.6</ele>
        <time>2024-05-26T08:04:42Z</time>
      </trkpt>
      <trkpt lat="49.07642" lon="-0.38581">
        <ele>49.6</ele>
        <time>2024-05-26T08:04:43Z</time>
      </trkpt>
      <trkpt lat="49.07637" lon="-0.38585">
        <ele>49.6</ele>
        <time>2024-05-26T08:04:44Z</time>
      </trkpt>
      <trkpt lat="49.07632" lon="-0.38589">
        <ele>49.8</ele>
        <time>2024-05-26T08:04:45Z</time>
      </trkpt>
      <trkpt lat="49.07627" lon="-0.38593">
        <ele>49.8</ele>
        <time>2024-05-26T08:04:46Z</time>
      </trkpt>
      <trkpt lat="49.07622" lon="-0.38599">
        <ele>50.2</ele>
        <time>2024-05-26T08:04:47Z</time>
      </trkpt>
      <trkpt lat="49.07618" lon="-0.38602">
        <ele>50.4</ele>
        <time>2024-05-26T08:04:48Z</time>
      </trkpt>
      <trkpt lat="49.07613" lon="-0.38606">
        <ele>51</ele>
        <time>2024-05-26T08:04:49Z</time>
      </trkpt>
      <trkpt lat="49.07608" lon="-0.38611">
        <ele>51.2</ele>
        <time>2024-05-26T08:04:50Z</time>
      </trkpt>
      <trkpt lat="49.07604" lon="-0.38614">
        <ele>51.6</ele>
        <time>2024-05-26T08:04:51Z</time>
      </trkpt>
      <trkpt lat="49.07598" lon="-0.38618">
        <ele>51.8</ele>
        <time>2024-05-26T08:04:52Z</time>
      </trkpt>
      <trkpt lat="49.07593" lon="-0.38622">
        <ele>52</ele>
        <time>2024-05-26T08:04:53Z</time>
      </trkpt>
      <trkpt lat="49.07589" lon="-0.38625">
        <ele>52.4</ele>
        <time>2024-05-26T08:04:54Z</time>
      </trkpt>
      <trkpt lat="49.07583" lon="-0.38629">
        <ele>52.6</ele>
        <time>2024-05-26T08:04:55Z</time>
      </trkpt>
      <trkpt lat="49.07578" lon="-0.38633">
        <ele>52.8</ele>
        <time>2024-05-26T08:04:56Z</time>
      </trkpt>
      <trkpt lat="49.07574" lon="-0.38636">
        <ele>52.8</ele>
        <time>2024-05-26T08:04:57Z</time>
      </trkpt>
      <trkpt lat="49.0757" lon="-0.38639">
        <ele>52.8</ele>
        <time>2024-05-26T08:04:58Z</time>
      </trkpt>
      <trkpt lat="49.07564" lon="-0.38644">
        <ele>53</ele>
        <time>2024-05-26T08:04:59Z</time>
      </trkpt>
      <trkpt lat="49.0756" lon="-0.38646">
        <ele>53.2</ele>
        <time>2024-05-26T08:05:00Z</time>
      </trkpt>
      <trkpt lat="49.07556" lon="-0.3865">
        <ele>53.4</ele>
        <time>2024-05-26T08:05:01Z</time>
      </trkpt>
      <trkpt lat="49.07551" lon="-0.38654">
        <ele>53.8</ele>
        <time>2024-05-26T08:05:02Z</time>
      </trkpt>
      <trkpt lat="49.07547" lon="-0.38657">
        <ele>54.2</ele>
        <time>2024-05-26T08:05:03Z</time>
      </trkpt>
      <trkpt lat="49.07543" lon="-0.3866">
        <ele>54.6</ele>
        <time>2024-05-26T08:05:04Z</time>
      </trkpt>
      <trkpt lat="49.07539" lon="-0.38663">
        <ele>54.6</ele>
        <time>2024-05-26T08:05:05Z</time>
      </trkpt>
      <trkpt lat="49.07535" lon="-0.38666">
        <ele>55.2</ele>
        <time>2024-05-26T08:05:06Z</time>
      </trkpt>
      <trkpt lat="49.07531" lon="-0.38669">
        <ele>55.6</ele>
        <time>2024-05-26T08:05:07Z</time>
      </trkpt>
      <trkpt lat="49.07527" lon="-0.38672">
        <ele>55.8</ele>
        <time>2024-05-26T08:05:08Z</time>
      </trkpt>
      <trkpt lat="49.07523" lon="-0.38676">
        <ele>56</ele>
        <time>2024-05-26T08:05:09Z</time>
      </trkpt>
      <trkpt lat="49.07519" lon="-0.38679">
        <ele>56</ele>
        <time>2024-05-26T08:05:10Z</time>
      </trkpt>
      <trkpt lat="49.07515" lon="-0.38682">
        <ele>56.2</ele>
        <time>2024-05-26T08:05:11Z</time>
      </trkpt>
      <trkpt lat="49.07511" lon="-0.38686">
        <ele>56.4</ele>
        <time>2024-05-26T08:05:12Z</time>
      </trkpt>
      <trkpt lat="49.07506" lon="-0.38689">
        <ele>57</ele>
        <time>2024-05-26T08:05:13Z</time>
      </trkpt>
      <trkpt lat="49.07502" lon="-0.38693">
        <ele>57.4</ele>
        <time>2024-05-26T08:05:14Z</time>
      </trkpt>
      <trkpt lat="49.07498" lon="-0.38696">
        <ele>57.8</ele>
        <time>2024-05-26T08:05:15Z</time>
      </trkpt>
      <trkpt lat="49.07494" lon="-0.38699">
        <ele>58</ele>
        <time>2024-05-26T08:05:16Z</time>
      </trkpt>
      <trkpt lat="49.0749" lon="-0.38703">
        <ele>58.2</ele>
        <time>2024-05-26T08:05:17Z</time>
      </trkpt>
      <trkpt lat="49.07486" lon="-0.38706">
        <ele>58.4</ele>
        <time>2024-05-26T08:05:18Z</time>
      </trkpt>
      <trkpt lat="49.07482" lon="-0.38709">
        <ele>58.4</ele>
        <time>2024-05-26T08:05:19Z</time>
      </trkpt>
      <trkpt lat="49.07478" lon="-0.38713">
        <ele>58.4</ele>
        <time>2024-05-26T08:05:20Z</time>
      </trkpt>
      <trkpt lat="49.07474" lon="-0.38716">
        <ele>58.6</ele>
        <time>2024-05-26T08:05:21Z</time>
      </trkpt>
      <trkpt lat="49.0747" lon="-0.38719">
        <ele>58.6</ele>
        <time>2024-05-26T08:05:22Z</time>
      </trkpt>
      <trkpt lat="49.07465" lon="-0.38722">
        <ele>58.8</ele>
        <time>2024-05-26T08:05:23Z</time>
      </trkpt>
      <trkpt lat="49.07462" lon="-0.38725">
        <ele>58.8</ele>
        <time>2024-05-26T08:05:24Z</time>
      </trkpt>
      <trkpt lat="49.07458" lon="-0.38728">
        <ele>59</ele>
        <time>2024-05-26T08:05:25Z</time>
      </trkpt>
      <trkpt lat="49.07453" lon="-0.38731">
        <ele>59.2</ele>
        <time>2024-05-26T08:05:26Z</time>
      </trkpt>
      <trkpt lat="49.07449" lon="-0.38734">
        <ele>59.2</ele>
        <time>2024-05-26T08:05:27Z</time>
      </trkpt>
      <trkpt lat="49.07446" lon="-0.38737">
        <ele>59.4</ele>
        <time>2024-05-26T08:05:28Z</time>
      </trkpt>
      <trkpt lat="49.07441" lon="-0.38741">
        <ele>59.4</ele>
        <time>2024-05-26T08:05:29Z</time>
      </trkpt>
      <trkpt lat="49.07438" lon="-0.38744">
        <ele>59.4</ele>
        <time>2024-05-26T08:05:30Z</time>
      </trkpt>
      <trkpt lat="49.07434" lon="-0.38747">
        <ele>59.6</ele>
        <time>2024-05-26T08:05:31Z</time>
      </trkpt>
      <trkpt lat="49.0743" lon="-0.3875">
        <ele>59.8</ele>
        <time>2024-05-26T08:05:32Z</time>
      </trkpt>
      <trkpt lat="49.07426" lon="-0.38753">
        <ele>60</ele>
        <time>2024-05-26T08:05:33Z</time>
      </trkpt>
      <trkpt lat="49.07421" lon="-0.38756">
        <ele>60</ele>
        <time>2024-05-26T08:05:34Z</time>
      </trkpt>
      <trkpt lat="49.07417" lon="-0.38758">
        <ele>60.2</ele>
        <time>2024-05-26T08:05:35Z</time>
      </trkpt>
      <trkpt lat="49.07413" lon="-0.38761">
        <ele>60.6</ele>
        <time>2024-05-26T08:05:36Z</time>
      </trkpt>
      <trkpt lat="49.07409" lon="-0.38764">
        <ele>60.6</ele>
        <time>2024-05-26T08:05:37Z</time>
      </trkpt>
      <trkpt lat="49.07404" lon="-0.38767">
        <ele>60.8</ele>
        <time>2024-05-26T08:05:38Z</time>
      </trkpt>
      <trkpt lat="49.074" lon="-0.38769">
        <ele>61</ele>
        <time>2024-05-26T08:05:39Z</time>
      </trkpt>
      <trkpt lat="49.07396" lon="-0.38772">
        <ele>61</ele>
        <time>2024-05-26T08:05:40Z</time>
      </trkpt>
      <trkpt lat="49.07392" lon="-0.38775">
        <ele>61</ele>
        <time>2024-05-26T08:05:41Z</time>
      </trkpt>
      <trkpt lat="49.07387" lon="-0.38778">
        <ele>61.2</ele>
        <time>2024-05-26T08:05:42Z</time>
      </trkpt>
      <trkpt lat="49.07383" lon="-0.38781">
        <ele>61.2</ele>
        <time>2024-05-26T08:05:43Z</time>
      </trkpt>
      <trkpt lat="49.07379" lon="-0.38784">
        <ele>61.2</ele>
        <time>2024-05-26T08:05:44Z</time>
      </trkpt>
      <trkpt lat="49.07374" lon="-0.38786">
        <ele>61.4</ele>
        <time>2024-05-26T08:05:45Z</time>
      </trkpt>
      <trkpt lat="49.0737" lon="-0.38789">
        <ele>62</ele>
        <time>2024-05-26T08:05:46Z</time>
      </trkpt>
      <trkpt lat="49.07365" lon="-0.38792">
        <ele>62.2</ele>
        <time>2024-05-26T08:05:47Z</time>
      </trkpt>
      <trkpt lat="49.07361" lon="-0.38794">
        <ele>62.2</ele>
        <time>2024-05-26T08:05:48Z</time>
      </trkpt>
      <trkpt lat="49.07357" lon="-0.38797">
        <ele>62.4</ele>
        <time>2024-05-26T08:05:49Z</time>
      </trkpt>
      <trkpt lat="49.07353" lon="-0.388">
        <ele>62.6</ele>
        <time>2024-05-26T08:05:50Z</time>
      </trkpt>
      <trkpt lat="49.07348" lon="-0.38803">
        <ele>62.8</ele>
        <time>2024-05-26T08:05:51Z</time>
      </trkpt>
      <trkpt lat="49.07344" lon="-0.38806">
        <ele>62.8</ele>
        <time>2024-05-26T08:05:52Z</time>
      </trkpt>
      <trkpt lat="49.07339" lon="-0.38809">
        <ele>63</ele>
        <time>2024-05-26T08:05:53Z</time>
      </trkpt>
      <trkpt lat="49.07334" lon="-0.38812">
        <ele>63.2</ele>
        <time>2024-05-26T08:05:54Z</time>
      </trkpt>
      <trkpt lat="49.07329" lon="-0.38814">
        <ele>63.6</ele>
        <time>2024-05-26T08:05:55Z</time>
      </trkpt>
      <trkpt lat="49.07324" lon="-0.38817">
        <ele>63.8</ele>
        <time>2024-05-26T08:05:56Z</time>
      </trkpt>
      <trkpt lat="49.07319" lon="-0.38821">
        <ele>63.8</ele>
        <time>2024-05-26T08:05:57Z</time>
      </trkpt>
      <trkpt lat="49.07314" lon="-0.38824">
        <ele>64</ele>
        <time>2024-05-26T08:05:58Z</time>
      </trkpt>
      <trkpt lat="49.07309" lon="-0.38827">
        <ele>64</ele>
        <time>2024-05-26T08:05:59Z</time>
      </trkpt>
      <trkpt lat="49.07304" lon="-0.38831">
        <ele>64.2</ele>
        <time>2024-05-26T08:06:00Z</time>
      </trkpt>
      <trkpt lat="49.07299" lon="-0.38834">
        <ele>64.4</ele>
        <time>2024-05-26T08:06:01Z</time>
      </trkpt>
      <trkpt lat="49.07294" lon="-0.38838">
        <ele>64.8</ele>
        <time>2024-05-26T08:06:02Z</time>
      </trkpt>
      <trkpt lat="49.07289" lon="-0.38841">
        <ele>65</ele>
        <time>2024-05-26T08:06:03Z</time>
      </trkpt>
      <trkpt lat="49.07283" lon="-0.38844">
        <ele>65.2</ele>
        <time>2024-05-26T08:06:04Z</time>
      </trkpt>
      <trkpt lat="49.07278" lon="-0.38847">
        <ele>65.4</ele>
        <time>2024-05-26T08:06:05Z</time>
      </trkpt>
      <trkpt lat="49.07273" lon="-0.38851">
        <ele>65.4</ele>
        <time>2024-05-26T08:06:06Z</time>
      </trkpt>
      <trkpt lat="49.07268" lon="-0.38854">
        <ele>65.6</ele>
        <time>2024-05-26T08:06:07Z</time>
      </trkpt>
      <trkpt lat="49.07263" lon="-0.38858">
        <ele>65.6</ele>
        <time>2024-05-26T08:06:08Z</time>
      </trkpt>
      <trkpt lat="49.07258" lon="-0.38861">
        <ele>65.6</ele>
        <time>2024-05-26T08:06:09Z</time>
      </trkpt>
      <trkpt lat="49.07252" lon="-0.38865">
        <ele>65.6</ele>
        <time>2024-05-26T08:06:10Z</time>
      </trkpt>
      <trkpt lat="49.07247" lon="-0.38868">
        <ele>65.8</ele>
        <time>2024-05-26T08:06:11Z</time>
      </trkpt>
      <trkpt lat="49.07242" lon="-0.38872">
        <ele>65.8</ele>
        <time>2024-05-26T08:06:12Z</time>
      </trkpt>
      <trkpt lat="49.07236" lon="-0.38876">
        <ele>65.8</ele>
        <time>2024-05-26T08:06:13Z</time>
      </trkpt>
      <trkpt lat="49.07231" lon="-0.38879">
        <ele>66</ele>
        <time>2024-05-26T08:06:14Z</time>
      </trkpt>
      <trkpt lat="49.07226" lon="-0.38883">
        <ele>66</ele>
        <time>2024-05-26T08:06:15Z</time>
      </trkpt>
      <trkpt lat="49.07221" lon="-0.38886">
        <ele>66.2</ele>
        <time>2024-05-26T08:06:16Z</time>
      </trkpt>
      <trkpt lat="49.07215" lon="-0.38889">
        <ele>66.4</ele>
        <time>2024-05-26T08:06:17Z</time>
      </trkpt>
      <trkpt lat="49.0721" lon="-0.38892">
        <ele>66.4</ele>
        <time>2024-05-26T08:06:18Z</time>
      </trkpt>
      <trkpt lat="49.07204" lon="-0.38895">
        <ele>66.6</ele>
        <time>2024-05-26T08:06:19Z</time>
      </trkpt>
      <trkpt lat="49.07199" lon="-0.38898">
        <ele>66.6</ele>
        <time>2024-05-26T08:06:20Z</time>
      </trkpt>
      <trkpt lat="49.07194" lon="-0.38901">
        <ele>66.8</ele>
        <time>2024-05-26T08:06:21Z</time>
      </trkpt>
      <trkpt lat="49.07189" lon="-0.38904">
        <ele>66.8</ele>
        <time>2024-05-26T08:06:22Z</time>
      </trkpt>
      <trkpt lat="49.07184" lon="-0.38906">
        <ele>67</ele>
        <time>2024-05-26T08:06:23Z</time>
      </trkpt>
      <trkpt lat="49.07179" lon="-0.38909">
        <ele>67</ele>
        <time>2024-05-26T08:06:24Z</time>
      </trkpt>
      <trkpt lat="49.07174" lon="-0.38912">
        <ele>67</ele>
        <time>2024-05-26T08:06:25Z</time>
      </trkpt>
      <trkpt lat="49.07169" lon="-0.38915">
        <ele>67</ele>
        <time>2024-05-26T08:06:26Z</time>
      </trkpt>
      <trkpt lat="49.07165" lon="-0.38918">
        <ele>67.2</ele>
        <time>2024-05-26T08:06:27Z</time>
      </trkpt>
      <trkpt lat="49.0716" lon="-0.38921">
        <ele>67.2</ele>
        <time>2024-05-26T08:06:28Z</time>
      </trkpt>
      <trkpt lat="49.07155" lon="-0.38923">
        <ele>67.2</ele>
        <time>2024-05-26T08:06:29Z</time>
      </trkpt>
      <trkpt lat="49.0715" lon="-0.38926">
        <ele>67.2</ele>
        <time>2024-05-26T08:06:30Z</time>
      </trkpt>
      <trkpt lat="49.07145" lon="-0.38929">
        <ele>67.4</ele>
        <time>2024-05-26T08:06:31Z</time>
      </trkpt>
      <trkpt lat="49.0714" lon="-0.38932">
        <ele>67.4</ele>
        <time>2024-05-26T08:06:32Z</time>
      </trkpt>
      <trkpt lat="49.07135" lon="-0.38936">
        <ele>67.6</ele>
        <time>2024-05-26T08:06:33Z</time>
      </trkpt>
      <trkpt lat="49.0713" lon="-0.3894">
        <ele>67.6</ele>
        <time>2024-05-26T08:06:34Z</time>
      </trkpt>
      <trkpt lat="49.07126" lon="-0.38944">
        <ele>67.8</ele>
        <time>2024-05-26T08:06:35Z</time>
      </trkpt>
      <trkpt lat="49.07121" lon="-0.38947">
        <ele>67.8</ele>
        <time>2024-05-26T08:06:36Z</time>
      </trkpt>
      <trkpt lat="49.07116" lon="-0.38951">
        <ele>68</ele>
        <time>2024-05-26T08:06:37Z</time>
      </trkpt>
      <trkpt lat="49.07112" lon="-0.38954">
        <ele>68</ele>
        <time>2024-05-26T08:06:38Z</time>
      </trkpt>
      <trkpt lat="49.07107" lon="-0.38958">
        <ele>68.4</ele>
        <time>2024-05-26T08:06:39Z</time>
      </trkpt>
      <trkpt lat="49.07102" lon="-0.38961">
        <ele>68.4</ele>
        <time>2024-05-26T08:06:40Z</time>
      </trkpt>
      <trkpt lat="49.07097" lon="-0.38965">
        <ele>68.6</ele>
        <time>2024-05-26T08:06:41Z</time>
      </trkpt>
      <trkpt lat="49.07093" lon="-0.3897">
        <ele>68.4</ele>
        <time>2024-05-26T08:06:42Z</time>
      </trkpt>
      <trkpt lat="49.07089" lon="-0.38975">
        <ele>68.4</ele>
        <time>2024-05-26T08:06:43Z</time>
      </trkpt>
      <trkpt lat="49.07085" lon="-0.38981">
        <ele>68.6</ele>
        <time>2024-05-26T08:06:44Z</time>
      </trkpt>
      <trkpt lat="49.07082" lon="-0.38987">
        <ele>68.4</ele>
        <time>2024-05-26T08:06:45Z</time>
      </trkpt>
      <trkpt lat="49.07079" lon="-0.38994">
        <ele>68.6</ele>
        <time>2024-05-26T08:06:46Z</time>
      </trkpt>
      <trkpt lat="49.07076" lon="-0.39">
        <ele>68.6</ele>
        <time>2024-05-26T08:06:47Z</time>
      </trkpt>
      <trkpt lat="49.07073" lon="-0.39007">
        <ele>68.6</ele>
        <time>2024-05-26T08:06:48Z</time>
      </trkpt>
      <trkpt lat="49.07071" lon="-0.39015">
        <ele>68.6</ele>
        <time>2024-05-26T08:06:49Z</time>
      </trkpt>
      <trkpt lat="49.07069" lon="-0.39023">
        <ele>68.8</ele>
        <time>2024-05-26T08:06:50Z</time>
      </trkpt>
      <trkpt lat="49.07068" lon="-0.39031">
        <ele>69</ele>
        <time>2024-05-26T08:06:51Z</time>
      </trkpt>
      <trkpt lat="49.07066" lon="-0.39038">
        <ele>69.2</ele>
        <time>2024-05-26T08:06:52Z</time>
      </trkpt>
      <trkpt lat="49.07065" lon="-0.39046">
        <ele>69.2</ele>
        <time>2024-05-26T08:06:53Z</time>
      </trkpt>
      <trkpt lat="49.07064" lon="-0.39055">
        <ele>69.4</ele>
        <time>2024-05-26T08:06:54Z</time>
      </trkpt>
      <trkpt lat="49.07063" lon="-0.39063">
        <ele>69.4</ele>
        <time>2024-05-26T08:06:55Z</time>
      </trkpt>
      <trkpt lat="49.07061" lon="-0.39071">
        <ele>69.6</ele>
        <time>2024-05-26T08:06:56Z</time>
      </trkpt>
      <trkpt lat="49.07059" lon="-0.39079">
        <ele>69.6</ele>
        <time>2024-05-26T08:06:57Z</time>
      </trkpt>
      <trkpt lat="49.07057" lon="-0.39086">
        <ele>69.8</ele>
        <time>2024-05-26T08:06:58Z</time>
      </trkpt>
      <trkpt lat="49.07054" lon="-0.39094">
        <ele>69.8</ele>
        <time>2024-05-26T08:06:59Z</time>
      </trkpt>
      <trkpt lat="49.07051" lon="-0.39101">
        <ele>70</ele>
        <time>2024-05-26T08:07:00Z</time>
      </trkpt>
      <trkpt lat="49.07047" lon="-0.39107">
        <ele>70</ele>
        <time>2024-05-26T08:07:01Z</time>
      </trkpt>
      <trkpt lat="49.07043" lon="-0.39113">
        <ele>70</ele>
        <time>2024-05-26T08:07:02Z</time>
      </trkpt>
      <trkpt lat="49.07038" lon="-0.39117">
        <ele>70</ele>
        <time>2024-05-26T08:07:03Z</time>
      </trkpt>
      <trkpt lat="49.07033" lon="-0.39122">
        <ele>70.2</ele>
        <time>2024-05-26T08:07:04Z</time>
      </trkpt>
      <trkpt lat="49.07028" lon="-0.39125">
        <ele>70.2</ele>
        <time>2024-05-26T08:07:05Z</time>
      </trkpt>
      <trkpt lat="49.07023" lon="-0.39127">
        <ele>70.2</ele>
        <time>2024-05-26T08:07:06Z</time>
      </trkpt>
      <trkpt lat="49.07018" lon="-0.39129">
        <ele>70.2</ele>
        <time>2024-05-26T08:07:07Z</time>
      </trkpt>
      <trkpt lat="49.07012" lon="-0.3913">
        <ele>70.2</ele>
        <time>2024-05-26T08:07:08Z</time>
      </trkpt>
      <trkpt lat="49.07007" lon="-0.3913">
        <ele>70.4</ele>
        <time>2024-05-26T08:07:09Z</time>
      </trkpt>
      <trkpt lat="49.07001" lon="-0.39129">
        <ele>70.4</ele>
        <time>2024-05-26T08:07:10Z</time>
      </trkpt>
      <trkpt lat="49.06996" lon="-0.39128">
        <ele>70.4</ele>
        <time>2024-05-26T08:07:11Z</time>
      </trkpt>
      <trkpt lat="49.0699" lon="-0.39126">
        <ele>70.6</ele>
        <time>2024-05-26T08:07:12Z</time>
      </trkpt>
      <trkpt lat="49.06985" lon="-0.39124">
        <ele>70.6</ele>
        <time>2024-05-26T08:07:13Z</time>
      </trkpt>
      <trkpt lat="49.0698" lon="-0.39122">
        <ele>70.6</ele>
        <time>2024-05-26T08:07:14Z</time>
      </trkpt>
      <trkpt lat="49.06975" lon="-0.3912">
        <ele>70.6</ele>
        <time>2024-05-26T08:07:15Z</time>
      </trkpt>
      <trkpt lat="49.0697" lon="-0.3912">
        <ele>70.6</ele>
        <time>2024-05-26T08:07:16Z</time>
      </trkpt>
      <trkpt lat="49.06964" lon="-0.39121">
        <ele>70.6</ele>
        <time>2024-05-26T08:07:17Z</time>
      </trkpt>
      <trkpt lat="49.0696" lon="-0.39123">
        <ele>70.6</ele>
        <time>2024-05-26T08:07:18Z</time>
      </trkpt>
      <trkpt lat="49.06954" lon="-0.39125">
        <ele>70.8</ele>
        <time>2024-05-26T08:07:19Z</time>
      </trkpt>
      <trkpt lat="49.06949" lon="-0.39127">
        <ele>70.8</ele>
        <time>2024-05-26T08:07:20Z</time>
      </trkpt>
      <trkpt lat="49.06943" lon="-0.39128">
        <ele>71</ele>
        <time>2024-05-26T08:07:21Z</time>
      </trkpt>
      <trkpt lat="49.06937" lon="-0.39128">
        <ele>71.2</ele>
        <time>2024-05-26T08:07:22Z</time>
      </trkpt>
      <trkpt lat="49.06931" lon="-0.39127">
        <ele>71.4</ele>
        <time>2024-05-26T08:07:23Z</time>
      </trkpt>
      <trkpt lat="49.06925" lon="-0.39126">
        <ele>71.6</ele>
        <time>2024-05-26T08:07:24Z</time>
      </trkpt>
      <trkpt lat="49.0692" lon="-0.39125">
        <ele>71.8</ele>
        <time>2024-05-26T08:07:25Z</time>
      </trkpt>
      <trkpt lat="49.06914" lon="-0.39125">
        <ele>71.8</ele>
        <time>2024-05-26T08:07:26Z</time>
      </trkpt>
      <trkpt lat="49.06907" lon="-0.39127">
        <ele>72</ele>
        <time>2024-05-26T08:07:27Z</time>
      </trkpt>
      <trkpt lat="49.06901" lon="-0.39131">
        <ele>72</ele>
        <time>2024-05-26T08:07:28Z</time>
      </trkpt>
      <trkpt lat="49.06895" lon="-0.39136">
        <ele>72</ele>
        <time>2024-05-26T08:07:29Z</time>
      </trkpt>
      <trkpt lat="49.06889" lon="-0.39142">
        <ele>72</ele>
        <time>2024-05-26T08:07:30Z</time>
      </trkpt>
      <trkpt lat="49.06884" lon="-0.39148">
        <ele>72</ele>
        <time>2024-05-26T08:07:31Z</time>
      </trkpt>
      <trkpt lat="49.06878" lon="-0.39153">
        <ele>72</ele>
        <time>2024-05-26T08:07:32Z</time>
      </trkpt>
      <trkpt lat="49.06872" lon="-0.39159">
        <ele>72.2</ele>
        <time>2024-05-26T08:07:33Z</time>
      </trkpt>
      <trkpt lat="49.06867" lon="-0.39165">
        <ele>72.4</ele>
        <time>2024-05-26T08:07:34Z</time>
      </trkpt>
      <trkpt lat="49.06862" lon="-0.39171">
        <ele>72.4</ele>
        <time>2024-05-26T08:07:35Z</time>
      </trkpt>
      <trkpt lat="49.06856" lon="-0.39177">
        <ele>72.4</ele>
        <time>2024-05-26T08:07:36Z</time>
      </trkpt>
      <trkpt lat="49.06851" lon="-0.39184">
        <ele>72.2</ele>
        <time>2024-05-26T08:07:37Z</time>
      </trkpt>
      <trkpt lat="49.06846" lon="-0.3919">
        <ele>72.2</ele>
        <time>2024-05-26T08:07:38Z</time>
      </trkpt>
      <trkpt lat="49.0684" lon="-0.39197">
        <ele>72</ele>
        <time>2024-05-26T08:07:39Z</time>
      </trkpt>
      <trkpt lat="49.06835" lon="-0.39203">
        <ele>72</ele>
        <time>2024-05-26T08:07:40Z</time>
      </trkpt>
      <trkpt lat="49.0683" lon="-0.39209">
        <ele>72</ele>
        <time>2024-05-26T08:07:41Z</time>
      </trkpt>
      <trkpt lat="49.06824" lon="-0.39214">
        <ele>71.8</ele>
        <time>2024-05-26T08:07:42Z</time>
      </trkpt>
      <trkpt lat="49.06819" lon="-0.3922">
        <ele>71.8</ele>
        <time>2024-05-26T08:07:43Z</time>
      </trkpt>
      <trkpt lat="49.06814" lon="-0.39226">
        <ele>71.8</ele>
        <time>2024-05-26T08:07:44Z</time>
      </trkpt>
      <trkpt lat="49.06809" lon="-0.39232">
        <ele>71.8</ele>
        <time>2024-05-26T08:07:45Z</time>
      </trkpt>
      <trkpt lat="49.06803" lon="-0.39237">
        <ele>71.8</ele>
        <time>2024-05-26T08:07:46Z</time>
      </trkpt>
      <trkpt lat="49.06798" lon="-0.39243">
        <ele>71.8</ele>
        <time>2024-05-26T08:07:47Z</time>
      </trkpt>
      <trkpt lat="49.06793" lon="-0.39249">
        <ele>72</ele>
        <time>2024-05-26T08:07:48Z</time>
      </trkpt>
      <trkpt lat="49.06787" lon="-0.39256">
        <ele>72.2</ele>
        <time>2024-05-26T08:07:49Z</time>
      </trkpt>
      <trkpt lat="49.06782" lon="-0.39262">
        <ele>72.2</ele>
        <time>2024-05-26T08:07:50Z</time>
      </trkpt>
      <trkpt lat="49.06776" lon="-0.39268">
        <ele>72.4</ele>
        <time>2024-05-26T08:07:51Z</time>
      </trkpt>
      <trkpt lat="49.06771" lon="-0.39274">
        <ele>72.4</ele>
        <time>2024-05-26T08:07:52Z</time>
      </trkpt>
      <trkpt lat="49.06766" lon="-0.3928">
        <ele>72.4</ele>
        <time>2024-05-26T08:07:53Z</time>
      </trkpt>
      <trkpt lat="49.06761" lon="-0.39286">
        <ele>72.6</ele>
        <time>2024-05-26T08:07:54Z</time>
      </trkpt>
      <trkpt lat="49.06756" lon="-0.39292">
        <ele>73</ele>
        <time>2024-05-26T08:07:55Z</time>
      </trkpt>
      <trkpt lat="49.06751" lon="-0.39298">
        <ele>73.2</ele>
        <time>2024-05-26T08:07:56Z</time>
      </trkpt>
      <trkpt lat="49.06746" lon="-0.39305">
        <ele>73.2</ele>
        <time>2024-05-26T08:07:57Z</time>
      </trkpt>
      <trkpt lat="49.06742" lon="-0.39311">
        <ele>73.4</ele>
        <time>2024-05-26T08:07:58Z</time>
      </trkpt>
      <trkpt lat="49.06737" lon="-0.39318">
        <ele>73.4</ele>
        <time>2024-05-26T08:07:59Z</time>
      </trkpt>
      <trkpt lat="49.06733" lon="-0.39325">
        <ele>73.4</ele>
        <time>2024-05-26T08:08:00Z</time>
      </trkpt>
      <trkpt lat="49.06728" lon="-0.39332">
        <ele>73.4</ele>
        <time>2024-05-26T08:08:01Z</time>
      </trkpt>
      <trkpt lat="49.06723" lon="-0.39338">
        <ele>73.4</ele>
        <time>2024-05-26T08:08:02Z</time>
      </trkpt>
      <trkpt lat="49.06718" lon="-0.39345">
        <ele>73.4</ele>
        <time>2024-05-26T08:08:03Z</time>
      </trkpt>
      <trkpt lat="49.06713" lon="-0.39353">
        <ele>73.6</ele>
        <time>2024-05-26T08:08:04Z</time>
      </trkpt>
      <trkpt lat="49.06708" lon="-0.3936">
        <ele>73.8</ele>
        <time>2024-05-26T08:08:05Z</time>
      </trkpt>
      <trkpt lat="49.06703" lon="-0.39368">
        <ele>74.2</ele>
        <time>2024-05-26T08:08:06Z</time>
      </trkpt>
      <trkpt lat="49.06697" lon="-0.39375">
        <ele>74.2</ele>
        <time>2024-05-26T08:08:07Z</time>
      </trkpt>
      <trkpt lat="49.06693" lon="-0.39383">
        <ele>74.4</ele>
        <time>2024-05-26T08:08:08Z</time>
      </trkpt>
      <trkpt lat="49.06688" lon="-0.3939">
        <ele>74.6</ele>
        <time>2024-05-26T08:08:09Z</time>
      </trkpt>
      <trkpt lat="49.06683" lon="-0.39397">
        <ele>74.6</ele>
        <time>2024-05-26T08:08:10Z</time>
      </trkpt>
      <trkpt lat="49.06678" lon="-0.39404">
        <ele>74.8</ele>
        <time>2024-05-26T08:08:11Z</time>
      </trkpt>
      <trkpt lat="49.06673" lon="-0.39411">
        <ele>75</ele>
        <time>2024-05-26T08:08:12Z</time>
      </trkpt>
      <trkpt lat="49.06668" lon="-0.39418">
        <ele>75</ele>
        <time>2024-05-26T08:08:13Z</time>
      </trkpt>
      <trkpt lat="49.06663" lon="-0.39425">
        <ele>75</ele>
        <time>2024-05-26T08:08:14Z</time>
      </trkpt>
      <trkpt lat="49.06658" lon="-0.39432">
        <ele>75</ele>
        <time>2024-05-26T08:08:15Z</time>
      </trkpt>
      <trkpt lat="49.06653" lon="-0.39439">
        <ele>75.2</ele>
        <time>2024-05-26T08:08:16Z</time>
      </trkpt>
      <trkpt lat="49.06649" lon="-0.39446">
        <ele>75.2</ele>
        <time>2024-05-26T08:08:17Z</time>
      </trkpt>
      <trkpt lat="49.06644" lon="-0.39454">
        <ele>75.2</ele>
        <time>2024-05-26T08:08:18Z</time>
      </trkpt>
      <trkpt lat="49.06639" lon="-0.39461">
        <ele>75.4</ele>
        <time>2024-05-26T08:08:19Z</time>
      </trkpt>
      <trkpt lat="49.06634" lon="-0.39469">
        <ele>75.6</ele>
        <time>2024-05-26T08:08:20Z</time>
      </trkpt>
      <trkpt lat="49.0663" lon="-0.39476">
        <ele>75.6</ele>
        <time>2024-05-26T08:08:21Z</time>
      </trkpt>
      <trkpt lat="49.06625" lon="-0.39483">
        <ele>75.8</ele>
        <time>2024-05-26T08:08:22Z</time>
      </trkpt>
      <trkpt lat="49.0662" lon="-0.39491">
        <ele>75.8</ele>
        <time>2024-05-26T08:08:23Z</time>
      </trkpt>
      <trkpt lat="49.06615" lon="-0.39497">
        <ele>76</ele>
        <time>2024-05-26T08:08:24Z</time>
      </trkpt>
      <trkpt lat="49.0661" lon="-0.39504">
        <ele>76.2</ele>
        <time>2024-05-26T08:08:25Z</time>
      </trkpt>
      <trkpt lat="49.06605" lon="-0.39511">
        <ele>76.2</ele>
        <time>2024-05-26T08:08:26Z</time>
      </trkpt>
      <trkpt lat="49.066" lon="-0.39518">
        <ele>76.4</ele>
        <time>2024-05-26T08:08:27Z</time>
      </trkpt>
      <trkpt lat="49.06595" lon="-0.39525">
        <ele>76.4</ele>
        <time>2024-05-26T08:08:28Z</time>
      </trkpt>
      <trkpt lat="49.0659" lon="-0.39531">
        <ele>76.4</ele>
        <time>2024-05-26T08:08:29Z</time>
      </trkpt>
      <trkpt lat="49.06585" lon="-0.39538">
        <ele>76.4</ele>
        <time>2024-05-26T08:08:30Z</time>
      </trkpt>
      <trkpt lat="49.0658" lon="-0.39545">
        <ele>76.4</ele>
        <time>2024-05-26T08:08:31Z</time>
      </trkpt>
      <trkpt lat="49.06574" lon="-0.39552">
        <ele>76.4</ele>
        <time>2024-05-26T08:08:32Z</time>
      </trkpt>
      <trkpt lat="49.06569" lon="-0.39558">
        <ele>76.6</ele>
        <time>2024-05-26T08:08:33Z</time>
      </trkpt>
      <trkpt lat="49.06563" lon="-0.39565">
        <ele>76.6</ele>
        <time>2024-05-26T08:08:34Z</time>
      </trkpt>
      <trkpt lat="49.06558" lon="-0.39572">
        <ele>76.6</ele>
        <time>2024-05-26T08:08:35Z</time>
      </trkpt>
      <trkpt lat="49.06552" lon="-0.39579">
        <ele>76.6</ele>
        <time>2024-05-26T08:08:36Z</time>
      </trkpt>
      <trkpt lat="49.06547" lon="-0.39585">
        <ele>76.8</ele>
        <time>2024-05-26T08:08:37Z</time>
      </trkpt>
      <trkpt lat="49.06541" lon="-0.39591">
        <ele>76.8</ele>
        <time>2024-05-26T08:08:38Z</time>
      </trkpt>
      <trkpt lat="49.06535" lon="-0.39597">
        <ele>76.8</ele>
        <time>2024-05-26T08:08:39Z</time>
      </trkpt>
      <trkpt lat="49.06529" lon="-0.39603">
        <ele>76.8</ele>
        <time>2024-05-26T08:08:40Z</time>
      </trkpt>
      <trkpt lat="49.06523" lon="-0.39609">
        <ele>76.8</ele>
        <time>2024-05-26T08:08:41Z</time>
      </trkpt>
      <trkpt lat="49.06517" lon="-0.39615">
        <ele>76.8</ele>
        <time>2024-05-26T08:08:42Z</time>
      </trkpt>
      <trkpt lat="49.06512" lon="-0.39621">
        <ele>76.8</ele>
        <time>2024-05-26T08:08:43Z</time>
      </trkpt>
      <trkpt lat="49.06506" lon="-0.39626">
        <ele>76.8</ele>
        <time>2024-05-26T08:08:44Z</time>
      </trkpt>
      <trkpt lat="49.065" lon="-0.39632">
        <ele>76.8</ele>
        <time>2024-05-26T08:08:45Z</time>
      </trkpt>
      <trkpt lat="49.06494" lon="-0.39637">
        <ele>76.8</ele>
        <time>2024-05-26T08:08:46Z</time>
      </trkpt>
      <trkpt lat="49.06489" lon="-0.39643">
        <ele>76.8</ele>
        <time>2024-05-26T08:08:47Z</time>
      </trkpt>
      <trkpt lat="49.06483" lon="-0.39648">
        <ele>76.8</ele>
        <time>2024-05-26T08:08:48Z</time>
      </trkpt>
      <trkpt lat="49.06477" lon="-0.39654">
        <ele>76.8</ele>
        <time>2024-05-26T08:08:49Z</time>
      </trkpt>
      <trkpt lat="49.06471" lon="-0.39658">
        <ele>76.8</ele>
        <time>2024-05-26T08:08:50Z</time>
      </trkpt>
      <trkpt lat="49.06465" lon="-0.39663">
        <ele>76.8</ele>
        <time>2024-05-26T08:08:51Z</time>
      </trkpt>
      <trkpt lat="49.06459" lon="-0.39668">
        <ele>76.8</ele>
        <time>2024-05-26T08:08:52Z</time>
      </trkpt>
      <trkpt lat="49.06453" lon="-0.39672">
        <ele>76.8</ele>
        <time>2024-05-26T08:08:53Z</time>
      </trkpt>
      <trkpt lat="49.06447" lon="-0.39677">
        <ele>76.8</ele>
        <time>2024-05-26T08:08:54Z</time>
      </trkpt>
      <trkpt lat="49.06441" lon="-0.39681">
        <ele>76.8</ele>
        <time>2024-05-26T08:08:55Z</time>
      </trkpt>
      <trkpt lat="49.06435" lon="-0.39686">
        <ele>76.8</ele>
        <time>2024-05-26T08:08:56Z</time>
      </trkpt>
      <trkpt lat="49.06429" lon="-0.39691">
        <ele>76.8</ele>
        <time>2024-05-26T08:08:57Z</time>
      </trkpt>
      <trkpt lat="49.06423" lon="-0.39696">
        <ele>76.8</ele>
        <time>2024-05-26T08:08:58Z</time>
      </trkpt>
      <trkpt lat="49.06417" lon="-0.39701">
        <ele>76.8</ele>
        <time>2024-05-26T08:08:59Z</time>
      </trkpt>
      <trkpt lat="49.06411" lon="-0.39705">
        <ele>76.8</ele>
        <time>2024-05-26T08:09:00Z</time>
      </trkpt>
      <trkpt lat="49.06405" lon="-0.3971">
        <ele>76.8</ele>
        <time>2024-05-26T08:09:01Z</time>
      </trkpt>
      <trkpt lat="49.06399" lon="-0.39715">
        <ele>76.8</ele>
        <time>2024-05-26T08:09:02Z</time>
      </trkpt>
      <trkpt lat="49.06392" lon="-0.3972">
        <ele>76.8</ele>
        <time>2024-05-26T08:09:03Z</time>
      </trkpt>
      <trkpt lat="49.06386" lon="-0.39725">
        <ele>76.8</ele>
        <time>2024-05-26T08:09:04Z</time>
      </trkpt>
      <trkpt lat="49.0638" lon="-0.39729">
        <ele>76.6</ele>
        <time>2024-05-26T08:09:05Z</time>
      </trkpt>
      <trkpt lat="49.06373" lon="-0.39734">
        <ele>76.6</ele>
        <time>2024-05-26T08:09:06Z</time>
      </trkpt>
      <trkpt lat="49.06367" lon="-0.39739">
        <ele>76.4</ele>
        <time>2024-05-26T08:09:07Z</time>
      </trkpt>
      <trkpt lat="49.0636" lon="-0.39744">
        <ele>76.2</ele>
        <time>2024-05-26T08:09:08Z</time>
      </trkpt>
      <trkpt lat="49.06354" lon="-0.39749">
        <ele>76.2</ele>
        <time>2024-05-26T08:09:09Z</time>
      </trkpt>
      <trkpt lat="49.06348" lon="-0.39754">
        <ele>76</ele>
        <time>2024-05-26T08:09:10Z</time>
      </trkpt>
      <trkpt lat="49.06342" lon="-0.39758">
        <ele>76</ele>
        <time>2024-05-26T08:09:11Z</time>
      </trkpt>
      <trkpt lat="49.06336" lon="-0.39763">
        <ele>76</ele>
        <time>2024-05-26T08:09:12Z</time>
      </trkpt>
      <trkpt lat="49.06329" lon="-0.39768">
        <ele>76</ele>
        <time>2024-05-26T08:09:13Z</time>
      </trkpt>
      <trkpt lat="49.06323" lon="-0.39773">
        <ele>76</ele>
        <time>2024-05-26T08:09:14Z</time>
      </trkpt>
      <trkpt lat="49.06316" lon="-0.39778">
        <ele>76</ele>
        <time>2024-05-26T08:09:15Z</time>
      </trkpt>
      <trkpt lat="49.0631" lon="-0.39784">
        <ele>76</ele>
        <time>2024-05-26T08:09:16Z</time>
      </trkpt>
      <trkpt lat="49.06304" lon="-0.39789">
        <ele>76</ele>
        <time>2024-05-26T08:09:17Z</time>
      </trkpt>
      <trkpt lat="49.06298" lon="-0.39794">
        <ele>76</ele>
        <time>2024-05-26T08:09:18Z</time>
      </trkpt>
      <trkpt lat="49.06292" lon="-0.39799">
        <ele>76</ele>
        <time>2024-05-26T08:09:19Z</time>
      </trkpt>
      <trkpt lat="49.06285" lon="-0.39804">
        <ele>76</ele>
        <time>2024-05-26T08:09:20Z</time>
      </trkpt>
      <trkpt lat="49.06279" lon="-0.39809">
        <ele>76.2</ele>
        <time>2024-05-26T08:09:21Z</time>
      </trkpt>
      <trkpt lat="49.06273" lon="-0.39813">
        <ele>76.2</ele>
        <time>2024-05-26T08:09:22Z</time>
      </trkpt>
      <trkpt lat="49.06267" lon="-0.39818">
        <ele>76.2</ele>
        <time>2024-05-26T08:09:23Z</time>
      </trkpt>
      <trkpt lat="49.06261" lon="-0.39823">
        <ele>76.4</ele>
        <time>2024-05-26T08:09:24Z</time>
      </trkpt>
      <trkpt lat="49.06255" lon="-0.39828">
        <ele>76.4</ele>
        <time>2024-05-26T08:09:25Z</time>
      </trkpt>
      <trkpt lat="49.06249" lon="-0.39832">
        <ele>76.8</ele>
        <time>2024-05-26T08:09:26Z</time>
      </trkpt>
      <trkpt lat="49.06243" lon="-0.39837">
        <ele>77.2</ele>
        <time>2024-05-26T08:09:27Z</time>
      </trkpt>
      <trkpt lat="49.06236" lon="-0.39842">
        <ele>77</ele>
        <time>2024-05-26T08:09:28Z</time>
      </trkpt>
      <trkpt lat="49.0623" lon="-0.39847">
        <ele>77.2</ele>
        <time>2024-05-26T08:09:29Z</time>
      </trkpt>
      <trkpt lat="49.06224" lon="-0.39851">
        <ele>77.4</ele>
        <time>2024-05-26T08:09:30Z</time>
      </trkpt>
      <trkpt lat="49.06218" lon="-0.39857">
        <ele>77.6</ele>
        <time>2024-05-26T08:09:31Z</time>
      </trkpt>
      <trkpt lat="49.06212" lon="-0.39862">
        <ele>77.6</ele>
        <time>2024-05-26T08:09:32Z</time>
      </trkpt>
      <trkpt lat="49.06206" lon="-0.39866">
        <ele>77.8</ele>
        <time>2024-05-26T08:09:33Z</time>
      </trkpt>
      <trkpt lat="49.06201" lon="-0.39871">
        <ele>77.8</ele>
        <time>2024-05-26T08:09:34Z</time>
      </trkpt>
      <trkpt lat="49.06194" lon="-0.39875">
        <ele>77.8</ele>
        <time>2024-05-26T08:09:35Z</time>
      </trkpt>
      <trkpt lat="49.06188" lon="-0.3988">
        <ele>77.8</ele>
        <time>2024-05-26T08:09:36Z</time>
      </trkpt>
      <trkpt lat="49.06182" lon="-0.39885">
        <ele>78</ele>
        <time>2024-05-26T08:09:37Z</time>
      </trkpt>
      <trkpt lat="49.06176" lon="-0.39891">
        <ele>78</ele>
        <time>2024-05-26T08:09:38Z</time>
      </trkpt>
      <trkpt lat="49.06169" lon="-0.39896">
        <ele>78</ele>
        <time>2024-05-26T08:09:39Z</time>
      </trkpt>
      <trkpt lat="49.06163" lon="-0.39903">
        <ele>78</ele>
        <time>2024-05-26T08:09:40Z</time>
      </trkpt>
      <trkpt lat="49.06157" lon="-0.39909">
        <ele>78</ele>
        <time>2024-05-26T08:09:41Z</time>
      </trkpt>
      <trkpt lat="49.06151" lon="-0.39916">
        <ele>78.2</ele>
        <time>2024-05-26T08:09:42Z</time>
      </trkpt>
      <trkpt lat="49.06145" lon="-0.39924">
        <ele>78.2</ele>
        <time>2024-05-26T08:09:43Z</time>
      </trkpt>
      <trkpt lat="49.06139" lon="-0.39931">
        <ele>78.2</ele>
        <time>2024-05-26T08:09:44Z</time>
      </trkpt>
      <trkpt lat="49.06133" lon="-0.39937">
        <ele>78.2</ele>
        <time>2024-05-26T08:09:45Z</time>
      </trkpt>
      <trkpt lat="49.06127" lon="-0.39944">
        <ele>78.4</ele>
        <time>2024-05-26T08:09:46Z</time>
      </trkpt>
      <trkpt lat="49.06122" lon="-0.39951">
        <ele>78.6</ele>
        <time>2024-05-26T08:09:47Z</time>
      </trkpt>
      <trkpt lat="49.06116" lon="-0.39959">
        <ele>78.6</ele>
        <time>2024-05-26T08:09:48Z</time>
      </trkpt>
      <trkpt lat="49.0611" lon="-0.39967">
        <ele>78.8</ele>
        <time>2024-05-26T08:09:49Z</time>
      </trkpt>
      <trkpt lat="49.06105" lon="-0.39975">
        <ele>79</ele>
        <time>2024-05-26T08:09:50Z</time>
      </trkpt>
      <trkpt lat="49.06099" lon="-0.39984">
        <ele>79.2</ele>
        <time>2024-05-26T08:09:51Z</time>
      </trkpt>
      <trkpt lat="49.06094" lon="-0.39992">
        <ele>79.4</ele>
        <time>2024-05-26T08:09:52Z</time>
      </trkpt>
      <trkpt lat="49.06089" lon="-0.40001">
        <ele>79.6</ele>
        <time>2024-05-26T08:09:53Z</time>
      </trkpt>
      <trkpt lat="49.06084" lon="-0.4001">
        <ele>79.6</ele>
        <time>2024-05-26T08:09:54Z</time>
      </trkpt>
      <trkpt lat="49.06079" lon="-0.40019">
        <ele>79.8</ele>
        <time>2024-05-26T08:09:55Z</time>
      </trkpt>
      <trkpt lat="49.06074" lon="-0.40027">
        <ele>80.2</ele>
        <time>2024-05-26T08:09:56Z</time>
      </trkpt>
      <trkpt lat="49.06068" lon="-0.40036">
        <ele>80.8</ele>
        <time>2024-05-26T08:09:57Z</time>
      </trkpt>
      <trkpt lat="49.06063" lon="-0.40044">
        <ele>81.2</ele>
        <time>2024-05-26T08:09:58Z</time>
      </trkpt>
      <trkpt lat="49.06058" lon="-0.40053">
        <ele>81.4</ele>
        <time>2024-05-26T08:09:59Z</time>
      </trkpt>
      <trkpt lat="49.06052" lon="-0.40062">
        <ele>81.4</ele>
        <time>2024-05-26T08:10:00Z</time>
      </trkpt>
      <trkpt lat="49.06047" lon="-0.40071">
        <ele>81.6</ele>
        <time>2024-05-26T08:10:01Z</time>
      </trkpt>
      <trkpt lat="49.06042" lon="-0.4008">
        <ele>81.8</ele>
        <time>2024-05-26T08:10:02Z</time>
      </trkpt>
      <trkpt lat="49.06037" lon="-0.40088">
        <ele>81.8</ele>
        <time>2024-05-26T08:10:03Z</time>
      </trkpt>
      <trkpt lat="49.06032" lon="-0.40096">
        <ele>81.8</ele>
        <time>2024-05-26T08:10:04Z</time>
      </trkpt>
      <trkpt lat="49.06027" lon="-0.40104">
        <ele>81.8</ele>
        <time>2024-05-26T08:10:05Z</time>
      </trkpt>
      <trkpt lat="49.06023" lon="-0.40112">
        <ele>82</ele>
        <time>2024-05-26T08:10:06Z</time>
      </trkpt>
      <trkpt lat="49.06018" lon="-0.4012">
        <ele>82.2</ele>
        <time>2024-05-26T08:10:07Z</time>
      </trkpt>
      <trkpt lat="49.06013" lon="-0.40127">
        <ele>82.2</ele>
        <time>2024-05-26T08:10:08Z</time>
      </trkpt>
      <trkpt lat="49.06008" lon="-0.40134">
        <ele>82.4</ele>
        <time>2024-05-26T08:10:09Z</time>
      </trkpt>
      <trkpt lat="49.06004" lon="-0.40142">
        <ele>82.4</ele>
        <time>2024-05-26T08:10:10Z</time>
      </trkpt>
      <trkpt lat="49.05999" lon="-0.40149">
        <ele>82.6</ele>
        <time>2024-05-26T08:10:11Z</time>
      </trkpt>
      <trkpt lat="49.05995" lon="-0.40156">
        <ele>83</ele>
        <time>2024-05-26T08:10:12Z</time>
      </trkpt>
      <trkpt lat="49.05991" lon="-0.40164">
        <ele>83.4</ele>
        <time>2024-05-26T08:10:13Z</time>
      </trkpt>
      <trkpt lat="49.05987" lon="-0.40171">
        <ele>83.6</ele>
        <time>2024-05-26T08:10:14Z</time>
      </trkpt>
      <trkpt lat="49.05983" lon="-0.40178">
        <ele>83.8</ele>
        <time>2024-05-26T08:10:15Z</time>
      </trkpt>
      <trkpt lat="49.05978" lon="-0.40186">
        <ele>84</ele>
        <time>2024-05-26T08:10:16Z</time>
      </trkpt>
      <trkpt lat="49.05974" lon="-0.40193">
        <ele>84.2</ele>
        <time>2024-05-26T08:10:17Z</time>
      </trkpt>
      <trkpt lat="49.0597" lon="-0.402">
        <ele>84.6</ele>
        <time>2024-05-26T08:10:18Z</time>
      </trkpt>
      <trkpt lat="49.05966" lon="-0.40207">
        <ele>84.8</ele>
        <time>2024-05-26T08:10:19Z</time>
      </trkpt>
      <trkpt lat="49.05961" lon="-0.40214">
        <ele>84.8</ele>
        <time>2024-05-26T08:10:20Z</time>
      </trkpt>
      <trkpt lat="49.05957" lon="-0.40221">
        <ele>84.8</ele>
        <time>2024-05-26T08:10:21Z</time>
      </trkpt>
      <trkpt lat="49.05953" lon="-0.40228">
        <ele>84.8</ele>
        <time>2024-05-26T08:10:22Z</time>
      </trkpt>
      <trkpt lat="49.05949" lon="-0.40234">
        <ele>85</ele>
        <time>2024-05-26T08:10:23Z</time>
      </trkpt>
      <trkpt lat="49.05945" lon="-0.40241">
        <ele>85.2</ele>
        <time>2024-05-26T08:10:24Z</time>
      </trkpt>
      <trkpt lat="49.05941" lon="-0.40248">
        <ele>85.2</ele>
        <time>2024-05-26T08:10:25Z</time>
      </trkpt>
      <trkpt lat="49.05937" lon="-0.40255">
        <ele>85.2</ele>
        <time>2024-05-26T08:10:26Z</time>
      </trkpt>
      <trkpt lat="49.05933" lon="-0.40261">
        <ele>85.2</ele>
        <time>2024-05-26T08:10:27Z</time>
      </trkpt>
      <trkpt lat="49.05929" lon="-0.40268">
        <ele>85.2</ele>
        <time>2024-05-26T08:10:28Z</time>
      </trkpt>
      <trkpt lat="49.05925" lon="-0.40275">
        <ele>85.2</ele>
        <time>2024-05-26T08:10:29Z</time>
      </trkpt>
      <trkpt lat="49.05921" lon="-0.40282">
        <ele>85.2</ele>
        <time>2024-05-26T08:10:30Z</time>
      </trkpt>
      <trkpt lat="49.05917" lon="-0.4029">
        <ele>85.2</ele>
        <time>2024-05-26T08:10:31Z</time>
      </trkpt>
      <trkpt lat="49.05913" lon="-0.40297">
        <ele>85.4</ele>
        <time>2024-05-26T08:10:32Z</time>
      </trkpt>
      <trkpt lat="49.05908" lon="-0.40304">
        <ele>85.4</ele>
        <time>2024-05-26T08:10:33Z</time>
      </trkpt>
      <trkpt lat="49.05904" lon="-0.40312">
        <ele>85.4</ele>
        <time>2024-05-26T08:10:34Z</time>
      </trkpt>
      <trkpt lat="49.059" lon="-0.40319">
        <ele>85.4</ele>
        <time>2024-05-26T08:10:35Z</time>
      </trkpt>
      <trkpt lat="49.05895" lon="-0.40326">
        <ele>85.4</ele>
        <time>2024-05-26T08:10:36Z</time>
      </trkpt>
      <trkpt lat="49.05891" lon="-0.40333">
        <ele>85.6</ele>
        <time>2024-05-26T08:10:37Z</time>
      </trkpt>
      <trkpt lat="49.05886" lon="-0.4034">
        <ele>85.6</ele>
        <time>2024-05-26T08:10:38Z</time>
      </trkpt>
      <trkpt lat="49.05882" lon="-0.40347">
        <ele>85.6</ele>
        <time>2024-05-26T08:10:39Z</time>
      </trkpt>
      <trkpt lat="49.05878" lon="-0.40354">
        <ele>85.6</ele>
        <time>2024-05-26T08:10:40Z</time>
      </trkpt>
      <trkpt lat="49.05873" lon="-0.40362">
        <ele>85.8</ele>
        <time>2024-05-26T08:10:41Z</time>
      </trkpt>
      <trkpt lat="49.05868" lon="-0.40369">
        <ele>86</ele>
        <time>2024-05-26T08:10:42Z</time>
      </trkpt>
      <trkpt lat="49.05864" lon="-0.40376">
        <ele>86</ele>
        <time>2024-05-26T08:10:43Z</time>
      </trkpt>
      <trkpt lat="49.0586" lon="-0.40384">
        <ele>86.2</ele>
        <time>2024-05-26T08:10:44Z</time>
      </trkpt>
      <trkpt lat="49.05855" lon="-0.40391">
        <ele>86.4</ele>
        <time>2024-05-26T08:10:45Z</time>
      </trkpt>
      <trkpt lat="49.05851" lon="-0.40398">
        <ele>86.4</ele>
        <time>2024-05-26T08:10:46Z</time>
      </trkpt>
      <trkpt lat="49.05846" lon="-0.40405">
        <ele>86.4</ele>
        <time>2024-05-26T08:10:47Z</time>
      </trkpt>
      <trkpt lat="49.05842" lon="-0.40412">
        <ele>86.6</ele>
        <time>2024-05-26T08:10:48Z</time>
      </trkpt>
      <trkpt lat="49.05838" lon="-0.40419">
        <ele>86.6</ele>
        <time>2024-05-26T08:10:49Z</time>
      </trkpt>
      <trkpt lat="49.05833" lon="-0.40427">
        <ele>86.8</ele>
        <time>2024-05-26T08:10:50Z</time>
      </trkpt>
      <trkpt lat="49.05829" lon="-0.40434">
        <ele>87</ele>
        <time>2024-05-26T08:10:51Z</time>
      </trkpt>
      <trkpt lat="49.05824" lon="-0.40441">
        <ele>87</ele>
        <time>2024-05-26T08:10:52Z</time>
      </trkpt>
      <trkpt lat="49.0582" lon="-0.40448">
        <ele>87.2</ele>
        <time>2024-05-26T08:10:53Z</time>
      </trkpt>
      <trkpt lat="49.05815" lon="-0.40455">
        <ele>87.6</ele>
        <time>2024-05-26T08:10:54Z</time>
      </trkpt>
      <trkpt lat="49.0581" lon="-0.40462">
        <ele>87.8</ele>
        <time>2024-05-26T08:10:55Z</time>
      </trkpt>
      <trkpt lat="49.05805" lon="-0.40468">
        <ele>87.8</ele>
        <time>2024-05-26T08:10:56Z</time>
      </trkpt>
      <trkpt lat="49.058" lon="-0.40475">
        <ele>88</ele>
        <time>2024-05-26T08:10:57Z</time>
      </trkpt>
      <trkpt lat="49.05795" lon="-0.40481">
        <ele>88.2</ele>
        <time>2024-05-26T08:10:58Z</time>
      </trkpt>
      <trkpt lat="49.0579" lon="-0.40487">
        <ele>88.4</ele>
        <time>2024-05-26T08:10:59Z</time>
      </trkpt>
      <trkpt lat="49.05784" lon="-0.40494">
        <ele>88.6</ele>
        <time>2024-05-26T08:11:00Z</time>
      </trkpt>
      <trkpt lat="49.05779" lon="-0.405">
        <ele>88.6</ele>
        <time>2024-05-26T08:11:01Z</time>
      </trkpt>
      <trkpt lat="49.05773" lon="-0.40506">
        <ele>88.6</ele>
        <time>2024-05-26T08:11:02Z</time>
      </trkpt>
      <trkpt lat="49.05768" lon="-0.40512">
        <ele>88.6</ele>
        <time>2024-05-26T08:11:03Z</time>
      </trkpt>
      <trkpt lat="49.05763" lon="-0.40518">
        <ele>88.8</ele>
        <time>2024-05-26T08:11:04Z</time>
      </trkpt>
      <trkpt lat="49.05757" lon="-0.40523">
        <ele>88.8</ele>
        <time>2024-05-26T08:11:05Z</time>
      </trkpt>
      <trkpt lat="49.05751" lon="-0.40528">
        <ele>88.8</ele>
        <time>2024-05-26T08:11:06Z</time>
      </trkpt>
      <trkpt lat="49.05746" lon="-0.40534">
        <ele>89</ele>
        <time>2024-05-26T08:11:07Z</time>
      </trkpt>
      <trkpt lat="49.0574" lon="-0.40539">
        <ele>89</ele>
        <time>2024-05-26T08:11:08Z</time>
      </trkpt>
      <trkpt lat="49.05735" lon="-0.40544">
        <ele>89.2</ele>
        <time>2024-05-26T08:11:09Z</time>
      </trkpt>
      <trkpt lat="49.05729" lon="-0.40549">
        <ele>89.2</ele>
        <time>2024-05-26T08:11:10Z</time>
      </trkpt>
      <trkpt lat="49.05723" lon="-0.40554">
        <ele>89.2</ele>
        <time>2024-05-26T08:11:11Z</time>
      </trkpt>
      <trkpt lat="49.05717" lon="-0.40559">
        <ele>89.4</ele>
        <time>2024-05-26T08:11:12Z</time>
      </trkpt>
      <trkpt lat="49.05711" lon="-0.40565">
        <ele>89.4</ele>
        <time>2024-05-26T08:11:13Z</time>
      </trkpt>
      <trkpt lat="49.05705" lon="-0.4057">
        <ele>89.4</ele>
        <time>2024-05-26T08:11:14Z</time>
      </trkpt>
      <trkpt lat="49.05699" lon="-0.40575">
        <ele>89.4</ele>
        <time>2024-05-26T08:11:15Z</time>
      </trkpt>
      <trkpt lat="49.05693" lon="-0.4058">
        <ele>89.6</ele>
        <time>2024-05-26T08:11:16Z</time>
      </trkpt>
      <trkpt lat="49.05687" lon="-0.40585">
        <ele>90</ele>
        <time>2024-05-26T08:11:17Z</time>
      </trkpt>
      <trkpt lat="49.05681" lon="-0.40589">
        <ele>90</ele>
        <time>2024-05-26T08:11:18Z</time>
      </trkpt>
      <trkpt lat="49.05675" lon="-0.40593">
        <ele>90.2</ele>
        <time>2024-05-26T08:11:19Z</time>
      </trkpt>
      <trkpt lat="49.05669" lon="-0.40598">
        <ele>90.2</ele>
        <time>2024-05-26T08:11:20Z</time>
      </trkpt>
      <trkpt lat="49.05663" lon="-0.40603">
        <ele>90.2</ele>
        <time>2024-05-26T08:11:21Z</time>
      </trkpt>
      <trkpt lat="49.05656" lon="-0.40607">
        <ele>90.2</ele>
        <time>2024-05-26T08:11:22Z</time>
      </trkpt>
      <trkpt lat="49.0565" lon="-0.40612">
        <ele>90.4</ele>
        <time>2024-05-26T08:11:23Z</time>
      </trkpt>
      <trkpt lat="49.05644" lon="-0.40616">
        <ele>90.4</ele>
        <time>2024-05-26T08:11:24Z</time>
      </trkpt>
      <trkpt lat="49.05638" lon="-0.40621">
        <ele>90.4</ele>
        <time>2024-05-26T08:11:25Z</time>
      </trkpt>
      <trkpt lat="49.05632" lon="-0.40626">
        <ele>90.4</ele>
        <time>2024-05-26T08:11:26Z</time>
      </trkpt>
      <trkpt lat="49.05626" lon="-0.4063">
        <ele>90.4</ele>
        <time>2024-05-26T08:11:27Z</time>
      </trkpt>
      <trkpt lat="49.0562" lon="-0.40635">
        <ele>90.4</ele>
        <time>2024-05-26T08:11:28Z</time>
      </trkpt>
      <trkpt lat="49.05614" lon="-0.40639">
        <ele>90.6</ele>
        <time>2024-05-26T08:11:29Z</time>
      </trkpt>
      <trkpt lat="49.05608" lon="-0.40644">
        <ele>90.6</ele>
        <time>2024-05-26T08:11:30Z</time>
      </trkpt>
      <trkpt lat="49.05602" lon="-0.40648">
        <ele>90.6</ele>
        <time>2024-05-26T08:11:31Z</time>
      </trkpt>
      <trkpt lat="49.05596" lon="-0.40653">
        <ele>90.6</ele>
        <time>2024-05-26T08:11:32Z</time>
      </trkpt>
      <trkpt lat="49.0559" lon="-0.40657">
        <ele>90.6</ele>
        <time>2024-05-26T08:11:33Z</time>
      </trkpt>
      <trkpt lat="49.05584" lon="-0.40662">
        <ele>90.8</ele>
        <time>2024-05-26T08:11:34Z</time>
      </trkpt>
      <trkpt lat="49.05578" lon="-0.40666">
        <ele>90.8</ele>
        <time>2024-05-26T08:11:35Z</time>
      </trkpt>
      <trkpt lat="49.05572" lon="-0.4067">
        <ele>90.8</ele>
        <time>2024-05-26T08:11:36Z</time>
      </trkpt>
      <trkpt lat="49.05567" lon="-0.40675">
        <ele>91</ele>
        <time>2024-05-26T08:11:37Z</time>
      </trkpt>
      <trkpt lat="49.05561" lon="-0.40679">
        <ele>91</ele>
        <time>2024-05-26T08:11:38Z</time>
      </trkpt>
      <trkpt lat="49.05555" lon="-0.40683">
        <ele>91</ele>
        <time>2024-05-26T08:11:39Z</time>
      </trkpt>
      <trkpt lat="49.05549" lon="-0.40687">
        <ele>91.2</ele>
        <time>2024-05-26T08:11:40Z</time>
      </trkpt>
      <trkpt lat="49.05543" lon="-0.40691">
        <ele>91.4</ele>
        <time>2024-05-26T08:11:41Z</time>
      </trkpt>
      <trkpt lat="49.05537" lon="-0.40694">
        <ele>91.4</ele>
        <time>2024-05-26T08:11:42Z</time>
      </trkpt>
      <trkpt lat="49.05531" lon="-0.40698">
        <ele>91.6</ele>
        <time>2024-05-26T08:11:43Z</time>
      </trkpt>
      <trkpt lat="49.05525" lon="-0.40702">
        <ele>91.6</ele>
        <time>2024-05-26T08:11:44Z</time>
      </trkpt>
      <trkpt lat="49.05519" lon="-0.40705">
        <ele>91.8</ele>
        <time>2024-05-26T08:11:45Z</time>
      </trkpt>
      <trkpt lat="49.05513" lon="-0.40709">
        <ele>91.8</ele>
        <time>2024-05-26T08:11:46Z</time>
      </trkpt>
      <trkpt lat="49.05506" lon="-0.40713">
        <ele>91.8</ele>
        <time>2024-05-26T08:11:47Z</time>
      </trkpt>
      <trkpt lat="49.055" lon="-0.40716">
        <ele>92</ele>
        <time>2024-05-26T08:11:48Z</time>
      </trkpt>
      <trkpt lat="49.05494" lon="-0.4072">
        <ele>92.2</ele>
        <time>2024-05-26T08:11:49Z</time>
      </trkpt>
      <trkpt lat="49.05487" lon="-0.40723">
        <ele>92.2</ele>
        <time>2024-05-26T08:11:50Z</time>
      </trkpt>
      <trkpt lat="49.05481" lon="-0.40726">
        <ele>92.4</ele>
        <time>2024-05-26T08:11:51Z</time>
      </trkpt>
      <trkpt lat="49.05474" lon="-0.40729">
        <ele>92.4</ele>
        <time>2024-05-26T08:11:52Z</time>
      </trkpt>
      <trkpt lat="49.05467" lon="-0.40732">
        <ele>92.4</ele>
        <time>2024-05-26T08:11:53Z</time>
      </trkpt>
      <trkpt lat="49.05461" lon="-0.40735">
        <ele>92.4</ele>
        <time>2024-05-26T08:11:54Z</time>
      </trkpt>
      <trkpt lat="49.05454" lon="-0.40737">
        <ele>92.4</ele>
        <time>2024-05-26T08:11:55Z</time>
      </trkpt>
      <trkpt lat="49.05447" lon="-0.4074">
        <ele>92.6</ele>
        <time>2024-05-26T08:11:56Z</time>
      </trkpt>
      <trkpt lat="49.0544" lon="-0.40743">
        <ele>92.8</ele>
        <time>2024-05-26T08:11:57Z</time>
      </trkpt>
      <trkpt lat="49.05433" lon="-0.40745">
        <ele>92.8</ele>
        <time>2024-05-26T08:11:58Z</time>
      </trkpt>
      <trkpt lat="49.05427" lon="-0.40748">
        <ele>92.8</ele>
        <time>2024-05-26T08:11:59Z</time>
      </trkpt>
      <trkpt lat="49.0542" lon="-0.40751">
        <ele>93</ele>
        <time>2024-05-26T08:12:00Z</time>
      </trkpt>
      <trkpt lat="49.05414" lon="-0.40754">
        <ele>93</ele>
        <time>2024-05-26T08:12:01Z</time>
      </trkpt>
      <trkpt lat="49.05407" lon="-0.40757">
        <ele>93.2</ele>
        <time>2024-05-26T08:12:02Z</time>
      </trkpt>
      <trkpt lat="49.05401" lon="-0.4076">
        <ele>93.2</ele>
        <time>2024-05-26T08:12:03Z</time>
      </trkpt>
      <trkpt lat="49.05394" lon="-0.40762">
        <ele>93.2</ele>
        <time>2024-05-26T08:12:04Z</time>
      </trkpt>
      <trkpt lat="49.05388" lon="-0.40766">
        <ele>93.2</ele>
        <time>2024-05-26T08:12:05Z</time>
      </trkpt>
      <trkpt lat="49.05381" lon="-0.40769">
        <ele>93.2</ele>
        <time>2024-05-26T08:12:06Z</time>
      </trkpt>
      <trkpt lat="49.05375" lon="-0.40771">
        <ele>93.2</ele>
        <time>2024-05-26T08:12:07Z</time>
      </trkpt>
      <trkpt lat="49.05368" lon="-0.40774">
        <ele>93.2</ele>
        <time>2024-05-26T08:12:08Z</time>
      </trkpt>
      <trkpt lat="49.05362" lon="-0.40777">
        <ele>93.4</ele>
        <time>2024-05-26T08:12:09Z</time>
      </trkpt>
      <trkpt lat="49.05355" lon="-0.40779">
        <ele>93.4</ele>
        <time>2024-05-26T08:12:10Z</time>
      </trkpt>
      <trkpt lat="49.05349" lon="-0.40782">
        <ele>93.4</ele>
        <time>2024-05-26T08:12:11Z</time>
      </trkpt>
      <trkpt lat="49.05342" lon="-0.40785">
        <ele>93.6</ele>
        <time>2024-05-26T08:12:12Z</time>
      </trkpt>
      <trkpt lat="49.05336" lon="-0.40788">
        <ele>93.6</ele>
        <time>2024-05-26T08:12:13Z</time>
      </trkpt>
      <trkpt lat="49.0533" lon="-0.40791">
        <ele>93.8</ele>
        <time>2024-05-26T08:12:14Z</time>
      </trkpt>
      <trkpt lat="49.05323" lon="-0.40794">
        <ele>94</ele>
        <time>2024-05-26T08:12:15Z</time>
      </trkpt>
      <trkpt lat="49.05317" lon="-0.40797">
        <ele>94.2</ele>
        <time>2024-05-26T08:12:16Z</time>
      </trkpt>
      <trkpt lat="49.0531" lon="-0.408">
        <ele>94.2</ele>
        <time>2024-05-26T08:12:17Z</time>
      </trkpt>
      <trkpt lat="49.05304" lon="-0.40803">
        <ele>94.2</ele>
        <time>2024-05-26T08:12:18Z</time>
      </trkpt>
      <trkpt lat="49.05297" lon="-0.40806">
        <ele>94.4</ele>
        <time>2024-05-26T08:12:19Z</time>
      </trkpt>
      <trkpt lat="49.0529" lon="-0.40809">
        <ele>94.4</ele>
        <time>2024-05-26T08:12:20Z</time>
      </trkpt>
      <trkpt lat="49.05284" lon="-0.40812">
        <ele>94.4</ele>
        <time>2024-05-26T08:12:21Z</time>
      </trkpt>
      <trkpt lat="49.05277" lon="-0.40814">
        <ele>94.4</ele>
        <time>2024-05-26T08:12:22Z</time>
      </trkpt>
      <trkpt lat="49.0527" lon="-0.40817">
        <ele>94.6</ele>
        <time>2024-05-26T08:12:23Z</time>
      </trkpt>
      <trkpt lat="49.05263" lon="-0.40821">
        <ele>94.6</ele>
        <time>2024-05-26T08:12:24Z</time>
      </trkpt>
      <trkpt lat="49.05257" lon="-0.40824">
        <ele>94.6</ele>
        <time>2024-05-26T08:12:25Z</time>
      </trkpt>
      <trkpt lat="49.0525" lon="-0.40827">
        <ele>94.6</ele>
        <time>2024-05-26T08:12:26Z</time>
      </trkpt>
      <trkpt lat="49.05244" lon="-0.40829">
        <ele>94.6</ele>
        <time>2024-05-26T08:12:27Z</time>
      </trkpt>
      <trkpt lat="49.05237" lon="-0.40832">
        <ele>94.6</ele>
        <time>2024-05-26T08:12:28Z</time>
      </trkpt>
      <trkpt lat="49.0523" lon="-0.40835">
        <ele>94.8</ele>
        <time>2024-05-26T08:12:29Z</time>
      </trkpt>
      <trkpt lat="49.05224" lon="-0.40838">
        <ele>94.8</ele>
        <time>2024-05-26T08:12:30Z</time>
      </trkpt>
      <trkpt lat="49.05217" lon="-0.40841">
        <ele>94.8</ele>
        <time>2024-05-26T08:12:31Z</time>
      </trkpt>
      <trkpt lat="49.05211" lon="-0.40843">
        <ele>95</ele>
        <time>2024-05-26T08:12:32Z</time>
      </trkpt>
      <trkpt lat="49.05204" lon="-0.40846">
        <ele>95</ele>
        <time>2024-05-26T08:12:33Z</time>
      </trkpt>
      <trkpt lat="49.05197" lon="-0.4085">
        <ele>95</ele>
        <time>2024-05-26T08:12:34Z</time>
      </trkpt>
      <trkpt lat="49.05191" lon="-0.40853">
        <ele>95.2</ele>
        <time>2024-05-26T08:12:35Z</time>
      </trkpt>
      <trkpt lat="49.05184" lon="-0.40856">
        <ele>95.2</ele>
        <time>2024-05-26T08:12:36Z</time>
      </trkpt>
      <trkpt lat="49.05178" lon="-0.40859">
        <ele>95.2</ele>
        <time>2024-05-26T08:12:37Z</time>
      </trkpt>
      <trkpt lat="49.05171" lon="-0.40861">
        <ele>95.2</ele>
        <time>2024-05-26T08:12:38Z</time>
      </trkpt>
      <trkpt lat="49.05165" lon="-0.40864">
        <ele>95.2</ele>
        <time>2024-05-26T08:12:39Z</time>
      </trkpt>
      <trkpt lat="49.05159" lon="-0.40867">
        <ele>95.2</ele>
        <time>2024-05-26T08:12:40Z</time>
      </trkpt>
      <trkpt lat="49.05152" lon="-0.4087">
        <ele>95.4</ele>
        <time>2024-05-26T08:12:41Z</time>
      </trkpt>
      <trkpt lat="49.05145" lon="-0.40873">
        <ele>95.4</ele>
        <time>2024-05-26T08:12:42Z</time>
      </trkpt>
      <trkpt lat="49.05138" lon="-0.40877">
        <ele>95.2</ele>
        <time>2024-05-26T08:12:43Z</time>
      </trkpt>
      <trkpt lat="49.05131" lon="-0.40879">
        <ele>95.2</ele>
        <time>2024-05-26T08:12:44Z</time>
      </trkpt>
      <trkpt lat="49.05124" lon="-0.40882">
        <ele>95.2</ele>
        <time>2024-05-26T08:12:45Z</time>
      </trkpt>
      <trkpt lat="49.05118" lon="-0.40884">
        <ele>95.2</ele>
        <time>2024-05-26T08:12:46Z</time>
      </trkpt>
      <trkpt lat="49.05111" lon="-0.40887">
        <ele>95</ele>
        <time>2024-05-26T08:12:47Z</time>
      </trkpt>
      <trkpt lat="49.05104" lon="-0.4089">
        <ele>95</ele>
        <time>2024-05-26T08:12:48Z</time>
      </trkpt>
      <trkpt lat="49.05097" lon="-0.40893">
        <ele>95</ele>
        <time>2024-05-26T08:12:49Z</time>
      </trkpt>
      <trkpt lat="49.05091" lon="-0.40896">
        <ele>95</ele>
        <time>2024-05-26T08:12:50Z</time>
      </trkpt>
      <trkpt lat="49.05084" lon="-0.40899">
        <ele>95.2</ele>
        <time>2024-05-26T08:12:51Z</time>
      </trkpt>
      <trkpt lat="49.05077" lon="-0.40901">
        <ele>95.4</ele>
        <time>2024-05-26T08:12:52Z</time>
      </trkpt>
      <trkpt lat="49.05071" lon="-0.40904">
        <ele>95.4</ele>
        <time>2024-05-26T08:12:53Z</time>
      </trkpt>
      <trkpt lat="49.05064" lon="-0.40907">
        <ele>95.4</ele>
        <time>2024-05-26T08:12:54Z</time>
      </trkpt>
      <trkpt lat="49.05058" lon="-0.4091">
        <ele>95.6</ele>
        <time>2024-05-26T08:12:55Z</time>
      </trkpt>
      <trkpt lat="49.05051" lon="-0.40913">
        <ele>95.8</ele>
        <time>2024-05-26T08:12:56Z</time>
      </trkpt>
      <trkpt lat="49.05045" lon="-0.40916">
        <ele>96</ele>
        <time>2024-05-26T08:12:57Z</time>
      </trkpt>
      <trkpt lat="49.05038" lon="-0.40919">
        <ele>96.4</ele>
        <time>2024-05-26T08:12:58Z</time>
      </trkpt>
      <trkpt lat="49.05032" lon="-0.40922">
        <ele>96.6</ele>
        <time>2024-05-26T08:12:59Z</time>
      </trkpt>
      <trkpt lat="49.05025" lon="-0.40925">
        <ele>97</ele>
        <time>2024-05-26T08:13:00Z</time>
      </trkpt>
      <trkpt lat="49.05019" lon="-0.40928">
        <ele>97.2</ele>
        <time>2024-05-26T08:13:01Z</time>
      </trkpt>
      <trkpt lat="49.05013" lon="-0.4093">
        <ele>97.4</ele>
        <time>2024-05-26T08:13:02Z</time>
      </trkpt>
      <trkpt lat="49.05007" lon="-0.40933">
        <ele>97.2</ele>
        <time>2024-05-26T08:13:03Z</time>
      </trkpt>
      <trkpt lat="49.05001" lon="-0.40936">
        <ele>97.4</ele>
        <time>2024-05-26T08:13:04Z</time>
      </trkpt>
      <trkpt lat="49.04994" lon="-0.40939">
        <ele>97.6</ele>
        <time>2024-05-26T08:13:05Z</time>
      </trkpt>
      <trkpt lat="49.04988" lon="-0.40941">
        <ele>97.8</ele>
        <time>2024-05-26T08:13:06Z</time>
      </trkpt>
      <trkpt lat="49.04982" lon="-0.40944">
        <ele>97.8</ele>
        <time>2024-05-26T08:13:07Z</time>
      </trkpt>
      <trkpt lat="49.04976" lon="-0.40946">
        <ele>98</ele>
        <time>2024-05-26T08:13:08Z</time>
      </trkpt>
      <trkpt lat="49.0497" lon="-0.40948">
        <ele>98</ele>
        <time>2024-05-26T08:13:09Z</time>
      </trkpt>
      <trkpt lat="49.04963" lon="-0.4095">
        <ele>98</ele>
        <time>2024-05-26T08:13:10Z</time>
      </trkpt>
      <trkpt lat="49.04957" lon="-0.40953">
        <ele>98</ele>
        <time>2024-05-26T08:13:11Z</time>
      </trkpt>
      <trkpt lat="49.0495" lon="-0.40955">
        <ele>98.2</ele>
        <time>2024-05-26T08:13:12Z</time>
      </trkpt>
      <trkpt lat="49.04944" lon="-0.40957">
        <ele>98.2</ele>
        <time>2024-05-26T08:13:13Z</time>
      </trkpt>
      <trkpt lat="49.04937" lon="-0.40958">
        <ele>98.2</ele>
        <time>2024-05-26T08:13:14Z</time>
      </trkpt>
      <trkpt lat="49.0493" lon="-0.4096">
        <ele>98.2</ele>
        <time>2024-05-26T08:13:15Z</time>
      </trkpt>
      <trkpt lat="49.04924" lon="-0.40962">
        <ele>98.2</ele>
        <time>2024-05-26T08:13:16Z</time>
      </trkpt>
      <trkpt lat="49.04917" lon="-0.40963">
        <ele>98.2</ele>
        <time>2024-05-26T08:13:17Z</time>
      </trkpt>
      <trkpt lat="49.04911" lon="-0.40965">
        <ele>98.4</ele>
        <time>2024-05-26T08:13:18Z</time>
      </trkpt>
      <trkpt lat="49.04904" lon="-0.40966">
        <ele>98.6</ele>
        <time>2024-05-26T08:13:19Z</time>
      </trkpt>
      <trkpt lat="49.04898" lon="-0.40968">
        <ele>99.2</ele>
        <time>2024-05-26T08:13:20Z</time>
      </trkpt>
      <trkpt lat="49.04891" lon="-0.40969">
        <ele>99.8</ele>
        <time>2024-05-26T08:13:21Z</time>
      </trkpt>
      <trkpt lat="49.04885" lon="-0.4097">
        <ele>100.2</ele>
        <time>2024-05-26T08:13:22Z</time>
      </trkpt>
      <trkpt lat="49.04878" lon="-0.40971">
        <ele>100.4</ele>
        <time>2024-05-26T08:13:23Z</time>
      </trkpt>
      <trkpt lat="49.04872" lon="-0.40972">
        <ele>100.6</ele>
        <time>2024-05-26T08:13:24Z</time>
      </trkpt>
      <trkpt lat="49.04865" lon="-0.40973">
        <ele>100.6</ele>
        <time>2024-05-26T08:13:25Z</time>
      </trkpt>
      <trkpt lat="49.04859" lon="-0.40973">
        <ele>100.6</ele>
        <time>2024-05-26T08:13:26Z</time>
      </trkpt>
      <trkpt lat="49.04853" lon="-0.40975">
        <ele>100.8</ele>
        <time>2024-05-26T08:13:27Z</time>
      </trkpt>
      <trkpt lat="49.04846" lon="-0.40975">
        <ele>101</ele>
        <time>2024-05-26T08:13:28Z</time>
      </trkpt>
      <trkpt lat="49.0484" lon="-0.40977">
        <ele>101</ele>
        <time>2024-05-26T08:13:29Z</time>
      </trkpt>
      <trkpt lat="49.04833" lon="-0.40978">
        <ele>101.2</ele>
        <time>2024-05-26T08:13:30Z</time>
      </trkpt>
      <trkpt lat="49.04827" lon="-0.40979">
        <ele>101.4</ele>
        <time>2024-05-26T08:13:31Z</time>
      </trkpt>
      <trkpt lat="49.0482" lon="-0.4098">
        <ele>101.6</ele>
        <time>2024-05-26T08:13:32Z</time>
      </trkpt>
      <trkpt lat="49.04813" lon="-0.40981">
        <ele>101.8</ele>
        <time>2024-05-26T08:13:33Z</time>
      </trkpt>
      <trkpt lat="49.04807" lon="-0.40982">
        <ele>102</ele>
        <time>2024-05-26T08:13:34Z</time>
      </trkpt>
      <trkpt lat="49.048" lon="-0.40983">
        <ele>102</ele>
        <time>2024-05-26T08:13:35Z</time>
      </trkpt>
      <trkpt lat="49.04793" lon="-0.40984">
        <ele>102.6</ele>
        <time>2024-05-26T08:13:36Z</time>
      </trkpt>
      <trkpt lat="49.04787" lon="-0.40985">
        <ele>102.8</ele>
        <time>2024-05-26T08:13:37Z</time>
      </trkpt>
      <trkpt lat="49.0478" lon="-0.40986">
        <ele>102.8</ele>
        <time>2024-05-26T08:13:38Z</time>
      </trkpt>
      <trkpt lat="49.04774" lon="-0.40987">
        <ele>102.8</ele>
        <time>2024-05-26T08:13:39Z</time>
      </trkpt>
      <trkpt lat="49.04767" lon="-0.40988">
        <ele>102.8</ele>
        <time>2024-05-26T08:13:40Z</time>
      </trkpt>
      <trkpt lat="49.04761" lon="-0.40989">
        <ele>103</ele>
        <time>2024-05-26T08:13:41Z</time>
      </trkpt>
      <trkpt lat="49.04754" lon="-0.40989">
        <ele>102.8</ele>
        <time>2024-05-26T08:13:42Z</time>
      </trkpt>
      <trkpt lat="49.04748" lon="-0.4099">
        <ele>102.8</ele>
        <time>2024-05-26T08:13:43Z</time>
      </trkpt>
      <trkpt lat="49.04741" lon="-0.4099">
        <ele>102.8</ele>
        <time>2024-05-26T08:13:44Z</time>
      </trkpt>
      <trkpt lat="49.04734" lon="-0.40991">
        <ele>103</ele>
        <time>2024-05-26T08:13:45Z</time>
      </trkpt>
      <trkpt lat="49.04727" lon="-0.40991">
        <ele>103</ele>
        <time>2024-05-26T08:13:46Z</time>
      </trkpt>
      <trkpt lat="49.0472" lon="-0.40992">
        <ele>103</ele>
        <time>2024-05-26T08:13:47Z</time>
      </trkpt>
      <trkpt lat="49.04714" lon="-0.40992">
        <ele>103</ele>
        <time>2024-05-26T08:13:48Z</time>
      </trkpt>
      <trkpt lat="49.04707" lon="-0.40993">
        <ele>102.8</ele>
        <time>2024-05-26T08:13:49Z</time>
      </trkpt>
      <trkpt lat="49.04701" lon="-0.40993">
        <ele>102.8</ele>
        <time>2024-05-26T08:13:50Z</time>
      </trkpt>
      <trkpt lat="49.04695" lon="-0.40993">
        <ele>102.8</ele>
        <time>2024-05-26T08:13:51Z</time>
      </trkpt>
      <trkpt lat="49.04689" lon="-0.40993">
        <ele>102.8</ele>
        <time>2024-05-26T08:13:52Z</time>
      </trkpt>
      <trkpt lat="49.04682" lon="-0.40993">
        <ele>102.8</ele>
        <time>2024-05-26T08:13:53Z</time>
      </trkpt>
      <trkpt lat="49.04676" lon="-0.40992">
        <ele>102.8</ele>
        <time>2024-05-26T08:13:54Z</time>
      </trkpt>
      <trkpt lat="49.0467" lon="-0.40991">
        <ele>102.8</ele>
        <time>2024-05-26T08:13:55Z</time>
      </trkpt>
      <trkpt lat="49.04664" lon="-0.4099">
        <ele>102.8</ele>
        <time>2024-05-26T08:13:56Z</time>
      </trkpt>
      <trkpt lat="49.04657" lon="-0.40989">
        <ele>102.8</ele>
        <time>2024-05-26T08:13:57Z</time>
      </trkpt>
      <trkpt lat="49.04651" lon="-0.40987">
        <ele>102.8</ele>
        <time>2024-05-26T08:13:58Z</time>
      </trkpt>
      <trkpt lat="49.04645" lon="-0.40986">
        <ele>103</ele>
        <time>2024-05-26T08:13:59Z</time>
      </trkpt>
      <trkpt lat="49.04639" lon="-0.40984">
        <ele>103</ele>
        <time>2024-05-26T08:14:00Z</time>
      </trkpt>
      <trkpt lat="49.04633" lon="-0.40983">
        <ele>103.2</ele>
        <time>2024-05-26T08:14:01Z</time>
      </trkpt>
      <trkpt lat="49.04627" lon="-0.40981">
        <ele>103.4</ele>
        <time>2024-05-26T08:14:02Z</time>
      </trkpt>
      <trkpt lat="49.04621" lon="-0.4098">
        <ele>103.4</ele>
        <time>2024-05-26T08:14:03Z</time>
      </trkpt>
      <trkpt lat="49.04616" lon="-0.40978">
        <ele>103.8</ele>
        <time>2024-05-26T08:14:04Z</time>
      </trkpt>
      <trkpt lat="49.0461" lon="-0.40977">
        <ele>104</ele>
        <time>2024-05-26T08:14:05Z</time>
      </trkpt>
      <trkpt lat="49.04604" lon="-0.40975">
        <ele>104.2</ele>
        <time>2024-05-26T08:14:06Z</time>
      </trkpt>
      <trkpt lat="49.04599" lon="-0.40972">
        <ele>104.2</ele>
        <time>2024-05-26T08:14:07Z</time>
      </trkpt>
      <trkpt lat="49.04594" lon="-0.4097">
        <ele>104.2</ele>
        <time>2024-05-26T08:14:08Z</time>
      </trkpt>
      <trkpt lat="49.04589" lon="-0.40968">
        <ele>104.4</ele>
        <time>2024-05-26T08:14:09Z</time>
      </trkpt>
      <trkpt lat="49.04584" lon="-0.40966">
        <ele>104.4</ele>
        <time>2024-05-26T08:14:10Z</time>
      </trkpt>
      <trkpt lat="49.0458" lon="-0.40963">
        <ele>104.4</ele>
        <time>2024-05-26T08:14:11Z</time>
      </trkpt>
      <trkpt lat="49.04576" lon="-0.4096">
        <ele>104.4</ele>
        <time>2024-05-26T08:14:12Z</time>
      </trkpt>
      <trkpt lat="49.04572" lon="-0.40955">
        <ele>104.4</ele>
        <time>2024-05-26T08:14:13Z</time>
      </trkpt>
      <trkpt lat="49.04569" lon="-0.40949">
        <ele>104.6</ele>
        <time>2024-05-26T08:14:14Z</time>
      </trkpt>
      <trkpt lat="49.04568" lon="-0.4094">
        <ele>104.6</ele>
        <time>2024-05-26T08:14:15Z</time>
      </trkpt>
      <trkpt lat="49.04567" lon="-0.40931">
        <ele>104.8</ele>
        <time>2024-05-26T08:14:16Z</time>
      </trkpt>
      <trkpt lat="49.04566" lon="-0.40921">
        <ele>105</ele>
        <time>2024-05-26T08:14:17Z</time>
      </trkpt>
      <trkpt lat="49.04565" lon="-0.40911">
        <ele>105</ele>
        <time>2024-05-26T08:14:18Z</time>
      </trkpt>
      <trkpt lat="49.04562" lon="-0.40901">
        <ele>105.2</ele>
        <time>2024-05-26T08:14:19Z</time>
      </trkpt>
      <trkpt lat="49.04559" lon="-0.40892">
        <ele>105.2</ele>
        <time>2024-05-26T08:14:20Z</time>
      </trkpt>
      <trkpt lat="49.04555" lon="-0.40882">
        <ele>105.2</ele>
        <time>2024-05-26T08:14:21Z</time>
      </trkpt>
      <trkpt lat="49.04551" lon="-0.40873">
        <ele>105.2</ele>
        <time>2024-05-26T08:14:22Z</time>
      </trkpt>
      <trkpt lat="49.04547" lon="-0.40864">
        <ele>105.2</ele>
        <time>2024-05-26T08:14:23Z</time>
      </trkpt>
      <trkpt lat="49.04543" lon="-0.40854">
        <ele>105.2</ele>
        <time>2024-05-26T08:14:24Z</time>
      </trkpt>
      <trkpt lat="49.04541" lon="-0.40843">
        <ele>105.2</ele>
        <time>2024-05-26T08:14:25Z</time>
      </trkpt>
      <trkpt lat="49.04539" lon="-0.40833">
        <ele>105.4</ele>
        <time>2024-05-26T08:14:26Z</time>
      </trkpt>
      <trkpt lat="49.04539" lon="-0.40822">
        <ele>105.4</ele>
        <time>2024-05-26T08:14:27Z</time>
      </trkpt>
      <trkpt lat="49.04538" lon="-0.40811">
        <ele>105.6</ele>
        <time>2024-05-26T08:14:28Z</time>
      </trkpt>
      <trkpt lat="49.04538" lon="-0.40801">
        <ele>105.6</ele>
        <time>2024-05-26T08:14:29Z</time>
      </trkpt>
      <trkpt lat="49.04538" lon="-0.40791">
        <ele>105.6</ele>
        <time>2024-05-26T08:14:30Z</time>
      </trkpt>
      <trkpt lat="49.04538" lon="-0.4078">
        <ele>105.6</ele>
        <time>2024-05-26T08:14:31Z</time>
      </trkpt>
      <trkpt lat="49.04539" lon="-0.4077">
        <ele>105.8</ele>
        <time>2024-05-26T08:14:32Z</time>
      </trkpt>
      <trkpt lat="49.04538" lon="-0.4076">
        <ele>105.8</ele>
        <time>2024-05-26T08:14:33Z</time>
      </trkpt>
      <trkpt lat="49.04538" lon="-0.40751">
        <ele>105.8</ele>
        <time>2024-05-26T08:14:34Z</time>
      </trkpt>
      <trkpt lat="49.04538" lon="-0.40741">
        <ele>106</ele>
        <time>2024-05-26T08:14:35Z</time>
      </trkpt>
      <trkpt lat="49.04538" lon="-0.40732">
        <ele>106.6</ele>
        <time>2024-05-26T08:14:36Z</time>
      </trkpt>
      <trkpt lat="49.04537" lon="-0.40724">
        <ele>107</ele>
        <time>2024-05-26T08:14:37Z</time>
      </trkpt>
      <trkpt lat="49.04537" lon="-0.40715">
        <ele>107.2</ele>
        <time>2024-05-26T08:14:38Z</time>
      </trkpt>
      <trkpt lat="49.04537" lon="-0.40706">
        <ele>107.2</ele>
        <time>2024-05-26T08:14:39Z</time>
      </trkpt>
      <trkpt lat="49.04537" lon="-0.40697">
        <ele>107.2</ele>
        <time>2024-05-26T08:14:40Z</time>
      </trkpt>
      <trkpt lat="49.04536" lon="-0.40688">
        <ele>107.4</ele>
        <time>2024-05-26T08:14:41Z</time>
      </trkpt>
      <trkpt lat="49.04537" lon="-0.40679">
        <ele>107.4</ele>
        <time>2024-05-26T08:14:42Z</time>
      </trkpt>
      <trkpt lat="49.04537" lon="-0.4067">
        <ele>107.8</ele>
        <time>2024-05-26T08:14:43Z</time>
      </trkpt>
      <trkpt lat="49.04537" lon="-0.40661">
        <ele>108.2</ele>
        <time>2024-05-26T08:14:44Z</time>
      </trkpt>
      <trkpt lat="49.04537" lon="-0.40652">
        <ele>108.4</ele>
        <time>2024-05-26T08:14:45Z</time>
      </trkpt>
      <trkpt lat="49.04538" lon="-0.40643">
        <ele>108.6</ele>
        <time>2024-05-26T08:14:46Z</time>
      </trkpt>
      <trkpt lat="49.04538" lon="-0.40633">
        <ele>108.8</ele>
        <time>2024-05-26T08:14:47Z</time>
      </trkpt>
      <trkpt lat="49.04538" lon="-0.40624">
        <ele>109</ele>
        <time>2024-05-26T08:14:48Z</time>
      </trkpt>
      <trkpt lat="49.04538" lon="-0.40614">
        <ele>109.2</ele>
        <time>2024-05-26T08:14:49Z</time>
      </trkpt>
      <trkpt lat="49.04538" lon="-0.40604">
        <ele>109.6</ele>
        <time>2024-05-26T08:14:50Z</time>
      </trkpt>
      <trkpt lat="49.04538" lon="-0.40594">
        <ele>109.8</ele>
        <time>2024-05-26T08:14:51Z</time>
      </trkpt>
      <trkpt lat="49.04539" lon="-0.40584">
        <ele>110.2</ele>
        <time>2024-05-26T08:14:52Z</time>
      </trkpt>
      <trkpt lat="49.04539" lon="-0.40574">
        <ele>110.6</ele>
        <time>2024-05-26T08:14:53Z</time>
      </trkpt>
      <trkpt lat="49.04539" lon="-0.40563">
        <ele>111</ele>
        <time>2024-05-26T08:14:54Z</time>
      </trkpt>
      <trkpt lat="49.0454" lon="-0.40553">
        <ele>111.4</ele>
        <time>2024-05-26T08:14:55Z</time>
      </trkpt>
      <trkpt lat="49.04541" lon="-0.40543">
        <ele>111.4</ele>
        <time>2024-05-26T08:14:56Z</time>
      </trkpt>
      <trkpt lat="49.04543" lon="-0.40533">
        <ele>111.8</ele>
        <time>2024-05-26T08:14:57Z</time>
      </trkpt>
      <trkpt lat="49.04546" lon="-0.40523">
        <ele>112</ele>
        <time>2024-05-26T08:14:58Z</time>
      </trkpt>
      <trkpt lat="49.0455" lon="-0.40515">
        <ele>112.2</ele>
        <time>2024-05-26T08:14:59Z</time>
      </trkpt>
      <trkpt lat="49.04555" lon="-0.40506">
        <ele>112.4</ele>
        <time>2024-05-26T08:15:00Z</time>
      </trkpt>
      <trkpt lat="49.0456" lon="-0.40497">
        <ele>112.6</ele>
        <time>2024-05-26T08:15:01Z</time>
      </trkpt>
      <trkpt lat="49.04565" lon="-0.40488">
        <ele>112.6</ele>
        <time>2024-05-26T08:15:02Z</time>
      </trkpt>
      <trkpt lat="49.0457" lon="-0.4048">
        <ele>113</ele>
        <time>2024-05-26T08:15:03Z</time>
      </trkpt>
      <trkpt lat="49.04576" lon="-0.40471">
        <ele>113.2</ele>
        <time>2024-05-26T08:15:04Z</time>
      </trkpt>
      <trkpt lat="49.04581" lon="-0.40463">
        <ele>113.4</ele>
        <time>2024-05-26T08:15:05Z</time>
      </trkpt>
      <trkpt lat="49.04586" lon="-0.40454">
        <ele>113.6</ele>
        <time>2024-05-26T08:15:06Z</time>
      </trkpt>
      <trkpt lat="49.04591" lon="-0.40446">
        <ele>113.6</ele>
        <time>2024-05-26T08:15:07Z</time>
      </trkpt>
      <trkpt lat="49.04596" lon="-0.40438">
        <ele>113.6</ele>
        <time>2024-05-26T08:15:08Z</time>
      </trkpt>
      <trkpt lat="49.04601" lon="-0.40429">
        <ele>113.6</ele>
        <time>2024-05-26T08:15:09Z</time>
      </trkpt>
      <trkpt lat="49.04606" lon="-0.40421">
        <ele>113.6</ele>
        <time>2024-05-26T08:15:10Z</time>
      </trkpt>
      <trkpt lat="49.04611" lon="-0.40412">
        <ele>113.6</ele>
        <time>2024-05-26T08:15:11Z</time>
      </trkpt>
      <trkpt lat="49.04615" lon="-0.40404">
        <ele>113.6</ele>
        <time>2024-05-26T08:15:12Z</time>
      </trkpt>
      <trkpt lat="49.0462" lon="-0.40396">
        <ele>113.6</ele>
        <time>2024-05-26T08:15:13Z</time>
      </trkpt>
      <trkpt lat="49.04625" lon="-0.40389">
        <ele>113.6</ele>
        <time>2024-05-26T08:15:14Z</time>
      </trkpt>
      <trkpt lat="49.0463" lon="-0.40381">
        <ele>113.6</ele>
        <time>2024-05-26T08:15:15Z</time>
      </trkpt>
      <trkpt lat="49.04635" lon="-0.40373">
        <ele>113.4</ele>
        <time>2024-05-26T08:15:16Z</time>
      </trkpt>
      <trkpt lat="49.0464" lon="-0.40365">
        <ele>113.4</ele>
        <time>2024-05-26T08:15:17Z</time>
      </trkpt>
      <trkpt lat="49.04644" lon="-0.40357">
        <ele>113.2</ele>
        <time>2024-05-26T08:15:18Z</time>
      </trkpt>
      <trkpt lat="49.04649" lon="-0.40348">
        <ele>113.2</ele>
        <time>2024-05-26T08:15:19Z</time>
      </trkpt>
      <trkpt lat="49.04654" lon="-0.4034">
        <ele>113.2</ele>
        <time>2024-05-26T08:15:20Z</time>
      </trkpt>
      <trkpt lat="49.04658" lon="-0.40332">
        <ele>113</ele>
        <time>2024-05-26T08:15:21Z</time>
      </trkpt>
      <trkpt lat="49.04663" lon="-0.40324">
        <ele>113</ele>
        <time>2024-05-26T08:15:22Z</time>
      </trkpt>
      <trkpt lat="49.04668" lon="-0.40316">
        <ele>113</ele>
        <time>2024-05-26T08:15:23Z</time>
      </trkpt>
      <trkpt lat="49.04672" lon="-0.40307">
        <ele>113</ele>
        <time>2024-05-26T08:15:24Z</time>
      </trkpt>
      <trkpt lat="49.04677" lon="-0.40298">
        <ele>113</ele>
        <time>2024-05-26T08:15:25Z</time>
      </trkpt>
      <trkpt lat="49.04682" lon="-0.4029">
        <ele>113</ele>
        <time>2024-05-26T08:15:26Z</time>
      </trkpt>
      <trkpt lat="49.04688" lon="-0.40281">
        <ele>112.8</ele>
        <time>2024-05-26T08:15:27Z</time>
      </trkpt>
      <trkpt lat="49.04693" lon="-0.40272">
        <ele>112.8</ele>
        <time>2024-05-26T08:15:28Z</time>
      </trkpt>
      <trkpt lat="49.04698" lon="-0.40263">
        <ele>112.6</ele>
        <time>2024-05-26T08:15:29Z</time>
      </trkpt>
      <trkpt lat="49.04703" lon="-0.40254">
        <ele>112.6</ele>
        <time>2024-05-26T08:15:30Z</time>
      </trkpt>
      <trkpt lat="49.04708" lon="-0.40245">
        <ele>112.6</ele>
        <time>2024-05-26T08:15:31Z</time>
      </trkpt>
      <trkpt lat="49.04713" lon="-0.40236">
        <ele>112.4</ele>
        <time>2024-05-26T08:15:32Z</time>
      </trkpt>
      <trkpt lat="49.04718" lon="-0.40227">
        <ele>112.4</ele>
        <time>2024-05-26T08:15:33Z</time>
      </trkpt>
      <trkpt lat="49.04723" lon="-0.40218">
        <ele>112.4</ele>
        <time>2024-05-26T08:15:34Z</time>
      </trkpt>
      <trkpt lat="49.04728" lon="-0.4021">
        <ele>112.2</ele>
        <time>2024-05-26T08:15:35Z</time>
      </trkpt>
      <trkpt lat="49.04733" lon="-0.40201">
        <ele>112</ele>
        <time>2024-05-26T08:15:36Z</time>
      </trkpt>
      <trkpt lat="49.04738" lon="-0.40193">
        <ele>111.8</ele>
        <time>2024-05-26T08:15:37Z</time>
      </trkpt>
      <trkpt lat="49.04742" lon="-0.40184">
        <ele>111.6</ele>
        <time>2024-05-26T08:15:38Z</time>
      </trkpt>
      <trkpt lat="49.04747" lon="-0.40175">
        <ele>111.4</ele>
        <time>2024-05-26T08:15:39Z</time>
      </trkpt>
      <trkpt lat="49.04752" lon="-0.40166">
        <ele>111.2</ele>
        <time>2024-05-26T08:15:40Z</time>
      </trkpt>
      <trkpt lat="49.04756" lon="-0.40158">
        <ele>111.2</ele>
        <time>2024-05-26T08:15:41Z</time>
      </trkpt>
      <trkpt lat="49.04761" lon="-0.4015">
        <ele>111.2</ele>
        <time>2024-05-26T08:15:42Z</time>
      </trkpt>
      <trkpt lat="49.04766" lon="-0.40141">
        <ele>111</ele>
        <time>2024-05-26T08:15:43Z</time>
      </trkpt>
      <trkpt lat="49.04771" lon="-0.40133">
        <ele>111</ele>
        <time>2024-05-26T08:15:44Z</time>
      </trkpt>
      <trkpt lat="49.04776" lon="-0.40125">
        <ele>110.8</ele>
        <time>2024-05-26T08:15:45Z</time>
      </trkpt>
      <trkpt lat="49.0478" lon="-0.40116">
        <ele>110.6</ele>
        <time>2024-05-26T08:15:46Z</time>
      </trkpt>
      <trkpt lat="49.04784" lon="-0.40107">
        <ele>110.6</ele>
        <time>2024-05-26T08:15:47Z</time>
      </trkpt>
      <trkpt lat="49.04788" lon="-0.40098">
        <ele>110.4</ele>
        <time>2024-05-26T08:15:48Z</time>
      </trkpt>
      <trkpt lat="49.0479" lon="-0.40088">
        <ele>110.4</ele>
        <time>2024-05-26T08:15:49Z</time>
      </trkpt>
      <trkpt lat="49.04792" lon="-0.40077">
        <ele>110.4</ele>
        <time>2024-05-26T08:15:50Z</time>
      </trkpt>
      <trkpt lat="49.04792" lon="-0.40067">
        <ele>110.2</ele>
        <time>2024-05-26T08:15:51Z</time>
      </trkpt>
      <trkpt lat="49.04792" lon="-0.40056">
        <ele>110.2</ele>
        <time>2024-05-26T08:15:52Z</time>
      </trkpt>
      <trkpt lat="49.04791" lon="-0.40045">
        <ele>110.2</ele>
        <time>2024-05-26T08:15:53Z</time>
      </trkpt>
      <trkpt lat="49.04791" lon="-0.40034">
        <ele>110</ele>
        <time>2024-05-26T08:15:54Z</time>
      </trkpt>
      <trkpt lat="49.0479" lon="-0.40023">
        <ele>110</ele>
        <time>2024-05-26T08:15:55Z</time>
      </trkpt>
      <trkpt lat="49.04789" lon="-0.40012">
        <ele>109.8</ele>
        <time>2024-05-26T08:15:56Z</time>
      </trkpt>
      <trkpt lat="49.04788" lon="-0.4">
        <ele>109.8</ele>
        <time>2024-05-26T08:15:57Z</time>
      </trkpt>
      <trkpt lat="49.04787" lon="-0.39989">
        <ele>109.6</ele>
        <time>2024-05-26T08:15:58Z</time>
      </trkpt>
      <trkpt lat="49.04786" lon="-0.39977">
        <ele>109.4</ele>
        <time>2024-05-26T08:15:59Z</time>
      </trkpt>
      <trkpt lat="49.04785" lon="-0.39966">
        <ele>109.4</ele>
        <time>2024-05-26T08:16:00Z</time>
      </trkpt>
      <trkpt lat="49.04785" lon="-0.39954">
        <ele>109.2</ele>
        <time>2024-05-26T08:16:01Z</time>
      </trkpt>
      <trkpt lat="49.04784" lon="-0.39942">
        <ele>109.2</ele>
        <time>2024-05-26T08:16:02Z</time>
      </trkpt>
      <trkpt lat="49.04783" lon="-0.3993">
        <ele>109.2</ele>
        <time>2024-05-26T08:16:03Z</time>
      </trkpt>
      <trkpt lat="49.04782" lon="-0.39919">
        <ele>109.2</ele>
        <time>2024-05-26T08:16:04Z</time>
      </trkpt>
      <trkpt lat="49.04781" lon="-0.39907">
        <ele>109.2</ele>
        <time>2024-05-26T08:16:05Z</time>
      </trkpt>
      <trkpt lat="49.0478" lon="-0.39895">
        <ele>109.2</ele>
        <time>2024-05-26T08:16:06Z</time>
      </trkpt>
      <trkpt lat="49.04779" lon="-0.39883">
        <ele>109</ele>
        <time>2024-05-26T08:16:07Z</time>
      </trkpt>
      <trkpt lat="49.04778" lon="-0.39871">
        <ele>109</ele>
        <time>2024-05-26T08:16:08Z</time>
      </trkpt>
      <trkpt lat="49.04777" lon="-0.39859">
        <ele>108.8</ele>
        <time>2024-05-26T08:16:09Z</time>
      </trkpt>
      <trkpt lat="49.04776" lon="-0.39847">
        <ele>108.8</ele>
        <time>2024-05-26T08:16:10Z</time>
      </trkpt>
      <trkpt lat="49.04775" lon="-0.39835">
        <ele>108.8</ele>
        <time>2024-05-26T08:16:11Z</time>
      </trkpt>
      <trkpt lat="49.04773" lon="-0.39824">
        <ele>108.8</ele>
        <time>2024-05-26T08:16:12Z</time>
      </trkpt>
      <trkpt lat="49.04772" lon="-0.39812">
        <ele>108.8</ele>
        <time>2024-05-26T08:16:13Z</time>
      </trkpt>
      <trkpt lat="49.0477" lon="-0.398">
        <ele>108.6</ele>
        <time>2024-05-26T08:16:14Z</time>
      </trkpt>
      <trkpt lat="49.04769" lon="-0.39789">
        <ele>108.6</ele>
        <time>2024-05-26T08:16:15Z</time>
      </trkpt>
      <trkpt lat="49.04767" lon="-0.39777">
        <ele>108.6</ele>
        <time>2024-05-26T08:16:16Z</time>
      </trkpt>
      <trkpt lat="49.04766" lon="-0.39766">
        <ele>108.4</ele>
        <time>2024-05-26T08:16:17Z</time>
      </trkpt>
      <trkpt lat="49.04765" lon="-0.39754">
        <ele>108.2</ele>
        <time>2024-05-26T08:16:18Z</time>
      </trkpt>
      <trkpt lat="49.04763" lon="-0.39743">
        <ele>108.2</ele>
        <time>2024-05-26T08:16:19Z</time>
      </trkpt>
      <trkpt lat="49.04762" lon="-0.39731">
        <ele>108</ele>
        <time>2024-05-26T08:16:20Z</time>
      </trkpt>
      <trkpt lat="49.0476" lon="-0.39719">
        <ele>108</ele>
        <time>2024-05-26T08:16:21Z</time>
      </trkpt>
      <trkpt lat="49.04759" lon="-0.39706">
        <ele>107.8</ele>
        <time>2024-05-26T08:16:22Z</time>
      </trkpt>
      <trkpt lat="49.04759" lon="-0.39694">
        <ele>107.8</ele>
        <time>2024-05-26T08:16:23Z</time>
      </trkpt>
      <trkpt lat="49.04759" lon="-0.39681">
        <ele>107.8</ele>
        <time>2024-05-26T08:16:24Z</time>
      </trkpt>
      <trkpt lat="49.04759" lon="-0.39668">
        <ele>107.6</ele>
        <time>2024-05-26T08:16:25Z</time>
      </trkpt>
      <trkpt lat="49.0476" lon="-0.39655">
        <ele>107.6</ele>
        <time>2024-05-26T08:16:26Z</time>
      </trkpt>
      <trkpt lat="49.04761" lon="-0.39641">
        <ele>107.4</ele>
        <time>2024-05-26T08:16:27Z</time>
      </trkpt>
      <trkpt lat="49.04761" lon="-0.39627">
        <ele>107.4</ele>
        <time>2024-05-26T08:16:28Z</time>
      </trkpt>
      <trkpt lat="49.04761" lon="-0.39612">
        <ele>107.4</ele>
        <time>2024-05-26T08:16:29Z</time>
      </trkpt>
      <trkpt lat="49.04761" lon="-0.39598">
        <ele>107.2</ele>
        <time>2024-05-26T08:16:30Z</time>
      </trkpt>
      <trkpt lat="49.04762" lon="-0.39583">
        <ele>106.4</ele>
        <time>2024-05-26T08:16:31Z</time>
      </trkpt>
      <trkpt lat="49.04762" lon="-0.39568">
        <ele>106</ele>
        <time>2024-05-26T08:16:32Z</time>
      </trkpt>
      <trkpt lat="49.04763" lon="-0.39552">
        <ele>105.4</ele>
        <time>2024-05-26T08:16:33Z</time>
      </trkpt>
      <trkpt lat="49.04764" lon="-0.39537">
        <ele>105</ele>
        <time>2024-05-26T08:16:34Z</time>
      </trkpt>
      <trkpt lat="49.04766" lon="-0.39521">
        <ele>104.6</ele>
        <time>2024-05-26T08:16:35Z</time>
      </trkpt>
      <trkpt lat="49.04768" lon="-0.39506">
        <ele>104</ele>
        <time>2024-05-26T08:16:36Z</time>
      </trkpt>
      <trkpt lat="49.0477" lon="-0.3949">
        <ele>103.4</ele>
        <time>2024-05-26T08:16:37Z</time>
      </trkpt>
      <trkpt lat="49.04773" lon="-0.39474">
        <ele>102.8</ele>
        <time>2024-05-26T08:16:38Z</time>
      </trkpt>
      <trkpt lat="49.04775" lon="-0.39459">
        <ele>101.8</ele>
        <time>2024-05-26T08:16:39Z</time>
      </trkpt>
      <trkpt lat="49.04777" lon="-0.39443">
        <ele>101</ele>
        <time>2024-05-26T08:16:40Z</time>
      </trkpt>
      <trkpt lat="49.04779" lon="-0.39427">
        <ele>100.4</ele>
        <time>2024-05-26T08:16:41Z</time>
      </trkpt>
      <trkpt lat="49.04781" lon="-0.39412">
        <ele>99.4</ele>
        <time>2024-05-26T08:16:42Z</time>
      </trkpt>
      <trkpt lat="49.04782" lon="-0.39396">
        <ele>99</ele>
        <time>2024-05-26T08:16:43Z</time>
      </trkpt>
      <trkpt lat="49.04782" lon="-0.39382">
        <ele>98.8</ele>
        <time>2024-05-26T08:16:44Z</time>
      </trkpt>
      <trkpt lat="49.04782" lon="-0.3937">
        <ele>98.2</ele>
        <time>2024-05-26T08:16:45Z</time>
      </trkpt>
      <trkpt lat="49.04783" lon="-0.3936">
        <ele>97.8</ele>
        <time>2024-05-26T08:16:46Z</time>
      </trkpt>
      <trkpt lat="49.04783" lon="-0.39351">
        <ele>97.4</ele>
        <time>2024-05-26T08:16:47Z</time>
      </trkpt>
      <trkpt lat="49.04784" lon="-0.39345">
        <ele>97.4</ele>
        <time>2024-05-26T08:16:48Z</time>
      </trkpt>
      <trkpt lat="49.04785" lon="-0.3934">
        <ele>97.4</ele>
        <time>2024-05-26T08:16:49Z</time>
      </trkpt>
      <trkpt lat="49.04785" lon="-0.39337">
        <ele>97.2</ele>
        <time>2024-05-26T08:16:50Z</time>
      </trkpt>
      <trkpt lat="49.04785" lon="-0.39334">
        <ele>97.2</ele>
        <time>2024-05-26T08:16:51Z</time>
      </trkpt>
      <trkpt lat="49.04785" lon="-0.39331">
        <ele>97.2</ele>
        <time>2024-05-26T08:16:52Z</time>
      </trkpt>
      <trkpt lat="49.04785" lon="-0.39329">
        <ele>97.2</ele>
        <time>2024-05-26T08:16:53Z</time>
      </trkpt>
      <trkpt lat="49.04786" lon="-0.39327">
        <ele>97.2</ele>
        <time>2024-05-26T08:16:54Z</time>
      </trkpt>
      <trkpt lat="49.04787" lon="-0.39326">
        <ele>97.2</ele>
        <time>2024-05-26T08:16:55Z</time>
      </trkpt>
      <trkpt lat="49.04788" lon="-0.39326">
        <ele>97</ele>
        <time>2024-05-26T08:16:56Z</time>
      </trkpt>
      <trkpt lat="49.04789" lon="-0.39325">
        <ele>97</ele>
        <time>2024-05-26T08:16:57Z</time>
      </trkpt>
      <trkpt lat="49.04791" lon="-0.39324">
        <ele>97</ele>
        <time>2024-05-26T08:16:58Z</time>
      </trkpt>
      <trkpt lat="49.04792" lon="-0.39321">
        <ele>97</ele>
        <time>2024-05-26T08:16:59Z</time>
      </trkpt>
      <trkpt lat="49.04793" lon="-0.39318">
        <ele>97</ele>
        <time>2024-05-26T08:17:00Z</time>
      </trkpt>
      <trkpt lat="49.04794" lon="-0.39314">
        <ele>97</ele>
        <time>2024-05-26T08:17:01Z</time>
      </trkpt>
      <trkpt lat="49.04794" lon="-0.3931">
        <ele>97</ele>
        <time>2024-05-26T08:17:02Z</time>
      </trkpt>
      <trkpt lat="49.04794" lon="-0.39306">
        <ele>97.2</ele>
        <time>2024-05-26T08:17:03Z</time>
      </trkpt>
      <trkpt lat="49.04794" lon="-0.39302">
        <ele>97.2</ele>
        <time>2024-05-26T08:17:04Z</time>
      </trkpt>
      <trkpt lat="49.04795" lon="-0.39298">
        <ele>97.2</ele>
        <time>2024-05-26T08:17:05Z</time>
      </trkpt>
      <trkpt lat="49.04795" lon="-0.39294">
        <ele>97.4</ele>
        <time>2024-05-26T08:17:06Z</time>
      </trkpt>
      <trkpt lat="49.04796" lon="-0.39289">
        <ele>97.4</ele>
        <time>2024-05-26T08:17:07Z</time>
      </trkpt>
      <trkpt lat="49.04797" lon="-0.39285">
        <ele>97.4</ele>
        <time>2024-05-26T08:17:08Z</time>
      </trkpt>
      <trkpt lat="49.04797" lon="-0.3928">
        <ele>97.4</ele>
        <time>2024-05-26T08:17:09Z</time>
      </trkpt>
      <trkpt lat="49.04798" lon="-0.39275">
        <ele>97.4</ele>
        <time>2024-05-26T08:17:10Z</time>
      </trkpt>
      <trkpt lat="49.04798" lon="-0.3927">
        <ele>97.4</ele>
        <time>2024-05-26T08:17:11Z</time>
      </trkpt>
      <trkpt lat="49.04798" lon="-0.39265">
        <ele>97.4</ele>
        <time>2024-05-26T08:17:12Z</time>
      </trkpt>
      <trkpt lat="49.04799" lon="-0.39259">
        <ele>97.4</ele>
        <time>2024-05-26T08:17:13Z</time>
      </trkpt>
      <trkpt lat="49.048" lon="-0.39254">
        <ele>97.6</ele>
        <time>2024-05-26T08:17:14Z</time>
      </trkpt>
      <trkpt lat="49.048" lon="-0.39248">
        <ele>97.8</ele>
        <time>2024-05-26T08:17:15Z</time>
      </trkpt>
      <trkpt lat="49.048" lon="-0.39242">
        <ele>98.2</ele>
        <time>2024-05-26T08:17:16Z</time>
      </trkpt>
      <trkpt lat="49.04801" lon="-0.39235">
        <ele>98.4</ele>
        <time>2024-05-26T08:17:17Z</time>
      </trkpt>
      <trkpt lat="49.04801" lon="-0.39229">
        <ele>98.6</ele>
        <time>2024-05-26T08:17:18Z</time>
      </trkpt>
      <trkpt lat="49.04801" lon="-0.39222">
        <ele>98.8</ele>
        <time>2024-05-26T08:17:19Z</time>
      </trkpt>
      <trkpt lat="49.04801" lon="-0.39216">
        <ele>99</ele>
        <time>2024-05-26T08:17:20Z</time>
      </trkpt>
      <trkpt lat="49.04801" lon="-0.39209">
        <ele>99.2</ele>
        <time>2024-05-26T08:17:21Z</time>
      </trkpt>
      <trkpt lat="49.04802" lon="-0.39203">
        <ele>99.6</ele>
        <time>2024-05-26T08:17:22Z</time>
      </trkpt>
      <trkpt lat="49.04802" lon="-0.39197">
        <ele>99.8</ele>
        <time>2024-05-26T08:17:23Z</time>
      </trkpt>
      <trkpt lat="49.04803" lon="-0.3919">
        <ele>99.8</ele>
        <time>2024-05-26T08:17:24Z</time>
      </trkpt>
      <trkpt lat="49.04803" lon="-0.39183">
        <ele>100.2</ele>
        <time>2024-05-26T08:17:25Z</time>
      </trkpt>
      <trkpt lat="49.04803" lon="-0.39177">
        <ele>100.6</ele>
        <time>2024-05-26T08:17:26Z</time>
      </trkpt>
      <trkpt lat="49.04803" lon="-0.3917">
        <ele>100.8</ele>
        <time>2024-05-26T08:17:27Z</time>
      </trkpt>
      <trkpt lat="49.04803" lon="-0.39163">
        <ele>101</ele>
        <time>2024-05-26T08:17:28Z</time>
      </trkpt>
      <trkpt lat="49.04804" lon="-0.39156">
        <ele>101</ele>
        <time>2024-05-26T08:17:29Z</time>
      </trkpt>
      <trkpt lat="49.04804" lon="-0.39149">
        <ele>101.2</ele>
        <time>2024-05-26T08:17:30Z</time>
      </trkpt>
      <trkpt lat="49.04804" lon="-0.39142">
        <ele>101.2</ele>
        <time>2024-05-26T08:17:31Z</time>
      </trkpt>
      <trkpt lat="49.04803" lon="-0.39135">
        <ele>101.4</ele>
        <time>2024-05-26T08:17:32Z</time>
      </trkpt>
      <trkpt lat="49.04803" lon="-0.39129">
        <ele>101.6</ele>
        <time>2024-05-26T08:17:33Z</time>
      </trkpt>
      <trkpt lat="49.04804" lon="-0.39122">
        <ele>101.6</ele>
        <time>2024-05-26T08:17:34Z</time>
      </trkpt>
      <trkpt lat="49.04804" lon="-0.39116">
        <ele>101.6</ele>
        <time>2024-05-26T08:17:35Z</time>
      </trkpt>
      <trkpt lat="49.04804" lon="-0.39109">
        <ele>101.8</ele>
        <time>2024-05-26T08:17:36Z</time>
      </trkpt>
      <trkpt lat="49.04804" lon="-0.39102">
        <ele>101.8</ele>
        <time>2024-05-26T08:17:37Z</time>
      </trkpt>
      <trkpt lat="49.04804" lon="-0.39096">
        <ele>102</ele>
        <time>2024-05-26T08:17:38Z</time>
      </trkpt>
      <trkpt lat="49.04804" lon="-0.39089">
        <ele>102</ele>
        <time>2024-05-26T08:17:39Z</time>
      </trkpt>
      <trkpt lat="49.04804" lon="-0.39083">
        <ele>102.2</ele>
        <time>2024-05-26T08:17:40Z</time>
      </trkpt>
      <trkpt lat="49.04804" lon="-0.39077">
        <ele>102.2</ele>
        <time>2024-05-26T08:17:41Z</time>
      </trkpt>
      <trkpt lat="49.04804" lon="-0.3907">
        <ele>102.4</ele>
        <time>2024-05-26T08:17:42Z</time>
      </trkpt>
      <trkpt lat="49.04804" lon="-0.39064">
        <ele>102.6</ele>
        <time>2024-05-26T08:17:43Z</time>
      </trkpt>
      <trkpt lat="49.04805" lon="-0.39057">
        <ele>102.8</ele>
        <time>2024-05-26T08:17:44Z</time>
      </trkpt>
      <trkpt lat="49.04804" lon="-0.3905">
        <ele>102.8</ele>
        <time>2024-05-26T08:17:45Z</time>
      </trkpt>
      <trkpt lat="49.04805" lon="-0.39044">
        <ele>103</ele>
        <time>2024-05-26T08:17:46Z</time>
      </trkpt>
      <trkpt lat="49.04805" lon="-0.39037">
        <ele>103.2</ele>
        <time>2024-05-26T08:17:47Z</time>
      </trkpt>
      <trkpt lat="49.04805" lon="-0.39029">
        <ele>103.6</ele>
        <time>2024-05-26T08:17:48Z</time>
      </trkpt>
      <trkpt lat="49.04805" lon="-0.39023">
        <ele>103.8</ele>
        <time>2024-05-26T08:17:49Z</time>
      </trkpt>
      <trkpt lat="49.04805" lon="-0.39016">
        <ele>104.2</ele>
        <time>2024-05-26T08:17:50Z</time>
      </trkpt>
      <trkpt lat="49.04805" lon="-0.39008">
        <ele>104.2</ele>
        <time>2024-05-26T08:17:51Z</time>
      </trkpt>
      <trkpt lat="49.04806" lon="-0.39002">
        <ele>104.4</ele>
        <time>2024-05-26T08:17:52Z</time>
      </trkpt>
      <trkpt lat="49.04806" lon="-0.38995">
        <ele>104.8</ele>
        <time>2024-05-26T08:17:53Z</time>
      </trkpt>
      <trkpt lat="49.04806" lon="-0.38988">
        <ele>105</ele>
        <time>2024-05-26T08:17:54Z</time>
      </trkpt>
      <trkpt lat="49.04807" lon="-0.38981">
        <ele>105</ele>
        <time>2024-05-26T08:17:55Z</time>
      </trkpt>
      <trkpt lat="49.04807" lon="-0.38974">
        <ele>105.2</ele>
        <time>2024-05-26T08:17:56Z</time>
      </trkpt>
      <trkpt lat="49.04807" lon="-0.38967">
        <ele>105.2</ele>
        <time>2024-05-26T08:17:57Z</time>
      </trkpt>
      <trkpt lat="49.04807" lon="-0.38961">
        <ele>105.4</ele>
        <time>2024-05-26T08:17:58Z</time>
      </trkpt>
      <trkpt lat="49.04807" lon="-0.38955">
        <ele>105.6</ele>
        <time>2024-05-26T08:17:59Z</time>
      </trkpt>
      <trkpt lat="49.04808" lon="-0.38949">
        <ele>105.6</ele>
        <time>2024-05-26T08:18:00Z</time>
      </trkpt>
      <trkpt lat="49.04808" lon="-0.38944">
        <ele>105.8</ele>
        <time>2024-05-26T08:18:01Z</time>
      </trkpt>
      <trkpt lat="49.04808" lon="-0.3894">
        <ele>106</ele>
        <time>2024-05-26T08:18:02Z</time>
      </trkpt>
      <trkpt lat="49.04808" lon="-0.38937">
        <ele>106</ele>
        <time>2024-05-26T08:18:03Z</time>
      </trkpt>
      <trkpt lat="49.04808" lon="-0.38934">
        <ele>106.2</ele>
        <time>2024-05-26T08:18:04Z</time>
      </trkpt>
      <trkpt lat="49.04808" lon="-0.38932">
        <ele>106.4</ele>
        <time>2024-05-26T08:18:05Z</time>
      </trkpt>
      <trkpt lat="49.04809" lon="-0.38932">
        <ele>106.4</ele>
        <time>2024-05-26T08:18:06Z</time>
      </trkpt>
      <trkpt lat="49.0481" lon="-0.38932">
        <ele>106.6</ele>
        <time>2024-05-26T08:18:07Z</time>
      </trkpt>
      <trkpt lat="49.0481" lon="-0.38933">
        <ele>106.6</ele>
        <time>2024-05-26T08:18:08Z</time>
      </trkpt>
      <trkpt lat="49.04809" lon="-0.38942">
        <ele>106.6</ele>
        <time>2024-05-26T08:18:12Z</time>
      </trkpt>
      <trkpt lat="49.04808" lon="-0.38945">
        <ele>106.6</ele>
        <time>2024-05-26T08:18:13Z</time>
      </trkpt>
      <trkpt lat="49.04808" lon="-0.38947">
        <ele>106.6</ele>
        <time>2024-05-26T08:18:14Z</time>
      </trkpt>
      <trkpt lat="49.04808" lon="-0.38951">
        <ele>106.6</ele>
        <time>2024-05-26T08:18:15Z</time>
      </trkpt>
      <trkpt lat="49.04808" lon="-0.38955">
        <ele>106.6</ele>
        <time>2024-05-26T08:18:16Z</time>
      </trkpt>
      <trkpt lat="49.04808" lon="-0.38959">
        <ele>106.6</ele>
        <time>2024-05-26T08:18:17Z</time>
      </trkpt>
      <trkpt lat="49.04808" lon="-0.38963">
        <ele>106.6</ele>
        <time>2024-05-26T08:18:18Z</time>
      </trkpt>
      <trkpt lat="49.04808" lon="-0.38968">
        <ele>106.6</ele>
        <time>2024-05-26T08:18:19Z</time>
      </trkpt>
      <trkpt lat="49.04808" lon="-0.38974">
        <ele>106.6</ele>
        <time>2024-05-26T08:18:20Z</time>
      </trkpt>
      <trkpt lat="49.04808" lon="-0.3898">
        <ele>106.6</ele>
        <time>2024-05-26T08:18:21Z</time>
      </trkpt>
      <trkpt lat="49.04807" lon="-0.38987">
        <ele>106.6</ele>
        <time>2024-05-26T08:18:22Z</time>
      </trkpt>
      <trkpt lat="49.04807" lon="-0.38994">
        <ele>106.4</ele>
        <time>2024-05-26T08:18:23Z</time>
      </trkpt>
      <trkpt lat="49.04807" lon="-0.39002">
        <ele>106.4</ele>
        <time>2024-05-26T08:18:24Z</time>
      </trkpt>
      <trkpt lat="49.04807" lon="-0.3901">
        <ele>106.4</ele>
        <time>2024-05-26T08:18:25Z</time>
      </trkpt>
      <trkpt lat="49.04806" lon="-0.39019">
        <ele>106.4</ele>
        <time>2024-05-26T08:18:26Z</time>
      </trkpt>
      <trkpt lat="49.04806" lon="-0.39027">
        <ele>106.4</ele>
        <time>2024-05-26T08:18:27Z</time>
      </trkpt>
      <trkpt lat="49.04806" lon="-0.39035">
        <ele>106.2</ele>
        <time>2024-05-26T08:18:28Z</time>
      </trkpt>
      <trkpt lat="49.04805" lon="-0.39044">
        <ele>106.2</ele>
        <time>2024-05-26T08:18:29Z</time>
      </trkpt>
      <trkpt lat="49.04805" lon="-0.39052">
        <ele>106.2</ele>
        <time>2024-05-26T08:18:30Z</time>
      </trkpt>
      <trkpt lat="49.04805" lon="-0.39061">
        <ele>106.2</ele>
        <time>2024-05-26T08:18:31Z</time>
      </trkpt>
      <trkpt lat="49.04804" lon="-0.39069">
        <ele>106</ele>
        <time>2024-05-26T08:18:32Z</time>
      </trkpt>
      <trkpt lat="49.04804" lon="-0.39077">
        <ele>106</ele>
        <time>2024-05-26T08:18:33Z</time>
      </trkpt>
      <trkpt lat="49.04804" lon="-0.39086">
        <ele>105.8</ele>
        <time>2024-05-26T08:18:34Z</time>
      </trkpt>
      <trkpt lat="49.04804" lon="-0.39095">
        <ele>105.6</ele>
        <time>2024-05-26T08:18:35Z</time>
      </trkpt>
      <trkpt lat="49.04804" lon="-0.39104">
        <ele>105.6</ele>
        <time>2024-05-26T08:18:36Z</time>
      </trkpt>
      <trkpt lat="49.04803" lon="-0.39114">
        <ele>105.4</ele>
        <time>2024-05-26T08:18:37Z</time>
      </trkpt>
      <trkpt lat="49.04803" lon="-0.39124">
        <ele>105.4</ele>
        <time>2024-05-26T08:18:38Z</time>
      </trkpt>
      <trkpt lat="49.04803" lon="-0.39134">
        <ele>105</ele>
        <time>2024-05-26T08:18:39Z</time>
      </trkpt>
      <trkpt lat="49.04802" lon="-0.39144">
        <ele>104.6</ele>
        <time>2024-05-26T08:18:40Z</time>
      </trkpt>
      <trkpt lat="49.04802" lon="-0.39154">
        <ele>104.2</ele>
        <time>2024-05-26T08:18:41Z</time>
      </trkpt>
      <trkpt lat="49.04802" lon="-0.39164">
        <ele>104.2</ele>
        <time>2024-05-26T08:18:42Z</time>
      </trkpt>
      <trkpt lat="49.04802" lon="-0.39174">
        <ele>103.8</ele>
        <time>2024-05-26T08:18:43Z</time>
      </trkpt>
      <trkpt lat="49.04801" lon="-0.39184">
        <ele>103.6</ele>
        <time>2024-05-26T08:18:44Z</time>
      </trkpt>
      <trkpt lat="49.04801" lon="-0.39193">
        <ele>103.2</ele>
        <time>2024-05-26T08:18:45Z</time>
      </trkpt>
      <trkpt lat="49.04801" lon="-0.39203">
        <ele>103</ele>
        <time>2024-05-26T08:18:46Z</time>
      </trkpt>
      <trkpt lat="49.048" lon="-0.39213">
        <ele>102.8</ele>
        <time>2024-05-26T08:18:47Z</time>
      </trkpt>
      <trkpt lat="49.048" lon="-0.39223">
        <ele>102.8</ele>
        <time>2024-05-26T08:18:48Z</time>
      </trkpt>
      <trkpt lat="49.048" lon="-0.39234">
        <ele>102.2</ele>
        <time>2024-05-26T08:18:49Z</time>
      </trkpt>
      <trkpt lat="49.04799" lon="-0.39244">
        <ele>101.8</ele>
        <time>2024-05-26T08:18:50Z</time>
      </trkpt>
      <trkpt lat="49.04799" lon="-0.39254">
        <ele>101.6</ele>
        <time>2024-05-26T08:18:51Z</time>
      </trkpt>
      <trkpt lat="49.04798" lon="-0.39264">
        <ele>101.4</ele>
        <time>2024-05-26T08:18:52Z</time>
      </trkpt>
      <trkpt lat="49.04797" lon="-0.39273">
        <ele>101.2</ele>
        <time>2024-05-26T08:18:53Z</time>
      </trkpt>
      <trkpt lat="49.04796" lon="-0.39282">
        <ele>101.2</ele>
        <time>2024-05-26T08:18:54Z</time>
      </trkpt>
      <trkpt lat="49.04795" lon="-0.39291">
        <ele>101</ele>
        <time>2024-05-26T08:18:55Z</time>
      </trkpt>
      <trkpt lat="49.04794" lon="-0.39299">
        <ele>100.8</ele>
        <time>2024-05-26T08:18:56Z</time>
      </trkpt>
      <trkpt lat="49.04793" lon="-0.39308">
        <ele>100.8</ele>
        <time>2024-05-26T08:18:57Z</time>
      </trkpt>
      <trkpt lat="49.04792" lon="-0.39315">
        <ele>100.6</ele>
        <time>2024-05-26T08:18:58Z</time>
      </trkpt>
      <trkpt lat="49.04792" lon="-0.3932">
        <ele>100.4</ele>
        <time>2024-05-26T08:18:59Z</time>
      </trkpt>
      <trkpt lat="49.04791" lon="-0.39324">
        <ele>100</ele>
        <time>2024-05-26T08:19:00Z</time>
      </trkpt>
      <trkpt lat="49.0479" lon="-0.39328">
        <ele>99.6</ele>
        <time>2024-05-26T08:19:01Z</time>
      </trkpt>
      <trkpt lat="49.04788" lon="-0.39332">
        <ele>99.2</ele>
        <time>2024-05-26T08:19:02Z</time>
      </trkpt>
      <trkpt lat="49.04785" lon="-0.39334">
        <ele>99</ele>
        <time>2024-05-26T08:19:03Z</time>
      </trkpt>
      <trkpt lat="49.04782" lon="-0.39335">
        <ele>98.6</ele>
        <time>2024-05-26T08:19:04Z</time>
      </trkpt>
      <trkpt lat="49.04778" lon="-0.39334">
        <ele>98.6</ele>
        <time>2024-05-26T08:19:05Z</time>
      </trkpt>
      <trkpt lat="49.04773" lon="-0.39332">
        <ele>98.4</ele>
        <time>2024-05-26T08:19:06Z</time>
      </trkpt>
      <trkpt lat="49.04769" lon="-0.3933">
        <ele>98</ele>
        <time>2024-05-26T08:19:07Z</time>
      </trkpt>
      <trkpt lat="49.04765" lon="-0.39327">
        <ele>97.8</ele>
        <time>2024-05-26T08:19:08Z</time>
      </trkpt>
      <trkpt lat="49.04761" lon="-0.39325">
        <ele>97.8</ele>
        <time>2024-05-26T08:19:09Z</time>
      </trkpt>
      <trkpt lat="49.04756" lon="-0.39322">
        <ele>97.8</ele>
        <time>2024-05-26T08:19:10Z</time>
      </trkpt>
      <trkpt lat="49.04751" lon="-0.3932">
        <ele>97.8</ele>
        <time>2024-05-26T08:19:11Z</time>
      </trkpt>
      <trkpt lat="49.04746" lon="-0.39317">
        <ele>97.6</ele>
        <time>2024-05-26T08:19:12Z</time>
      </trkpt>
      <trkpt lat="49.04742" lon="-0.39314">
        <ele>97.6</ele>
        <time>2024-05-26T08:19:13Z</time>
      </trkpt>
      <trkpt lat="49.04736" lon="-0.39311">
        <ele>97.6</ele>
        <time>2024-05-26T08:19:14Z</time>
      </trkpt>
      <trkpt lat="49.04731" lon="-0.39309">
        <ele>97.6</ele>
        <time>2024-05-26T08:19:15Z</time>
      </trkpt>
      <trkpt lat="49.04725" lon="-0.39307">
        <ele>97.6</ele>
        <time>2024-05-26T08:19:16Z</time>
      </trkpt>
      <trkpt lat="49.04719" lon="-0.39305">
        <ele>97.8</ele>
        <time>2024-05-26T08:19:17Z</time>
      </trkpt>
      <trkpt lat="49.04713" lon="-0.39303">
        <ele>98.2</ele>
        <time>2024-05-26T08:19:18Z</time>
      </trkpt>
      <trkpt lat="49.04707" lon="-0.39301">
        <ele>98.6</ele>
        <time>2024-05-26T08:19:19Z</time>
      </trkpt>
      <trkpt lat="49.04701" lon="-0.39298">
        <ele>98.8</ele>
        <time>2024-05-26T08:19:20Z</time>
      </trkpt>
      <trkpt lat="49.04695" lon="-0.39296">
        <ele>98.8</ele>
        <time>2024-05-26T08:19:21Z</time>
      </trkpt>
      <trkpt lat="49.04689" lon="-0.39293">
        <ele>98.8</ele>
        <time>2024-05-26T08:19:22Z</time>
      </trkpt>
      <trkpt lat="49.04683" lon="-0.39289">
        <ele>98.8</ele>
        <time>2024-05-26T08:19:23Z</time>
      </trkpt>
      <trkpt lat="49.04678" lon="-0.39286">
        <ele>99</ele>
        <time>2024-05-26T08:19:24Z</time>
      </trkpt>
      <trkpt lat="49.04672" lon="-0.39282">
        <ele>99</ele>
        <time>2024-05-26T08:19:25Z</time>
      </trkpt>
      <trkpt lat="49.04666" lon="-0.39279">
        <ele>99</ele>
        <time>2024-05-26T08:19:26Z</time>
      </trkpt>
      <trkpt lat="49.0466" lon="-0.39275">
        <ele>99</ele>
        <time>2024-05-26T08:19:27Z</time>
      </trkpt>
      <trkpt lat="49.04654" lon="-0.39272">
        <ele>99</ele>
        <time>2024-05-26T08:19:28Z</time>
      </trkpt>
      <trkpt lat="49.04649" lon="-0.39269">
        <ele>99.2</ele>
        <time>2024-05-26T08:19:29Z</time>
      </trkpt>
      <trkpt lat="49.04643" lon="-0.39266">
        <ele>99.4</ele>
        <time>2024-05-26T08:19:30Z</time>
      </trkpt>
      <trkpt lat="49.04637" lon="-0.39262">
        <ele>99.4</ele>
        <time>2024-05-26T08:19:31Z</time>
      </trkpt>
      <trkpt lat="49.04631" lon="-0.39259">
        <ele>99.4</ele>
        <time>2024-05-26T08:19:32Z</time>
      </trkpt>
      <trkpt lat="49.04625" lon="-0.39256">
        <ele>99.4</ele>
        <time>2024-05-26T08:19:33Z</time>
      </trkpt>
      <trkpt lat="49.04619" lon="-0.39254">
        <ele>99.6</ele>
        <time>2024-05-26T08:19:34Z</time>
      </trkpt>
      <trkpt lat="49.04614" lon="-0.39251">
        <ele>99.6</ele>
        <time>2024-05-26T08:19:35Z</time>
      </trkpt>
      <trkpt lat="49.04608" lon="-0.39249">
        <ele>99.8</ele>
        <time>2024-05-26T08:19:36Z</time>
      </trkpt>
      <trkpt lat="49.04602" lon="-0.39246">
        <ele>99.8</ele>
        <time>2024-05-26T08:19:37Z</time>
      </trkpt>
      <trkpt lat="49.04595" lon="-0.39244">
        <ele>100.4</ele>
        <time>2024-05-26T08:19:38Z</time>
      </trkpt>
      <trkpt lat="49.04589" lon="-0.39243">
        <ele>100.8</ele>
        <time>2024-05-26T08:19:39Z</time>
      </trkpt>
      <trkpt lat="49.04583" lon="-0.3924">
        <ele>101.2</ele>
        <time>2024-05-26T08:19:40Z</time>
      </trkpt>
      <trkpt lat="49.04577" lon="-0.39238">
        <ele>101.2</ele>
        <time>2024-05-26T08:19:41Z</time>
      </trkpt>
      <trkpt lat="49.04571" lon="-0.39236">
        <ele>101.4</ele>
        <time>2024-05-26T08:19:42Z</time>
      </trkpt>
      <trkpt lat="49.04565" lon="-0.39233">
        <ele>101.6</ele>
        <time>2024-05-26T08:19:43Z</time>
      </trkpt>
      <trkpt lat="49.04559" lon="-0.39231">
        <ele>101.6</ele>
        <time>2024-05-26T08:19:44Z</time>
      </trkpt>
      <trkpt lat="49.04553" lon="-0.39229">
        <ele>101.6</ele>
        <time>2024-05-26T08:19:45Z</time>
      </trkpt>
      <trkpt lat="49.04547" lon="-0.39226">
        <ele>101.8</ele>
        <time>2024-05-26T08:19:46Z</time>
      </trkpt>
      <trkpt lat="49.04541" lon="-0.39223">
        <ele>101.8</ele>
        <time>2024-05-26T08:19:47Z</time>
      </trkpt>
      <trkpt lat="49.04535" lon="-0.39222">
        <ele>102</ele>
        <time>2024-05-26T08:19:48Z</time>
      </trkpt>
      <trkpt lat="49.0453" lon="-0.3922">
        <ele>102.4</ele>
        <time>2024-05-26T08:19:49Z</time>
      </trkpt>
      <trkpt lat="49.04524" lon="-0.39218">
        <ele>102.4</ele>
        <time>2024-05-26T08:19:50Z</time>
      </trkpt>
      <trkpt lat="49.04518" lon="-0.39215">
        <ele>102.6</ele>
        <time>2024-05-26T08:19:51Z</time>
      </trkpt>
      <trkpt lat="49.04512" lon="-0.39213">
        <ele>103</ele>
        <time>2024-05-26T08:19:52Z</time>
      </trkpt>
      <trkpt lat="49.04506" lon="-0.39211">
        <ele>103.4</ele>
        <time>2024-05-26T08:19:53Z</time>
      </trkpt>
      <trkpt lat="49.045" lon="-0.39208">
        <ele>103.6</ele>
        <time>2024-05-26T08:19:54Z</time>
      </trkpt>
      <trkpt lat="49.04494" lon="-0.39206">
        <ele>104</ele>
        <time>2024-05-26T08:19:55Z</time>
      </trkpt>
      <trkpt lat="49.04488" lon="-0.39204">
        <ele>104.2</ele>
        <time>2024-05-26T08:19:56Z</time>
      </trkpt>
      <trkpt lat="49.04482" lon="-0.39202">
        <ele>104.4</ele>
        <time>2024-05-26T08:19:57Z</time>
      </trkpt>
      <trkpt lat="49.04476" lon="-0.392">
        <ele>104.4</ele>
        <time>2024-05-26T08:19:58Z</time>
      </trkpt>
      <trkpt lat="49.0447" lon="-0.39199">
        <ele>104.6</ele>
        <time>2024-05-26T08:19:59Z</time>
      </trkpt>
      <trkpt lat="49.04463" lon="-0.39197">
        <ele>104.8</ele>
        <time>2024-05-26T08:20:00Z</time>
      </trkpt>
      <trkpt lat="49.04457" lon="-0.39196">
        <ele>105</ele>
        <time>2024-05-26T08:20:01Z</time>
      </trkpt>
      <trkpt lat="49.04451" lon="-0.39195">
        <ele>105</ele>
        <time>2024-05-26T08:20:02Z</time>
      </trkpt>
      <trkpt lat="49.04445" lon="-0.39194">
        <ele>105</ele>
        <time>2024-05-26T08:20:03Z</time>
      </trkpt>
      <trkpt lat="49.04439" lon="-0.39192">
        <ele>105.2</ele>
        <time>2024-05-26T08:20:04Z</time>
      </trkpt>
      <trkpt lat="49.04433" lon="-0.39191">
        <ele>105.2</ele>
        <time>2024-05-26T08:20:05Z</time>
      </trkpt>
      <trkpt lat="49.04427" lon="-0.39191">
        <ele>105.2</ele>
        <time>2024-05-26T08:20:06Z</time>
      </trkpt>
      <trkpt lat="49.04421" lon="-0.39191">
        <ele>105.4</ele>
        <time>2024-05-26T08:20:07Z</time>
      </trkpt>
      <trkpt lat="49.04416" lon="-0.39191">
        <ele>105.4</ele>
        <time>2024-05-26T08:20:08Z</time>
      </trkpt>
      <trkpt lat="49.0441" lon="-0.3919">
        <ele>105.4</ele>
        <time>2024-05-26T08:20:09Z</time>
      </trkpt>
      <trkpt lat="49.04405" lon="-0.3919">
        <ele>105.6</ele>
        <time>2024-05-26T08:20:10Z</time>
      </trkpt>
      <trkpt lat="49.044" lon="-0.3919">
        <ele>105.8</ele>
        <time>2024-05-26T08:20:11Z</time>
      </trkpt>
      <trkpt lat="49.04394" lon="-0.39191">
        <ele>105.8</ele>
        <time>2024-05-26T08:20:12Z</time>
      </trkpt>
      <trkpt lat="49.04389" lon="-0.39191">
        <ele>106</ele>
        <time>2024-05-26T08:20:13Z</time>
      </trkpt>
      <trkpt lat="49.04383" lon="-0.39192">
        <ele>106.4</ele>
        <time>2024-05-26T08:20:14Z</time>
      </trkpt>
      <trkpt lat="49.04378" lon="-0.39193">
        <ele>106.6</ele>
        <time>2024-05-26T08:20:15Z</time>
      </trkpt>
      <trkpt lat="49.04373" lon="-0.39194">
        <ele>107</ele>
        <time>2024-05-26T08:20:16Z</time>
      </trkpt>
      <trkpt lat="49.04368" lon="-0.39195">
        <ele>107.2</ele>
        <time>2024-05-26T08:20:17Z</time>
      </trkpt>
      <trkpt lat="49.04362" lon="-0.39197">
        <ele>107.6</ele>
        <time>2024-05-26T08:20:18Z</time>
      </trkpt>
      <trkpt lat="49.04357" lon="-0.39198">
        <ele>107.8</ele>
        <time>2024-05-26T08:20:19Z</time>
      </trkpt>
      <trkpt lat="49.04351" lon="-0.392">
        <ele>108.2</ele>
        <time>2024-05-26T08:20:20Z</time>
      </trkpt>
      <trkpt lat="49.04345" lon="-0.39202">
        <ele>108.4</ele>
        <time>2024-05-26T08:20:21Z</time>
      </trkpt>
      <trkpt lat="49.0434" lon="-0.39204">
        <ele>108.6</ele>
        <time>2024-05-26T08:20:22Z</time>
      </trkpt>
      <trkpt lat="49.04334" lon="-0.39207">
        <ele>108.8</ele>
        <time>2024-05-26T08:20:23Z</time>
      </trkpt>
      <trkpt lat="49.04329" lon="-0.3921">
        <ele>109</ele>
        <time>2024-05-26T08:20:24Z</time>
      </trkpt>
      <trkpt lat="49.04323" lon="-0.39213">
        <ele>109.2</ele>
        <time>2024-05-26T08:20:25Z</time>
      </trkpt>
      <trkpt lat="49.04318" lon="-0.39216">
        <ele>109.2</ele>
        <time>2024-05-26T08:20:26Z</time>
      </trkpt>
      <trkpt lat="49.04313" lon="-0.39219">
        <ele>109.4</ele>
        <time>2024-05-26T08:20:27Z</time>
      </trkpt>
      <trkpt lat="49.04308" lon="-0.39223">
        <ele>109.4</ele>
        <time>2024-05-26T08:20:28Z</time>
      </trkpt>
      <trkpt lat="49.04303" lon="-0.39227">
        <ele>109.4</ele>
        <time>2024-05-26T08:20:29Z</time>
      </trkpt>
      <trkpt lat="49.04298" lon="-0.39231">
        <ele>109.6</ele>
        <time>2024-05-26T08:20:30Z</time>
      </trkpt>
      <trkpt lat="49.04293" lon="-0.39235">
        <ele>109.8</ele>
        <time>2024-05-26T08:20:31Z</time>
      </trkpt>
      <trkpt lat="49.04288" lon="-0.39239">
        <ele>109.8</ele>
        <time>2024-05-26T08:20:32Z</time>
      </trkpt>
      <trkpt lat="49.04283" lon="-0.39243">
        <ele>110</ele>
        <time>2024-05-26T08:20:33Z</time>
      </trkpt>
      <trkpt lat="49.04278" lon="-0.39247">
        <ele>110</ele>
        <time>2024-05-26T08:20:34Z</time>
      </trkpt>
      <trkpt lat="49.04273" lon="-0.3925">
        <ele>110</ele>
        <time>2024-05-26T08:20:35Z</time>
      </trkpt>
      <trkpt lat="49.04268" lon="-0.39254">
        <ele>110.2</ele>
        <time>2024-05-26T08:20:36Z</time>
      </trkpt>
      <trkpt lat="49.04263" lon="-0.39258">
        <ele>110.4</ele>
        <time>2024-05-26T08:20:37Z</time>
      </trkpt>
      <trkpt lat="49.04258" lon="-0.39262">
        <ele>110.4</ele>
        <time>2024-05-26T08:20:38Z</time>
      </trkpt>
      <trkpt lat="49.04253" lon="-0.39265">
        <ele>110.6</ele>
        <time>2024-05-26T08:20:39Z</time>
      </trkpt>
      <trkpt lat="49.04247" lon="-0.39269">
        <ele>110.6</ele>
        <time>2024-05-26T08:20:40Z</time>
      </trkpt>
      <trkpt lat="49.04242" lon="-0.39273">
        <ele>110.8</ele>
        <time>2024-05-26T08:20:41Z</time>
      </trkpt>
      <trkpt lat="49.04237" lon="-0.39277">
        <ele>111</ele>
        <time>2024-05-26T08:20:42Z</time>
      </trkpt>
      <trkpt lat="49.04231" lon="-0.39281">
        <ele>111</ele>
        <time>2024-05-26T08:20:43Z</time>
      </trkpt>
      <trkpt lat="49.04225" lon="-0.39284">
        <ele>111</ele>
        <time>2024-05-26T08:20:44Z</time>
      </trkpt>
      <trkpt lat="49.04219" lon="-0.39287">
        <ele>111.2</ele>
        <time>2024-05-26T08:20:45Z</time>
      </trkpt>
      <trkpt lat="49.04213" lon="-0.39291">
        <ele>111</ele>
        <time>2024-05-26T08:20:46Z</time>
      </trkpt>
      <trkpt lat="49.04207" lon="-0.39293">
        <ele>111.2</ele>
        <time>2024-05-26T08:20:47Z</time>
      </trkpt>
      <trkpt lat="49.04201" lon="-0.39296">
        <ele>111.4</ele>
        <time>2024-05-26T08:20:48Z</time>
      </trkpt>
      <trkpt lat="49.04195" lon="-0.393">
        <ele>111.6</ele>
        <time>2024-05-26T08:20:49Z</time>
      </trkpt>
      <trkpt lat="49.04189" lon="-0.39303">
        <ele>111.8</ele>
        <time>2024-05-26T08:20:50Z</time>
      </trkpt>
      <trkpt lat="49.04183" lon="-0.39306">
        <ele>111.8</ele>
        <time>2024-05-26T08:20:51Z</time>
      </trkpt>
      <trkpt lat="49.04177" lon="-0.39309">
        <ele>111.8</ele>
        <time>2024-05-26T08:20:52Z</time>
      </trkpt>
      <trkpt lat="49.04171" lon="-0.39313">
        <ele>111.8</ele>
        <time>2024-05-26T08:20:53Z</time>
      </trkpt>
      <trkpt lat="49.04164" lon="-0.39316">
        <ele>111.8</ele>
        <time>2024-05-26T08:20:54Z</time>
      </trkpt>
      <trkpt lat="49.04158" lon="-0.39319">
        <ele>112</ele>
        <time>2024-05-26T08:20:55Z</time>
      </trkpt>
      <trkpt lat="49.04152" lon="-0.39322">
        <ele>112.2</ele>
        <time>2024-05-26T08:20:56Z</time>
      </trkpt>
      <trkpt lat="49.04146" lon="-0.39324">
        <ele>112.2</ele>
        <time>2024-05-26T08:20:57Z</time>
      </trkpt>
      <trkpt lat="49.0414" lon="-0.39327">
        <ele>112.4</ele>
        <time>2024-05-26T08:20:58Z</time>
      </trkpt>
      <trkpt lat="49.04134" lon="-0.39331">
        <ele>112.6</ele>
        <time>2024-05-26T08:20:59Z</time>
      </trkpt>
      <trkpt lat="49.04127" lon="-0.39334">
        <ele>112.8</ele>
        <time>2024-05-26T08:21:00Z</time>
      </trkpt>
      <trkpt lat="49.04121" lon="-0.39338">
        <ele>112.8</ele>
        <time>2024-05-26T08:21:01Z</time>
      </trkpt>
      <trkpt lat="49.04115" lon="-0.39341">
        <ele>113</ele>
        <time>2024-05-26T08:21:02Z</time>
      </trkpt>
      <trkpt lat="49.04109" lon="-0.39344">
        <ele>113</ele>
        <time>2024-05-26T08:21:03Z</time>
      </trkpt>
      <trkpt lat="49.04103" lon="-0.39348">
        <ele>113.2</ele>
        <time>2024-05-26T08:21:04Z</time>
      </trkpt>
      <trkpt lat="49.04097" lon="-0.39352">
        <ele>113.2</ele>
        <time>2024-05-26T08:21:05Z</time>
      </trkpt>
      <trkpt lat="49.04091" lon="-0.39355">
        <ele>113.4</ele>
        <time>2024-05-26T08:21:06Z</time>
      </trkpt>
      <trkpt lat="49.04084" lon="-0.39359">
        <ele>113.6</ele>
        <time>2024-05-26T08:21:07Z</time>
      </trkpt>
      <trkpt lat="49.04078" lon="-0.39363">
        <ele>113.8</ele>
        <time>2024-05-26T08:21:08Z</time>
      </trkpt>
      <trkpt lat="49.04072" lon="-0.39368">
        <ele>114</ele>
        <time>2024-05-26T08:21:09Z</time>
      </trkpt>
      <trkpt lat="49.04066" lon="-0.39372">
        <ele>114</ele>
        <time>2024-05-26T08:21:10Z</time>
      </trkpt>
      <trkpt lat="49.0406" lon="-0.39376">
        <ele>114.2</ele>
        <time>2024-05-26T08:21:11Z</time>
      </trkpt>
      <trkpt lat="49.04053" lon="-0.3938">
        <ele>114.4</ele>
        <time>2024-05-26T08:21:12Z</time>
      </trkpt>
      <trkpt lat="49.04047" lon="-0.39384">
        <ele>114.6</ele>
        <time>2024-05-26T08:21:13Z</time>
      </trkpt>
      <trkpt lat="49.0404" lon="-0.39387">
        <ele>115</ele>
        <time>2024-05-26T08:21:14Z</time>
      </trkpt>
      <trkpt lat="49.04033" lon="-0.39389">
        <ele>115</ele>
        <time>2024-05-26T08:21:15Z</time>
      </trkpt>
      <trkpt lat="49.04026" lon="-0.39391">
        <ele>115.2</ele>
        <time>2024-05-26T08:21:16Z</time>
      </trkpt>
      <trkpt lat="49.04019" lon="-0.39391">
        <ele>115.2</ele>
        <time>2024-05-26T08:21:17Z</time>
      </trkpt>
      <trkpt lat="49.04012" lon="-0.39391">
        <ele>115.2</ele>
        <time>2024-05-26T08:21:18Z</time>
      </trkpt>
      <trkpt lat="49.04005" lon="-0.3939">
        <ele>115.2</ele>
        <time>2024-05-26T08:21:19Z</time>
      </trkpt>
      <trkpt lat="49.03998" lon="-0.39389">
        <ele>115.2</ele>
        <time>2024-05-26T08:21:20Z</time>
      </trkpt>
      <trkpt lat="49.0399" lon="-0.39387">
        <ele>115.4</ele>
        <time>2024-05-26T08:21:21Z</time>
      </trkpt>
      <trkpt lat="49.03983" lon="-0.39384">
        <ele>115.4</ele>
        <time>2024-05-26T08:21:22Z</time>
      </trkpt>
      <trkpt lat="49.03976" lon="-0.39382">
        <ele>115.4</ele>
        <time>2024-05-26T08:21:23Z</time>
      </trkpt>
      <trkpt lat="49.03969" lon="-0.3938">
        <ele>115.4</ele>
        <time>2024-05-26T08:21:24Z</time>
      </trkpt>
      <trkpt lat="49.03961" lon="-0.39378">
        <ele>115.4</ele>
        <time>2024-05-26T08:21:25Z</time>
      </trkpt>
      <trkpt lat="49.03954" lon="-0.39377">
        <ele>115.4</ele>
        <time>2024-05-26T08:21:26Z</time>
      </trkpt>
      <trkpt lat="49.03946" lon="-0.39375">
        <ele>115.4</ele>
        <time>2024-05-26T08:21:27Z</time>
      </trkpt>
      <trkpt lat="49.03939" lon="-0.39374">
        <ele>115.4</ele>
        <time>2024-05-26T08:21:28Z</time>
      </trkpt>
      <trkpt lat="49.03931" lon="-0.39371">
        <ele>115.4</ele>
        <time>2024-05-26T08:21:29Z</time>
      </trkpt>
      <trkpt lat="49.03923" lon="-0.3937">
        <ele>115.4</ele>
        <time>2024-05-26T08:21:30Z</time>
      </trkpt>
      <trkpt lat="49.03916" lon="-0.39368">
        <ele>115.6</ele>
        <time>2024-05-26T08:21:31Z</time>
      </trkpt>
      <trkpt lat="49.03908" lon="-0.39367">
        <ele>115.8</ele>
        <time>2024-05-26T08:21:32Z</time>
      </trkpt>
      <trkpt lat="49.039" lon="-0.39365">
        <ele>116.2</ele>
        <time>2024-05-26T08:21:33Z</time>
      </trkpt>
      <trkpt lat="49.03893" lon="-0.39363">
        <ele>116.4</ele>
        <time>2024-05-26T08:21:34Z</time>
      </trkpt>
      <trkpt lat="49.03884" lon="-0.39362">
        <ele>116.6</ele>
        <time>2024-05-26T08:21:35Z</time>
      </trkpt>
      <trkpt lat="49.03876" lon="-0.3936">
        <ele>116.6</ele>
        <time>2024-05-26T08:21:36Z</time>
      </trkpt>
      <trkpt lat="49.03868" lon="-0.39358">
        <ele>116.8</ele>
        <time>2024-05-26T08:21:37Z</time>
      </trkpt>
      <trkpt lat="49.0386" lon="-0.39357">
        <ele>116.8</ele>
        <time>2024-05-26T08:21:38Z</time>
      </trkpt>
      <trkpt lat="49.03852" lon="-0.39356">
        <ele>116.8</ele>
        <time>2024-05-26T08:21:39Z</time>
      </trkpt>
      <trkpt lat="49.03843" lon="-0.39354">
        <ele>116.8</ele>
        <time>2024-05-26T08:21:40Z</time>
      </trkpt>
      <trkpt lat="49.03835" lon="-0.39353">
        <ele>116.8</ele>
        <time>2024-05-26T08:21:41Z</time>
      </trkpt>
      <trkpt lat="49.03827" lon="-0.39352">
        <ele>116.8</ele>
        <time>2024-05-26T08:21:42Z</time>
      </trkpt>
      <trkpt lat="49.03818" lon="-0.3935">
        <ele>116.8</ele>
        <time>2024-05-26T08:21:43Z</time>
      </trkpt>
      <trkpt lat="49.0381" lon="-0.39349">
        <ele>116.8</ele>
        <time>2024-05-26T08:21:44Z</time>
      </trkpt>
      <trkpt lat="49.03801" lon="-0.39347">
        <ele>116.6</ele>
        <time>2024-05-26T08:21:45Z</time>
      </trkpt>
      <trkpt lat="49.03792" lon="-0.39346">
        <ele>116.6</ele>
        <time>2024-05-26T08:21:46Z</time>
      </trkpt>
      <trkpt lat="49.03784" lon="-0.39345">
        <ele>116.4</ele>
        <time>2024-05-26T08:21:47Z</time>
      </trkpt>
      <trkpt lat="49.03775" lon="-0.39343">
        <ele>116.2</ele>
        <time>2024-05-26T08:21:48Z</time>
      </trkpt>
      <trkpt lat="49.03766" lon="-0.39343">
        <ele>115.8</ele>
        <time>2024-05-26T08:21:49Z</time>
      </trkpt>
      <trkpt lat="49.03757" lon="-0.39342">
        <ele>115.6</ele>
        <time>2024-05-26T08:21:50Z</time>
      </trkpt>
      <trkpt lat="49.03748" lon="-0.39342">
        <ele>115.4</ele>
        <time>2024-05-26T08:21:51Z</time>
      </trkpt>
      <trkpt lat="49.03739" lon="-0.39341">
        <ele>115.4</ele>
        <time>2024-05-26T08:21:52Z</time>
      </trkpt>
      <trkpt lat="49.03731" lon="-0.39341">
        <ele>115.2</ele>
        <time>2024-05-26T08:21:53Z</time>
      </trkpt>
      <trkpt lat="49.03722" lon="-0.39341">
        <ele>115.2</ele>
        <time>2024-05-26T08:21:54Z</time>
      </trkpt>
      <trkpt lat="49.03713" lon="-0.39341">
        <ele>115.2</ele>
        <time>2024-05-26T08:21:55Z</time>
      </trkpt>
      <trkpt lat="49.03704" lon="-0.39342">
        <ele>115</ele>
        <time>2024-05-26T08:21:56Z</time>
      </trkpt>
      <trkpt lat="49.03696" lon="-0.39342">
        <ele>115</ele>
        <time>2024-05-26T08:21:57Z</time>
      </trkpt>
      <trkpt lat="49.03687" lon="-0.39342">
        <ele>115</ele>
        <time>2024-05-26T08:21:58Z</time>
      </trkpt>
      <trkpt lat="49.03679" lon="-0.39341">
        <ele>115</ele>
        <time>2024-05-26T08:21:59Z</time>
      </trkpt>
      <trkpt lat="49.0367" lon="-0.39341">
        <ele>115</ele>
        <time>2024-05-26T08:22:00Z</time>
      </trkpt>
      <trkpt lat="49.03662" lon="-0.3934">
        <ele>115</ele>
        <time>2024-05-26T08:22:01Z</time>
      </trkpt>
      <trkpt lat="49.03654" lon="-0.39339">
        <ele>115</ele>
        <time>2024-05-26T08:22:02Z</time>
      </trkpt>
      <trkpt lat="49.03646" lon="-0.39339">
        <ele>115</ele>
        <time>2024-05-26T08:22:03Z</time>
      </trkpt>
      <trkpt lat="49.03638" lon="-0.39337">
        <ele>115</ele>
        <time>2024-05-26T08:22:04Z</time>
      </trkpt>
      <trkpt lat="49.0363" lon="-0.39336">
        <ele>114.8</ele>
        <time>2024-05-26T08:22:05Z</time>
      </trkpt>
      <trkpt lat="49.03622" lon="-0.39335">
        <ele>114.8</ele>
        <time>2024-05-26T08:22:06Z</time>
      </trkpt>
      <trkpt lat="49.03615" lon="-0.39334">
        <ele>114.8</ele>
        <time>2024-05-26T08:22:07Z</time>
      </trkpt>
      <trkpt lat="49.03608" lon="-0.39333">
        <ele>114.8</ele>
        <time>2024-05-26T08:22:08Z</time>
      </trkpt>
      <trkpt lat="49.03601" lon="-0.39333">
        <ele>114.8</ele>
        <time>2024-05-26T08:22:09Z</time>
      </trkpt>
      <trkpt lat="49.03594" lon="-0.39332">
        <ele>114.8</ele>
        <time>2024-05-26T08:22:10Z</time>
      </trkpt>
      <trkpt lat="49.03587" lon="-0.39333">
        <ele>114.8</ele>
        <time>2024-05-26T08:22:11Z</time>
      </trkpt>
      <trkpt lat="49.0358" lon="-0.39333">
        <ele>114.8</ele>
        <time>2024-05-26T08:22:12Z</time>
      </trkpt>
      <trkpt lat="49.03573" lon="-0.39334">
        <ele>114.8</ele>
        <time>2024-05-26T08:22:13Z</time>
      </trkpt>
      <trkpt lat="49.03567" lon="-0.39335">
        <ele>115</ele>
        <time>2024-05-26T08:22:14Z</time>
      </trkpt>
      <trkpt lat="49.03561" lon="-0.39337">
        <ele>115</ele>
        <time>2024-05-26T08:22:15Z</time>
      </trkpt>
      <trkpt lat="49.03555" lon="-0.39338">
        <ele>115.2</ele>
        <time>2024-05-26T08:22:16Z</time>
      </trkpt>
      <trkpt lat="49.03549" lon="-0.3934">
        <ele>115.4</ele>
        <time>2024-05-26T08:22:17Z</time>
      </trkpt>
      <trkpt lat="49.03543" lon="-0.39341">
        <ele>115.4</ele>
        <time>2024-05-26T08:22:18Z</time>
      </trkpt>
      <trkpt lat="49.03537" lon="-0.39343">
        <ele>115.6</ele>
        <time>2024-05-26T08:22:19Z</time>
      </trkpt>
      <trkpt lat="49.03532" lon="-0.39345">
        <ele>116</ele>
        <time>2024-05-26T08:22:20Z</time>
      </trkpt>
      <trkpt lat="49.03526" lon="-0.39347">
        <ele>116.2</ele>
        <time>2024-05-26T08:22:21Z</time>
      </trkpt>
      <trkpt lat="49.03521" lon="-0.3935">
        <ele>116.6</ele>
        <time>2024-05-26T08:22:22Z</time>
      </trkpt>
      <trkpt lat="49.03515" lon="-0.39352">
        <ele>117</ele>
        <time>2024-05-26T08:22:23Z</time>
      </trkpt>
      <trkpt lat="49.0351" lon="-0.39354">
        <ele>117.4</ele>
        <time>2024-05-26T08:22:24Z</time>
      </trkpt>
      <trkpt lat="49.03504" lon="-0.39356">
        <ele>117.6</ele>
        <time>2024-05-26T08:22:25Z</time>
      </trkpt>
      <trkpt lat="49.03499" lon="-0.39358">
        <ele>117.6</ele>
        <time>2024-05-26T08:22:26Z</time>
      </trkpt>
      <trkpt lat="49.03494" lon="-0.3936">
        <ele>118</ele>
        <time>2024-05-26T08:22:27Z</time>
      </trkpt>
      <trkpt lat="49.03489" lon="-0.39362">
        <ele>118.4</ele>
        <time>2024-05-26T08:22:28Z</time>
      </trkpt>
      <trkpt lat="49.03484" lon="-0.39365">
        <ele>118.6</ele>
        <time>2024-05-26T08:22:29Z</time>
      </trkpt>
      <trkpt lat="49.03479" lon="-0.39367">
        <ele>118.8</ele>
        <time>2024-05-26T08:22:30Z</time>
      </trkpt>
      <trkpt lat="49.03473" lon="-0.39369">
        <ele>119</ele>
        <time>2024-05-26T08:22:31Z</time>
      </trkpt>
      <trkpt lat="49.03468" lon="-0.39371">
        <ele>119.2</ele>
        <time>2024-05-26T08:22:32Z</time>
      </trkpt>
      <trkpt lat="49.03463" lon="-0.39373">
        <ele>119.2</ele>
        <time>2024-05-26T08:22:33Z</time>
      </trkpt>
      <trkpt lat="49.03458" lon="-0.39375">
        <ele>119.4</ele>
        <time>2024-05-26T08:22:34Z</time>
      </trkpt>
      <trkpt lat="49.03453" lon="-0.39377">
        <ele>119.6</ele>
        <time>2024-05-26T08:22:35Z</time>
      </trkpt>
      <trkpt lat="49.03448" lon="-0.39379">
        <ele>119.6</ele>
        <time>2024-05-26T08:22:36Z</time>
      </trkpt>
      <trkpt lat="49.03443" lon="-0.3938">
        <ele>119.8</ele>
        <time>2024-05-26T08:22:37Z</time>
      </trkpt>
      <trkpt lat="49.03438" lon="-0.39382">
        <ele>120</ele>
        <time>2024-05-26T08:22:38Z</time>
      </trkpt>
      <trkpt lat="49.03432" lon="-0.39383">
        <ele>120.2</ele>
        <time>2024-05-26T08:22:39Z</time>
      </trkpt>
      <trkpt lat="49.03426" lon="-0.39384">
        <ele>120.4</ele>
        <time>2024-05-26T08:22:40Z</time>
      </trkpt>
      <trkpt lat="49.03421" lon="-0.39385">
        <ele>120.6</ele>
        <time>2024-05-26T08:22:41Z</time>
      </trkpt>
      <trkpt lat="49.03415" lon="-0.39386">
        <ele>120.8</ele>
        <time>2024-05-26T08:22:42Z</time>
      </trkpt>
      <trkpt lat="49.03409" lon="-0.39387">
        <ele>120.8</ele>
        <time>2024-05-26T08:22:43Z</time>
      </trkpt>
      <trkpt lat="49.03403" lon="-0.39388">
        <ele>120.8</ele>
        <time>2024-05-26T08:22:44Z</time>
      </trkpt>
      <trkpt lat="49.03397" lon="-0.39388">
        <ele>121</ele>
        <time>2024-05-26T08:22:45Z</time>
      </trkpt>
      <trkpt lat="49.03391" lon="-0.39388">
        <ele>121</ele>
        <time>2024-05-26T08:22:46Z</time>
      </trkpt>
      <trkpt lat="49.03385" lon="-0.39388">
        <ele>121</ele>
        <time>2024-05-26T08:22:47Z</time>
      </trkpt>
      <trkpt lat="49.03379" lon="-0.39388">
        <ele>121</ele>
        <time>2024-05-26T08:22:48Z</time>
      </trkpt>
      <trkpt lat="49.03373" lon="-0.39388">
        <ele>121</ele>
        <time>2024-05-26T08:22:49Z</time>
      </trkpt>
      <trkpt lat="49.03367" lon="-0.39388">
        <ele>121</ele>
        <time>2024-05-26T08:22:50Z</time>
      </trkpt>
      <trkpt lat="49.0336" lon="-0.39388">
        <ele>121</ele>
        <time>2024-05-26T08:22:51Z</time>
      </trkpt>
      <trkpt lat="49.03354" lon="-0.39387">
        <ele>121</ele>
        <time>2024-05-26T08:22:52Z</time>
      </trkpt>
      <trkpt lat="49.03347" lon="-0.39387">
        <ele>121</ele>
        <time>2024-05-26T08:22:53Z</time>
      </trkpt>
      <trkpt lat="49.03341" lon="-0.39387">
        <ele>121.2</ele>
        <time>2024-05-26T08:22:54Z</time>
      </trkpt>
      <trkpt lat="49.03334" lon="-0.39387">
        <ele>121.2</ele>
        <time>2024-05-26T08:22:55Z</time>
      </trkpt>
      <trkpt lat="49.03327" lon="-0.39387">
        <ele>121.2</ele>
        <time>2024-05-26T08:22:56Z</time>
      </trkpt>
      <trkpt lat="49.03321" lon="-0.39387">
        <ele>121.2</ele>
        <time>2024-05-26T08:22:57Z</time>
      </trkpt>
      <trkpt lat="49.03314" lon="-0.39387">
        <ele>121.2</ele>
        <time>2024-05-26T08:22:58Z</time>
      </trkpt>
      <trkpt lat="49.03308" lon="-0.39387">
        <ele>121.2</ele>
        <time>2024-05-26T08:22:59Z</time>
      </trkpt>
      <trkpt lat="49.03301" lon="-0.39387">
        <ele>121.2</ele>
        <time>2024-05-26T08:23:00Z</time>
      </trkpt>
      <trkpt lat="49.03294" lon="-0.39387">
        <ele>121.2</ele>
        <time>2024-05-26T08:23:01Z</time>
      </trkpt>
      <trkpt lat="49.03287" lon="-0.39386">
        <ele>121.2</ele>
        <time>2024-05-26T08:23:02Z</time>
      </trkpt>
      <trkpt lat="49.0328" lon="-0.39386">
        <ele>121.2</ele>
        <time>2024-05-26T08:23:03Z</time>
      </trkpt>
      <trkpt lat="49.03273" lon="-0.39386">
        <ele>121.4</ele>
        <time>2024-05-26T08:23:04Z</time>
      </trkpt>
      <trkpt lat="49.03266" lon="-0.39386">
        <ele>121.4</ele>
        <time>2024-05-26T08:23:05Z</time>
      </trkpt>
      <trkpt lat="49.03259" lon="-0.39386">
        <ele>121.4</ele>
        <time>2024-05-26T08:23:06Z</time>
      </trkpt>
      <trkpt lat="49.03252" lon="-0.39386">
        <ele>121.4</ele>
        <time>2024-05-26T08:23:07Z</time>
      </trkpt>
      <trkpt lat="49.03245" lon="-0.39387">
        <ele>121.4</ele>
        <time>2024-05-26T08:23:08Z</time>
      </trkpt>
      <trkpt lat="49.03239" lon="-0.39386">
        <ele>121.4</ele>
        <time>2024-05-26T08:23:09Z</time>
      </trkpt>
      <trkpt lat="49.03232" lon="-0.39386">
        <ele>121.4</ele>
        <time>2024-05-26T08:23:10Z</time>
      </trkpt>
      <trkpt lat="49.03225" lon="-0.39386">
        <ele>121.4</ele>
        <time>2024-05-26T08:23:11Z</time>
      </trkpt>
      <trkpt lat="49.03219" lon="-0.39386">
        <ele>121.4</ele>
        <time>2024-05-26T08:23:12Z</time>
      </trkpt>
      <trkpt lat="49.03212" lon="-0.39386">
        <ele>121.4</ele>
        <time>2024-05-26T08:23:13Z</time>
      </trkpt>
      <trkpt lat="49.03205" lon="-0.39386">
        <ele>121.4</ele>
        <time>2024-05-26T08:23:14Z</time>
      </trkpt>
      <trkpt lat="49.03198" lon="-0.39386">
        <ele>121.4</ele>
        <time>2024-05-26T08:23:15Z</time>
      </trkpt>
      <trkpt lat="49.03192" lon="-0.39386">
        <ele>121.4</ele>
        <time>2024-05-26T08:23:16Z</time>
      </trkpt>
      <trkpt lat="49.03185" lon="-0.39386">
        <ele>121.2</ele>
        <time>2024-05-26T08:23:17Z</time>
      </trkpt>
      <trkpt lat="49.03179" lon="-0.39386">
        <ele>121</ele>
        <time>2024-05-26T08:23:18Z</time>
      </trkpt>
      <trkpt lat="49.03172" lon="-0.39386">
        <ele>121</ele>
        <time>2024-05-26T08:23:19Z</time>
      </trkpt>
      <trkpt lat="49.03166" lon="-0.39386">
        <ele>121</ele>
        <time>2024-05-26T08:23:20Z</time>
      </trkpt>
      <trkpt lat="49.0316" lon="-0.39386">
        <ele>121</ele>
        <time>2024-05-26T08:23:21Z</time>
      </trkpt>
      <trkpt lat="49.03155" lon="-0.39386">
        <ele>121</ele>
        <time>2024-05-26T08:23:22Z</time>
      </trkpt>
      <trkpt lat="49.0315" lon="-0.39386">
        <ele>121</ele>
        <time>2024-05-26T08:23:23Z</time>
      </trkpt>
      <trkpt lat="49.03146" lon="-0.39386">
        <ele>121</ele>
        <time>2024-05-26T08:23:24Z</time>
      </trkpt>
      <trkpt lat="49.03142" lon="-0.39386">
        <ele>121</ele>
        <time>2024-05-26T08:23:25Z</time>
      </trkpt>
      <trkpt lat="49.0314" lon="-0.39386">
        <ele>121</ele>
        <time>2024-05-26T08:23:26Z</time>
      </trkpt>
      <trkpt lat="49.03138" lon="-0.39385">
        <ele>121</ele>
        <time>2024-05-26T08:23:27Z</time>
      </trkpt>
      <trkpt lat="49.03136" lon="-0.39385">
        <ele>121</ele>
        <time>2024-05-26T08:23:28Z</time>
      </trkpt>
      <trkpt lat="49.03135" lon="-0.39383">
        <ele>121</ele>
        <time>2024-05-26T08:23:29Z</time>
      </trkpt>
      <trkpt lat="49.03134" lon="-0.3938">
        <ele>121.2</ele>
        <time>2024-05-26T08:23:30Z</time>
      </trkpt>
      <trkpt lat="49.03133" lon="-0.39375">
        <ele>121.2</ele>
        <time>2024-05-26T08:23:31Z</time>
      </trkpt>
      <trkpt lat="49.03132" lon="-0.3937">
        <ele>121.2</ele>
        <time>2024-05-26T08:23:32Z</time>
      </trkpt>
      <trkpt lat="49.03131" lon="-0.39364">
        <ele>121.6</ele>
        <time>2024-05-26T08:23:33Z</time>
      </trkpt>
      <trkpt lat="49.0313" lon="-0.39357">
        <ele>122</ele>
        <time>2024-05-26T08:23:34Z</time>
      </trkpt>
      <trkpt lat="49.03129" lon="-0.39349">
        <ele>122.4</ele>
        <time>2024-05-26T08:23:35Z</time>
      </trkpt>
      <trkpt lat="49.03128" lon="-0.39341">
        <ele>122.6</ele>
        <time>2024-05-26T08:23:36Z</time>
      </trkpt>
      <trkpt lat="49.03127" lon="-0.39334">
        <ele>122.8</ele>
        <time>2024-05-26T08:23:37Z</time>
      </trkpt>
      <trkpt lat="49.03127" lon="-0.39326">
        <ele>123</ele>
        <time>2024-05-26T08:23:38Z</time>
      </trkpt>
      <trkpt lat="49.03126" lon="-0.39319">
        <ele>123</ele>
        <time>2024-05-26T08:23:39Z</time>
      </trkpt>
      <trkpt lat="49.03125" lon="-0.39312">
        <ele>123</ele>
        <time>2024-05-26T08:23:40Z</time>
      </trkpt>
      <trkpt lat="49.03125" lon="-0.39305">
        <ele>123</ele>
        <time>2024-05-26T08:23:41Z</time>
      </trkpt>
      <trkpt lat="49.03125" lon="-0.39298">
        <ele>123.2</ele>
        <time>2024-05-26T08:23:42Z</time>
      </trkpt>
      <trkpt lat="49.03124" lon="-0.3929">
        <ele>123.2</ele>
        <time>2024-05-26T08:23:43Z</time>
      </trkpt>
      <trkpt lat="49.03124" lon="-0.39282">
        <ele>123.4</ele>
        <time>2024-05-26T08:23:44Z</time>
      </trkpt>
      <trkpt lat="49.03123" lon="-0.39273">
        <ele>123.4</ele>
        <time>2024-05-26T08:23:45Z</time>
      </trkpt>
      <trkpt lat="49.03122" lon="-0.39265">
        <ele>123.8</ele>
        <time>2024-05-26T08:23:46Z</time>
      </trkpt>
      <trkpt lat="49.03121" lon="-0.39258">
        <ele>124.2</ele>
        <time>2024-05-26T08:23:47Z</time>
      </trkpt>
      <trkpt lat="49.0312" lon="-0.39249">
        <ele>124.4</ele>
        <time>2024-05-26T08:23:48Z</time>
      </trkpt>
      <trkpt lat="49.03119" lon="-0.39241">
        <ele>124.8</ele>
        <time>2024-05-26T08:23:49Z</time>
      </trkpt>
      <trkpt lat="49.03118" lon="-0.39233">
        <ele>125.2</ele>
        <time>2024-05-26T08:23:50Z</time>
      </trkpt>
      <trkpt lat="49.03116" lon="-0.39224">
        <ele>125.4</ele>
        <time>2024-05-26T08:23:51Z</time>
      </trkpt>
      <trkpt lat="49.03115" lon="-0.39214">
        <ele>125.4</ele>
        <time>2024-05-26T08:23:52Z</time>
      </trkpt>
      <trkpt lat="49.03114" lon="-0.39205">
        <ele>125.4</ele>
        <time>2024-05-26T08:23:53Z</time>
      </trkpt>
      <trkpt lat="49.03113" lon="-0.39196">
        <ele>125.4</ele>
        <time>2024-05-26T08:23:54Z</time>
      </trkpt>
      <trkpt lat="49.03112" lon="-0.39186">
        <ele>125.6</ele>
        <time>2024-05-26T08:23:55Z</time>
      </trkpt>
      <trkpt lat="49.03111" lon="-0.39177">
        <ele>126</ele>
        <time>2024-05-26T08:23:56Z</time>
      </trkpt>
      <trkpt lat="49.0311" lon="-0.39166">
        <ele>126.2</ele>
        <time>2024-05-26T08:23:57Z</time>
      </trkpt>
      <trkpt lat="49.03109" lon="-0.39156">
        <ele>126.2</ele>
        <time>2024-05-26T08:23:58Z</time>
      </trkpt>
      <trkpt lat="49.03108" lon="-0.39146">
        <ele>126.4</ele>
        <time>2024-05-26T08:23:59Z</time>
      </trkpt>
      <trkpt lat="49.03107" lon="-0.39135">
        <ele>126.4</ele>
        <time>2024-05-26T08:24:00Z</time>
      </trkpt>
      <trkpt lat="49.03106" lon="-0.39125">
        <ele>126.4</ele>
        <time>2024-05-26T08:24:01Z</time>
      </trkpt>
      <trkpt lat="49.03104" lon="-0.39114">
        <ele>126.4</ele>
        <time>2024-05-26T08:24:02Z</time>
      </trkpt>
      <trkpt lat="49.03103" lon="-0.39102">
        <ele>126.4</ele>
        <time>2024-05-26T08:24:03Z</time>
      </trkpt>
      <trkpt lat="49.03102" lon="-0.39091">
        <ele>126.4</ele>
        <time>2024-05-26T08:24:04Z</time>
      </trkpt>
      <trkpt lat="49.03101" lon="-0.3908">
        <ele>126.4</ele>
        <time>2024-05-26T08:24:05Z</time>
      </trkpt>
      <trkpt lat="49.031" lon="-0.39068">
        <ele>126.4</ele>
        <time>2024-05-26T08:24:06Z</time>
      </trkpt>
      <trkpt lat="49.03099" lon="-0.39056">
        <ele>126.4</ele>
        <time>2024-05-26T08:24:07Z</time>
      </trkpt>
      <trkpt lat="49.03099" lon="-0.39044">
        <ele>126.4</ele>
        <time>2024-05-26T08:24:08Z</time>
      </trkpt>
      <trkpt lat="49.03097" lon="-0.39033">
        <ele>126.2</ele>
        <time>2024-05-26T08:24:09Z</time>
      </trkpt>
      <trkpt lat="49.03096" lon="-0.39021">
        <ele>126.2</ele>
        <time>2024-05-26T08:24:10Z</time>
      </trkpt>
      <trkpt lat="49.03095" lon="-0.39009">
        <ele>126.2</ele>
        <time>2024-05-26T08:24:11Z</time>
      </trkpt>
      <trkpt lat="49.03093" lon="-0.38997">
        <ele>126</ele>
        <time>2024-05-26T08:24:12Z</time>
      </trkpt>
      <trkpt lat="49.03092" lon="-0.38985">
        <ele>126</ele>
        <time>2024-05-26T08:24:13Z</time>
      </trkpt>
      <trkpt lat="49.03091" lon="-0.38973">
        <ele>125.8</ele>
        <time>2024-05-26T08:24:14Z</time>
      </trkpt>
      <trkpt lat="49.03089" lon="-0.3896">
        <ele>125.6</ele>
        <time>2024-05-26T08:24:15Z</time>
      </trkpt>
      <trkpt lat="49.03088" lon="-0.38947">
        <ele>125.6</ele>
        <time>2024-05-26T08:24:16Z</time>
      </trkpt>
      <trkpt lat="49.03086" lon="-0.38934">
        <ele>125.4</ele>
        <time>2024-05-26T08:24:17Z</time>
      </trkpt>
      <trkpt lat="49.03085" lon="-0.38921">
        <ele>125</ele>
        <time>2024-05-26T08:24:18Z</time>
      </trkpt>
      <trkpt lat="49.03084" lon="-0.38908">
        <ele>124.8</ele>
        <time>2024-05-26T08:24:19Z</time>
      </trkpt>
      <trkpt lat="49.03082" lon="-0.38893">
        <ele>124.4</ele>
        <time>2024-05-26T08:24:20Z</time>
      </trkpt>
      <trkpt lat="49.03081" lon="-0.38879">
        <ele>124</ele>
        <time>2024-05-26T08:24:21Z</time>
      </trkpt>
      <trkpt lat="49.03079" lon="-0.38864">
        <ele>123.8</ele>
        <time>2024-05-26T08:24:22Z</time>
      </trkpt>
      <trkpt lat="49.03077" lon="-0.38849">
        <ele>123.6</ele>
        <time>2024-05-26T08:24:23Z</time>
      </trkpt>
      <trkpt lat="49.03076" lon="-0.38833">
        <ele>123.2</ele>
        <time>2024-05-26T08:24:24Z</time>
      </trkpt>
      <trkpt lat="49.03074" lon="-0.38818">
        <ele>123</ele>
        <time>2024-05-26T08:24:25Z</time>
      </trkpt>
      <trkpt lat="49.03072" lon="-0.38802">
        <ele>122.4</ele>
        <time>2024-05-26T08:24:26Z</time>
      </trkpt>
      <trkpt lat="49.03071" lon="-0.38785">
        <ele>121.6</ele>
        <time>2024-05-26T08:24:27Z</time>
      </trkpt>
      <trkpt lat="49.03069" lon="-0.38768">
        <ele>121</ele>
        <time>2024-05-26T08:24:28Z</time>
      </trkpt>
      <trkpt lat="49.03068" lon="-0.38751">
        <ele>120.4</ele>
        <time>2024-05-26T08:24:29Z</time>
      </trkpt>
      <trkpt lat="49.03066" lon="-0.38734">
        <ele>119.6</ele>
        <time>2024-05-26T08:24:30Z</time>
      </trkpt>
      <trkpt lat="49.03064" lon="-0.38716">
        <ele>118.8</ele>
        <time>2024-05-26T08:24:31Z</time>
      </trkpt>
      <trkpt lat="49.03063" lon="-0.38699">
        <ele>117.8</ele>
        <time>2024-05-26T08:24:32Z</time>
      </trkpt>
      <trkpt lat="49.03061" lon="-0.38682">
        <ele>117</ele>
        <time>2024-05-26T08:24:33Z</time>
      </trkpt>
      <trkpt lat="49.0306" lon="-0.38666">
        <ele>116.2</ele>
        <time>2024-05-26T08:24:34Z</time>
      </trkpt>
      <trkpt lat="49.03059" lon="-0.3865">
        <ele>115.6</ele>
        <time>2024-05-26T08:24:35Z</time>
      </trkpt>
      <trkpt lat="49.03057" lon="-0.38636">
        <ele>114.8</ele>
        <time>2024-05-26T08:24:36Z</time>
      </trkpt>
      <trkpt lat="49.03056" lon="-0.38623">
        <ele>114.4</ele>
        <time>2024-05-26T08:24:37Z</time>
      </trkpt>
      <trkpt lat="49.03055" lon="-0.3861">
        <ele>114.4</ele>
        <time>2024-05-26T08:24:38Z</time>
      </trkpt>
      <trkpt lat="49.03055" lon="-0.38598">
        <ele>114.2</ele>
        <time>2024-05-26T08:24:39Z</time>
      </trkpt>
      <trkpt lat="49.03053" lon="-0.38586">
        <ele>114</ele>
        <time>2024-05-26T08:24:40Z</time>
      </trkpt>
      <trkpt lat="49.03052" lon="-0.38575">
        <ele>114</ele>
        <time>2024-05-26T08:24:41Z</time>
      </trkpt>
      <trkpt lat="49.03051" lon="-0.38564">
        <ele>114</ele>
        <time>2024-05-26T08:24:42Z</time>
      </trkpt>
      <trkpt lat="49.0305" lon="-0.38553">
        <ele>114</ele>
        <time>2024-05-26T08:24:43Z</time>
      </trkpt>
      <trkpt lat="49.03048" lon="-0.38542">
        <ele>114</ele>
        <time>2024-05-26T08:24:44Z</time>
      </trkpt>
      <trkpt lat="49.03047" lon="-0.38532">
        <ele>114</ele>
        <time>2024-05-26T08:24:45Z</time>
      </trkpt>
      <trkpt lat="49.03045" lon="-0.38522">
        <ele>114</ele>
        <time>2024-05-26T08:24:46Z</time>
      </trkpt>
      <trkpt lat="49.03044" lon="-0.38512">
        <ele>114.4</ele>
        <time>2024-05-26T08:24:47Z</time>
      </trkpt>
      <trkpt lat="49.03043" lon="-0.38502">
        <ele>114.8</ele>
        <time>2024-05-26T08:24:48Z</time>
      </trkpt>
      <trkpt lat="49.03042" lon="-0.38492">
        <ele>115.6</ele>
        <time>2024-05-26T08:24:49Z</time>
      </trkpt>
      <trkpt lat="49.03041" lon="-0.38483">
        <ele>116.4</ele>
        <time>2024-05-26T08:24:50Z</time>
      </trkpt>
      <trkpt lat="49.0304" lon="-0.38473">
        <ele>117</ele>
        <time>2024-05-26T08:24:51Z</time>
      </trkpt>
      <trkpt lat="49.03039" lon="-0.38464">
        <ele>117.8</ele>
        <time>2024-05-26T08:24:52Z</time>
      </trkpt>
      <trkpt lat="49.03039" lon="-0.38455">
        <ele>118.2</ele>
        <time>2024-05-26T08:24:53Z</time>
      </trkpt>
      <trkpt lat="49.03038" lon="-0.38445">
        <ele>119</ele>
        <time>2024-05-26T08:24:54Z</time>
      </trkpt>
      <trkpt lat="49.03037" lon="-0.38436">
        <ele>119.6</ele>
        <time>2024-05-26T08:24:55Z</time>
      </trkpt>
      <trkpt lat="49.03036" lon="-0.38427">
        <ele>120</ele>
        <time>2024-05-26T08:24:56Z</time>
      </trkpt>
      <trkpt lat="49.03036" lon="-0.38418">
        <ele>120.6</ele>
        <time>2024-05-26T08:24:57Z</time>
      </trkpt>
      <trkpt lat="49.03035" lon="-0.38408">
        <ele>121</ele>
        <time>2024-05-26T08:24:58Z</time>
      </trkpt>
      <trkpt lat="49.03034" lon="-0.38399">
        <ele>121.6</ele>
        <time>2024-05-26T08:24:59Z</time>
      </trkpt>
      <trkpt lat="49.03033" lon="-0.38388">
        <ele>121.6</ele>
        <time>2024-05-26T08:25:00Z</time>
      </trkpt>
      <trkpt lat="49.03032" lon="-0.38378">
        <ele>122</ele>
        <time>2024-05-26T08:25:01Z</time>
      </trkpt>
      <trkpt lat="49.03031" lon="-0.38368">
        <ele>122.6</ele>
        <time>2024-05-26T08:25:02Z</time>
      </trkpt>
      <trkpt lat="49.0303" lon="-0.38358">
        <ele>123.2</ele>
        <time>2024-05-26T08:25:03Z</time>
      </trkpt>
      <trkpt lat="49.03029" lon="-0.38348">
        <ele>123.6</ele>
        <time>2024-05-26T08:25:04Z</time>
      </trkpt>
      <trkpt lat="49.03028" lon="-0.38338">
        <ele>124</ele>
        <time>2024-05-26T08:25:05Z</time>
      </trkpt>
      <trkpt lat="49.03027" lon="-0.38328">
        <ele>124.2</ele>
        <time>2024-05-26T08:25:06Z</time>
      </trkpt>
      <trkpt lat="49.03026" lon="-0.38318">
        <ele>124.4</ele>
        <time>2024-05-26T08:25:07Z</time>
      </trkpt>
      <trkpt lat="49.03024" lon="-0.38307">
        <ele>124.8</ele>
        <time>2024-05-26T08:25:08Z</time>
      </trkpt>
      <trkpt lat="49.03023" lon="-0.38297">
        <ele>125</ele>
        <time>2024-05-26T08:25:09Z</time>
      </trkpt>
      <trkpt lat="49.03022" lon="-0.38287">
        <ele>125.4</ele>
        <time>2024-05-26T08:25:10Z</time>
      </trkpt>
      <trkpt lat="49.0302" lon="-0.38277">
        <ele>125.6</ele>
        <time>2024-05-26T08:25:11Z</time>
      </trkpt>
      <trkpt lat="49.03019" lon="-0.38268">
        <ele>125.8</ele>
        <time>2024-05-26T08:25:12Z</time>
      </trkpt>
      <trkpt lat="49.03018" lon="-0.38258">
        <ele>126</ele>
        <time>2024-05-26T08:25:13Z</time>
      </trkpt>
      <trkpt lat="49.03017" lon="-0.38248">
        <ele>126.2</ele>
        <time>2024-05-26T08:25:14Z</time>
      </trkpt>
      <trkpt lat="49.03016" lon="-0.38238">
        <ele>126.2</ele>
        <time>2024-05-26T08:25:15Z</time>
      </trkpt>
      <trkpt lat="49.03015" lon="-0.38228">
        <ele>126.2</ele>
        <time>2024-05-26T08:25:16Z</time>
      </trkpt>
      <trkpt lat="49.03014" lon="-0.38217">
        <ele>126.4</ele>
        <time>2024-05-26T08:25:17Z</time>
      </trkpt>
      <trkpt lat="49.03012" lon="-0.38207">
        <ele>126.4</ele>
        <time>2024-05-26T08:25:18Z</time>
      </trkpt>
      <trkpt lat="49.03011" lon="-0.38196">
        <ele>126.4</ele>
        <time>2024-05-26T08:25:19Z</time>
      </trkpt>
      <trkpt lat="49.0301" lon="-0.38185">
        <ele>126.6</ele>
        <time>2024-05-26T08:25:20Z</time>
      </trkpt>
      <trkpt lat="49.03009" lon="-0.38175">
        <ele>126.6</ele>
        <time>2024-05-26T08:25:21Z</time>
      </trkpt>
      <trkpt lat="49.03007" lon="-0.38164">
        <ele>126.6</ele>
        <time>2024-05-26T08:25:22Z</time>
      </trkpt>
      <trkpt lat="49.03006" lon="-0.38153">
        <ele>126.6</ele>
        <time>2024-05-26T08:25:23Z</time>
      </trkpt>
      <trkpt lat="49.03005" lon="-0.38142">
        <ele>126.6</ele>
        <time>2024-05-26T08:25:24Z</time>
      </trkpt>
      <trkpt lat="49.03004" lon="-0.3813">
        <ele>126.6</ele>
        <time>2024-05-26T08:25:25Z</time>
      </trkpt>
      <trkpt lat="49.03002" lon="-0.38119">
        <ele>126.6</ele>
        <time>2024-05-26T08:25:26Z</time>
      </trkpt>
      <trkpt lat="49.03001" lon="-0.38107">
        <ele>126.6</ele>
        <time>2024-05-26T08:25:27Z</time>
      </trkpt>
      <trkpt lat="49.02999" lon="-0.38096">
        <ele>126.6</ele>
        <time>2024-05-26T08:25:28Z</time>
      </trkpt>
      <trkpt lat="49.02997" lon="-0.38085">
        <ele>126.6</ele>
        <time>2024-05-26T08:25:29Z</time>
      </trkpt>
      <trkpt lat="49.02996" lon="-0.38075">
        <ele>126.4</ele>
        <time>2024-05-26T08:25:30Z</time>
      </trkpt>
      <trkpt lat="49.02995" lon="-0.38064">
        <ele>126.4</ele>
        <time>2024-05-26T08:25:31Z</time>
      </trkpt>
      <trkpt lat="49.02994" lon="-0.38053">
        <ele>126.4</ele>
        <time>2024-05-26T08:25:32Z</time>
      </trkpt>
      <trkpt lat="49.02992" lon="-0.38042">
        <ele>126.2</ele>
        <time>2024-05-26T08:25:33Z</time>
      </trkpt>
      <trkpt lat="49.02991" lon="-0.38031">
        <ele>126</ele>
        <time>2024-05-26T08:25:34Z</time>
      </trkpt>
      <trkpt lat="49.02991" lon="-0.38019">
        <ele>125.8</ele>
        <time>2024-05-26T08:25:35Z</time>
      </trkpt>
      <trkpt lat="49.0299" lon="-0.38008">
        <ele>125.8</ele>
        <time>2024-05-26T08:25:36Z</time>
      </trkpt>
      <trkpt lat="49.02989" lon="-0.37996">
        <ele>125.8</ele>
        <time>2024-05-26T08:25:37Z</time>
      </trkpt>
      <trkpt lat="49.02989" lon="-0.37984">
        <ele>125.6</ele>
        <time>2024-05-26T08:25:38Z</time>
      </trkpt>
      <trkpt lat="49.02987" lon="-0.37973">
        <ele>125.6</ele>
        <time>2024-05-26T08:25:39Z</time>
      </trkpt>
      <trkpt lat="49.02986" lon="-0.37962">
        <ele>125.6</ele>
        <time>2024-05-26T08:25:40Z</time>
      </trkpt>
      <trkpt lat="49.02986" lon="-0.37951">
        <ele>125.6</ele>
        <time>2024-05-26T08:25:41Z</time>
      </trkpt>
      <trkpt lat="49.02985" lon="-0.3794">
        <ele>125.6</ele>
        <time>2024-05-26T08:25:42Z</time>
      </trkpt>
      <trkpt lat="49.02984" lon="-0.37929">
        <ele>125.6</ele>
        <time>2024-05-26T08:25:43Z</time>
      </trkpt>
      <trkpt lat="49.02983" lon="-0.37919">
        <ele>125.6</ele>
        <time>2024-05-26T08:25:44Z</time>
      </trkpt>
      <trkpt lat="49.02981" lon="-0.37908">
        <ele>125.6</ele>
        <time>2024-05-26T08:25:45Z</time>
      </trkpt>
      <trkpt lat="49.0298" lon="-0.37898">
        <ele>125.6</ele>
        <time>2024-05-26T08:25:46Z</time>
      </trkpt>
      <trkpt lat="49.02979" lon="-0.37887">
        <ele>125.8</ele>
        <time>2024-05-26T08:25:47Z</time>
      </trkpt>
      <trkpt lat="49.02978" lon="-0.37876">
        <ele>125.8</ele>
        <time>2024-05-26T08:25:48Z</time>
      </trkpt>
      <trkpt lat="49.02977" lon="-0.37865">
        <ele>125.8</ele>
        <time>2024-05-26T08:25:49Z</time>
      </trkpt>
      <trkpt lat="49.02976" lon="-0.37855">
        <ele>125.8</ele>
        <time>2024-05-26T08:25:50Z</time>
      </trkpt>
      <trkpt lat="49.02975" lon="-0.37844">
        <ele>126</ele>
        <time>2024-05-26T08:25:51Z</time>
      </trkpt>
      <trkpt lat="49.02974" lon="-0.37834">
        <ele>126.2</ele>
        <time>2024-05-26T08:25:52Z</time>
      </trkpt>
      <trkpt lat="49.02972" lon="-0.37824">
        <ele>126.2</ele>
        <time>2024-05-26T08:25:53Z</time>
      </trkpt>
      <trkpt lat="49.0297" lon="-0.37815">
        <ele>126.4</ele>
        <time>2024-05-26T08:25:54Z</time>
      </trkpt>
      <trkpt lat="49.02968" lon="-0.37806">
        <ele>126.6</ele>
        <time>2024-05-26T08:25:55Z</time>
      </trkpt>
      <trkpt lat="49.02966" lon="-0.37797">
        <ele>126.8</ele>
        <time>2024-05-26T08:25:56Z</time>
      </trkpt>
      <trkpt lat="49.02964" lon="-0.37787">
        <ele>126.8</ele>
        <time>2024-05-26T08:25:57Z</time>
      </trkpt>
      <trkpt lat="49.02963" lon="-0.37778">
        <ele>126.8</ele>
        <time>2024-05-26T08:25:58Z</time>
      </trkpt>
      <trkpt lat="49.02962" lon="-0.37767">
        <ele>127</ele>
        <time>2024-05-26T08:25:59Z</time>
      </trkpt>
      <trkpt lat="49.02961" lon="-0.37758">
        <ele>127</ele>
        <time>2024-05-26T08:26:00Z</time>
      </trkpt>
      <trkpt lat="49.0296" lon="-0.37748">
        <ele>127.2</ele>
        <time>2024-05-26T08:26:01Z</time>
      </trkpt>
      <trkpt lat="49.02959" lon="-0.37739">
        <ele>127.4</ele>
        <time>2024-05-26T08:26:02Z</time>
      </trkpt>
      <trkpt lat="49.02958" lon="-0.37728">
        <ele>127.6</ele>
        <time>2024-05-26T08:26:03Z</time>
      </trkpt>
      <trkpt lat="49.02957" lon="-0.37717">
        <ele>127.8</ele>
        <time>2024-05-26T08:26:04Z</time>
      </trkpt>
      <trkpt lat="49.02956" lon="-0.37706">
        <ele>127.8</ele>
        <time>2024-05-26T08:26:05Z</time>
      </trkpt>
      <trkpt lat="49.02956" lon="-0.37693">
        <ele>127.8</ele>
        <time>2024-05-26T08:26:06Z</time>
      </trkpt>
      <trkpt lat="49.02955" lon="-0.37682">
        <ele>128</ele>
        <time>2024-05-26T08:26:07Z</time>
      </trkpt>
      <trkpt lat="49.02954" lon="-0.37671">
        <ele>128</ele>
        <time>2024-05-26T08:26:08Z</time>
      </trkpt>
      <trkpt lat="49.02953" lon="-0.37661">
        <ele>128</ele>
        <time>2024-05-26T08:26:09Z</time>
      </trkpt>
      <trkpt lat="49.02951" lon="-0.37649">
        <ele>128</ele>
        <time>2024-05-26T08:26:10Z</time>
      </trkpt>
      <trkpt lat="49.02949" lon="-0.37638">
        <ele>128</ele>
        <time>2024-05-26T08:26:11Z</time>
      </trkpt>
      <trkpt lat="49.02949" lon="-0.37626">
        <ele>128.2</ele>
        <time>2024-05-26T08:26:12Z</time>
      </trkpt>
      <trkpt lat="49.02948" lon="-0.37615">
        <ele>128.4</ele>
        <time>2024-05-26T08:26:13Z</time>
      </trkpt>
      <trkpt lat="49.02947" lon="-0.37603">
        <ele>128.4</ele>
        <time>2024-05-26T08:26:14Z</time>
      </trkpt>
      <trkpt lat="49.02947" lon="-0.3759">
        <ele>128.4</ele>
        <time>2024-05-26T08:26:15Z</time>
      </trkpt>
      <trkpt lat="49.02946" lon="-0.37578">
        <ele>128.6</ele>
        <time>2024-05-26T08:26:16Z</time>
      </trkpt>
      <trkpt lat="49.02945" lon="-0.37567">
        <ele>128.6</ele>
        <time>2024-05-26T08:26:17Z</time>
      </trkpt>
      <trkpt lat="49.02943" lon="-0.37555">
        <ele>129</ele>
        <time>2024-05-26T08:26:18Z</time>
      </trkpt>
      <trkpt lat="49.02941" lon="-0.37543">
        <ele>129.2</ele>
        <time>2024-05-26T08:26:19Z</time>
      </trkpt>
      <trkpt lat="49.02941" lon="-0.3753">
        <ele>129.2</ele>
        <time>2024-05-26T08:26:20Z</time>
      </trkpt>
      <trkpt lat="49.0294" lon="-0.37518">
        <ele>129.2</ele>
        <time>2024-05-26T08:26:21Z</time>
      </trkpt>
      <trkpt lat="49.02939" lon="-0.37507">
        <ele>129.6</ele>
        <time>2024-05-26T08:26:22Z</time>
      </trkpt>
      <trkpt lat="49.02939" lon="-0.37495">
        <ele>129.6</ele>
        <time>2024-05-26T08:26:23Z</time>
      </trkpt>
      <trkpt lat="49.02938" lon="-0.37484">
        <ele>129.6</ele>
        <time>2024-05-26T08:26:24Z</time>
      </trkpt>
      <trkpt lat="49.02936" lon="-0.37474">
        <ele>129.6</ele>
        <time>2024-05-26T08:26:25Z</time>
      </trkpt>
      <trkpt lat="49.02936" lon="-0.37466">
        <ele>129.6</ele>
        <time>2024-05-26T08:26:26Z</time>
      </trkpt>
      <trkpt lat="49.02935" lon="-0.37455">
        <ele>129.8</ele>
        <time>2024-05-26T08:26:27Z</time>
      </trkpt>
      <trkpt lat="49.02933" lon="-0.37445">
        <ele>129.8</ele>
        <time>2024-05-26T08:26:28Z</time>
      </trkpt>
      <trkpt lat="49.02931" lon="-0.37434">
        <ele>129.8</ele>
        <time>2024-05-26T08:26:29Z</time>
      </trkpt>
      <trkpt lat="49.0293" lon="-0.37423">
        <ele>129.8</ele>
        <time>2024-05-26T08:26:30Z</time>
      </trkpt>
      <trkpt lat="49.02928" lon="-0.37413">
        <ele>129.8</ele>
        <time>2024-05-26T08:26:31Z</time>
      </trkpt>
      <trkpt lat="49.02927" lon="-0.37403">
        <ele>129.8</ele>
        <time>2024-05-26T08:26:32Z</time>
      </trkpt>
      <trkpt lat="49.02926" lon="-0.37393">
        <ele>130.2</ele>
        <time>2024-05-26T08:26:33Z</time>
      </trkpt>
      <trkpt lat="49.02926" lon="-0.37382">
        <ele>130.2</ele>
        <time>2024-05-26T08:26:34Z</time>
      </trkpt>
      <trkpt lat="49.02924" lon="-0.37371">
        <ele>130.4</ele>
        <time>2024-05-26T08:26:35Z</time>
      </trkpt>
      <trkpt lat="49.02922" lon="-0.3736">
        <ele>130.4</ele>
        <time>2024-05-26T08:26:36Z</time>
      </trkpt>
      <trkpt lat="49.0292" lon="-0.37348">
        <ele>130.4</ele>
        <time>2024-05-26T08:26:37Z</time>
      </trkpt>
      <trkpt lat="49.0292" lon="-0.37336">
        <ele>130.4</ele>
        <time>2024-05-26T08:26:38Z</time>
      </trkpt>
      <trkpt lat="49.0292" lon="-0.37325">
        <ele>130.4</ele>
        <time>2024-05-26T08:26:39Z</time>
      </trkpt>
      <trkpt lat="49.02919" lon="-0.37313">
        <ele>130.4</ele>
        <time>2024-05-26T08:26:40Z</time>
      </trkpt>
      <trkpt lat="49.02918" lon="-0.37302">
        <ele>130.4</ele>
        <time>2024-05-26T08:26:41Z</time>
      </trkpt>
      <trkpt lat="49.02917" lon="-0.37291">
        <ele>130.4</ele>
        <time>2024-05-26T08:26:42Z</time>
      </trkpt>
      <trkpt lat="49.02916" lon="-0.37279">
        <ele>130.4</ele>
        <time>2024-05-26T08:26:43Z</time>
      </trkpt>
      <trkpt lat="49.02914" lon="-0.37267">
        <ele>130.4</ele>
        <time>2024-05-26T08:26:44Z</time>
      </trkpt>
      <trkpt lat="49.02913" lon="-0.37255">
        <ele>130.4</ele>
        <time>2024-05-26T08:26:45Z</time>
      </trkpt>
      <trkpt lat="49.02912" lon="-0.37243">
        <ele>130.4</ele>
        <time>2024-05-26T08:26:46Z</time>
      </trkpt>
      <trkpt lat="49.0291" lon="-0.37231">
        <ele>130.4</ele>
        <time>2024-05-26T08:26:47Z</time>
      </trkpt>
      <trkpt lat="49.02909" lon="-0.3722">
        <ele>130.4</ele>
        <time>2024-05-26T08:26:48Z</time>
      </trkpt>
      <trkpt lat="49.02909" lon="-0.37208">
        <ele>130.4</ele>
        <time>2024-05-26T08:26:49Z</time>
      </trkpt>
      <trkpt lat="49.02909" lon="-0.37195">
        <ele>130.4</ele>
        <time>2024-05-26T08:26:50Z</time>
      </trkpt>
      <trkpt lat="49.02909" lon="-0.37183">
        <ele>130.4</ele>
        <time>2024-05-26T08:26:51Z</time>
      </trkpt>
      <trkpt lat="49.02908" lon="-0.3717">
        <ele>130.4</ele>
        <time>2024-05-26T08:26:52Z</time>
      </trkpt>
      <trkpt lat="49.02906" lon="-0.37157">
        <ele>130.4</ele>
        <time>2024-05-26T08:26:53Z</time>
      </trkpt>
      <trkpt lat="49.02904" lon="-0.37145">
        <ele>130.4</ele>
        <time>2024-05-26T08:26:54Z</time>
      </trkpt>
      <trkpt lat="49.02902" lon="-0.37133">
        <ele>130.2</ele>
        <time>2024-05-26T08:26:55Z</time>
      </trkpt>
      <trkpt lat="49.02902" lon="-0.37122">
        <ele>130.2</ele>
        <time>2024-05-26T08:26:56Z</time>
      </trkpt>
      <trkpt lat="49.02901" lon="-0.37111">
        <ele>130.2</ele>
        <time>2024-05-26T08:26:57Z</time>
      </trkpt>
      <trkpt lat="49.029" lon="-0.37099">
        <ele>130.2</ele>
        <time>2024-05-26T08:26:58Z</time>
      </trkpt>
      <trkpt lat="49.02899" lon="-0.37087">
        <ele>130.2</ele>
        <time>2024-05-26T08:26:59Z</time>
      </trkpt>
      <trkpt lat="49.02897" lon="-0.37075">
        <ele>130.2</ele>
        <time>2024-05-26T08:27:00Z</time>
      </trkpt>
      <trkpt lat="49.02895" lon="-0.37063">
        <ele>130.2</ele>
        <time>2024-05-26T08:27:01Z</time>
      </trkpt>
      <trkpt lat="49.02894" lon="-0.37051">
        <ele>130</ele>
        <time>2024-05-26T08:27:02Z</time>
      </trkpt>
      <trkpt lat="49.02893" lon="-0.37039">
        <ele>130</ele>
        <time>2024-05-26T08:27:03Z</time>
      </trkpt>
      <trkpt lat="49.02891" lon="-0.37027">
        <ele>130</ele>
        <time>2024-05-26T08:27:04Z</time>
      </trkpt>
      <trkpt lat="49.0289" lon="-0.37015">
        <ele>130</ele>
        <time>2024-05-26T08:27:05Z</time>
      </trkpt>
      <trkpt lat="49.02889" lon="-0.37003">
        <ele>130</ele>
        <time>2024-05-26T08:27:06Z</time>
      </trkpt>
      <trkpt lat="49.02888" lon="-0.36991">
        <ele>130</ele>
        <time>2024-05-26T08:27:07Z</time>
      </trkpt>
      <trkpt lat="49.02887" lon="-0.36978">
        <ele>130</ele>
        <time>2024-05-26T08:27:08Z</time>
      </trkpt>
      <trkpt lat="49.02886" lon="-0.36966">
        <ele>130</ele>
        <time>2024-05-26T08:27:09Z</time>
      </trkpt>
      <trkpt lat="49.02884" lon="-0.36954">
        <ele>129.8</ele>
        <time>2024-05-26T08:27:10Z</time>
      </trkpt>
      <trkpt lat="49.02883" lon="-0.36942">
        <ele>129.8</ele>
        <time>2024-05-26T08:27:11Z</time>
      </trkpt>
      <trkpt lat="49.02881" lon="-0.3693">
        <ele>129.8</ele>
        <time>2024-05-26T08:27:12Z</time>
      </trkpt>
      <trkpt lat="49.0288" lon="-0.36919">
        <ele>129.6</ele>
        <time>2024-05-26T08:27:13Z</time>
      </trkpt>
      <trkpt lat="49.02879" lon="-0.36907">
        <ele>129.8</ele>
        <time>2024-05-26T08:27:14Z</time>
      </trkpt>
      <trkpt lat="49.02878" lon="-0.36895">
        <ele>129.8</ele>
        <time>2024-05-26T08:27:15Z</time>
      </trkpt>
      <trkpt lat="49.02877" lon="-0.36883">
        <ele>129.8</ele>
        <time>2024-05-26T08:27:16Z</time>
      </trkpt>
      <trkpt lat="49.02876" lon="-0.36871">
        <ele>129.8</ele>
        <time>2024-05-26T08:27:17Z</time>
      </trkpt>
      <trkpt lat="49.02875" lon="-0.36859">
        <ele>129.6</ele>
        <time>2024-05-26T08:27:18Z</time>
      </trkpt>
      <trkpt lat="49.02873" lon="-0.36846">
        <ele>129.6</ele>
        <time>2024-05-26T08:27:19Z</time>
      </trkpt>
      <trkpt lat="49.02871" lon="-0.36834">
        <ele>129.6</ele>
        <time>2024-05-26T08:27:20Z</time>
      </trkpt>
      <trkpt lat="49.0287" lon="-0.36822">
        <ele>129.8</ele>
        <time>2024-05-26T08:27:21Z</time>
      </trkpt>
      <trkpt lat="49.02869" lon="-0.36809">
        <ele>129.8</ele>
        <time>2024-05-26T08:27:22Z</time>
      </trkpt>
      <trkpt lat="49.02867" lon="-0.36796">
        <ele>129.8</ele>
        <time>2024-05-26T08:27:23Z</time>
      </trkpt>
      <trkpt lat="49.02866" lon="-0.36783">
        <ele>129.8</ele>
        <time>2024-05-26T08:27:24Z</time>
      </trkpt>
      <trkpt lat="49.02865" lon="-0.3677">
        <ele>129.8</ele>
        <time>2024-05-26T08:27:25Z</time>
      </trkpt>
      <trkpt lat="49.02865" lon="-0.36757">
        <ele>129.8</ele>
        <time>2024-05-26T08:27:26Z</time>
      </trkpt>
      <trkpt lat="49.02866" lon="-0.36745">
        <ele>129.8</ele>
        <time>2024-05-26T08:27:27Z</time>
      </trkpt>
      <trkpt lat="49.0287" lon="-0.36732">
        <ele>129.8</ele>
        <time>2024-05-26T08:27:28Z</time>
      </trkpt>
      <trkpt lat="49.02874" lon="-0.3672">
        <ele>129.8</ele>
        <time>2024-05-26T08:27:29Z</time>
      </trkpt>
      <trkpt lat="49.02879" lon="-0.36709">
        <ele>129.8</ele>
        <time>2024-05-26T08:27:30Z</time>
      </trkpt>
      <trkpt lat="49.02886" lon="-0.36699">
        <ele>129.6</ele>
        <time>2024-05-26T08:27:31Z</time>
      </trkpt>
      <trkpt lat="49.02893" lon="-0.3669">
        <ele>129.6</ele>
        <time>2024-05-26T08:27:32Z</time>
      </trkpt>
      <trkpt lat="49.02899" lon="-0.36681">
        <ele>129.6</ele>
        <time>2024-05-26T08:27:33Z</time>
      </trkpt>
      <trkpt lat="49.02906" lon="-0.36671">
        <ele>129.4</ele>
        <time>2024-05-26T08:27:34Z</time>
      </trkpt>
      <trkpt lat="49.02912" lon="-0.36661">
        <ele>129.4</ele>
        <time>2024-05-26T08:27:35Z</time>
      </trkpt>
      <trkpt lat="49.02918" lon="-0.36649">
        <ele>129.2</ele>
        <time>2024-05-26T08:27:36Z</time>
      </trkpt>
      <trkpt lat="49.02923" lon="-0.36637">
        <ele>129.2</ele>
        <time>2024-05-26T08:27:37Z</time>
      </trkpt>
      <trkpt lat="49.02929" lon="-0.36625">
        <ele>129</ele>
        <time>2024-05-26T08:27:38Z</time>
      </trkpt>
      <trkpt lat="49.02934" lon="-0.36613">
        <ele>129</ele>
        <time>2024-05-26T08:27:39Z</time>
      </trkpt>
      <trkpt lat="49.02939" lon="-0.366">
        <ele>128.8</ele>
        <time>2024-05-26T08:27:40Z</time>
      </trkpt>
      <trkpt lat="49.02944" lon="-0.36588">
        <ele>128.8</ele>
        <time>2024-05-26T08:27:41Z</time>
      </trkpt>
      <trkpt lat="49.02949" lon="-0.36576">
        <ele>128.6</ele>
        <time>2024-05-26T08:27:42Z</time>
      </trkpt>
      <trkpt lat="49.02954" lon="-0.36563">
        <ele>128.6</ele>
        <time>2024-05-26T08:27:43Z</time>
      </trkpt>
      <trkpt lat="49.02958" lon="-0.3655">
        <ele>128.4</ele>
        <time>2024-05-26T08:27:44Z</time>
      </trkpt>
      <trkpt lat="49.02963" lon="-0.36537">
        <ele>128.4</ele>
        <time>2024-05-26T08:27:45Z</time>
      </trkpt>
      <trkpt lat="49.02967" lon="-0.36525">
        <ele>128.4</ele>
        <time>2024-05-26T08:27:46Z</time>
      </trkpt>
      <trkpt lat="49.02972" lon="-0.36512">
        <ele>128.4</ele>
        <time>2024-05-26T08:27:47Z</time>
      </trkpt>
      <trkpt lat="49.02976" lon="-0.36499">
        <ele>128.4</ele>
        <time>2024-05-26T08:27:48Z</time>
      </trkpt>
      <trkpt lat="49.02981" lon="-0.36486">
        <ele>128.2</ele>
        <time>2024-05-26T08:27:49Z</time>
      </trkpt>
      <trkpt lat="49.02986" lon="-0.36474">
        <ele>128.2</ele>
        <time>2024-05-26T08:27:50Z</time>
      </trkpt>
      <trkpt lat="49.02993" lon="-0.36459">
        <ele>128.2</ele>
        <time>2024-05-26T08:27:51Z</time>
      </trkpt>
      <trkpt lat="49.02998" lon="-0.36449">
        <ele>128</ele>
        <time>2024-05-26T08:27:52Z</time>
      </trkpt>
      <trkpt lat="49.03006" lon="-0.36435">
        <ele>128</ele>
        <time>2024-05-26T08:27:53Z</time>
      </trkpt>
      <trkpt lat="49.0301" lon="-0.36424">
        <ele>127.8</ele>
        <time>2024-05-26T08:27:54Z</time>
      </trkpt>
      <trkpt lat="49.03016" lon="-0.36411">
        <ele>127.8</ele>
        <time>2024-05-26T08:27:55Z</time>
      </trkpt>
      <trkpt lat="49.03022" lon="-0.36398">
        <ele>127.6</ele>
        <time>2024-05-26T08:27:56Z</time>
      </trkpt>
      <trkpt lat="49.03027" lon="-0.36383">
        <ele>127.4</ele>
        <time>2024-05-26T08:27:57Z</time>
      </trkpt>
      <trkpt lat="49.03032" lon="-0.36371">
        <ele>127.2</ele>
        <time>2024-05-26T08:27:58Z</time>
      </trkpt>
      <trkpt lat="49.0304" lon="-0.36357">
        <ele>126.8</ele>
        <time>2024-05-26T08:27:59Z</time>
      </trkpt>
      <trkpt lat="49.03047" lon="-0.36346">
        <ele>126.6</ele>
        <time>2024-05-26T08:28:00Z</time>
      </trkpt>
      <trkpt lat="49.03053" lon="-0.36336">
        <ele>126.2</ele>
        <time>2024-05-26T08:28:01Z</time>
      </trkpt>
      <trkpt lat="49.0306" lon="-0.36323">
        <ele>125.8</ele>
        <time>2024-05-26T08:28:02Z</time>
      </trkpt>
      <trkpt lat="49.03065" lon="-0.36314">
        <ele>125.6</ele>
        <time>2024-05-26T08:28:03Z</time>
      </trkpt>
      <trkpt lat="49.03072" lon="-0.36302">
        <ele>125</ele>
        <time>2024-05-26T08:28:04Z</time>
      </trkpt>
      <trkpt lat="49.0308" lon="-0.36288">
        <ele>124.4</ele>
        <time>2024-05-26T08:28:05Z</time>
      </trkpt>
      <trkpt lat="49.03086" lon="-0.36275">
        <ele>124</ele>
        <time>2024-05-26T08:28:06Z</time>
      </trkpt>
      <trkpt lat="49.0309" lon="-0.36265">
        <ele>123.6</ele>
        <time>2024-05-26T08:28:07Z</time>
      </trkpt>
      <trkpt lat="49.03096" lon="-0.36249">
        <ele>123.6</ele>
        <time>2024-05-26T08:28:08Z</time>
      </trkpt>
      <trkpt lat="49.03101" lon="-0.36236">
        <ele>123.2</ele>
        <time>2024-05-26T08:28:09Z</time>
      </trkpt>
      <trkpt lat="49.03105" lon="-0.36225">
        <ele>123.2</ele>
        <time>2024-05-26T08:28:10Z</time>
      </trkpt>
      <trkpt lat="49.0311" lon="-0.36211">
        <ele>123</ele>
        <time>2024-05-26T08:28:11Z</time>
      </trkpt>
      <trkpt lat="49.03117" lon="-0.36195">
        <ele>123</ele>
        <time>2024-05-26T08:28:12Z</time>
      </trkpt>
      <trkpt lat="49.0312" lon="-0.36184">
        <ele>122.6</ele>
        <time>2024-05-26T08:28:13Z</time>
      </trkpt>
      <trkpt lat="49.03125" lon="-0.3617">
        <ele>122.4</ele>
        <time>2024-05-26T08:28:14Z</time>
      </trkpt>
      <trkpt lat="49.03131" lon="-0.36154">
        <ele>122</ele>
        <time>2024-05-26T08:28:15Z</time>
      </trkpt>
      <trkpt lat="49.03134" lon="-0.36144">
        <ele>121.8</ele>
        <time>2024-05-26T08:28:16Z</time>
      </trkpt>
      <trkpt lat="49.03137" lon="-0.36131">
        <ele>121.4</ele>
        <time>2024-05-26T08:28:17Z</time>
      </trkpt>
      <trkpt lat="49.03141" lon="-0.36118">
        <ele>121.2</ele>
        <time>2024-05-26T08:28:18Z</time>
      </trkpt>
      <trkpt lat="49.03146" lon="-0.36105">
        <ele>121</ele>
        <time>2024-05-26T08:28:19Z</time>
      </trkpt>
      <trkpt lat="49.03152" lon="-0.36089">
        <ele>120.8</ele>
        <time>2024-05-26T08:28:20Z</time>
      </trkpt>
      <trkpt lat="49.03156" lon="-0.36079">
        <ele>120.6</ele>
        <time>2024-05-26T08:28:21Z</time>
      </trkpt>
      <trkpt lat="49.03161" lon="-0.36067">
        <ele>120.4</ele>
        <time>2024-05-26T08:28:22Z</time>
      </trkpt>
      <trkpt lat="49.03167" lon="-0.36053">
        <ele>119.8</ele>
        <time>2024-05-26T08:28:23Z</time>
      </trkpt>
      <trkpt lat="49.03173" lon="-0.3604">
        <ele>119.6</ele>
        <time>2024-05-26T08:28:24Z</time>
      </trkpt>
      <trkpt lat="49.03179" lon="-0.36027">
        <ele>119.4</ele>
        <time>2024-05-26T08:28:25Z</time>
      </trkpt>
      <trkpt lat="49.03185" lon="-0.36011">
        <ele>119.2</ele>
        <time>2024-05-26T08:28:26Z</time>
      </trkpt>
      <trkpt lat="49.03189" lon="-0.36001">
        <ele>119.2</ele>
        <time>2024-05-26T08:28:27Z</time>
      </trkpt>
      <trkpt lat="49.03197" lon="-0.35986">
        <ele>119</ele>
        <time>2024-05-26T08:28:28Z</time>
      </trkpt>
      <trkpt lat="49.03201" lon="-0.35973">
        <ele>118.8</ele>
        <time>2024-05-26T08:28:29Z</time>
      </trkpt>
      <trkpt lat="49.03205" lon="-0.3596">
        <ele>118.4</ele>
        <time>2024-05-26T08:28:30Z</time>
      </trkpt>
      <trkpt lat="49.0321" lon="-0.35945">
        <ele>118</ele>
        <time>2024-05-26T08:28:31Z</time>
      </trkpt>
      <trkpt lat="49.03213" lon="-0.35935">
        <ele>117.8</ele>
        <time>2024-05-26T08:28:32Z</time>
      </trkpt>
      <trkpt lat="49.03217" lon="-0.35922">
        <ele>117.8</ele>
        <time>2024-05-26T08:28:33Z</time>
      </trkpt>
      <trkpt lat="49.03223" lon="-0.35907">
        <ele>117.8</ele>
        <time>2024-05-26T08:28:34Z</time>
      </trkpt>
      <trkpt lat="49.03228" lon="-0.35893">
        <ele>117.6</ele>
        <time>2024-05-26T08:28:35Z</time>
      </trkpt>
      <trkpt lat="49.03233" lon="-0.35878">
        <ele>117.2</ele>
        <time>2024-05-26T08:28:36Z</time>
      </trkpt>
      <trkpt lat="49.03241" lon="-0.35859">
        <ele>116.8</ele>
        <time>2024-05-26T08:28:37Z</time>
      </trkpt>
      <trkpt lat="49.03246" lon="-0.35847">
        <ele>116.6</ele>
        <time>2024-05-26T08:28:38Z</time>
      </trkpt>
      <trkpt lat="49.03252" lon="-0.35832">
        <ele>116.2</ele>
        <time>2024-05-26T08:28:39Z</time>
      </trkpt>
      <trkpt lat="49.03258" lon="-0.35816">
        <ele>115.8</ele>
        <time>2024-05-26T08:28:40Z</time>
      </trkpt>
      <trkpt lat="49.03264" lon="-0.35799">
        <ele>115.2</ele>
        <time>2024-05-26T08:28:41Z</time>
      </trkpt>
      <trkpt lat="49.03272" lon="-0.35782">
        <ele>114.8</ele>
        <time>2024-05-26T08:28:42Z</time>
      </trkpt>
      <trkpt lat="49.03279" lon="-0.35764">
        <ele>114.4</ele>
        <time>2024-05-26T08:28:43Z</time>
      </trkpt>
      <trkpt lat="49.03285" lon="-0.35748">
        <ele>113.8</ele>
        <time>2024-05-26T08:28:44Z</time>
      </trkpt>
      <trkpt lat="49.03292" lon="-0.35731">
        <ele>113</ele>
        <time>2024-05-26T08:28:45Z</time>
      </trkpt>
      <trkpt lat="49.033" lon="-0.35712">
        <ele>112</ele>
        <time>2024-05-26T08:28:46Z</time>
      </trkpt>
      <trkpt lat="49.03306" lon="-0.357">
        <ele>111</ele>
        <time>2024-05-26T08:28:47Z</time>
      </trkpt>
      <trkpt lat="49.03312" lon="-0.35686">
        <ele>110.4</ele>
        <time>2024-05-26T08:28:48Z</time>
      </trkpt>
      <trkpt lat="49.03319" lon="-0.35671">
        <ele>109.4</ele>
        <time>2024-05-26T08:28:49Z</time>
      </trkpt>
      <trkpt lat="49.03323" lon="-0.3566">
        <ele>108.2</ele>
        <time>2024-05-26T08:28:50Z</time>
      </trkpt>
      <trkpt lat="49.03328" lon="-0.35646">
        <ele>107.6</ele>
        <time>2024-05-26T08:28:51Z</time>
      </trkpt>
      <trkpt lat="49.03334" lon="-0.35632">
        <ele>107.2</ele>
        <time>2024-05-26T08:28:52Z</time>
      </trkpt>
      <trkpt lat="49.03339" lon="-0.35619">
        <ele>107.2</ele>
        <time>2024-05-26T08:28:53Z</time>
      </trkpt>
      <trkpt lat="49.03343" lon="-0.35607">
        <ele>107.2</ele>
        <time>2024-05-26T08:28:54Z</time>
      </trkpt>
      <trkpt lat="49.03348" lon="-0.35595">
        <ele>107</ele>
        <time>2024-05-26T08:28:55Z</time>
      </trkpt>
      <trkpt lat="49.03353" lon="-0.35583">
        <ele>107</ele>
        <time>2024-05-26T08:28:56Z</time>
      </trkpt>
      <trkpt lat="49.03357" lon="-0.35571">
        <ele>107</ele>
        <time>2024-05-26T08:28:57Z</time>
      </trkpt>
      <trkpt lat="49.03361" lon="-0.3556">
        <ele>107</ele>
        <time>2024-05-26T08:28:58Z</time>
      </trkpt>
      <trkpt lat="49.03365" lon="-0.35548">
        <ele>107</ele>
        <time>2024-05-26T08:28:59Z</time>
      </trkpt>
      <trkpt lat="49.03369" lon="-0.35537">
        <ele>107</ele>
        <time>2024-05-26T08:29:00Z</time>
      </trkpt>
      <trkpt lat="49.03373" lon="-0.35525">
        <ele>107</ele>
        <time>2024-05-26T08:29:01Z</time>
      </trkpt>
      <trkpt lat="49.03377" lon="-0.35513">
        <ele>107</ele>
        <time>2024-05-26T08:29:02Z</time>
      </trkpt>
      <trkpt lat="49.03382" lon="-0.35502">
        <ele>107</ele>
        <time>2024-05-26T08:29:03Z</time>
      </trkpt>
      <trkpt lat="49.03386" lon="-0.35491">
        <ele>107</ele>
        <time>2024-05-26T08:29:04Z</time>
      </trkpt>
      <trkpt lat="49.0339" lon="-0.35479">
        <ele>107</ele>
        <time>2024-05-26T08:29:05Z</time>
      </trkpt>
      <trkpt lat="49.03395" lon="-0.35467">
        <ele>107.2</ele>
        <time>2024-05-26T08:29:06Z</time>
      </trkpt>
      <trkpt lat="49.034" lon="-0.35456">
        <ele>107.2</ele>
        <time>2024-05-26T08:29:07Z</time>
      </trkpt>
      <trkpt lat="49.03404" lon="-0.35444">
        <ele>107.2</ele>
        <time>2024-05-26T08:29:08Z</time>
      </trkpt>
      <trkpt lat="49.03409" lon="-0.35432">
        <ele>107.4</ele>
        <time>2024-05-26T08:29:09Z</time>
      </trkpt>
      <trkpt lat="49.03413" lon="-0.35419">
        <ele>107.4</ele>
        <time>2024-05-26T08:29:10Z</time>
      </trkpt>
      <trkpt lat="49.03418" lon="-0.35407">
        <ele>107.4</ele>
        <time>2024-05-26T08:29:11Z</time>
      </trkpt>
      <trkpt lat="49.03423" lon="-0.35394">
        <ele>107.4</ele>
        <time>2024-05-26T08:29:12Z</time>
      </trkpt>
      <trkpt lat="49.03428" lon="-0.35381">
        <ele>107.6</ele>
        <time>2024-05-26T08:29:13Z</time>
      </trkpt>
      <trkpt lat="49.03432" lon="-0.35368">
        <ele>107.6</ele>
        <time>2024-05-26T08:29:14Z</time>
      </trkpt>
      <trkpt lat="49.03437" lon="-0.35355">
        <ele>107.6</ele>
        <time>2024-05-26T08:29:15Z</time>
      </trkpt>
      <trkpt lat="49.03442" lon="-0.35342">
        <ele>107.6</ele>
        <time>2024-05-26T08:29:16Z</time>
      </trkpt>
      <trkpt lat="49.03446" lon="-0.35328">
        <ele>107.8</ele>
        <time>2024-05-26T08:29:17Z</time>
      </trkpt>
      <trkpt lat="49.03451" lon="-0.35312">
        <ele>107.8</ele>
        <time>2024-05-26T08:29:18Z</time>
      </trkpt>
      <trkpt lat="49.03455" lon="-0.35301">
        <ele>107.8</ele>
        <time>2024-05-26T08:29:19Z</time>
      </trkpt>
      <trkpt lat="49.0346" lon="-0.35288">
        <ele>107.8</ele>
        <time>2024-05-26T08:29:20Z</time>
      </trkpt>
      <trkpt lat="49.03464" lon="-0.35274">
        <ele>107.8</ele>
        <time>2024-05-26T08:29:21Z</time>
      </trkpt>
      <trkpt lat="49.03468" lon="-0.3526">
        <ele>107.8</ele>
        <time>2024-05-26T08:29:22Z</time>
      </trkpt>
      <trkpt lat="49.03473" lon="-0.35245">
        <ele>107.8</ele>
        <time>2024-05-26T08:29:23Z</time>
      </trkpt>
      <trkpt lat="49.03477" lon="-0.35231">
        <ele>107.8</ele>
        <time>2024-05-26T08:29:24Z</time>
      </trkpt>
      <trkpt lat="49.03482" lon="-0.35216">
        <ele>107.8</ele>
        <time>2024-05-26T08:29:25Z</time>
      </trkpt>
      <trkpt lat="49.03488" lon="-0.35202">
        <ele>107.8</ele>
        <time>2024-05-26T08:29:26Z</time>
      </trkpt>
      <trkpt lat="49.03493" lon="-0.35185">
        <ele>107.6</ele>
        <time>2024-05-26T08:29:27Z</time>
      </trkpt>
      <trkpt lat="49.03498" lon="-0.35174">
        <ele>107.6</ele>
        <time>2024-05-26T08:29:28Z</time>
      </trkpt>
      <trkpt lat="49.03502" lon="-0.35162">
        <ele>107.6</ele>
        <time>2024-05-26T08:29:29Z</time>
      </trkpt>
      <trkpt lat="49.03508" lon="-0.35147">
        <ele>107.2</ele>
        <time>2024-05-26T08:29:30Z</time>
      </trkpt>
      <trkpt lat="49.03513" lon="-0.35131">
        <ele>107</ele>
        <time>2024-05-26T08:29:31Z</time>
      </trkpt>
      <trkpt lat="49.03519" lon="-0.35115">
        <ele>107</ele>
        <time>2024-05-26T08:29:32Z</time>
      </trkpt>
      <trkpt lat="49.03526" lon="-0.35101">
        <ele>106.8</ele>
        <time>2024-05-26T08:29:33Z</time>
      </trkpt>
      <trkpt lat="49.03532" lon="-0.35087">
        <ele>106.6</ele>
        <time>2024-05-26T08:29:34Z</time>
      </trkpt>
      <trkpt lat="49.03537" lon="-0.35072">
        <ele>106.6</ele>
        <time>2024-05-26T08:29:35Z</time>
      </trkpt>
      <trkpt lat="49.03542" lon="-0.35057">
        <ele>106.4</ele>
        <time>2024-05-26T08:29:36Z</time>
      </trkpt>
      <trkpt lat="49.03547" lon="-0.35042">
        <ele>106.2</ele>
        <time>2024-05-26T08:29:37Z</time>
      </trkpt>
      <trkpt lat="49.03552" lon="-0.35026">
        <ele>106.2</ele>
        <time>2024-05-26T08:29:38Z</time>
      </trkpt>
      <trkpt lat="49.03558" lon="-0.35011">
        <ele>106</ele>
        <time>2024-05-26T08:29:39Z</time>
      </trkpt>
      <trkpt lat="49.03565" lon="-0.34996">
        <ele>105.6</ele>
        <time>2024-05-26T08:29:40Z</time>
      </trkpt>
      <trkpt lat="49.03571" lon="-0.34981">
        <ele>105.2</ele>
        <time>2024-05-26T08:29:41Z</time>
      </trkpt>
      <trkpt lat="49.03577" lon="-0.34963">
        <ele>104.6</ele>
        <time>2024-05-26T08:29:42Z</time>
      </trkpt>
      <trkpt lat="49.03581" lon="-0.34947">
        <ele>104.2</ele>
        <time>2024-05-26T08:29:43Z</time>
      </trkpt>
      <trkpt lat="49.03586" lon="-0.34929">
        <ele>104</ele>
        <time>2024-05-26T08:29:44Z</time>
      </trkpt>
      <trkpt lat="49.03591" lon="-0.34914">
        <ele>103.6</ele>
        <time>2024-05-26T08:29:45Z</time>
      </trkpt>
      <trkpt lat="49.03594" lon="-0.34905">
        <ele>103.6</ele>
        <time>2024-05-26T08:29:46Z</time>
      </trkpt>
      <trkpt lat="49.036" lon="-0.34891">
        <ele>103.4</ele>
        <time>2024-05-26T08:29:47Z</time>
      </trkpt>
      <trkpt lat="49.03607" lon="-0.34875">
        <ele>103.2</ele>
        <time>2024-05-26T08:29:48Z</time>
      </trkpt>
      <trkpt lat="49.03613" lon="-0.34861">
        <ele>103</ele>
        <time>2024-05-26T08:29:49Z</time>
      </trkpt>
      <trkpt lat="49.0362" lon="-0.34847">
        <ele>103</ele>
        <time>2024-05-26T08:29:50Z</time>
      </trkpt>
      <trkpt lat="49.03626" lon="-0.34833">
        <ele>102.8</ele>
        <time>2024-05-26T08:29:51Z</time>
      </trkpt>
      <trkpt lat="49.03633" lon="-0.34814">
        <ele>102.8</ele>
        <time>2024-05-26T08:29:52Z</time>
      </trkpt>
      <trkpt lat="49.03637" lon="-0.348">
        <ele>102.6</ele>
        <time>2024-05-26T08:29:53Z</time>
      </trkpt>
      <trkpt lat="49.03641" lon="-0.34785">
        <ele>102.6</ele>
        <time>2024-05-26T08:29:54Z</time>
      </trkpt>
      <trkpt lat="49.03645" lon="-0.3477">
        <ele>102.4</ele>
        <time>2024-05-26T08:29:55Z</time>
      </trkpt>
      <trkpt lat="49.03649" lon="-0.34759">
        <ele>102.4</ele>
        <time>2024-05-26T08:29:56Z</time>
      </trkpt>
      <trkpt lat="49.03655" lon="-0.34741">
        <ele>102.2</ele>
        <time>2024-05-26T08:29:57Z</time>
      </trkpt>
      <trkpt lat="49.03661" lon="-0.34727">
        <ele>102.2</ele>
        <time>2024-05-26T08:29:58Z</time>
      </trkpt>
      <trkpt lat="49.03666" lon="-0.34713">
        <ele>102</ele>
        <time>2024-05-26T08:29:59Z</time>
      </trkpt>
      <trkpt lat="49.0367" lon="-0.34699">
        <ele>101.8</ele>
        <time>2024-05-26T08:30:00Z</time>
      </trkpt>
      <trkpt lat="49.03674" lon="-0.34685">
        <ele>101.6</ele>
        <time>2024-05-26T08:30:01Z</time>
      </trkpt>
      <trkpt lat="49.03677" lon="-0.34676">
        <ele>101.4</ele>
        <time>2024-05-26T08:30:02Z</time>
      </trkpt>
      <trkpt lat="49.03681" lon="-0.34662">
        <ele>101.2</ele>
        <time>2024-05-26T08:30:03Z</time>
      </trkpt>
      <trkpt lat="49.03686" lon="-0.34647">
        <ele>101</ele>
        <time>2024-05-26T08:30:04Z</time>
      </trkpt>
      <trkpt lat="49.0369" lon="-0.34633">
        <ele>100.8</ele>
        <time>2024-05-26T08:30:05Z</time>
      </trkpt>
      <trkpt lat="49.03696" lon="-0.34616">
        <ele>100.6</ele>
        <time>2024-05-26T08:30:06Z</time>
      </trkpt>
      <trkpt lat="49.037" lon="-0.34604">
        <ele>100.2</ele>
        <time>2024-05-26T08:30:07Z</time>
      </trkpt>
      <trkpt lat="49.03705" lon="-0.34589">
        <ele>99.8</ele>
        <time>2024-05-26T08:30:08Z</time>
      </trkpt>
      <trkpt lat="49.0371" lon="-0.34574">
        <ele>99.4</ele>
        <time>2024-05-26T08:30:09Z</time>
      </trkpt>
      <trkpt lat="49.03716" lon="-0.34557">
        <ele>99</ele>
        <time>2024-05-26T08:30:10Z</time>
      </trkpt>
      <trkpt lat="49.03721" lon="-0.34545">
        <ele>98.6</ele>
        <time>2024-05-26T08:30:11Z</time>
      </trkpt>
      <trkpt lat="49.03728" lon="-0.3453">
        <ele>98.2</ele>
        <time>2024-05-26T08:30:12Z</time>
      </trkpt>
      <trkpt lat="49.03737" lon="-0.34509">
        <ele>97.8</ele>
        <time>2024-05-26T08:30:13Z</time>
      </trkpt>
      <trkpt lat="49.03744" lon="-0.34492">
        <ele>97.2</ele>
        <time>2024-05-26T08:30:14Z</time>
      </trkpt>
      <trkpt lat="49.0375" lon="-0.34478">
        <ele>96.6</ele>
        <time>2024-05-26T08:30:15Z</time>
      </trkpt>
      <trkpt lat="49.03757" lon="-0.34457">
        <ele>96.6</ele>
        <time>2024-05-26T08:30:16Z</time>
      </trkpt>
      <trkpt lat="49.03765" lon="-0.34441">
        <ele>95.8</ele>
        <time>2024-05-26T08:30:17Z</time>
      </trkpt>
      <trkpt lat="49.03772" lon="-0.34424">
        <ele>95</ele>
        <time>2024-05-26T08:30:18Z</time>
      </trkpt>
      <trkpt lat="49.03777" lon="-0.34411">
        <ele>94.2</ele>
        <time>2024-05-26T08:30:19Z</time>
      </trkpt>
      <trkpt lat="49.03783" lon="-0.34399">
        <ele>93.4</ele>
        <time>2024-05-26T08:30:20Z</time>
      </trkpt>
      <trkpt lat="49.03788" lon="-0.34384">
        <ele>92.6</ele>
        <time>2024-05-26T08:30:21Z</time>
      </trkpt>
      <trkpt lat="49.03795" lon="-0.34369">
        <ele>91.8</ele>
        <time>2024-05-26T08:30:22Z</time>
      </trkpt>
      <trkpt lat="49.03801" lon="-0.34356">
        <ele>90.8</ele>
        <time>2024-05-26T08:30:23Z</time>
      </trkpt>
      <trkpt lat="49.03805" lon="-0.34346">
        <ele>90.4</ele>
        <time>2024-05-26T08:30:24Z</time>
      </trkpt>
      <trkpt lat="49.03809" lon="-0.34335">
        <ele>90</ele>
        <time>2024-05-26T08:30:25Z</time>
      </trkpt>
      <trkpt lat="49.03812" lon="-0.34323">
        <ele>90</ele>
        <time>2024-05-26T08:30:26Z</time>
      </trkpt>
      <trkpt lat="49.03816" lon="-0.34312">
        <ele>89.8</ele>
        <time>2024-05-26T08:30:27Z</time>
      </trkpt>
      <trkpt lat="49.03821" lon="-0.34301">
        <ele>89.8</ele>
        <time>2024-05-26T08:30:28Z</time>
      </trkpt>
      <trkpt lat="49.03826" lon="-0.3429">
        <ele>89.8</ele>
        <time>2024-05-26T08:30:29Z</time>
      </trkpt>
      <trkpt lat="49.03831" lon="-0.34281">
        <ele>89.8</ele>
        <time>2024-05-26T08:30:30Z</time>
      </trkpt>
      <trkpt lat="49.03838" lon="-0.34268">
        <ele>89.8</ele>
        <time>2024-05-26T08:30:31Z</time>
      </trkpt>
      <trkpt lat="49.03842" lon="-0.34254">
        <ele>89.8</ele>
        <time>2024-05-26T08:30:32Z</time>
      </trkpt>
      <trkpt lat="49.03844" lon="-0.34246">
        <ele>89.8</ele>
        <time>2024-05-26T08:30:33Z</time>
      </trkpt>
      <trkpt lat="49.03848" lon="-0.34236">
        <ele>90.4</ele>
        <time>2024-05-26T08:30:34Z</time>
      </trkpt>
      <trkpt lat="49.03852" lon="-0.34225">
        <ele>91</ele>
        <time>2024-05-26T08:30:35Z</time>
      </trkpt>
      <trkpt lat="49.03857" lon="-0.34215">
        <ele>91.6</ele>
        <time>2024-05-26T08:30:36Z</time>
      </trkpt>
      <trkpt lat="49.03862" lon="-0.34203">
        <ele>91.6</ele>
        <time>2024-05-26T08:30:37Z</time>
      </trkpt>
      <trkpt lat="49.03867" lon="-0.34191">
        <ele>92</ele>
        <time>2024-05-26T08:30:38Z</time>
      </trkpt>
      <trkpt lat="49.03871" lon="-0.3418">
        <ele>92.6</ele>
        <time>2024-05-26T08:30:39Z</time>
      </trkpt>
      <trkpt lat="49.03875" lon="-0.34165">
        <ele>93.2</ele>
        <time>2024-05-26T08:30:40Z</time>
      </trkpt>
      <trkpt lat="49.03879" lon="-0.34157">
        <ele>93.8</ele>
        <time>2024-05-26T08:30:41Z</time>
      </trkpt>
      <trkpt lat="49.03883" lon="-0.34147">
        <ele>94.4</ele>
        <time>2024-05-26T08:30:42Z</time>
      </trkpt>
      <trkpt lat="49.03887" lon="-0.34138">
        <ele>95</ele>
        <time>2024-05-26T08:30:43Z</time>
      </trkpt>
      <trkpt lat="49.0389" lon="-0.34127">
        <ele>95.6</ele>
        <time>2024-05-26T08:30:44Z</time>
      </trkpt>
      <trkpt lat="49.03895" lon="-0.34115">
        <ele>95.6</ele>
        <time>2024-05-26T08:30:45Z</time>
      </trkpt>
      <trkpt lat="49.03899" lon="-0.34105">
        <ele>95.8</ele>
        <time>2024-05-26T08:30:46Z</time>
      </trkpt>
      <trkpt lat="49.03904" lon="-0.34095">
        <ele>96</ele>
        <time>2024-05-26T08:30:47Z</time>
      </trkpt>
      <trkpt lat="49.03908" lon="-0.34084">
        <ele>96</ele>
        <time>2024-05-26T08:30:48Z</time>
      </trkpt>
      <trkpt lat="49.03912" lon="-0.34075">
        <ele>96</ele>
        <time>2024-05-26T08:30:49Z</time>
      </trkpt>
      <trkpt lat="49.03916" lon="-0.34065">
        <ele>96.2</ele>
        <time>2024-05-26T08:30:50Z</time>
      </trkpt>
      <trkpt lat="49.0392" lon="-0.34055">
        <ele>96.2</ele>
        <time>2024-05-26T08:30:51Z</time>
      </trkpt>
      <trkpt lat="49.03924" lon="-0.34044">
        <ele>96.4</ele>
        <time>2024-05-26T08:30:52Z</time>
      </trkpt>
      <trkpt lat="49.03927" lon="-0.34033">
        <ele>96.4</ele>
        <time>2024-05-26T08:30:53Z</time>
      </trkpt>
      <trkpt lat="49.03931" lon="-0.34023">
        <ele>96.4</ele>
        <time>2024-05-26T08:30:54Z</time>
      </trkpt>
      <trkpt lat="49.03934" lon="-0.34013">
        <ele>96.2</ele>
        <time>2024-05-26T08:30:55Z</time>
      </trkpt>
      <trkpt lat="49.03937" lon="-0.34003">
        <ele>96.2</ele>
        <time>2024-05-26T08:30:56Z</time>
      </trkpt>
      <trkpt lat="49.03941" lon="-0.33993">
        <ele>96.2</ele>
        <time>2024-05-26T08:30:57Z</time>
      </trkpt>
      <trkpt lat="49.03945" lon="-0.33983">
        <ele>96.2</ele>
        <time>2024-05-26T08:30:58Z</time>
      </trkpt>
      <trkpt lat="49.03951" lon="-0.33972">
        <ele>96.2</ele>
        <time>2024-05-26T08:30:59Z</time>
      </trkpt>
      <trkpt lat="49.03954" lon="-0.33962">
        <ele>96</ele>
        <time>2024-05-26T08:31:00Z</time>
      </trkpt>
      <trkpt lat="49.03957" lon="-0.33952">
        <ele>96</ele>
        <time>2024-05-26T08:31:01Z</time>
      </trkpt>
      <trkpt lat="49.0396" lon="-0.3394">
        <ele>96</ele>
        <time>2024-05-26T08:31:02Z</time>
      </trkpt>
      <trkpt lat="49.03964" lon="-0.33929">
        <ele>96</ele>
        <time>2024-05-26T08:31:03Z</time>
      </trkpt>
      <trkpt lat="49.03967" lon="-0.33921">
        <ele>95.8</ele>
        <time>2024-05-26T08:31:04Z</time>
      </trkpt>
      <trkpt lat="49.03971" lon="-0.33909">
        <ele>95.8</ele>
        <time>2024-05-26T08:31:05Z</time>
      </trkpt>
      <trkpt lat="49.03974" lon="-0.33901">
        <ele>95.8</ele>
        <time>2024-05-26T08:31:06Z</time>
      </trkpt>
      <trkpt lat="49.03977" lon="-0.33892">
        <ele>95.6</ele>
        <time>2024-05-26T08:31:07Z</time>
      </trkpt>
      <trkpt lat="49.0398" lon="-0.33884">
        <ele>95.6</ele>
        <time>2024-05-26T08:31:08Z</time>
      </trkpt>
      <trkpt lat="49.03983" lon="-0.33874">
        <ele>95.4</ele>
        <time>2024-05-26T08:31:09Z</time>
      </trkpt>
      <trkpt lat="49.03987" lon="-0.33864">
        <ele>95.4</ele>
        <time>2024-05-26T08:31:10Z</time>
      </trkpt>
      <trkpt lat="49.03991" lon="-0.3385">
        <ele>95.4</ele>
        <time>2024-05-26T08:31:11Z</time>
      </trkpt>
      <trkpt lat="49.03995" lon="-0.33841">
        <ele>95.2</ele>
        <time>2024-05-26T08:31:12Z</time>
      </trkpt>
      <trkpt lat="49.03999" lon="-0.33829">
        <ele>95.2</ele>
        <time>2024-05-26T08:31:13Z</time>
      </trkpt>
      <trkpt lat="49.04003" lon="-0.33818">
        <ele>95.2</ele>
        <time>2024-05-26T08:31:14Z</time>
      </trkpt>
      <trkpt lat="49.04008" lon="-0.33807">
        <ele>95</ele>
        <time>2024-05-26T08:31:15Z</time>
      </trkpt>
      <trkpt lat="49.04012" lon="-0.33795">
        <ele>95</ele>
        <time>2024-05-26T08:31:16Z</time>
      </trkpt>
      <trkpt lat="49.04016" lon="-0.33783">
        <ele>95</ele>
        <time>2024-05-26T08:31:17Z</time>
      </trkpt>
      <trkpt lat="49.04021" lon="-0.33772">
        <ele>94.8</ele>
        <time>2024-05-26T08:31:18Z</time>
      </trkpt>
      <trkpt lat="49.04027" lon="-0.33759">
        <ele>94.8</ele>
        <time>2024-05-26T08:31:19Z</time>
      </trkpt>
      <trkpt lat="49.0403" lon="-0.33747">
        <ele>94.4</ele>
        <time>2024-05-26T08:31:20Z</time>
      </trkpt>
      <trkpt lat="49.04035" lon="-0.33736">
        <ele>94.2</ele>
        <time>2024-05-26T08:31:21Z</time>
      </trkpt>
      <trkpt lat="49.04039" lon="-0.33725">
        <ele>94</ele>
        <time>2024-05-26T08:31:22Z</time>
      </trkpt>
      <trkpt lat="49.04043" lon="-0.33713">
        <ele>93.8</ele>
        <time>2024-05-26T08:31:23Z</time>
      </trkpt>
      <trkpt lat="49.04047" lon="-0.33702">
        <ele>93.4</ele>
        <time>2024-05-26T08:31:24Z</time>
      </trkpt>
      <trkpt lat="49.04052" lon="-0.33691">
        <ele>93.4</ele>
        <time>2024-05-26T08:31:25Z</time>
      </trkpt>
      <trkpt lat="49.04057" lon="-0.33681">
        <ele>93.2</ele>
        <time>2024-05-26T08:31:26Z</time>
      </trkpt>
      <trkpt lat="49.04063" lon="-0.33672">
        <ele>92.6</ele>
        <time>2024-05-26T08:31:27Z</time>
      </trkpt>
      <trkpt lat="49.04069" lon="-0.33663">
        <ele>92.4</ele>
        <time>2024-05-26T08:31:28Z</time>
      </trkpt>
      <trkpt lat="49.04075" lon="-0.33656">
        <ele>92</ele>
        <time>2024-05-26T08:31:29Z</time>
      </trkpt>
      <trkpt lat="49.04082" lon="-0.33649">
        <ele>92</ele>
        <time>2024-05-26T08:31:30Z</time>
      </trkpt>
      <trkpt lat="49.04089" lon="-0.33642">
        <ele>92</ele>
        <time>2024-05-26T08:31:31Z</time>
      </trkpt>
      <trkpt lat="49.04096" lon="-0.33636">
        <ele>91.8</ele>
        <time>2024-05-26T08:31:32Z</time>
      </trkpt>
      <trkpt lat="49.04102" lon="-0.33631">
        <ele>91.4</ele>
        <time>2024-05-26T08:31:33Z</time>
      </trkpt>
      <trkpt lat="49.04108" lon="-0.33626">
        <ele>91.2</ele>
        <time>2024-05-26T08:31:34Z</time>
      </trkpt>
      <trkpt lat="49.04115" lon="-0.3362">
        <ele>91</ele>
        <time>2024-05-26T08:31:35Z</time>
      </trkpt>
      <trkpt lat="49.04123" lon="-0.33614">
        <ele>90.8</ele>
        <time>2024-05-26T08:31:36Z</time>
      </trkpt>
      <trkpt lat="49.0413" lon="-0.33608">
        <ele>90.4</ele>
        <time>2024-05-26T08:31:37Z</time>
      </trkpt>
      <trkpt lat="49.04136" lon="-0.33601">
        <ele>90.4</ele>
        <time>2024-05-26T08:31:38Z</time>
      </trkpt>
      <trkpt lat="49.04143" lon="-0.33594">
        <ele>90.4</ele>
        <time>2024-05-26T08:31:39Z</time>
      </trkpt>
      <trkpt lat="49.0415" lon="-0.33588">
        <ele>90</ele>
        <time>2024-05-26T08:31:40Z</time>
      </trkpt>
      <trkpt lat="49.04156" lon="-0.33581">
        <ele>89.8</ele>
        <time>2024-05-26T08:31:41Z</time>
      </trkpt>
      <trkpt lat="49.04163" lon="-0.33575">
        <ele>89.6</ele>
        <time>2024-05-26T08:31:42Z</time>
      </trkpt>
      <trkpt lat="49.0417" lon="-0.33569">
        <ele>89.4</ele>
        <time>2024-05-26T08:31:43Z</time>
      </trkpt>
      <trkpt lat="49.04177" lon="-0.33563">
        <ele>89.2</ele>
        <time>2024-05-26T08:31:44Z</time>
      </trkpt>
      <trkpt lat="49.04184" lon="-0.33557">
        <ele>89.2</ele>
        <time>2024-05-26T08:31:45Z</time>
      </trkpt>
      <trkpt lat="49.04191" lon="-0.33551">
        <ele>89.2</ele>
        <time>2024-05-26T08:31:46Z</time>
      </trkpt>
      <trkpt lat="49.04197" lon="-0.33544">
        <ele>89.2</ele>
        <time>2024-05-26T08:31:47Z</time>
      </trkpt>
      <trkpt lat="49.04204" lon="-0.33533">
        <ele>89</ele>
        <time>2024-05-26T08:31:48Z</time>
      </trkpt>
      <trkpt lat="49.0421" lon="-0.33524">
        <ele>89</ele>
        <time>2024-05-26T08:31:49Z</time>
      </trkpt>
      <trkpt lat="49.04213" lon="-0.33515">
        <ele>89</ele>
        <time>2024-05-26T08:31:50Z</time>
      </trkpt>
      <trkpt lat="49.04216" lon="-0.33504">
        <ele>88.8</ele>
        <time>2024-05-26T08:31:51Z</time>
      </trkpt>
      <trkpt lat="49.04218" lon="-0.33487">
        <ele>88.6</ele>
        <time>2024-05-26T08:31:52Z</time>
      </trkpt>
      <trkpt lat="49.04218" lon="-0.33475">
        <ele>88.2</ele>
        <time>2024-05-26T08:31:53Z</time>
      </trkpt>
      <trkpt lat="49.04217" lon="-0.33467">
        <ele>87.8</ele>
        <time>2024-05-26T08:31:54Z</time>
      </trkpt>
      <trkpt lat="49.04216" lon="-0.33453">
        <ele>87.8</ele>
        <time>2024-05-26T08:31:55Z</time>
      </trkpt>
      <trkpt lat="49.04215" lon="-0.33437">
        <ele>87.6</ele>
        <time>2024-05-26T08:31:56Z</time>
      </trkpt>
      <trkpt lat="49.04215" lon="-0.33424">
        <ele>87.4</ele>
        <time>2024-05-26T08:31:57Z</time>
      </trkpt>
      <trkpt lat="49.04216" lon="-0.3341">
        <ele>87.4</ele>
        <time>2024-05-26T08:31:58Z</time>
      </trkpt>
      <trkpt lat="49.04218" lon="-0.33396">
        <ele>86.8</ele>
        <time>2024-05-26T08:31:59Z</time>
      </trkpt>
      <trkpt lat="49.0422" lon="-0.33383">
        <ele>86.6</ele>
        <time>2024-05-26T08:32:00Z</time>
      </trkpt>
      <trkpt lat="49.04223" lon="-0.3337">
        <ele>86.4</ele>
        <time>2024-05-26T08:32:01Z</time>
      </trkpt>
      <trkpt lat="49.04226" lon="-0.33356">
        <ele>86</ele>
        <time>2024-05-26T08:32:02Z</time>
      </trkpt>
      <trkpt lat="49.04227" lon="-0.33346">
        <ele>85.8</ele>
        <time>2024-05-26T08:32:03Z</time>
      </trkpt>
      <trkpt lat="49.04229" lon="-0.33332">
        <ele>85.8</ele>
        <time>2024-05-26T08:32:04Z</time>
      </trkpt>
      <trkpt lat="49.04229" lon="-0.33319">
        <ele>85.8</ele>
        <time>2024-05-26T08:32:05Z</time>
      </trkpt>
      <trkpt lat="49.0423" lon="-0.33303">
        <ele>85.6</ele>
        <time>2024-05-26T08:32:06Z</time>
      </trkpt>
      <trkpt lat="49.0423" lon="-0.3329">
        <ele>85.4</ele>
        <time>2024-05-26T08:32:07Z</time>
      </trkpt>
      <trkpt lat="49.04229" lon="-0.33277">
        <ele>85.2</ele>
        <time>2024-05-26T08:32:08Z</time>
      </trkpt>
      <trkpt lat="49.04228" lon="-0.33268">
        <ele>84.8</ele>
        <time>2024-05-26T08:32:09Z</time>
      </trkpt>
      <trkpt lat="49.04227" lon="-0.33255">
        <ele>84.6</ele>
        <time>2024-05-26T08:32:10Z</time>
      </trkpt>
      <trkpt lat="49.04226" lon="-0.33242">
        <ele>84.4</ele>
        <time>2024-05-26T08:32:11Z</time>
      </trkpt>
      <trkpt lat="49.04224" lon="-0.33228">
        <ele>84.2</ele>
        <time>2024-05-26T08:32:12Z</time>
      </trkpt>
      <trkpt lat="49.04222" lon="-0.33215">
        <ele>83.8</ele>
        <time>2024-05-26T08:32:13Z</time>
      </trkpt>
      <trkpt lat="49.04221" lon="-0.33201">
        <ele>83.6</ele>
        <time>2024-05-26T08:32:14Z</time>
      </trkpt>
      <trkpt lat="49.0422" lon="-0.33187">
        <ele>83.4</ele>
        <time>2024-05-26T08:32:15Z</time>
      </trkpt>
      <trkpt lat="49.04221" lon="-0.33173">
        <ele>82.8</ele>
        <time>2024-05-26T08:32:16Z</time>
      </trkpt>
      <trkpt lat="49.04223" lon="-0.33157">
        <ele>82.2</ele>
        <time>2024-05-26T08:32:17Z</time>
      </trkpt>
      <trkpt lat="49.04227" lon="-0.33145">
        <ele>82.2</ele>
        <time>2024-05-26T08:32:18Z</time>
      </trkpt>
      <trkpt lat="49.04231" lon="-0.33135">
        <ele>81.8</ele>
        <time>2024-05-26T08:32:19Z</time>
      </trkpt>
      <trkpt lat="49.04238" lon="-0.3312">
        <ele>81.6</ele>
        <time>2024-05-26T08:32:20Z</time>
      </trkpt>
      <trkpt lat="49.04244" lon="-0.33107">
        <ele>81.4</ele>
        <time>2024-05-26T08:32:21Z</time>
      </trkpt>
      <trkpt lat="49.04248" lon="-0.33097">
        <ele>80.6</ele>
        <time>2024-05-26T08:32:22Z</time>
      </trkpt>
      <trkpt lat="49.04253" lon="-0.33084">
        <ele>80.2</ele>
        <time>2024-05-26T08:32:23Z</time>
      </trkpt>
      <trkpt lat="49.04259" lon="-0.33071">
        <ele>80</ele>
        <time>2024-05-26T08:32:24Z</time>
      </trkpt>
      <trkpt lat="49.04264" lon="-0.33058">
        <ele>79.4</ele>
        <time>2024-05-26T08:32:25Z</time>
      </trkpt>
      <trkpt lat="49.0427" lon="-0.33044">
        <ele>78.6</ele>
        <time>2024-05-26T08:32:26Z</time>
      </trkpt>
      <trkpt lat="49.04277" lon="-0.3303">
        <ele>77.4</ele>
        <time>2024-05-26T08:32:27Z</time>
      </trkpt>
      <trkpt lat="49.04284" lon="-0.33017">
        <ele>76.6</ele>
        <time>2024-05-26T08:32:28Z</time>
      </trkpt>
      <trkpt lat="49.04291" lon="-0.33004">
        <ele>75.2</ele>
        <time>2024-05-26T08:32:29Z</time>
      </trkpt>
      <trkpt lat="49.04299" lon="-0.32992">
        <ele>74</ele>
        <time>2024-05-26T08:32:30Z</time>
      </trkpt>
      <trkpt lat="49.04307" lon="-0.3298">
        <ele>72.8</ele>
        <time>2024-05-26T08:32:31Z</time>
      </trkpt>
      <trkpt lat="49.04315" lon="-0.32968">
        <ele>72.2</ele>
        <time>2024-05-26T08:32:32Z</time>
      </trkpt>
      <trkpt lat="49.04322" lon="-0.32957">
        <ele>71.2</ele>
        <time>2024-05-26T08:32:33Z</time>
      </trkpt>
      <trkpt lat="49.0433" lon="-0.32945">
        <ele>70.4</ele>
        <time>2024-05-26T08:32:34Z</time>
      </trkpt>
      <trkpt lat="49.04337" lon="-0.32935">
        <ele>69.2</ele>
        <time>2024-05-26T08:32:35Z</time>
      </trkpt>
      <trkpt lat="49.04343" lon="-0.32924">
        <ele>68</ele>
        <time>2024-05-26T08:32:36Z</time>
      </trkpt>
      <trkpt lat="49.04348" lon="-0.32912">
        <ele>66.8</ele>
        <time>2024-05-26T08:32:37Z</time>
      </trkpt>
      <trkpt lat="49.04352" lon="-0.32898">
        <ele>66.8</ele>
        <time>2024-05-26T08:32:38Z</time>
      </trkpt>
      <trkpt lat="49.04355" lon="-0.32887">
        <ele>65.6</ele>
        <time>2024-05-26T08:32:39Z</time>
      </trkpt>
      <trkpt lat="49.04357" lon="-0.32876">
        <ele>64.2</ele>
        <time>2024-05-26T08:32:40Z</time>
      </trkpt>
      <trkpt lat="49.04359" lon="-0.32869">
        <ele>62.8</ele>
        <time>2024-05-26T08:32:41Z</time>
      </trkpt>
      <trkpt lat="49.04361" lon="-0.32857">
        <ele>62</ele>
        <time>2024-05-26T08:32:42Z</time>
      </trkpt>
      <trkpt lat="49.04363" lon="-0.32847">
        <ele>60.8</ele>
        <time>2024-05-26T08:32:43Z</time>
      </trkpt>
      <trkpt lat="49.04365" lon="-0.3284">
        <ele>59.6</ele>
        <time>2024-05-26T08:32:44Z</time>
      </trkpt>
      <trkpt lat="49.04368" lon="-0.32832">
        <ele>59</ele>
        <time>2024-05-26T08:32:45Z</time>
      </trkpt>
      <trkpt lat="49.04372" lon="-0.32823">
        <ele>58.2</ele>
        <time>2024-05-26T08:32:46Z</time>
      </trkpt>
      <trkpt lat="49.04377" lon="-0.32816">
        <ele>57.4</ele>
        <time>2024-05-26T08:32:47Z</time>
      </trkpt>
      <trkpt lat="49.04384" lon="-0.3281">
        <ele>56.6</ele>
        <time>2024-05-26T08:32:48Z</time>
      </trkpt>
      <trkpt lat="49.04391" lon="-0.32805">
        <ele>56</ele>
        <time>2024-05-26T08:32:49Z</time>
      </trkpt>
      <trkpt lat="49.04397" lon="-0.32801">
        <ele>55.4</ele>
        <time>2024-05-26T08:32:50Z</time>
      </trkpt>
      <trkpt lat="49.04402" lon="-0.32799">
        <ele>54.8</ele>
        <time>2024-05-26T08:32:51Z</time>
      </trkpt>
      <trkpt lat="49.04407" lon="-0.32796">
        <ele>54.2</ele>
        <time>2024-05-26T08:32:52Z</time>
      </trkpt>
      <trkpt lat="49.0441" lon="-0.32793">
        <ele>53.8</ele>
        <time>2024-05-26T08:32:53Z</time>
      </trkpt>
      <trkpt lat="49.04414" lon="-0.32791">
        <ele>53.2</ele>
        <time>2024-05-26T08:32:54Z</time>
      </trkpt>
      <trkpt lat="49.04418" lon="-0.32789">
        <ele>52.6</ele>
        <time>2024-05-26T08:32:55Z</time>
      </trkpt>
      <trkpt lat="49.04422" lon="-0.32788">
        <ele>51.6</ele>
        <time>2024-05-26T08:32:56Z</time>
      </trkpt>
      <trkpt lat="49.04425" lon="-0.32787">
        <ele>50.6</ele>
        <time>2024-05-26T08:32:57Z</time>
      </trkpt>
      <trkpt lat="49.04427" lon="-0.32785">
        <ele>50.6</ele>
        <time>2024-05-26T08:32:58Z</time>
      </trkpt>
      <trkpt lat="49.0443" lon="-0.32782">
        <ele>49.8</ele>
        <time>2024-05-26T08:32:59Z</time>
      </trkpt>
      <trkpt lat="49.04432" lon="-0.3278">
        <ele>49.4</ele>
        <time>2024-05-26T08:33:00Z</time>
      </trkpt>
      <trkpt lat="49.04433" lon="-0.32778">
        <ele>49</ele>
        <time>2024-05-26T08:33:01Z</time>
      </trkpt>
      <trkpt lat="49.04434" lon="-0.32777">
        <ele>48.6</ele>
        <time>2024-05-26T08:33:02Z</time>
      </trkpt>
      <trkpt lat="49.04434" lon="-0.32777">
        <ele>48.4</ele>
        <time>2024-05-26T08:33:03Z</time>
      </trkpt>
      <trkpt lat="49.04439" lon="-0.3277">
        <ele>47.6</ele>
        <time>2024-05-26T08:33:15Z</time>
      </trkpt>
      <trkpt lat="49.04441" lon="-0.32769">
        <ele>47.6</ele>
        <time>2024-05-26T08:33:16Z</time>
      </trkpt>
      <trkpt lat="49.04443" lon="-0.32769">
        <ele>47.6</ele>
        <time>2024-05-26T08:33:17Z</time>
      </trkpt>
      <trkpt lat="49.04445" lon="-0.3277">
        <ele>47.6</ele>
        <time>2024-05-26T08:33:18Z</time>
      </trkpt>
      <trkpt lat="49.04447" lon="-0.3277">
        <ele>47.6</ele>
        <time>2024-05-26T08:33:19Z</time>
      </trkpt>
      <trkpt lat="49.0445" lon="-0.3277">
        <ele>47.6</ele>
        <time>2024-05-26T08:33:20Z</time>
      </trkpt>
      <trkpt lat="49.04454" lon="-0.3277">
        <ele>47.6</ele>
        <time>2024-05-26T08:33:21Z</time>
      </trkpt>
      <trkpt lat="49.04457" lon="-0.32771">
        <ele>47.6</ele>
        <time>2024-05-26T08:33:22Z</time>
      </trkpt>
      <trkpt lat="49.04461" lon="-0.32771">
        <ele>47.6</ele>
        <time>2024-05-26T08:33:23Z</time>
      </trkpt>
      <trkpt lat="49.04465" lon="-0.32771">
        <ele>47.6</ele>
        <time>2024-05-26T08:33:24Z</time>
      </trkpt>
      <trkpt lat="49.04469" lon="-0.3277">
        <ele>47.6</ele>
        <time>2024-05-26T08:33:25Z</time>
      </trkpt>
      <trkpt lat="49.04473" lon="-0.32769">
        <ele>47.6</ele>
        <time>2024-05-26T08:33:26Z</time>
      </trkpt>
      <trkpt lat="49.04476" lon="-0.32768">
        <ele>47.4</ele>
        <time>2024-05-26T08:33:27Z</time>
      </trkpt>
      <trkpt lat="49.0448" lon="-0.32766">
        <ele>47.4</ele>
        <time>2024-05-26T08:33:28Z</time>
      </trkpt>
      <trkpt lat="49.04484" lon="-0.32765">
        <ele>47.4</ele>
        <time>2024-05-26T08:33:29Z</time>
      </trkpt>
      <trkpt lat="49.04489" lon="-0.32763">
        <ele>47.4</ele>
        <time>2024-05-26T08:33:30Z</time>
      </trkpt>
      <trkpt lat="49.04493" lon="-0.32762">
        <ele>47.4</ele>
        <time>2024-05-26T08:33:31Z</time>
      </trkpt>
      <trkpt lat="49.04497" lon="-0.32759">
        <ele>47.4</ele>
        <time>2024-05-26T08:33:32Z</time>
      </trkpt>
      <trkpt lat="49.04501" lon="-0.32757">
        <ele>47.4</ele>
        <time>2024-05-26T08:33:33Z</time>
      </trkpt>
      <trkpt lat="49.04505" lon="-0.32754">
        <ele>47.4</ele>
        <time>2024-05-26T08:33:34Z</time>
      </trkpt>
      <trkpt lat="49.0451" lon="-0.3275">
        <ele>47.4</ele>
        <time>2024-05-26T08:33:35Z</time>
      </trkpt>
      <trkpt lat="49.04514" lon="-0.32746">
        <ele>47.4</ele>
        <time>2024-05-26T08:33:36Z</time>
      </trkpt>
      <trkpt lat="49.04519" lon="-0.32742">
        <ele>47.2</ele>
        <time>2024-05-26T08:33:37Z</time>
      </trkpt>
      <trkpt lat="49.04524" lon="-0.32739">
        <ele>47.2</ele>
        <time>2024-05-26T08:33:38Z</time>
      </trkpt>
      <trkpt lat="49.04527" lon="-0.32736">
        <ele>47.2</ele>
        <time>2024-05-26T08:33:39Z</time>
      </trkpt>
      <trkpt lat="49.04533" lon="-0.32733">
        <ele>47.2</ele>
        <time>2024-05-26T08:33:40Z</time>
      </trkpt>
      <trkpt lat="49.04537" lon="-0.3273">
        <ele>47.2</ele>
        <time>2024-05-26T08:33:41Z</time>
      </trkpt>
      <trkpt lat="49.04542" lon="-0.32727">
        <ele>47.2</ele>
        <time>2024-05-26T08:33:42Z</time>
      </trkpt>
      <trkpt lat="49.04548" lon="-0.32724">
        <ele>47</ele>
        <time>2024-05-26T08:33:43Z</time>
      </trkpt>
      <trkpt lat="49.04554" lon="-0.32721">
        <ele>47</ele>
        <time>2024-05-26T08:33:44Z</time>
      </trkpt>
      <trkpt lat="49.04559" lon="-0.32718">
        <ele>46.8</ele>
        <time>2024-05-26T08:33:45Z</time>
      </trkpt>
      <trkpt lat="49.04564" lon="-0.32714">
        <ele>46.8</ele>
        <time>2024-05-26T08:33:46Z</time>
      </trkpt>
      <trkpt lat="49.04569" lon="-0.32711">
        <ele>46.6</ele>
        <time>2024-05-26T08:33:47Z</time>
      </trkpt>
      <trkpt lat="49.04574" lon="-0.32708">
        <ele>46.6</ele>
        <time>2024-05-26T08:33:48Z</time>
      </trkpt>
      <trkpt lat="49.04578" lon="-0.32705">
        <ele>46.6</ele>
        <time>2024-05-26T08:33:49Z</time>
      </trkpt>
      <trkpt lat="49.04583" lon="-0.32702">
        <ele>46.6</ele>
        <time>2024-05-26T08:33:50Z</time>
      </trkpt>
      <trkpt lat="49.04586" lon="-0.327">
        <ele>46.6</ele>
        <time>2024-05-26T08:33:51Z</time>
      </trkpt>
      <trkpt lat="49.04591" lon="-0.32697">
        <ele>46.6</ele>
        <time>2024-05-26T08:33:52Z</time>
      </trkpt>
      <trkpt lat="49.04595" lon="-0.32692">
        <ele>46.6</ele>
        <time>2024-05-26T08:33:53Z</time>
      </trkpt>
      <trkpt lat="49.04599" lon="-0.32686">
        <ele>46.6</ele>
        <time>2024-05-26T08:33:54Z</time>
      </trkpt>
      <trkpt lat="49.04602" lon="-0.32678">
        <ele>46.6</ele>
        <time>2024-05-26T08:33:55Z</time>
      </trkpt>
      <trkpt lat="49.04604" lon="-0.32673">
        <ele>46.6</ele>
        <time>2024-05-26T08:33:56Z</time>
      </trkpt>
      <trkpt lat="49.04606" lon="-0.32664">
        <ele>46.6</ele>
        <time>2024-05-26T08:33:57Z</time>
      </trkpt>
      <trkpt lat="49.04608" lon="-0.32658">
        <ele>46.8</ele>
        <time>2024-05-26T08:33:58Z</time>
      </trkpt>
      <trkpt lat="49.0461" lon="-0.32652">
        <ele>46.8</ele>
        <time>2024-05-26T08:33:59Z</time>
      </trkpt>
      <trkpt lat="49.04611" lon="-0.32647">
        <ele>46.8</ele>
        <time>2024-05-26T08:34:00Z</time>
      </trkpt>
      <trkpt lat="49.04613" lon="-0.32641">
        <ele>47</ele>
        <time>2024-05-26T08:34:01Z</time>
      </trkpt>
      <trkpt lat="49.04615" lon="-0.32636">
        <ele>47</ele>
        <time>2024-05-26T08:34:02Z</time>
      </trkpt>
      <trkpt lat="49.04618" lon="-0.32631">
        <ele>47</ele>
        <time>2024-05-26T08:34:03Z</time>
      </trkpt>
      <trkpt lat="49.04621" lon="-0.32626">
        <ele>47.2</ele>
        <time>2024-05-26T08:34:04Z</time>
      </trkpt>
      <trkpt lat="49.04624" lon="-0.32622">
        <ele>47.2</ele>
        <time>2024-05-26T08:34:05Z</time>
      </trkpt>
      <trkpt lat="49.04628" lon="-0.32619">
        <ele>47.2</ele>
        <time>2024-05-26T08:34:06Z</time>
      </trkpt>
      <trkpt lat="49.04631" lon="-0.32615">
        <ele>47.4</ele>
        <time>2024-05-26T08:34:07Z</time>
      </trkpt>
      <trkpt lat="49.04635" lon="-0.3261">
        <ele>47.4</ele>
        <time>2024-05-26T08:34:08Z</time>
      </trkpt>
      <trkpt lat="49.0464" lon="-0.32606">
        <ele>47.6</ele>
        <time>2024-05-26T08:34:09Z</time>
      </trkpt>
      <trkpt lat="49.04644" lon="-0.32602">
        <ele>47.6</ele>
        <time>2024-05-26T08:34:10Z</time>
      </trkpt>
      <trkpt lat="49.04649" lon="-0.32598">
        <ele>47.8</ele>
        <time>2024-05-26T08:34:11Z</time>
      </trkpt>
      <trkpt lat="49.04654" lon="-0.32593">
        <ele>47.8</ele>
        <time>2024-05-26T08:34:12Z</time>
      </trkpt>
      <trkpt lat="49.04659" lon="-0.32589">
        <ele>48</ele>
        <time>2024-05-26T08:34:13Z</time>
      </trkpt>
      <trkpt lat="49.04664" lon="-0.32585">
        <ele>48</ele>
        <time>2024-05-26T08:34:14Z</time>
      </trkpt>
      <trkpt lat="49.04669" lon="-0.32582">
        <ele>48</ele>
        <time>2024-05-26T08:34:15Z</time>
      </trkpt>
      <trkpt lat="49.04674" lon="-0.32578">
        <ele>48.2</ele>
        <time>2024-05-26T08:34:16Z</time>
      </trkpt>
      <trkpt lat="49.04678" lon="-0.32573">
        <ele>48.2</ele>
        <time>2024-05-26T08:34:17Z</time>
      </trkpt>
      <trkpt lat="49.04683" lon="-0.3257">
        <ele>48.4</ele>
        <time>2024-05-26T08:34:18Z</time>
      </trkpt>
      <trkpt lat="49.04689" lon="-0.32566">
        <ele>48.4</ele>
        <time>2024-05-26T08:34:19Z</time>
      </trkpt>
      <trkpt lat="49.04694" lon="-0.32563">
        <ele>48.4</ele>
        <time>2024-05-26T08:34:20Z</time>
      </trkpt>
      <trkpt lat="49.04699" lon="-0.32559">
        <ele>48.6</ele>
        <time>2024-05-26T08:34:21Z</time>
      </trkpt>
      <trkpt lat="49.04705" lon="-0.32555">
        <ele>48.6</ele>
        <time>2024-05-26T08:34:22Z</time>
      </trkpt>
      <trkpt lat="49.0471" lon="-0.32551">
        <ele>48.8</ele>
        <time>2024-05-26T08:34:23Z</time>
      </trkpt>
      <trkpt lat="49.04716" lon="-0.32546">
        <ele>48.8</ele>
        <time>2024-05-26T08:34:24Z</time>
      </trkpt>
      <trkpt lat="49.04721" lon="-0.32541">
        <ele>49</ele>
        <time>2024-05-26T08:34:25Z</time>
      </trkpt>
      <trkpt lat="49.04726" lon="-0.32535">
        <ele>49</ele>
        <time>2024-05-26T08:34:26Z</time>
      </trkpt>
      <trkpt lat="49.04731" lon="-0.32529">
        <ele>49.2</ele>
        <time>2024-05-26T08:34:27Z</time>
      </trkpt>
      <trkpt lat="49.04736" lon="-0.32523">
        <ele>49.4</ele>
        <time>2024-05-26T08:34:28Z</time>
      </trkpt>
      <trkpt lat="49.04741" lon="-0.32517">
        <ele>49.6</ele>
        <time>2024-05-26T08:34:29Z</time>
      </trkpt>
      <trkpt lat="49.04746" lon="-0.3251">
        <ele>49.8</ele>
        <time>2024-05-26T08:34:30Z</time>
      </trkpt>
      <trkpt lat="49.0475" lon="-0.32504">
        <ele>50</ele>
        <time>2024-05-26T08:34:31Z</time>
      </trkpt>
      <trkpt lat="49.04755" lon="-0.32497">
        <ele>50</ele>
        <time>2024-05-26T08:34:32Z</time>
      </trkpt>
      <trkpt lat="49.0476" lon="-0.32491">
        <ele>50</ele>
        <time>2024-05-26T08:34:33Z</time>
      </trkpt>
      <trkpt lat="49.04764" lon="-0.32484">
        <ele>50.2</ele>
        <time>2024-05-26T08:34:34Z</time>
      </trkpt>
      <trkpt lat="49.04768" lon="-0.32477">
        <ele>50.2</ele>
        <time>2024-05-26T08:34:35Z</time>
      </trkpt>
      <trkpt lat="49.04772" lon="-0.3247">
        <ele>50.4</ele>
        <time>2024-05-26T08:34:36Z</time>
      </trkpt>
      <trkpt lat="49.04775" lon="-0.32464">
        <ele>50.4</ele>
        <time>2024-05-26T08:34:37Z</time>
      </trkpt>
      <trkpt lat="49.04778" lon="-0.32456">
        <ele>50.4</ele>
        <time>2024-05-26T08:34:38Z</time>
      </trkpt>
      <trkpt lat="49.04781" lon="-0.32448">
        <ele>50.6</ele>
        <time>2024-05-26T08:34:39Z</time>
      </trkpt>
      <trkpt lat="49.04784" lon="-0.32439">
        <ele>50.6</ele>
        <time>2024-05-26T08:34:40Z</time>
      </trkpt>
      <trkpt lat="49.04787" lon="-0.3243">
        <ele>50.6</ele>
        <time>2024-05-26T08:34:41Z</time>
      </trkpt>
      <trkpt lat="49.04789" lon="-0.32421">
        <ele>50.6</ele>
        <time>2024-05-26T08:34:42Z</time>
      </trkpt>
      <trkpt lat="49.04792" lon="-0.32411">
        <ele>50.6</ele>
        <time>2024-05-26T08:34:43Z</time>
      </trkpt>
      <trkpt lat="49.04794" lon="-0.32402">
        <ele>50.6</ele>
        <time>2024-05-26T08:34:44Z</time>
      </trkpt>
      <trkpt lat="49.04797" lon="-0.32393">
        <ele>50.8</ele>
        <time>2024-05-26T08:34:45Z</time>
      </trkpt>
      <trkpt lat="49.04801" lon="-0.32384">
        <ele>50.8</ele>
        <time>2024-05-26T08:34:46Z</time>
      </trkpt>
      <trkpt lat="49.04804" lon="-0.32375">
        <ele>51</ele>
        <time>2024-05-26T08:34:47Z</time>
      </trkpt>
      <trkpt lat="49.04808" lon="-0.32367">
        <ele>51</ele>
        <time>2024-05-26T08:34:48Z</time>
      </trkpt>
      <trkpt lat="49.04812" lon="-0.32359">
        <ele>51.2</ele>
        <time>2024-05-26T08:34:49Z</time>
      </trkpt>
      <trkpt lat="49.04816" lon="-0.32352">
        <ele>51.2</ele>
        <time>2024-05-26T08:34:50Z</time>
      </trkpt>
      <trkpt lat="49.0482" lon="-0.32344">
        <ele>51.4</ele>
        <time>2024-05-26T08:34:51Z</time>
      </trkpt>
      <trkpt lat="49.04824" lon="-0.32337">
        <ele>51.4</ele>
        <time>2024-05-26T08:34:52Z</time>
      </trkpt>
      <trkpt lat="49.0483" lon="-0.32329">
        <ele>51.6</ele>
        <time>2024-05-26T08:34:53Z</time>
      </trkpt>
      <trkpt lat="49.04834" lon="-0.32322">
        <ele>51.6</ele>
        <time>2024-05-26T08:34:54Z</time>
      </trkpt>
      <trkpt lat="49.04838" lon="-0.32317">
        <ele>51.6</ele>
        <time>2024-05-26T08:34:55Z</time>
      </trkpt>
      <trkpt lat="49.04842" lon="-0.3231">
        <ele>51.8</ele>
        <time>2024-05-26T08:34:56Z</time>
      </trkpt>
      <trkpt lat="49.04847" lon="-0.32303">
        <ele>51.8</ele>
        <time>2024-05-26T08:34:57Z</time>
      </trkpt>
      <trkpt lat="49.04851" lon="-0.32296">
        <ele>52.2</ele>
        <time>2024-05-26T08:34:58Z</time>
      </trkpt>
      <trkpt lat="49.04856" lon="-0.32289">
        <ele>52.2</ele>
        <time>2024-05-26T08:34:59Z</time>
      </trkpt>
      <trkpt lat="49.0486" lon="-0.32283">
        <ele>52.4</ele>
        <time>2024-05-26T08:35:00Z</time>
      </trkpt>
      <trkpt lat="49.04865" lon="-0.32276">
        <ele>52.4</ele>
        <time>2024-05-26T08:35:01Z</time>
      </trkpt>
      <trkpt lat="49.04869" lon="-0.3227">
        <ele>52.6</ele>
        <time>2024-05-26T08:35:02Z</time>
      </trkpt>
      <trkpt lat="49.04874" lon="-0.32263">
        <ele>52.6</ele>
        <time>2024-05-26T08:35:03Z</time>
      </trkpt>
      <trkpt lat="49.04879" lon="-0.32257">
        <ele>52.8</ele>
        <time>2024-05-26T08:35:04Z</time>
      </trkpt>
      <trkpt lat="49.04884" lon="-0.32251">
        <ele>53</ele>
        <time>2024-05-26T08:35:05Z</time>
      </trkpt>
      <trkpt lat="49.04888" lon="-0.32245">
        <ele>53.2</ele>
        <time>2024-05-26T08:35:06Z</time>
      </trkpt>
      <trkpt lat="49.04893" lon="-0.32239">
        <ele>53.2</ele>
        <time>2024-05-26T08:35:07Z</time>
      </trkpt>
      <trkpt lat="49.04899" lon="-0.32232">
        <ele>53.4</ele>
        <time>2024-05-26T08:35:08Z</time>
      </trkpt>
      <trkpt lat="49.04904" lon="-0.32225">
        <ele>53.4</ele>
        <time>2024-05-26T08:35:09Z</time>
      </trkpt>
      <trkpt lat="49.04908" lon="-0.3222">
        <ele>53.6</ele>
        <time>2024-05-26T08:35:10Z</time>
      </trkpt>
      <trkpt lat="49.04912" lon="-0.32214">
        <ele>53.8</ele>
        <time>2024-05-26T08:35:11Z</time>
      </trkpt>
      <trkpt lat="49.04917" lon="-0.32207">
        <ele>54</ele>
        <time>2024-05-26T08:35:12Z</time>
      </trkpt>
      <trkpt lat="49.04922" lon="-0.32201">
        <ele>54</ele>
        <time>2024-05-26T08:35:13Z</time>
      </trkpt>
      <trkpt lat="49.04926" lon="-0.32196">
        <ele>54.4</ele>
        <time>2024-05-26T08:35:14Z</time>
      </trkpt>
      <trkpt lat="49.04931" lon="-0.32189">
        <ele>54.6</ele>
        <time>2024-05-26T08:35:15Z</time>
      </trkpt>
      <trkpt lat="49.04935" lon="-0.32182">
        <ele>54.6</ele>
        <time>2024-05-26T08:35:16Z</time>
      </trkpt>
      <trkpt lat="49.04939" lon="-0.32174">
        <ele>54.8</ele>
        <time>2024-05-26T08:35:17Z</time>
      </trkpt>
      <trkpt lat="49.04943" lon="-0.32167">
        <ele>55</ele>
        <time>2024-05-26T08:35:18Z</time>
      </trkpt>
      <trkpt lat="49.04946" lon="-0.32159">
        <ele>55.2</ele>
        <time>2024-05-26T08:35:19Z</time>
      </trkpt>
      <trkpt lat="49.04949" lon="-0.32152">
        <ele>55.2</ele>
        <time>2024-05-26T08:35:20Z</time>
      </trkpt>
      <trkpt lat="49.04953" lon="-0.32144">
        <ele>55.2</ele>
        <time>2024-05-26T08:35:21Z</time>
      </trkpt>
      <trkpt lat="49.04956" lon="-0.32134">
        <ele>55.2</ele>
        <time>2024-05-26T08:35:22Z</time>
      </trkpt>
      <trkpt lat="49.04958" lon="-0.32125">
        <ele>55.4</ele>
        <time>2024-05-26T08:35:23Z</time>
      </trkpt>
      <trkpt lat="49.0496" lon="-0.32119">
        <ele>55.6</ele>
        <time>2024-05-26T08:35:24Z</time>
      </trkpt>
      <trkpt lat="49.04963" lon="-0.32109">
        <ele>55.8</ele>
        <time>2024-05-26T08:35:25Z</time>
      </trkpt>
      <trkpt lat="49.04964" lon="-0.32102">
        <ele>56</ele>
        <time>2024-05-26T08:35:26Z</time>
      </trkpt>
      <trkpt lat="49.04966" lon="-0.32094">
        <ele>56</ele>
        <time>2024-05-26T08:35:27Z</time>
      </trkpt>
      <trkpt lat="49.04968" lon="-0.32083">
        <ele>56.4</ele>
        <time>2024-05-26T08:35:28Z</time>
      </trkpt>
      <trkpt lat="49.0497" lon="-0.32075">
        <ele>56.4</ele>
        <time>2024-05-26T08:35:29Z</time>
      </trkpt>
      <trkpt lat="49.04971" lon="-0.32068">
        <ele>56.6</ele>
        <time>2024-05-26T08:35:30Z</time>
      </trkpt>
      <trkpt lat="49.04973" lon="-0.32057">
        <ele>56.6</ele>
        <time>2024-05-26T08:35:31Z</time>
      </trkpt>
      <trkpt lat="49.04975" lon="-0.3205">
        <ele>57</ele>
        <time>2024-05-26T08:35:32Z</time>
      </trkpt>
      <trkpt lat="49.04977" lon="-0.32039">
        <ele>57.2</ele>
        <time>2024-05-26T08:35:33Z</time>
      </trkpt>
      <trkpt lat="49.04979" lon="-0.32032">
        <ele>57.4</ele>
        <time>2024-05-26T08:35:34Z</time>
      </trkpt>
      <trkpt lat="49.04981" lon="-0.32023">
        <ele>57.4</ele>
        <time>2024-05-26T08:35:35Z</time>
      </trkpt>
      <trkpt lat="49.04984" lon="-0.32015">
        <ele>57.6</ele>
        <time>2024-05-26T08:35:36Z</time>
      </trkpt>
      <trkpt lat="49.04987" lon="-0.32007">
        <ele>57.6</ele>
        <time>2024-05-26T08:35:37Z</time>
      </trkpt>
      <trkpt lat="49.04991" lon="-0.32">
        <ele>57.8</ele>
        <time>2024-05-26T08:35:38Z</time>
      </trkpt>
      <trkpt lat="49.04994" lon="-0.31992">
        <ele>57.8</ele>
        <time>2024-05-26T08:35:39Z</time>
      </trkpt>
      <trkpt lat="49.04998" lon="-0.31984">
        <ele>58</ele>
        <time>2024-05-26T08:35:40Z</time>
      </trkpt>
      <trkpt lat="49.05002" lon="-0.31977">
        <ele>58</ele>
        <time>2024-05-26T08:35:41Z</time>
      </trkpt>
      <trkpt lat="49.05006" lon="-0.31969">
        <ele>58.2</ele>
        <time>2024-05-26T08:35:42Z</time>
      </trkpt>
      <trkpt lat="49.0501" lon="-0.31963">
        <ele>58.2</ele>
        <time>2024-05-26T08:35:43Z</time>
      </trkpt>
      <trkpt lat="49.05015" lon="-0.31956">
        <ele>58.6</ele>
        <time>2024-05-26T08:35:44Z</time>
      </trkpt>
      <trkpt lat="49.05019" lon="-0.3195">
        <ele>58.8</ele>
        <time>2024-05-26T08:35:45Z</time>
      </trkpt>
      <trkpt lat="49.05023" lon="-0.31943">
        <ele>59</ele>
        <time>2024-05-26T08:35:46Z</time>
      </trkpt>
      <trkpt lat="49.05027" lon="-0.31936">
        <ele>59.2</ele>
        <time>2024-05-26T08:35:47Z</time>
      </trkpt>
      <trkpt lat="49.05031" lon="-0.3193">
        <ele>59.4</ele>
        <time>2024-05-26T08:35:48Z</time>
      </trkpt>
      <trkpt lat="49.05035" lon="-0.31923">
        <ele>59.6</ele>
        <time>2024-05-26T08:35:49Z</time>
      </trkpt>
      <trkpt lat="49.0504" lon="-0.31916">
        <ele>59.6</ele>
        <time>2024-05-26T08:35:50Z</time>
      </trkpt>
      <trkpt lat="49.05043" lon="-0.31909">
        <ele>59.8</ele>
        <time>2024-05-26T08:35:51Z</time>
      </trkpt>
      <trkpt lat="49.05047" lon="-0.31903">
        <ele>60</ele>
        <time>2024-05-26T08:35:52Z</time>
      </trkpt>
      <trkpt lat="49.0505" lon="-0.31896">
        <ele>60</ele>
        <time>2024-05-26T08:35:53Z</time>
      </trkpt>
      <trkpt lat="49.05054" lon="-0.3189">
        <ele>60.2</ele>
        <time>2024-05-26T08:35:54Z</time>
      </trkpt>
      <trkpt lat="49.05057" lon="-0.31884">
        <ele>60.4</ele>
        <time>2024-05-26T08:35:55Z</time>
      </trkpt>
      <trkpt lat="49.05061" lon="-0.31878">
        <ele>60.6</ele>
        <time>2024-05-26T08:35:56Z</time>
      </trkpt>
      <trkpt lat="49.05064" lon="-0.31872">
        <ele>60.8</ele>
        <time>2024-05-26T08:35:57Z</time>
      </trkpt>
      <trkpt lat="49.05067" lon="-0.31867">
        <ele>61</ele>
        <time>2024-05-26T08:35:58Z</time>
      </trkpt>
      <trkpt lat="49.0507" lon="-0.31862">
        <ele>61.2</ele>
        <time>2024-05-26T08:35:59Z</time>
      </trkpt>
      <trkpt lat="49.05074" lon="-0.31858">
        <ele>61.2</ele>
        <time>2024-05-26T08:36:00Z</time>
      </trkpt>
      <trkpt lat="49.05078" lon="-0.31854">
        <ele>61.4</ele>
        <time>2024-05-26T08:36:01Z</time>
      </trkpt>
      <trkpt lat="49.05082" lon="-0.31851">
        <ele>61.6</ele>
        <time>2024-05-26T08:36:02Z</time>
      </trkpt>
      <trkpt lat="49.05086" lon="-0.31847">
        <ele>61.8</ele>
        <time>2024-05-26T08:36:03Z</time>
      </trkpt>
      <trkpt lat="49.0509" lon="-0.31844">
        <ele>61.8</ele>
        <time>2024-05-26T08:36:04Z</time>
      </trkpt>
      <trkpt lat="49.05094" lon="-0.31841">
        <ele>62</ele>
        <time>2024-05-26T08:36:05Z</time>
      </trkpt>
      <trkpt lat="49.05099" lon="-0.31837">
        <ele>62.4</ele>
        <time>2024-05-26T08:36:06Z</time>
      </trkpt>
      <trkpt lat="49.05102" lon="-0.31833">
        <ele>62.8</ele>
        <time>2024-05-26T08:36:07Z</time>
      </trkpt>
      <trkpt lat="49.05106" lon="-0.3183">
        <ele>63.2</ele>
        <time>2024-05-26T08:36:08Z</time>
      </trkpt>
      <trkpt lat="49.0511" lon="-0.31827">
        <ele>63.4</ele>
        <time>2024-05-26T08:36:09Z</time>
      </trkpt>
      <trkpt lat="49.05115" lon="-0.31825">
        <ele>63.6</ele>
        <time>2024-05-26T08:36:10Z</time>
      </trkpt>
      <trkpt lat="49.05119" lon="-0.31822">
        <ele>64</ele>
        <time>2024-05-26T08:36:11Z</time>
      </trkpt>
      <trkpt lat="49.05122" lon="-0.31821">
        <ele>64.4</ele>
        <time>2024-05-26T08:36:12Z</time>
      </trkpt>
      <trkpt lat="49.05127" lon="-0.3182">
        <ele>64.6</ele>
        <time>2024-05-26T08:36:13Z</time>
      </trkpt>
      <trkpt lat="49.05131" lon="-0.3182">
        <ele>64.6</ele>
        <time>2024-05-26T08:36:14Z</time>
      </trkpt>
      <trkpt lat="49.05135" lon="-0.3182">
        <ele>65</ele>
        <time>2024-05-26T08:36:15Z</time>
      </trkpt>
      <trkpt lat="49.05139" lon="-0.31819">
        <ele>65.2</ele>
        <time>2024-05-26T08:36:16Z</time>
      </trkpt>
      <trkpt lat="49.05143" lon="-0.31818">
        <ele>65.4</ele>
        <time>2024-05-26T08:36:17Z</time>
      </trkpt>
      <trkpt lat="49.05146" lon="-0.31817">
        <ele>65.8</ele>
        <time>2024-05-26T08:36:18Z</time>
      </trkpt>
      <trkpt lat="49.05148" lon="-0.31817">
        <ele>66</ele>
        <time>2024-05-26T08:36:19Z</time>
      </trkpt>
      <trkpt lat="49.05152" lon="-0.31817">
        <ele>66.4</ele>
        <time>2024-05-26T08:36:20Z</time>
      </trkpt>
      <trkpt lat="49.05156" lon="-0.31816">
        <ele>66.8</ele>
        <time>2024-05-26T08:36:21Z</time>
      </trkpt>
      <trkpt lat="49.05159" lon="-0.31816">
        <ele>67.4</ele>
        <time>2024-05-26T08:36:22Z</time>
      </trkpt>
      <trkpt lat="49.05164" lon="-0.31816">
        <ele>67.6</ele>
        <time>2024-05-26T08:36:23Z</time>
      </trkpt>
      <trkpt lat="49.05168" lon="-0.31816">
        <ele>68</ele>
        <time>2024-05-26T08:36:24Z</time>
      </trkpt>
      <trkpt lat="49.05172" lon="-0.31815">
        <ele>68</ele>
        <time>2024-05-26T08:36:25Z</time>
      </trkpt>
      <trkpt lat="49.05176" lon="-0.31814">
        <ele>68.2</ele>
        <time>2024-05-26T08:36:26Z</time>
      </trkpt>
      <trkpt lat="49.0518" lon="-0.31814">
        <ele>68.6</ele>
        <time>2024-05-26T08:36:27Z</time>
      </trkpt>
      <trkpt lat="49.05184" lon="-0.31813">
        <ele>68.8</ele>
        <time>2024-05-26T08:36:28Z</time>
      </trkpt>
      <trkpt lat="49.05189" lon="-0.31811">
        <ele>69.2</ele>
        <time>2024-05-26T08:36:29Z</time>
      </trkpt>
      <trkpt lat="49.05193" lon="-0.3181">
        <ele>69.6</ele>
        <time>2024-05-26T08:36:30Z</time>
      </trkpt>
      <trkpt lat="49.05196" lon="-0.3181">
        <ele>69.8</ele>
        <time>2024-05-26T08:36:31Z</time>
      </trkpt>
      <trkpt lat="49.052" lon="-0.31811">
        <ele>70.2</ele>
        <time>2024-05-26T08:36:32Z</time>
      </trkpt>
      <trkpt lat="49.05204" lon="-0.31811">
        <ele>70.4</ele>
        <time>2024-05-26T08:36:33Z</time>
      </trkpt>
      <trkpt lat="49.05208" lon="-0.3181">
        <ele>70.8</ele>
        <time>2024-05-26T08:36:34Z</time>
      </trkpt>
      <trkpt lat="49.05213" lon="-0.31809">
        <ele>71</ele>
        <time>2024-05-26T08:36:35Z</time>
      </trkpt>
      <trkpt lat="49.05217" lon="-0.31808">
        <ele>71.2</ele>
        <time>2024-05-26T08:36:36Z</time>
      </trkpt>
      <trkpt lat="49.0522" lon="-0.31807">
        <ele>71.4</ele>
        <time>2024-05-26T08:36:37Z</time>
      </trkpt>
      <trkpt lat="49.05225" lon="-0.31807">
        <ele>71.6</ele>
        <time>2024-05-26T08:36:38Z</time>
      </trkpt>
      <trkpt lat="49.05229" lon="-0.31806">
        <ele>72</ele>
        <time>2024-05-26T08:36:39Z</time>
      </trkpt>
      <trkpt lat="49.05233" lon="-0.31806">
        <ele>72.2</ele>
        <time>2024-05-26T08:36:40Z</time>
      </trkpt>
      <trkpt lat="49.05237" lon="-0.31804">
        <ele>72.4</ele>
        <time>2024-05-26T08:36:41Z</time>
      </trkpt>
      <trkpt lat="49.05241" lon="-0.31803">
        <ele>72.6</ele>
        <time>2024-05-26T08:36:42Z</time>
      </trkpt>
      <trkpt lat="49.05244" lon="-0.31802">
        <ele>72.8</ele>
        <time>2024-05-26T08:36:43Z</time>
      </trkpt>
      <trkpt lat="49.05247" lon="-0.31802">
        <ele>73.2</ele>
        <time>2024-05-26T08:36:44Z</time>
      </trkpt>
      <trkpt lat="49.0525" lon="-0.31801">
        <ele>73.6</ele>
        <time>2024-05-26T08:36:45Z</time>
      </trkpt>
      <trkpt lat="49.05254" lon="-0.318">
        <ele>74</ele>
        <time>2024-05-26T08:36:46Z</time>
      </trkpt>
      <trkpt lat="49.05257" lon="-0.318">
        <ele>74</ele>
        <time>2024-05-26T08:36:47Z</time>
      </trkpt>
      <trkpt lat="49.05261" lon="-0.31799">
        <ele>74.2</ele>
        <time>2024-05-26T08:36:48Z</time>
      </trkpt>
      <trkpt lat="49.05264" lon="-0.31799">
        <ele>74.4</ele>
        <time>2024-05-26T08:36:49Z</time>
      </trkpt>
      <trkpt lat="49.05267" lon="-0.31798">
        <ele>74.6</ele>
        <time>2024-05-26T08:36:50Z</time>
      </trkpt>
      <trkpt lat="49.05272" lon="-0.31797">
        <ele>75</ele>
        <time>2024-05-26T08:36:51Z</time>
      </trkpt>
      <trkpt lat="49.05276" lon="-0.31795">
        <ele>75.2</ele>
        <time>2024-05-26T08:36:52Z</time>
      </trkpt>
      <trkpt lat="49.0528" lon="-0.31793">
        <ele>75.4</ele>
        <time>2024-05-26T08:36:53Z</time>
      </trkpt>
      <trkpt lat="49.05285" lon="-0.31791">
        <ele>75.8</ele>
        <time>2024-05-26T08:36:54Z</time>
      </trkpt>
      <trkpt lat="49.05289" lon="-0.31789">
        <ele>76.2</ele>
        <time>2024-05-26T08:36:55Z</time>
      </trkpt>
      <trkpt lat="49.05292" lon="-0.31788">
        <ele>76.4</ele>
        <time>2024-05-26T08:36:56Z</time>
      </trkpt>
      <trkpt lat="49.05296" lon="-0.31786">
        <ele>76.6</ele>
        <time>2024-05-26T08:36:57Z</time>
      </trkpt>
      <trkpt lat="49.053" lon="-0.31784">
        <ele>76.8</ele>
        <time>2024-05-26T08:36:58Z</time>
      </trkpt>
      <trkpt lat="49.05304" lon="-0.31781">
        <ele>77.2</ele>
        <time>2024-05-26T08:36:59Z</time>
      </trkpt>
      <trkpt lat="49.05308" lon="-0.31779">
        <ele>77.4</ele>
        <time>2024-05-26T08:37:00Z</time>
      </trkpt>
      <trkpt lat="49.05311" lon="-0.31776">
        <ele>77.6</ele>
        <time>2024-05-26T08:37:01Z</time>
      </trkpt>
      <trkpt lat="49.05315" lon="-0.31774">
        <ele>77.6</ele>
        <time>2024-05-26T08:37:02Z</time>
      </trkpt>
      <trkpt lat="49.05319" lon="-0.31771">
        <ele>77.8</ele>
        <time>2024-05-26T08:37:03Z</time>
      </trkpt>
      <trkpt lat="49.05323" lon="-0.31768">
        <ele>78</ele>
        <time>2024-05-26T08:37:04Z</time>
      </trkpt>
      <trkpt lat="49.05327" lon="-0.31765">
        <ele>78.2</ele>
        <time>2024-05-26T08:37:05Z</time>
      </trkpt>
      <trkpt lat="49.05331" lon="-0.31761">
        <ele>78.4</ele>
        <time>2024-05-26T08:37:06Z</time>
      </trkpt>
      <trkpt lat="49.05335" lon="-0.31757">
        <ele>78.6</ele>
        <time>2024-05-26T08:37:07Z</time>
      </trkpt>
      <trkpt lat="49.05339" lon="-0.31753">
        <ele>78.6</ele>
        <time>2024-05-26T08:37:08Z</time>
      </trkpt>
      <trkpt lat="49.05343" lon="-0.3175">
        <ele>78.8</ele>
        <time>2024-05-26T08:37:09Z</time>
      </trkpt>
      <trkpt lat="49.05348" lon="-0.31746">
        <ele>79</ele>
        <time>2024-05-26T08:37:10Z</time>
      </trkpt>
      <trkpt lat="49.05352" lon="-0.31743">
        <ele>79.4</ele>
        <time>2024-05-26T08:37:11Z</time>
      </trkpt>
      <trkpt lat="49.05356" lon="-0.31739">
        <ele>79.6</ele>
        <time>2024-05-26T08:37:12Z</time>
      </trkpt>
      <trkpt lat="49.05361" lon="-0.31735">
        <ele>79.8</ele>
        <time>2024-05-26T08:37:13Z</time>
      </trkpt>
      <trkpt lat="49.05365" lon="-0.31731">
        <ele>80.4</ele>
        <time>2024-05-26T08:37:14Z</time>
      </trkpt>
      <trkpt lat="49.0537" lon="-0.31727">
        <ele>80.8</ele>
        <time>2024-05-26T08:37:15Z</time>
      </trkpt>
      <trkpt lat="49.05374" lon="-0.31723">
        <ele>81</ele>
        <time>2024-05-26T08:37:16Z</time>
      </trkpt>
      <trkpt lat="49.05379" lon="-0.3172">
        <ele>81.4</ele>
        <time>2024-05-26T08:37:17Z</time>
      </trkpt>
      <trkpt lat="49.05384" lon="-0.31716">
        <ele>81.4</ele>
        <time>2024-05-26T08:37:18Z</time>
      </trkpt>
      <trkpt lat="49.05388" lon="-0.31712">
        <ele>81.6</ele>
        <time>2024-05-26T08:37:19Z</time>
      </trkpt>
      <trkpt lat="49.05393" lon="-0.31708">
        <ele>81.8</ele>
        <time>2024-05-26T08:37:20Z</time>
      </trkpt>
      <trkpt lat="49.05397" lon="-0.31704">
        <ele>82</ele>
        <time>2024-05-26T08:37:21Z</time>
      </trkpt>
      <trkpt lat="49.05402" lon="-0.317">
        <ele>82</ele>
        <time>2024-05-26T08:37:22Z</time>
      </trkpt>
      <trkpt lat="49.05407" lon="-0.31695">
        <ele>82.2</ele>
        <time>2024-05-26T08:37:23Z</time>
      </trkpt>
      <trkpt lat="49.05412" lon="-0.31691">
        <ele>82.2</ele>
        <time>2024-05-26T08:37:24Z</time>
      </trkpt>
      <trkpt lat="49.05417" lon="-0.31687">
        <ele>82.4</ele>
        <time>2024-05-26T08:37:25Z</time>
      </trkpt>
      <trkpt lat="49.05422" lon="-0.31682">
        <ele>82.8</ele>
        <time>2024-05-26T08:37:26Z</time>
      </trkpt>
      <trkpt lat="49.05427" lon="-0.31678">
        <ele>83</ele>
        <time>2024-05-26T08:37:27Z</time>
      </trkpt>
      <trkpt lat="49.05432" lon="-0.31673">
        <ele>83.2</ele>
        <time>2024-05-26T08:37:28Z</time>
      </trkpt>
      <trkpt lat="49.05436" lon="-0.31668">
        <ele>83.4</ele>
        <time>2024-05-26T08:37:29Z</time>
      </trkpt>
      <trkpt lat="49.05441" lon="-0.31663">
        <ele>83.4</ele>
        <time>2024-05-26T08:37:30Z</time>
      </trkpt>
      <trkpt lat="49.05446" lon="-0.31657">
        <ele>83.6</ele>
        <time>2024-05-26T08:37:31Z</time>
      </trkpt>
      <trkpt lat="49.05451" lon="-0.31652">
        <ele>83.6</ele>
        <time>2024-05-26T08:37:32Z</time>
      </trkpt>
      <trkpt lat="49.05455" lon="-0.31646">
        <ele>83.8</ele>
        <time>2024-05-26T08:37:33Z</time>
      </trkpt>
      <trkpt lat="49.0546" lon="-0.31641">
        <ele>84</ele>
        <time>2024-05-26T08:37:34Z</time>
      </trkpt>
      <trkpt lat="49.05465" lon="-0.31635">
        <ele>84</ele>
        <time>2024-05-26T08:37:35Z</time>
      </trkpt>
      <trkpt lat="49.0547" lon="-0.3163">
        <ele>84.2</ele>
        <time>2024-05-26T08:37:36Z</time>
      </trkpt>
      <trkpt lat="49.05475" lon="-0.31624">
        <ele>84.4</ele>
        <time>2024-05-26T08:37:37Z</time>
      </trkpt>
      <trkpt lat="49.0548" lon="-0.31619">
        <ele>84.4</ele>
        <time>2024-05-26T08:37:38Z</time>
      </trkpt>
      <trkpt lat="49.05485" lon="-0.31612">
        <ele>84.6</ele>
        <time>2024-05-26T08:37:39Z</time>
      </trkpt>
      <trkpt lat="49.0549" lon="-0.31606">
        <ele>84.8</ele>
        <time>2024-05-26T08:37:40Z</time>
      </trkpt>
      <trkpt lat="49.05495" lon="-0.316">
        <ele>84.8</ele>
        <time>2024-05-26T08:37:41Z</time>
      </trkpt>
      <trkpt lat="49.05501" lon="-0.31594">
        <ele>85</ele>
        <time>2024-05-26T08:37:42Z</time>
      </trkpt>
      <trkpt lat="49.05506" lon="-0.31588">
        <ele>85</ele>
        <time>2024-05-26T08:37:43Z</time>
      </trkpt>
      <trkpt lat="49.05511" lon="-0.31582">
        <ele>85.2</ele>
        <time>2024-05-26T08:37:44Z</time>
      </trkpt>
      <trkpt lat="49.05516" lon="-0.31576">
        <ele>85.4</ele>
        <time>2024-05-26T08:37:45Z</time>
      </trkpt>
      <trkpt lat="49.05521" lon="-0.31571">
        <ele>85.6</ele>
        <time>2024-05-26T08:37:46Z</time>
      </trkpt>
      <trkpt lat="49.05526" lon="-0.31565">
        <ele>85.8</ele>
        <time>2024-05-26T08:37:47Z</time>
      </trkpt>
      <trkpt lat="49.05531" lon="-0.31559">
        <ele>85.8</ele>
        <time>2024-05-26T08:37:48Z</time>
      </trkpt>
      <trkpt lat="49.05536" lon="-0.31553">
        <ele>86</ele>
        <time>2024-05-26T08:37:49Z</time>
      </trkpt>
      <trkpt lat="49.05541" lon="-0.31547">
        <ele>86</ele>
        <time>2024-05-26T08:37:50Z</time>
      </trkpt>
      <trkpt lat="49.05546" lon="-0.31541">
        <ele>86.2</ele>
        <time>2024-05-26T08:37:51Z</time>
      </trkpt>
      <trkpt lat="49.05551" lon="-0.31535">
        <ele>86.2</ele>
        <time>2024-05-26T08:37:52Z</time>
      </trkpt>
      <trkpt lat="49.05556" lon="-0.31529">
        <ele>86.2</ele>
        <time>2024-05-26T08:37:53Z</time>
      </trkpt>
      <trkpt lat="49.05561" lon="-0.31523">
        <ele>86.6</ele>
        <time>2024-05-26T08:37:54Z</time>
      </trkpt>
      <trkpt lat="49.05567" lon="-0.31517">
        <ele>86.8</ele>
        <time>2024-05-26T08:37:55Z</time>
      </trkpt>
      <trkpt lat="49.05572" lon="-0.31511">
        <ele>87</ele>
        <time>2024-05-26T08:37:56Z</time>
      </trkpt>
      <trkpt lat="49.05577" lon="-0.31505">
        <ele>87.2</ele>
        <time>2024-05-26T08:37:57Z</time>
      </trkpt>
      <trkpt lat="49.05582" lon="-0.31499">
        <ele>87.4</ele>
        <time>2024-05-26T08:37:58Z</time>
      </trkpt>
      <trkpt lat="49.05587" lon="-0.31492">
        <ele>87.6</ele>
        <time>2024-05-26T08:37:59Z</time>
      </trkpt>
      <trkpt lat="49.05593" lon="-0.31486">
        <ele>87.6</ele>
        <time>2024-05-26T08:38:00Z</time>
      </trkpt>
      <trkpt lat="49.05598" lon="-0.3148">
        <ele>87.8</ele>
        <time>2024-05-26T08:38:01Z</time>
      </trkpt>
      <trkpt lat="49.05603" lon="-0.31474">
        <ele>87.8</ele>
        <time>2024-05-26T08:38:02Z</time>
      </trkpt>
      <trkpt lat="49.05608" lon="-0.31467">
        <ele>88</ele>
        <time>2024-05-26T08:38:03Z</time>
      </trkpt>
      <trkpt lat="49.05614" lon="-0.31461">
        <ele>88.2</ele>
        <time>2024-05-26T08:38:04Z</time>
      </trkpt>
      <trkpt lat="49.05619" lon="-0.31455">
        <ele>88.2</ele>
        <time>2024-05-26T08:38:05Z</time>
      </trkpt>
      <trkpt lat="49.05624" lon="-0.31449">
        <ele>88.4</ele>
        <time>2024-05-26T08:38:06Z</time>
      </trkpt>
      <trkpt lat="49.05629" lon="-0.31443">
        <ele>88.4</ele>
        <time>2024-05-26T08:38:07Z</time>
      </trkpt>
      <trkpt lat="49.05634" lon="-0.31437">
        <ele>88.4</ele>
        <time>2024-05-26T08:38:08Z</time>
      </trkpt>
      <trkpt lat="49.05639" lon="-0.31431">
        <ele>88.4</ele>
        <time>2024-05-26T08:38:09Z</time>
      </trkpt>
      <trkpt lat="49.05645" lon="-0.31425">
        <ele>88.6</ele>
        <time>2024-05-26T08:38:10Z</time>
      </trkpt>
      <trkpt lat="49.0565" lon="-0.31419">
        <ele>88.6</ele>
        <time>2024-05-26T08:38:11Z</time>
      </trkpt>
      <trkpt lat="49.05656" lon="-0.31413">
        <ele>88.8</ele>
        <time>2024-05-26T08:38:12Z</time>
      </trkpt>
      <trkpt lat="49.05661" lon="-0.31407">
        <ele>88.8</ele>
        <time>2024-05-26T08:38:13Z</time>
      </trkpt>
      <trkpt lat="49.05667" lon="-0.31401">
        <ele>88.8</ele>
        <time>2024-05-26T08:38:14Z</time>
      </trkpt>
      <trkpt lat="49.05673" lon="-0.31395">
        <ele>89</ele>
        <time>2024-05-26T08:38:15Z</time>
      </trkpt>
      <trkpt lat="49.05679" lon="-0.3139">
        <ele>89</ele>
        <time>2024-05-26T08:38:16Z</time>
      </trkpt>
      <trkpt lat="49.05685" lon="-0.31384">
        <ele>89.2</ele>
        <time>2024-05-26T08:38:17Z</time>
      </trkpt>
      <trkpt lat="49.05691" lon="-0.31378">
        <ele>89.2</ele>
        <time>2024-05-26T08:38:18Z</time>
      </trkpt>
      <trkpt lat="49.05697" lon="-0.31372">
        <ele>89.2</ele>
        <time>2024-05-26T08:38:19Z</time>
      </trkpt>
      <trkpt lat="49.05702" lon="-0.31367">
        <ele>89.4</ele>
        <time>2024-05-26T08:38:20Z</time>
      </trkpt>
      <trkpt lat="49.05708" lon="-0.31361">
        <ele>89.4</ele>
        <time>2024-05-26T08:38:21Z</time>
      </trkpt>
      <trkpt lat="49.05713" lon="-0.31357">
        <ele>89.4</ele>
        <time>2024-05-26T08:38:22Z</time>
      </trkpt>
      <trkpt lat="49.05719" lon="-0.31351">
        <ele>89.6</ele>
        <time>2024-05-26T08:38:23Z</time>
      </trkpt>
      <trkpt lat="49.05725" lon="-0.31346">
        <ele>89.6</ele>
        <time>2024-05-26T08:38:24Z</time>
      </trkpt>
      <trkpt lat="49.0573" lon="-0.31341">
        <ele>89.8</ele>
        <time>2024-05-26T08:38:25Z</time>
      </trkpt>
      <trkpt lat="49.05736" lon="-0.31335">
        <ele>89.8</ele>
        <time>2024-05-26T08:38:26Z</time>
      </trkpt>
      <trkpt lat="49.05742" lon="-0.31329">
        <ele>90</ele>
        <time>2024-05-26T08:38:27Z</time>
      </trkpt>
      <trkpt lat="49.05748" lon="-0.31324">
        <ele>90.2</ele>
        <time>2024-05-26T08:38:28Z</time>
      </trkpt>
      <trkpt lat="49.05753" lon="-0.31318">
        <ele>90.4</ele>
        <time>2024-05-26T08:38:29Z</time>
      </trkpt>
      <trkpt lat="49.05759" lon="-0.31312">
        <ele>90.4</ele>
        <time>2024-05-26T08:38:30Z</time>
      </trkpt>
      <trkpt lat="49.05765" lon="-0.31306">
        <ele>90.6</ele>
        <time>2024-05-26T08:38:31Z</time>
      </trkpt>
      <trkpt lat="49.05771" lon="-0.31299">
        <ele>90.6</ele>
        <time>2024-05-26T08:38:32Z</time>
      </trkpt>
      <trkpt lat="49.05776" lon="-0.31293">
        <ele>90.8</ele>
        <time>2024-05-26T08:38:33Z</time>
      </trkpt>
      <trkpt lat="49.05782" lon="-0.31287">
        <ele>90.8</ele>
        <time>2024-05-26T08:38:34Z</time>
      </trkpt>
      <trkpt lat="49.05788" lon="-0.31281">
        <ele>90.8</ele>
        <time>2024-05-26T08:38:35Z</time>
      </trkpt>
      <trkpt lat="49.05793" lon="-0.31275">
        <ele>90.8</ele>
        <time>2024-05-26T08:38:36Z</time>
      </trkpt>
      <trkpt lat="49.05799" lon="-0.3127">
        <ele>91</ele>
        <time>2024-05-26T08:38:37Z</time>
      </trkpt>
      <trkpt lat="49.05806" lon="-0.31264">
        <ele>91</ele>
        <time>2024-05-26T08:38:38Z</time>
      </trkpt>
      <trkpt lat="49.05812" lon="-0.31258">
        <ele>91</ele>
        <time>2024-05-26T08:38:39Z</time>
      </trkpt>
      <trkpt lat="49.05818" lon="-0.31253">
        <ele>91.2</ele>
        <time>2024-05-26T08:38:40Z</time>
      </trkpt>
      <trkpt lat="49.05824" lon="-0.31247">
        <ele>91.4</ele>
        <time>2024-05-26T08:38:41Z</time>
      </trkpt>
      <trkpt lat="49.0583" lon="-0.31242">
        <ele>91.4</ele>
        <time>2024-05-26T08:38:42Z</time>
      </trkpt>
      <trkpt lat="49.05836" lon="-0.31236">
        <ele>91.6</ele>
        <time>2024-05-26T08:38:43Z</time>
      </trkpt>
      <trkpt lat="49.05842" lon="-0.3123">
        <ele>91.6</ele>
        <time>2024-05-26T08:38:44Z</time>
      </trkpt>
      <trkpt lat="49.05848" lon="-0.31225">
        <ele>91.8</ele>
        <time>2024-05-26T08:38:45Z</time>
      </trkpt>
      <trkpt lat="49.05854" lon="-0.31219">
        <ele>92</ele>
        <time>2024-05-26T08:38:46Z</time>
      </trkpt>
      <trkpt lat="49.0586" lon="-0.31214">
        <ele>92</ele>
        <time>2024-05-26T08:38:47Z</time>
      </trkpt>
      <trkpt lat="49.05866" lon="-0.31208">
        <ele>92.2</ele>
        <time>2024-05-26T08:38:48Z</time>
      </trkpt>
      <trkpt lat="49.05871" lon="-0.31202">
        <ele>92.4</ele>
        <time>2024-05-26T08:38:49Z</time>
      </trkpt>
      <trkpt lat="49.05877" lon="-0.31196">
        <ele>92.6</ele>
        <time>2024-05-26T08:38:50Z</time>
      </trkpt>
      <trkpt lat="49.05883" lon="-0.3119">
        <ele>92.6</ele>
        <time>2024-05-26T08:38:51Z</time>
      </trkpt>
      <trkpt lat="49.05888" lon="-0.31185">
        <ele>92.8</ele>
        <time>2024-05-26T08:38:52Z</time>
      </trkpt>
      <trkpt lat="49.05894" lon="-0.31179">
        <ele>93</ele>
        <time>2024-05-26T08:38:53Z</time>
      </trkpt>
      <trkpt lat="49.059" lon="-0.31172">
        <ele>93</ele>
        <time>2024-05-26T08:38:54Z</time>
      </trkpt>
      <trkpt lat="49.05906" lon="-0.31165">
        <ele>93.2</ele>
        <time>2024-05-26T08:38:55Z</time>
      </trkpt>
      <trkpt lat="49.05912" lon="-0.31159">
        <ele>93.2</ele>
        <time>2024-05-26T08:38:56Z</time>
      </trkpt>
      <trkpt lat="49.05918" lon="-0.31152">
        <ele>93.2</ele>
        <time>2024-05-26T08:38:57Z</time>
      </trkpt>
      <trkpt lat="49.05924" lon="-0.31146">
        <ele>93.4</ele>
        <time>2024-05-26T08:38:58Z</time>
      </trkpt>
      <trkpt lat="49.0593" lon="-0.3114">
        <ele>93.6</ele>
        <time>2024-05-26T08:38:59Z</time>
      </trkpt>
      <trkpt lat="49.05936" lon="-0.31134">
        <ele>93.8</ele>
        <time>2024-05-26T08:39:00Z</time>
      </trkpt>
      <trkpt lat="49.05942" lon="-0.31128">
        <ele>94</ele>
        <time>2024-05-26T08:39:01Z</time>
      </trkpt>
      <trkpt lat="49.05948" lon="-0.31123">
        <ele>94.2</ele>
        <time>2024-05-26T08:39:02Z</time>
      </trkpt>
      <trkpt lat="49.05954" lon="-0.31117">
        <ele>94.4</ele>
        <time>2024-05-26T08:39:03Z</time>
      </trkpt>
      <trkpt lat="49.0596" lon="-0.3111">
        <ele>94.6</ele>
        <time>2024-05-26T08:39:04Z</time>
      </trkpt>
      <trkpt lat="49.05966" lon="-0.31104">
        <ele>94.8</ele>
        <time>2024-05-26T08:39:05Z</time>
      </trkpt>
      <trkpt lat="49.05972" lon="-0.31097">
        <ele>95</ele>
        <time>2024-05-26T08:39:06Z</time>
      </trkpt>
      <trkpt lat="49.05978" lon="-0.3109">
        <ele>95</ele>
        <time>2024-05-26T08:39:07Z</time>
      </trkpt>
      <trkpt lat="49.05984" lon="-0.31084">
        <ele>95</ele>
        <time>2024-05-26T08:39:08Z</time>
      </trkpt>
      <trkpt lat="49.0599" lon="-0.31077">
        <ele>95</ele>
        <time>2024-05-26T08:39:09Z</time>
      </trkpt>
      <trkpt lat="49.05996" lon="-0.31069">
        <ele>95</ele>
        <time>2024-05-26T08:39:10Z</time>
      </trkpt>
      <trkpt lat="49.06002" lon="-0.31062">
        <ele>95</ele>
        <time>2024-05-26T08:39:11Z</time>
      </trkpt>
      <trkpt lat="49.06008" lon="-0.31055">
        <ele>95</ele>
        <time>2024-05-26T08:39:12Z</time>
      </trkpt>
      <trkpt lat="49.06014" lon="-0.31048">
        <ele>95</ele>
        <time>2024-05-26T08:39:13Z</time>
      </trkpt>
      <trkpt lat="49.0602" lon="-0.31041">
        <ele>95</ele>
        <time>2024-05-26T08:39:14Z</time>
      </trkpt>
      <trkpt lat="49.06026" lon="-0.31034">
        <ele>95.2</ele>
        <time>2024-05-26T08:39:15Z</time>
      </trkpt>
      <trkpt lat="49.06032" lon="-0.31027">
        <ele>95.2</ele>
        <time>2024-05-26T08:39:16Z</time>
      </trkpt>
      <trkpt lat="49.06038" lon="-0.3102">
        <ele>95.2</ele>
        <time>2024-05-26T08:39:17Z</time>
      </trkpt>
      <trkpt lat="49.06045" lon="-0.31013">
        <ele>95.2</ele>
        <time>2024-05-26T08:39:18Z</time>
      </trkpt>
      <trkpt lat="49.0605" lon="-0.31007">
        <ele>95.2</ele>
        <time>2024-05-26T08:39:19Z</time>
      </trkpt>
      <trkpt lat="49.06056" lon="-0.31">
        <ele>95.4</ele>
        <time>2024-05-26T08:39:20Z</time>
      </trkpt>
      <trkpt lat="49.06062" lon="-0.30994">
        <ele>95.4</ele>
        <time>2024-05-26T08:39:21Z</time>
      </trkpt>
      <trkpt lat="49.06067" lon="-0.30987">
        <ele>95.4</ele>
        <time>2024-05-26T08:39:22Z</time>
      </trkpt>
      <trkpt lat="49.06072" lon="-0.30981">
        <ele>95.4</ele>
        <time>2024-05-26T08:39:23Z</time>
      </trkpt>
      <trkpt lat="49.06077" lon="-0.30975">
        <ele>95.4</ele>
        <time>2024-05-26T08:39:24Z</time>
      </trkpt>
      <trkpt lat="49.06082" lon="-0.30967">
        <ele>95.4</ele>
        <time>2024-05-26T08:39:25Z</time>
      </trkpt>
      <trkpt lat="49.06086" lon="-0.3096">
        <ele>95.4</ele>
        <time>2024-05-26T08:39:26Z</time>
      </trkpt>
      <trkpt lat="49.06091" lon="-0.30953">
        <ele>95.6</ele>
        <time>2024-05-26T08:39:27Z</time>
      </trkpt>
      <trkpt lat="49.06096" lon="-0.30944">
        <ele>95.6</ele>
        <time>2024-05-26T08:39:28Z</time>
      </trkpt>
      <trkpt lat="49.061" lon="-0.30935">
        <ele>95.6</ele>
        <time>2024-05-26T08:39:29Z</time>
      </trkpt>
      <trkpt lat="49.06104" lon="-0.30926">
        <ele>95.8</ele>
        <time>2024-05-26T08:39:30Z</time>
      </trkpt>
      <trkpt lat="49.06109" lon="-0.30917">
        <ele>96.2</ele>
        <time>2024-05-26T08:39:31Z</time>
      </trkpt>
      <trkpt lat="49.06113" lon="-0.30908">
        <ele>96.6</ele>
        <time>2024-05-26T08:39:32Z</time>
      </trkpt>
      <trkpt lat="49.06117" lon="-0.30899">
        <ele>97</ele>
        <time>2024-05-26T08:39:33Z</time>
      </trkpt>
      <trkpt lat="49.06122" lon="-0.3089">
        <ele>97.2</ele>
        <time>2024-05-26T08:39:34Z</time>
      </trkpt>
      <trkpt lat="49.06126" lon="-0.3088">
        <ele>97.6</ele>
        <time>2024-05-26T08:39:35Z</time>
      </trkpt>
      <trkpt lat="49.06131" lon="-0.3087">
        <ele>97.8</ele>
        <time>2024-05-26T08:39:36Z</time>
      </trkpt>
      <trkpt lat="49.06135" lon="-0.30861">
        <ele>97.8</ele>
        <time>2024-05-26T08:39:37Z</time>
      </trkpt>
      <trkpt lat="49.0614" lon="-0.30852">
        <ele>98</ele>
        <time>2024-05-26T08:39:38Z</time>
      </trkpt>
      <trkpt lat="49.06144" lon="-0.30842">
        <ele>98</ele>
        <time>2024-05-26T08:39:39Z</time>
      </trkpt>
      <trkpt lat="49.06148" lon="-0.30833">
        <ele>98</ele>
        <time>2024-05-26T08:39:40Z</time>
      </trkpt>
      <trkpt lat="49.06152" lon="-0.30823">
        <ele>98.2</ele>
        <time>2024-05-26T08:39:41Z</time>
      </trkpt>
      <trkpt lat="49.06157" lon="-0.30814">
        <ele>98.2</ele>
        <time>2024-05-26T08:39:42Z</time>
      </trkpt>
      <trkpt lat="49.06163" lon="-0.30805">
        <ele>98.2</ele>
        <time>2024-05-26T08:39:43Z</time>
      </trkpt>
      <trkpt lat="49.06168" lon="-0.30795">
        <ele>98.2</ele>
        <time>2024-05-26T08:39:44Z</time>
      </trkpt>
      <trkpt lat="49.06174" lon="-0.30786">
        <ele>98.2</ele>
        <time>2024-05-26T08:39:45Z</time>
      </trkpt>
      <trkpt lat="49.0618" lon="-0.30776">
        <ele>98.2</ele>
        <time>2024-05-26T08:39:46Z</time>
      </trkpt>
      <trkpt lat="49.06186" lon="-0.30767">
        <ele>98.2</ele>
        <time>2024-05-26T08:39:47Z</time>
      </trkpt>
      <trkpt lat="49.06193" lon="-0.30757">
        <ele>98.2</ele>
        <time>2024-05-26T08:39:48Z</time>
      </trkpt>
      <trkpt lat="49.06199" lon="-0.30748">
        <ele>98.2</ele>
        <time>2024-05-26T08:39:49Z</time>
      </trkpt>
      <trkpt lat="49.06206" lon="-0.30739">
        <ele>98.2</ele>
        <time>2024-05-26T08:39:50Z</time>
      </trkpt>
      <trkpt lat="49.06213" lon="-0.3073">
        <ele>98.2</ele>
        <time>2024-05-26T08:39:51Z</time>
      </trkpt>
      <trkpt lat="49.0622" lon="-0.30721">
        <ele>98.2</ele>
        <time>2024-05-26T08:39:52Z</time>
      </trkpt>
      <trkpt lat="49.06227" lon="-0.30713">
        <ele>98.2</ele>
        <time>2024-05-26T08:39:53Z</time>
      </trkpt>
      <trkpt lat="49.06234" lon="-0.30705">
        <ele>98.2</ele>
        <time>2024-05-26T08:39:54Z</time>
      </trkpt>
      <trkpt lat="49.06241" lon="-0.30698">
        <ele>98.2</ele>
        <time>2024-05-26T08:39:55Z</time>
      </trkpt>
      <trkpt lat="49.06248" lon="-0.3069">
        <ele>98.2</ele>
        <time>2024-05-26T08:39:56Z</time>
      </trkpt>
      <trkpt lat="49.06256" lon="-0.30683">
        <ele>98.2</ele>
        <time>2024-05-26T08:39:57Z</time>
      </trkpt>
      <trkpt lat="49.06263" lon="-0.30676">
        <ele>98.2</ele>
        <time>2024-05-26T08:39:58Z</time>
      </trkpt>
      <trkpt lat="49.06271" lon="-0.30669">
        <ele>98</ele>
        <time>2024-05-26T08:39:59Z</time>
      </trkpt>
      <trkpt lat="49.06278" lon="-0.30661">
        <ele>98</ele>
        <time>2024-05-26T08:40:00Z</time>
      </trkpt>
      <trkpt lat="49.06285" lon="-0.30654">
        <ele>98</ele>
        <time>2024-05-26T08:40:01Z</time>
      </trkpt>
      <trkpt lat="49.06293" lon="-0.30647">
        <ele>98</ele>
        <time>2024-05-26T08:40:02Z</time>
      </trkpt>
      <trkpt lat="49.063" lon="-0.30639">
        <ele>98</ele>
        <time>2024-05-26T08:40:03Z</time>
      </trkpt>
      <trkpt lat="49.06307" lon="-0.30631">
        <ele>98</ele>
        <time>2024-05-26T08:40:04Z</time>
      </trkpt>
      <trkpt lat="49.06314" lon="-0.30624">
        <ele>98</ele>
        <time>2024-05-26T08:40:05Z</time>
      </trkpt>
      <trkpt lat="49.06322" lon="-0.30616">
        <ele>98</ele>
        <time>2024-05-26T08:40:06Z</time>
      </trkpt>
      <trkpt lat="49.06329" lon="-0.30609">
        <ele>97.8</ele>
        <time>2024-05-26T08:40:07Z</time>
      </trkpt>
      <trkpt lat="49.06336" lon="-0.30602">
        <ele>97.8</ele>
        <time>2024-05-26T08:40:08Z</time>
      </trkpt>
      <trkpt lat="49.06343" lon="-0.30595">
        <ele>97.8</ele>
        <time>2024-05-26T08:40:09Z</time>
      </trkpt>
      <trkpt lat="49.0635" lon="-0.30588">
        <ele>97.8</ele>
        <time>2024-05-26T08:40:10Z</time>
      </trkpt>
      <trkpt lat="49.06358" lon="-0.30581">
        <ele>97.6</ele>
        <time>2024-05-26T08:40:11Z</time>
      </trkpt>
      <trkpt lat="49.06365" lon="-0.30575">
        <ele>97.6</ele>
        <time>2024-05-26T08:40:12Z</time>
      </trkpt>
      <trkpt lat="49.06372" lon="-0.30568">
        <ele>97.6</ele>
        <time>2024-05-26T08:40:13Z</time>
      </trkpt>
      <trkpt lat="49.06378" lon="-0.30562">
        <ele>97.6</ele>
        <time>2024-05-26T08:40:14Z</time>
      </trkpt>
      <trkpt lat="49.06385" lon="-0.30555">
        <ele>97.6</ele>
        <time>2024-05-26T08:40:15Z</time>
      </trkpt>
      <trkpt lat="49.06392" lon="-0.30548">
        <ele>97.6</ele>
        <time>2024-05-26T08:40:16Z</time>
      </trkpt>
      <trkpt lat="49.06398" lon="-0.30541">
        <ele>97.6</ele>
        <time>2024-05-26T08:40:17Z</time>
      </trkpt>
      <trkpt lat="49.06405" lon="-0.30535">
        <ele>97.6</ele>
        <time>2024-05-26T08:40:18Z</time>
      </trkpt>
      <trkpt lat="49.06412" lon="-0.30528">
        <ele>97.6</ele>
        <time>2024-05-26T08:40:19Z</time>
      </trkpt>
      <trkpt lat="49.06419" lon="-0.30521">
        <ele>97.6</ele>
        <time>2024-05-26T08:40:20Z</time>
      </trkpt>
      <trkpt lat="49.06426" lon="-0.30515">
        <ele>97.6</ele>
        <time>2024-05-26T08:40:21Z</time>
      </trkpt>
      <trkpt lat="49.06432" lon="-0.30508">
        <ele>97.6</ele>
        <time>2024-05-26T08:40:22Z</time>
      </trkpt>
      <trkpt lat="49.06439" lon="-0.305">
        <ele>97.6</ele>
        <time>2024-05-26T08:40:23Z</time>
      </trkpt>
      <trkpt lat="49.06446" lon="-0.30493">
        <ele>97.8</ele>
        <time>2024-05-26T08:40:24Z</time>
      </trkpt>
      <trkpt lat="49.06453" lon="-0.30486">
        <ele>98</ele>
        <time>2024-05-26T08:40:25Z</time>
      </trkpt>
      <trkpt lat="49.0646" lon="-0.30479">
        <ele>98.2</ele>
        <time>2024-05-26T08:40:26Z</time>
      </trkpt>
      <trkpt lat="49.06468" lon="-0.30472">
        <ele>98.4</ele>
        <time>2024-05-26T08:40:27Z</time>
      </trkpt>
      <trkpt lat="49.06475" lon="-0.30465">
        <ele>98.6</ele>
        <time>2024-05-26T08:40:28Z</time>
      </trkpt>
      <trkpt lat="49.06482" lon="-0.30457">
        <ele>98.6</ele>
        <time>2024-05-26T08:40:29Z</time>
      </trkpt>
      <trkpt lat="49.06489" lon="-0.3045">
        <ele>98.6</ele>
        <time>2024-05-26T08:40:30Z</time>
      </trkpt>
      <trkpt lat="49.06496" lon="-0.30442">
        <ele>98.8</ele>
        <time>2024-05-26T08:40:31Z</time>
      </trkpt>
      <trkpt lat="49.06502" lon="-0.30435">
        <ele>98.8</ele>
        <time>2024-05-26T08:40:32Z</time>
      </trkpt>
      <trkpt lat="49.06509" lon="-0.30427">
        <ele>99</ele>
        <time>2024-05-26T08:40:33Z</time>
      </trkpt>
      <trkpt lat="49.06516" lon="-0.30419">
        <ele>99</ele>
        <time>2024-05-26T08:40:34Z</time>
      </trkpt>
      <trkpt lat="49.06523" lon="-0.30411">
        <ele>99</ele>
        <time>2024-05-26T08:40:35Z</time>
      </trkpt>
      <trkpt lat="49.06529" lon="-0.30404">
        <ele>99.2</ele>
        <time>2024-05-26T08:40:36Z</time>
      </trkpt>
      <trkpt lat="49.06536" lon="-0.30396">
        <ele>99.2</ele>
        <time>2024-05-26T08:40:37Z</time>
      </trkpt>
      <trkpt lat="49.06543" lon="-0.30388">
        <ele>99.2</ele>
        <time>2024-05-26T08:40:38Z</time>
      </trkpt>
      <trkpt lat="49.0655" lon="-0.3038">
        <ele>99.2</ele>
        <time>2024-05-26T08:40:39Z</time>
      </trkpt>
      <trkpt lat="49.06556" lon="-0.30372">
        <ele>99.2</ele>
        <time>2024-05-26T08:40:40Z</time>
      </trkpt>
      <trkpt lat="49.06563" lon="-0.30365">
        <ele>99.2</ele>
        <time>2024-05-26T08:40:41Z</time>
      </trkpt>
      <trkpt lat="49.0657" lon="-0.30357">
        <ele>99.2</ele>
        <time>2024-05-26T08:40:42Z</time>
      </trkpt>
      <trkpt lat="49.06577" lon="-0.30349">
        <ele>99.4</ele>
        <time>2024-05-26T08:40:43Z</time>
      </trkpt>
      <trkpt lat="49.06584" lon="-0.30342">
        <ele>99.4</ele>
        <time>2024-05-26T08:40:44Z</time>
      </trkpt>
      <trkpt lat="49.0659" lon="-0.30334">
        <ele>99.6</ele>
        <time>2024-05-26T08:40:45Z</time>
      </trkpt>
      <trkpt lat="49.06597" lon="-0.30326">
        <ele>99.6</ele>
        <time>2024-05-26T08:40:46Z</time>
      </trkpt>
      <trkpt lat="49.06604" lon="-0.30319">
        <ele>99.8</ele>
        <time>2024-05-26T08:40:47Z</time>
      </trkpt>
      <trkpt lat="49.0661" lon="-0.30312">
        <ele>99.8</ele>
        <time>2024-05-26T08:40:48Z</time>
      </trkpt>
      <trkpt lat="49.06616" lon="-0.30304">
        <ele>99.8</ele>
        <time>2024-05-26T08:40:49Z</time>
      </trkpt>
      <trkpt lat="49.06623" lon="-0.30297">
        <ele>100</ele>
        <time>2024-05-26T08:40:50Z</time>
      </trkpt>
      <trkpt lat="49.06629" lon="-0.3029">
        <ele>100</ele>
        <time>2024-05-26T08:40:51Z</time>
      </trkpt>
      <trkpt lat="49.06635" lon="-0.30283">
        <ele>100</ele>
        <time>2024-05-26T08:40:52Z</time>
      </trkpt>
      <trkpt lat="49.06642" lon="-0.30275">
        <ele>100.2</ele>
        <time>2024-05-26T08:40:53Z</time>
      </trkpt>
      <trkpt lat="49.06648" lon="-0.30268">
        <ele>100.4</ele>
        <time>2024-05-26T08:40:54Z</time>
      </trkpt>
      <trkpt lat="49.06654" lon="-0.30261">
        <ele>100.6</ele>
        <time>2024-05-26T08:40:55Z</time>
      </trkpt>
      <trkpt lat="49.06661" lon="-0.30254">
        <ele>100.8</ele>
        <time>2024-05-26T08:40:56Z</time>
      </trkpt>
      <trkpt lat="49.06667" lon="-0.30248">
        <ele>101</ele>
        <time>2024-05-26T08:40:57Z</time>
      </trkpt>
      <trkpt lat="49.06674" lon="-0.30241">
        <ele>101.4</ele>
        <time>2024-05-26T08:40:58Z</time>
      </trkpt>
      <trkpt lat="49.06681" lon="-0.30235">
        <ele>101.6</ele>
        <time>2024-05-26T08:40:59Z</time>
      </trkpt>
      <trkpt lat="49.06688" lon="-0.3023">
        <ele>101.6</ele>
        <time>2024-05-26T08:41:00Z</time>
      </trkpt>
      <trkpt lat="49.06696" lon="-0.30224">
        <ele>102.2</ele>
        <time>2024-05-26T08:41:01Z</time>
      </trkpt>
      <trkpt lat="49.06703" lon="-0.3022">
        <ele>102.2</ele>
        <time>2024-05-26T08:41:02Z</time>
      </trkpt>
      <trkpt lat="49.06711" lon="-0.30215">
        <ele>102.4</ele>
        <time>2024-05-26T08:41:03Z</time>
      </trkpt>
      <trkpt lat="49.06718" lon="-0.30212">
        <ele>102.8</ele>
        <time>2024-05-26T08:41:04Z</time>
      </trkpt>
      <trkpt lat="49.06726" lon="-0.30208">
        <ele>102.8</ele>
        <time>2024-05-26T08:41:05Z</time>
      </trkpt>
      <trkpt lat="49.06735" lon="-0.30205">
        <ele>102.8</ele>
        <time>2024-05-26T08:41:06Z</time>
      </trkpt>
      <trkpt lat="49.06743" lon="-0.30202">
        <ele>103</ele>
        <time>2024-05-26T08:41:07Z</time>
      </trkpt>
      <trkpt lat="49.06751" lon="-0.30199">
        <ele>103.2</ele>
        <time>2024-05-26T08:41:08Z</time>
      </trkpt>
      <trkpt lat="49.06759" lon="-0.30196">
        <ele>103.4</ele>
        <time>2024-05-26T08:41:09Z</time>
      </trkpt>
      <trkpt lat="49.06768" lon="-0.30193">
        <ele>103.4</ele>
        <time>2024-05-26T08:41:10Z</time>
      </trkpt>
      <trkpt lat="49.06776" lon="-0.3019">
        <ele>103.6</ele>
        <time>2024-05-26T08:41:11Z</time>
      </trkpt>
      <trkpt lat="49.06784" lon="-0.30188">
        <ele>103.6</ele>
        <time>2024-05-26T08:41:12Z</time>
      </trkpt>
      <trkpt lat="49.06792" lon="-0.30185">
        <ele>103.6</ele>
        <time>2024-05-26T08:41:13Z</time>
      </trkpt>
      <trkpt lat="49.068" lon="-0.30182">
        <ele>103.6</ele>
        <time>2024-05-26T08:41:14Z</time>
      </trkpt>
      <trkpt lat="49.06809" lon="-0.30179">
        <ele>103.6</ele>
        <time>2024-05-26T08:41:15Z</time>
      </trkpt>
      <trkpt lat="49.06817" lon="-0.30176">
        <ele>103.6</ele>
        <time>2024-05-26T08:41:16Z</time>
      </trkpt>
      <trkpt lat="49.06825" lon="-0.30173">
        <ele>103.6</ele>
        <time>2024-05-26T08:41:17Z</time>
      </trkpt>
      <trkpt lat="49.06833" lon="-0.30171">
        <ele>103.6</ele>
        <time>2024-05-26T08:41:18Z</time>
      </trkpt>
      <trkpt lat="49.06842" lon="-0.30168">
        <ele>103.6</ele>
        <time>2024-05-26T08:41:19Z</time>
      </trkpt>
      <trkpt lat="49.06851" lon="-0.30164">
        <ele>103.6</ele>
        <time>2024-05-26T08:41:20Z</time>
      </trkpt>
      <trkpt lat="49.06858" lon="-0.30162">
        <ele>103.6</ele>
        <time>2024-05-26T08:41:21Z</time>
      </trkpt>
      <trkpt lat="49.06867" lon="-0.30159">
        <ele>103.6</ele>
        <time>2024-05-26T08:41:22Z</time>
      </trkpt>
      <trkpt lat="49.06875" lon="-0.30155">
        <ele>103.6</ele>
        <time>2024-05-26T08:41:23Z</time>
      </trkpt>
      <trkpt lat="49.06883" lon="-0.30152">
        <ele>103.6</ele>
        <time>2024-05-26T08:41:24Z</time>
      </trkpt>
      <trkpt lat="49.06892" lon="-0.30149">
        <ele>103.6</ele>
        <time>2024-05-26T08:41:25Z</time>
      </trkpt>
      <trkpt lat="49.069" lon="-0.30146">
        <ele>103.6</ele>
        <time>2024-05-26T08:41:26Z</time>
      </trkpt>
      <trkpt lat="49.06908" lon="-0.30144">
        <ele>103.6</ele>
        <time>2024-05-26T08:41:27Z</time>
      </trkpt>
      <trkpt lat="49.06916" lon="-0.3014">
        <ele>103.6</ele>
        <time>2024-05-26T08:41:28Z</time>
      </trkpt>
      <trkpt lat="49.06924" lon="-0.30138">
        <ele>103.6</ele>
        <time>2024-05-26T08:41:29Z</time>
      </trkpt>
      <trkpt lat="49.06933" lon="-0.30135">
        <ele>103.6</ele>
        <time>2024-05-26T08:41:30Z</time>
      </trkpt>
      <trkpt lat="49.06941" lon="-0.30132">
        <ele>103.6</ele>
        <time>2024-05-26T08:41:31Z</time>
      </trkpt>
      <trkpt lat="49.06949" lon="-0.30129">
        <ele>103.6</ele>
        <time>2024-05-26T08:41:32Z</time>
      </trkpt>
      <trkpt lat="49.06957" lon="-0.30127">
        <ele>103.6</ele>
        <time>2024-05-26T08:41:33Z</time>
      </trkpt>
      <trkpt lat="49.06965" lon="-0.30124">
        <ele>103.6</ele>
        <time>2024-05-26T08:41:34Z</time>
      </trkpt>
      <trkpt lat="49.06975" lon="-0.3012">
        <ele>103.6</ele>
        <time>2024-05-26T08:41:35Z</time>
      </trkpt>
      <trkpt lat="49.06982" lon="-0.30117">
        <ele>103.6</ele>
        <time>2024-05-26T08:41:36Z</time>
      </trkpt>
      <trkpt lat="49.0699" lon="-0.30114">
        <ele>103.6</ele>
        <time>2024-05-26T08:41:37Z</time>
      </trkpt>
      <trkpt lat="49.07" lon="-0.30111">
        <ele>103.8</ele>
        <time>2024-05-26T08:41:38Z</time>
      </trkpt>
      <trkpt lat="49.07007" lon="-0.30109">
        <ele>103.8</ele>
        <time>2024-05-26T08:41:39Z</time>
      </trkpt>
      <trkpt lat="49.07015" lon="-0.30106">
        <ele>103.8</ele>
        <time>2024-05-26T08:41:40Z</time>
      </trkpt>
      <trkpt lat="49.07024" lon="-0.30103">
        <ele>103.8</ele>
        <time>2024-05-26T08:41:41Z</time>
      </trkpt>
      <trkpt lat="49.07032" lon="-0.301">
        <ele>103.8</ele>
        <time>2024-05-26T08:41:42Z</time>
      </trkpt>
      <trkpt lat="49.0704" lon="-0.30097">
        <ele>103.8</ele>
        <time>2024-05-26T08:41:43Z</time>
      </trkpt>
      <trkpt lat="49.07048" lon="-0.30094">
        <ele>103.8</ele>
        <time>2024-05-26T08:41:44Z</time>
      </trkpt>
      <trkpt lat="49.07057" lon="-0.30092">
        <ele>103.8</ele>
        <time>2024-05-26T08:41:45Z</time>
      </trkpt>
      <trkpt lat="49.07065" lon="-0.30088">
        <ele>103.8</ele>
        <time>2024-05-26T08:41:46Z</time>
      </trkpt>
      <trkpt lat="49.07074" lon="-0.30084">
        <ele>103.8</ele>
        <time>2024-05-26T08:41:47Z</time>
      </trkpt>
      <trkpt lat="49.07081" lon="-0.3008">
        <ele>104</ele>
        <time>2024-05-26T08:41:48Z</time>
      </trkpt>
      <trkpt lat="49.07088" lon="-0.30075">
        <ele>104</ele>
        <time>2024-05-26T08:41:49Z</time>
      </trkpt>
      <trkpt lat="49.07095" lon="-0.3007">
        <ele>104</ele>
        <time>2024-05-26T08:41:50Z</time>
      </trkpt>
      <trkpt lat="49.07102" lon="-0.30063">
        <ele>104</ele>
        <time>2024-05-26T08:41:51Z</time>
      </trkpt>
      <trkpt lat="49.07109" lon="-0.30056">
        <ele>104</ele>
        <time>2024-05-26T08:41:52Z</time>
      </trkpt>
      <trkpt lat="49.07115" lon="-0.30049">
        <ele>104</ele>
        <time>2024-05-26T08:41:53Z</time>
      </trkpt>
      <trkpt lat="49.07122" lon="-0.30041">
        <ele>104</ele>
        <time>2024-05-26T08:41:54Z</time>
      </trkpt>
      <trkpt lat="49.07127" lon="-0.30032">
        <ele>104</ele>
        <time>2024-05-26T08:41:55Z</time>
      </trkpt>
      <trkpt lat="49.07133" lon="-0.30023">
        <ele>104</ele>
        <time>2024-05-26T08:41:56Z</time>
      </trkpt>
      <trkpt lat="49.07138" lon="-0.30013">
        <ele>104</ele>
        <time>2024-05-26T08:41:57Z</time>
      </trkpt>
      <trkpt lat="49.07143" lon="-0.30003">
        <ele>104.2</ele>
        <time>2024-05-26T08:41:58Z</time>
      </trkpt>
      <trkpt lat="49.07147" lon="-0.29993">
        <ele>104.2</ele>
        <time>2024-05-26T08:41:59Z</time>
      </trkpt>
      <trkpt lat="49.0715" lon="-0.29982">
        <ele>104.2</ele>
        <time>2024-05-26T08:42:00Z</time>
      </trkpt>
      <trkpt lat="49.07154" lon="-0.29971">
        <ele>104.2</ele>
        <time>2024-05-26T08:42:01Z</time>
      </trkpt>
      <trkpt lat="49.07157" lon="-0.29959">
        <ele>104.2</ele>
        <time>2024-05-26T08:42:02Z</time>
      </trkpt>
      <trkpt lat="49.07159" lon="-0.29947">
        <ele>104.4</ele>
        <time>2024-05-26T08:42:03Z</time>
      </trkpt>
      <trkpt lat="49.07161" lon="-0.29936">
        <ele>104.4</ele>
        <time>2024-05-26T08:42:04Z</time>
      </trkpt>
      <trkpt lat="49.07163" lon="-0.29924">
        <ele>104.6</ele>
        <time>2024-05-26T08:42:05Z</time>
      </trkpt>
      <trkpt lat="49.07165" lon="-0.29913">
        <ele>104.8</ele>
        <time>2024-05-26T08:42:06Z</time>
      </trkpt>
      <trkpt lat="49.07167" lon="-0.29901">
        <ele>105</ele>
        <time>2024-05-26T08:42:07Z</time>
      </trkpt>
      <trkpt lat="49.07169" lon="-0.29889">
        <ele>105</ele>
        <time>2024-05-26T08:42:08Z</time>
      </trkpt>
      <trkpt lat="49.0717" lon="-0.29878">
        <ele>105</ele>
        <time>2024-05-26T08:42:09Z</time>
      </trkpt>
      <trkpt lat="49.07172" lon="-0.29866">
        <ele>105.2</ele>
        <time>2024-05-26T08:42:10Z</time>
      </trkpt>
      <trkpt lat="49.07174" lon="-0.29853">
        <ele>105.2</ele>
        <time>2024-05-26T08:42:11Z</time>
      </trkpt>
      <trkpt lat="49.07176" lon="-0.29844">
        <ele>105.4</ele>
        <time>2024-05-26T08:42:12Z</time>
      </trkpt>
      <trkpt lat="49.07177" lon="-0.29833">
        <ele>105.4</ele>
        <time>2024-05-26T08:42:13Z</time>
      </trkpt>
      <trkpt lat="49.07179" lon="-0.29823">
        <ele>105.6</ele>
        <time>2024-05-26T08:42:14Z</time>
      </trkpt>
      <trkpt lat="49.07181" lon="-0.29812">
        <ele>105.6</ele>
        <time>2024-05-26T08:42:15Z</time>
      </trkpt>
      <trkpt lat="49.07183" lon="-0.29802">
        <ele>105.6</ele>
        <time>2024-05-26T08:42:16Z</time>
      </trkpt>
      <trkpt lat="49.07184" lon="-0.29792">
        <ele>105.6</ele>
        <time>2024-05-26T08:42:17Z</time>
      </trkpt>
      <trkpt lat="49.07186" lon="-0.29781">
        <ele>106</ele>
        <time>2024-05-26T08:42:18Z</time>
      </trkpt>
      <trkpt lat="49.07187" lon="-0.29771">
        <ele>106.2</ele>
        <time>2024-05-26T08:42:19Z</time>
      </trkpt>
      <trkpt lat="49.07188" lon="-0.29762">
        <ele>106.8</ele>
        <time>2024-05-26T08:42:20Z</time>
      </trkpt>
      <trkpt lat="49.0719" lon="-0.29752">
        <ele>107</ele>
        <time>2024-05-26T08:42:21Z</time>
      </trkpt>
      <trkpt lat="49.07191" lon="-0.29743">
        <ele>107.2</ele>
        <time>2024-05-26T08:42:22Z</time>
      </trkpt>
      <trkpt lat="49.07193" lon="-0.29734">
        <ele>107.6</ele>
        <time>2024-05-26T08:42:23Z</time>
      </trkpt>
      <trkpt lat="49.07195" lon="-0.29725">
        <ele>108</ele>
        <time>2024-05-26T08:42:24Z</time>
      </trkpt>
      <trkpt lat="49.07197" lon="-0.29716">
        <ele>108.2</ele>
        <time>2024-05-26T08:42:25Z</time>
      </trkpt>
      <trkpt lat="49.07199" lon="-0.29706">
        <ele>108.6</ele>
        <time>2024-05-26T08:42:26Z</time>
      </trkpt>
      <trkpt lat="49.07202" lon="-0.29697">
        <ele>109.2</ele>
        <time>2024-05-26T08:42:27Z</time>
      </trkpt>
      <trkpt lat="49.07205" lon="-0.29687">
        <ele>109.8</ele>
        <time>2024-05-26T08:42:28Z</time>
      </trkpt>
      <trkpt lat="49.07208" lon="-0.29677">
        <ele>110.4</ele>
        <time>2024-05-26T08:42:29Z</time>
      </trkpt>
      <trkpt lat="49.0721" lon="-0.29667">
        <ele>111</ele>
        <time>2024-05-26T08:42:30Z</time>
      </trkpt>
      <trkpt lat="49.07213" lon="-0.29655">
        <ele>111.6</ele>
        <time>2024-05-26T08:42:31Z</time>
      </trkpt>
      <trkpt lat="49.07215" lon="-0.29646">
        <ele>112</ele>
        <time>2024-05-26T08:42:32Z</time>
      </trkpt>
      <trkpt lat="49.07217" lon="-0.29636">
        <ele>112</ele>
        <time>2024-05-26T08:42:33Z</time>
      </trkpt>
      <trkpt lat="49.0722" lon="-0.29626">
        <ele>112.4</ele>
        <time>2024-05-26T08:42:34Z</time>
      </trkpt>
      <trkpt lat="49.07223" lon="-0.29615">
        <ele>112.6</ele>
        <time>2024-05-26T08:42:35Z</time>
      </trkpt>
      <trkpt lat="49.07226" lon="-0.29604">
        <ele>113</ele>
        <time>2024-05-26T08:42:36Z</time>
      </trkpt>
      <trkpt lat="49.0723" lon="-0.29594">
        <ele>113.2</ele>
        <time>2024-05-26T08:42:37Z</time>
      </trkpt>
      <trkpt lat="49.07235" lon="-0.29583">
        <ele>113.4</ele>
        <time>2024-05-26T08:42:38Z</time>
      </trkpt>
      <trkpt lat="49.07241" lon="-0.29573">
        <ele>113.4</ele>
        <time>2024-05-26T08:42:39Z</time>
      </trkpt>
      <trkpt lat="49.07247" lon="-0.29563">
        <ele>113.4</ele>
        <time>2024-05-26T08:42:40Z</time>
      </trkpt>
      <trkpt lat="49.07253" lon="-0.29554">
        <ele>113.4</ele>
        <time>2024-05-26T08:42:41Z</time>
      </trkpt>
      <trkpt lat="49.07261" lon="-0.29545">
        <ele>113.4</ele>
        <time>2024-05-26T08:42:42Z</time>
      </trkpt>
      <trkpt lat="49.07269" lon="-0.29538">
        <ele>113.4</ele>
        <time>2024-05-26T08:42:43Z</time>
      </trkpt>
      <trkpt lat="49.07278" lon="-0.29531">
        <ele>113.4</ele>
        <time>2024-05-26T08:42:44Z</time>
      </trkpt>
      <trkpt lat="49.07287" lon="-0.29526">
        <ele>113.4</ele>
        <time>2024-05-26T08:42:45Z</time>
      </trkpt>
      <trkpt lat="49.07297" lon="-0.29521">
        <ele>113.2</ele>
        <time>2024-05-26T08:42:46Z</time>
      </trkpt>
      <trkpt lat="49.07306" lon="-0.29519">
        <ele>112.8</ele>
        <time>2024-05-26T08:42:47Z</time>
      </trkpt>
      <trkpt lat="49.07316" lon="-0.29517">
        <ele>112</ele>
        <time>2024-05-26T08:42:48Z</time>
      </trkpt>
      <trkpt lat="49.07326" lon="-0.29517">
        <ele>111.4</ele>
        <time>2024-05-26T08:42:49Z</time>
      </trkpt>
      <trkpt lat="49.07336" lon="-0.29518">
        <ele>110.8</ele>
        <time>2024-05-26T08:42:50Z</time>
      </trkpt>
      <trkpt lat="49.07345" lon="-0.2952">
        <ele>110.6</ele>
        <time>2024-05-26T08:42:51Z</time>
      </trkpt>
      <trkpt lat="49.07355" lon="-0.29524">
        <ele>110.2</ele>
        <time>2024-05-26T08:42:52Z</time>
      </trkpt>
      <trkpt lat="49.07364" lon="-0.29528">
        <ele>109.8</ele>
        <time>2024-05-26T08:42:53Z</time>
      </trkpt>
      <trkpt lat="49.07372" lon="-0.29534">
        <ele>109</ele>
        <time>2024-05-26T08:42:54Z</time>
      </trkpt>
      <trkpt lat="49.0738" lon="-0.29541">
        <ele>109</ele>
        <time>2024-05-26T08:42:55Z</time>
      </trkpt>
      <trkpt lat="49.07388" lon="-0.29548">
        <ele>108</ele>
        <time>2024-05-26T08:42:56Z</time>
      </trkpt>
      <trkpt lat="49.07395" lon="-0.29557">
        <ele>107.2</ele>
        <time>2024-05-26T08:42:57Z</time>
      </trkpt>
      <trkpt lat="49.07402" lon="-0.29566">
        <ele>106.6</ele>
        <time>2024-05-26T08:42:58Z</time>
      </trkpt>
      <trkpt lat="49.07407" lon="-0.29576">
        <ele>106.4</ele>
        <time>2024-05-26T08:42:59Z</time>
      </trkpt>
      <trkpt lat="49.07412" lon="-0.29586">
        <ele>106.2</ele>
        <time>2024-05-26T08:43:00Z</time>
      </trkpt>
      <trkpt lat="49.07418" lon="-0.29599">
        <ele>106.2</ele>
        <time>2024-05-26T08:43:01Z</time>
      </trkpt>
      <trkpt lat="49.07421" lon="-0.29606">
        <ele>106</ele>
        <time>2024-05-26T08:43:02Z</time>
      </trkpt>
      <trkpt lat="49.07425" lon="-0.29614">
        <ele>106</ele>
        <time>2024-05-26T08:43:03Z</time>
      </trkpt>
      <trkpt lat="49.0743" lon="-0.29619">
        <ele>105.8</ele>
        <time>2024-05-26T08:43:04Z</time>
      </trkpt>
      <trkpt lat="49.07436" lon="-0.29622">
        <ele>105.8</ele>
        <time>2024-05-26T08:43:05Z</time>
      </trkpt>
      <trkpt lat="49.07442" lon="-0.29622">
        <ele>105.8</ele>
        <time>2024-05-26T08:43:06Z</time>
      </trkpt>
      <trkpt lat="49.07448" lon="-0.29621">
        <ele>105.8</ele>
        <time>2024-05-26T08:43:07Z</time>
      </trkpt>
      <trkpt lat="49.07455" lon="-0.2962">
        <ele>105.8</ele>
        <time>2024-05-26T08:43:08Z</time>
      </trkpt>
      <trkpt lat="49.07461" lon="-0.2962">
        <ele>105.8</ele>
        <time>2024-05-26T08:43:09Z</time>
      </trkpt>
      <trkpt lat="49.07467" lon="-0.2962">
        <ele>105.8</ele>
        <time>2024-05-26T08:43:10Z</time>
      </trkpt>
      <trkpt lat="49.07473" lon="-0.29622">
        <ele>105.8</ele>
        <time>2024-05-26T08:43:11Z</time>
      </trkpt>
      <trkpt lat="49.0748" lon="-0.29624">
        <ele>105.8</ele>
        <time>2024-05-26T08:43:12Z</time>
      </trkpt>
      <trkpt lat="49.07487" lon="-0.29627">
        <ele>105.8</ele>
        <time>2024-05-26T08:43:13Z</time>
      </trkpt>
      <trkpt lat="49.07491" lon="-0.29629">
        <ele>105.8</ele>
        <time>2024-05-26T08:43:14Z</time>
      </trkpt>
      <trkpt lat="49.07498" lon="-0.29632">
        <ele>105.8</ele>
        <time>2024-05-26T08:43:15Z</time>
      </trkpt>
      <trkpt lat="49.07504" lon="-0.29633">
        <ele>105.8</ele>
        <time>2024-05-26T08:43:16Z</time>
      </trkpt>
      <trkpt lat="49.07511" lon="-0.29635">
        <ele>105.8</ele>
        <time>2024-05-26T08:43:17Z</time>
      </trkpt>
      <trkpt lat="49.07517" lon="-0.29636">
        <ele>105.8</ele>
        <time>2024-05-26T08:43:18Z</time>
      </trkpt>
      <trkpt lat="49.07524" lon="-0.29637">
        <ele>105.8</ele>
        <time>2024-05-26T08:43:19Z</time>
      </trkpt>
      <trkpt lat="49.07531" lon="-0.29636">
        <ele>105.8</ele>
        <time>2024-05-26T08:43:20Z</time>
      </trkpt>
      <trkpt lat="49.07538" lon="-0.29634">
        <ele>105.8</ele>
        <time>2024-05-26T08:43:21Z</time>
      </trkpt>
      <trkpt lat="49.07544" lon="-0.2963">
        <ele>105.8</ele>
        <time>2024-05-26T08:43:22Z</time>
      </trkpt>
      <trkpt lat="49.07551" lon="-0.29625">
        <ele>105.8</ele>
        <time>2024-05-26T08:43:23Z</time>
      </trkpt>
      <trkpt lat="49.07557" lon="-0.2962">
        <ele>105.8</ele>
        <time>2024-05-26T08:43:24Z</time>
      </trkpt>
      <trkpt lat="49.07564" lon="-0.29614">
        <ele>106</ele>
        <time>2024-05-26T08:43:25Z</time>
      </trkpt>
      <trkpt lat="49.0757" lon="-0.29608">
        <ele>106</ele>
        <time>2024-05-26T08:43:26Z</time>
      </trkpt>
      <trkpt lat="49.07577" lon="-0.29602">
        <ele>106</ele>
        <time>2024-05-26T08:43:27Z</time>
      </trkpt>
      <trkpt lat="49.07583" lon="-0.29595">
        <ele>106.2</ele>
        <time>2024-05-26T08:43:28Z</time>
      </trkpt>
      <trkpt lat="49.07589" lon="-0.29589">
        <ele>106.2</ele>
        <time>2024-05-26T08:43:29Z</time>
      </trkpt>
      <trkpt lat="49.07596" lon="-0.29582">
        <ele>106.2</ele>
        <time>2024-05-26T08:43:30Z</time>
      </trkpt>
      <trkpt lat="49.07602" lon="-0.29576">
        <ele>106.2</ele>
        <time>2024-05-26T08:43:31Z</time>
      </trkpt>
      <trkpt lat="49.07609" lon="-0.2957">
        <ele>106.2</ele>
        <time>2024-05-26T08:43:32Z</time>
      </trkpt>
      <trkpt lat="49.07615" lon="-0.29563">
        <ele>106.4</ele>
        <time>2024-05-26T08:43:33Z</time>
      </trkpt>
      <trkpt lat="49.07621" lon="-0.29557">
        <ele>106.4</ele>
        <time>2024-05-26T08:43:34Z</time>
      </trkpt>
      <trkpt lat="49.07628" lon="-0.2955">
        <ele>106.4</ele>
        <time>2024-05-26T08:43:35Z</time>
      </trkpt>
      <trkpt lat="49.07634" lon="-0.29544">
        <ele>106.4</ele>
        <time>2024-05-26T08:43:36Z</time>
      </trkpt>
      <trkpt lat="49.07641" lon="-0.29537">
        <ele>106.4</ele>
        <time>2024-05-26T08:43:37Z</time>
      </trkpt>
      <trkpt lat="49.07648" lon="-0.2953">
        <ele>106.4</ele>
        <time>2024-05-26T08:43:38Z</time>
      </trkpt>
      <trkpt lat="49.07656" lon="-0.29522">
        <ele>106.4</ele>
        <time>2024-05-26T08:43:39Z</time>
      </trkpt>
      <trkpt lat="49.07661" lon="-0.29516">
        <ele>106.4</ele>
        <time>2024-05-26T08:43:40Z</time>
      </trkpt>
      <trkpt lat="49.07668" lon="-0.29509">
        <ele>106.6</ele>
        <time>2024-05-26T08:43:41Z</time>
      </trkpt>
      <trkpt lat="49.07674" lon="-0.29502">
        <ele>106.6</ele>
        <time>2024-05-26T08:43:42Z</time>
      </trkpt>
      <trkpt lat="49.07681" lon="-0.29495">
        <ele>106.6</ele>
        <time>2024-05-26T08:43:43Z</time>
      </trkpt>
      <trkpt lat="49.07688" lon="-0.29488">
        <ele>106.6</ele>
        <time>2024-05-26T08:43:44Z</time>
      </trkpt>
      <trkpt lat="49.07695" lon="-0.29479">
        <ele>106.6</ele>
        <time>2024-05-26T08:43:45Z</time>
      </trkpt>
      <trkpt lat="49.077" lon="-0.29473">
        <ele>106.6</ele>
        <time>2024-05-26T08:43:46Z</time>
      </trkpt>
      <trkpt lat="49.07707" lon="-0.29466">
        <ele>106.6</ele>
        <time>2024-05-26T08:43:47Z</time>
      </trkpt>
      <trkpt lat="49.07713" lon="-0.29458">
        <ele>106.6</ele>
        <time>2024-05-26T08:43:48Z</time>
      </trkpt>
      <trkpt lat="49.0772" lon="-0.29451">
        <ele>106.6</ele>
        <time>2024-05-26T08:43:49Z</time>
      </trkpt>
      <trkpt lat="49.07727" lon="-0.29443">
        <ele>106.8</ele>
        <time>2024-05-26T08:43:50Z</time>
      </trkpt>
      <trkpt lat="49.07734" lon="-0.29433">
        <ele>106.8</ele>
        <time>2024-05-26T08:43:51Z</time>
      </trkpt>
      <trkpt lat="49.0774" lon="-0.29427">
        <ele>106.8</ele>
        <time>2024-05-26T08:43:52Z</time>
      </trkpt>
      <trkpt lat="49.07746" lon="-0.29418">
        <ele>106.8</ele>
        <time>2024-05-26T08:43:53Z</time>
      </trkpt>
      <trkpt lat="49.07752" lon="-0.2941">
        <ele>106.8</ele>
        <time>2024-05-26T08:43:54Z</time>
      </trkpt>
      <trkpt lat="49.07758" lon="-0.29401">
        <ele>107</ele>
        <time>2024-05-26T08:43:55Z</time>
      </trkpt>
      <trkpt lat="49.07764" lon="-0.29392">
        <ele>107</ele>
        <time>2024-05-26T08:43:56Z</time>
      </trkpt>
      <trkpt lat="49.0777" lon="-0.29382">
        <ele>107</ele>
        <time>2024-05-26T08:43:57Z</time>
      </trkpt>
      <trkpt lat="49.07775" lon="-0.29372">
        <ele>107</ele>
        <time>2024-05-26T08:43:58Z</time>
      </trkpt>
      <trkpt lat="49.07781" lon="-0.29363">
        <ele>107</ele>
        <time>2024-05-26T08:43:59Z</time>
      </trkpt>
      <trkpt lat="49.07786" lon="-0.29353">
        <ele>107</ele>
        <time>2024-05-26T08:44:00Z</time>
      </trkpt>
      <trkpt lat="49.07791" lon="-0.29343">
        <ele>107</ele>
        <time>2024-05-26T08:44:01Z</time>
      </trkpt>
      <trkpt lat="49.07797" lon="-0.29333">
        <ele>107</ele>
        <time>2024-05-26T08:44:02Z</time>
      </trkpt>
      <trkpt lat="49.07802" lon="-0.29323">
        <ele>107</ele>
        <time>2024-05-26T08:44:03Z</time>
      </trkpt>
      <trkpt lat="49.07807" lon="-0.29313">
        <ele>107</ele>
        <time>2024-05-26T08:44:04Z</time>
      </trkpt>
      <trkpt lat="49.07813" lon="-0.29304">
        <ele>107</ele>
        <time>2024-05-26T08:44:05Z</time>
      </trkpt>
      <trkpt lat="49.07818" lon="-0.29294">
        <ele>107</ele>
        <time>2024-05-26T08:44:06Z</time>
      </trkpt>
      <trkpt lat="49.07824" lon="-0.29285">
        <ele>107</ele>
        <time>2024-05-26T08:44:07Z</time>
      </trkpt>
      <trkpt lat="49.07829" lon="-0.29275">
        <ele>107</ele>
        <time>2024-05-26T08:44:08Z</time>
      </trkpt>
      <trkpt lat="49.07834" lon="-0.29265">
        <ele>106.8</ele>
        <time>2024-05-26T08:44:09Z</time>
      </trkpt>
      <trkpt lat="49.07839" lon="-0.29256">
        <ele>106.8</ele>
        <time>2024-05-26T08:44:10Z</time>
      </trkpt>
      <trkpt lat="49.07845" lon="-0.29246">
        <ele>106.6</ele>
        <time>2024-05-26T08:44:11Z</time>
      </trkpt>
      <trkpt lat="49.0785" lon="-0.29236">
        <ele>106.6</ele>
        <time>2024-05-26T08:44:12Z</time>
      </trkpt>
      <trkpt lat="49.07856" lon="-0.29226">
        <ele>106.6</ele>
        <time>2024-05-26T08:44:13Z</time>
      </trkpt>
      <trkpt lat="49.07861" lon="-0.29216">
        <ele>106.4</ele>
        <time>2024-05-26T08:44:14Z</time>
      </trkpt>
      <trkpt lat="49.07867" lon="-0.29205">
        <ele>106.2</ele>
        <time>2024-05-26T08:44:15Z</time>
      </trkpt>
      <trkpt lat="49.07873" lon="-0.29195">
        <ele>106.2</ele>
        <time>2024-05-26T08:44:16Z</time>
      </trkpt>
      <trkpt lat="49.07878" lon="-0.29185">
        <ele>106</ele>
        <time>2024-05-26T08:44:17Z</time>
      </trkpt>
      <trkpt lat="49.07885" lon="-0.29172">
        <ele>106</ele>
        <time>2024-05-26T08:44:18Z</time>
      </trkpt>
      <trkpt lat="49.07889" lon="-0.29164">
        <ele>105.8</ele>
        <time>2024-05-26T08:44:19Z</time>
      </trkpt>
      <trkpt lat="49.07895" lon="-0.29154">
        <ele>105.8</ele>
        <time>2024-05-26T08:44:20Z</time>
      </trkpt>
      <trkpt lat="49.07901" lon="-0.29144">
        <ele>105.8</ele>
        <time>2024-05-26T08:44:21Z</time>
      </trkpt>
      <trkpt lat="49.07907" lon="-0.29134">
        <ele>105.6</ele>
        <time>2024-05-26T08:44:22Z</time>
      </trkpt>
      <trkpt lat="49.07913" lon="-0.29123">
        <ele>105.6</ele>
        <time>2024-05-26T08:44:23Z</time>
      </trkpt>
      <trkpt lat="49.07919" lon="-0.29113">
        <ele>105.4</ele>
        <time>2024-05-26T08:44:24Z</time>
      </trkpt>
      <trkpt lat="49.07925" lon="-0.29103">
        <ele>105.2</ele>
        <time>2024-05-26T08:44:25Z</time>
      </trkpt>
      <trkpt lat="49.07931" lon="-0.29093">
        <ele>105</ele>
        <time>2024-05-26T08:44:26Z</time>
      </trkpt>
      <trkpt lat="49.07937" lon="-0.29083">
        <ele>104.4</ele>
        <time>2024-05-26T08:44:27Z</time>
      </trkpt>
      <trkpt lat="49.07944" lon="-0.29073">
        <ele>104</ele>
        <time>2024-05-26T08:44:28Z</time>
      </trkpt>
      <trkpt lat="49.0795" lon="-0.29063">
        <ele>103.6</ele>
        <time>2024-05-26T08:44:29Z</time>
      </trkpt>
      <trkpt lat="49.07956" lon="-0.29053">
        <ele>103.4</ele>
        <time>2024-05-26T08:44:30Z</time>
      </trkpt>
      <trkpt lat="49.07963" lon="-0.29043">
        <ele>103.2</ele>
        <time>2024-05-26T08:44:31Z</time>
      </trkpt>
      <trkpt lat="49.07969" lon="-0.29033">
        <ele>103.2</ele>
        <time>2024-05-26T08:44:32Z</time>
      </trkpt>
      <trkpt lat="49.07975" lon="-0.29023">
        <ele>103</ele>
        <time>2024-05-26T08:44:33Z</time>
      </trkpt>
      <trkpt lat="49.07982" lon="-0.29013">
        <ele>103</ele>
        <time>2024-05-26T08:44:34Z</time>
      </trkpt>
      <trkpt lat="49.07988" lon="-0.29003">
        <ele>102.8</ele>
        <time>2024-05-26T08:44:35Z</time>
      </trkpt>
      <trkpt lat="49.07994" lon="-0.28992">
        <ele>102.8</ele>
        <time>2024-05-26T08:44:36Z</time>
      </trkpt>
      <trkpt lat="49.08" lon="-0.28982">
        <ele>102.6</ele>
        <time>2024-05-26T08:44:37Z</time>
      </trkpt>
      <trkpt lat="49.08006" lon="-0.28971">
        <ele>102.2</ele>
        <time>2024-05-26T08:44:38Z</time>
      </trkpt>
      <trkpt lat="49.08013" lon="-0.28959">
        <ele>102.2</ele>
        <time>2024-05-26T08:44:39Z</time>
      </trkpt>
      <trkpt lat="49.08017" lon="-0.2895">
        <ele>102</ele>
        <time>2024-05-26T08:44:40Z</time>
      </trkpt>
      <trkpt lat="49.08023" lon="-0.28939">
        <ele>102</ele>
        <time>2024-05-26T08:44:41Z</time>
      </trkpt>
      <trkpt lat="49.08027" lon="-0.28927">
        <ele>102</ele>
        <time>2024-05-26T08:44:42Z</time>
      </trkpt>
      <trkpt lat="49.08032" lon="-0.28915">
        <ele>101.8</ele>
        <time>2024-05-26T08:44:43Z</time>
      </trkpt>
      <trkpt lat="49.08036" lon="-0.28903">
        <ele>101.8</ele>
        <time>2024-05-26T08:44:44Z</time>
      </trkpt>
      <trkpt lat="49.0804" lon="-0.28891">
        <ele>101.4</ele>
        <time>2024-05-26T08:44:45Z</time>
      </trkpt>
      <trkpt lat="49.08044" lon="-0.28879">
        <ele>101.2</ele>
        <time>2024-05-26T08:44:46Z</time>
      </trkpt>
      <trkpt lat="49.08048" lon="-0.28864">
        <ele>101</ele>
        <time>2024-05-26T08:44:47Z</time>
      </trkpt>
      <trkpt lat="49.08051" lon="-0.28854">
        <ele>100.8</ele>
        <time>2024-05-26T08:44:48Z</time>
      </trkpt>
      <trkpt lat="49.08055" lon="-0.28841">
        <ele>100.8</ele>
        <time>2024-05-26T08:44:49Z</time>
      </trkpt>
      <trkpt lat="49.08059" lon="-0.28828">
        <ele>100.6</ele>
        <time>2024-05-26T08:44:50Z</time>
      </trkpt>
      <trkpt lat="49.08063" lon="-0.28815">
        <ele>100.6</ele>
        <time>2024-05-26T08:44:51Z</time>
      </trkpt>
      <trkpt lat="49.08067" lon="-0.28802">
        <ele>100.4</ele>
        <time>2024-05-26T08:44:52Z</time>
      </trkpt>
      <trkpt lat="49.08071" lon="-0.28789">
        <ele>100.4</ele>
        <time>2024-05-26T08:44:53Z</time>
      </trkpt>
      <trkpt lat="49.08075" lon="-0.28775">
        <ele>100.2</ele>
        <time>2024-05-26T08:44:54Z</time>
      </trkpt>
      <trkpt lat="49.08079" lon="-0.28762">
        <ele>100.2</ele>
        <time>2024-05-26T08:44:55Z</time>
      </trkpt>
      <trkpt lat="49.08083" lon="-0.28748">
        <ele>100</ele>
        <time>2024-05-26T08:44:56Z</time>
      </trkpt>
      <trkpt lat="49.08087" lon="-0.28734">
        <ele>100</ele>
        <time>2024-05-26T08:44:57Z</time>
      </trkpt>
      <trkpt lat="49.08091" lon="-0.28721">
        <ele>99.8</ele>
        <time>2024-05-26T08:44:58Z</time>
      </trkpt>
      <trkpt lat="49.08095" lon="-0.28708">
        <ele>99.6</ele>
        <time>2024-05-26T08:44:59Z</time>
      </trkpt>
      <trkpt lat="49.08099" lon="-0.28694">
        <ele>99</ele>
        <time>2024-05-26T08:45:00Z</time>
      </trkpt>
      <trkpt lat="49.08104" lon="-0.2868">
        <ele>98.8</ele>
        <time>2024-05-26T08:45:01Z</time>
      </trkpt>
      <trkpt lat="49.08108" lon="-0.28666">
        <ele>98.4</ele>
        <time>2024-05-26T08:45:02Z</time>
      </trkpt>
      <trkpt lat="49.08112" lon="-0.28652">
        <ele>98.4</ele>
        <time>2024-05-26T08:45:03Z</time>
      </trkpt>
      <trkpt lat="49.08117" lon="-0.28638">
        <ele>98.2</ele>
        <time>2024-05-26T08:45:04Z</time>
      </trkpt>
      <trkpt lat="49.08122" lon="-0.28622">
        <ele>98</ele>
        <time>2024-05-26T08:45:05Z</time>
      </trkpt>
      <trkpt lat="49.08125" lon="-0.28611">
        <ele>97.8</ele>
        <time>2024-05-26T08:45:06Z</time>
      </trkpt>
      <trkpt lat="49.0813" lon="-0.28597">
        <ele>97.6</ele>
        <time>2024-05-26T08:45:07Z</time>
      </trkpt>
      <trkpt lat="49.08134" lon="-0.28583">
        <ele>97.4</ele>
        <time>2024-05-26T08:45:08Z</time>
      </trkpt>
      <trkpt lat="49.08138" lon="-0.2857">
        <ele>97.2</ele>
        <time>2024-05-26T08:45:09Z</time>
      </trkpt>
      <trkpt lat="49.08142" lon="-0.28556">
        <ele>96.8</ele>
        <time>2024-05-26T08:45:10Z</time>
      </trkpt>
      <trkpt lat="49.08147" lon="-0.2854">
        <ele>96.4</ele>
        <time>2024-05-26T08:45:11Z</time>
      </trkpt>
      <trkpt lat="49.0815" lon="-0.2853">
        <ele>96.2</ele>
        <time>2024-05-26T08:45:12Z</time>
      </trkpt>
      <trkpt lat="49.08154" lon="-0.28517">
        <ele>96</ele>
        <time>2024-05-26T08:45:13Z</time>
      </trkpt>
      <trkpt lat="49.08159" lon="-0.28504">
        <ele>95.8</ele>
        <time>2024-05-26T08:45:14Z</time>
      </trkpt>
      <trkpt lat="49.08163" lon="-0.28491">
        <ele>95.6</ele>
        <time>2024-05-26T08:45:15Z</time>
      </trkpt>
      <trkpt lat="49.08167" lon="-0.28478">
        <ele>95.4</ele>
        <time>2024-05-26T08:45:16Z</time>
      </trkpt>
      <trkpt lat="49.08171" lon="-0.28465">
        <ele>95.2</ele>
        <time>2024-05-26T08:45:17Z</time>
      </trkpt>
      <trkpt lat="49.08174" lon="-0.28452">
        <ele>95.2</ele>
        <time>2024-05-26T08:45:18Z</time>
      </trkpt>
      <trkpt lat="49.08178" lon="-0.28439">
        <ele>95.2</ele>
        <time>2024-05-26T08:45:19Z</time>
      </trkpt>
      <trkpt lat="49.08182" lon="-0.28425">
        <ele>95.2</ele>
        <time>2024-05-26T08:45:20Z</time>
      </trkpt>
      <trkpt lat="49.08186" lon="-0.28412">
        <ele>95.2</ele>
        <time>2024-05-26T08:45:21Z</time>
      </trkpt>
      <trkpt lat="49.0819" lon="-0.28399">
        <ele>95.2</ele>
        <time>2024-05-26T08:45:22Z</time>
      </trkpt>
      <trkpt lat="49.08194" lon="-0.28386">
        <ele>95.2</ele>
        <time>2024-05-26T08:45:23Z</time>
      </trkpt>
      <trkpt lat="49.08197" lon="-0.28372">
        <ele>95.2</ele>
        <time>2024-05-26T08:45:24Z</time>
      </trkpt>
      <trkpt lat="49.082" lon="-0.28358">
        <ele>95.2</ele>
        <time>2024-05-26T08:45:25Z</time>
      </trkpt>
      <trkpt lat="49.08203" lon="-0.28344">
        <ele>95.2</ele>
        <time>2024-05-26T08:45:26Z</time>
      </trkpt>
      <trkpt lat="49.08205" lon="-0.28329">
        <ele>95.2</ele>
        <time>2024-05-26T08:45:27Z</time>
      </trkpt>
      <trkpt lat="49.08207" lon="-0.28315">
        <ele>95.2</ele>
        <time>2024-05-26T08:45:28Z</time>
      </trkpt>
      <trkpt lat="49.08207" lon="-0.283">
        <ele>95.2</ele>
        <time>2024-05-26T08:45:29Z</time>
      </trkpt>
      <trkpt lat="49.08207" lon="-0.28285">
        <ele>95.2</ele>
        <time>2024-05-26T08:45:30Z</time>
      </trkpt>
      <trkpt lat="49.08206" lon="-0.28271">
        <ele>95.2</ele>
        <time>2024-05-26T08:45:31Z</time>
      </trkpt>
      <trkpt lat="49.08205" lon="-0.28257">
        <ele>95.2</ele>
        <time>2024-05-26T08:45:32Z</time>
      </trkpt>
      <trkpt lat="49.08204" lon="-0.28244">
        <ele>95.2</ele>
        <time>2024-05-26T08:45:33Z</time>
      </trkpt>
      <trkpt lat="49.08204" lon="-0.28231">
        <ele>95.2</ele>
        <time>2024-05-26T08:45:34Z</time>
      </trkpt>
      <trkpt lat="49.08203" lon="-0.28217">
        <ele>95.2</ele>
        <time>2024-05-26T08:45:35Z</time>
      </trkpt>
      <trkpt lat="49.08203" lon="-0.28204">
        <ele>95.4</ele>
        <time>2024-05-26T08:45:36Z</time>
      </trkpt>
      <trkpt lat="49.08202" lon="-0.28192">
        <ele>95.4</ele>
        <time>2024-05-26T08:45:37Z</time>
      </trkpt>
      <trkpt lat="49.082" lon="-0.2818">
        <ele>95.4</ele>
        <time>2024-05-26T08:45:38Z</time>
      </trkpt>
      <trkpt lat="49.08198" lon="-0.28168">
        <ele>95.4</ele>
        <time>2024-05-26T08:45:39Z</time>
      </trkpt>
      <trkpt lat="49.08195" lon="-0.28157">
        <ele>95.4</ele>
        <time>2024-05-26T08:45:40Z</time>
      </trkpt>
      <trkpt lat="49.0819" lon="-0.28147">
        <ele>95.6</ele>
        <time>2024-05-26T08:45:41Z</time>
      </trkpt>
      <trkpt lat="49.08185" lon="-0.28137">
        <ele>95.6</ele>
        <time>2024-05-26T08:45:42Z</time>
      </trkpt>
      <trkpt lat="49.08181" lon="-0.28127">
        <ele>95.6</ele>
        <time>2024-05-26T08:45:43Z</time>
      </trkpt>
      <trkpt lat="49.08178" lon="-0.28116">
        <ele>96.2</ele>
        <time>2024-05-26T08:45:44Z</time>
      </trkpt>
      <trkpt lat="49.08175" lon="-0.28105">
        <ele>96.8</ele>
        <time>2024-05-26T08:45:45Z</time>
      </trkpt>
      <trkpt lat="49.08171" lon="-0.28094">
        <ele>96.8</ele>
        <time>2024-05-26T08:45:46Z</time>
      </trkpt>
      <trkpt lat="49.08168" lon="-0.28081">
        <ele>97.2</ele>
        <time>2024-05-26T08:45:47Z</time>
      </trkpt>
      <trkpt lat="49.08165" lon="-0.28072">
        <ele>97.6</ele>
        <time>2024-05-26T08:45:48Z</time>
      </trkpt>
      <trkpt lat="49.08163" lon="-0.28061">
        <ele>97.8</ele>
        <time>2024-05-26T08:45:49Z</time>
      </trkpt>
      <trkpt lat="49.0816" lon="-0.2805">
        <ele>98.2</ele>
        <time>2024-05-26T08:45:50Z</time>
      </trkpt>
      <trkpt lat="49.08156" lon="-0.28039">
        <ele>98.4</ele>
        <time>2024-05-26T08:45:51Z</time>
      </trkpt>
      <trkpt lat="49.08153" lon="-0.28028">
        <ele>98.6</ele>
        <time>2024-05-26T08:45:52Z</time>
      </trkpt>
      <trkpt lat="49.08149" lon="-0.28017">
        <ele>98.6</ele>
        <time>2024-05-26T08:45:53Z</time>
      </trkpt>
      <trkpt lat="49.08145" lon="-0.28007">
        <ele>98.6</ele>
        <time>2024-05-26T08:45:54Z</time>
      </trkpt>
      <trkpt lat="49.0814" lon="-0.27997">
        <ele>98.8</ele>
        <time>2024-05-26T08:45:55Z</time>
      </trkpt>
      <trkpt lat="49.08135" lon="-0.27987">
        <ele>98.8</ele>
        <time>2024-05-26T08:45:56Z</time>
      </trkpt>
      <trkpt lat="49.08131" lon="-0.27976">
        <ele>98.8</ele>
        <time>2024-05-26T08:45:57Z</time>
      </trkpt>
      <trkpt lat="49.08126" lon="-0.27966">
        <ele>98.8</ele>
        <time>2024-05-26T08:45:58Z</time>
      </trkpt>
      <trkpt lat="49.08122" lon="-0.27955">
        <ele>99</ele>
        <time>2024-05-26T08:45:59Z</time>
      </trkpt>
      <trkpt lat="49.08118" lon="-0.27944">
        <ele>99</ele>
        <time>2024-05-26T08:46:00Z</time>
      </trkpt>
      <trkpt lat="49.08114" lon="-0.27933">
        <ele>99</ele>
        <time>2024-05-26T08:46:01Z</time>
      </trkpt>
      <trkpt lat="49.08111" lon="-0.27921">
        <ele>99.2</ele>
        <time>2024-05-26T08:46:02Z</time>
      </trkpt>
      <trkpt lat="49.08107" lon="-0.27909">
        <ele>99.2</ele>
        <time>2024-05-26T08:46:03Z</time>
      </trkpt>
      <trkpt lat="49.08104" lon="-0.27897">
        <ele>99.2</ele>
        <time>2024-05-26T08:46:04Z</time>
      </trkpt>
      <trkpt lat="49.08101" lon="-0.27885">
        <ele>99.2</ele>
        <time>2024-05-26T08:46:05Z</time>
      </trkpt>
      <trkpt lat="49.08098" lon="-0.27873">
        <ele>99.2</ele>
        <time>2024-05-26T08:46:06Z</time>
      </trkpt>
      <trkpt lat="49.08096" lon="-0.27861">
        <ele>99.2</ele>
        <time>2024-05-26T08:46:07Z</time>
      </trkpt>
      <trkpt lat="49.08093" lon="-0.27849">
        <ele>99.2</ele>
        <time>2024-05-26T08:46:08Z</time>
      </trkpt>
      <trkpt lat="49.08091" lon="-0.27837">
        <ele>99.2</ele>
        <time>2024-05-26T08:46:09Z</time>
      </trkpt>
      <trkpt lat="49.08088" lon="-0.27824">
        <ele>99.2</ele>
        <time>2024-05-26T08:46:10Z</time>
      </trkpt>
      <trkpt lat="49.08086" lon="-0.27811">
        <ele>99.2</ele>
        <time>2024-05-26T08:46:11Z</time>
      </trkpt>
      <trkpt lat="49.08084" lon="-0.27797">
        <ele>99</ele>
        <time>2024-05-26T08:46:12Z</time>
      </trkpt>
      <trkpt lat="49.08081" lon="-0.27783">
        <ele>98.8</ele>
        <time>2024-05-26T08:46:13Z</time>
      </trkpt>
      <trkpt lat="49.08079" lon="-0.2777">
        <ele>98.6</ele>
        <time>2024-05-26T08:46:14Z</time>
      </trkpt>
      <trkpt lat="49.08076" lon="-0.27756">
        <ele>98.4</ele>
        <time>2024-05-26T08:46:15Z</time>
      </trkpt>
      <trkpt lat="49.08074" lon="-0.27742">
        <ele>98.4</ele>
        <time>2024-05-26T08:46:16Z</time>
      </trkpt>
      <trkpt lat="49.08072" lon="-0.27728">
        <ele>98.4</ele>
        <time>2024-05-26T08:46:17Z</time>
      </trkpt>
      <trkpt lat="49.0807" lon="-0.27714">
        <ele>98.2</ele>
        <time>2024-05-26T08:46:18Z</time>
      </trkpt>
      <trkpt lat="49.08068" lon="-0.277">
        <ele>98.2</ele>
        <time>2024-05-26T08:46:19Z</time>
      </trkpt>
      <trkpt lat="49.08066" lon="-0.27686">
        <ele>98</ele>
        <time>2024-05-26T08:46:20Z</time>
      </trkpt>
      <trkpt lat="49.08064" lon="-0.27671">
        <ele>97.6</ele>
        <time>2024-05-26T08:46:21Z</time>
      </trkpt>
      <trkpt lat="49.08062" lon="-0.27657">
        <ele>97.2</ele>
        <time>2024-05-26T08:46:22Z</time>
      </trkpt>
      <trkpt lat="49.0806" lon="-0.27643">
        <ele>97</ele>
        <time>2024-05-26T08:46:23Z</time>
      </trkpt>
      <trkpt lat="49.08058" lon="-0.27628">
        <ele>97</ele>
        <time>2024-05-26T08:46:24Z</time>
      </trkpt>
      <trkpt lat="49.08056" lon="-0.27614">
        <ele>96.8</ele>
        <time>2024-05-26T08:46:25Z</time>
      </trkpt>
      <trkpt lat="49.08055" lon="-0.276">
        <ele>96.6</ele>
        <time>2024-05-26T08:46:26Z</time>
      </trkpt>
      <trkpt lat="49.08052" lon="-0.27586">
        <ele>96.4</ele>
        <time>2024-05-26T08:46:27Z</time>
      </trkpt>
      <trkpt lat="49.0805" lon="-0.27573">
        <ele>96.4</ele>
        <time>2024-05-26T08:46:28Z</time>
      </trkpt>
      <trkpt lat="49.08046" lon="-0.27559">
        <ele>95.8</ele>
        <time>2024-05-26T08:46:29Z</time>
      </trkpt>
      <trkpt lat="49.08041" lon="-0.27547">
        <ele>95.6</ele>
        <time>2024-05-26T08:46:30Z</time>
      </trkpt>
      <trkpt lat="49.08037" lon="-0.27535">
        <ele>95.2</ele>
        <time>2024-05-26T08:46:31Z</time>
      </trkpt>
      <trkpt lat="49.08033" lon="-0.27521">
        <ele>95</ele>
        <time>2024-05-26T08:46:32Z</time>
      </trkpt>
      <trkpt lat="49.0803" lon="-0.27507">
        <ele>94.6</ele>
        <time>2024-05-26T08:46:33Z</time>
      </trkpt>
      <trkpt lat="49.08028" lon="-0.27493">
        <ele>94.6</ele>
        <time>2024-05-26T08:46:34Z</time>
      </trkpt>
      <trkpt lat="49.08025" lon="-0.27478">
        <ele>94.4</ele>
        <time>2024-05-26T08:46:35Z</time>
      </trkpt>
      <trkpt lat="49.08022" lon="-0.27464">
        <ele>94.4</ele>
        <time>2024-05-26T08:46:36Z</time>
      </trkpt>
      <trkpt lat="49.0802" lon="-0.27449">
        <ele>94</ele>
        <time>2024-05-26T08:46:37Z</time>
      </trkpt>
      <trkpt lat="49.08017" lon="-0.27434">
        <ele>93.8</ele>
        <time>2024-05-26T08:46:38Z</time>
      </trkpt>
      <trkpt lat="49.08015" lon="-0.27419">
        <ele>93.6</ele>
        <time>2024-05-26T08:46:39Z</time>
      </trkpt>
      <trkpt lat="49.08013" lon="-0.27404">
        <ele>93.4</ele>
        <time>2024-05-26T08:46:40Z</time>
      </trkpt>
      <trkpt lat="49.08011" lon="-0.27389">
        <ele>93.2</ele>
        <time>2024-05-26T08:46:41Z</time>
      </trkpt>
      <trkpt lat="49.08009" lon="-0.27373">
        <ele>92.6</ele>
        <time>2024-05-26T08:46:42Z</time>
      </trkpt>
      <trkpt lat="49.08007" lon="-0.27357">
        <ele>92.2</ele>
        <time>2024-05-26T08:46:43Z</time>
      </trkpt>
      <trkpt lat="49.08006" lon="-0.27341">
        <ele>91.8</ele>
        <time>2024-05-26T08:46:44Z</time>
      </trkpt>
      <trkpt lat="49.08006" lon="-0.27324">
        <ele>91.4</ele>
        <time>2024-05-26T08:46:45Z</time>
      </trkpt>
      <trkpt lat="49.08008" lon="-0.27307">
        <ele>91.2</ele>
        <time>2024-05-26T08:46:46Z</time>
      </trkpt>
      <trkpt lat="49.0801" lon="-0.2729">
        <ele>91.2</ele>
        <time>2024-05-26T08:46:47Z</time>
      </trkpt>
      <trkpt lat="49.08014" lon="-0.27274">
        <ele>91</ele>
        <time>2024-05-26T08:46:48Z</time>
      </trkpt>
      <trkpt lat="49.08018" lon="-0.27258">
        <ele>90.8</ele>
        <time>2024-05-26T08:46:49Z</time>
      </trkpt>
      <trkpt lat="49.08024" lon="-0.27243">
        <ele>90.8</ele>
        <time>2024-05-26T08:46:50Z</time>
      </trkpt>
      <trkpt lat="49.08029" lon="-0.27228">
        <ele>90.6</ele>
        <time>2024-05-26T08:46:51Z</time>
      </trkpt>
      <trkpt lat="49.08036" lon="-0.27215">
        <ele>90.4</ele>
        <time>2024-05-26T08:46:52Z</time>
      </trkpt>
      <trkpt lat="49.08044" lon="-0.27202">
        <ele>90.4</ele>
        <time>2024-05-26T08:46:53Z</time>
      </trkpt>
      <trkpt lat="49.08051" lon="-0.2719">
        <ele>89.8</ele>
        <time>2024-05-26T08:46:54Z</time>
      </trkpt>
      <trkpt lat="49.08059" lon="-0.27178">
        <ele>89.2</ele>
        <time>2024-05-26T08:46:55Z</time>
      </trkpt>
      <trkpt lat="49.08066" lon="-0.27166">
        <ele>88.8</ele>
        <time>2024-05-26T08:46:56Z</time>
      </trkpt>
      <trkpt lat="49.08073" lon="-0.27153">
        <ele>88</ele>
        <time>2024-05-26T08:46:57Z</time>
      </trkpt>
      <trkpt lat="49.0808" lon="-0.27141">
        <ele>87</ele>
        <time>2024-05-26T08:46:58Z</time>
      </trkpt>
      <trkpt lat="49.08088" lon="-0.27129">
        <ele>86.4</ele>
        <time>2024-05-26T08:46:59Z</time>
      </trkpt>
      <trkpt lat="49.08095" lon="-0.27118">
        <ele>85.8</ele>
        <time>2024-05-26T08:47:00Z</time>
      </trkpt>
      <trkpt lat="49.08102" lon="-0.27106">
        <ele>85.6</ele>
        <time>2024-05-26T08:47:01Z</time>
      </trkpt>
      <trkpt lat="49.08109" lon="-0.27094">
        <ele>85.4</ele>
        <time>2024-05-26T08:47:02Z</time>
      </trkpt>
      <trkpt lat="49.08116" lon="-0.27081">
        <ele>85.2</ele>
        <time>2024-05-26T08:47:03Z</time>
      </trkpt>
      <trkpt lat="49.08123" lon="-0.27069">
        <ele>84.8</ele>
        <time>2024-05-26T08:47:04Z</time>
      </trkpt>
      <trkpt lat="49.08129" lon="-0.27056">
        <ele>84.8</ele>
        <time>2024-05-26T08:47:05Z</time>
      </trkpt>
      <trkpt lat="49.08134" lon="-0.27042">
        <ele>84.4</ele>
        <time>2024-05-26T08:47:06Z</time>
      </trkpt>
      <trkpt lat="49.08139" lon="-0.27027">
        <ele>84.2</ele>
        <time>2024-05-26T08:47:07Z</time>
      </trkpt>
      <trkpt lat="49.08143" lon="-0.27012">
        <ele>84.2</ele>
        <time>2024-05-26T08:47:08Z</time>
      </trkpt>
      <trkpt lat="49.08148" lon="-0.26997">
        <ele>84</ele>
        <time>2024-05-26T08:47:09Z</time>
      </trkpt>
      <trkpt lat="49.08152" lon="-0.26981">
        <ele>83.8</ele>
        <time>2024-05-26T08:47:10Z</time>
      </trkpt>
      <trkpt lat="49.08157" lon="-0.26965">
        <ele>83.8</ele>
        <time>2024-05-26T08:47:11Z</time>
      </trkpt>
      <trkpt lat="49.08161" lon="-0.26949">
        <ele>83.6</ele>
        <time>2024-05-26T08:47:12Z</time>
      </trkpt>
      <trkpt lat="49.08166" lon="-0.26933">
        <ele>83.6</ele>
        <time>2024-05-26T08:47:13Z</time>
      </trkpt>
      <trkpt lat="49.0817" lon="-0.26916">
        <ele>83.4</ele>
        <time>2024-05-26T08:47:14Z</time>
      </trkpt>
      <trkpt lat="49.08175" lon="-0.26899">
        <ele>83.4</ele>
        <time>2024-05-26T08:47:15Z</time>
      </trkpt>
      <trkpt lat="49.08179" lon="-0.26881">
        <ele>83</ele>
        <time>2024-05-26T08:47:16Z</time>
      </trkpt>
      <trkpt lat="49.08184" lon="-0.26864">
        <ele>82.8</ele>
        <time>2024-05-26T08:47:17Z</time>
      </trkpt>
      <trkpt lat="49.08189" lon="-0.26846">
        <ele>82.4</ele>
        <time>2024-05-26T08:47:18Z</time>
      </trkpt>
      <trkpt lat="49.08193" lon="-0.26828">
        <ele>82</ele>
        <time>2024-05-26T08:47:19Z</time>
      </trkpt>
      <trkpt lat="49.08197" lon="-0.2681">
        <ele>81.8</ele>
        <time>2024-05-26T08:47:20Z</time>
      </trkpt>
      <trkpt lat="49.08201" lon="-0.26791">
        <ele>81.4</ele>
        <time>2024-05-26T08:47:21Z</time>
      </trkpt>
      <trkpt lat="49.08205" lon="-0.26772">
        <ele>81.2</ele>
        <time>2024-05-26T08:47:22Z</time>
      </trkpt>
      <trkpt lat="49.08209" lon="-0.26752">
        <ele>80.4</ele>
        <time>2024-05-26T08:47:23Z</time>
      </trkpt>
      <trkpt lat="49.08214" lon="-0.26728">
        <ele>79.6</ele>
        <time>2024-05-26T08:47:24Z</time>
      </trkpt>
      <trkpt lat="49.08218" lon="-0.26712">
        <ele>79</ele>
        <time>2024-05-26T08:47:25Z</time>
      </trkpt>
      <trkpt lat="49.08222" lon="-0.26691">
        <ele>78.4</ele>
        <time>2024-05-26T08:47:26Z</time>
      </trkpt>
      <trkpt lat="49.08226" lon="-0.26671">
        <ele>77.8</ele>
        <time>2024-05-26T08:47:27Z</time>
      </trkpt>
      <trkpt lat="49.08231" lon="-0.2665">
        <ele>77</ele>
        <time>2024-05-26T08:47:28Z</time>
      </trkpt>
      <trkpt lat="49.08235" lon="-0.26629">
        <ele>76.6</ele>
        <time>2024-05-26T08:47:29Z</time>
      </trkpt>
      <trkpt lat="49.08239" lon="-0.26608">
        <ele>76.4</ele>
        <time>2024-05-26T08:47:30Z</time>
      </trkpt>
      <trkpt lat="49.08244" lon="-0.26587">
        <ele>76</ele>
        <time>2024-05-26T08:47:31Z</time>
      </trkpt>
      <trkpt lat="49.08248" lon="-0.26566">
        <ele>76</ele>
        <time>2024-05-26T08:47:32Z</time>
      </trkpt>
      <trkpt lat="49.08254" lon="-0.2654">
        <ele>75.4</ele>
        <time>2024-05-26T08:47:33Z</time>
      </trkpt>
      <trkpt lat="49.08258" lon="-0.26524">
        <ele>74.6</ele>
        <time>2024-05-26T08:47:34Z</time>
      </trkpt>
      <trkpt lat="49.08263" lon="-0.26503">
        <ele>73.8</ele>
        <time>2024-05-26T08:47:35Z</time>
      </trkpt>
      <trkpt lat="49.08269" lon="-0.26478">
        <ele>73</ele>
        <time>2024-05-26T08:47:36Z</time>
      </trkpt>
      <trkpt lat="49.08273" lon="-0.26461">
        <ele>72</ele>
        <time>2024-05-26T08:47:37Z</time>
      </trkpt>
      <trkpt lat="49.08278" lon="-0.2644">
        <ele>71</ele>
        <time>2024-05-26T08:47:38Z</time>
      </trkpt>
      <trkpt lat="49.08283" lon="-0.2642">
        <ele>70.4</ele>
        <time>2024-05-26T08:47:39Z</time>
      </trkpt>
      <trkpt lat="49.08289" lon="-0.264">
        <ele>69.4</ele>
        <time>2024-05-26T08:47:40Z</time>
      </trkpt>
      <trkpt lat="49.08294" lon="-0.26379">
        <ele>68.6</ele>
        <time>2024-05-26T08:47:41Z</time>
      </trkpt>
      <trkpt lat="49.08299" lon="-0.26359">
        <ele>68</ele>
        <time>2024-05-26T08:47:42Z</time>
      </trkpt>
      <trkpt lat="49.08305" lon="-0.2634">
        <ele>67.6</ele>
        <time>2024-05-26T08:47:43Z</time>
      </trkpt>
      <trkpt lat="49.0831" lon="-0.26321">
        <ele>67</ele>
        <time>2024-05-26T08:47:44Z</time>
      </trkpt>
      <trkpt lat="49.08317" lon="-0.26298">
        <ele>66</ele>
        <time>2024-05-26T08:47:45Z</time>
      </trkpt>
      <trkpt lat="49.08322" lon="-0.26282">
        <ele>65.2</ele>
        <time>2024-05-26T08:47:46Z</time>
      </trkpt>
      <trkpt lat="49.08327" lon="-0.26263">
        <ele>64.6</ele>
        <time>2024-05-26T08:47:47Z</time>
      </trkpt>
      <trkpt lat="49.08333" lon="-0.26244">
        <ele>64</ele>
        <time>2024-05-26T08:47:48Z</time>
      </trkpt>
      <trkpt lat="49.08338" lon="-0.26225">
        <ele>63.6</ele>
        <time>2024-05-26T08:47:49Z</time>
      </trkpt>
      <trkpt lat="49.08344" lon="-0.26207">
        <ele>63.2</ele>
        <time>2024-05-26T08:47:50Z</time>
      </trkpt>
      <trkpt lat="49.08349" lon="-0.26188">
        <ele>63</ele>
        <time>2024-05-26T08:47:51Z</time>
      </trkpt>
      <trkpt lat="49.08355" lon="-0.26169">
        <ele>62.8</ele>
        <time>2024-05-26T08:47:52Z</time>
      </trkpt>
      <trkpt lat="49.08361" lon="-0.2615">
        <ele>62.8</ele>
        <time>2024-05-26T08:47:53Z</time>
      </trkpt>
      <trkpt lat="49.08366" lon="-0.26131">
        <ele>62.8</ele>
        <time>2024-05-26T08:47:54Z</time>
      </trkpt>
      <trkpt lat="49.08371" lon="-0.26112">
        <ele>62.6</ele>
        <time>2024-05-26T08:47:55Z</time>
      </trkpt>
      <trkpt lat="49.08377" lon="-0.26093">
        <ele>62.4</ele>
        <time>2024-05-26T08:47:56Z</time>
      </trkpt>
      <trkpt lat="49.08383" lon="-0.26074">
        <ele>62.2</ele>
        <time>2024-05-26T08:47:57Z</time>
      </trkpt>
      <trkpt lat="49.08388" lon="-0.26055">
        <ele>62</ele>
        <time>2024-05-26T08:47:58Z</time>
      </trkpt>
      <trkpt lat="49.08394" lon="-0.26036">
        <ele>62</ele>
        <time>2024-05-26T08:47:59Z</time>
      </trkpt>
      <trkpt lat="49.08401" lon="-0.26011">
        <ele>61.6</ele>
        <time>2024-05-26T08:48:00Z</time>
      </trkpt>
      <trkpt lat="49.08405" lon="-0.25995">
        <ele>61.4</ele>
        <time>2024-05-26T08:48:01Z</time>
      </trkpt>
      <trkpt lat="49.08411" lon="-0.25975">
        <ele>61.2</ele>
        <time>2024-05-26T08:48:02Z</time>
      </trkpt>
      <trkpt lat="49.08419" lon="-0.25951">
        <ele>61</ele>
        <time>2024-05-26T08:48:03Z</time>
      </trkpt>
      <trkpt lat="49.08423" lon="-0.25935">
        <ele>60.8</ele>
        <time>2024-05-26T08:48:04Z</time>
      </trkpt>
      <trkpt lat="49.08429" lon="-0.25915">
        <ele>60.6</ele>
        <time>2024-05-26T08:48:05Z</time>
      </trkpt>
      <trkpt lat="49.08436" lon="-0.2589">
        <ele>60.4</ele>
        <time>2024-05-26T08:48:06Z</time>
      </trkpt>
      <trkpt lat="49.08441" lon="-0.25874">
        <ele>60.2</ele>
        <time>2024-05-26T08:48:07Z</time>
      </trkpt>
      <trkpt lat="49.08448" lon="-0.2585">
        <ele>60.2</ele>
        <time>2024-05-26T08:48:08Z</time>
      </trkpt>
      <trkpt lat="49.08454" lon="-0.2583">
        <ele>60</ele>
        <time>2024-05-26T08:48:09Z</time>
      </trkpt>
      <trkpt lat="49.08459" lon="-0.25813">
        <ele>59.8</ele>
        <time>2024-05-26T08:48:10Z</time>
      </trkpt>
      <trkpt lat="49.08465" lon="-0.25793">
        <ele>59.6</ele>
        <time>2024-05-26T08:48:11Z</time>
      </trkpt>
      <trkpt lat="49.08471" lon="-0.25772">
        <ele>59.4</ele>
        <time>2024-05-26T08:48:12Z</time>
      </trkpt>
      <trkpt lat="49.08477" lon="-0.25751">
        <ele>59.2</ele>
        <time>2024-05-26T08:48:13Z</time>
      </trkpt>
      <trkpt lat="49.08483" lon="-0.2573">
        <ele>59.2</ele>
        <time>2024-05-26T08:48:14Z</time>
      </trkpt>
      <trkpt lat="49.0849" lon="-0.25705">
        <ele>59</ele>
        <time>2024-05-26T08:48:15Z</time>
      </trkpt>
      <trkpt lat="49.08495" lon="-0.25689">
        <ele>58.8</ele>
        <time>2024-05-26T08:48:16Z</time>
      </trkpt>
      <trkpt lat="49.08502" lon="-0.25664">
        <ele>58.6</ele>
        <time>2024-05-26T08:48:17Z</time>
      </trkpt>
      <trkpt lat="49.08507" lon="-0.25647">
        <ele>58.2</ele>
        <time>2024-05-26T08:48:18Z</time>
      </trkpt>
      <trkpt lat="49.08513" lon="-0.25627">
        <ele>57.6</ele>
        <time>2024-05-26T08:48:19Z</time>
      </trkpt>
      <trkpt lat="49.08519" lon="-0.25603">
        <ele>57.2</ele>
        <time>2024-05-26T08:48:20Z</time>
      </trkpt>
      <trkpt lat="49.08525" lon="-0.25584">
        <ele>56.8</ele>
        <time>2024-05-26T08:48:21Z</time>
      </trkpt>
      <trkpt lat="49.0853" lon="-0.25568">
        <ele>56.6</ele>
        <time>2024-05-26T08:48:22Z</time>
      </trkpt>
      <trkpt lat="49.08536" lon="-0.25545">
        <ele>56.2</ele>
        <time>2024-05-26T08:48:23Z</time>
      </trkpt>
      <trkpt lat="49.08542" lon="-0.25525">
        <ele>56</ele>
        <time>2024-05-26T08:48:24Z</time>
      </trkpt>
      <trkpt lat="49.08547" lon="-0.2551">
        <ele>55.4</ele>
        <time>2024-05-26T08:48:25Z</time>
      </trkpt>
      <trkpt lat="49.08553" lon="-0.25487">
        <ele>55</ele>
        <time>2024-05-26T08:48:26Z</time>
      </trkpt>
      <trkpt lat="49.08559" lon="-0.25469">
        <ele>54.6</ele>
        <time>2024-05-26T08:48:27Z</time>
      </trkpt>
      <trkpt lat="49.08563" lon="-0.25454">
        <ele>54.2</ele>
        <time>2024-05-26T08:48:28Z</time>
      </trkpt>
      <trkpt lat="49.0857" lon="-0.25432">
        <ele>53.8</ele>
        <time>2024-05-26T08:48:29Z</time>
      </trkpt>
      <trkpt lat="49.08575" lon="-0.25413">
        <ele>53.4</ele>
        <time>2024-05-26T08:48:30Z</time>
      </trkpt>
      <trkpt lat="49.08579" lon="-0.25398">
        <ele>53.4</ele>
        <time>2024-05-26T08:48:31Z</time>
      </trkpt>
      <trkpt lat="49.08585" lon="-0.2538">
        <ele>53.2</ele>
        <time>2024-05-26T08:48:32Z</time>
      </trkpt>
      <trkpt lat="49.0859" lon="-0.25362">
        <ele>53</ele>
        <time>2024-05-26T08:48:33Z</time>
      </trkpt>
      <trkpt lat="49.08596" lon="-0.25344">
        <ele>53</ele>
        <time>2024-05-26T08:48:34Z</time>
      </trkpt>
      <trkpt lat="49.08602" lon="-0.25321">
        <ele>53</ele>
        <time>2024-05-26T08:48:35Z</time>
      </trkpt>
      <trkpt lat="49.08607" lon="-0.25302">
        <ele>52.8</ele>
        <time>2024-05-26T08:48:36Z</time>
      </trkpt>
      <trkpt lat="49.08612" lon="-0.25287">
        <ele>52.8</ele>
        <time>2024-05-26T08:48:37Z</time>
      </trkpt>
      <trkpt lat="49.08618" lon="-0.25265">
        <ele>52.4</ele>
        <time>2024-05-26T08:48:38Z</time>
      </trkpt>
      <trkpt lat="49.08624" lon="-0.25247">
        <ele>52.4</ele>
        <time>2024-05-26T08:48:39Z</time>
      </trkpt>
      <trkpt lat="49.08628" lon="-0.25232">
        <ele>52</ele>
        <time>2024-05-26T08:48:40Z</time>
      </trkpt>
      <trkpt lat="49.08635" lon="-0.2521">
        <ele>51.8</ele>
        <time>2024-05-26T08:48:41Z</time>
      </trkpt>
      <trkpt lat="49.0864" lon="-0.25192">
        <ele>51.6</ele>
        <time>2024-05-26T08:48:42Z</time>
      </trkpt>
      <trkpt lat="49.08645" lon="-0.25178">
        <ele>51.4</ele>
        <time>2024-05-26T08:48:43Z</time>
      </trkpt>
      <trkpt lat="49.08651" lon="-0.25156">
        <ele>51.2</ele>
        <time>2024-05-26T08:48:44Z</time>
      </trkpt>
      <trkpt lat="49.08656" lon="-0.25138">
        <ele>51.2</ele>
        <time>2024-05-26T08:48:45Z</time>
      </trkpt>
      <trkpt lat="49.08661" lon="-0.25124">
        <ele>51</ele>
        <time>2024-05-26T08:48:46Z</time>
      </trkpt>
      <trkpt lat="49.08667" lon="-0.25103">
        <ele>51</ele>
        <time>2024-05-26T08:48:47Z</time>
      </trkpt>
      <trkpt lat="49.08671" lon="-0.25089">
        <ele>50.6</ele>
        <time>2024-05-26T08:48:48Z</time>
      </trkpt>
      <trkpt lat="49.08675" lon="-0.2507">
        <ele>50.2</ele>
        <time>2024-05-26T08:48:49Z</time>
      </trkpt>
      <trkpt lat="49.08682" lon="-0.25049">
        <ele>49.8</ele>
        <time>2024-05-26T08:48:50Z</time>
      </trkpt>
      <trkpt lat="49.08687" lon="-0.25031">
        <ele>49.6</ele>
        <time>2024-05-26T08:48:51Z</time>
      </trkpt>
      <trkpt lat="49.08691" lon="-0.25016">
        <ele>49.6</ele>
        <time>2024-05-26T08:48:52Z</time>
      </trkpt>
      <trkpt lat="49.08698" lon="-0.24995">
        <ele>49.2</ele>
        <time>2024-05-26T08:48:53Z</time>
      </trkpt>
      <trkpt lat="49.08702" lon="-0.2498">
        <ele>49</ele>
        <time>2024-05-26T08:48:54Z</time>
      </trkpt>
      <trkpt lat="49.08708" lon="-0.24963">
        <ele>48.6</ele>
        <time>2024-05-26T08:48:55Z</time>
      </trkpt>
      <trkpt lat="49.08716" lon="-0.24942">
        <ele>48</ele>
        <time>2024-05-26T08:48:56Z</time>
      </trkpt>
      <trkpt lat="49.08721" lon="-0.24929">
        <ele>48</ele>
        <time>2024-05-26T08:48:57Z</time>
      </trkpt>
      <trkpt lat="49.08727" lon="-0.24912">
        <ele>47.6</ele>
        <time>2024-05-26T08:48:58Z</time>
      </trkpt>
      <trkpt lat="49.08734" lon="-0.24892">
        <ele>47.2</ele>
        <time>2024-05-26T08:48:59Z</time>
      </trkpt>
      <trkpt lat="49.08741" lon="-0.24875">
        <ele>47</ele>
        <time>2024-05-26T08:49:00Z</time>
      </trkpt>
      <trkpt lat="49.08746" lon="-0.24862">
        <ele>46.8</ele>
        <time>2024-05-26T08:49:01Z</time>
      </trkpt>
      <trkpt lat="49.08753" lon="-0.24843">
        <ele>46.8</ele>
        <time>2024-05-26T08:49:02Z</time>
      </trkpt>
      <trkpt lat="49.08759" lon="-0.24827">
        <ele>46.6</ele>
        <time>2024-05-26T08:49:03Z</time>
      </trkpt>
      <trkpt lat="49.08765" lon="-0.24811">
        <ele>46.2</ele>
        <time>2024-05-26T08:49:04Z</time>
      </trkpt>
      <trkpt lat="49.0877" lon="-0.24799">
        <ele>45.8</ele>
        <time>2024-05-26T08:49:05Z</time>
      </trkpt>
      <trkpt lat="49.08777" lon="-0.2478">
        <ele>45.2</ele>
        <time>2024-05-26T08:49:06Z</time>
      </trkpt>
      <trkpt lat="49.08782" lon="-0.24768">
        <ele>44.4</ele>
        <time>2024-05-26T08:49:07Z</time>
      </trkpt>
      <trkpt lat="49.08788" lon="-0.24752">
        <ele>43.6</ele>
        <time>2024-05-26T08:49:08Z</time>
      </trkpt>
      <trkpt lat="49.08795" lon="-0.24733">
        <ele>43</ele>
        <time>2024-05-26T08:49:09Z</time>
      </trkpt>
      <trkpt lat="49.088" lon="-0.24721">
        <ele>42.4</ele>
        <time>2024-05-26T08:49:10Z</time>
      </trkpt>
      <trkpt lat="49.08806" lon="-0.24705">
        <ele>42.2</ele>
        <time>2024-05-26T08:49:11Z</time>
      </trkpt>
      <trkpt lat="49.08814" lon="-0.24685">
        <ele>42</ele>
        <time>2024-05-26T08:49:12Z</time>
      </trkpt>
      <trkpt lat="49.0882" lon="-0.2467">
        <ele>42</ele>
        <time>2024-05-26T08:49:13Z</time>
      </trkpt>
      <trkpt lat="49.08825" lon="-0.24657">
        <ele>42</ele>
        <time>2024-05-26T08:49:14Z</time>
      </trkpt>
      <trkpt lat="49.0883" lon="-0.2464">
        <ele>42</ele>
        <time>2024-05-26T08:49:15Z</time>
      </trkpt>
      <trkpt lat="49.08836" lon="-0.24624">
        <ele>42</ele>
        <time>2024-05-26T08:49:16Z</time>
      </trkpt>
      <trkpt lat="49.08841" lon="-0.24608">
        <ele>42</ele>
        <time>2024-05-26T08:49:17Z</time>
      </trkpt>
      <trkpt lat="49.08847" lon="-0.24587">
        <ele>42</ele>
        <time>2024-05-26T08:49:18Z</time>
      </trkpt>
      <trkpt lat="49.08852" lon="-0.24571">
        <ele>41.8</ele>
        <time>2024-05-26T08:49:19Z</time>
      </trkpt>
      <trkpt lat="49.08855" lon="-0.24558">
        <ele>41.8</ele>
        <time>2024-05-26T08:49:20Z</time>
      </trkpt>
      <trkpt lat="49.0886" lon="-0.24538">
        <ele>41.6</ele>
        <time>2024-05-26T08:49:21Z</time>
      </trkpt>
      <trkpt lat="49.08864" lon="-0.24521">
        <ele>41.6</ele>
        <time>2024-05-26T08:49:22Z</time>
      </trkpt>
      <trkpt lat="49.08867" lon="-0.24508">
        <ele>41.6</ele>
        <time>2024-05-26T08:49:23Z</time>
      </trkpt>
      <trkpt lat="49.0887" lon="-0.24488">
        <ele>41.6</ele>
        <time>2024-05-26T08:49:24Z</time>
      </trkpt>
      <trkpt lat="49.08873" lon="-0.24471">
        <ele>41.6</ele>
        <time>2024-05-26T08:49:25Z</time>
      </trkpt>
      <trkpt lat="49.08875" lon="-0.24458">
        <ele>41.6</ele>
        <time>2024-05-26T08:49:26Z</time>
      </trkpt>
      <trkpt lat="49.08879" lon="-0.24438">
        <ele>41.4</ele>
        <time>2024-05-26T08:49:27Z</time>
      </trkpt>
      <trkpt lat="49.0888" lon="-0.24424">
        <ele>41.2</ele>
        <time>2024-05-26T08:49:28Z</time>
      </trkpt>
      <trkpt lat="49.08882" lon="-0.24407">
        <ele>40.8</ele>
        <time>2024-05-26T08:49:29Z</time>
      </trkpt>
      <trkpt lat="49.08885" lon="-0.24386">
        <ele>40.6</ele>
        <time>2024-05-26T08:49:30Z</time>
      </trkpt>
      <trkpt lat="49.08886" lon="-0.24372">
        <ele>40.2</ele>
        <time>2024-05-26T08:49:31Z</time>
      </trkpt>
      <trkpt lat="49.08888" lon="-0.24355">
        <ele>40.2</ele>
        <time>2024-05-26T08:49:32Z</time>
      </trkpt>
      <trkpt lat="49.08891" lon="-0.24334">
        <ele>40.2</ele>
        <time>2024-05-26T08:49:33Z</time>
      </trkpt>
      <trkpt lat="49.08892" lon="-0.24321">
        <ele>40</ele>
        <time>2024-05-26T08:49:34Z</time>
      </trkpt>
      <trkpt lat="49.08895" lon="-0.243">
        <ele>39.8</ele>
        <time>2024-05-26T08:49:35Z</time>
      </trkpt>
      <trkpt lat="49.08897" lon="-0.24283">
        <ele>39.8</ele>
        <time>2024-05-26T08:49:36Z</time>
      </trkpt>
      <trkpt lat="49.08899" lon="-0.24269">
        <ele>39.4</ele>
        <time>2024-05-26T08:49:37Z</time>
      </trkpt>
      <trkpt lat="49.08901" lon="-0.24253">
        <ele>39.2</ele>
        <time>2024-05-26T08:49:38Z</time>
      </trkpt>
      <trkpt lat="49.08905" lon="-0.24236">
        <ele>39.2</ele>
        <time>2024-05-26T08:49:39Z</time>
      </trkpt>
      <trkpt lat="49.08908" lon="-0.2422">
        <ele>38.8</ele>
        <time>2024-05-26T08:49:40Z</time>
      </trkpt>
      <trkpt lat="49.08912" lon="-0.24204">
        <ele>38.6</ele>
        <time>2024-05-26T08:49:41Z</time>
      </trkpt>
      <trkpt lat="49.08917" lon="-0.24185">
        <ele>38.4</ele>
        <time>2024-05-26T08:49:42Z</time>
      </trkpt>
      <trkpt lat="49.0892" lon="-0.24173">
        <ele>38.2</ele>
        <time>2024-05-26T08:49:43Z</time>
      </trkpt>
      <trkpt lat="49.08926" lon="-0.24154">
        <ele>38</ele>
        <time>2024-05-26T08:49:44Z</time>
      </trkpt>
      <trkpt lat="49.08931" lon="-0.24139">
        <ele>37.8</ele>
        <time>2024-05-26T08:49:45Z</time>
      </trkpt>
      <trkpt lat="49.08934" lon="-0.24127">
        <ele>37.6</ele>
        <time>2024-05-26T08:49:46Z</time>
      </trkpt>
      <trkpt lat="49.08939" lon="-0.24108">
        <ele>37.6</ele>
        <time>2024-05-26T08:49:47Z</time>
      </trkpt>
      <trkpt lat="49.08943" lon="-0.24093">
        <ele>37.4</ele>
        <time>2024-05-26T08:49:48Z</time>
      </trkpt>
      <trkpt lat="49.08946" lon="-0.24081">
        <ele>37.4</ele>
        <time>2024-05-26T08:49:49Z</time>
      </trkpt>
      <trkpt lat="49.08951" lon="-0.24063">
        <ele>37.2</ele>
        <time>2024-05-26T08:49:50Z</time>
      </trkpt>
      <trkpt lat="49.08954" lon="-0.24049">
        <ele>37.2</ele>
        <time>2024-05-26T08:49:51Z</time>
      </trkpt>
      <trkpt lat="49.08957" lon="-0.24038">
        <ele>37.2</ele>
        <time>2024-05-26T08:49:52Z</time>
      </trkpt>
      <trkpt lat="49.08961" lon="-0.2402">
        <ele>37</ele>
        <time>2024-05-26T08:49:53Z</time>
      </trkpt>
      <trkpt lat="49.08964" lon="-0.24009">
        <ele>36.8</ele>
        <time>2024-05-26T08:49:54Z</time>
      </trkpt>
      <trkpt lat="49.08968" lon="-0.23994">
        <ele>36.4</ele>
        <time>2024-05-26T08:49:55Z</time>
      </trkpt>
      <trkpt lat="49.08972" lon="-0.23976">
        <ele>36</ele>
        <time>2024-05-26T08:49:56Z</time>
      </trkpt>
      <trkpt lat="49.08975" lon="-0.23961">
        <ele>35.6</ele>
        <time>2024-05-26T08:49:57Z</time>
      </trkpt>
      <trkpt lat="49.08977" lon="-0.2395">
        <ele>35.6</ele>
        <time>2024-05-26T08:49:58Z</time>
      </trkpt>
      <trkpt lat="49.08979" lon="-0.23935">
        <ele>35.4</ele>
        <time>2024-05-26T08:49:59Z</time>
      </trkpt>
      <trkpt lat="49.0898" lon="-0.2392">
        <ele>35.4</ele>
        <time>2024-05-26T08:50:00Z</time>
      </trkpt>
      <trkpt lat="49.08979" lon="-0.23906">
        <ele>35.4</ele>
        <time>2024-05-26T08:50:01Z</time>
      </trkpt>
      <trkpt lat="49.08978" lon="-0.23888">
        <ele>35.4</ele>
        <time>2024-05-26T08:50:02Z</time>
      </trkpt>
      <trkpt lat="49.08975" lon="-0.23873">
        <ele>35.4</ele>
        <time>2024-05-26T08:50:03Z</time>
      </trkpt>
      <trkpt lat="49.08972" lon="-0.23862">
        <ele>35.4</ele>
        <time>2024-05-26T08:50:04Z</time>
      </trkpt>
      <trkpt lat="49.08968" lon="-0.23845">
        <ele>35.4</ele>
        <time>2024-05-26T08:50:05Z</time>
      </trkpt>
      <trkpt lat="49.08965" lon="-0.23833">
        <ele>35.2</ele>
        <time>2024-05-26T08:50:06Z</time>
      </trkpt>
      <trkpt lat="49.08962" lon="-0.2382">
        <ele>35.2</ele>
        <time>2024-05-26T08:50:07Z</time>
      </trkpt>
      <trkpt lat="49.08958" lon="-0.23803">
        <ele>35.2</ele>
        <time>2024-05-26T08:50:08Z</time>
      </trkpt>
      <trkpt lat="49.08955" lon="-0.23788">
        <ele>35.2</ele>
        <time>2024-05-26T08:50:09Z</time>
      </trkpt>
      <trkpt lat="49.08954" lon="-0.23777">
        <ele>35.2</ele>
        <time>2024-05-26T08:50:10Z</time>
      </trkpt>
      <trkpt lat="49.08952" lon="-0.23759">
        <ele>35.2</ele>
        <time>2024-05-26T08:50:11Z</time>
      </trkpt>
      <trkpt lat="49.08952" lon="-0.23745">
        <ele>35.2</ele>
        <time>2024-05-26T08:50:12Z</time>
      </trkpt>
      <trkpt lat="49.08951" lon="-0.23734">
        <ele>35.2</ele>
        <time>2024-05-26T08:50:13Z</time>
      </trkpt>
      <trkpt lat="49.08951" lon="-0.23718">
        <ele>35.2</ele>
        <time>2024-05-26T08:50:14Z</time>
      </trkpt>
      <trkpt lat="49.08951" lon="-0.23706">
        <ele>35.2</ele>
        <time>2024-05-26T08:50:15Z</time>
      </trkpt>
      <trkpt lat="49.08953" lon="-0.23695">
        <ele>35.2</ele>
        <time>2024-05-26T08:50:16Z</time>
      </trkpt>
      <trkpt lat="49.08956" lon="-0.23688">
        <ele>35.2</ele>
        <time>2024-05-26T08:50:17Z</time>
      </trkpt>
      <trkpt lat="49.08963" lon="-0.2368">
        <ele>35.2</ele>
        <time>2024-05-26T08:50:18Z</time>
      </trkpt>
      <trkpt lat="49.08969" lon="-0.23676">
        <ele>35.2</ele>
        <time>2024-05-26T08:50:19Z</time>
      </trkpt>
      <trkpt lat="49.08974" lon="-0.23674">
        <ele>35</ele>
        <time>2024-05-26T08:50:20Z</time>
      </trkpt>
      <trkpt lat="49.08981" lon="-0.23671">
        <ele>35</ele>
        <time>2024-05-26T08:50:21Z</time>
      </trkpt>
      <trkpt lat="49.08988" lon="-0.23667">
        <ele>35</ele>
        <time>2024-05-26T08:50:22Z</time>
      </trkpt>
      <trkpt lat="49.08994" lon="-0.23664">
        <ele>35</ele>
        <time>2024-05-26T08:50:23Z</time>
      </trkpt>
      <trkpt lat="49.09001" lon="-0.2366">
        <ele>34.8</ele>
        <time>2024-05-26T08:50:24Z</time>
      </trkpt>
      <trkpt lat="49.09007" lon="-0.23657">
        <ele>34.8</ele>
        <time>2024-05-26T08:50:25Z</time>
      </trkpt>
      <trkpt lat="49.09012" lon="-0.23656">
        <ele>34.8</ele>
        <time>2024-05-26T08:50:26Z</time>
      </trkpt>
      <trkpt lat="49.09019" lon="-0.23653">
        <ele>34.8</ele>
        <time>2024-05-26T08:50:27Z</time>
      </trkpt>
      <trkpt lat="49.09025" lon="-0.2365">
        <ele>34.8</ele>
        <time>2024-05-26T08:50:28Z</time>
      </trkpt>
      <trkpt lat="49.0903" lon="-0.23648">
        <ele>34.6</ele>
        <time>2024-05-26T08:50:29Z</time>
      </trkpt>
      <trkpt lat="49.09037" lon="-0.23646">
        <ele>34.6</ele>
        <time>2024-05-26T08:50:30Z</time>
      </trkpt>
      <trkpt lat="49.09043" lon="-0.23645">
        <ele>34.6</ele>
        <time>2024-05-26T08:50:31Z</time>
      </trkpt>
      <trkpt lat="49.09048" lon="-0.23644">
        <ele>34.6</ele>
        <time>2024-05-26T08:50:32Z</time>
      </trkpt>
      <trkpt lat="49.09054" lon="-0.23643">
        <ele>34.6</ele>
        <time>2024-05-26T08:50:33Z</time>
      </trkpt>
      <trkpt lat="49.0906" lon="-0.23643">
        <ele>34.8</ele>
        <time>2024-05-26T08:50:34Z</time>
      </trkpt>
      <trkpt lat="49.09064" lon="-0.23642">
        <ele>34.8</ele>
        <time>2024-05-26T08:50:35Z</time>
      </trkpt>
      <trkpt lat="49.09071" lon="-0.23641">
        <ele>34.8</ele>
        <time>2024-05-26T08:50:36Z</time>
      </trkpt>
      <trkpt lat="49.09075" lon="-0.23641">
        <ele>34.8</ele>
        <time>2024-05-26T08:50:37Z</time>
      </trkpt>
      <trkpt lat="49.09081" lon="-0.2364">
        <ele>35</ele>
        <time>2024-05-26T08:50:38Z</time>
      </trkpt>
      <trkpt lat="49.09088" lon="-0.23638">
        <ele>35</ele>
        <time>2024-05-26T08:50:39Z</time>
      </trkpt>
      <trkpt lat="49.09092" lon="-0.23637">
        <ele>35</ele>
        <time>2024-05-26T08:50:40Z</time>
      </trkpt>
      <trkpt lat="49.09098" lon="-0.23635">
        <ele>35</ele>
        <time>2024-05-26T08:50:41Z</time>
      </trkpt>
      <trkpt lat="49.09103" lon="-0.23631">
        <ele>35</ele>
        <time>2024-05-26T08:50:42Z</time>
      </trkpt>
      <trkpt lat="49.09107" lon="-0.23625">
        <ele>35.2</ele>
        <time>2024-05-26T08:50:43Z</time>
      </trkpt>
      <trkpt lat="49.0911" lon="-0.23618">
        <ele>35.2</ele>
        <time>2024-05-26T08:50:44Z</time>
      </trkpt>
      <trkpt lat="49.09114" lon="-0.23608">
        <ele>35.2</ele>
        <time>2024-05-26T08:50:45Z</time>
      </trkpt>
      <trkpt lat="49.09116" lon="-0.23599">
        <ele>35.2</ele>
        <time>2024-05-26T08:50:46Z</time>
      </trkpt>
      <trkpt lat="49.09118" lon="-0.23591">
        <ele>35.2</ele>
        <time>2024-05-26T08:50:47Z</time>
      </trkpt>
      <trkpt lat="49.0912" lon="-0.23583">
        <ele>35.2</ele>
        <time>2024-05-26T08:50:48Z</time>
      </trkpt>
      <trkpt lat="49.09122" lon="-0.23573">
        <ele>35.2</ele>
        <time>2024-05-26T08:50:49Z</time>
      </trkpt>
      <trkpt lat="49.09123" lon="-0.23565">
        <ele>35.2</ele>
        <time>2024-05-26T08:50:50Z</time>
      </trkpt>
      <trkpt lat="49.09124" lon="-0.23558">
        <ele>35.4</ele>
        <time>2024-05-26T08:50:51Z</time>
      </trkpt>
      <trkpt lat="49.09124" lon="-0.23548">
        <ele>35.4</ele>
        <time>2024-05-26T08:50:52Z</time>
      </trkpt>
      <trkpt lat="49.09125" lon="-0.23539">
        <ele>35.4</ele>
        <time>2024-05-26T08:50:53Z</time>
      </trkpt>
      <trkpt lat="49.09126" lon="-0.23532">
        <ele>35.4</ele>
        <time>2024-05-26T08:50:54Z</time>
      </trkpt>
      <trkpt lat="49.09127" lon="-0.23521">
        <ele>35.4</ele>
        <time>2024-05-26T08:50:55Z</time>
      </trkpt>
      <trkpt lat="49.09128" lon="-0.23511">
        <ele>35.4</ele>
        <time>2024-05-26T08:50:56Z</time>
      </trkpt>
      <trkpt lat="49.09128" lon="-0.23503">
        <ele>35.4</ele>
        <time>2024-05-26T08:50:57Z</time>
      </trkpt>
      <trkpt lat="49.09129" lon="-0.23492">
        <ele>35.4</ele>
        <time>2024-05-26T08:50:58Z</time>
      </trkpt>
      <trkpt lat="49.09129" lon="-0.23482">
        <ele>35.4</ele>
        <time>2024-05-26T08:50:59Z</time>
      </trkpt>
      <trkpt lat="49.09129" lon="-0.23473">
        <ele>35.4</ele>
        <time>2024-05-26T08:51:00Z</time>
      </trkpt>
      <trkpt lat="49.0913" lon="-0.23461">
        <ele>35.4</ele>
        <time>2024-05-26T08:51:01Z</time>
      </trkpt>
      <trkpt lat="49.0913" lon="-0.23451">
        <ele>35.4</ele>
        <time>2024-05-26T08:51:02Z</time>
      </trkpt>
      <trkpt lat="49.09131" lon="-0.23443">
        <ele>35.4</ele>
        <time>2024-05-26T08:51:03Z</time>
      </trkpt>
      <trkpt lat="49.09131" lon="-0.23434">
        <ele>35.4</ele>
        <time>2024-05-26T08:51:04Z</time>
      </trkpt>
      <trkpt lat="49.09132" lon="-0.23422">
        <ele>35.4</ele>
        <time>2024-05-26T08:51:05Z</time>
      </trkpt>
      <trkpt lat="49.09133" lon="-0.23414">
        <ele>35.4</ele>
        <time>2024-05-26T08:51:06Z</time>
      </trkpt>
      <trkpt lat="49.09133" lon="-0.23401">
        <ele>35.4</ele>
        <time>2024-05-26T08:51:07Z</time>
      </trkpt>
      <trkpt lat="49.09133" lon="-0.23391">
        <ele>35.4</ele>
        <time>2024-05-26T08:51:08Z</time>
      </trkpt>
      <trkpt lat="49.09133" lon="-0.23382">
        <ele>35.4</ele>
        <time>2024-05-26T08:51:09Z</time>
      </trkpt>
      <trkpt lat="49.09134" lon="-0.2337">
        <ele>35.4</ele>
        <time>2024-05-26T08:51:10Z</time>
      </trkpt>
      <trkpt lat="49.09134" lon="-0.23359">
        <ele>35.4</ele>
        <time>2024-05-26T08:51:11Z</time>
      </trkpt>
      <trkpt lat="49.09134" lon="-0.23348">
        <ele>35.4</ele>
        <time>2024-05-26T08:51:12Z</time>
      </trkpt>
      <trkpt lat="49.09134" lon="-0.23339">
        <ele>35.4</ele>
        <time>2024-05-26T08:51:13Z</time>
      </trkpt>
      <trkpt lat="49.09135" lon="-0.23327">
        <ele>35.4</ele>
        <time>2024-05-26T08:51:14Z</time>
      </trkpt>
      <trkpt lat="49.09135" lon="-0.23316">
        <ele>35.2</ele>
        <time>2024-05-26T08:51:15Z</time>
      </trkpt>
      <trkpt lat="49.09135" lon="-0.23307">
        <ele>35.2</ele>
        <time>2024-05-26T08:51:16Z</time>
      </trkpt>
      <trkpt lat="49.09135" lon="-0.23293">
        <ele>35.2</ele>
        <time>2024-05-26T08:51:17Z</time>
      </trkpt>
      <trkpt lat="49.09136" lon="-0.23282">
        <ele>35.2</ele>
        <time>2024-05-26T08:51:18Z</time>
      </trkpt>
      <trkpt lat="49.09137" lon="-0.23272">
        <ele>35.2</ele>
        <time>2024-05-26T08:51:19Z</time>
      </trkpt>
      <trkpt lat="49.09137" lon="-0.23259">
        <ele>35.2</ele>
        <time>2024-05-26T08:51:20Z</time>
      </trkpt>
      <trkpt lat="49.09138" lon="-0.23247">
        <ele>35.2</ele>
        <time>2024-05-26T08:51:21Z</time>
      </trkpt>
      <trkpt lat="49.09138" lon="-0.23238">
        <ele>35.2</ele>
        <time>2024-05-26T08:51:22Z</time>
      </trkpt>
      <trkpt lat="49.09139" lon="-0.23223">
        <ele>35.2</ele>
        <time>2024-05-26T08:51:23Z</time>
      </trkpt>
      <trkpt lat="49.09139" lon="-0.23213">
        <ele>35.2</ele>
        <time>2024-05-26T08:51:24Z</time>
      </trkpt>
      <trkpt lat="49.09139" lon="-0.23202">
        <ele>35.2</ele>
        <time>2024-05-26T08:51:25Z</time>
      </trkpt>
      <trkpt lat="49.0914" lon="-0.23188">
        <ele>35.2</ele>
        <time>2024-05-26T08:51:26Z</time>
      </trkpt>
      <trkpt lat="49.0914" lon="-0.23176">
        <ele>35.2</ele>
        <time>2024-05-26T08:51:27Z</time>
      </trkpt>
      <trkpt lat="49.0914" lon="-0.23167">
        <ele>35.2</ele>
        <time>2024-05-26T08:51:28Z</time>
      </trkpt>
      <trkpt lat="49.09141" lon="-0.23153">
        <ele>35.2</ele>
        <time>2024-05-26T08:51:29Z</time>
      </trkpt>
      <trkpt lat="49.09141" lon="-0.23141">
        <ele>35.2</ele>
        <time>2024-05-26T08:51:30Z</time>
      </trkpt>
      <trkpt lat="49.09141" lon="-0.23132">
        <ele>35.2</ele>
        <time>2024-05-26T08:51:31Z</time>
      </trkpt>
      <trkpt lat="49.09141" lon="-0.23117">
        <ele>35.2</ele>
        <time>2024-05-26T08:51:32Z</time>
      </trkpt>
      <trkpt lat="49.09141" lon="-0.23105">
        <ele>35.2</ele>
        <time>2024-05-26T08:51:33Z</time>
      </trkpt>
      <trkpt lat="49.09141" lon="-0.23095">
        <ele>35.2</ele>
        <time>2024-05-26T08:51:34Z</time>
      </trkpt>
      <trkpt lat="49.09142" lon="-0.23083">
        <ele>35</ele>
        <time>2024-05-26T08:51:35Z</time>
      </trkpt>
      <trkpt lat="49.09142" lon="-0.23068">
        <ele>35</ele>
        <time>2024-05-26T08:51:36Z</time>
      </trkpt>
      <trkpt lat="49.09143" lon="-0.23058">
        <ele>35</ele>
        <time>2024-05-26T08:51:37Z</time>
      </trkpt>
      <trkpt lat="49.09143" lon="-0.23043">
        <ele>34.8</ele>
        <time>2024-05-26T08:51:38Z</time>
      </trkpt>
      <trkpt lat="49.09144" lon="-0.2303">
        <ele>34.8</ele>
        <time>2024-05-26T08:51:39Z</time>
      </trkpt>
      <trkpt lat="49.09144" lon="-0.23017">
        <ele>34.8</ele>
        <time>2024-05-26T08:51:40Z</time>
      </trkpt>
      <trkpt lat="49.09144" lon="-0.23005">
        <ele>34.8</ele>
        <time>2024-05-26T08:51:41Z</time>
      </trkpt>
      <trkpt lat="49.09144" lon="-0.22994">
        <ele>34.8</ele>
        <time>2024-05-26T08:51:42Z</time>
      </trkpt>
      <trkpt lat="49.09145" lon="-0.22982">
        <ele>35</ele>
        <time>2024-05-26T08:51:43Z</time>
      </trkpt>
      <trkpt lat="49.09145" lon="-0.22967">
        <ele>35</ele>
        <time>2024-05-26T08:51:44Z</time>
      </trkpt>
      <trkpt lat="49.09145" lon="-0.22956">
        <ele>35</ele>
        <time>2024-05-26T08:51:45Z</time>
      </trkpt>
      <trkpt lat="49.09146" lon="-0.22943">
        <ele>35</ele>
        <time>2024-05-26T08:51:46Z</time>
      </trkpt>
      <trkpt lat="49.09146" lon="-0.2293">
        <ele>35.2</ele>
        <time>2024-05-26T08:51:47Z</time>
      </trkpt>
      <trkpt lat="49.09146" lon="-0.22915">
        <ele>35.2</ele>
        <time>2024-05-26T08:51:48Z</time>
      </trkpt>
      <trkpt lat="49.09147" lon="-0.22902">
        <ele>35.2</ele>
        <time>2024-05-26T08:51:49Z</time>
      </trkpt>
      <trkpt lat="49.09147" lon="-0.22891">
        <ele>35.2</ele>
        <time>2024-05-26T08:51:50Z</time>
      </trkpt>
      <trkpt lat="49.09147" lon="-0.22875">
        <ele>35.2</ele>
        <time>2024-05-26T08:51:51Z</time>
      </trkpt>
      <trkpt lat="49.09148" lon="-0.22862">
        <ele>35.2</ele>
        <time>2024-05-26T08:51:52Z</time>
      </trkpt>
      <trkpt lat="49.09148" lon="-0.22852">
        <ele>35.2</ele>
        <time>2024-05-26T08:51:53Z</time>
      </trkpt>
      <trkpt lat="49.09149" lon="-0.22836">
        <ele>35.2</ele>
        <time>2024-05-26T08:51:54Z</time>
      </trkpt>
      <trkpt lat="49.09149" lon="-0.22822">
        <ele>35.4</ele>
        <time>2024-05-26T08:51:55Z</time>
      </trkpt>
      <trkpt lat="49.0915" lon="-0.22811">
        <ele>35.4</ele>
        <time>2024-05-26T08:51:56Z</time>
      </trkpt>
      <trkpt lat="49.0915" lon="-0.22798">
        <ele>35.4</ele>
        <time>2024-05-26T08:51:57Z</time>
      </trkpt>
      <trkpt lat="49.09151" lon="-0.22781">
        <ele>35.4</ele>
        <time>2024-05-26T08:51:58Z</time>
      </trkpt>
      <trkpt lat="49.09151" lon="-0.2277">
        <ele>35.4</ele>
        <time>2024-05-26T08:51:59Z</time>
      </trkpt>
      <trkpt lat="49.09151" lon="-0.22753">
        <ele>35.4</ele>
        <time>2024-05-26T08:52:00Z</time>
      </trkpt>
      <trkpt lat="49.09152" lon="-0.22739">
        <ele>35.4</ele>
        <time>2024-05-26T08:52:01Z</time>
      </trkpt>
      <trkpt lat="49.09152" lon="-0.22727">
        <ele>35.4</ele>
        <time>2024-05-26T08:52:02Z</time>
      </trkpt>
      <trkpt lat="49.09152" lon="-0.2271">
        <ele>35.4</ele>
        <time>2024-05-26T08:52:03Z</time>
      </trkpt>
      <trkpt lat="49.09152" lon="-0.22695">
        <ele>35.4</ele>
        <time>2024-05-26T08:52:04Z</time>
      </trkpt>
      <trkpt lat="49.09153" lon="-0.22683">
        <ele>35.4</ele>
        <time>2024-05-26T08:52:05Z</time>
      </trkpt>
      <trkpt lat="49.09154" lon="-0.22665">
        <ele>35.4</ele>
        <time>2024-05-26T08:52:06Z</time>
      </trkpt>
      <trkpt lat="49.09154" lon="-0.22653">
        <ele>35.4</ele>
        <time>2024-05-26T08:52:07Z</time>
      </trkpt>
      <trkpt lat="49.09155" lon="-0.22638">
        <ele>35.4</ele>
        <time>2024-05-26T08:52:08Z</time>
      </trkpt>
      <trkpt lat="49.09156" lon="-0.2262">
        <ele>35.4</ele>
        <time>2024-05-26T08:52:09Z</time>
      </trkpt>
      <trkpt lat="49.09156" lon="-0.22605">
        <ele>35.4</ele>
        <time>2024-05-26T08:52:10Z</time>
      </trkpt>
      <trkpt lat="49.09156" lon="-0.22593">
        <ele>35.4</ele>
        <time>2024-05-26T08:52:11Z</time>
      </trkpt>
      <trkpt lat="49.09157" lon="-0.22575">
        <ele>35.4</ele>
        <time>2024-05-26T08:52:12Z</time>
      </trkpt>
      <trkpt lat="49.09157" lon="-0.2256">
        <ele>35.4</ele>
        <time>2024-05-26T08:52:13Z</time>
      </trkpt>
      <trkpt lat="49.09157" lon="-0.22548">
        <ele>35.4</ele>
        <time>2024-05-26T08:52:14Z</time>
      </trkpt>
      <trkpt lat="49.09157" lon="-0.22531">
        <ele>35.4</ele>
        <time>2024-05-26T08:52:15Z</time>
      </trkpt>
      <trkpt lat="49.09158" lon="-0.22515">
        <ele>35.4</ele>
        <time>2024-05-26T08:52:16Z</time>
      </trkpt>
      <trkpt lat="49.09158" lon="-0.22503">
        <ele>35.4</ele>
        <time>2024-05-26T08:52:17Z</time>
      </trkpt>
      <trkpt lat="49.09159" lon="-0.22488">
        <ele>35.4</ele>
        <time>2024-05-26T08:52:18Z</time>
      </trkpt>
      <trkpt lat="49.0916" lon="-0.2247">
        <ele>35.2</ele>
        <time>2024-05-26T08:52:19Z</time>
      </trkpt>
      <trkpt lat="49.0916" lon="-0.22455">
        <ele>35.2</ele>
        <time>2024-05-26T08:52:20Z</time>
      </trkpt>
      <trkpt lat="49.0916" lon="-0.22439">
        <ele>35.2</ele>
        <time>2024-05-26T08:52:21Z</time>
      </trkpt>
      <trkpt lat="49.09161" lon="-0.22424">
        <ele>35.2</ele>
        <time>2024-05-26T08:52:22Z</time>
      </trkpt>
      <trkpt lat="49.09162" lon="-0.22409">
        <ele>35.2</ele>
        <time>2024-05-26T08:52:23Z</time>
      </trkpt>
      <trkpt lat="49.09162" lon="-0.22394">
        <ele>35.2</ele>
        <time>2024-05-26T08:52:24Z</time>
      </trkpt>
      <trkpt lat="49.09163" lon="-0.22378">
        <ele>35.2</ele>
        <time>2024-05-26T08:52:25Z</time>
      </trkpt>
      <trkpt lat="49.09163" lon="-0.22363">
        <ele>35.2</ele>
        <time>2024-05-26T08:52:26Z</time>
      </trkpt>
      <trkpt lat="49.09164" lon="-0.22351">
        <ele>35.2</ele>
        <time>2024-05-26T08:52:27Z</time>
      </trkpt>
      <trkpt lat="49.09165" lon="-0.22332">
        <ele>35.2</ele>
        <time>2024-05-26T08:52:28Z</time>
      </trkpt>
      <trkpt lat="49.09166" lon="-0.2232">
        <ele>35.2</ele>
        <time>2024-05-26T08:52:29Z</time>
      </trkpt>
      <trkpt lat="49.09167" lon="-0.22306">
        <ele>35.2</ele>
        <time>2024-05-26T08:52:30Z</time>
      </trkpt>
      <trkpt lat="49.0917" lon="-0.22288">
        <ele>35.2</ele>
        <time>2024-05-26T08:52:31Z</time>
      </trkpt>
      <trkpt lat="49.09172" lon="-0.22273">
        <ele>35.2</ele>
        <time>2024-05-26T08:52:32Z</time>
      </trkpt>
      <trkpt lat="49.09173" lon="-0.22261">
        <ele>35.2</ele>
        <time>2024-05-26T08:52:33Z</time>
      </trkpt>
      <trkpt lat="49.09176" lon="-0.22244">
        <ele>35.2</ele>
        <time>2024-05-26T08:52:34Z</time>
      </trkpt>
      <trkpt lat="49.09178" lon="-0.2223">
        <ele>35.2</ele>
        <time>2024-05-26T08:52:35Z</time>
      </trkpt>
      <trkpt lat="49.0918" lon="-0.22219">
        <ele>35.2</ele>
        <time>2024-05-26T08:52:36Z</time>
      </trkpt>
      <trkpt lat="49.09184" lon="-0.22202">
        <ele>35.2</ele>
        <time>2024-05-26T08:52:37Z</time>
      </trkpt>
      <trkpt lat="49.09187" lon="-0.22188">
        <ele>35.2</ele>
        <time>2024-05-26T08:52:38Z</time>
      </trkpt>
      <trkpt lat="49.09189" lon="-0.22176">
        <ele>35.2</ele>
        <time>2024-05-26T08:52:39Z</time>
      </trkpt>
      <trkpt lat="49.09193" lon="-0.22159">
        <ele>35.2</ele>
        <time>2024-05-26T08:52:40Z</time>
      </trkpt>
      <trkpt lat="49.09196" lon="-0.22144">
        <ele>35.2</ele>
        <time>2024-05-26T08:52:41Z</time>
      </trkpt>
      <trkpt lat="49.09198" lon="-0.22132">
        <ele>35.2</ele>
        <time>2024-05-26T08:52:42Z</time>
      </trkpt>
      <trkpt lat="49.09202" lon="-0.22114">
        <ele>35.2</ele>
        <time>2024-05-26T08:52:43Z</time>
      </trkpt>
      <trkpt lat="49.09205" lon="-0.22102">
        <ele>35.2</ele>
        <time>2024-05-26T08:52:44Z</time>
      </trkpt>
      <trkpt lat="49.09208" lon="-0.22087">
        <ele>35</ele>
        <time>2024-05-26T08:52:45Z</time>
      </trkpt>
      <trkpt lat="49.09211" lon="-0.22069">
        <ele>35</ele>
        <time>2024-05-26T08:52:46Z</time>
      </trkpt>
      <trkpt lat="49.09214" lon="-0.22057">
        <ele>34.6</ele>
        <time>2024-05-26T08:52:47Z</time>
      </trkpt>
      <trkpt lat="49.09217" lon="-0.22043">
        <ele>34.4</ele>
        <time>2024-05-26T08:52:48Z</time>
      </trkpt>
      <trkpt lat="49.09221" lon="-0.22026">
        <ele>34.4</ele>
        <time>2024-05-26T08:52:49Z</time>
      </trkpt>
      <trkpt lat="49.09223" lon="-0.22014">
        <ele>34.2</ele>
        <time>2024-05-26T08:52:50Z</time>
      </trkpt>
      <trkpt lat="49.09226" lon="-0.22">
        <ele>34.2</ele>
        <time>2024-05-26T08:52:51Z</time>
      </trkpt>
      <trkpt lat="49.09229" lon="-0.21986">
        <ele>34.2</ele>
        <time>2024-05-26T08:52:52Z</time>
      </trkpt>
      <trkpt lat="49.09233" lon="-0.21969">
        <ele>34</ele>
        <time>2024-05-26T08:52:53Z</time>
      </trkpt>
      <trkpt lat="49.09235" lon="-0.21958">
        <ele>33.8</ele>
        <time>2024-05-26T08:52:54Z</time>
      </trkpt>
      <trkpt lat="49.09239" lon="-0.21941">
        <ele>33.6</ele>
        <time>2024-05-26T08:52:55Z</time>
      </trkpt>
      <trkpt lat="49.09242" lon="-0.21927">
        <ele>33.6</ele>
        <time>2024-05-26T08:52:56Z</time>
      </trkpt>
      <trkpt lat="49.09244" lon="-0.21916">
        <ele>33.6</ele>
        <time>2024-05-26T08:52:57Z</time>
      </trkpt>
      <trkpt lat="49.09247" lon="-0.21899">
        <ele>33.6</ele>
        <time>2024-05-26T08:52:58Z</time>
      </trkpt>
      <trkpt lat="49.0925" lon="-0.21885">
        <ele>33.6</ele>
        <time>2024-05-26T08:52:59Z</time>
      </trkpt>
      <trkpt lat="49.09253" lon="-0.21871">
        <ele>33.6</ele>
        <time>2024-05-26T08:53:00Z</time>
      </trkpt>
      <trkpt lat="49.09255" lon="-0.2186">
        <ele>33.6</ele>
        <time>2024-05-26T08:53:01Z</time>
      </trkpt>
      <trkpt lat="49.09258" lon="-0.21842">
        <ele>33.6</ele>
        <time>2024-05-26T08:53:02Z</time>
      </trkpt>
      <trkpt lat="49.0926" lon="-0.21827">
        <ele>33.6</ele>
        <time>2024-05-26T08:53:03Z</time>
      </trkpt>
      <trkpt lat="49.09262" lon="-0.21815">
        <ele>33.6</ele>
        <time>2024-05-26T08:53:04Z</time>
      </trkpt>
      <trkpt lat="49.09265" lon="-0.21797">
        <ele>33.6</ele>
        <time>2024-05-26T08:53:05Z</time>
      </trkpt>
      <trkpt lat="49.09267" lon="-0.21782">
        <ele>33.6</ele>
        <time>2024-05-26T08:53:06Z</time>
      </trkpt>
      <trkpt lat="49.09268" lon="-0.2177">
        <ele>33.6</ele>
        <time>2024-05-26T08:53:07Z</time>
      </trkpt>
      <trkpt lat="49.09271" lon="-0.21755">
        <ele>33.6</ele>
        <time>2024-05-26T08:53:08Z</time>
      </trkpt>
      <trkpt lat="49.09273" lon="-0.21736">
        <ele>33.6</ele>
        <time>2024-05-26T08:53:09Z</time>
      </trkpt>
      <trkpt lat="49.09274" lon="-0.21724">
        <ele>33.6</ele>
        <time>2024-05-26T08:53:10Z</time>
      </trkpt>
      <trkpt lat="49.09276" lon="-0.21705">
        <ele>33.4</ele>
        <time>2024-05-26T08:53:11Z</time>
      </trkpt>
      <trkpt lat="49.09278" lon="-0.21692">
        <ele>33.4</ele>
        <time>2024-05-26T08:53:12Z</time>
      </trkpt>
      <trkpt lat="49.09279" lon="-0.21677">
        <ele>33.4</ele>
        <time>2024-05-26T08:53:13Z</time>
      </trkpt>
      <trkpt lat="49.09281" lon="-0.21658">
        <ele>33.4</ele>
        <time>2024-05-26T08:53:14Z</time>
      </trkpt>
      <trkpt lat="49.09283" lon="-0.21642">
        <ele>33.4</ele>
        <time>2024-05-26T08:53:15Z</time>
      </trkpt>
      <trkpt lat="49.09284" lon="-0.21626">
        <ele>33.4</ele>
        <time>2024-05-26T08:53:16Z</time>
      </trkpt>
      <trkpt lat="49.09286" lon="-0.2161">
        <ele>33.4</ele>
        <time>2024-05-26T08:53:17Z</time>
      </trkpt>
      <trkpt lat="49.09287" lon="-0.21597">
        <ele>33.4</ele>
        <time>2024-05-26T08:53:18Z</time>
      </trkpt>
      <trkpt lat="49.09289" lon="-0.2158">
        <ele>33.4</ele>
        <time>2024-05-26T08:53:19Z</time>
      </trkpt>
      <trkpt lat="49.09291" lon="-0.21561">
        <ele>33.2</ele>
        <time>2024-05-26T08:53:20Z</time>
      </trkpt>
      <trkpt lat="49.09293" lon="-0.21544">
        <ele>33.2</ele>
        <time>2024-05-26T08:53:21Z</time>
      </trkpt>
      <trkpt lat="49.09294" lon="-0.21531">
        <ele>33.2</ele>
        <time>2024-05-26T08:53:22Z</time>
      </trkpt>
      <trkpt lat="49.09296" lon="-0.21512">
        <ele>33.2</ele>
        <time>2024-05-26T08:53:23Z</time>
      </trkpt>
      <trkpt lat="49.09298" lon="-0.21499">
        <ele>33.2</ele>
        <time>2024-05-26T08:53:24Z</time>
      </trkpt>
      <trkpt lat="49.093" lon="-0.21483">
        <ele>33</ele>
        <time>2024-05-26T08:53:25Z</time>
      </trkpt>
      <trkpt lat="49.09301" lon="-0.21467">
        <ele>33</ele>
        <time>2024-05-26T08:53:26Z</time>
      </trkpt>
      <trkpt lat="49.09303" lon="-0.21451">
        <ele>33</ele>
        <time>2024-05-26T08:53:27Z</time>
      </trkpt>
      <trkpt lat="49.09305" lon="-0.21435">
        <ele>32.8</ele>
        <time>2024-05-26T08:53:28Z</time>
      </trkpt>
      <trkpt lat="49.09306" lon="-0.21419">
        <ele>32.8</ele>
        <time>2024-05-26T08:53:29Z</time>
      </trkpt>
      <trkpt lat="49.09308" lon="-0.21401">
        <ele>32.6</ele>
        <time>2024-05-26T08:53:30Z</time>
      </trkpt>
      <trkpt lat="49.09309" lon="-0.21389">
        <ele>32.6</ele>
        <time>2024-05-26T08:53:31Z</time>
      </trkpt>
      <trkpt lat="49.09311" lon="-0.21374">
        <ele>32.4</ele>
        <time>2024-05-26T08:53:32Z</time>
      </trkpt>
      <trkpt lat="49.09313" lon="-0.21359">
        <ele>32.2</ele>
        <time>2024-05-26T08:53:33Z</time>
      </trkpt>
      <trkpt lat="49.09315" lon="-0.21344">
        <ele>32.2</ele>
        <time>2024-05-26T08:53:34Z</time>
      </trkpt>
      <trkpt lat="49.09317" lon="-0.21328">
        <ele>32</ele>
        <time>2024-05-26T08:53:35Z</time>
      </trkpt>
      <trkpt lat="49.09319" lon="-0.21311">
        <ele>31.8</ele>
        <time>2024-05-26T08:53:36Z</time>
      </trkpt>
      <trkpt lat="49.09321" lon="-0.21292">
        <ele>31.6</ele>
        <time>2024-05-26T08:53:37Z</time>
      </trkpt>
      <trkpt lat="49.09323" lon="-0.21278">
        <ele>31.2</ele>
        <time>2024-05-26T08:53:38Z</time>
      </trkpt>
      <trkpt lat="49.09325" lon="-0.21261">
        <ele>31.2</ele>
        <time>2024-05-26T08:53:39Z</time>
      </trkpt>
      <trkpt lat="49.09327" lon="-0.21244">
        <ele>31</ele>
        <time>2024-05-26T08:53:40Z</time>
      </trkpt>
      <trkpt lat="49.09329" lon="-0.21227">
        <ele>31</ele>
        <time>2024-05-26T08:53:41Z</time>
      </trkpt>
      <trkpt lat="49.09331" lon="-0.2121">
        <ele>31</ele>
        <time>2024-05-26T08:53:42Z</time>
      </trkpt>
      <trkpt lat="49.09334" lon="-0.21194">
        <ele>30.8</ele>
        <time>2024-05-26T08:53:43Z</time>
      </trkpt>
      <trkpt lat="49.09337" lon="-0.21178">
        <ele>30.8</ele>
        <time>2024-05-26T08:53:44Z</time>
      </trkpt>
      <trkpt lat="49.09341" lon="-0.21159">
        <ele>30.8</ele>
        <time>2024-05-26T08:53:45Z</time>
      </trkpt>
      <trkpt lat="49.09345" lon="-0.21147">
        <ele>30.6</ele>
        <time>2024-05-26T08:53:46Z</time>
      </trkpt>
      <trkpt lat="49.0935" lon="-0.21132">
        <ele>30.6</ele>
        <time>2024-05-26T08:53:47Z</time>
      </trkpt>
      <trkpt lat="49.09357" lon="-0.21118">
        <ele>30.4</ele>
        <time>2024-05-26T08:53:48Z</time>
      </trkpt>
      <trkpt lat="49.09364" lon="-0.21105">
        <ele>30.2</ele>
        <time>2024-05-26T08:53:49Z</time>
      </trkpt>
      <trkpt lat="49.09372" lon="-0.21094">
        <ele>30</ele>
        <time>2024-05-26T08:53:50Z</time>
      </trkpt>
      <trkpt lat="49.0938" lon="-0.21082">
        <ele>29.8</ele>
        <time>2024-05-26T08:53:51Z</time>
      </trkpt>
      <trkpt lat="49.09388" lon="-0.21072">
        <ele>29.8</ele>
        <time>2024-05-26T08:53:52Z</time>
      </trkpt>
      <trkpt lat="49.09397" lon="-0.21061">
        <ele>29.8</ele>
        <time>2024-05-26T08:53:53Z</time>
      </trkpt>
      <trkpt lat="49.09405" lon="-0.21051">
        <ele>29.6</ele>
        <time>2024-05-26T08:53:54Z</time>
      </trkpt>
      <trkpt lat="49.09414" lon="-0.2104">
        <ele>29.6</ele>
        <time>2024-05-26T08:53:55Z</time>
      </trkpt>
      <trkpt lat="49.09422" lon="-0.21029">
        <ele>29.6</ele>
        <time>2024-05-26T08:53:56Z</time>
      </trkpt>
      <trkpt lat="49.0943" lon="-0.21019">
        <ele>29.6</ele>
        <time>2024-05-26T08:53:57Z</time>
      </trkpt>
      <trkpt lat="49.09439" lon="-0.21008">
        <ele>29.4</ele>
        <time>2024-05-26T08:53:58Z</time>
      </trkpt>
      <trkpt lat="49.09447" lon="-0.20998">
        <ele>29.4</ele>
        <time>2024-05-26T08:53:59Z</time>
      </trkpt>
      <trkpt lat="49.09455" lon="-0.20987">
        <ele>29.2</ele>
        <time>2024-05-26T08:54:00Z</time>
      </trkpt>
      <trkpt lat="49.09463" lon="-0.20977">
        <ele>29.2</ele>
        <time>2024-05-26T08:54:01Z</time>
      </trkpt>
      <trkpt lat="49.09471" lon="-0.20967">
        <ele>29</ele>
        <time>2024-05-26T08:54:02Z</time>
      </trkpt>
      <trkpt lat="49.09479" lon="-0.20957">
        <ele>28.6</ele>
        <time>2024-05-26T08:54:03Z</time>
      </trkpt>
      <trkpt lat="49.09487" lon="-0.20947">
        <ele>28.2</ele>
        <time>2024-05-26T08:54:04Z</time>
      </trkpt>
      <trkpt lat="49.09494" lon="-0.20937">
        <ele>28</ele>
        <time>2024-05-26T08:54:05Z</time>
      </trkpt>
      <trkpt lat="49.09502" lon="-0.20928">
        <ele>27.8</ele>
        <time>2024-05-26T08:54:06Z</time>
      </trkpt>
      <trkpt lat="49.0951" lon="-0.20918">
        <ele>27.6</ele>
        <time>2024-05-26T08:54:07Z</time>
      </trkpt>
      <trkpt lat="49.09517" lon="-0.20908">
        <ele>27.6</ele>
        <time>2024-05-26T08:54:08Z</time>
      </trkpt>
      <trkpt lat="49.09525" lon="-0.20899">
        <ele>27.6</ele>
        <time>2024-05-26T08:54:09Z</time>
      </trkpt>
      <trkpt lat="49.09533" lon="-0.20889">
        <ele>27.4</ele>
        <time>2024-05-26T08:54:10Z</time>
      </trkpt>
      <trkpt lat="49.0954" lon="-0.20879">
        <ele>27.2</ele>
        <time>2024-05-26T08:54:11Z</time>
      </trkpt>
      <trkpt lat="49.09548" lon="-0.20869">
        <ele>27.2</ele>
        <time>2024-05-26T08:54:12Z</time>
      </trkpt>
      <trkpt lat="49.09556" lon="-0.2086">
        <ele>26.8</ele>
        <time>2024-05-26T08:54:13Z</time>
      </trkpt>
      <trkpt lat="49.09564" lon="-0.2085">
        <ele>26.8</ele>
        <time>2024-05-26T08:54:14Z</time>
      </trkpt>
      <trkpt lat="49.09573" lon="-0.20839">
        <ele>26.6</ele>
        <time>2024-05-26T08:54:15Z</time>
      </trkpt>
      <trkpt lat="49.09579" lon="-0.20831">
        <ele>26.6</ele>
        <time>2024-05-26T08:54:16Z</time>
      </trkpt>
      <trkpt lat="49.09586" lon="-0.20821">
        <ele>26.4</ele>
        <time>2024-05-26T08:54:17Z</time>
      </trkpt>
      <trkpt lat="49.09594" lon="-0.20811">
        <ele>26.4</ele>
        <time>2024-05-26T08:54:18Z</time>
      </trkpt>
      <trkpt lat="49.09602" lon="-0.20801">
        <ele>26.2</ele>
        <time>2024-05-26T08:54:19Z</time>
      </trkpt>
      <trkpt lat="49.0961" lon="-0.20791">
        <ele>26.2</ele>
        <time>2024-05-26T08:54:20Z</time>
      </trkpt>
      <trkpt lat="49.09618" lon="-0.20781">
        <ele>26.2</ele>
        <time>2024-05-26T08:54:21Z</time>
      </trkpt>
      <trkpt lat="49.09625" lon="-0.20771">
        <ele>26.2</ele>
        <time>2024-05-26T08:54:22Z</time>
      </trkpt>
      <trkpt lat="49.09633" lon="-0.20761">
        <ele>26</ele>
        <time>2024-05-26T08:54:23Z</time>
      </trkpt>
      <trkpt lat="49.0964" lon="-0.20752">
        <ele>26</ele>
        <time>2024-05-26T08:54:24Z</time>
      </trkpt>
      <trkpt lat="49.09648" lon="-0.20742">
        <ele>25.8</ele>
        <time>2024-05-26T08:54:25Z</time>
      </trkpt>
      <trkpt lat="49.09655" lon="-0.20733">
        <ele>25.8</ele>
        <time>2024-05-26T08:54:26Z</time>
      </trkpt>
      <trkpt lat="49.09662" lon="-0.20723">
        <ele>25.6</ele>
        <time>2024-05-26T08:54:27Z</time>
      </trkpt>
      <trkpt lat="49.0967" lon="-0.20713">
        <ele>25.6</ele>
        <time>2024-05-26T08:54:28Z</time>
      </trkpt>
      <trkpt lat="49.09677" lon="-0.20704">
        <ele>25.6</ele>
        <time>2024-05-26T08:54:29Z</time>
      </trkpt>
      <trkpt lat="49.09685" lon="-0.20694">
        <ele>25.6</ele>
        <time>2024-05-26T08:54:30Z</time>
      </trkpt>
      <trkpt lat="49.09692" lon="-0.20685">
        <ele>25.6</ele>
        <time>2024-05-26T08:54:31Z</time>
      </trkpt>
      <trkpt lat="49.097" lon="-0.20675">
        <ele>25.6</ele>
        <time>2024-05-26T08:54:32Z</time>
      </trkpt>
      <trkpt lat="49.09707" lon="-0.20665">
        <ele>25.6</ele>
        <time>2024-05-26T08:54:33Z</time>
      </trkpt>
      <trkpt lat="49.09715" lon="-0.20656">
        <ele>25.6</ele>
        <time>2024-05-26T08:54:34Z</time>
      </trkpt>
      <trkpt lat="49.09722" lon="-0.20646">
        <ele>25.6</ele>
        <time>2024-05-26T08:54:35Z</time>
      </trkpt>
      <trkpt lat="49.0973" lon="-0.20637">
        <ele>25.6</ele>
        <time>2024-05-26T08:54:36Z</time>
      </trkpt>
      <trkpt lat="49.09737" lon="-0.20627">
        <ele>25.6</ele>
        <time>2024-05-26T08:54:37Z</time>
      </trkpt>
      <trkpt lat="49.09744" lon="-0.20618">
        <ele>25.6</ele>
        <time>2024-05-26T08:54:38Z</time>
      </trkpt>
      <trkpt lat="49.09752" lon="-0.20608">
        <ele>25.6</ele>
        <time>2024-05-26T08:54:39Z</time>
      </trkpt>
      <trkpt lat="49.09759" lon="-0.20599">
        <ele>25.6</ele>
        <time>2024-05-26T08:54:40Z</time>
      </trkpt>
      <trkpt lat="49.09766" lon="-0.20589">
        <ele>25.6</ele>
        <time>2024-05-26T08:54:41Z</time>
      </trkpt>
      <trkpt lat="49.09773" lon="-0.2058">
        <ele>25.6</ele>
        <time>2024-05-26T08:54:42Z</time>
      </trkpt>
      <trkpt lat="49.09781" lon="-0.20571">
        <ele>25.6</ele>
        <time>2024-05-26T08:54:43Z</time>
      </trkpt>
      <trkpt lat="49.09788" lon="-0.20562">
        <ele>25.6</ele>
        <time>2024-05-26T08:54:44Z</time>
      </trkpt>
      <trkpt lat="49.09796" lon="-0.20553">
        <ele>25.8</ele>
        <time>2024-05-26T08:54:45Z</time>
      </trkpt>
      <trkpt lat="49.09805" lon="-0.20543">
        <ele>25.8</ele>
        <time>2024-05-26T08:54:46Z</time>
      </trkpt>
      <trkpt lat="49.09811" lon="-0.20536">
        <ele>26</ele>
        <time>2024-05-26T08:54:47Z</time>
      </trkpt>
      <trkpt lat="49.09819" lon="-0.20529">
        <ele>26</ele>
        <time>2024-05-26T08:54:48Z</time>
      </trkpt>
      <trkpt lat="49.09828" lon="-0.20522">
        <ele>26</ele>
        <time>2024-05-26T08:54:49Z</time>
      </trkpt>
      <trkpt lat="49.09836" lon="-0.20515">
        <ele>26</ele>
        <time>2024-05-26T08:54:50Z</time>
      </trkpt>
      <trkpt lat="49.09844" lon="-0.20508">
        <ele>26</ele>
        <time>2024-05-26T08:54:51Z</time>
      </trkpt>
      <trkpt lat="49.09854" lon="-0.20501">
        <ele>26.2</ele>
        <time>2024-05-26T08:54:52Z</time>
      </trkpt>
      <trkpt lat="49.09861" lon="-0.20496">
        <ele>26.2</ele>
        <time>2024-05-26T08:54:53Z</time>
      </trkpt>
      <trkpt lat="49.0987" lon="-0.2049">
        <ele>26.2</ele>
        <time>2024-05-26T08:54:54Z</time>
      </trkpt>
      <trkpt lat="49.09879" lon="-0.20485">
        <ele>26.2</ele>
        <time>2024-05-26T08:54:55Z</time>
      </trkpt>
      <trkpt lat="49.09887" lon="-0.20479">
        <ele>26.6</ele>
        <time>2024-05-26T08:54:56Z</time>
      </trkpt>
      <trkpt lat="49.09896" lon="-0.20474">
        <ele>26.6</ele>
        <time>2024-05-26T08:54:57Z</time>
      </trkpt>
      <trkpt lat="49.09905" lon="-0.20468">
        <ele>26.8</ele>
        <time>2024-05-26T08:54:58Z</time>
      </trkpt>
      <trkpt lat="49.09914" lon="-0.20463">
        <ele>26.8</ele>
        <time>2024-05-26T08:54:59Z</time>
      </trkpt>
      <trkpt lat="49.09923" lon="-0.20457">
        <ele>26.8</ele>
        <time>2024-05-26T08:55:00Z</time>
      </trkpt>
      <trkpt lat="49.09931" lon="-0.20452">
        <ele>26.8</ele>
        <time>2024-05-26T08:55:01Z</time>
      </trkpt>
      <trkpt lat="49.0994" lon="-0.20446">
        <ele>26.8</ele>
        <time>2024-05-26T08:55:02Z</time>
      </trkpt>
      <trkpt lat="49.09949" lon="-0.20441">
        <ele>26.8</ele>
        <time>2024-05-26T08:55:03Z</time>
      </trkpt>
      <trkpt lat="49.09957" lon="-0.20436">
        <ele>26.8</ele>
        <time>2024-05-26T08:55:04Z</time>
      </trkpt>
      <trkpt lat="49.09966" lon="-0.2043">
        <ele>27</ele>
        <time>2024-05-26T08:55:05Z</time>
      </trkpt>
      <trkpt lat="49.09975" lon="-0.20425">
        <ele>27</ele>
        <time>2024-05-26T08:55:06Z</time>
      </trkpt>
      <trkpt lat="49.09984" lon="-0.2042">
        <ele>27</ele>
        <time>2024-05-26T08:55:07Z</time>
      </trkpt>
      <trkpt lat="49.09993" lon="-0.20415">
        <ele>27.2</ele>
        <time>2024-05-26T08:55:08Z</time>
      </trkpt>
      <trkpt lat="49.10001" lon="-0.2041">
        <ele>27</ele>
        <time>2024-05-26T08:55:09Z</time>
      </trkpt>
      <trkpt lat="49.1001" lon="-0.20404">
        <ele>27</ele>
        <time>2024-05-26T08:55:10Z</time>
      </trkpt>
      <trkpt lat="49.10019" lon="-0.20398">
        <ele>27</ele>
        <time>2024-05-26T08:55:11Z</time>
      </trkpt>
      <trkpt lat="49.10028" lon="-0.20392">
        <ele>27</ele>
        <time>2024-05-26T08:55:12Z</time>
      </trkpt>
      <trkpt lat="49.10038" lon="-0.20385">
        <ele>26.8</ele>
        <time>2024-05-26T08:55:13Z</time>
      </trkpt>
      <trkpt lat="49.10045" lon="-0.2038">
        <ele>26.8</ele>
        <time>2024-05-26T08:55:14Z</time>
      </trkpt>
      <trkpt lat="49.10054" lon="-0.20373">
        <ele>26.8</ele>
        <time>2024-05-26T08:55:15Z</time>
      </trkpt>
      <trkpt lat="49.10062" lon="-0.20367">
        <ele>26.8</ele>
        <time>2024-05-26T08:55:16Z</time>
      </trkpt>
      <trkpt lat="49.10071" lon="-0.20362">
        <ele>26.8</ele>
        <time>2024-05-26T08:55:17Z</time>
      </trkpt>
      <trkpt lat="49.1008" lon="-0.20357">
        <ele>26.8</ele>
        <time>2024-05-26T08:55:18Z</time>
      </trkpt>
      <trkpt lat="49.1009" lon="-0.2035">
        <ele>26.6</ele>
        <time>2024-05-26T08:55:19Z</time>
      </trkpt>
      <trkpt lat="49.10097" lon="-0.20345">
        <ele>26.6</ele>
        <time>2024-05-26T08:55:20Z</time>
      </trkpt>
      <trkpt lat="49.10106" lon="-0.20339">
        <ele>26.4</ele>
        <time>2024-05-26T08:55:21Z</time>
      </trkpt>
      <trkpt lat="49.10115" lon="-0.20334">
        <ele>26.2</ele>
        <time>2024-05-26T08:55:22Z</time>
      </trkpt>
      <trkpt lat="49.10124" lon="-0.20329">
        <ele>26</ele>
        <time>2024-05-26T08:55:23Z</time>
      </trkpt>
      <trkpt lat="49.10132" lon="-0.20323">
        <ele>26</ele>
        <time>2024-05-26T08:55:24Z</time>
      </trkpt>
      <trkpt lat="49.10141" lon="-0.20318">
        <ele>25.8</ele>
        <time>2024-05-26T08:55:25Z</time>
      </trkpt>
      <trkpt lat="49.10149" lon="-0.20312">
        <ele>25.8</ele>
        <time>2024-05-26T08:55:26Z</time>
      </trkpt>
      <trkpt lat="49.10158" lon="-0.20307">
        <ele>26</ele>
        <time>2024-05-26T08:55:27Z</time>
      </trkpt>
      <trkpt lat="49.10166" lon="-0.20301">
        <ele>26</ele>
        <time>2024-05-26T08:55:28Z</time>
      </trkpt>
      <trkpt lat="49.10175" lon="-0.20295">
        <ele>25.8</ele>
        <time>2024-05-26T08:55:29Z</time>
      </trkpt>
      <trkpt lat="49.10184" lon="-0.2029">
        <ele>25.6</ele>
        <time>2024-05-26T08:55:30Z</time>
      </trkpt>
      <trkpt lat="49.10192" lon="-0.20283">
        <ele>25.6</ele>
        <time>2024-05-26T08:55:31Z</time>
      </trkpt>
      <trkpt lat="49.102" lon="-0.20276">
        <ele>25.4</ele>
        <time>2024-05-26T08:55:32Z</time>
      </trkpt>
      <trkpt lat="49.10209" lon="-0.20268">
        <ele>25.2</ele>
        <time>2024-05-26T08:55:33Z</time>
      </trkpt>
      <trkpt lat="49.10217" lon="-0.2026">
        <ele>25</ele>
        <time>2024-05-26T08:55:34Z</time>
      </trkpt>
      <trkpt lat="49.10226" lon="-0.20249">
        <ele>25</ele>
        <time>2024-05-26T08:55:35Z</time>
      </trkpt>
      <trkpt lat="49.10232" lon="-0.20241">
        <ele>24.8</ele>
        <time>2024-05-26T08:55:36Z</time>
      </trkpt>
      <trkpt lat="49.10239" lon="-0.20231">
        <ele>24.8</ele>
        <time>2024-05-26T08:55:37Z</time>
      </trkpt>
      <trkpt lat="49.10246" lon="-0.2022">
        <ele>24.8</ele>
        <time>2024-05-26T08:55:38Z</time>
      </trkpt>
      <trkpt lat="49.10252" lon="-0.20209">
        <ele>24.8</ele>
        <time>2024-05-26T08:55:39Z</time>
      </trkpt>
      <trkpt lat="49.10258" lon="-0.20197">
        <ele>24.6</ele>
        <time>2024-05-26T08:55:40Z</time>
      </trkpt>
      <trkpt lat="49.10266" lon="-0.20183">
        <ele>24.6</ele>
        <time>2024-05-26T08:55:41Z</time>
      </trkpt>
      <trkpt lat="49.10271" lon="-0.20174">
        <ele>24.6</ele>
        <time>2024-05-26T08:55:42Z</time>
      </trkpt>
      <trkpt lat="49.10278" lon="-0.20162">
        <ele>24.4</ele>
        <time>2024-05-26T08:55:43Z</time>
      </trkpt>
      <trkpt lat="49.10284" lon="-0.2015">
        <ele>24.2</ele>
        <time>2024-05-26T08:55:44Z</time>
      </trkpt>
      <trkpt lat="49.1029" lon="-0.20139">
        <ele>23.8</ele>
        <time>2024-05-26T08:55:45Z</time>
      </trkpt>
      <trkpt lat="49.10297" lon="-0.20127">
        <ele>23.8</ele>
        <time>2024-05-26T08:55:46Z</time>
      </trkpt>
      <trkpt lat="49.10304" lon="-0.20113">
        <ele>23.4</ele>
        <time>2024-05-26T08:55:47Z</time>
      </trkpt>
      <trkpt lat="49.1031" lon="-0.20103">
        <ele>23.2</ele>
        <time>2024-05-26T08:55:48Z</time>
      </trkpt>
      <trkpt lat="49.10316" lon="-0.20091">
        <ele>23.2</ele>
        <time>2024-05-26T08:55:49Z</time>
      </trkpt>
      <trkpt lat="49.10322" lon="-0.2008">
        <ele>23</ele>
        <time>2024-05-26T08:55:50Z</time>
      </trkpt>
      <trkpt lat="49.10329" lon="-0.20068">
        <ele>22.8</ele>
        <time>2024-05-26T08:55:51Z</time>
      </trkpt>
      <trkpt lat="49.10335" lon="-0.20057">
        <ele>22.6</ele>
        <time>2024-05-26T08:55:52Z</time>
      </trkpt>
      <trkpt lat="49.10341" lon="-0.20046">
        <ele>22.4</ele>
        <time>2024-05-26T08:55:53Z</time>
      </trkpt>
      <trkpt lat="49.10347" lon="-0.20037">
        <ele>22.2</ele>
        <time>2024-05-26T08:55:54Z</time>
      </trkpt>
      <trkpt lat="49.10353" lon="-0.20027">
        <ele>22</ele>
        <time>2024-05-26T08:55:55Z</time>
      </trkpt>
      <trkpt lat="49.1036" lon="-0.20018">
        <ele>21.8</ele>
        <time>2024-05-26T08:55:56Z</time>
      </trkpt>
      <trkpt lat="49.10366" lon="-0.20008">
        <ele>21.6</ele>
        <time>2024-05-26T08:55:57Z</time>
      </trkpt>
      <trkpt lat="49.10373" lon="-0.19999">
        <ele>21.2</ele>
        <time>2024-05-26T08:55:58Z</time>
      </trkpt>
      <trkpt lat="49.10382" lon="-0.19988">
        <ele>20.8</ele>
        <time>2024-05-26T08:55:59Z</time>
      </trkpt>
      <trkpt lat="49.10388" lon="-0.19981">
        <ele>20.8</ele>
        <time>2024-05-26T08:56:00Z</time>
      </trkpt>
      <trkpt lat="49.10395" lon="-0.19973">
        <ele>20.6</ele>
        <time>2024-05-26T08:56:01Z</time>
      </trkpt>
      <trkpt lat="49.10404" lon="-0.19963">
        <ele>20.6</ele>
        <time>2024-05-26T08:56:02Z</time>
      </trkpt>
      <trkpt lat="49.1041" lon="-0.19957">
        <ele>20.4</ele>
        <time>2024-05-26T08:56:03Z</time>
      </trkpt>
      <trkpt lat="49.10418" lon="-0.1995">
        <ele>20.4</ele>
        <time>2024-05-26T08:56:04Z</time>
      </trkpt>
      <trkpt lat="49.10426" lon="-0.19943">
        <ele>20.4</ele>
        <time>2024-05-26T08:56:05Z</time>
      </trkpt>
      <trkpt lat="49.10433" lon="-0.19936">
        <ele>20.2</ele>
        <time>2024-05-26T08:56:06Z</time>
      </trkpt>
      <trkpt lat="49.10441" lon="-0.19929">
        <ele>20.2</ele>
        <time>2024-05-26T08:56:07Z</time>
      </trkpt>
      <trkpt lat="49.10449" lon="-0.19923">
        <ele>19.8</ele>
        <time>2024-05-26T08:56:08Z</time>
      </trkpt>
      <trkpt lat="49.10457" lon="-0.19917">
        <ele>19.6</ele>
        <time>2024-05-26T08:56:09Z</time>
      </trkpt>
      <trkpt lat="49.10465" lon="-0.1991">
        <ele>19.6</ele>
        <time>2024-05-26T08:56:10Z</time>
      </trkpt>
      <trkpt lat="49.10472" lon="-0.19902">
        <ele>19.2</ele>
        <time>2024-05-26T08:56:11Z</time>
      </trkpt>
      <trkpt lat="49.10477" lon="-0.19892">
        <ele>18.8</ele>
        <time>2024-05-26T08:56:12Z</time>
      </trkpt>
      <trkpt lat="49.10481" lon="-0.19879">
        <ele>18.6</ele>
        <time>2024-05-26T08:56:13Z</time>
      </trkpt>
      <trkpt lat="49.10482" lon="-0.19866">
        <ele>18.2</ele>
        <time>2024-05-26T08:56:14Z</time>
      </trkpt>
      <trkpt lat="49.10483" lon="-0.19852">
        <ele>18</ele>
        <time>2024-05-26T08:56:15Z</time>
      </trkpt>
      <trkpt lat="49.10484" lon="-0.19838">
        <ele>17.6</ele>
        <time>2024-05-26T08:56:16Z</time>
      </trkpt>
      <trkpt lat="49.10487" lon="-0.19821">
        <ele>17.4</ele>
        <time>2024-05-26T08:56:17Z</time>
      </trkpt>
      <trkpt lat="49.10491" lon="-0.1981">
        <ele>17.2</ele>
        <time>2024-05-26T08:56:18Z</time>
      </trkpt>
      <trkpt lat="49.10496" lon="-0.19798">
        <ele>16.8</ele>
        <time>2024-05-26T08:56:19Z</time>
      </trkpt>
      <trkpt lat="49.10503" lon="-0.19788">
        <ele>16.8</ele>
        <time>2024-05-26T08:56:20Z</time>
      </trkpt>
      <trkpt lat="49.1051" lon="-0.19778">
        <ele>16.6</ele>
        <time>2024-05-26T08:56:21Z</time>
      </trkpt>
      <trkpt lat="49.10518" lon="-0.19769">
        <ele>16.4</ele>
        <time>2024-05-26T08:56:22Z</time>
      </trkpt>
      <trkpt lat="49.10525" lon="-0.1976">
        <ele>16.2</ele>
        <time>2024-05-26T08:56:23Z</time>
      </trkpt>
      <trkpt lat="49.10532" lon="-0.19751">
        <ele>16</ele>
        <time>2024-05-26T08:56:24Z</time>
      </trkpt>
      <trkpt lat="49.1054" lon="-0.19742">
        <ele>15.8</ele>
        <time>2024-05-26T08:56:25Z</time>
      </trkpt>
      <trkpt lat="49.10547" lon="-0.19734">
        <ele>15.6</ele>
        <time>2024-05-26T08:56:26Z</time>
      </trkpt>
      <trkpt lat="49.10554" lon="-0.19725">
        <ele>15.4</ele>
        <time>2024-05-26T08:56:27Z</time>
      </trkpt>
      <trkpt lat="49.10562" lon="-0.19718">
        <ele>15.4</ele>
        <time>2024-05-26T08:56:28Z</time>
      </trkpt>
      <trkpt lat="49.1057" lon="-0.19711">
        <ele>15.2</ele>
        <time>2024-05-26T08:56:29Z</time>
      </trkpt>
      <trkpt lat="49.10578" lon="-0.19708">
        <ele>15.2</ele>
        <time>2024-05-26T08:56:30Z</time>
      </trkpt>
      <trkpt lat="49.10586" lon="-0.19708">
        <ele>15</ele>
        <time>2024-05-26T08:56:31Z</time>
      </trkpt>
      <trkpt lat="49.10595" lon="-0.19709">
        <ele>15</ele>
        <time>2024-05-26T08:56:32Z</time>
      </trkpt>
      <trkpt lat="49.10601" lon="-0.19709">
        <ele>15</ele>
        <time>2024-05-26T08:56:33Z</time>
      </trkpt>
      <trkpt lat="49.10607" lon="-0.19709">
        <ele>14.8</ele>
        <time>2024-05-26T08:56:34Z</time>
      </trkpt>
      <trkpt lat="49.10616" lon="-0.19707">
        <ele>14.8</ele>
        <time>2024-05-26T08:56:35Z</time>
      </trkpt>
      <trkpt lat="49.10621" lon="-0.19706">
        <ele>14.8</ele>
        <time>2024-05-26T08:56:36Z</time>
      </trkpt>
      <trkpt lat="49.10628" lon="-0.19703">
        <ele>14.8</ele>
        <time>2024-05-26T08:56:37Z</time>
      </trkpt>
      <trkpt lat="49.10636" lon="-0.197">
        <ele>14.8</ele>
        <time>2024-05-26T08:56:38Z</time>
      </trkpt>
      <trkpt lat="49.10641" lon="-0.19697">
        <ele>14.8</ele>
        <time>2024-05-26T08:56:39Z</time>
      </trkpt>
      <trkpt lat="49.10647" lon="-0.19693">
        <ele>15</ele>
        <time>2024-05-26T08:56:40Z</time>
      </trkpt>
      <trkpt lat="49.10652" lon="-0.19688">
        <ele>15</ele>
        <time>2024-05-26T08:56:41Z</time>
      </trkpt>
      <trkpt lat="49.10658" lon="-0.19682">
        <ele>16</ele>
        <time>2024-05-26T08:56:42Z</time>
      </trkpt>
      <trkpt lat="49.10662" lon="-0.19676">
        <ele>16.6</ele>
        <time>2024-05-26T08:56:43Z</time>
      </trkpt>
      <trkpt lat="49.10667" lon="-0.19669">
        <ele>17.2</ele>
        <time>2024-05-26T08:56:44Z</time>
      </trkpt>
      <trkpt lat="49.10671" lon="-0.19661">
        <ele>17.8</ele>
        <time>2024-05-26T08:56:45Z</time>
      </trkpt>
      <trkpt lat="49.10675" lon="-0.19653">
        <ele>18.4</ele>
        <time>2024-05-26T08:56:46Z</time>
      </trkpt>
      <trkpt lat="49.10678" lon="-0.19645">
        <ele>18.8</ele>
        <time>2024-05-26T08:56:47Z</time>
      </trkpt>
      <trkpt lat="49.10682" lon="-0.19636">
        <ele>19.2</ele>
        <time>2024-05-26T08:56:48Z</time>
      </trkpt>
      <trkpt lat="49.10685" lon="-0.19627">
        <ele>19.6</ele>
        <time>2024-05-26T08:56:49Z</time>
      </trkpt>
      <trkpt lat="49.10688" lon="-0.19618">
        <ele>19.6</ele>
        <time>2024-05-26T08:56:50Z</time>
      </trkpt>
      <trkpt lat="49.1069" lon="-0.19609">
        <ele>19.8</ele>
        <time>2024-05-26T08:56:51Z</time>
      </trkpt>
      <trkpt lat="49.10693" lon="-0.196">
        <ele>20.2</ele>
        <time>2024-05-26T08:56:52Z</time>
      </trkpt>
      <trkpt lat="49.10696" lon="-0.19589">
        <ele>20.8</ele>
        <time>2024-05-26T08:56:53Z</time>
      </trkpt>
      <trkpt lat="49.10697" lon="-0.19582">
        <ele>21.2</ele>
        <time>2024-05-26T08:56:54Z</time>
      </trkpt>
      <trkpt lat="49.10699" lon="-0.19573">
        <ele>21.6</ele>
        <time>2024-05-26T08:56:55Z</time>
      </trkpt>
      <trkpt lat="49.10701" lon="-0.19563">
        <ele>22</ele>
        <time>2024-05-26T08:56:56Z</time>
      </trkpt>
      <trkpt lat="49.10703" lon="-0.19554">
        <ele>22.4</ele>
        <time>2024-05-26T08:56:57Z</time>
      </trkpt>
      <trkpt lat="49.10706" lon="-0.19545">
        <ele>23</ele>
        <time>2024-05-26T08:56:58Z</time>
      </trkpt>
      <trkpt lat="49.10709" lon="-0.19536">
        <ele>23.4</ele>
        <time>2024-05-26T08:56:59Z</time>
      </trkpt>
      <trkpt lat="49.10711" lon="-0.19527">
        <ele>23.8</ele>
        <time>2024-05-26T08:57:00Z</time>
      </trkpt>
      <trkpt lat="49.10712" lon="-0.19519">
        <ele>24</ele>
        <time>2024-05-26T08:57:01Z</time>
      </trkpt>
      <trkpt lat="49.10714" lon="-0.1951">
        <ele>24.6</ele>
        <time>2024-05-26T08:57:02Z</time>
      </trkpt>
      <trkpt lat="49.10716" lon="-0.19502">
        <ele>25</ele>
        <time>2024-05-26T08:57:03Z</time>
      </trkpt>
      <trkpt lat="49.10718" lon="-0.19493">
        <ele>25.4</ele>
        <time>2024-05-26T08:57:04Z</time>
      </trkpt>
      <trkpt lat="49.1072" lon="-0.19485">
        <ele>25.6</ele>
        <time>2024-05-26T08:57:05Z</time>
      </trkpt>
      <trkpt lat="49.10722" lon="-0.19476">
        <ele>26</ele>
        <time>2024-05-26T08:57:06Z</time>
      </trkpt>
      <trkpt lat="49.10725" lon="-0.19468">
        <ele>26.4</ele>
        <time>2024-05-26T08:57:07Z</time>
      </trkpt>
      <trkpt lat="49.10728" lon="-0.19459">
        <ele>26.8</ele>
        <time>2024-05-26T08:57:08Z</time>
      </trkpt>
      <trkpt lat="49.10731" lon="-0.1945">
        <ele>27.2</ele>
        <time>2024-05-26T08:57:09Z</time>
      </trkpt>
      <trkpt lat="49.10734" lon="-0.19442">
        <ele>27.8</ele>
        <time>2024-05-26T08:57:10Z</time>
      </trkpt>
      <trkpt lat="49.10737" lon="-0.19434">
        <ele>28.4</ele>
        <time>2024-05-26T08:57:11Z</time>
      </trkpt>
      <trkpt lat="49.1074" lon="-0.19425">
        <ele>28.8</ele>
        <time>2024-05-26T08:57:12Z</time>
      </trkpt>
      <trkpt lat="49.10744" lon="-0.19417">
        <ele>28.8</ele>
        <time>2024-05-26T08:57:13Z</time>
      </trkpt>
      <trkpt lat="49.10747" lon="-0.19408">
        <ele>29.2</ele>
        <time>2024-05-26T08:57:14Z</time>
      </trkpt>
      <trkpt lat="49.10751" lon="-0.19399">
        <ele>29.6</ele>
        <time>2024-05-26T08:57:15Z</time>
      </trkpt>
      <trkpt lat="49.10755" lon="-0.1939">
        <ele>29.8</ele>
        <time>2024-05-26T08:57:16Z</time>
      </trkpt>
      <trkpt lat="49.10759" lon="-0.1938">
        <ele>30.2</ele>
        <time>2024-05-26T08:57:17Z</time>
      </trkpt>
      <trkpt lat="49.10762" lon="-0.19373">
        <ele>30.2</ele>
        <time>2024-05-26T08:57:18Z</time>
      </trkpt>
      <trkpt lat="49.10766" lon="-0.19365">
        <ele>30.4</ele>
        <time>2024-05-26T08:57:19Z</time>
      </trkpt>
      <trkpt lat="49.1077" lon="-0.19357">
        <ele>30.4</ele>
        <time>2024-05-26T08:57:20Z</time>
      </trkpt>
      <trkpt lat="49.10775" lon="-0.19349">
        <ele>30.6</ele>
        <time>2024-05-26T08:57:21Z</time>
      </trkpt>
      <trkpt lat="49.10779" lon="-0.1934">
        <ele>30.6</ele>
        <time>2024-05-26T08:57:22Z</time>
      </trkpt>
      <trkpt lat="49.10784" lon="-0.19332">
        <ele>30.6</ele>
        <time>2024-05-26T08:57:23Z</time>
      </trkpt>
      <trkpt lat="49.10789" lon="-0.19323">
        <ele>30.6</ele>
        <time>2024-05-26T08:57:24Z</time>
      </trkpt>
      <trkpt lat="49.10794" lon="-0.19315">
        <ele>30.6</ele>
        <time>2024-05-26T08:57:25Z</time>
      </trkpt>
      <trkpt lat="49.10799" lon="-0.19307">
        <ele>30.8</ele>
        <time>2024-05-26T08:57:26Z</time>
      </trkpt>
      <trkpt lat="49.10805" lon="-0.19299">
        <ele>30.8</ele>
        <time>2024-05-26T08:57:27Z</time>
      </trkpt>
      <trkpt lat="49.10811" lon="-0.19291">
        <ele>30.8</ele>
        <time>2024-05-26T08:57:28Z</time>
      </trkpt>
      <trkpt lat="49.10818" lon="-0.19284">
        <ele>30.8</ele>
        <time>2024-05-26T08:57:29Z</time>
      </trkpt>
      <trkpt lat="49.10824" lon="-0.19277">
        <ele>30.8</ele>
        <time>2024-05-26T08:57:30Z</time>
      </trkpt>
      <trkpt lat="49.10831" lon="-0.19271">
        <ele>30.6</ele>
        <time>2024-05-26T08:57:31Z</time>
      </trkpt>
      <trkpt lat="49.10837" lon="-0.19264">
        <ele>30.6</ele>
        <time>2024-05-26T08:57:32Z</time>
      </trkpt>
      <trkpt lat="49.10844" lon="-0.19258">
        <ele>30.6</ele>
        <time>2024-05-26T08:57:33Z</time>
      </trkpt>
      <trkpt lat="49.10852" lon="-0.19253">
        <ele>30.6</ele>
        <time>2024-05-26T08:57:34Z</time>
      </trkpt>
      <trkpt lat="49.10859" lon="-0.19248">
        <ele>30.4</ele>
        <time>2024-05-26T08:57:35Z</time>
      </trkpt>
      <trkpt lat="49.10867" lon="-0.19243">
        <ele>30.4</ele>
        <time>2024-05-26T08:57:36Z</time>
      </trkpt>
      <trkpt lat="49.10876" lon="-0.19239">
        <ele>30.4</ele>
        <time>2024-05-26T08:57:37Z</time>
      </trkpt>
      <trkpt lat="49.10883" lon="-0.19236">
        <ele>30.4</ele>
        <time>2024-05-26T08:57:38Z</time>
      </trkpt>
      <trkpt lat="49.10891" lon="-0.19233">
        <ele>30.2</ele>
        <time>2024-05-26T08:57:39Z</time>
      </trkpt>
      <trkpt lat="49.10901" lon="-0.19229">
        <ele>30.2</ele>
        <time>2024-05-26T08:57:40Z</time>
      </trkpt>
      <trkpt lat="49.10907" lon="-0.19227">
        <ele>30.2</ele>
        <time>2024-05-26T08:57:41Z</time>
      </trkpt>
      <trkpt lat="49.10916" lon="-0.19225">
        <ele>30</ele>
        <time>2024-05-26T08:57:42Z</time>
      </trkpt>
      <trkpt lat="49.10924" lon="-0.19224">
        <ele>30</ele>
        <time>2024-05-26T08:57:43Z</time>
      </trkpt>
      <trkpt lat="49.10933" lon="-0.19224">
        <ele>29.8</ele>
        <time>2024-05-26T08:57:44Z</time>
      </trkpt>
      <trkpt lat="49.10942" lon="-0.19224">
        <ele>29.8</ele>
        <time>2024-05-26T08:57:45Z</time>
      </trkpt>
      <trkpt lat="49.10951" lon="-0.19225">
        <ele>29.6</ele>
        <time>2024-05-26T08:57:46Z</time>
      </trkpt>
      <trkpt lat="49.10959" lon="-0.19226">
        <ele>29.6</ele>
        <time>2024-05-26T08:57:47Z</time>
      </trkpt>
      <trkpt lat="49.10968" lon="-0.19227">
        <ele>29.6</ele>
        <time>2024-05-26T08:57:48Z</time>
      </trkpt>
      <trkpt lat="49.10978" lon="-0.1923">
        <ele>29.4</ele>
        <time>2024-05-26T08:57:49Z</time>
      </trkpt>
      <trkpt lat="49.10985" lon="-0.19231">
        <ele>29.4</ele>
        <time>2024-05-26T08:57:50Z</time>
      </trkpt>
      <trkpt lat="49.10994" lon="-0.19233">
        <ele>29.4</ele>
        <time>2024-05-26T08:57:51Z</time>
      </trkpt>
      <trkpt lat="49.11002" lon="-0.19235">
        <ele>29</ele>
        <time>2024-05-26T08:57:52Z</time>
      </trkpt>
      <trkpt lat="49.11011" lon="-0.19237">
        <ele>28.8</ele>
        <time>2024-05-26T08:57:53Z</time>
      </trkpt>
      <trkpt lat="49.11019" lon="-0.19239">
        <ele>28.6</ele>
        <time>2024-05-26T08:57:54Z</time>
      </trkpt>
      <trkpt lat="49.11029" lon="-0.19242">
        <ele>28.4</ele>
        <time>2024-05-26T08:57:55Z</time>
      </trkpt>
      <trkpt lat="49.11036" lon="-0.19244">
        <ele>28</ele>
        <time>2024-05-26T08:57:56Z</time>
      </trkpt>
      <trkpt lat="49.11045" lon="-0.19246">
        <ele>27.8</ele>
        <time>2024-05-26T08:57:57Z</time>
      </trkpt>
      <trkpt lat="49.11053" lon="-0.19249">
        <ele>27.6</ele>
        <time>2024-05-26T08:57:58Z</time>
      </trkpt>
      <trkpt lat="49.11062" lon="-0.19251">
        <ele>27.6</ele>
        <time>2024-05-26T08:57:59Z</time>
      </trkpt>
      <trkpt lat="49.1107" lon="-0.19254">
        <ele>27.4</ele>
        <time>2024-05-26T08:58:00Z</time>
      </trkpt>
      <trkpt lat="49.11078" lon="-0.19257">
        <ele>27</ele>
        <time>2024-05-26T08:58:01Z</time>
      </trkpt>
      <trkpt lat="49.11087" lon="-0.1926">
        <ele>26.8</ele>
        <time>2024-05-26T08:58:02Z</time>
      </trkpt>
      <trkpt lat="49.11095" lon="-0.19263">
        <ele>26.6</ele>
        <time>2024-05-26T08:58:03Z</time>
      </trkpt>
      <trkpt lat="49.11103" lon="-0.19267">
        <ele>26.6</ele>
        <time>2024-05-26T08:58:04Z</time>
      </trkpt>
      <trkpt lat="49.11112" lon="-0.19272">
        <ele>26.4</ele>
        <time>2024-05-26T08:58:05Z</time>
      </trkpt>
      <trkpt lat="49.1112" lon="-0.19277">
        <ele>26.4</ele>
        <time>2024-05-26T08:58:06Z</time>
      </trkpt>
      <trkpt lat="49.1113" lon="-0.19283">
        <ele>26.2</ele>
        <time>2024-05-26T08:58:07Z</time>
      </trkpt>
      <trkpt lat="49.11136" lon="-0.19288">
        <ele>26.2</ele>
        <time>2024-05-26T08:58:08Z</time>
      </trkpt>
      <trkpt lat="49.11145" lon="-0.19296">
        <ele>26</ele>
        <time>2024-05-26T08:58:09Z</time>
      </trkpt>
      <trkpt lat="49.11153" lon="-0.19303">
        <ele>26</ele>
        <time>2024-05-26T08:58:10Z</time>
      </trkpt>
      <trkpt lat="49.11159" lon="-0.19309">
        <ele>26</ele>
        <time>2024-05-26T08:58:11Z</time>
      </trkpt>
      <trkpt lat="49.11167" lon="-0.19319">
        <ele>26</ele>
        <time>2024-05-26T08:58:12Z</time>
      </trkpt>
      <trkpt lat="49.11173" lon="-0.19326">
        <ele>26</ele>
        <time>2024-05-26T08:58:13Z</time>
      </trkpt>
      <trkpt lat="49.1118" lon="-0.19335">
        <ele>26</ele>
        <time>2024-05-26T08:58:14Z</time>
      </trkpt>
      <trkpt lat="49.11187" lon="-0.19345">
        <ele>26</ele>
        <time>2024-05-26T08:58:15Z</time>
      </trkpt>
      <trkpt lat="49.11192" lon="-0.19353">
        <ele>26</ele>
        <time>2024-05-26T08:58:16Z</time>
      </trkpt>
      <trkpt lat="49.11198" lon="-0.19363">
        <ele>25.8</ele>
        <time>2024-05-26T08:58:17Z</time>
      </trkpt>
      <trkpt lat="49.11204" lon="-0.19375">
        <ele>25.8</ele>
        <time>2024-05-26T08:58:18Z</time>
      </trkpt>
      <trkpt lat="49.1121" lon="-0.19386">
        <ele>25.8</ele>
        <time>2024-05-26T08:58:19Z</time>
      </trkpt>
      <trkpt lat="49.11215" lon="-0.19396">
        <ele>25.8</ele>
        <time>2024-05-26T08:58:20Z</time>
      </trkpt>
      <trkpt lat="49.1122" lon="-0.19406">
        <ele>25.6</ele>
        <time>2024-05-26T08:58:21Z</time>
      </trkpt>
      <trkpt lat="49.11226" lon="-0.19416">
        <ele>25.6</ele>
        <time>2024-05-26T08:58:22Z</time>
      </trkpt>
      <trkpt lat="49.1123" lon="-0.19424">
        <ele>25.6</ele>
        <time>2024-05-26T08:58:23Z</time>
      </trkpt>
      <trkpt lat="49.11237" lon="-0.19435">
        <ele>25.6</ele>
        <time>2024-05-26T08:58:24Z</time>
      </trkpt>
      <trkpt lat="49.11242" lon="-0.19442">
        <ele>25.6</ele>
        <time>2024-05-26T08:58:25Z</time>
      </trkpt>
      <trkpt lat="49.11248" lon="-0.19451">
        <ele>25.2</ele>
        <time>2024-05-26T08:58:26Z</time>
      </trkpt>
      <trkpt lat="49.11256" lon="-0.1946">
        <ele>25</ele>
        <time>2024-05-26T08:58:27Z</time>
      </trkpt>
      <trkpt lat="49.11262" lon="-0.19467">
        <ele>25</ele>
        <time>2024-05-26T08:58:28Z</time>
      </trkpt>
      <trkpt lat="49.11269" lon="-0.19473">
        <ele>24.8</ele>
        <time>2024-05-26T08:58:29Z</time>
      </trkpt>
      <trkpt lat="49.11276" lon="-0.19479">
        <ele>24.8</ele>
        <time>2024-05-26T08:58:30Z</time>
      </trkpt>
      <trkpt lat="49.11283" lon="-0.19485">
        <ele>24.6</ele>
        <time>2024-05-26T08:58:31Z</time>
      </trkpt>
      <trkpt lat="49.11291" lon="-0.19489">
        <ele>24.4</ele>
        <time>2024-05-26T08:58:32Z</time>
      </trkpt>
      <trkpt lat="49.11298" lon="-0.19493">
        <ele>24.2</ele>
        <time>2024-05-26T08:58:33Z</time>
      </trkpt>
      <trkpt lat="49.11305" lon="-0.19496">
        <ele>24.2</ele>
        <time>2024-05-26T08:58:34Z</time>
      </trkpt>
      <trkpt lat="49.11311" lon="-0.19498">
        <ele>24.2</ele>
        <time>2024-05-26T08:58:35Z</time>
      </trkpt>
      <trkpt lat="49.11318" lon="-0.195">
        <ele>24.2</ele>
        <time>2024-05-26T08:58:36Z</time>
      </trkpt>
      <trkpt lat="49.11327" lon="-0.19502">
        <ele>24.2</ele>
        <time>2024-05-26T08:58:37Z</time>
      </trkpt>
      <trkpt lat="49.11333" lon="-0.19504">
        <ele>24</ele>
        <time>2024-05-26T08:58:38Z</time>
      </trkpt>
      <trkpt lat="49.11339" lon="-0.19504">
        <ele>24</ele>
        <time>2024-05-26T08:58:39Z</time>
      </trkpt>
      <trkpt lat="49.11347" lon="-0.19504">
        <ele>24</ele>
        <time>2024-05-26T08:58:40Z</time>
      </trkpt>
      <trkpt lat="49.11353" lon="-0.19504">
        <ele>24</ele>
        <time>2024-05-26T08:58:41Z</time>
      </trkpt>
      <trkpt lat="49.11358" lon="-0.19503">
        <ele>24</ele>
        <time>2024-05-26T08:58:42Z</time>
      </trkpt>
      <trkpt lat="49.11366" lon="-0.19502">
        <ele>24.2</ele>
        <time>2024-05-26T08:58:43Z</time>
      </trkpt>
      <trkpt lat="49.11372" lon="-0.195">
        <ele>24.2</ele>
        <time>2024-05-26T08:58:44Z</time>
      </trkpt>
      <trkpt lat="49.11378" lon="-0.19497">
        <ele>24.6</ele>
        <time>2024-05-26T08:58:45Z</time>
      </trkpt>
      <trkpt lat="49.11385" lon="-0.19494">
        <ele>24.6</ele>
        <time>2024-05-26T08:58:46Z</time>
      </trkpt>
      <trkpt lat="49.11392" lon="-0.19491">
        <ele>24.8</ele>
        <time>2024-05-26T08:58:47Z</time>
      </trkpt>
      <trkpt lat="49.11397" lon="-0.19488">
        <ele>25.2</ele>
        <time>2024-05-26T08:58:48Z</time>
      </trkpt>
      <trkpt lat="49.11405" lon="-0.19483">
        <ele>25.6</ele>
        <time>2024-05-26T08:58:49Z</time>
      </trkpt>
      <trkpt lat="49.11411" lon="-0.19479">
        <ele>26</ele>
        <time>2024-05-26T08:58:50Z</time>
      </trkpt>
      <trkpt lat="49.11416" lon="-0.19475">
        <ele>26.4</ele>
        <time>2024-05-26T08:58:51Z</time>
      </trkpt>
      <trkpt lat="49.11423" lon="-0.19469">
        <ele>26.6</ele>
        <time>2024-05-26T08:58:52Z</time>
      </trkpt>
      <trkpt lat="49.11429" lon="-0.19464">
        <ele>26.8</ele>
        <time>2024-05-26T08:58:53Z</time>
      </trkpt>
      <trkpt lat="49.11434" lon="-0.1946">
        <ele>27</ele>
        <time>2024-05-26T08:58:54Z</time>
      </trkpt>
      <trkpt lat="49.11441" lon="-0.19453">
        <ele>27.2</ele>
        <time>2024-05-26T08:58:55Z</time>
      </trkpt>
      <trkpt lat="49.11446" lon="-0.19448">
        <ele>27.4</ele>
        <time>2024-05-26T08:58:56Z</time>
      </trkpt>
      <trkpt lat="49.11452" lon="-0.19442">
        <ele>27.4</ele>
        <time>2024-05-26T08:58:57Z</time>
      </trkpt>
      <trkpt lat="49.11459" lon="-0.19436">
        <ele>28</ele>
        <time>2024-05-26T08:58:58Z</time>
      </trkpt>
      <trkpt lat="49.11463" lon="-0.19432">
        <ele>28.2</ele>
        <time>2024-05-26T08:58:59Z</time>
      </trkpt>
      <trkpt lat="49.11469" lon="-0.19426">
        <ele>28.4</ele>
        <time>2024-05-26T08:59:00Z</time>
      </trkpt>
      <trkpt lat="49.11476" lon="-0.19419">
        <ele>28.4</ele>
        <time>2024-05-26T08:59:01Z</time>
      </trkpt>
      <trkpt lat="49.11481" lon="-0.19414">
        <ele>28.4</ele>
        <time>2024-05-26T08:59:02Z</time>
      </trkpt>
      <trkpt lat="49.11487" lon="-0.19408">
        <ele>28.6</ele>
        <time>2024-05-26T08:59:03Z</time>
      </trkpt>
      <trkpt lat="49.11494" lon="-0.194">
        <ele>28.6</ele>
        <time>2024-05-26T08:59:04Z</time>
      </trkpt>
      <trkpt lat="49.115" lon="-0.19394">
        <ele>28.6</ele>
        <time>2024-05-26T08:59:05Z</time>
      </trkpt>
      <trkpt lat="49.11505" lon="-0.19389">
        <ele>28.6</ele>
        <time>2024-05-26T08:59:06Z</time>
      </trkpt>
      <trkpt lat="49.11513" lon="-0.19382">
        <ele>28.6</ele>
        <time>2024-05-26T08:59:07Z</time>
      </trkpt>
      <trkpt lat="49.1152" lon="-0.19375">
        <ele>28.4</ele>
        <time>2024-05-26T08:59:08Z</time>
      </trkpt>
      <trkpt lat="49.11525" lon="-0.1937">
        <ele>28.2</ele>
        <time>2024-05-26T08:59:09Z</time>
      </trkpt>
      <trkpt lat="49.11533" lon="-0.19363">
        <ele>28.2</ele>
        <time>2024-05-26T08:59:10Z</time>
      </trkpt>
      <trkpt lat="49.11538" lon="-0.19357">
        <ele>28.2</ele>
        <time>2024-05-26T08:59:11Z</time>
      </trkpt>
      <trkpt lat="49.11545" lon="-0.1935">
        <ele>28</ele>
        <time>2024-05-26T08:59:12Z</time>
      </trkpt>
      <trkpt lat="49.11553" lon="-0.1934">
        <ele>27.8</ele>
        <time>2024-05-26T08:59:13Z</time>
      </trkpt>
      <trkpt lat="49.11558" lon="-0.19334">
        <ele>27.8</ele>
        <time>2024-05-26T08:59:14Z</time>
      </trkpt>
      <trkpt lat="49.11564" lon="-0.19325">
        <ele>27.4</ele>
        <time>2024-05-26T08:59:15Z</time>
      </trkpt>
      <trkpt lat="49.11571" lon="-0.19313">
        <ele>27.2</ele>
        <time>2024-05-26T08:59:16Z</time>
      </trkpt>
      <trkpt lat="49.11576" lon="-0.19305">
        <ele>27</ele>
        <time>2024-05-26T08:59:17Z</time>
      </trkpt>
      <trkpt lat="49.1158" lon="-0.19294">
        <ele>26.8</ele>
        <time>2024-05-26T08:59:18Z</time>
      </trkpt>
      <trkpt lat="49.11582" lon="-0.19281">
        <ele>26.4</ele>
        <time>2024-05-26T08:59:19Z</time>
      </trkpt>
      <trkpt lat="49.11584" lon="-0.19268">
        <ele>25.8</ele>
        <time>2024-05-26T08:59:20Z</time>
      </trkpt>
      <trkpt lat="49.11584" lon="-0.19255">
        <ele>25.4</ele>
        <time>2024-05-26T08:59:21Z</time>
      </trkpt>
      <trkpt lat="49.11586" lon="-0.19243">
        <ele>25</ele>
        <time>2024-05-26T08:59:22Z</time>
      </trkpt>
      <trkpt lat="49.11591" lon="-0.1923">
        <ele>24.6</ele>
        <time>2024-05-26T08:59:23Z</time>
      </trkpt>
      <trkpt lat="49.11596" lon="-0.19224">
        <ele>24</ele>
        <time>2024-05-26T08:59:24Z</time>
      </trkpt>
      <trkpt lat="49.11605" lon="-0.19218">
        <ele>23.2</ele>
        <time>2024-05-26T08:59:25Z</time>
      </trkpt>
      <trkpt lat="49.11613" lon="-0.1922">
        <ele>22.6</ele>
        <time>2024-05-26T08:59:26Z</time>
      </trkpt>
      <trkpt lat="49.1162" lon="-0.19224">
        <ele>22.2</ele>
        <time>2024-05-26T08:59:27Z</time>
      </trkpt>
      <trkpt lat="49.1163" lon="-0.1923">
        <ele>21.6</ele>
        <time>2024-05-26T08:59:28Z</time>
      </trkpt>
      <trkpt lat="49.11638" lon="-0.19233">
        <ele>21.4</ele>
        <time>2024-05-26T08:59:29Z</time>
      </trkpt>
      <trkpt lat="49.11644" lon="-0.19234">
        <ele>21</ele>
        <time>2024-05-26T08:59:30Z</time>
      </trkpt>
      <trkpt lat="49.11653" lon="-0.19233">
        <ele>20.8</ele>
        <time>2024-05-26T08:59:31Z</time>
      </trkpt>
      <trkpt lat="49.11664" lon="-0.19231">
        <ele>20.8</ele>
        <time>2024-05-26T08:59:32Z</time>
      </trkpt>
      <trkpt lat="49.11671" lon="-0.1923">
        <ele>20.8</ele>
        <time>2024-05-26T08:59:33Z</time>
      </trkpt>
      <trkpt lat="49.11682" lon="-0.19227">
        <ele>20.4</ele>
        <time>2024-05-26T08:59:34Z</time>
      </trkpt>
      <trkpt lat="49.11691" lon="-0.19224">
        <ele>20</ele>
        <time>2024-05-26T08:59:35Z</time>
      </trkpt>
      <trkpt lat="49.11698" lon="-0.19222">
        <ele>19.8</ele>
        <time>2024-05-26T08:59:36Z</time>
      </trkpt>
      <trkpt lat="49.1171" lon="-0.19219">
        <ele>19.6</ele>
        <time>2024-05-26T08:59:37Z</time>
      </trkpt>
      <trkpt lat="49.11719" lon="-0.19217">
        <ele>19.4</ele>
        <time>2024-05-26T08:59:38Z</time>
      </trkpt>
      <trkpt lat="49.11727" lon="-0.19215">
        <ele>19</ele>
        <time>2024-05-26T08:59:39Z</time>
      </trkpt>
      <trkpt lat="49.11736" lon="-0.19212">
        <ele>18.6</ele>
        <time>2024-05-26T08:59:40Z</time>
      </trkpt>
      <trkpt lat="49.11748" lon="-0.19208">
        <ele>18.4</ele>
        <time>2024-05-26T08:59:41Z</time>
      </trkpt>
      <trkpt lat="49.11757" lon="-0.19206">
        <ele>18</ele>
        <time>2024-05-26T08:59:42Z</time>
      </trkpt>
      <trkpt lat="49.11767" lon="-0.19204">
        <ele>17.8</ele>
        <time>2024-05-26T08:59:43Z</time>
      </trkpt>
      <trkpt lat="49.11779" lon="-0.19201">
        <ele>17.8</ele>
        <time>2024-05-26T08:59:44Z</time>
      </trkpt>
      <trkpt lat="49.11788" lon="-0.19198">
        <ele>17.6</ele>
        <time>2024-05-26T08:59:45Z</time>
      </trkpt>
      <trkpt lat="49.11801" lon="-0.19194">
        <ele>17.6</ele>
        <time>2024-05-26T08:59:46Z</time>
      </trkpt>
      <trkpt lat="49.11812" lon="-0.19191">
        <ele>17.4</ele>
        <time>2024-05-26T08:59:47Z</time>
      </trkpt>
      <trkpt lat="49.11821" lon="-0.19188">
        <ele>17.4</ele>
        <time>2024-05-26T08:59:48Z</time>
      </trkpt>
      <trkpt lat="49.11834" lon="-0.19185">
        <ele>17.2</ele>
        <time>2024-05-26T08:59:49Z</time>
      </trkpt>
      <trkpt lat="49.11844" lon="-0.19182">
        <ele>17.2</ele>
        <time>2024-05-26T08:59:50Z</time>
      </trkpt>
      <trkpt lat="49.11852" lon="-0.19179">
        <ele>17.2</ele>
        <time>2024-05-26T08:59:51Z</time>
      </trkpt>
      <trkpt lat="49.11863" lon="-0.19176">
        <ele>17</ele>
        <time>2024-05-26T08:59:52Z</time>
      </trkpt>
      <trkpt lat="49.11876" lon="-0.19173">
        <ele>16.8</ele>
        <time>2024-05-26T08:59:53Z</time>
      </trkpt>
      <trkpt lat="49.11886" lon="-0.1917">
        <ele>16.6</ele>
        <time>2024-05-26T08:59:54Z</time>
      </trkpt>
      <trkpt lat="49.11895" lon="-0.19167">
        <ele>16.6</ele>
        <time>2024-05-26T08:59:55Z</time>
      </trkpt>
      <trkpt lat="49.11907" lon="-0.19163">
        <ele>16.4</ele>
        <time>2024-05-26T08:59:56Z</time>
      </trkpt>
      <trkpt lat="49.11917" lon="-0.19159">
        <ele>16.4</ele>
        <time>2024-05-26T08:59:57Z</time>
      </trkpt>
      <trkpt lat="49.11926" lon="-0.19157">
        <ele>16.4</ele>
        <time>2024-05-26T08:59:58Z</time>
      </trkpt>
      <trkpt lat="49.11938" lon="-0.19153">
        <ele>16.2</ele>
        <time>2024-05-26T08:59:59Z</time>
      </trkpt>
      <trkpt lat="49.11946" lon="-0.1915">
        <ele>16.2</ele>
        <time>2024-05-26T09:00:00Z</time>
      </trkpt>
      <trkpt lat="49.11956" lon="-0.19147">
        <ele>16</ele>
        <time>2024-05-26T09:00:01Z</time>
      </trkpt>
      <trkpt lat="49.11968" lon="-0.19143">
        <ele>15.6</ele>
        <time>2024-05-26T09:00:02Z</time>
      </trkpt>
      <trkpt lat="49.11975" lon="-0.19141">
        <ele>15.4</ele>
        <time>2024-05-26T09:00:03Z</time>
      </trkpt>
      <trkpt lat="49.11985" lon="-0.19138">
        <ele>15.4</ele>
        <time>2024-05-26T09:00:04Z</time>
      </trkpt>
      <trkpt lat="49.11994" lon="-0.19135">
        <ele>15.2</ele>
        <time>2024-05-26T09:00:05Z</time>
      </trkpt>
      <trkpt lat="49.12003" lon="-0.19133">
        <ele>15.2</ele>
        <time>2024-05-26T09:00:06Z</time>
      </trkpt>
      <trkpt lat="49.12012" lon="-0.1913">
        <ele>15.2</ele>
        <time>2024-05-26T09:00:07Z</time>
      </trkpt>
      <trkpt lat="49.1202" lon="-0.19127">
        <ele>15.2</ele>
        <time>2024-05-26T09:00:08Z</time>
      </trkpt>
      <trkpt lat="49.12029" lon="-0.19125">
        <ele>15.2</ele>
        <time>2024-05-26T09:00:09Z</time>
      </trkpt>
      <trkpt lat="49.12035" lon="-0.19123">
        <ele>15.2</ele>
        <time>2024-05-26T09:00:10Z</time>
      </trkpt>
      <trkpt lat="49.1204" lon="-0.1912">
        <ele>15.2</ele>
        <time>2024-05-26T09:00:11Z</time>
      </trkpt>
      <trkpt lat="49.12045" lon="-0.19117">
        <ele>15.2</ele>
        <time>2024-05-26T09:00:12Z</time>
      </trkpt>
      <trkpt lat="49.12048" lon="-0.19114">
        <ele>15.2</ele>
        <time>2024-05-26T09:00:13Z</time>
      </trkpt>
      <trkpt lat="49.1205" lon="-0.19112">
        <ele>15.2</ele>
        <time>2024-05-26T09:00:14Z</time>
      </trkpt>
      <trkpt lat="49.12051" lon="-0.19109">
        <ele>15.4</ele>
        <time>2024-05-26T09:00:15Z</time>
      </trkpt>
      <trkpt lat="49.12052" lon="-0.19106">
        <ele>15.4</ele>
        <time>2024-05-26T09:00:16Z</time>
      </trkpt>
      <trkpt lat="49.12053" lon="-0.19103">
        <ele>15.6</ele>
        <time>2024-05-26T09:00:17Z</time>
      </trkpt>
      <trkpt lat="49.12054" lon="-0.19099">
        <ele>15.8</ele>
        <time>2024-05-26T09:00:18Z</time>
      </trkpt>
      <trkpt lat="49.12054" lon="-0.19095">
        <ele>16</ele>
        <time>2024-05-26T09:00:19Z</time>
      </trkpt>
      <trkpt lat="49.12055" lon="-0.19091">
        <ele>16.4</ele>
        <time>2024-05-26T09:00:20Z</time>
      </trkpt>
      <trkpt lat="49.12056" lon="-0.19086">
        <ele>16.4</ele>
        <time>2024-05-26T09:00:21Z</time>
      </trkpt>
      <trkpt lat="49.12057" lon="-0.19081">
        <ele>16.6</ele>
        <time>2024-05-26T09:00:22Z</time>
      </trkpt>
      <trkpt lat="49.12059" lon="-0.19076">
        <ele>16.8</ele>
        <time>2024-05-26T09:00:23Z</time>
      </trkpt>
      <trkpt lat="49.12062" lon="-0.1907">
        <ele>16.8</ele>
        <time>2024-05-26T09:00:24Z</time>
      </trkpt>
      <trkpt lat="49.12066" lon="-0.19064">
        <ele>16.8</ele>
        <time>2024-05-26T09:00:25Z</time>
      </trkpt>
      <trkpt lat="49.1207" lon="-0.19058">
        <ele>16.8</ele>
        <time>2024-05-26T09:00:26Z</time>
      </trkpt>
      <trkpt lat="49.12074" lon="-0.19052">
        <ele>16.8</ele>
        <time>2024-05-26T09:00:27Z</time>
      </trkpt>
      <trkpt lat="49.1208" lon="-0.19048">
        <ele>17</ele>
        <time>2024-05-26T09:00:28Z</time>
      </trkpt>
      <trkpt lat="49.12086" lon="-0.19045">
        <ele>17</ele>
        <time>2024-05-26T09:00:29Z</time>
      </trkpt>
      <trkpt lat="49.12092" lon="-0.19043">
        <ele>17</ele>
        <time>2024-05-26T09:00:30Z</time>
      </trkpt>
      <trkpt lat="49.12098" lon="-0.19042">
        <ele>17</ele>
        <time>2024-05-26T09:00:31Z</time>
      </trkpt>
      <trkpt lat="49.12104" lon="-0.19041">
        <ele>17</ele>
        <time>2024-05-26T09:00:32Z</time>
      </trkpt>
      <trkpt lat="49.12111" lon="-0.1904">
        <ele>17</ele>
        <time>2024-05-26T09:00:33Z</time>
      </trkpt>
      <trkpt lat="49.12116" lon="-0.19036">
        <ele>17</ele>
        <time>2024-05-26T09:00:34Z</time>
      </trkpt>
      <trkpt lat="49.12122" lon="-0.1903">
        <ele>17</ele>
        <time>2024-05-26T09:00:35Z</time>
      </trkpt>
      <trkpt lat="49.12126" lon="-0.19022">
        <ele>17</ele>
        <time>2024-05-26T09:00:36Z</time>
      </trkpt>
      <trkpt lat="49.12131" lon="-0.19013">
        <ele>17</ele>
        <time>2024-05-26T09:00:37Z</time>
      </trkpt>
      <trkpt lat="49.12135" lon="-0.19004">
        <ele>17</ele>
        <time>2024-05-26T09:00:38Z</time>
      </trkpt>
      <trkpt lat="49.1214" lon="-0.18994">
        <ele>16.8</ele>
        <time>2024-05-26T09:00:39Z</time>
      </trkpt>
      <trkpt lat="49.12145" lon="-0.18985">
        <ele>16.8</ele>
        <time>2024-05-26T09:00:40Z</time>
      </trkpt>
      <trkpt lat="49.1215" lon="-0.18976">
        <ele>16.8</ele>
        <time>2024-05-26T09:00:41Z</time>
      </trkpt>
      <trkpt lat="49.12155" lon="-0.18967">
        <ele>16.8</ele>
        <time>2024-05-26T09:00:42Z</time>
      </trkpt>
      <trkpt lat="49.1216" lon="-0.18958">
        <ele>16.8</ele>
        <time>2024-05-26T09:00:43Z</time>
      </trkpt>
      <trkpt lat="49.12166" lon="-0.1895">
        <ele>16.8</ele>
        <time>2024-05-26T09:00:44Z</time>
      </trkpt>
      <trkpt lat="49.12173" lon="-0.18942">
        <ele>16.8</ele>
        <time>2024-05-26T09:00:45Z</time>
      </trkpt>
      <trkpt lat="49.12181" lon="-0.18935">
        <ele>16.8</ele>
        <time>2024-05-26T09:00:46Z</time>
      </trkpt>
      <trkpt lat="49.12189" lon="-0.18928">
        <ele>16.6</ele>
        <time>2024-05-26T09:00:47Z</time>
      </trkpt>
      <trkpt lat="49.12198" lon="-0.18923">
        <ele>16.6</ele>
        <time>2024-05-26T09:00:48Z</time>
      </trkpt>
      <trkpt lat="49.12208" lon="-0.18918">
        <ele>16.4</ele>
        <time>2024-05-26T09:00:49Z</time>
      </trkpt>
      <trkpt lat="49.12217" lon="-0.18914">
        <ele>16.4</ele>
        <time>2024-05-26T09:00:50Z</time>
      </trkpt>
      <trkpt lat="49.12226" lon="-0.1891">
        <ele>16.2</ele>
        <time>2024-05-26T09:00:51Z</time>
      </trkpt>
      <trkpt lat="49.12236" lon="-0.18907">
        <ele>16.2</ele>
        <time>2024-05-26T09:00:52Z</time>
      </trkpt>
      <trkpt lat="49.12247" lon="-0.18904">
        <ele>15.8</ele>
        <time>2024-05-26T09:00:53Z</time>
      </trkpt>
      <trkpt lat="49.12257" lon="-0.18901">
        <ele>15.6</ele>
        <time>2024-05-26T09:00:54Z</time>
      </trkpt>
      <trkpt lat="49.12267" lon="-0.18897">
        <ele>15.6</ele>
        <time>2024-05-26T09:00:55Z</time>
      </trkpt>
      <trkpt lat="49.12277" lon="-0.18893">
        <ele>15.4</ele>
        <time>2024-05-26T09:00:56Z</time>
      </trkpt>
      <trkpt lat="49.12288" lon="-0.1889">
        <ele>14.8</ele>
        <time>2024-05-26T09:00:57Z</time>
      </trkpt>
      <trkpt lat="49.12298" lon="-0.18887">
        <ele>14.6</ele>
        <time>2024-05-26T09:00:58Z</time>
      </trkpt>
      <trkpt lat="49.12308" lon="-0.18884">
        <ele>14.4</ele>
        <time>2024-05-26T09:00:59Z</time>
      </trkpt>
      <trkpt lat="49.12318" lon="-0.1888">
        <ele>14.2</ele>
        <time>2024-05-26T09:01:00Z</time>
      </trkpt>
      <trkpt lat="49.12328" lon="-0.18877">
        <ele>14.2</ele>
        <time>2024-05-26T09:01:01Z</time>
      </trkpt>
      <trkpt lat="49.12337" lon="-0.18873">
        <ele>14</ele>
        <time>2024-05-26T09:01:02Z</time>
      </trkpt>
      <trkpt lat="49.12347" lon="-0.1887">
        <ele>14</ele>
        <time>2024-05-26T09:01:03Z</time>
      </trkpt>
      <trkpt lat="49.12356" lon="-0.18865">
        <ele>14</ele>
        <time>2024-05-26T09:01:04Z</time>
      </trkpt>
      <trkpt lat="49.12365" lon="-0.18858">
        <ele>14</ele>
        <time>2024-05-26T09:01:05Z</time>
      </trkpt>
      <trkpt lat="49.12374" lon="-0.1885">
        <ele>14</ele>
        <time>2024-05-26T09:01:06Z</time>
      </trkpt>
      <trkpt lat="49.12382" lon="-0.18841">
        <ele>13.8</ele>
        <time>2024-05-26T09:01:07Z</time>
      </trkpt>
      <trkpt lat="49.1239" lon="-0.18831">
        <ele>13.8</ele>
        <time>2024-05-26T09:01:08Z</time>
      </trkpt>
      <trkpt lat="49.12397" lon="-0.18819">
        <ele>13.8</ele>
        <time>2024-05-26T09:01:09Z</time>
      </trkpt>
      <trkpt lat="49.12404" lon="-0.18806">
        <ele>13.8</ele>
        <time>2024-05-26T09:01:10Z</time>
      </trkpt>
      <trkpt lat="49.12409" lon="-0.18792">
        <ele>13.8</ele>
        <time>2024-05-26T09:01:11Z</time>
      </trkpt>
      <trkpt lat="49.12414" lon="-0.18777">
        <ele>13.6</ele>
        <time>2024-05-26T09:01:12Z</time>
      </trkpt>
      <trkpt lat="49.12418" lon="-0.18761">
        <ele>13.6</ele>
        <time>2024-05-26T09:01:13Z</time>
      </trkpt>
      <trkpt lat="49.12421" lon="-0.18745">
        <ele>13.4</ele>
        <time>2024-05-26T09:01:14Z</time>
      </trkpt>
      <trkpt lat="49.12423" lon="-0.18729">
        <ele>13.4</ele>
        <time>2024-05-26T09:01:15Z</time>
      </trkpt>
      <trkpt lat="49.12426" lon="-0.18713">
        <ele>13.4</ele>
        <time>2024-05-26T09:01:16Z</time>
      </trkpt>
      <trkpt lat="49.12428" lon="-0.18697">
        <ele>13.2</ele>
        <time>2024-05-26T09:01:17Z</time>
      </trkpt>
      <trkpt lat="49.1243" lon="-0.18681">
        <ele>13.2</ele>
        <time>2024-05-26T09:01:18Z</time>
      </trkpt>
      <trkpt lat="49.12433" lon="-0.18665">
        <ele>12.8</ele>
        <time>2024-05-26T09:01:19Z</time>
      </trkpt>
      <trkpt lat="49.12435" lon="-0.1865">
        <ele>12.6</ele>
        <time>2024-05-26T09:01:20Z</time>
      </trkpt>
      <trkpt lat="49.12438" lon="-0.18634">
        <ele>12.6</ele>
        <time>2024-05-26T09:01:21Z</time>
      </trkpt>
      <trkpt lat="49.1244" lon="-0.18618">
        <ele>12.4</ele>
        <time>2024-05-26T09:01:22Z</time>
      </trkpt>
      <trkpt lat="49.12442" lon="-0.18603">
        <ele>12.4</ele>
        <time>2024-05-26T09:01:23Z</time>
      </trkpt>
      <trkpt lat="49.12445" lon="-0.18588">
        <ele>12.2</ele>
        <time>2024-05-26T09:01:24Z</time>
      </trkpt>
      <trkpt lat="49.12447" lon="-0.18573">
        <ele>12.2</ele>
        <time>2024-05-26T09:01:25Z</time>
      </trkpt>
      <trkpt lat="49.12449" lon="-0.18558">
        <ele>11.8</ele>
        <time>2024-05-26T09:01:26Z</time>
      </trkpt>
      <trkpt lat="49.12452" lon="-0.18542">
        <ele>11.6</ele>
        <time>2024-05-26T09:01:27Z</time>
      </trkpt>
      <trkpt lat="49.12454" lon="-0.18527">
        <ele>11.6</ele>
        <time>2024-05-26T09:01:28Z</time>
      </trkpt>
      <trkpt lat="49.12457" lon="-0.18512">
        <ele>11.4</ele>
        <time>2024-05-26T09:01:29Z</time>
      </trkpt>
      <trkpt lat="49.12459" lon="-0.18496">
        <ele>11</ele>
        <time>2024-05-26T09:01:30Z</time>
      </trkpt>
      <trkpt lat="49.12462" lon="-0.18482">
        <ele>10.8</ele>
        <time>2024-05-26T09:01:31Z</time>
      </trkpt>
      <trkpt lat="49.12466" lon="-0.18467">
        <ele>10.8</ele>
        <time>2024-05-26T09:01:32Z</time>
      </trkpt>
      <trkpt lat="49.12469" lon="-0.18453">
        <ele>10.8</ele>
        <time>2024-05-26T09:01:33Z</time>
      </trkpt>
      <trkpt lat="49.12473" lon="-0.18438">
        <ele>10.8</ele>
        <time>2024-05-26T09:01:34Z</time>
      </trkpt>
      <trkpt lat="49.12477" lon="-0.18424">
        <ele>10.8</ele>
        <time>2024-05-26T09:01:35Z</time>
      </trkpt>
      <trkpt lat="49.1248" lon="-0.18411">
        <ele>10.6</ele>
        <time>2024-05-26T09:01:36Z</time>
      </trkpt>
      <trkpt lat="49.12484" lon="-0.18397">
        <ele>10.6</ele>
        <time>2024-05-26T09:01:37Z</time>
      </trkpt>
      <trkpt lat="49.12488" lon="-0.18384">
        <ele>10.6</ele>
        <time>2024-05-26T09:01:38Z</time>
      </trkpt>
      <trkpt lat="49.12491" lon="-0.1837">
        <ele>10.6</ele>
        <time>2024-05-26T09:01:39Z</time>
      </trkpt>
      <trkpt lat="49.12494" lon="-0.18356">
        <ele>10.6</ele>
        <time>2024-05-26T09:01:40Z</time>
      </trkpt>
      <trkpt lat="49.12496" lon="-0.18342">
        <ele>10.8</ele>
        <time>2024-05-26T09:01:41Z</time>
      </trkpt>
      <trkpt lat="49.12499" lon="-0.18328">
        <ele>10.8</ele>
        <time>2024-05-26T09:01:42Z</time>
      </trkpt>
      <trkpt lat="49.12502" lon="-0.18313">
        <ele>11</ele>
        <time>2024-05-26T09:01:43Z</time>
      </trkpt>
      <trkpt lat="49.12505" lon="-0.18299">
        <ele>11.2</ele>
        <time>2024-05-26T09:01:44Z</time>
      </trkpt>
      <trkpt lat="49.12508" lon="-0.18285">
        <ele>11.2</ele>
        <time>2024-05-26T09:01:45Z</time>
      </trkpt>
      <trkpt lat="49.1251" lon="-0.1827">
        <ele>11.4</ele>
        <time>2024-05-26T09:01:46Z</time>
      </trkpt>
      <trkpt lat="49.12513" lon="-0.18255">
        <ele>11.4</ele>
        <time>2024-05-26T09:01:47Z</time>
      </trkpt>
      <trkpt lat="49.12516" lon="-0.18241">
        <ele>11.4</ele>
        <time>2024-05-26T09:01:48Z</time>
      </trkpt>
      <trkpt lat="49.12519" lon="-0.18226">
        <ele>11.4</ele>
        <time>2024-05-26T09:01:49Z</time>
      </trkpt>
      <trkpt lat="49.12522" lon="-0.18211">
        <ele>11.4</ele>
        <time>2024-05-26T09:01:50Z</time>
      </trkpt>
      <trkpt lat="49.12525" lon="-0.18196">
        <ele>11.6</ele>
        <time>2024-05-26T09:01:51Z</time>
      </trkpt>
      <trkpt lat="49.12528" lon="-0.1818">
        <ele>11.6</ele>
        <time>2024-05-26T09:01:52Z</time>
      </trkpt>
      <trkpt lat="49.12531" lon="-0.18165">
        <ele>11.6</ele>
        <time>2024-05-26T09:01:53Z</time>
      </trkpt>
      <trkpt lat="49.12534" lon="-0.18149">
        <ele>11.4</ele>
        <time>2024-05-26T09:01:54Z</time>
      </trkpt>
      <trkpt lat="49.12536" lon="-0.18133">
        <ele>11.4</ele>
        <time>2024-05-26T09:01:55Z</time>
      </trkpt>
      <trkpt lat="49.12539" lon="-0.18117">
        <ele>11.4</ele>
        <time>2024-05-26T09:01:56Z</time>
      </trkpt>
      <trkpt lat="49.12541" lon="-0.18101">
        <ele>11.4</ele>
        <time>2024-05-26T09:01:57Z</time>
      </trkpt>
      <trkpt lat="49.12543" lon="-0.18086">
        <ele>11.4</ele>
        <time>2024-05-26T09:01:58Z</time>
      </trkpt>
      <trkpt lat="49.12545" lon="-0.1807">
        <ele>11.2</ele>
        <time>2024-05-26T09:01:59Z</time>
      </trkpt>
      <trkpt lat="49.12547" lon="-0.18055">
        <ele>11.2</ele>
        <time>2024-05-26T09:02:00Z</time>
      </trkpt>
      <trkpt lat="49.12548" lon="-0.1804">
        <ele>11</ele>
        <time>2024-05-26T09:02:01Z</time>
      </trkpt>
      <trkpt lat="49.1255" lon="-0.18025">
        <ele>10.8</ele>
        <time>2024-05-26T09:02:02Z</time>
      </trkpt>
      <trkpt lat="49.12551" lon="-0.1801">
        <ele>10.6</ele>
        <time>2024-05-26T09:02:03Z</time>
      </trkpt>
      <trkpt lat="49.12552" lon="-0.17995">
        <ele>10.4</ele>
        <time>2024-05-26T09:02:04Z</time>
      </trkpt>
      <trkpt lat="49.12554" lon="-0.17981">
        <ele>10.2</ele>
        <time>2024-05-26T09:02:05Z</time>
      </trkpt>
      <trkpt lat="49.12555" lon="-0.17967">
        <ele>10.2</ele>
        <time>2024-05-26T09:02:06Z</time>
      </trkpt>
      <trkpt lat="49.12556" lon="-0.17954">
        <ele>10</ele>
        <time>2024-05-26T09:02:07Z</time>
      </trkpt>
      <trkpt lat="49.12557" lon="-0.1794">
        <ele>9.8</ele>
        <time>2024-05-26T09:02:08Z</time>
      </trkpt>
      <trkpt lat="49.12558" lon="-0.17927">
        <ele>9.6</ele>
        <time>2024-05-26T09:02:09Z</time>
      </trkpt>
      <trkpt lat="49.12559" lon="-0.17914">
        <ele>9.4</ele>
        <time>2024-05-26T09:02:10Z</time>
      </trkpt>
      <trkpt lat="49.1256" lon="-0.179">
        <ele>9.4</ele>
        <time>2024-05-26T09:02:11Z</time>
      </trkpt>
      <trkpt lat="49.1256" lon="-0.17887">
        <ele>9.2</ele>
        <time>2024-05-26T09:02:12Z</time>
      </trkpt>
      <trkpt lat="49.12561" lon="-0.17873">
        <ele>9.2</ele>
        <time>2024-05-26T09:02:13Z</time>
      </trkpt>
      <trkpt lat="49.12561" lon="-0.17859">
        <ele>9.2</ele>
        <time>2024-05-26T09:02:14Z</time>
      </trkpt>
      <trkpt lat="49.12561" lon="-0.17846">
        <ele>9.2</ele>
        <time>2024-05-26T09:02:15Z</time>
      </trkpt>
      <trkpt lat="49.12561" lon="-0.17833">
        <ele>9.2</ele>
        <time>2024-05-26T09:02:16Z</time>
      </trkpt>
      <trkpt lat="49.12561" lon="-0.17819">
        <ele>9.2</ele>
        <time>2024-05-26T09:02:17Z</time>
      </trkpt>
      <trkpt lat="49.12561" lon="-0.17806">
        <ele>9</ele>
        <time>2024-05-26T09:02:18Z</time>
      </trkpt>
      <trkpt lat="49.12561" lon="-0.17793">
        <ele>9</ele>
        <time>2024-05-26T09:02:19Z</time>
      </trkpt>
      <trkpt lat="49.12562" lon="-0.1778">
        <ele>9</ele>
        <time>2024-05-26T09:02:20Z</time>
      </trkpt>
      <trkpt lat="49.12562" lon="-0.17767">
        <ele>9</ele>
        <time>2024-05-26T09:02:21Z</time>
      </trkpt>
      <trkpt lat="49.12563" lon="-0.17754">
        <ele>9</ele>
        <time>2024-05-26T09:02:22Z</time>
      </trkpt>
      <trkpt lat="49.12563" lon="-0.17741">
        <ele>9</ele>
        <time>2024-05-26T09:02:23Z</time>
      </trkpt>
      <trkpt lat="49.12564" lon="-0.17728">
        <ele>9</ele>
        <time>2024-05-26T09:02:24Z</time>
      </trkpt>
      <trkpt lat="49.12564" lon="-0.17715">
        <ele>9</ele>
        <time>2024-05-26T09:02:25Z</time>
      </trkpt>
      <trkpt lat="49.12565" lon="-0.17703">
        <ele>9</ele>
        <time>2024-05-26T09:02:26Z</time>
      </trkpt>
      <trkpt lat="49.12565" lon="-0.1769">
        <ele>9</ele>
        <time>2024-05-26T09:02:27Z</time>
      </trkpt>
      <trkpt lat="49.12565" lon="-0.17678">
        <ele>9</ele>
        <time>2024-05-26T09:02:28Z</time>
      </trkpt>
      <trkpt lat="49.12565" lon="-0.17666">
        <ele>9</ele>
        <time>2024-05-26T09:02:29Z</time>
      </trkpt>
      <trkpt lat="49.12565" lon="-0.17655">
        <ele>9</ele>
        <time>2024-05-26T09:02:30Z</time>
      </trkpt>
      <trkpt lat="49.12565" lon="-0.17643">
        <ele>9</ele>
        <time>2024-05-26T09:02:31Z</time>
      </trkpt>
      <trkpt lat="49.12564" lon="-0.17631">
        <ele>9</ele>
        <time>2024-05-26T09:02:32Z</time>
      </trkpt>
      <trkpt lat="49.12563" lon="-0.17619">
        <ele>9</ele>
        <time>2024-05-26T09:02:33Z</time>
      </trkpt>
      <trkpt lat="49.12561" lon="-0.17608">
        <ele>9</ele>
        <time>2024-05-26T09:02:34Z</time>
      </trkpt>
      <trkpt lat="49.12559" lon="-0.17598">
        <ele>9</ele>
        <time>2024-05-26T09:02:35Z</time>
      </trkpt>
      <trkpt lat="49.12559" lon="-0.17588">
        <ele>9</ele>
        <time>2024-05-26T09:02:36Z</time>
      </trkpt>
      <trkpt lat="49.1256" lon="-0.17578">
        <ele>9</ele>
        <time>2024-05-26T09:02:37Z</time>
      </trkpt>
      <trkpt lat="49.12562" lon="-0.17567">
        <ele>9</ele>
        <time>2024-05-26T09:02:38Z</time>
      </trkpt>
      <trkpt lat="49.12564" lon="-0.17556">
        <ele>9</ele>
        <time>2024-05-26T09:02:39Z</time>
      </trkpt>
      <trkpt lat="49.12566" lon="-0.17544">
        <ele>9</ele>
        <time>2024-05-26T09:02:40Z</time>
      </trkpt>
      <trkpt lat="49.12567" lon="-0.17532">
        <ele>9</ele>
        <time>2024-05-26T09:02:41Z</time>
      </trkpt>
      <trkpt lat="49.12568" lon="-0.1752">
        <ele>9</ele>
        <time>2024-05-26T09:02:42Z</time>
      </trkpt>
      <trkpt lat="49.1257" lon="-0.17508">
        <ele>9</ele>
        <time>2024-05-26T09:02:43Z</time>
      </trkpt>
      <trkpt lat="49.12571" lon="-0.17496">
        <ele>9</ele>
        <time>2024-05-26T09:02:44Z</time>
      </trkpt>
      <trkpt lat="49.12573" lon="-0.17483">
        <ele>9</ele>
        <time>2024-05-26T09:02:45Z</time>
      </trkpt>
      <trkpt lat="49.12574" lon="-0.17471">
        <ele>9</ele>
        <time>2024-05-26T09:02:46Z</time>
      </trkpt>
      <trkpt lat="49.12576" lon="-0.17458">
        <ele>8.8</ele>
        <time>2024-05-26T09:02:47Z</time>
      </trkpt>
      <trkpt lat="49.12578" lon="-0.17445">
        <ele>8.8</ele>
        <time>2024-05-26T09:02:48Z</time>
      </trkpt>
      <trkpt lat="49.1258" lon="-0.17433">
        <ele>8.8</ele>
        <time>2024-05-26T09:02:49Z</time>
      </trkpt>
      <trkpt lat="49.12583" lon="-0.1742">
        <ele>8.8</ele>
        <time>2024-05-26T09:02:50Z</time>
      </trkpt>
      <trkpt lat="49.12586" lon="-0.17407">
        <ele>8.8</ele>
        <time>2024-05-26T09:02:51Z</time>
      </trkpt>
      <trkpt lat="49.12588" lon="-0.17394">
        <ele>8.8</ele>
        <time>2024-05-26T09:02:52Z</time>
      </trkpt>
      <trkpt lat="49.12591" lon="-0.1738">
        <ele>8.8</ele>
        <time>2024-05-26T09:02:53Z</time>
      </trkpt>
      <trkpt lat="49.12593" lon="-0.17367">
        <ele>8.8</ele>
        <time>2024-05-26T09:02:54Z</time>
      </trkpt>
      <trkpt lat="49.12596" lon="-0.17354">
        <ele>8.8</ele>
        <time>2024-05-26T09:02:55Z</time>
      </trkpt>
      <trkpt lat="49.12598" lon="-0.1734">
        <ele>8.8</ele>
        <time>2024-05-26T09:02:56Z</time>
      </trkpt>
      <trkpt lat="49.12602" lon="-0.17327">
        <ele>8.8</ele>
        <time>2024-05-26T09:02:57Z</time>
      </trkpt>
      <trkpt lat="49.12605" lon="-0.17314">
        <ele>8.8</ele>
        <time>2024-05-26T09:02:58Z</time>
      </trkpt>
      <trkpt lat="49.12608" lon="-0.173">
        <ele>8.8</ele>
        <time>2024-05-26T09:02:59Z</time>
      </trkpt>
      <trkpt lat="49.1261" lon="-0.17287">
        <ele>8.6</ele>
        <time>2024-05-26T09:03:00Z</time>
      </trkpt>
      <trkpt lat="49.12613" lon="-0.17273">
        <ele>8.6</ele>
        <time>2024-05-26T09:03:01Z</time>
      </trkpt>
      <trkpt lat="49.12616" lon="-0.1726">
        <ele>8.6</ele>
        <time>2024-05-26T09:03:02Z</time>
      </trkpt>
      <trkpt lat="49.12619" lon="-0.17246">
        <ele>8.6</ele>
        <time>2024-05-26T09:03:03Z</time>
      </trkpt>
      <trkpt lat="49.12621" lon="-0.17233">
        <ele>8.6</ele>
        <time>2024-05-26T09:03:04Z</time>
      </trkpt>
      <trkpt lat="49.12624" lon="-0.1722">
        <ele>8.6</ele>
        <time>2024-05-26T09:03:05Z</time>
      </trkpt>
      <trkpt lat="49.12626" lon="-0.17206">
        <ele>8.6</ele>
        <time>2024-05-26T09:03:06Z</time>
      </trkpt>
      <trkpt lat="49.12628" lon="-0.17193">
        <ele>8.6</ele>
        <time>2024-05-26T09:03:07Z</time>
      </trkpt>
      <trkpt lat="49.1263" lon="-0.17179">
        <ele>8.6</ele>
        <time>2024-05-26T09:03:08Z</time>
      </trkpt>
      <trkpt lat="49.12632" lon="-0.17165">
        <ele>8.6</ele>
        <time>2024-05-26T09:03:09Z</time>
      </trkpt>
      <trkpt lat="49.12634" lon="-0.17151">
        <ele>8.6</ele>
        <time>2024-05-26T09:03:10Z</time>
      </trkpt>
      <trkpt lat="49.12636" lon="-0.17137">
        <ele>8.6</ele>
        <time>2024-05-26T09:03:11Z</time>
      </trkpt>
      <trkpt lat="49.12638" lon="-0.17123">
        <ele>8.6</ele>
        <time>2024-05-26T09:03:12Z</time>
      </trkpt>
      <trkpt lat="49.1264" lon="-0.17109">
        <ele>8.6</ele>
        <time>2024-05-26T09:03:13Z</time>
      </trkpt>
      <trkpt lat="49.12642" lon="-0.17095">
        <ele>8.6</ele>
        <time>2024-05-26T09:03:14Z</time>
      </trkpt>
      <trkpt lat="49.12645" lon="-0.17081">
        <ele>8.6</ele>
        <time>2024-05-26T09:03:15Z</time>
      </trkpt>
      <trkpt lat="49.12648" lon="-0.17067">
        <ele>8.4</ele>
        <time>2024-05-26T09:03:16Z</time>
      </trkpt>
      <trkpt lat="49.1265" lon="-0.17053">
        <ele>8.4</ele>
        <time>2024-05-26T09:03:17Z</time>
      </trkpt>
      <trkpt lat="49.12651" lon="-0.17039">
        <ele>8.4</ele>
        <time>2024-05-26T09:03:18Z</time>
      </trkpt>
      <trkpt lat="49.12651" lon="-0.17025">
        <ele>8.4</ele>
        <time>2024-05-26T09:03:19Z</time>
      </trkpt>
      <trkpt lat="49.12652" lon="-0.17011">
        <ele>8.2</ele>
        <time>2024-05-26T09:03:20Z</time>
      </trkpt>
      <trkpt lat="49.12653" lon="-0.16997">
        <ele>8.2</ele>
        <time>2024-05-26T09:03:21Z</time>
      </trkpt>
      <trkpt lat="49.12654" lon="-0.16983">
        <ele>8</ele>
        <time>2024-05-26T09:03:22Z</time>
      </trkpt>
      <trkpt lat="49.12655" lon="-0.1697">
        <ele>8</ele>
        <time>2024-05-26T09:03:23Z</time>
      </trkpt>
      <trkpt lat="49.12656" lon="-0.16956">
        <ele>7.6</ele>
        <time>2024-05-26T09:03:24Z</time>
      </trkpt>
      <trkpt lat="49.12658" lon="-0.16942">
        <ele>7.2</ele>
        <time>2024-05-26T09:03:25Z</time>
      </trkpt>
      <trkpt lat="49.12659" lon="-0.1693">
        <ele>7</ele>
        <time>2024-05-26T09:03:26Z</time>
      </trkpt>
      <trkpt lat="49.1266" lon="-0.16919">
        <ele>7</ele>
        <time>2024-05-26T09:03:27Z</time>
      </trkpt>
      <trkpt lat="49.1266" lon="-0.1691">
        <ele>6.8</ele>
        <time>2024-05-26T09:03:28Z</time>
      </trkpt>
      <trkpt lat="49.12659" lon="-0.16901">
        <ele>6.8</ele>
        <time>2024-05-26T09:03:29Z</time>
      </trkpt>
      <trkpt lat="49.12657" lon="-0.16894">
        <ele>6.8</ele>
        <time>2024-05-26T09:03:30Z</time>
      </trkpt>
      <trkpt lat="49.12656" lon="-0.16887">
        <ele>6.8</ele>
        <time>2024-05-26T09:03:31Z</time>
      </trkpt>
      <trkpt lat="49.12657" lon="-0.1688">
        <ele>6.8</ele>
        <time>2024-05-26T09:03:32Z</time>
      </trkpt>
      <trkpt lat="49.1266" lon="-0.16873">
        <ele>6.8</ele>
        <time>2024-05-26T09:03:33Z</time>
      </trkpt>
      <trkpt lat="49.12663" lon="-0.16866">
        <ele>6.8</ele>
        <time>2024-05-26T09:03:34Z</time>
      </trkpt>
      <trkpt lat="49.12665" lon="-0.16857">
        <ele>6.6</ele>
        <time>2024-05-26T09:03:35Z</time>
      </trkpt>
      <trkpt lat="49.12667" lon="-0.16846">
        <ele>6.6</ele>
        <time>2024-05-26T09:03:36Z</time>
      </trkpt>
      <trkpt lat="49.12667" lon="-0.16836">
        <ele>6.6</ele>
        <time>2024-05-26T09:03:37Z</time>
      </trkpt>
      <trkpt lat="49.12668" lon="-0.16825">
        <ele>6.6</ele>
        <time>2024-05-26T09:03:38Z</time>
      </trkpt>
      <trkpt lat="49.12668" lon="-0.16814">
        <ele>6.6</ele>
        <time>2024-05-26T09:03:39Z</time>
      </trkpt>
      <trkpt lat="49.12669" lon="-0.16803">
        <ele>6.6</ele>
        <time>2024-05-26T09:03:40Z</time>
      </trkpt>
      <trkpt lat="49.1267" lon="-0.16791">
        <ele>6.6</ele>
        <time>2024-05-26T09:03:41Z</time>
      </trkpt>
      <trkpt lat="49.12672" lon="-0.1678">
        <ele>6.4</ele>
        <time>2024-05-26T09:03:42Z</time>
      </trkpt>
      <trkpt lat="49.12673" lon="-0.16769">
        <ele>6.2</ele>
        <time>2024-05-26T09:03:43Z</time>
      </trkpt>
      <trkpt lat="49.12675" lon="-0.16757">
        <ele>6</ele>
        <time>2024-05-26T09:03:44Z</time>
      </trkpt>
      <trkpt lat="49.12677" lon="-0.16746">
        <ele>6</ele>
        <time>2024-05-26T09:03:45Z</time>
      </trkpt>
      <trkpt lat="49.12678" lon="-0.16734">
        <ele>5.8</ele>
        <time>2024-05-26T09:03:46Z</time>
      </trkpt>
      <trkpt lat="49.12679" lon="-0.16723">
        <ele>5.8</ele>
        <time>2024-05-26T09:03:47Z</time>
      </trkpt>
      <trkpt lat="49.1268" lon="-0.16712">
        <ele>5.8</ele>
        <time>2024-05-26T09:03:48Z</time>
      </trkpt>
      <trkpt lat="49.12681" lon="-0.167">
        <ele>5.6</ele>
        <time>2024-05-26T09:03:49Z</time>
      </trkpt>
      <trkpt lat="49.12683" lon="-0.16689">
        <ele>5.4</ele>
        <time>2024-05-26T09:03:50Z</time>
      </trkpt>
      <trkpt lat="49.12683" lon="-0.16679">
        <ele>5.2</ele>
        <time>2024-05-26T09:03:51Z</time>
      </trkpt>
      <trkpt lat="49.12682" lon="-0.16669">
        <ele>5.2</ele>
        <time>2024-05-26T09:03:52Z</time>
      </trkpt>
      <trkpt lat="49.12682" lon="-0.16659">
        <ele>5</ele>
        <time>2024-05-26T09:03:53Z</time>
      </trkpt>
      <trkpt lat="49.12683" lon="-0.1665">
        <ele>5</ele>
        <time>2024-05-26T09:03:54Z</time>
      </trkpt>
      <trkpt lat="49.12687" lon="-0.16649">
        <ele>5</ele>
        <time>2024-05-26T09:03:55Z</time>
      </trkpt>
      <trkpt lat="49.12692" lon="-0.16653">
        <ele>5</ele>
        <time>2024-05-26T09:03:56Z</time>
      </trkpt>
      <trkpt lat="49.12697" lon="-0.16658">
        <ele>4.8</ele>
        <time>2024-05-26T09:03:57Z</time>
      </trkpt>
      <trkpt lat="49.12703" lon="-0.16663">
        <ele>4.8</ele>
        <time>2024-05-26T09:03:58Z</time>
      </trkpt>
      <trkpt lat="49.1271" lon="-0.16667">
        <ele>4.8</ele>
        <time>2024-05-26T09:03:59Z</time>
      </trkpt>
      <trkpt lat="49.12717" lon="-0.1667">
        <ele>4.8</ele>
        <time>2024-05-26T09:04:00Z</time>
      </trkpt>
      <trkpt lat="49.12724" lon="-0.16671">
        <ele>4.6</ele>
        <time>2024-05-26T09:04:01Z</time>
      </trkpt>
      <trkpt lat="49.12732" lon="-0.16673">
        <ele>4.6</ele>
        <time>2024-05-26T09:04:02Z</time>
      </trkpt>
      <trkpt lat="49.12739" lon="-0.16673">
        <ele>4.6</ele>
        <time>2024-05-26T09:04:03Z</time>
      </trkpt>
      <trkpt lat="49.12747" lon="-0.16673">
        <ele>4.6</ele>
        <time>2024-05-26T09:04:04Z</time>
      </trkpt>
      <trkpt lat="49.12754" lon="-0.16671">
        <ele>4.4</ele>
        <time>2024-05-26T09:04:05Z</time>
      </trkpt>
      <trkpt lat="49.12761" lon="-0.16666">
        <ele>4.2</ele>
        <time>2024-05-26T09:04:06Z</time>
      </trkpt>
      <trkpt lat="49.12767" lon="-0.1666">
        <ele>4</ele>
        <time>2024-05-26T09:04:07Z</time>
      </trkpt>
      <trkpt lat="49.12773" lon="-0.16653">
        <ele>3.8</ele>
        <time>2024-05-26T09:04:08Z</time>
      </trkpt>
      <trkpt lat="49.12779" lon="-0.16646">
        <ele>3.6</ele>
        <time>2024-05-26T09:04:09Z</time>
      </trkpt>
      <trkpt lat="49.12785" lon="-0.1664">
        <ele>3.4</ele>
        <time>2024-05-26T09:04:10Z</time>
      </trkpt>
      <trkpt lat="49.12791" lon="-0.16633">
        <ele>3.4</ele>
        <time>2024-05-26T09:04:11Z</time>
      </trkpt>
      <trkpt lat="49.12796" lon="-0.16626">
        <ele>3.4</ele>
        <time>2024-05-26T09:04:12Z</time>
      </trkpt>
      <trkpt lat="49.12802" lon="-0.16619">
        <ele>3.4</ele>
        <time>2024-05-26T09:04:13Z</time>
      </trkpt>
      <trkpt lat="49.12807" lon="-0.16612">
        <ele>3.4</ele>
        <time>2024-05-26T09:04:14Z</time>
      </trkpt>
      <trkpt lat="49.12812" lon="-0.16604">
        <ele>3.4</ele>
        <time>2024-05-26T09:04:15Z</time>
      </trkpt>
      <trkpt lat="49.12816" lon="-0.16595">
        <ele>3.4</ele>
        <time>2024-05-26T09:04:16Z</time>
      </trkpt>
      <trkpt lat="49.12818" lon="-0.16585">
        <ele>3.4</ele>
        <time>2024-05-26T09:04:17Z</time>
      </trkpt>
      <trkpt lat="49.12821" lon="-0.16575">
        <ele>3.4</ele>
        <time>2024-05-26T09:04:18Z</time>
      </trkpt>
      <trkpt lat="49.12824" lon="-0.16565">
        <ele>3.4</ele>
        <time>2024-05-26T09:04:19Z</time>
      </trkpt>
      <trkpt lat="49.12828" lon="-0.16555">
        <ele>3.4</ele>
        <time>2024-05-26T09:04:20Z</time>
      </trkpt>
      <trkpt lat="49.12831" lon="-0.16544">
        <ele>3.4</ele>
        <time>2024-05-26T09:04:21Z</time>
      </trkpt>
      <trkpt lat="49.12834" lon="-0.16534">
        <ele>3.4</ele>
        <time>2024-05-26T09:04:22Z</time>
      </trkpt>
      <trkpt lat="49.12837" lon="-0.16524">
        <ele>3.6</ele>
        <time>2024-05-26T09:04:23Z</time>
      </trkpt>
      <trkpt lat="49.12839" lon="-0.16513">
        <ele>3.6</ele>
        <time>2024-05-26T09:04:24Z</time>
      </trkpt>
      <trkpt lat="49.12842" lon="-0.16503">
        <ele>3.6</ele>
        <time>2024-05-26T09:04:25Z</time>
      </trkpt>
      <trkpt lat="49.12844" lon="-0.16492">
        <ele>3.6</ele>
        <time>2024-05-26T09:04:26Z</time>
      </trkpt>
      <trkpt lat="49.12845" lon="-0.16481">
        <ele>3.6</ele>
        <time>2024-05-26T09:04:27Z</time>
      </trkpt>
      <trkpt lat="49.12847" lon="-0.1647">
        <ele>3.6</ele>
        <time>2024-05-26T09:04:28Z</time>
      </trkpt>
      <trkpt lat="49.12848" lon="-0.16459">
        <ele>3.6</ele>
        <time>2024-05-26T09:04:29Z</time>
      </trkpt>
      <trkpt lat="49.12849" lon="-0.16448">
        <ele>3.6</ele>
        <time>2024-05-26T09:04:30Z</time>
      </trkpt>
      <trkpt lat="49.12851" lon="-0.16438">
        <ele>3.4</ele>
        <time>2024-05-26T09:04:31Z</time>
      </trkpt>
      <trkpt lat="49.12853" lon="-0.16427">
        <ele>3.4</ele>
        <time>2024-05-26T09:04:32Z</time>
      </trkpt>
      <trkpt lat="49.12856" lon="-0.16417">
        <ele>3.4</ele>
        <time>2024-05-26T09:04:33Z</time>
      </trkpt>
      <trkpt lat="49.12859" lon="-0.16406">
        <ele>3.4</ele>
        <time>2024-05-26T09:04:34Z</time>
      </trkpt>
      <trkpt lat="49.12862" lon="-0.16396">
        <ele>3.2</ele>
        <time>2024-05-26T09:04:35Z</time>
      </trkpt>
      <trkpt lat="49.12865" lon="-0.16386">
        <ele>3.2</ele>
        <time>2024-05-26T09:04:36Z</time>
      </trkpt>
      <trkpt lat="49.12869" lon="-0.16376">
        <ele>3.2</ele>
        <time>2024-05-26T09:04:37Z</time>
      </trkpt>
      <trkpt lat="49.12872" lon="-0.16366">
        <ele>3.2</ele>
        <time>2024-05-26T09:04:38Z</time>
      </trkpt>
      <trkpt lat="49.12876" lon="-0.16356">
        <ele>3</ele>
        <time>2024-05-26T09:04:39Z</time>
      </trkpt>
      <trkpt lat="49.1288" lon="-0.16346">
        <ele>3</ele>
        <time>2024-05-26T09:04:40Z</time>
      </trkpt>
      <trkpt lat="49.12884" lon="-0.16336">
        <ele>3</ele>
        <time>2024-05-26T09:04:41Z</time>
      </trkpt>
      <trkpt lat="49.12888" lon="-0.16326">
        <ele>3</ele>
        <time>2024-05-26T09:04:42Z</time>
      </trkpt>
      <trkpt lat="49.12893" lon="-0.16317">
        <ele>3</ele>
        <time>2024-05-26T09:04:43Z</time>
      </trkpt>
      <trkpt lat="49.12897" lon="-0.16307">
        <ele>2.8</ele>
        <time>2024-05-26T09:04:44Z</time>
      </trkpt>
      <trkpt lat="49.12902" lon="-0.16297">
        <ele>2.8</ele>
        <time>2024-05-26T09:04:45Z</time>
      </trkpt>
      <trkpt lat="49.12906" lon="-0.16287">
        <ele>2.8</ele>
        <time>2024-05-26T09:04:46Z</time>
      </trkpt>
      <trkpt lat="49.12911" lon="-0.16277">
        <ele>2.8</ele>
        <time>2024-05-26T09:04:47Z</time>
      </trkpt>
      <trkpt lat="49.12915" lon="-0.16267">
        <ele>2.8</ele>
        <time>2024-05-26T09:04:48Z</time>
      </trkpt>
      <trkpt lat="49.1292" lon="-0.16258">
        <ele>2.8</ele>
        <time>2024-05-26T09:04:49Z</time>
      </trkpt>
      <trkpt lat="49.12925" lon="-0.1625">
        <ele>2.8</ele>
        <time>2024-05-26T09:04:50Z</time>
      </trkpt>
      <trkpt lat="49.12931" lon="-0.16243">
        <ele>2.8</ele>
        <time>2024-05-26T09:04:51Z</time>
      </trkpt>
      <trkpt lat="49.12937" lon="-0.16237">
        <ele>2.8</ele>
        <time>2024-05-26T09:04:52Z</time>
      </trkpt>
      <trkpt lat="49.12944" lon="-0.16233">
        <ele>2.8</ele>
        <time>2024-05-26T09:04:53Z</time>
      </trkpt>
      <trkpt lat="49.1295" lon="-0.1623">
        <ele>2.8</ele>
        <time>2024-05-26T09:04:54Z</time>
      </trkpt>
      <trkpt lat="49.12957" lon="-0.16228">
        <ele>2.8</ele>
        <time>2024-05-26T09:04:55Z</time>
      </trkpt>
      <trkpt lat="49.12964" lon="-0.16229">
        <ele>2.8</ele>
        <time>2024-05-26T09:04:56Z</time>
      </trkpt>
      <trkpt lat="49.12971" lon="-0.16231">
        <ele>2.8</ele>
        <time>2024-05-26T09:04:57Z</time>
      </trkpt>
      <trkpt lat="49.12977" lon="-0.16234">
        <ele>2.8</ele>
        <time>2024-05-26T09:04:58Z</time>
      </trkpt>
      <trkpt lat="49.12984" lon="-0.16237">
        <ele>3</ele>
        <time>2024-05-26T09:04:59Z</time>
      </trkpt>
      <trkpt lat="49.1299" lon="-0.16241">
        <ele>3</ele>
        <time>2024-05-26T09:05:00Z</time>
      </trkpt>
      <trkpt lat="49.12997" lon="-0.16245">
        <ele>3</ele>
        <time>2024-05-26T09:05:01Z</time>
      </trkpt>
      <trkpt lat="49.13003" lon="-0.16249">
        <ele>3</ele>
        <time>2024-05-26T09:05:02Z</time>
      </trkpt>
      <trkpt lat="49.13009" lon="-0.16253">
        <ele>3</ele>
        <time>2024-05-26T09:05:03Z</time>
      </trkpt>
      <trkpt lat="49.13016" lon="-0.16258">
        <ele>3.2</ele>
        <time>2024-05-26T09:05:04Z</time>
      </trkpt>
      <trkpt lat="49.13022" lon="-0.16262">
        <ele>3.2</ele>
        <time>2024-05-26T09:05:05Z</time>
      </trkpt>
      <trkpt lat="49.13028" lon="-0.16266">
        <ele>3.2</ele>
        <time>2024-05-26T09:05:06Z</time>
      </trkpt>
      <trkpt lat="49.13034" lon="-0.1627">
        <ele>3.2</ele>
        <time>2024-05-26T09:05:07Z</time>
      </trkpt>
      <trkpt lat="49.13041" lon="-0.16274">
        <ele>3.4</ele>
        <time>2024-05-26T09:05:08Z</time>
      </trkpt>
      <trkpt lat="49.13047" lon="-0.16277">
        <ele>3.4</ele>
        <time>2024-05-26T09:05:09Z</time>
      </trkpt>
      <trkpt lat="49.13053" lon="-0.16281">
        <ele>3.4</ele>
        <time>2024-05-26T09:05:10Z</time>
      </trkpt>
      <trkpt lat="49.13059" lon="-0.16285">
        <ele>3.4</ele>
        <time>2024-05-26T09:05:11Z</time>
      </trkpt>
      <trkpt lat="49.13064" lon="-0.16287">
        <ele>3.6</ele>
        <time>2024-05-26T09:05:12Z</time>
      </trkpt>
      <trkpt lat="49.1307" lon="-0.16291">
        <ele>3.6</ele>
        <time>2024-05-26T09:05:13Z</time>
      </trkpt>
      <trkpt lat="49.13077" lon="-0.16295">
        <ele>3.8</ele>
        <time>2024-05-26T09:05:14Z</time>
      </trkpt>
      <trkpt lat="49.13082" lon="-0.16297">
        <ele>4</ele>
        <time>2024-05-26T09:05:15Z</time>
      </trkpt>
      <trkpt lat="49.1309" lon="-0.16301">
        <ele>4</ele>
        <time>2024-05-26T09:05:16Z</time>
      </trkpt>
      <trkpt lat="49.13096" lon="-0.16303">
        <ele>4.2</ele>
        <time>2024-05-26T09:05:17Z</time>
      </trkpt>
      <trkpt lat="49.13101" lon="-0.16306">
        <ele>4.6</ele>
        <time>2024-05-26T09:05:18Z</time>
      </trkpt>
      <trkpt lat="49.13108" lon="-0.16309">
        <ele>5.2</ele>
        <time>2024-05-26T09:05:19Z</time>
      </trkpt>
      <trkpt lat="49.13114" lon="-0.16312">
        <ele>5.6</ele>
        <time>2024-05-26T09:05:20Z</time>
      </trkpt>
      <trkpt lat="49.13119" lon="-0.16313">
        <ele>5.8</ele>
        <time>2024-05-26T09:05:21Z</time>
      </trkpt>
      <trkpt lat="49.13125" lon="-0.16316">
        <ele>6</ele>
        <time>2024-05-26T09:05:22Z</time>
      </trkpt>
      <trkpt lat="49.13131" lon="-0.16317">
        <ele>6.2</ele>
        <time>2024-05-26T09:05:23Z</time>
      </trkpt>
      <trkpt lat="49.13137" lon="-0.16318">
        <ele>6.2</ele>
        <time>2024-05-26T09:05:24Z</time>
      </trkpt>
      <trkpt lat="49.13144" lon="-0.16319">
        <ele>6.2</ele>
        <time>2024-05-26T09:05:25Z</time>
      </trkpt>
      <trkpt lat="49.1315" lon="-0.1632">
        <ele>6.4</ele>
        <time>2024-05-26T09:05:26Z</time>
      </trkpt>
      <trkpt lat="49.13155" lon="-0.16321">
        <ele>6.4</ele>
        <time>2024-05-26T09:05:27Z</time>
      </trkpt>
      <trkpt lat="49.13161" lon="-0.16322">
        <ele>6.4</ele>
        <time>2024-05-26T09:05:28Z</time>
      </trkpt>
      <trkpt lat="49.13166" lon="-0.16323">
        <ele>6.6</ele>
        <time>2024-05-26T09:05:29Z</time>
      </trkpt>
      <trkpt lat="49.13172" lon="-0.16323">
        <ele>6.8</ele>
        <time>2024-05-26T09:05:30Z</time>
      </trkpt>
      <trkpt lat="49.1318" lon="-0.16323">
        <ele>7.2</ele>
        <time>2024-05-26T09:05:31Z</time>
      </trkpt>
      <trkpt lat="49.13186" lon="-0.16323">
        <ele>7.4</ele>
        <time>2024-05-26T09:05:32Z</time>
      </trkpt>
      <trkpt lat="49.13191" lon="-0.16323">
        <ele>7.8</ele>
        <time>2024-05-26T09:05:33Z</time>
      </trkpt>
      <trkpt lat="49.13198" lon="-0.16323">
        <ele>8.4</ele>
        <time>2024-05-26T09:05:34Z</time>
      </trkpt>
      <trkpt lat="49.13204" lon="-0.16323">
        <ele>8.6</ele>
        <time>2024-05-26T09:05:35Z</time>
      </trkpt>
      <trkpt lat="49.13209" lon="-0.16322">
        <ele>8.8</ele>
        <time>2024-05-26T09:05:36Z</time>
      </trkpt>
      <trkpt lat="49.13216" lon="-0.16322">
        <ele>9</ele>
        <time>2024-05-26T09:05:37Z</time>
      </trkpt>
      <trkpt lat="49.13222" lon="-0.16321">
        <ele>9.2</ele>
        <time>2024-05-26T09:05:38Z</time>
      </trkpt>
      <trkpt lat="49.13228" lon="-0.1632">
        <ele>9.4</ele>
        <time>2024-05-26T09:05:39Z</time>
      </trkpt>
      <trkpt lat="49.13236" lon="-0.1632">
        <ele>9.4</ele>
        <time>2024-05-26T09:05:40Z</time>
      </trkpt>
      <trkpt lat="49.13243" lon="-0.16319">
        <ele>9.6</ele>
        <time>2024-05-26T09:05:41Z</time>
      </trkpt>
      <trkpt lat="49.13249" lon="-0.1632">
        <ele>9.6</ele>
        <time>2024-05-26T09:05:42Z</time>
      </trkpt>
      <trkpt lat="49.13256" lon="-0.1632">
        <ele>9.8</ele>
        <time>2024-05-26T09:05:43Z</time>
      </trkpt>
      <trkpt lat="49.13263" lon="-0.16321">
        <ele>9.8</ele>
        <time>2024-05-26T09:05:44Z</time>
      </trkpt>
      <trkpt lat="49.13271" lon="-0.16323">
        <ele>9.8</ele>
        <time>2024-05-26T09:05:45Z</time>
      </trkpt>
      <trkpt lat="49.13278" lon="-0.16325">
        <ele>9.8</ele>
        <time>2024-05-26T09:05:46Z</time>
      </trkpt>
      <trkpt lat="49.13287" lon="-0.1633">
        <ele>9.8</ele>
        <time>2024-05-26T09:05:47Z</time>
      </trkpt>
      <trkpt lat="49.13293" lon="-0.16333">
        <ele>9.8</ele>
        <time>2024-05-26T09:05:48Z</time>
      </trkpt>
      <trkpt lat="49.13301" lon="-0.16338">
        <ele>9.8</ele>
        <time>2024-05-26T09:05:49Z</time>
      </trkpt>
      <trkpt lat="49.13308" lon="-0.16343">
        <ele>9.8</ele>
        <time>2024-05-26T09:05:50Z</time>
      </trkpt>
      <trkpt lat="49.13313" lon="-0.16348">
        <ele>9.8</ele>
        <time>2024-05-26T09:05:51Z</time>
      </trkpt>
      <trkpt lat="49.1332" lon="-0.16355">
        <ele>9.8</ele>
        <time>2024-05-26T09:05:52Z</time>
      </trkpt>
      <trkpt lat="49.13325" lon="-0.16361">
        <ele>9.8</ele>
        <time>2024-05-26T09:05:53Z</time>
      </trkpt>
      <trkpt lat="49.1333" lon="-0.16366">
        <ele>9.8</ele>
        <time>2024-05-26T09:05:54Z</time>
      </trkpt>
      <trkpt lat="49.13337" lon="-0.16373">
        <ele>9.4</ele>
        <time>2024-05-26T09:05:55Z</time>
      </trkpt>
      <trkpt lat="49.13342" lon="-0.16379">
        <ele>9.2</ele>
        <time>2024-05-26T09:05:56Z</time>
      </trkpt>
      <trkpt lat="49.13346" lon="-0.16384">
        <ele>9.2</ele>
        <time>2024-05-26T09:05:57Z</time>
      </trkpt>
      <trkpt lat="49.13352" lon="-0.1639">
        <ele>9.2</ele>
        <time>2024-05-26T09:05:58Z</time>
      </trkpt>
      <trkpt lat="49.13357" lon="-0.16396">
        <ele>9.2</ele>
        <time>2024-05-26T09:05:59Z</time>
      </trkpt>
      <trkpt lat="49.13364" lon="-0.16403">
        <ele>9.2</ele>
        <time>2024-05-26T09:06:00Z</time>
      </trkpt>
      <trkpt lat="49.13369" lon="-0.16409">
        <ele>9.2</ele>
        <time>2024-05-26T09:06:01Z</time>
      </trkpt>
      <trkpt lat="49.13375" lon="-0.16414">
        <ele>9.2</ele>
        <time>2024-05-26T09:06:02Z</time>
      </trkpt>
      <trkpt lat="49.13381" lon="-0.16419">
        <ele>9.2</ele>
        <time>2024-05-26T09:06:03Z</time>
      </trkpt>
      <trkpt lat="49.13387" lon="-0.16425">
        <ele>9.2</ele>
        <time>2024-05-26T09:06:04Z</time>
      </trkpt>
      <trkpt lat="49.13392" lon="-0.16429">
        <ele>9.2</ele>
        <time>2024-05-26T09:06:05Z</time>
      </trkpt>
      <trkpt lat="49.13399" lon="-0.16434">
        <ele>9.2</ele>
        <time>2024-05-26T09:06:06Z</time>
      </trkpt>
      <trkpt lat="49.13407" lon="-0.16439">
        <ele>9.2</ele>
        <time>2024-05-26T09:06:07Z</time>
      </trkpt>
      <trkpt lat="49.13414" lon="-0.16444">
        <ele>9.2</ele>
        <time>2024-05-26T09:06:08Z</time>
      </trkpt>
      <trkpt lat="49.1342" lon="-0.16448">
        <ele>9.2</ele>
        <time>2024-05-26T09:06:09Z</time>
      </trkpt>
      <trkpt lat="49.13428" lon="-0.16452">
        <ele>9.2</ele>
        <time>2024-05-26T09:06:10Z</time>
      </trkpt>
      <trkpt lat="49.13435" lon="-0.16456">
        <ele>9.2</ele>
        <time>2024-05-26T09:06:11Z</time>
      </trkpt>
      <trkpt lat="49.13442" lon="-0.16459">
        <ele>9.2</ele>
        <time>2024-05-26T09:06:12Z</time>
      </trkpt>
      <trkpt lat="49.13449" lon="-0.16463">
        <ele>9.2</ele>
        <time>2024-05-26T09:06:13Z</time>
      </trkpt>
      <trkpt lat="49.13455" lon="-0.16465">
        <ele>9.4</ele>
        <time>2024-05-26T09:06:14Z</time>
      </trkpt>
      <trkpt lat="49.13463" lon="-0.16469">
        <ele>9.4</ele>
        <time>2024-05-26T09:06:15Z</time>
      </trkpt>
      <trkpt lat="49.1347" lon="-0.16472">
        <ele>9.2</ele>
        <time>2024-05-26T09:06:16Z</time>
      </trkpt>
      <trkpt lat="49.13476" lon="-0.16474">
        <ele>9.2</ele>
        <time>2024-05-26T09:06:17Z</time>
      </trkpt>
      <trkpt lat="49.13484" lon="-0.16477">
        <ele>9.2</ele>
        <time>2024-05-26T09:06:18Z</time>
      </trkpt>
      <trkpt lat="49.13491" lon="-0.16479">
        <ele>9.2</ele>
        <time>2024-05-26T09:06:19Z</time>
      </trkpt>
      <trkpt lat="49.13497" lon="-0.1648">
        <ele>9.2</ele>
        <time>2024-05-26T09:06:20Z</time>
      </trkpt>
      <trkpt lat="49.13506" lon="-0.16483">
        <ele>9.2</ele>
        <time>2024-05-26T09:06:21Z</time>
      </trkpt>
      <trkpt lat="49.13512" lon="-0.16484">
        <ele>9.2</ele>
        <time>2024-05-26T09:06:22Z</time>
      </trkpt>
      <trkpt lat="49.13519" lon="-0.16486">
        <ele>9.2</ele>
        <time>2024-05-26T09:06:23Z</time>
      </trkpt>
      <trkpt lat="49.13528" lon="-0.16487">
        <ele>9.2</ele>
        <time>2024-05-26T09:06:24Z</time>
      </trkpt>
      <trkpt lat="49.13536" lon="-0.16487">
        <ele>9.2</ele>
        <time>2024-05-26T09:06:25Z</time>
      </trkpt>
      <trkpt lat="49.13542" lon="-0.16487">
        <ele>9.4</ele>
        <time>2024-05-26T09:06:26Z</time>
      </trkpt>
      <trkpt lat="49.1355" lon="-0.16486">
        <ele>9.6</ele>
        <time>2024-05-26T09:06:27Z</time>
      </trkpt>
      <trkpt lat="49.13559" lon="-0.16486">
        <ele>9.6</ele>
        <time>2024-05-26T09:06:28Z</time>
      </trkpt>
      <trkpt lat="49.13567" lon="-0.16485">
        <ele>9.6</ele>
        <time>2024-05-26T09:06:29Z</time>
      </trkpt>
      <trkpt lat="49.13573" lon="-0.16485">
        <ele>9.8</ele>
        <time>2024-05-26T09:06:30Z</time>
      </trkpt>
      <trkpt lat="49.13583" lon="-0.16484">
        <ele>9.8</ele>
        <time>2024-05-26T09:06:31Z</time>
      </trkpt>
      <trkpt lat="49.13592" lon="-0.16483">
        <ele>9.8</ele>
        <time>2024-05-26T09:06:32Z</time>
      </trkpt>
      <trkpt lat="49.13599" lon="-0.16482">
        <ele>9.8</ele>
        <time>2024-05-26T09:06:33Z</time>
      </trkpt>
      <trkpt lat="49.13609" lon="-0.16481">
        <ele>9.8</ele>
        <time>2024-05-26T09:06:34Z</time>
      </trkpt>
      <trkpt lat="49.13617" lon="-0.1648">
        <ele>9.8</ele>
        <time>2024-05-26T09:06:35Z</time>
      </trkpt>
      <trkpt lat="49.13626" lon="-0.16478">
        <ele>9.8</ele>
        <time>2024-05-26T09:06:36Z</time>
      </trkpt>
      <trkpt lat="49.13638" lon="-0.16477">
        <ele>9.8</ele>
        <time>2024-05-26T09:06:37Z</time>
      </trkpt>
      <trkpt lat="49.13646" lon="-0.16477">
        <ele>9.8</ele>
        <time>2024-05-26T09:06:38Z</time>
      </trkpt>
      <trkpt lat="49.13658" lon="-0.16478">
        <ele>9.6</ele>
        <time>2024-05-26T09:06:39Z</time>
      </trkpt>
      <trkpt lat="49.13666" lon="-0.16479">
        <ele>9.6</ele>
        <time>2024-05-26T09:06:40Z</time>
      </trkpt>
      <trkpt lat="49.13677" lon="-0.1648">
        <ele>9.6</ele>
        <time>2024-05-26T09:06:41Z</time>
      </trkpt>
      <trkpt lat="49.13687" lon="-0.16482">
        <ele>9.6</ele>
        <time>2024-05-26T09:06:42Z</time>
      </trkpt>
      <trkpt lat="49.137" lon="-0.16484">
        <ele>9</ele>
        <time>2024-05-26T09:06:43Z</time>
      </trkpt>
      <trkpt lat="49.13708" lon="-0.16486">
        <ele>8.4</ele>
        <time>2024-05-26T09:06:44Z</time>
      </trkpt>
      <trkpt lat="49.1372" lon="-0.16488">
        <ele>7.8</ele>
        <time>2024-05-26T09:06:45Z</time>
      </trkpt>
      <trkpt lat="49.13728" lon="-0.16488">
        <ele>7.2</ele>
        <time>2024-05-26T09:06:46Z</time>
      </trkpt>
      <trkpt lat="49.13738" lon="-0.16489">
        <ele>6.4</ele>
        <time>2024-05-26T09:06:47Z</time>
      </trkpt>
      <trkpt lat="49.13748" lon="-0.1649">
        <ele>5.8</ele>
        <time>2024-05-26T09:06:48Z</time>
      </trkpt>
      <trkpt lat="49.13757" lon="-0.1649">
        <ele>5.2</ele>
        <time>2024-05-26T09:06:49Z</time>
      </trkpt>
      <trkpt lat="49.13766" lon="-0.1649">
        <ele>4.6</ele>
        <time>2024-05-26T09:06:50Z</time>
      </trkpt>
      <trkpt lat="49.13777" lon="-0.1649">
        <ele>4</ele>
        <time>2024-05-26T09:06:51Z</time>
      </trkpt>
      <trkpt lat="49.13784" lon="-0.1649">
        <ele>3.6</ele>
        <time>2024-05-26T09:06:52Z</time>
      </trkpt>
      <trkpt lat="49.13793" lon="-0.1649">
        <ele>3.4</ele>
        <time>2024-05-26T09:06:53Z</time>
      </trkpt>
      <trkpt lat="49.13802" lon="-0.1649">
        <ele>3.4</ele>
        <time>2024-05-26T09:06:54Z</time>
      </trkpt>
      <trkpt lat="49.13813" lon="-0.1649">
        <ele>3.4</ele>
        <time>2024-05-26T09:06:55Z</time>
      </trkpt>
      <trkpt lat="49.1382" lon="-0.16489">
        <ele>3.4</ele>
        <time>2024-05-26T09:06:56Z</time>
      </trkpt>
      <trkpt lat="49.13831" lon="-0.16488">
        <ele>3.2</ele>
        <time>2024-05-26T09:06:57Z</time>
      </trkpt>
      <trkpt lat="49.13838" lon="-0.16486">
        <ele>3.2</ele>
        <time>2024-05-26T09:06:58Z</time>
      </trkpt>
      <trkpt lat="49.13847" lon="-0.16484">
        <ele>3</ele>
        <time>2024-05-26T09:06:59Z</time>
      </trkpt>
      <trkpt lat="49.13856" lon="-0.16482">
        <ele>3</ele>
        <time>2024-05-26T09:07:00Z</time>
      </trkpt>
      <trkpt lat="49.13865" lon="-0.1648">
        <ele>3</ele>
        <time>2024-05-26T09:07:01Z</time>
      </trkpt>
      <trkpt lat="49.13874" lon="-0.16476">
        <ele>3</ele>
        <time>2024-05-26T09:07:02Z</time>
      </trkpt>
      <trkpt lat="49.13884" lon="-0.16472">
        <ele>3</ele>
        <time>2024-05-26T09:07:03Z</time>
      </trkpt>
      <trkpt lat="49.13893" lon="-0.16468">
        <ele>3</ele>
        <time>2024-05-26T09:07:04Z</time>
      </trkpt>
      <trkpt lat="49.13899" lon="-0.16464">
        <ele>3</ele>
        <time>2024-05-26T09:07:05Z</time>
      </trkpt>
      <trkpt lat="49.13908" lon="-0.1646">
        <ele>3</ele>
        <time>2024-05-26T09:07:06Z</time>
      </trkpt>
      <trkpt lat="49.13918" lon="-0.16454">
        <ele>3.2</ele>
        <time>2024-05-26T09:07:07Z</time>
      </trkpt>
      <trkpt lat="49.13924" lon="-0.16451">
        <ele>3.2</ele>
        <time>2024-05-26T09:07:08Z</time>
      </trkpt>
      <trkpt lat="49.13932" lon="-0.16446">
        <ele>3.2</ele>
        <time>2024-05-26T09:07:09Z</time>
      </trkpt>
      <trkpt lat="49.1394" lon="-0.16442">
        <ele>3.2</ele>
        <time>2024-05-26T09:07:10Z</time>
      </trkpt>
      <trkpt lat="49.13948" lon="-0.16437">
        <ele>3.2</ele>
        <time>2024-05-26T09:07:11Z</time>
      </trkpt>
      <trkpt lat="49.13956" lon="-0.16433">
        <ele>3.2</ele>
        <time>2024-05-26T09:07:12Z</time>
      </trkpt>
      <trkpt lat="49.13966" lon="-0.16428">
        <ele>3.2</ele>
        <time>2024-05-26T09:07:13Z</time>
      </trkpt>
      <trkpt lat="49.13972" lon="-0.16425">
        <ele>3.2</ele>
        <time>2024-05-26T09:07:14Z</time>
      </trkpt>
      <trkpt lat="49.1398" lon="-0.16422">
        <ele>3.2</ele>
        <time>2024-05-26T09:07:15Z</time>
      </trkpt>
      <trkpt lat="49.1399" lon="-0.16419">
        <ele>3.4</ele>
        <time>2024-05-26T09:07:16Z</time>
      </trkpt>
      <trkpt lat="49.13996" lon="-0.16418">
        <ele>3.4</ele>
        <time>2024-05-26T09:07:17Z</time>
      </trkpt>
      <trkpt lat="49.14004" lon="-0.16416">
        <ele>3.4</ele>
        <time>2024-05-26T09:07:18Z</time>
      </trkpt>
      <trkpt lat="49.14014" lon="-0.16414">
        <ele>3.4</ele>
        <time>2024-05-26T09:07:19Z</time>
      </trkpt>
      <trkpt lat="49.14022" lon="-0.16412">
        <ele>3.6</ele>
        <time>2024-05-26T09:07:20Z</time>
      </trkpt>
      <trkpt lat="49.14029" lon="-0.1641">
        <ele>3.6</ele>
        <time>2024-05-26T09:07:21Z</time>
      </trkpt>
      <trkpt lat="49.14038" lon="-0.16408">
        <ele>3.8</ele>
        <time>2024-05-26T09:07:22Z</time>
      </trkpt>
      <trkpt lat="49.14045" lon="-0.16406">
        <ele>4</ele>
        <time>2024-05-26T09:07:23Z</time>
      </trkpt>
      <trkpt lat="49.14053" lon="-0.16404">
        <ele>4</ele>
        <time>2024-05-26T09:07:24Z</time>
      </trkpt>
      <trkpt lat="49.14061" lon="-0.16401">
        <ele>4.2</ele>
        <time>2024-05-26T09:07:25Z</time>
      </trkpt>
      <trkpt lat="49.14069" lon="-0.16398">
        <ele>4.4</ele>
        <time>2024-05-26T09:07:26Z</time>
      </trkpt>
      <trkpt lat="49.14077" lon="-0.16395">
        <ele>4.8</ele>
        <time>2024-05-26T09:07:27Z</time>
      </trkpt>
      <trkpt lat="49.14087" lon="-0.16391">
        <ele>5.2</ele>
        <time>2024-05-26T09:07:28Z</time>
      </trkpt>
      <trkpt lat="49.14094" lon="-0.16389">
        <ele>5.4</ele>
        <time>2024-05-26T09:07:29Z</time>
      </trkpt>
      <trkpt lat="49.14102" lon="-0.16385">
        <ele>5.6</ele>
        <time>2024-05-26T09:07:30Z</time>
      </trkpt>
      <trkpt lat="49.14111" lon="-0.16382">
        <ele>5.6</ele>
        <time>2024-05-26T09:07:31Z</time>
      </trkpt>
      <trkpt lat="49.14121" lon="-0.16379">
        <ele>5.6</ele>
        <time>2024-05-26T09:07:32Z</time>
      </trkpt>
      <trkpt lat="49.14131" lon="-0.16376">
        <ele>5.8</ele>
        <time>2024-05-26T09:07:33Z</time>
      </trkpt>
      <trkpt lat="49.14141" lon="-0.16373">
        <ele>5.8</ele>
        <time>2024-05-26T09:07:34Z</time>
      </trkpt>
      <trkpt lat="49.14151" lon="-0.16371">
        <ele>5.8</ele>
        <time>2024-05-26T09:07:35Z</time>
      </trkpt>
      <trkpt lat="49.14163" lon="-0.1637">
        <ele>5.8</ele>
        <time>2024-05-26T09:07:36Z</time>
      </trkpt>
      <trkpt lat="49.14173" lon="-0.1637">
        <ele>5.8</ele>
        <time>2024-05-26T09:07:37Z</time>
      </trkpt>
      <trkpt lat="49.14184" lon="-0.16369">
        <ele>5.8</ele>
        <time>2024-05-26T09:07:38Z</time>
      </trkpt>
      <trkpt lat="49.14193" lon="-0.16369">
        <ele>5.6</ele>
        <time>2024-05-26T09:07:39Z</time>
      </trkpt>
      <trkpt lat="49.14204" lon="-0.16368">
        <ele>5.4</ele>
        <time>2024-05-26T09:07:40Z</time>
      </trkpt>
      <trkpt lat="49.14214" lon="-0.16368">
        <ele>5.4</ele>
        <time>2024-05-26T09:07:41Z</time>
      </trkpt>
      <trkpt lat="49.14224" lon="-0.16369">
        <ele>4.6</ele>
        <time>2024-05-26T09:07:42Z</time>
      </trkpt>
      <trkpt lat="49.14234" lon="-0.16369">
        <ele>3.8</ele>
        <time>2024-05-26T09:07:43Z</time>
      </trkpt>
      <trkpt lat="49.14246" lon="-0.16367">
        <ele>3.2</ele>
        <time>2024-05-26T09:07:44Z</time>
      </trkpt>
      <trkpt lat="49.14254" lon="-0.16365">
        <ele>2.6</ele>
        <time>2024-05-26T09:07:45Z</time>
      </trkpt>
      <trkpt lat="49.14263" lon="-0.16362">
        <ele>1.8</ele>
        <time>2024-05-26T09:07:46Z</time>
      </trkpt>
      <trkpt lat="49.14273" lon="-0.1636">
        <ele>1</ele>
        <time>2024-05-26T09:07:47Z</time>
      </trkpt>
      <trkpt lat="49.14284" lon="-0.16358">
        <ele>0.4</ele>
        <time>2024-05-26T09:07:48Z</time>
      </trkpt>
      <trkpt lat="49.14292" lon="-0.16358">
        <ele>-0.4</ele>
        <time>2024-05-26T09:07:49Z</time>
      </trkpt>
      <trkpt lat="49.14303" lon="-0.16358">
        <ele>-1</ele>
        <time>2024-05-26T09:07:50Z</time>
      </trkpt>
      <trkpt lat="49.14313" lon="-0.16358">
        <ele>-1.2</ele>
        <time>2024-05-26T09:07:51Z</time>
      </trkpt>
      <trkpt lat="49.1432" lon="-0.16359">
        <ele>-1.4</ele>
        <time>2024-05-26T09:07:52Z</time>
      </trkpt>
      <trkpt lat="49.1433" lon="-0.1636">
        <ele>-1.4</ele>
        <time>2024-05-26T09:07:53Z</time>
      </trkpt>
      <trkpt lat="49.14341" lon="-0.16363">
        <ele>-1.4</ele>
        <time>2024-05-26T09:07:54Z</time>
      </trkpt>
      <trkpt lat="49.14347" lon="-0.16365">
        <ele>-1.6</ele>
        <time>2024-05-26T09:07:55Z</time>
      </trkpt>
      <trkpt lat="49.14356" lon="-0.16368">
        <ele>-1.8</ele>
        <time>2024-05-26T09:07:56Z</time>
      </trkpt>
      <trkpt lat="49.14366" lon="-0.16372">
        <ele>-1.8</ele>
        <time>2024-05-26T09:07:57Z</time>
      </trkpt>
      <trkpt lat="49.14373" lon="-0.16374">
        <ele>-1.8</ele>
        <time>2024-05-26T09:07:58Z</time>
      </trkpt>
      <trkpt lat="49.14384" lon="-0.16378">
        <ele>-1.8</ele>
        <time>2024-05-26T09:07:59Z</time>
      </trkpt>
      <trkpt lat="49.14392" lon="-0.1638">
        <ele>-1.8</ele>
        <time>2024-05-26T09:08:00Z</time>
      </trkpt>
      <trkpt lat="49.14399" lon="-0.16381">
        <ele>-1.8</ele>
        <time>2024-05-26T09:08:01Z</time>
      </trkpt>
      <trkpt lat="49.14408" lon="-0.16383">
        <ele>-1.8</ele>
        <time>2024-05-26T09:08:02Z</time>
      </trkpt>
      <trkpt lat="49.14419" lon="-0.16383">
        <ele>-1.8</ele>
        <time>2024-05-26T09:08:03Z</time>
      </trkpt>
      <trkpt lat="49.14426" lon="-0.16384">
        <ele>-1.8</ele>
        <time>2024-05-26T09:08:04Z</time>
      </trkpt>
      <trkpt lat="49.14435" lon="-0.16384">
        <ele>-1.8</ele>
        <time>2024-05-26T09:08:05Z</time>
      </trkpt>
      <trkpt lat="49.14444" lon="-0.16383">
        <ele>-1.8</ele>
        <time>2024-05-26T09:08:06Z</time>
      </trkpt>
      <trkpt lat="49.14453" lon="-0.16381">
        <ele>-1.8</ele>
        <time>2024-05-26T09:08:07Z</time>
      </trkpt>
      <trkpt lat="49.14463" lon="-0.16379">
        <ele>-1.8</ele>
        <time>2024-05-26T09:08:08Z</time>
      </trkpt>
      <trkpt lat="49.14472" lon="-0.16376">
        <ele>-1.8</ele>
        <time>2024-05-26T09:08:09Z</time>
      </trkpt>
      <trkpt lat="49.1448" lon="-0.16373">
        <ele>-1.8</ele>
        <time>2024-05-26T09:08:10Z</time>
      </trkpt>
      <trkpt lat="49.14489" lon="-0.1637">
        <ele>-1.8</ele>
        <time>2024-05-26T09:08:11Z</time>
      </trkpt>
      <trkpt lat="49.14497" lon="-0.16366">
        <ele>-1.8</ele>
        <time>2024-05-26T09:08:12Z</time>
      </trkpt>
      <trkpt lat="49.14504" lon="-0.16364">
        <ele>-1.8</ele>
        <time>2024-05-26T09:08:13Z</time>
      </trkpt>
      <trkpt lat="49.14512" lon="-0.1636">
        <ele>-1.8</ele>
        <time>2024-05-26T09:08:14Z</time>
      </trkpt>
      <trkpt lat="49.14523" lon="-0.16356">
        <ele>-1.8</ele>
        <time>2024-05-26T09:08:15Z</time>
      </trkpt>
      <trkpt lat="49.14529" lon="-0.16353">
        <ele>-1.8</ele>
        <time>2024-05-26T09:08:16Z</time>
      </trkpt>
      <trkpt lat="49.14539" lon="-0.16349">
        <ele>-1.6</ele>
        <time>2024-05-26T09:08:17Z</time>
      </trkpt>
      <trkpt lat="49.14546" lon="-0.16348">
        <ele>-1.6</ele>
        <time>2024-05-26T09:08:18Z</time>
      </trkpt>
      <trkpt lat="49.14554" lon="-0.16349">
        <ele>-1.6</ele>
        <time>2024-05-26T09:08:19Z</time>
      </trkpt>
      <trkpt lat="49.14562" lon="-0.16352">
        <ele>-1.6</ele>
        <time>2024-05-26T09:08:20Z</time>
      </trkpt>
      <trkpt lat="49.14572" lon="-0.16356">
        <ele>-1.6</ele>
        <time>2024-05-26T09:08:21Z</time>
      </trkpt>
      <trkpt lat="49.14581" lon="-0.1636">
        <ele>-1.6</ele>
        <time>2024-05-26T09:08:22Z</time>
      </trkpt>
      <trkpt lat="49.14588" lon="-0.16364">
        <ele>-1.6</ele>
        <time>2024-05-26T09:08:23Z</time>
      </trkpt>
      <trkpt lat="49.14598" lon="-0.1637">
        <ele>-1.6</ele>
        <time>2024-05-26T09:08:24Z</time>
      </trkpt>
      <trkpt lat="49.14607" lon="-0.16374">
        <ele>-1.6</ele>
        <time>2024-05-26T09:08:25Z</time>
      </trkpt>
      <trkpt lat="49.14616" lon="-0.16378">
        <ele>-1.6</ele>
        <time>2024-05-26T09:08:26Z</time>
      </trkpt>
      <trkpt lat="49.14623" lon="-0.16381">
        <ele>-1.6</ele>
        <time>2024-05-26T09:08:27Z</time>
      </trkpt>
      <trkpt lat="49.14634" lon="-0.16384">
        <ele>-1.6</ele>
        <time>2024-05-26T09:08:28Z</time>
      </trkpt>
      <trkpt lat="49.14642" lon="-0.16386">
        <ele>-1.6</ele>
        <time>2024-05-26T09:08:29Z</time>
      </trkpt>
      <trkpt lat="49.14652" lon="-0.16388">
        <ele>-1.6</ele>
        <time>2024-05-26T09:08:30Z</time>
      </trkpt>
      <trkpt lat="49.14662" lon="-0.1639">
        <ele>-1.6</ele>
        <time>2024-05-26T09:08:31Z</time>
      </trkpt>
      <trkpt lat="49.14674" lon="-0.16392">
        <ele>-1.6</ele>
        <time>2024-05-26T09:08:32Z</time>
      </trkpt>
      <trkpt lat="49.14683" lon="-0.16395">
        <ele>-1.8</ele>
        <time>2024-05-26T09:08:33Z</time>
      </trkpt>
      <trkpt lat="49.14691" lon="-0.16396">
        <ele>-1.8</ele>
        <time>2024-05-26T09:08:34Z</time>
      </trkpt>
      <trkpt lat="49.14701" lon="-0.16398">
        <ele>-2</ele>
        <time>2024-05-26T09:08:35Z</time>
      </trkpt>
      <trkpt lat="49.14712" lon="-0.164">
        <ele>-2</ele>
        <time>2024-05-26T09:08:36Z</time>
      </trkpt>
      <trkpt lat="49.14722" lon="-0.16401">
        <ele>-2.2</ele>
        <time>2024-05-26T09:08:37Z</time>
      </trkpt>
      <trkpt lat="49.14731" lon="-0.16402">
        <ele>-2.2</ele>
        <time>2024-05-26T09:08:38Z</time>
      </trkpt>
      <trkpt lat="49.1474" lon="-0.16404">
        <ele>-2.4</ele>
        <time>2024-05-26T09:08:39Z</time>
      </trkpt>
      <trkpt lat="49.1475" lon="-0.16406">
        <ele>-2.4</ele>
        <time>2024-05-26T09:08:40Z</time>
      </trkpt>
      <trkpt lat="49.14759" lon="-0.16407">
        <ele>-2.6</ele>
        <time>2024-05-26T09:08:41Z</time>
      </trkpt>
      <trkpt lat="49.14766" lon="-0.16409">
        <ele>-2.8</ele>
        <time>2024-05-26T09:08:42Z</time>
      </trkpt>
      <trkpt lat="49.14775" lon="-0.16411">
        <ele>-3</ele>
        <time>2024-05-26T09:08:43Z</time>
      </trkpt>
      <trkpt lat="49.14784" lon="-0.16412">
        <ele>-3.2</ele>
        <time>2024-05-26T09:08:44Z</time>
      </trkpt>
      <trkpt lat="49.14794" lon="-0.16414">
        <ele>-3.4</ele>
        <time>2024-05-26T09:08:45Z</time>
      </trkpt>
      <trkpt lat="49.14804" lon="-0.16416">
        <ele>-3.6</ele>
        <time>2024-05-26T09:08:46Z</time>
      </trkpt>
      <trkpt lat="49.14812" lon="-0.16418">
        <ele>-3.8</ele>
        <time>2024-05-26T09:08:47Z</time>
      </trkpt>
      <trkpt lat="49.1482" lon="-0.16419">
        <ele>-3.8</ele>
        <time>2024-05-26T09:08:48Z</time>
      </trkpt>
      <trkpt lat="49.14831" lon="-0.16421">
        <ele>-3.8</ele>
        <time>2024-05-26T09:08:49Z</time>
      </trkpt>
      <trkpt lat="49.14838" lon="-0.16422">
        <ele>-4</ele>
        <time>2024-05-26T09:08:50Z</time>
      </trkpt>
      <trkpt lat="49.14847" lon="-0.16424">
        <ele>-4.2</ele>
        <time>2024-05-26T09:08:51Z</time>
      </trkpt>
      <trkpt lat="49.14857" lon="-0.16426">
        <ele>-4.4</ele>
        <time>2024-05-26T09:08:52Z</time>
      </trkpt>
      <trkpt lat="49.14864" lon="-0.16427">
        <ele>-4.4</ele>
        <time>2024-05-26T09:08:53Z</time>
      </trkpt>
      <trkpt lat="49.14875" lon="-0.16429">
        <ele>-4.6</ele>
        <time>2024-05-26T09:08:54Z</time>
      </trkpt>
      <trkpt lat="49.14884" lon="-0.16431">
        <ele>-4.8</ele>
        <time>2024-05-26T09:08:55Z</time>
      </trkpt>
      <trkpt lat="49.1489" lon="-0.16432">
        <ele>-5</ele>
        <time>2024-05-26T09:08:56Z</time>
      </trkpt>
      <trkpt lat="49.14899" lon="-0.16434">
        <ele>-5</ele>
        <time>2024-05-26T09:08:57Z</time>
      </trkpt>
      <trkpt lat="49.14907" lon="-0.16435">
        <ele>-5.2</ele>
        <time>2024-05-26T09:08:58Z</time>
      </trkpt>
      <trkpt lat="49.14915" lon="-0.16437">
        <ele>-5.2</ele>
        <time>2024-05-26T09:08:59Z</time>
      </trkpt>
      <trkpt lat="49.14923" lon="-0.16438">
        <ele>-5.2</ele>
        <time>2024-05-26T09:09:00Z</time>
      </trkpt>
      <trkpt lat="49.14933" lon="-0.1644">
        <ele>-5.4</ele>
        <time>2024-05-26T09:09:01Z</time>
      </trkpt>
      <trkpt lat="49.14939" lon="-0.16441">
        <ele>-5.6</ele>
        <time>2024-05-26T09:09:02Z</time>
      </trkpt>
      <trkpt lat="49.14947" lon="-0.16442">
        <ele>-5.6</ele>
        <time>2024-05-26T09:09:03Z</time>
      </trkpt>
      <trkpt lat="49.14956" lon="-0.16444">
        <ele>-5.6</ele>
        <time>2024-05-26T09:09:04Z</time>
      </trkpt>
      <trkpt lat="49.14963" lon="-0.16446">
        <ele>-5.8</ele>
        <time>2024-05-26T09:09:05Z</time>
      </trkpt>
      <trkpt lat="49.14973" lon="-0.16447">
        <ele>-5.8</ele>
        <time>2024-05-26T09:09:06Z</time>
      </trkpt>
      <trkpt lat="49.14979" lon="-0.16449">
        <ele>-5.8</ele>
        <time>2024-05-26T09:09:07Z</time>
      </trkpt>
      <trkpt lat="49.14988" lon="-0.1645">
        <ele>-5.8</ele>
        <time>2024-05-26T09:09:08Z</time>
      </trkpt>
      <trkpt lat="49.14996" lon="-0.16451">
        <ele>-5.8</ele>
        <time>2024-05-26T09:09:09Z</time>
      </trkpt>
      <trkpt lat="49.15006" lon="-0.16453">
        <ele>-5.8</ele>
        <time>2024-05-26T09:09:10Z</time>
      </trkpt>
      <trkpt lat="49.15013" lon="-0.16454">
        <ele>-5.8</ele>
        <time>2024-05-26T09:09:11Z</time>
      </trkpt>
      <trkpt lat="49.15024" lon="-0.16455">
        <ele>-5.8</ele>
        <time>2024-05-26T09:09:12Z</time>
      </trkpt>
      <trkpt lat="49.15033" lon="-0.16457">
        <ele>-5.8</ele>
        <time>2024-05-26T09:09:13Z</time>
      </trkpt>
      <trkpt lat="49.1504" lon="-0.16458">
        <ele>-5.8</ele>
        <time>2024-05-26T09:09:14Z</time>
      </trkpt>
      <trkpt lat="49.15049" lon="-0.1646">
        <ele>-5.6</ele>
        <time>2024-05-26T09:09:15Z</time>
      </trkpt>
      <trkpt lat="49.1506" lon="-0.16462">
        <ele>-5.6</ele>
        <time>2024-05-26T09:09:16Z</time>
      </trkpt>
      <trkpt lat="49.15068" lon="-0.16463">
        <ele>-5.6</ele>
        <time>2024-05-26T09:09:17Z</time>
      </trkpt>
      <trkpt lat="49.15077" lon="-0.16464">
        <ele>-5.6</ele>
        <time>2024-05-26T09:09:18Z</time>
      </trkpt>
      <trkpt lat="49.15086" lon="-0.16466">
        <ele>-5.6</ele>
        <time>2024-05-26T09:09:19Z</time>
      </trkpt>
      <trkpt lat="49.15095" lon="-0.16467">
        <ele>-5.6</ele>
        <time>2024-05-26T09:09:20Z</time>
      </trkpt>
      <trkpt lat="49.15105" lon="-0.16469">
        <ele>-5.6</ele>
        <time>2024-05-26T09:09:21Z</time>
      </trkpt>
      <trkpt lat="49.15116" lon="-0.16471">
        <ele>-5.6</ele>
        <time>2024-05-26T09:09:22Z</time>
      </trkpt>
      <trkpt lat="49.15123" lon="-0.16473">
        <ele>-5.6</ele>
        <time>2024-05-26T09:09:23Z</time>
      </trkpt>
      <trkpt lat="49.15132" lon="-0.16475">
        <ele>-5.6</ele>
        <time>2024-05-26T09:09:24Z</time>
      </trkpt>
      <trkpt lat="49.15142" lon="-0.16477">
        <ele>-5.6</ele>
        <time>2024-05-26T09:09:25Z</time>
      </trkpt>
      <trkpt lat="49.15153" lon="-0.16478">
        <ele>-5.8</ele>
        <time>2024-05-26T09:09:26Z</time>
      </trkpt>
      <trkpt lat="49.1516" lon="-0.1648">
        <ele>-6</ele>
        <time>2024-05-26T09:09:27Z</time>
      </trkpt>
      <trkpt lat="49.15168" lon="-0.16481">
        <ele>-6</ele>
        <time>2024-05-26T09:09:28Z</time>
      </trkpt>
      <trkpt lat="49.15178" lon="-0.16483">
        <ele>-6.2</ele>
        <time>2024-05-26T09:09:29Z</time>
      </trkpt>
      <trkpt lat="49.15185" lon="-0.16484">
        <ele>-6.4</ele>
        <time>2024-05-26T09:09:30Z</time>
      </trkpt>
      <trkpt lat="49.15191" lon="-0.16485">
        <ele>-6.4</ele>
        <time>2024-05-26T09:09:31Z</time>
      </trkpt>
      <trkpt lat="49.15198" lon="-0.16486">
        <ele>-6.4</ele>
        <time>2024-05-26T09:09:32Z</time>
      </trkpt>
      <trkpt lat="49.15206" lon="-0.16486">
        <ele>-6.6</ele>
        <time>2024-05-26T09:09:33Z</time>
      </trkpt>
      <trkpt lat="49.15211" lon="-0.16487">
        <ele>-6.6</ele>
        <time>2024-05-26T09:09:34Z</time>
      </trkpt>
      <trkpt lat="49.15217" lon="-0.16485">
        <ele>-6.6</ele>
        <time>2024-05-26T09:09:35Z</time>
      </trkpt>
      <trkpt lat="49.15222" lon="-0.16481">
        <ele>-6.6</ele>
        <time>2024-05-26T09:09:36Z</time>
      </trkpt>
      <trkpt lat="49.15224" lon="-0.16475">
        <ele>-6.4</ele>
        <time>2024-05-26T09:09:37Z</time>
      </trkpt>
      <trkpt lat="49.15226" lon="-0.16464">
        <ele>-6.2</ele>
        <time>2024-05-26T09:09:38Z</time>
      </trkpt>
      <trkpt lat="49.15227" lon="-0.16456">
        <ele>-6</ele>
        <time>2024-05-26T09:09:39Z</time>
      </trkpt>
      <trkpt lat="49.15228" lon="-0.16446">
        <ele>-5.8</ele>
        <time>2024-05-26T09:09:40Z</time>
      </trkpt>
      <trkpt lat="49.15228" lon="-0.16436">
        <ele>-5.8</ele>
        <time>2024-05-26T09:09:41Z</time>
      </trkpt>
      <trkpt lat="49.15229" lon="-0.16425">
        <ele>-5.6</ele>
        <time>2024-05-26T09:09:42Z</time>
      </trkpt>
      <trkpt lat="49.15229" lon="-0.16414">
        <ele>-5.6</ele>
        <time>2024-05-26T09:09:43Z</time>
      </trkpt>
      <trkpt lat="49.1523" lon="-0.16403">
        <ele>-5.4</ele>
        <time>2024-05-26T09:09:44Z</time>
      </trkpt>
      <trkpt lat="49.1523" lon="-0.16392">
        <ele>-5.4</ele>
        <time>2024-05-26T09:09:45Z</time>
      </trkpt>
      <trkpt lat="49.15231" lon="-0.16381">
        <ele>-5.2</ele>
        <time>2024-05-26T09:09:46Z</time>
      </trkpt>
      <trkpt lat="49.15232" lon="-0.1637">
        <ele>-5.2</ele>
        <time>2024-05-26T09:09:47Z</time>
      </trkpt>
      <trkpt lat="49.15233" lon="-0.16359">
        <ele>-5.2</ele>
        <time>2024-05-26T09:09:48Z</time>
      </trkpt>
      <trkpt lat="49.15234" lon="-0.16348">
        <ele>-5.2</ele>
        <time>2024-05-26T09:09:49Z</time>
      </trkpt>
      <trkpt lat="49.15235" lon="-0.16337">
        <ele>-5.2</ele>
        <time>2024-05-26T09:09:50Z</time>
      </trkpt>
      <trkpt lat="49.15236" lon="-0.16326">
        <ele>-5.2</ele>
        <time>2024-05-26T09:09:51Z</time>
      </trkpt>
      <trkpt lat="49.15238" lon="-0.16315">
        <ele>-5.2</ele>
        <time>2024-05-26T09:09:52Z</time>
      </trkpt>
      <trkpt lat="49.1524" lon="-0.16304">
        <ele>-5.2</ele>
        <time>2024-05-26T09:09:53Z</time>
      </trkpt>
      <trkpt lat="49.15243" lon="-0.16294">
        <ele>-5.2</ele>
        <time>2024-05-26T09:09:54Z</time>
      </trkpt>
      <trkpt lat="49.15245" lon="-0.16283">
        <ele>-5.2</ele>
        <time>2024-05-26T09:09:55Z</time>
      </trkpt>
      <trkpt lat="49.15249" lon="-0.16273">
        <ele>-5.2</ele>
        <time>2024-05-26T09:09:56Z</time>
      </trkpt>
      <trkpt lat="49.15253" lon="-0.16263">
        <ele>-5.2</ele>
        <time>2024-05-26T09:09:57Z</time>
      </trkpt>
      <trkpt lat="49.15257" lon="-0.16254">
        <ele>-5.2</ele>
        <time>2024-05-26T09:09:58Z</time>
      </trkpt>
      <trkpt lat="49.15262" lon="-0.16245">
        <ele>-5.2</ele>
        <time>2024-05-26T09:09:59Z</time>
      </trkpt>
      <trkpt lat="49.15266" lon="-0.16236">
        <ele>-5.2</ele>
        <time>2024-05-26T09:10:00Z</time>
      </trkpt>
      <trkpt lat="49.15271" lon="-0.16227">
        <ele>-5.2</ele>
        <time>2024-05-26T09:10:01Z</time>
      </trkpt>
      <trkpt lat="49.15275" lon="-0.16218">
        <ele>-5.2</ele>
        <time>2024-05-26T09:10:02Z</time>
      </trkpt>
      <trkpt lat="49.15279" lon="-0.16208">
        <ele>-5.2</ele>
        <time>2024-05-26T09:10:03Z</time>
      </trkpt>
      <trkpt lat="49.15283" lon="-0.16198">
        <ele>-5.2</ele>
        <time>2024-05-26T09:10:04Z</time>
      </trkpt>
      <trkpt lat="49.15286" lon="-0.16188">
        <ele>-5.2</ele>
        <time>2024-05-26T09:10:05Z</time>
      </trkpt>
      <trkpt lat="49.15288" lon="-0.16177">
        <ele>-5.2</ele>
        <time>2024-05-26T09:10:06Z</time>
      </trkpt>
      <trkpt lat="49.1529" lon="-0.16166">
        <ele>-5.2</ele>
        <time>2024-05-26T09:10:07Z</time>
      </trkpt>
      <trkpt lat="49.15292" lon="-0.16152">
        <ele>-5.4</ele>
        <time>2024-05-26T09:10:08Z</time>
      </trkpt>
      <trkpt lat="49.15294" lon="-0.16143">
        <ele>-5.4</ele>
        <time>2024-05-26T09:10:09Z</time>
      </trkpt>
      <trkpt lat="49.15296" lon="-0.16132">
        <ele>-5.4</ele>
        <time>2024-05-26T09:10:10Z</time>
      </trkpt>
      <trkpt lat="49.15299" lon="-0.16119">
        <ele>-5.6</ele>
        <time>2024-05-26T09:10:11Z</time>
      </trkpt>
      <trkpt lat="49.15302" lon="-0.1611">
        <ele>-5.6</ele>
        <time>2024-05-26T09:10:12Z</time>
      </trkpt>
      <trkpt lat="49.15306" lon="-0.16099">
        <ele>-5.6</ele>
        <time>2024-05-26T09:10:13Z</time>
      </trkpt>
      <trkpt lat="49.15311" lon="-0.16086">
        <ele>-5.6</ele>
        <time>2024-05-26T09:10:14Z</time>
      </trkpt>
      <trkpt lat="49.15314" lon="-0.16078">
        <ele>-5.8</ele>
        <time>2024-05-26T09:10:15Z</time>
      </trkpt>
      <trkpt lat="49.15318" lon="-0.16068">
        <ele>-5.8</ele>
        <time>2024-05-26T09:10:16Z</time>
      </trkpt>
      <trkpt lat="49.15323" lon="-0.16055">
        <ele>-5.8</ele>
        <time>2024-05-26T09:10:17Z</time>
      </trkpt>
      <trkpt lat="49.15326" lon="-0.16047">
        <ele>-5.8</ele>
        <time>2024-05-26T09:10:18Z</time>
      </trkpt>
      <trkpt lat="49.1533" lon="-0.16036">
        <ele>-5.8</ele>
        <time>2024-05-26T09:10:19Z</time>
      </trkpt>
      <trkpt lat="49.15335" lon="-0.16023">
        <ele>-5.8</ele>
        <time>2024-05-26T09:10:20Z</time>
      </trkpt>
      <trkpt lat="49.15339" lon="-0.16015">
        <ele>-5.8</ele>
        <time>2024-05-26T09:10:21Z</time>
      </trkpt>
      <trkpt lat="49.15343" lon="-0.16004">
        <ele>-6</ele>
        <time>2024-05-26T09:10:22Z</time>
      </trkpt>
      <trkpt lat="49.15347" lon="-0.15993">
        <ele>-6</ele>
        <time>2024-05-26T09:10:23Z</time>
      </trkpt>
      <trkpt lat="49.15352" lon="-0.15983">
        <ele>-6</ele>
        <time>2024-05-26T09:10:24Z</time>
      </trkpt>
      <trkpt lat="49.15356" lon="-0.15972">
        <ele>-6</ele>
        <time>2024-05-26T09:10:25Z</time>
      </trkpt>
      <trkpt lat="49.15361" lon="-0.15959">
        <ele>-6</ele>
        <time>2024-05-26T09:10:26Z</time>
      </trkpt>
      <trkpt lat="49.15365" lon="-0.15951">
        <ele>-6</ele>
        <time>2024-05-26T09:10:27Z</time>
      </trkpt>
      <trkpt lat="49.15369" lon="-0.1594">
        <ele>-6</ele>
        <time>2024-05-26T09:10:28Z</time>
      </trkpt>
      <trkpt lat="49.15374" lon="-0.15927">
        <ele>-6</ele>
        <time>2024-05-26T09:10:29Z</time>
      </trkpt>
      <trkpt lat="49.15379" lon="-0.15917">
        <ele>-6.2</ele>
        <time>2024-05-26T09:10:30Z</time>
      </trkpt>
      <trkpt lat="49.15382" lon="-0.15909">
        <ele>-6.2</ele>
        <time>2024-05-26T09:10:31Z</time>
      </trkpt>
      <trkpt lat="49.15387" lon="-0.15899">
        <ele>-6.2</ele>
        <time>2024-05-26T09:10:32Z</time>
      </trkpt>
      <trkpt lat="49.15391" lon="-0.15889">
        <ele>-6.2</ele>
        <time>2024-05-26T09:10:33Z</time>
      </trkpt>
      <trkpt lat="49.15396" lon="-0.15879">
        <ele>-6.2</ele>
        <time>2024-05-26T09:10:34Z</time>
      </trkpt>
      <trkpt lat="49.15403" lon="-0.15868">
        <ele>-6.4</ele>
        <time>2024-05-26T09:10:35Z</time>
      </trkpt>
      <trkpt lat="49.15408" lon="-0.15859">
        <ele>-6.4</ele>
        <time>2024-05-26T09:10:36Z</time>
      </trkpt>
      <trkpt lat="49.15412" lon="-0.15852">
        <ele>-6.4</ele>
        <time>2024-05-26T09:10:37Z</time>
      </trkpt>
      <trkpt lat="49.15418" lon="-0.15841">
        <ele>-6.4</ele>
        <time>2024-05-26T09:10:38Z</time>
      </trkpt>
      <trkpt lat="49.15422" lon="-0.15834">
        <ele>-6.4</ele>
        <time>2024-05-26T09:10:39Z</time>
      </trkpt>
      <trkpt lat="49.15428" lon="-0.15826">
        <ele>-6.4</ele>
        <time>2024-05-26T09:10:40Z</time>
      </trkpt>
      <trkpt lat="49.15435" lon="-0.15815">
        <ele>-6.4</ele>
        <time>2024-05-26T09:10:41Z</time>
      </trkpt>
      <trkpt lat="49.1544" lon="-0.15809">
        <ele>-6.4</ele>
        <time>2024-05-26T09:10:42Z</time>
      </trkpt>
      <trkpt lat="49.15446" lon="-0.158">
        <ele>-6.4</ele>
        <time>2024-05-26T09:10:43Z</time>
      </trkpt>
      <trkpt lat="49.15453" lon="-0.15791">
        <ele>-6.4</ele>
        <time>2024-05-26T09:10:44Z</time>
      </trkpt>
      <trkpt lat="49.15458" lon="-0.15786">
        <ele>-6.4</ele>
        <time>2024-05-26T09:10:45Z</time>
      </trkpt>
      <trkpt lat="49.15465" lon="-0.15778">
        <ele>-6.4</ele>
        <time>2024-05-26T09:10:46Z</time>
      </trkpt>
      <trkpt lat="49.15471" lon="-0.15771">
        <ele>-6.4</ele>
        <time>2024-05-26T09:10:47Z</time>
      </trkpt>
      <trkpt lat="49.15478" lon="-0.15764">
        <ele>-6.4</ele>
        <time>2024-05-26T09:10:48Z</time>
      </trkpt>
      <trkpt lat="49.15485" lon="-0.15757">
        <ele>-6.4</ele>
        <time>2024-05-26T09:10:49Z</time>
      </trkpt>
      <trkpt lat="49.15491" lon="-0.1575">
        <ele>-6.4</ele>
        <time>2024-05-26T09:10:50Z</time>
      </trkpt>
      <trkpt lat="49.15498" lon="-0.15742">
        <ele>-6.2</ele>
        <time>2024-05-26T09:10:51Z</time>
      </trkpt>
      <trkpt lat="49.15504" lon="-0.15735">
        <ele>-6.2</ele>
        <time>2024-05-26T09:10:52Z</time>
      </trkpt>
      <trkpt lat="49.15511" lon="-0.15727">
        <ele>-6</ele>
        <time>2024-05-26T09:10:53Z</time>
      </trkpt>
      <trkpt lat="49.15517" lon="-0.1572">
        <ele>-6</ele>
        <time>2024-05-26T09:10:54Z</time>
      </trkpt>
      <trkpt lat="49.15523" lon="-0.15715">
        <ele>-6</ele>
        <time>2024-05-26T09:10:55Z</time>
      </trkpt>
      <trkpt lat="49.1553" lon="-0.15707">
        <ele>-6</ele>
        <time>2024-05-26T09:10:56Z</time>
      </trkpt>
      <trkpt lat="49.15535" lon="-0.15701">
        <ele>-5.8</ele>
        <time>2024-05-26T09:10:57Z</time>
      </trkpt>
      <trkpt lat="49.15541" lon="-0.15694">
        <ele>-5.8</ele>
        <time>2024-05-26T09:10:58Z</time>
      </trkpt>
      <trkpt lat="49.15547" lon="-0.15687">
        <ele>-5.8</ele>
        <time>2024-05-26T09:10:59Z</time>
      </trkpt>
      <trkpt lat="49.15553" lon="-0.15679">
        <ele>-5.8</ele>
        <time>2024-05-26T09:11:00Z</time>
      </trkpt>
      <trkpt lat="49.15559" lon="-0.15672">
        <ele>-5.8</ele>
        <time>2024-05-26T09:11:01Z</time>
      </trkpt>
      <trkpt lat="49.15565" lon="-0.15662">
        <ele>-6</ele>
        <time>2024-05-26T09:11:02Z</time>
      </trkpt>
      <trkpt lat="49.15569" lon="-0.15655">
        <ele>-6</ele>
        <time>2024-05-26T09:11:03Z</time>
      </trkpt>
      <trkpt lat="49.15575" lon="-0.15647">
        <ele>-6.2</ele>
        <time>2024-05-26T09:11:04Z</time>
      </trkpt>
      <trkpt lat="49.1558" lon="-0.15639">
        <ele>-6.2</ele>
        <time>2024-05-26T09:11:05Z</time>
      </trkpt>
      <trkpt lat="49.15586" lon="-0.15631">
        <ele>-6.2</ele>
        <time>2024-05-26T09:11:06Z</time>
      </trkpt>
      <trkpt lat="49.15592" lon="-0.15623">
        <ele>-6.2</ele>
        <time>2024-05-26T09:11:07Z</time>
      </trkpt>
      <trkpt lat="49.15598" lon="-0.15616">
        <ele>-6.2</ele>
        <time>2024-05-26T09:11:08Z</time>
      </trkpt>
      <trkpt lat="49.15604" lon="-0.15609">
        <ele>-6.2</ele>
        <time>2024-05-26T09:11:09Z</time>
      </trkpt>
      <trkpt lat="49.1561" lon="-0.15602">
        <ele>-6</ele>
        <time>2024-05-26T09:11:10Z</time>
      </trkpt>
      <trkpt lat="49.15616" lon="-0.15596">
        <ele>-6</ele>
        <time>2024-05-26T09:11:11Z</time>
      </trkpt>
      <trkpt lat="49.15622" lon="-0.15589">
        <ele>-5.8</ele>
        <time>2024-05-26T09:11:12Z</time>
      </trkpt>
      <trkpt lat="49.15628" lon="-0.15583">
        <ele>-5.8</ele>
        <time>2024-05-26T09:11:13Z</time>
      </trkpt>
      <trkpt lat="49.15635" lon="-0.15575">
        <ele>-5.8</ele>
        <time>2024-05-26T09:11:14Z</time>
      </trkpt>
      <trkpt lat="49.15639" lon="-0.15569">
        <ele>-6</ele>
        <time>2024-05-26T09:11:15Z</time>
      </trkpt>
      <trkpt lat="49.15645" lon="-0.15562">
        <ele>-6</ele>
        <time>2024-05-26T09:11:16Z</time>
      </trkpt>
      <trkpt lat="49.1565" lon="-0.15555">
        <ele>-6</ele>
        <time>2024-05-26T09:11:17Z</time>
      </trkpt>
      <trkpt lat="49.15654" lon="-0.15547">
        <ele>-6</ele>
        <time>2024-05-26T09:11:18Z</time>
      </trkpt>
      <trkpt lat="49.15659" lon="-0.1554">
        <ele>-5.8</ele>
        <time>2024-05-26T09:11:19Z</time>
      </trkpt>
      <trkpt lat="49.15662" lon="-0.15532">
        <ele>-5.8</ele>
        <time>2024-05-26T09:11:20Z</time>
      </trkpt>
      <trkpt lat="49.15666" lon="-0.15522">
        <ele>-5.8</ele>
        <time>2024-05-26T09:11:21Z</time>
      </trkpt>
      <trkpt lat="49.15669" lon="-0.15516">
        <ele>-5.6</ele>
        <time>2024-05-26T09:11:22Z</time>
      </trkpt>
      <trkpt lat="49.15672" lon="-0.15507">
        <ele>-5.6</ele>
        <time>2024-05-26T09:11:23Z</time>
      </trkpt>
      <trkpt lat="49.15674" lon="-0.15498">
        <ele>-5.6</ele>
        <time>2024-05-26T09:11:24Z</time>
      </trkpt>
      <trkpt lat="49.15676" lon="-0.15489">
        <ele>-5.6</ele>
        <time>2024-05-26T09:11:25Z</time>
      </trkpt>
      <trkpt lat="49.15679" lon="-0.1548">
        <ele>-5.6</ele>
        <time>2024-05-26T09:11:26Z</time>
      </trkpt>
      <trkpt lat="49.15681" lon="-0.15471">
        <ele>-5.6</ele>
        <time>2024-05-26T09:11:27Z</time>
      </trkpt>
      <trkpt lat="49.15683" lon="-0.15462">
        <ele>-5.6</ele>
        <time>2024-05-26T09:11:28Z</time>
      </trkpt>
      <trkpt lat="49.15685" lon="-0.15453">
        <ele>-5.6</ele>
        <time>2024-05-26T09:11:29Z</time>
      </trkpt>
      <trkpt lat="49.15689" lon="-0.15444">
        <ele>-5.6</ele>
        <time>2024-05-26T09:11:30Z</time>
      </trkpt>
      <trkpt lat="49.15691" lon="-0.15439">
        <ele>-5.6</ele>
        <time>2024-05-26T09:11:31Z</time>
      </trkpt>
      <trkpt lat="49.15694" lon="-0.15435">
        <ele>-5.6</ele>
        <time>2024-05-26T09:11:32Z</time>
      </trkpt>
      <trkpt lat="49.15697" lon="-0.1543">
        <ele>-5.6</ele>
        <time>2024-05-26T09:11:33Z</time>
      </trkpt>
      <trkpt lat="49.15699" lon="-0.15429">
        <ele>-5.6</ele>
        <time>2024-05-26T09:11:34Z</time>
      </trkpt>
      <trkpt lat="49.15702" lon="-0.15428">
        <ele>-5.4</ele>
        <time>2024-05-26T09:11:35Z</time>
      </trkpt>
      <trkpt lat="49.15705" lon="-0.15428">
        <ele>-5.4</ele>
        <time>2024-05-26T09:11:36Z</time>
      </trkpt>
      <trkpt lat="49.15708" lon="-0.1543">
        <ele>-5.4</ele>
        <time>2024-05-26T09:11:37Z</time>
      </trkpt>
      <trkpt lat="49.15711" lon="-0.15433">
        <ele>-5.4</ele>
        <time>2024-05-26T09:11:38Z</time>
      </trkpt>
      <trkpt lat="49.15714" lon="-0.15437">
        <ele>-5.4</ele>
        <time>2024-05-26T09:11:39Z</time>
      </trkpt>
      <trkpt lat="49.15716" lon="-0.15441">
        <ele>-5.2</ele>
        <time>2024-05-26T09:11:40Z</time>
      </trkpt>
      <trkpt lat="49.15719" lon="-0.15445">
        <ele>-5</ele>
        <time>2024-05-26T09:11:41Z</time>
      </trkpt>
      <trkpt lat="49.15722" lon="-0.15449">
        <ele>-5</ele>
        <time>2024-05-26T09:11:42Z</time>
      </trkpt>
      <trkpt lat="49.15725" lon="-0.15454">
        <ele>-4.8</ele>
        <time>2024-05-26T09:11:43Z</time>
      </trkpt>
      <trkpt lat="49.15728" lon="-0.15458">
        <ele>-4.8</ele>
        <time>2024-05-26T09:11:44Z</time>
      </trkpt>
      <trkpt lat="49.15731" lon="-0.15463">
        <ele>-4.8</ele>
        <time>2024-05-26T09:11:45Z</time>
      </trkpt>
      <trkpt lat="49.15734" lon="-0.15468">
        <ele>-4.6</ele>
        <time>2024-05-26T09:11:46Z</time>
      </trkpt>
      <trkpt lat="49.15737" lon="-0.15472">
        <ele>-4.6</ele>
        <time>2024-05-26T09:11:47Z</time>
      </trkpt>
      <trkpt lat="49.15741" lon="-0.15476">
        <ele>-4.6</ele>
        <time>2024-05-26T09:11:48Z</time>
      </trkpt>
      <trkpt lat="49.15744" lon="-0.15479">
        <ele>-4.6</ele>
        <time>2024-05-26T09:11:49Z</time>
      </trkpt>
      <trkpt lat="49.15747" lon="-0.15483">
        <ele>-4.4</ele>
        <time>2024-05-26T09:11:50Z</time>
      </trkpt>
      <trkpt lat="49.15749" lon="-0.15487">
        <ele>-4.2</ele>
        <time>2024-05-26T09:11:51Z</time>
      </trkpt>
      <trkpt lat="49.15752" lon="-0.15491">
        <ele>-4.2</ele>
        <time>2024-05-26T09:11:52Z</time>
      </trkpt>
      <trkpt lat="49.15754" lon="-0.15495">
        <ele>-4.2</ele>
        <time>2024-05-26T09:11:53Z</time>
      </trkpt>
      <trkpt lat="49.15757" lon="-0.15499">
        <ele>-4</ele>
        <time>2024-05-26T09:11:54Z</time>
      </trkpt>
      <trkpt lat="49.1576" lon="-0.15504">
        <ele>-3.8</ele>
        <time>2024-05-26T09:11:55Z</time>
      </trkpt>
      <trkpt lat="49.15763" lon="-0.15508">
        <ele>-3.6</ele>
        <time>2024-05-26T09:11:56Z</time>
      </trkpt>
      <trkpt lat="49.15765" lon="-0.15513">
        <ele>-3.4</ele>
        <time>2024-05-26T09:11:57Z</time>
      </trkpt>
      <trkpt lat="49.15768" lon="-0.15517">
        <ele>-3.2</ele>
        <time>2024-05-26T09:11:58Z</time>
      </trkpt>
      <trkpt lat="49.15771" lon="-0.15522">
        <ele>-3.2</ele>
        <time>2024-05-26T09:11:59Z</time>
      </trkpt>
      <trkpt lat="49.15774" lon="-0.15526">
        <ele>-3</ele>
        <time>2024-05-26T09:12:00Z</time>
      </trkpt>
      <trkpt lat="49.15776" lon="-0.15531">
        <ele>-2.6</ele>
        <time>2024-05-26T09:12:01Z</time>
      </trkpt>
      <trkpt lat="49.15779" lon="-0.15535">
        <ele>-2.4</ele>
        <time>2024-05-26T09:12:02Z</time>
      </trkpt>
      <trkpt lat="49.15781" lon="-0.15539">
        <ele>-2.4</ele>
        <time>2024-05-26T09:12:03Z</time>
      </trkpt>
      <trkpt lat="49.15783" lon="-0.15543">
        <ele>-2</ele>
        <time>2024-05-26T09:12:04Z</time>
      </trkpt>
      <trkpt lat="49.15784" lon="-0.15548">
        <ele>-1.6</ele>
        <time>2024-05-26T09:12:05Z</time>
      </trkpt>
      <trkpt lat="49.15786" lon="-0.15553">
        <ele>-1.4</ele>
        <time>2024-05-26T09:12:06Z</time>
      </trkpt>
      <trkpt lat="49.15787" lon="-0.15558">
        <ele>-1</ele>
        <time>2024-05-26T09:12:07Z</time>
      </trkpt>
      <trkpt lat="49.15788" lon="-0.15564">
        <ele>-0.8</ele>
        <time>2024-05-26T09:12:08Z</time>
      </trkpt>
      <trkpt lat="49.1579" lon="-0.15568">
        <ele>-0.6</ele>
        <time>2024-05-26T09:12:09Z</time>
      </trkpt>
      <trkpt lat="49.15793" lon="-0.15573">
        <ele>-0.6</ele>
        <time>2024-05-26T09:12:10Z</time>
      </trkpt>
      <trkpt lat="49.15796" lon="-0.15577">
        <ele>-0.2</ele>
        <time>2024-05-26T09:12:11Z</time>
      </trkpt>
      <trkpt lat="49.15798" lon="-0.15583">
        <ele>13.6</ele>
        <time>2024-05-26T09:12:12Z</time>
      </trkpt>
      <trkpt lat="49.158" lon="-0.15589">
        <ele>0.6</ele>
        <time>2024-05-26T09:12:13Z</time>
      </trkpt>
      <trkpt lat="49.15801" lon="-0.15594">
        <ele>0.8</ele>
        <time>2024-05-26T09:12:14Z</time>
      </trkpt>
      <trkpt lat="49.15802" lon="-0.156">
        <ele>0.8</ele>
        <time>2024-05-26T09:12:15Z</time>
      </trkpt>
      <trkpt lat="49.15804" lon="-0.15605">
        <ele>1</ele>
        <time>2024-05-26T09:12:16Z</time>
      </trkpt>
      <trkpt lat="49.15805" lon="-0.15611">
        <ele>1</ele>
        <time>2024-05-26T09:12:17Z</time>
      </trkpt>
      <trkpt lat="49.15806" lon="-0.15616">
        <ele>1.6</ele>
        <time>2024-05-26T09:12:18Z</time>
      </trkpt>
      <trkpt lat="49.15808" lon="-0.15621">
        <ele>2</ele>
        <time>2024-05-26T09:12:19Z</time>
      </trkpt>
      <trkpt lat="49.1581" lon="-0.15627">
        <ele>2.4</ele>
        <time>2024-05-26T09:12:20Z</time>
      </trkpt>
      <trkpt lat="49.15812" lon="-0.15632">
        <ele>2.6</ele>
        <time>2024-05-26T09:12:21Z</time>
      </trkpt>
      <trkpt lat="49.15813" lon="-0.15636">
        <ele>2.8</ele>
        <time>2024-05-26T09:12:22Z</time>
      </trkpt>
      <trkpt lat="49.15814" lon="-0.15642">
        <ele>3.2</ele>
        <time>2024-05-26T09:12:23Z</time>
      </trkpt>
      <trkpt lat="49.15816" lon="-0.15646">
        <ele>3.4</ele>
        <time>2024-05-26T09:12:24Z</time>
      </trkpt>
      <trkpt lat="49.15817" lon="-0.15651">
        <ele>3.6</ele>
        <time>2024-05-26T09:12:25Z</time>
      </trkpt>
      <trkpt lat="49.15819" lon="-0.15656">
        <ele>3.8</ele>
        <time>2024-05-26T09:12:26Z</time>
      </trkpt>
      <trkpt lat="49.1582" lon="-0.1566">
        <ele>4.2</ele>
        <time>2024-05-26T09:12:27Z</time>
      </trkpt>
      <trkpt lat="49.15821" lon="-0.15665">
        <ele>4.6</ele>
        <time>2024-05-26T09:12:28Z</time>
      </trkpt>
      <trkpt lat="49.15822" lon="-0.15669">
        <ele>4.8</ele>
        <time>2024-05-26T09:12:29Z</time>
      </trkpt>
      <trkpt lat="49.15824" lon="-0.15673">
        <ele>5.2</ele>
        <time>2024-05-26T09:12:30Z</time>
      </trkpt>
      <trkpt lat="49.15825" lon="-0.15678">
        <ele>5.6</ele>
        <time>2024-05-26T09:12:31Z</time>
      </trkpt>
      <trkpt lat="49.15827" lon="-0.15682">
        <ele>6</ele>
        <time>2024-05-26T09:12:32Z</time>
      </trkpt>
      <trkpt lat="49.15827" lon="-0.15687">
        <ele>6.2</ele>
        <time>2024-05-26T09:12:33Z</time>
      </trkpt>
      <trkpt lat="49.15828" lon="-0.15692">
        <ele>6.6</ele>
        <time>2024-05-26T09:12:34Z</time>
      </trkpt>
      <trkpt lat="49.15829" lon="-0.15695">
        <ele>6.8</ele>
        <time>2024-05-26T09:12:35Z</time>
      </trkpt>
      <trkpt lat="49.1583" lon="-0.157">
        <ele>7.2</ele>
        <time>2024-05-26T09:12:36Z</time>
      </trkpt>
      <trkpt lat="49.15831" lon="-0.15705">
        <ele>7.6</ele>
        <time>2024-05-26T09:12:37Z</time>
      </trkpt>
      <trkpt lat="49.15832" lon="-0.15708">
        <ele>8</ele>
        <time>2024-05-26T09:12:38Z</time>
      </trkpt>
      <trkpt lat="49.15833" lon="-0.15713">
        <ele>8</ele>
        <time>2024-05-26T09:12:39Z</time>
      </trkpt>
      <trkpt lat="49.15834" lon="-0.15717">
        <ele>8.2</ele>
        <time>2024-05-26T09:12:40Z</time>
      </trkpt>
      <trkpt lat="49.15835" lon="-0.15722">
        <ele>8.8</ele>
        <time>2024-05-26T09:12:41Z</time>
      </trkpt>
      <trkpt lat="49.15836" lon="-0.15726">
        <ele>9</ele>
        <time>2024-05-26T09:12:42Z</time>
      </trkpt>
      <trkpt lat="49.15837" lon="-0.15731">
        <ele>9.4</ele>
        <time>2024-05-26T09:12:43Z</time>
      </trkpt>
      <trkpt lat="49.15838" lon="-0.15735">
        <ele>9.6</ele>
        <time>2024-05-26T09:12:44Z</time>
      </trkpt>
      <trkpt lat="49.15839" lon="-0.15739">
        <ele>10</ele>
        <time>2024-05-26T09:12:45Z</time>
      </trkpt>
      <trkpt lat="49.1584" lon="-0.15745">
        <ele>10.4</ele>
        <time>2024-05-26T09:12:46Z</time>
      </trkpt>
      <trkpt lat="49.15841" lon="-0.15749">
        <ele>10.6</ele>
        <time>2024-05-26T09:12:47Z</time>
      </trkpt>
      <trkpt lat="49.15842" lon="-0.15754">
        <ele>10.6</ele>
        <time>2024-05-26T09:12:48Z</time>
      </trkpt>
      <trkpt lat="49.15844" lon="-0.15759">
        <ele>11</ele>
        <time>2024-05-26T09:12:49Z</time>
      </trkpt>
      <trkpt lat="49.15844" lon="-0.15764">
        <ele>11.6</ele>
        <time>2024-05-26T09:12:50Z</time>
      </trkpt>
      <trkpt lat="49.15845" lon="-0.15769">
        <ele>12</ele>
        <time>2024-05-26T09:12:51Z</time>
      </trkpt>
      <trkpt lat="49.15846" lon="-0.15773">
        <ele>12.4</ele>
        <time>2024-05-26T09:12:52Z</time>
      </trkpt>
      <trkpt lat="49.15847" lon="-0.15778">
        <ele>13</ele>
        <time>2024-05-26T09:12:53Z</time>
      </trkpt>
      <trkpt lat="49.15848" lon="-0.15783">
        <ele>13.4</ele>
        <time>2024-05-26T09:12:54Z</time>
      </trkpt>
      <trkpt lat="49.15849" lon="-0.15788">
        <ele>13.8</ele>
        <time>2024-05-26T09:12:55Z</time>
      </trkpt>
      <trkpt lat="49.15849" lon="-0.15794">
        <ele>14</ele>
        <time>2024-05-26T09:12:56Z</time>
      </trkpt>
      <trkpt lat="49.1585" lon="-0.15799">
        <ele>14.4</ele>
        <time>2024-05-26T09:12:57Z</time>
      </trkpt>
      <trkpt lat="49.1585" lon="-0.15806">
        <ele>14.6</ele>
        <time>2024-05-26T09:12:58Z</time>
      </trkpt>
      <trkpt lat="49.15851" lon="-0.15811">
        <ele>15</ele>
        <time>2024-05-26T09:12:59Z</time>
      </trkpt>
      <trkpt lat="49.15852" lon="-0.15817">
        <ele>15.4</ele>
        <time>2024-05-26T09:13:00Z</time>
      </trkpt>
      <trkpt lat="49.15853" lon="-0.15822">
        <ele>15.8</ele>
        <time>2024-05-26T09:13:01Z</time>
      </trkpt>
      <trkpt lat="49.15855" lon="-0.15828">
        <ele>15.8</ele>
        <time>2024-05-26T09:13:02Z</time>
      </trkpt>
      <trkpt lat="49.15856" lon="-0.15833">
        <ele>16</ele>
        <time>2024-05-26T09:13:03Z</time>
      </trkpt>
      <trkpt lat="49.15856" lon="-0.15839">
        <ele>16.2</ele>
        <time>2024-05-26T09:13:04Z</time>
      </trkpt>
      <trkpt lat="49.15857" lon="-0.15844">
        <ele>16.4</ele>
        <time>2024-05-26T09:13:05Z</time>
      </trkpt>
      <trkpt lat="49.15858" lon="-0.1585">
        <ele>16.6</ele>
        <time>2024-05-26T09:13:06Z</time>
      </trkpt>
      <trkpt lat="49.15859" lon="-0.15856">
        <ele>16.8</ele>
        <time>2024-05-26T09:13:07Z</time>
      </trkpt>
      <trkpt lat="49.1586" lon="-0.15862">
        <ele>17</ele>
        <time>2024-05-26T09:13:08Z</time>
      </trkpt>
      <trkpt lat="49.1586" lon="-0.15869">
        <ele>17.4</ele>
        <time>2024-05-26T09:13:09Z</time>
      </trkpt>
      <trkpt lat="49.15861" lon="-0.15875">
        <ele>17.6</ele>
        <time>2024-05-26T09:13:10Z</time>
      </trkpt>
      <trkpt lat="49.15862" lon="-0.15882">
        <ele>18</ele>
        <time>2024-05-26T09:13:11Z</time>
      </trkpt>
      <trkpt lat="49.15862" lon="-0.15888">
        <ele>18.2</ele>
        <time>2024-05-26T09:13:12Z</time>
      </trkpt>
      <trkpt lat="49.15863" lon="-0.15895">
        <ele>18.4</ele>
        <time>2024-05-26T09:13:13Z</time>
      </trkpt>
      <trkpt lat="49.15863" lon="-0.15902">
        <ele>18.4</ele>
        <time>2024-05-26T09:13:14Z</time>
      </trkpt>
      <trkpt lat="49.15864" lon="-0.15909">
        <ele>18.8</ele>
        <time>2024-05-26T09:13:15Z</time>
      </trkpt>
      <trkpt lat="49.15865" lon="-0.15916">
        <ele>19.2</ele>
        <time>2024-05-26T09:13:16Z</time>
      </trkpt>
      <trkpt lat="49.15865" lon="-0.15923">
        <ele>19.2</ele>
        <time>2024-05-26T09:13:17Z</time>
      </trkpt>
      <trkpt lat="49.15866" lon="-0.1593">
        <ele>19.8</ele>
        <time>2024-05-26T09:13:18Z</time>
      </trkpt>
      <trkpt lat="49.15867" lon="-0.15937">
        <ele>19.8</ele>
        <time>2024-05-26T09:13:19Z</time>
      </trkpt>
      <trkpt lat="49.15867" lon="-0.15945">
        <ele>20.2</ele>
        <time>2024-05-26T09:13:20Z</time>
      </trkpt>
      <trkpt lat="49.15868" lon="-0.15952">
        <ele>20.2</ele>
        <time>2024-05-26T09:13:21Z</time>
      </trkpt>
      <trkpt lat="49.15868" lon="-0.15959">
        <ele>20.2</ele>
        <time>2024-05-26T09:13:22Z</time>
      </trkpt>
      <trkpt lat="49.15869" lon="-0.15966">
        <ele>20.4</ele>
        <time>2024-05-26T09:13:23Z</time>
      </trkpt>
      <trkpt lat="49.15869" lon="-0.15974">
        <ele>20.8</ele>
        <time>2024-05-26T09:13:24Z</time>
      </trkpt>
      <trkpt lat="49.1587" lon="-0.15981">
        <ele>21</ele>
        <time>2024-05-26T09:13:25Z</time>
      </trkpt>
      <trkpt lat="49.15871" lon="-0.15989">
        <ele>21</ele>
        <time>2024-05-26T09:13:26Z</time>
      </trkpt>
      <trkpt lat="49.15872" lon="-0.15997">
        <ele>21</ele>
        <time>2024-05-26T09:13:27Z</time>
      </trkpt>
      <trkpt lat="49.15873" lon="-0.16005">
        <ele>21</ele>
        <time>2024-05-26T09:13:28Z</time>
      </trkpt>
      <trkpt lat="49.15873" lon="-0.16013">
        <ele>21.2</ele>
        <time>2024-05-26T09:13:29Z</time>
      </trkpt>
      <trkpt lat="49.15874" lon="-0.16021">
        <ele>21.4</ele>
        <time>2024-05-26T09:13:30Z</time>
      </trkpt>
      <trkpt lat="49.15874" lon="-0.16029">
        <ele>21.6</ele>
        <time>2024-05-26T09:13:31Z</time>
      </trkpt>
      <trkpt lat="49.15875" lon="-0.16037">
        <ele>21.8</ele>
        <time>2024-05-26T09:13:32Z</time>
      </trkpt>
      <trkpt lat="49.15876" lon="-0.16045">
        <ele>21.8</ele>
        <time>2024-05-26T09:13:33Z</time>
      </trkpt>
      <trkpt lat="49.15878" lon="-0.16053">
        <ele>22</ele>
        <time>2024-05-26T09:13:34Z</time>
      </trkpt>
      <trkpt lat="49.15878" lon="-0.16061">
        <ele>22.2</ele>
        <time>2024-05-26T09:13:35Z</time>
      </trkpt>
      <trkpt lat="49.15879" lon="-0.16069">
        <ele>22.4</ele>
        <time>2024-05-26T09:13:36Z</time>
      </trkpt>
      <trkpt lat="49.1588" lon="-0.16077">
        <ele>22.6</ele>
        <time>2024-05-26T09:13:37Z</time>
      </trkpt>
      <trkpt lat="49.15881" lon="-0.16085">
        <ele>22.8</ele>
        <time>2024-05-26T09:13:38Z</time>
      </trkpt>
      <trkpt lat="49.15882" lon="-0.16093">
        <ele>23</ele>
        <time>2024-05-26T09:13:39Z</time>
      </trkpt>
      <trkpt lat="49.15883" lon="-0.16101">
        <ele>23.2</ele>
        <time>2024-05-26T09:13:40Z</time>
      </trkpt>
      <trkpt lat="49.15883" lon="-0.16109">
        <ele>23.2</ele>
        <time>2024-05-26T09:13:41Z</time>
      </trkpt>
      <trkpt lat="49.15884" lon="-0.16116">
        <ele>23.4</ele>
        <time>2024-05-26T09:13:42Z</time>
      </trkpt>
      <trkpt lat="49.15884" lon="-0.16124">
        <ele>23.4</ele>
        <time>2024-05-26T09:13:43Z</time>
      </trkpt>
      <trkpt lat="49.15885" lon="-0.16132">
        <ele>23.6</ele>
        <time>2024-05-26T09:13:44Z</time>
      </trkpt>
      <trkpt lat="49.15886" lon="-0.1614">
        <ele>23.8</ele>
        <time>2024-05-26T09:13:45Z</time>
      </trkpt>
      <trkpt lat="49.15886" lon="-0.16148">
        <ele>23.8</ele>
        <time>2024-05-26T09:13:46Z</time>
      </trkpt>
      <trkpt lat="49.15887" lon="-0.16156">
        <ele>24</ele>
        <time>2024-05-26T09:13:47Z</time>
      </trkpt>
      <trkpt lat="49.15887" lon="-0.16164">
        <ele>24</ele>
        <time>2024-05-26T09:13:48Z</time>
      </trkpt>
      <trkpt lat="49.15887" lon="-0.16171">
        <ele>24</ele>
        <time>2024-05-26T09:13:49Z</time>
      </trkpt>
      <trkpt lat="49.15888" lon="-0.16179">
        <ele>24</ele>
        <time>2024-05-26T09:13:50Z</time>
      </trkpt>
      <trkpt lat="49.15889" lon="-0.16185">
        <ele>24.4</ele>
        <time>2024-05-26T09:13:51Z</time>
      </trkpt>
      <trkpt lat="49.1589" lon="-0.16192">
        <ele>24.6</ele>
        <time>2024-05-26T09:13:52Z</time>
      </trkpt>
      <trkpt lat="49.15891" lon="-0.16199">
        <ele>24.8</ele>
        <time>2024-05-26T09:13:53Z</time>
      </trkpt>
      <trkpt lat="49.15891" lon="-0.16205">
        <ele>25</ele>
        <time>2024-05-26T09:13:54Z</time>
      </trkpt>
      <trkpt lat="49.15892" lon="-0.16212">
        <ele>25</ele>
        <time>2024-05-26T09:13:55Z</time>
      </trkpt>
      <trkpt lat="49.15892" lon="-0.16218">
        <ele>25.2</ele>
        <time>2024-05-26T09:13:56Z</time>
      </trkpt>
      <trkpt lat="49.15893" lon="-0.16222">
        <ele>25.2</ele>
        <time>2024-05-26T09:13:57Z</time>
      </trkpt>
      <trkpt lat="49.15894" lon="-0.16225">
        <ele>25.2</ele>
        <time>2024-05-26T09:13:58Z</time>
      </trkpt>
      <trkpt lat="49.15895" lon="-0.16228">
        <ele>25.4</ele>
        <time>2024-05-26T09:13:59Z</time>
      </trkpt>
      <trkpt lat="49.15895" lon="-0.1623">
        <ele>25.4</ele>
        <time>2024-05-26T09:14:00Z</time>
      </trkpt>
      <trkpt lat="49.15894" lon="-0.16233">
        <ele>25.6</ele>
        <time>2024-05-26T09:14:01Z</time>
      </trkpt>
      <trkpt lat="49.15893" lon="-0.16234">
        <ele>25.6</ele>
        <time>2024-05-26T09:14:02Z</time>
      </trkpt>
      <trkpt lat="49.15892" lon="-0.16232">
        <ele>25.6</ele>
        <time>2024-05-26T09:14:03Z</time>
      </trkpt>
      <trkpt lat="49.15893" lon="-0.16228">
        <ele>25.8</ele>
        <time>2024-05-26T09:14:04Z</time>
      </trkpt>
      <trkpt lat="49.15895" lon="-0.16224">
        <ele>26</ele>
        <time>2024-05-26T09:14:05Z</time>
      </trkpt>
      <trkpt lat="49.15898" lon="-0.1622">
        <ele>26</ele>
        <time>2024-05-26T09:14:06Z</time>
      </trkpt>
      <trkpt lat="49.15903" lon="-0.16217">
        <ele>26.2</ele>
        <time>2024-05-26T09:14:07Z</time>
      </trkpt>
      <trkpt lat="49.15908" lon="-0.16213">
        <ele>26.2</ele>
        <time>2024-05-26T09:14:08Z</time>
      </trkpt>
      <trkpt lat="49.15913" lon="-0.16209">
        <ele>26.2</ele>
        <time>2024-05-26T09:14:09Z</time>
      </trkpt>
      <trkpt lat="49.15918" lon="-0.16205">
        <ele>26.2</ele>
        <time>2024-05-26T09:14:10Z</time>
      </trkpt>
      <trkpt lat="49.15924" lon="-0.162">
        <ele>26.2</ele>
        <time>2024-05-26T09:14:11Z</time>
      </trkpt>
      <trkpt lat="49.15929" lon="-0.16195">
        <ele>26.2</ele>
        <time>2024-05-26T09:14:12Z</time>
      </trkpt>
      <trkpt lat="49.15935" lon="-0.1619">
        <ele>26.2</ele>
        <time>2024-05-26T09:14:13Z</time>
      </trkpt>
      <trkpt lat="49.15941" lon="-0.16184">
        <ele>26.2</ele>
        <time>2024-05-26T09:14:14Z</time>
      </trkpt>
      <trkpt lat="49.15947" lon="-0.16178">
        <ele>26.2</ele>
        <time>2024-05-26T09:14:15Z</time>
      </trkpt>
      <trkpt lat="49.15954" lon="-0.16172">
        <ele>26</ele>
        <time>2024-05-26T09:14:16Z</time>
      </trkpt>
      <trkpt lat="49.1596" lon="-0.16165">
        <ele>25.8</ele>
        <time>2024-05-26T09:14:17Z</time>
      </trkpt>
      <trkpt lat="49.15966" lon="-0.16158">
        <ele>25.8</ele>
        <time>2024-05-26T09:14:18Z</time>
      </trkpt>
      <trkpt lat="49.15972" lon="-0.16151">
        <ele>25.6</ele>
        <time>2024-05-26T09:14:19Z</time>
      </trkpt>
      <trkpt lat="49.15978" lon="-0.16143">
        <ele>25.4</ele>
        <time>2024-05-26T09:14:20Z</time>
      </trkpt>
      <trkpt lat="49.15985" lon="-0.16135">
        <ele>25.4</ele>
        <time>2024-05-26T09:14:21Z</time>
      </trkpt>
      <trkpt lat="49.15991" lon="-0.16127">
        <ele>25</ele>
        <time>2024-05-26T09:14:22Z</time>
      </trkpt>
      <trkpt lat="49.15997" lon="-0.16119">
        <ele>24.6</ele>
        <time>2024-05-26T09:14:23Z</time>
      </trkpt>
      <trkpt lat="49.16004" lon="-0.16111">
        <ele>24.4</ele>
        <time>2024-05-26T09:14:24Z</time>
      </trkpt>
      <trkpt lat="49.1601" lon="-0.16103">
        <ele>24.2</ele>
        <time>2024-05-26T09:14:25Z</time>
      </trkpt>
      <trkpt lat="49.16016" lon="-0.16094">
        <ele>23.8</ele>
        <time>2024-05-26T09:14:26Z</time>
      </trkpt>
      <trkpt lat="49.16023" lon="-0.16085">
        <ele>23.6</ele>
        <time>2024-05-26T09:14:27Z</time>
      </trkpt>
      <trkpt lat="49.16029" lon="-0.16076">
        <ele>23.4</ele>
        <time>2024-05-26T09:14:28Z</time>
      </trkpt>
      <trkpt lat="49.16035" lon="-0.16067">
        <ele>23.2</ele>
        <time>2024-05-26T09:14:29Z</time>
      </trkpt>
      <trkpt lat="49.16041" lon="-0.16058">
        <ele>22.8</ele>
        <time>2024-05-26T09:14:30Z</time>
      </trkpt>
      <trkpt lat="49.16047" lon="-0.1605">
        <ele>22.4</ele>
        <time>2024-05-26T09:14:31Z</time>
      </trkpt>
      <trkpt lat="49.16054" lon="-0.16044">
        <ele>22</ele>
        <time>2024-05-26T09:14:32Z</time>
      </trkpt>
      <trkpt lat="49.16061" lon="-0.1604">
        <ele>21.6</ele>
        <time>2024-05-26T09:14:33Z</time>
      </trkpt>
      <trkpt lat="49.16069" lon="-0.16037">
        <ele>21.2</ele>
        <time>2024-05-26T09:14:34Z</time>
      </trkpt>
      <trkpt lat="49.16078" lon="-0.16035">
        <ele>21</ele>
        <time>2024-05-26T09:14:35Z</time>
      </trkpt>
      <trkpt lat="49.16087" lon="-0.16034">
        <ele>21</ele>
        <time>2024-05-26T09:14:36Z</time>
      </trkpt>
      <trkpt lat="49.16095" lon="-0.16033">
        <ele>20.8</ele>
        <time>2024-05-26T09:14:37Z</time>
      </trkpt>
      <trkpt lat="49.16104" lon="-0.16032">
        <ele>20.4</ele>
        <time>2024-05-26T09:14:38Z</time>
      </trkpt>
      <trkpt lat="49.16113" lon="-0.16032">
        <ele>20.4</ele>
        <time>2024-05-26T09:14:39Z</time>
      </trkpt>
      <trkpt lat="49.16122" lon="-0.16031">
        <ele>20.2</ele>
        <time>2024-05-26T09:14:40Z</time>
      </trkpt>
      <trkpt lat="49.16131" lon="-0.1603">
        <ele>20</ele>
        <time>2024-05-26T09:14:41Z</time>
      </trkpt>
      <trkpt lat="49.1614" lon="-0.16027">
        <ele>20</ele>
        <time>2024-05-26T09:14:42Z</time>
      </trkpt>
      <trkpt lat="49.16149" lon="-0.16025">
        <ele>19.6</ele>
        <time>2024-05-26T09:14:43Z</time>
      </trkpt>
      <trkpt lat="49.16157" lon="-0.16022">
        <ele>19.4</ele>
        <time>2024-05-26T09:14:44Z</time>
      </trkpt>
      <trkpt lat="49.16165" lon="-0.16018">
        <ele>19</ele>
        <time>2024-05-26T09:14:45Z</time>
      </trkpt>
      <trkpt lat="49.16173" lon="-0.16015">
        <ele>18.6</ele>
        <time>2024-05-26T09:14:46Z</time>
      </trkpt>
      <trkpt lat="49.1618" lon="-0.16013">
        <ele>18.4</ele>
        <time>2024-05-26T09:14:47Z</time>
      </trkpt>
      <trkpt lat="49.16186" lon="-0.16012">
        <ele>18.2</ele>
        <time>2024-05-26T09:14:48Z</time>
      </trkpt>
      <trkpt lat="49.16192" lon="-0.16013">
        <ele>17.6</ele>
        <time>2024-05-26T09:14:49Z</time>
      </trkpt>
      <trkpt lat="49.16197" lon="-0.16017">
        <ele>17.2</ele>
        <time>2024-05-26T09:14:50Z</time>
      </trkpt>
      <trkpt lat="49.16202" lon="-0.16022">
        <ele>17</ele>
        <time>2024-05-26T09:14:51Z</time>
      </trkpt>
      <trkpt lat="49.16207" lon="-0.16028">
        <ele>16.8</ele>
        <time>2024-05-26T09:14:52Z</time>
      </trkpt>
      <trkpt lat="49.16211" lon="-0.16035">
        <ele>16.6</ele>
        <time>2024-05-26T09:14:53Z</time>
      </trkpt>
      <trkpt lat="49.16215" lon="-0.16042">
        <ele>16.6</ele>
        <time>2024-05-26T09:14:54Z</time>
      </trkpt>
      <trkpt lat="49.1622" lon="-0.1605">
        <ele>16.6</ele>
        <time>2024-05-26T09:14:55Z</time>
      </trkpt>
      <trkpt lat="49.16224" lon="-0.16058">
        <ele>16.6</ele>
        <time>2024-05-26T09:14:56Z</time>
      </trkpt>
      <trkpt lat="49.16228" lon="-0.16067">
        <ele>16.6</ele>
        <time>2024-05-26T09:14:57Z</time>
      </trkpt>
      <trkpt lat="49.16232" lon="-0.16075">
        <ele>16.6</ele>
        <time>2024-05-26T09:14:58Z</time>
      </trkpt>
      <trkpt lat="49.16237" lon="-0.16084">
        <ele>16.6</ele>
        <time>2024-05-26T09:14:59Z</time>
      </trkpt>
      <trkpt lat="49.16241" lon="-0.16092">
        <ele>16.6</ele>
        <time>2024-05-26T09:15:00Z</time>
      </trkpt>
      <trkpt lat="49.16245" lon="-0.16101">
        <ele>16.6</ele>
        <time>2024-05-26T09:15:01Z</time>
      </trkpt>
      <trkpt lat="49.1625" lon="-0.16109">
        <ele>16.6</ele>
        <time>2024-05-26T09:15:02Z</time>
      </trkpt>
      <trkpt lat="49.16255" lon="-0.16119">
        <ele>16.6</ele>
        <time>2024-05-26T09:15:03Z</time>
      </trkpt>
      <trkpt lat="49.16259" lon="-0.16126">
        <ele>16.6</ele>
        <time>2024-05-26T09:15:04Z</time>
      </trkpt>
      <trkpt lat="49.16263" lon="-0.16135">
        <ele>16.6</ele>
        <time>2024-05-26T09:15:05Z</time>
      </trkpt>
      <trkpt lat="49.1627" lon="-0.16145">
        <ele>16.6</ele>
        <time>2024-05-26T09:15:06Z</time>
      </trkpt>
      <trkpt lat="49.16274" lon="-0.1615">
        <ele>16.6</ele>
        <time>2024-05-26T09:15:07Z</time>
      </trkpt>
      <trkpt lat="49.16281" lon="-0.16155">
        <ele>16.6</ele>
        <time>2024-05-26T09:15:08Z</time>
      </trkpt>
      <trkpt lat="49.16289" lon="-0.16158">
        <ele>16.6</ele>
        <time>2024-05-26T09:15:09Z</time>
      </trkpt>
      <trkpt lat="49.16296" lon="-0.16159">
        <ele>16.6</ele>
        <time>2024-05-26T09:15:10Z</time>
      </trkpt>
      <trkpt lat="49.16305" lon="-0.1616">
        <ele>16.4</ele>
        <time>2024-05-26T09:15:11Z</time>
      </trkpt>
      <trkpt lat="49.16312" lon="-0.1616">
        <ele>16.4</ele>
        <time>2024-05-26T09:15:12Z</time>
      </trkpt>
      <trkpt lat="49.1632" lon="-0.1616">
        <ele>16.4</ele>
        <time>2024-05-26T09:15:13Z</time>
      </trkpt>
      <trkpt lat="49.16328" lon="-0.16158">
        <ele>16.4</ele>
        <time>2024-05-26T09:15:14Z</time>
      </trkpt>
      <trkpt lat="49.16336" lon="-0.16155">
        <ele>16.4</ele>
        <time>2024-05-26T09:15:15Z</time>
      </trkpt>
      <trkpt lat="49.16344" lon="-0.16149">
        <ele>16.2</ele>
        <time>2024-05-26T09:15:16Z</time>
      </trkpt>
      <trkpt lat="49.1635" lon="-0.16141">
        <ele>16.2</ele>
        <time>2024-05-26T09:15:17Z</time>
      </trkpt>
      <trkpt lat="49.16356" lon="-0.16132">
        <ele>16.2</ele>
        <time>2024-05-26T09:15:18Z</time>
      </trkpt>
      <trkpt lat="49.16362" lon="-0.16122">
        <ele>16</ele>
        <time>2024-05-26T09:15:19Z</time>
      </trkpt>
      <trkpt lat="49.16367" lon="-0.16112">
        <ele>16</ele>
        <time>2024-05-26T09:15:20Z</time>
      </trkpt>
      <trkpt lat="49.16371" lon="-0.16101">
        <ele>16</ele>
        <time>2024-05-26T09:15:21Z</time>
      </trkpt>
      <trkpt lat="49.16376" lon="-0.1609">
        <ele>16</ele>
        <time>2024-05-26T09:15:22Z</time>
      </trkpt>
      <trkpt lat="49.1638" lon="-0.16078">
        <ele>15.8</ele>
        <time>2024-05-26T09:15:23Z</time>
      </trkpt>
      <trkpt lat="49.16384" lon="-0.16066">
        <ele>15.8</ele>
        <time>2024-05-26T09:15:24Z</time>
      </trkpt>
      <trkpt lat="49.16388" lon="-0.16054">
        <ele>15.6</ele>
        <time>2024-05-26T09:15:25Z</time>
      </trkpt>
      <trkpt lat="49.16392" lon="-0.16042">
        <ele>15.4</ele>
        <time>2024-05-26T09:15:26Z</time>
      </trkpt>
      <trkpt lat="49.16397" lon="-0.1603">
        <ele>15.2</ele>
        <time>2024-05-26T09:15:27Z</time>
      </trkpt>
      <trkpt lat="49.16403" lon="-0.16019">
        <ele>15.2</ele>
        <time>2024-05-26T09:15:28Z</time>
      </trkpt>
      <trkpt lat="49.16408" lon="-0.16008">
        <ele>15</ele>
        <time>2024-05-26T09:15:29Z</time>
      </trkpt>
      <trkpt lat="49.16414" lon="-0.15996">
        <ele>14.6</ele>
        <time>2024-05-26T09:15:30Z</time>
      </trkpt>
      <trkpt lat="49.1642" lon="-0.15985">
        <ele>14.6</ele>
        <time>2024-05-26T09:15:31Z</time>
      </trkpt>
      <trkpt lat="49.16425" lon="-0.15975">
        <ele>14.4</ele>
        <time>2024-05-26T09:15:32Z</time>
      </trkpt>
      <trkpt lat="49.16431" lon="-0.15964">
        <ele>14.2</ele>
        <time>2024-05-26T09:15:33Z</time>
      </trkpt>
      <trkpt lat="49.16437" lon="-0.15953">
        <ele>14</ele>
        <time>2024-05-26T09:15:34Z</time>
      </trkpt>
      <trkpt lat="49.16443" lon="-0.15941">
        <ele>13.8</ele>
        <time>2024-05-26T09:15:35Z</time>
      </trkpt>
      <trkpt lat="49.16448" lon="-0.1593">
        <ele>13.4</ele>
        <time>2024-05-26T09:15:36Z</time>
      </trkpt>
      <trkpt lat="49.16454" lon="-0.15919">
        <ele>12.8</ele>
        <time>2024-05-26T09:15:37Z</time>
      </trkpt>
      <trkpt lat="49.16459" lon="-0.15908">
        <ele>12.4</ele>
        <time>2024-05-26T09:15:38Z</time>
      </trkpt>
      <trkpt lat="49.16465" lon="-0.15897">
        <ele>12.2</ele>
        <time>2024-05-26T09:15:39Z</time>
      </trkpt>
      <trkpt lat="49.16471" lon="-0.15886">
        <ele>12.2</ele>
        <time>2024-05-26T09:15:40Z</time>
      </trkpt>
      <trkpt lat="49.16477" lon="-0.15876">
        <ele>12</ele>
        <time>2024-05-26T09:15:41Z</time>
      </trkpt>
      <trkpt lat="49.16484" lon="-0.15868">
        <ele>11.8</ele>
        <time>2024-05-26T09:15:42Z</time>
      </trkpt>
      <trkpt lat="49.16491" lon="-0.1586">
        <ele>11.8</ele>
        <time>2024-05-26T09:15:43Z</time>
      </trkpt>
      <trkpt lat="49.16499" lon="-0.15852">
        <ele>11.6</ele>
        <time>2024-05-26T09:15:44Z</time>
      </trkpt>
      <trkpt lat="49.16506" lon="-0.15844">
        <ele>11.4</ele>
        <time>2024-05-26T09:15:45Z</time>
      </trkpt>
      <trkpt lat="49.16514" lon="-0.15836">
        <ele>11.4</ele>
        <time>2024-05-26T09:15:46Z</time>
      </trkpt>
      <trkpt lat="49.16521" lon="-0.15829">
        <ele>11.2</ele>
        <time>2024-05-26T09:15:47Z</time>
      </trkpt>
      <trkpt lat="49.16529" lon="-0.15821">
        <ele>11</ele>
        <time>2024-05-26T09:15:48Z</time>
      </trkpt>
      <trkpt lat="49.16538" lon="-0.15815">
        <ele>10.8</ele>
        <time>2024-05-26T09:15:49Z</time>
      </trkpt>
      <trkpt lat="49.16547" lon="-0.15809">
        <ele>10.6</ele>
        <time>2024-05-26T09:15:50Z</time>
      </trkpt>
      <trkpt lat="49.16556" lon="-0.15804">
        <ele>10.6</ele>
        <time>2024-05-26T09:15:51Z</time>
      </trkpt>
      <trkpt lat="49.16565" lon="-0.15799">
        <ele>10.6</ele>
        <time>2024-05-26T09:15:52Z</time>
      </trkpt>
      <trkpt lat="49.16575" lon="-0.15794">
        <ele>10.6</ele>
        <time>2024-05-26T09:15:53Z</time>
      </trkpt>
      <trkpt lat="49.16584" lon="-0.15788">
        <ele>10.4</ele>
        <time>2024-05-26T09:15:54Z</time>
      </trkpt>
      <trkpt lat="49.16592" lon="-0.15781">
        <ele>10.2</ele>
        <time>2024-05-26T09:15:55Z</time>
      </trkpt>
      <trkpt lat="49.166" lon="-0.15773">
        <ele>9.8</ele>
        <time>2024-05-26T09:15:56Z</time>
      </trkpt>
      <trkpt lat="49.16607" lon="-0.15764">
        <ele>9.4</ele>
        <time>2024-05-26T09:15:57Z</time>
      </trkpt>
      <trkpt lat="49.16613" lon="-0.15754">
        <ele>9.2</ele>
        <time>2024-05-26T09:15:58Z</time>
      </trkpt>
      <trkpt lat="49.16619" lon="-0.15745">
        <ele>9</ele>
        <time>2024-05-26T09:15:59Z</time>
      </trkpt>
      <trkpt lat="49.16625" lon="-0.15736">
        <ele>8.8</ele>
        <time>2024-05-26T09:16:00Z</time>
      </trkpt>
      <trkpt lat="49.1663" lon="-0.15727">
        <ele>8.6</ele>
        <time>2024-05-26T09:16:01Z</time>
      </trkpt>
      <trkpt lat="49.16635" lon="-0.15719">
        <ele>8.4</ele>
        <time>2024-05-26T09:16:02Z</time>
      </trkpt>
      <trkpt lat="49.16639" lon="-0.15713">
        <ele>8.2</ele>
        <time>2024-05-26T09:16:03Z</time>
      </trkpt>
      <trkpt lat="49.16642" lon="-0.15708">
        <ele>8.2</ele>
        <time>2024-05-26T09:16:04Z</time>
      </trkpt>
      <trkpt lat="49.16645" lon="-0.15703">
        <ele>8</ele>
        <time>2024-05-26T09:16:05Z</time>
      </trkpt>
      <trkpt lat="49.16647" lon="-0.157">
        <ele>8</ele>
        <time>2024-05-26T09:16:06Z</time>
      </trkpt>
      <trkpt lat="49.16649" lon="-0.15697">
        <ele>8</ele>
        <time>2024-05-26T09:16:07Z</time>
      </trkpt>
      <trkpt lat="49.16652" lon="-0.15695">
        <ele>7.8</ele>
        <time>2024-05-26T09:16:08Z</time>
      </trkpt>
      <trkpt lat="49.16656" lon="-0.15697">
        <ele>7.8</ele>
        <time>2024-05-26T09:16:09Z</time>
      </trkpt>
      <trkpt lat="49.1666" lon="-0.15701">
        <ele>7.8</ele>
        <time>2024-05-26T09:16:10Z</time>
      </trkpt>
      <trkpt lat="49.16664" lon="-0.15706">
        <ele>7.8</ele>
        <time>2024-05-26T09:16:11Z</time>
      </trkpt>
      <trkpt lat="49.16667" lon="-0.15712">
        <ele>7.8</ele>
        <time>2024-05-26T09:16:12Z</time>
      </trkpt>
      <trkpt lat="49.16671" lon="-0.1572">
        <ele>7.8</ele>
        <time>2024-05-26T09:16:13Z</time>
      </trkpt>
      <trkpt lat="49.16674" lon="-0.15727">
        <ele>7.6</ele>
        <time>2024-05-26T09:16:14Z</time>
      </trkpt>
      <trkpt lat="49.16678" lon="-0.15736">
        <ele>7.6</ele>
        <time>2024-05-26T09:16:15Z</time>
      </trkpt>
      <trkpt lat="49.16682" lon="-0.15745">
        <ele>7.6</ele>
        <time>2024-05-26T09:16:16Z</time>
      </trkpt>
      <trkpt lat="49.16686" lon="-0.15755">
        <ele>7.6</ele>
        <time>2024-05-26T09:16:17Z</time>
      </trkpt>
      <trkpt lat="49.1669" lon="-0.15765">
        <ele>7.6</ele>
        <time>2024-05-26T09:16:18Z</time>
      </trkpt>
      <trkpt lat="49.16695" lon="-0.15775">
        <ele>7.6</ele>
        <time>2024-05-26T09:16:19Z</time>
      </trkpt>
      <trkpt lat="49.167" lon="-0.15785">
        <ele>7.6</ele>
        <time>2024-05-26T09:16:20Z</time>
      </trkpt>
      <trkpt lat="49.16705" lon="-0.15796">
        <ele>7.4</ele>
        <time>2024-05-26T09:16:21Z</time>
      </trkpt>
      <trkpt lat="49.1671" lon="-0.15806">
        <ele>7.4</ele>
        <time>2024-05-26T09:16:22Z</time>
      </trkpt>
      <trkpt lat="49.16715" lon="-0.15818">
        <ele>7.2</ele>
        <time>2024-05-26T09:16:23Z</time>
      </trkpt>
      <trkpt lat="49.1672" lon="-0.1583">
        <ele>7</ele>
        <time>2024-05-26T09:16:24Z</time>
      </trkpt>
      <trkpt lat="49.16725" lon="-0.15843">
        <ele>7</ele>
        <time>2024-05-26T09:16:25Z</time>
      </trkpt>
      <trkpt lat="49.1673" lon="-0.15855">
        <ele>6.6</ele>
        <time>2024-05-26T09:16:26Z</time>
      </trkpt>
      <trkpt lat="49.16735" lon="-0.15868">
        <ele>6.4</ele>
        <time>2024-05-26T09:16:27Z</time>
      </trkpt>
      <trkpt lat="49.1674" lon="-0.15881">
        <ele>6.2</ele>
        <time>2024-05-26T09:16:28Z</time>
      </trkpt>
      <trkpt lat="49.16746" lon="-0.15894">
        <ele>6</ele>
        <time>2024-05-26T09:16:29Z</time>
      </trkpt>
      <trkpt lat="49.16752" lon="-0.15907">
        <ele>5.6</ele>
        <time>2024-05-26T09:16:30Z</time>
      </trkpt>
      <trkpt lat="49.16757" lon="-0.15921">
        <ele>5.4</ele>
        <time>2024-05-26T09:16:31Z</time>
      </trkpt>
      <trkpt lat="49.16762" lon="-0.15934">
        <ele>5.4</ele>
        <time>2024-05-26T09:16:32Z</time>
      </trkpt>
      <trkpt lat="49.16768" lon="-0.15947">
        <ele>5</ele>
        <time>2024-05-26T09:16:33Z</time>
      </trkpt>
      <trkpt lat="49.16774" lon="-0.1596">
        <ele>4.6</ele>
        <time>2024-05-26T09:16:34Z</time>
      </trkpt>
      <trkpt lat="49.16779" lon="-0.15972">
        <ele>4.2</ele>
        <time>2024-05-26T09:16:35Z</time>
      </trkpt>
      <trkpt lat="49.16784" lon="-0.15985">
        <ele>4</ele>
        <time>2024-05-26T09:16:36Z</time>
      </trkpt>
      <trkpt lat="49.1679" lon="-0.15997">
        <ele>3.6</ele>
        <time>2024-05-26T09:16:37Z</time>
      </trkpt>
      <trkpt lat="49.16795" lon="-0.16009">
        <ele>3.4</ele>
        <time>2024-05-26T09:16:38Z</time>
      </trkpt>
      <trkpt lat="49.16801" lon="-0.1602">
        <ele>3.2</ele>
        <time>2024-05-26T09:16:39Z</time>
      </trkpt>
      <trkpt lat="49.16806" lon="-0.1603">
        <ele>3.2</ele>
        <time>2024-05-26T09:16:40Z</time>
      </trkpt>
      <trkpt lat="49.16811" lon="-0.1604">
        <ele>3</ele>
        <time>2024-05-26T09:16:41Z</time>
      </trkpt>
      <trkpt lat="49.16817" lon="-0.1605">
        <ele>3</ele>
        <time>2024-05-26T09:16:42Z</time>
      </trkpt>
      <trkpt lat="49.16822" lon="-0.1606">
        <ele>3</ele>
        <time>2024-05-26T09:16:43Z</time>
      </trkpt>
      <trkpt lat="49.16827" lon="-0.1607">
        <ele>3</ele>
        <time>2024-05-26T09:16:44Z</time>
      </trkpt>
      <trkpt lat="49.16833" lon="-0.1608">
        <ele>3</ele>
        <time>2024-05-26T09:16:45Z</time>
      </trkpt>
      <trkpt lat="49.16838" lon="-0.1609">
        <ele>3</ele>
        <time>2024-05-26T09:16:46Z</time>
      </trkpt>
      <trkpt lat="49.16845" lon="-0.16099">
        <ele>3</ele>
        <time>2024-05-26T09:16:47Z</time>
      </trkpt>
      <trkpt lat="49.16851" lon="-0.16109">
        <ele>3</ele>
        <time>2024-05-26T09:16:48Z</time>
      </trkpt>
      <trkpt lat="49.16857" lon="-0.16118">
        <ele>3</ele>
        <time>2024-05-26T09:16:49Z</time>
      </trkpt>
      <trkpt lat="49.16864" lon="-0.16127">
        <ele>3</ele>
        <time>2024-05-26T09:16:50Z</time>
      </trkpt>
      <trkpt lat="49.16871" lon="-0.16136">
        <ele>3</ele>
        <time>2024-05-26T09:16:51Z</time>
      </trkpt>
      <trkpt lat="49.16878" lon="-0.16145">
        <ele>3</ele>
        <time>2024-05-26T09:16:52Z</time>
      </trkpt>
      <trkpt lat="49.16886" lon="-0.16154">
        <ele>3</ele>
        <time>2024-05-26T09:16:53Z</time>
      </trkpt>
      <trkpt lat="49.16893" lon="-0.16162">
        <ele>3</ele>
        <time>2024-05-26T09:16:54Z</time>
      </trkpt>
      <trkpt lat="49.16902" lon="-0.1617">
        <ele>3</ele>
        <time>2024-05-26T09:16:55Z</time>
      </trkpt>
      <trkpt lat="49.1691" lon="-0.16177">
        <ele>3</ele>
        <time>2024-05-26T09:16:56Z</time>
      </trkpt>
      <trkpt lat="49.16919" lon="-0.16183">
        <ele>2.8</ele>
        <time>2024-05-26T09:16:57Z</time>
      </trkpt>
      <trkpt lat="49.16928" lon="-0.16189">
        <ele>2.8</ele>
        <time>2024-05-26T09:16:58Z</time>
      </trkpt>
      <trkpt lat="49.16937" lon="-0.16195">
        <ele>2.8</ele>
        <time>2024-05-26T09:16:59Z</time>
      </trkpt>
      <trkpt lat="49.16946" lon="-0.162">
        <ele>2.6</ele>
        <time>2024-05-26T09:17:00Z</time>
      </trkpt>
      <trkpt lat="49.16954" lon="-0.16206">
        <ele>2.6</ele>
        <time>2024-05-26T09:17:01Z</time>
      </trkpt>
      <trkpt lat="49.16963" lon="-0.1621">
        <ele>2.4</ele>
        <time>2024-05-26T09:17:02Z</time>
      </trkpt>
      <trkpt lat="49.16972" lon="-0.16215">
        <ele>2.2</ele>
        <time>2024-05-26T09:17:03Z</time>
      </trkpt>
      <trkpt lat="49.1698" lon="-0.1622">
        <ele>2</ele>
        <time>2024-05-26T09:17:04Z</time>
      </trkpt>
      <trkpt lat="49.16989" lon="-0.16225">
        <ele>2</ele>
        <time>2024-05-26T09:17:05Z</time>
      </trkpt>
      <trkpt lat="49.16997" lon="-0.1623">
        <ele>1.8</ele>
        <time>2024-05-26T09:17:06Z</time>
      </trkpt>
      <trkpt lat="49.17005" lon="-0.16236">
        <ele>1.8</ele>
        <time>2024-05-26T09:17:07Z</time>
      </trkpt>
      <trkpt lat="49.17013" lon="-0.16242">
        <ele>1.6</ele>
        <time>2024-05-26T09:17:08Z</time>
      </trkpt>
      <trkpt lat="49.17021" lon="-0.16248">
        <ele>1.6</ele>
        <time>2024-05-26T09:17:09Z</time>
      </trkpt>
      <trkpt lat="49.17028" lon="-0.16256">
        <ele>1.6</ele>
        <time>2024-05-26T09:17:10Z</time>
      </trkpt>
      <trkpt lat="49.17035" lon="-0.16263">
        <ele>1.4</ele>
        <time>2024-05-26T09:17:11Z</time>
      </trkpt>
      <trkpt lat="49.17042" lon="-0.16271">
        <ele>1.4</ele>
        <time>2024-05-26T09:17:12Z</time>
      </trkpt>
      <trkpt lat="49.17049" lon="-0.1628">
        <ele>1.4</ele>
        <time>2024-05-26T09:17:13Z</time>
      </trkpt>
      <trkpt lat="49.17054" lon="-0.16288">
        <ele>1.4</ele>
        <time>2024-05-26T09:17:14Z</time>
      </trkpt>
      <trkpt lat="49.1706" lon="-0.16297">
        <ele>1.4</ele>
        <time>2024-05-26T09:17:15Z</time>
      </trkpt>
      <trkpt lat="49.17066" lon="-0.16306">
        <ele>1.4</ele>
        <time>2024-05-26T09:17:16Z</time>
      </trkpt>
      <trkpt lat="49.17072" lon="-0.16316">
        <ele>1.4</ele>
        <time>2024-05-26T09:17:17Z</time>
      </trkpt>
      <trkpt lat="49.17078" lon="-0.16325">
        <ele>1.4</ele>
        <time>2024-05-26T09:17:18Z</time>
      </trkpt>
      <trkpt lat="49.17083" lon="-0.16335">
        <ele>1.4</ele>
        <time>2024-05-26T09:17:19Z</time>
      </trkpt>
      <trkpt lat="49.17088" lon="-0.16345">
        <ele>1.4</ele>
        <time>2024-05-26T09:17:20Z</time>
      </trkpt>
      <trkpt lat="49.17093" lon="-0.16355">
        <ele>1.4</ele>
        <time>2024-05-26T09:17:21Z</time>
      </trkpt>
      <trkpt lat="49.17098" lon="-0.16365">
        <ele>1.4</ele>
        <time>2024-05-26T09:17:22Z</time>
      </trkpt>
      <trkpt lat="49.17104" lon="-0.16375">
        <ele>1.6</ele>
        <time>2024-05-26T09:17:23Z</time>
      </trkpt>
      <trkpt lat="49.17109" lon="-0.16384">
        <ele>1.6</ele>
        <time>2024-05-26T09:17:24Z</time>
      </trkpt>
      <trkpt lat="49.17114" lon="-0.16393">
        <ele>1.6</ele>
        <time>2024-05-26T09:17:25Z</time>
      </trkpt>
      <trkpt lat="49.17119" lon="-0.16403">
        <ele>1.6</ele>
        <time>2024-05-26T09:17:26Z</time>
      </trkpt>
      <trkpt lat="49.17124" lon="-0.16412">
        <ele>1.6</ele>
        <time>2024-05-26T09:17:27Z</time>
      </trkpt>
      <trkpt lat="49.1713" lon="-0.16422">
        <ele>1.8</ele>
        <time>2024-05-26T09:17:28Z</time>
      </trkpt>
      <trkpt lat="49.17135" lon="-0.16432">
        <ele>1.8</ele>
        <time>2024-05-26T09:17:29Z</time>
      </trkpt>
      <trkpt lat="49.17139" lon="-0.16442">
        <ele>2</ele>
        <time>2024-05-26T09:17:30Z</time>
      </trkpt>
      <trkpt lat="49.17145" lon="-0.16452">
        <ele>2</ele>
        <time>2024-05-26T09:17:31Z</time>
      </trkpt>
      <trkpt lat="49.1715" lon="-0.16463">
        <ele>2</ele>
        <time>2024-05-26T09:17:32Z</time>
      </trkpt>
      <trkpt lat="49.17155" lon="-0.16473">
        <ele>2</ele>
        <time>2024-05-26T09:17:33Z</time>
      </trkpt>
      <trkpt lat="49.17161" lon="-0.16484">
        <ele>2</ele>
        <time>2024-05-26T09:17:34Z</time>
      </trkpt>
      <trkpt lat="49.17167" lon="-0.16496">
        <ele>2</ele>
        <time>2024-05-26T09:17:35Z</time>
      </trkpt>
      <trkpt lat="49.17172" lon="-0.16507">
        <ele>2</ele>
        <time>2024-05-26T09:17:36Z</time>
      </trkpt>
      <trkpt lat="49.17177" lon="-0.16518">
        <ele>2</ele>
        <time>2024-05-26T09:17:37Z</time>
      </trkpt>
      <trkpt lat="49.17183" lon="-0.16529">
        <ele>1.8</ele>
        <time>2024-05-26T09:17:38Z</time>
      </trkpt>
      <trkpt lat="49.17188" lon="-0.1654">
        <ele>1.8</ele>
        <time>2024-05-26T09:17:39Z</time>
      </trkpt>
      <trkpt lat="49.17194" lon="-0.16551">
        <ele>1.6</ele>
        <time>2024-05-26T09:17:40Z</time>
      </trkpt>
      <trkpt lat="49.17199" lon="-0.16563">
        <ele>1.6</ele>
        <time>2024-05-26T09:17:41Z</time>
      </trkpt>
      <trkpt lat="49.17205" lon="-0.16574">
        <ele>1.6</ele>
        <time>2024-05-26T09:17:42Z</time>
      </trkpt>
      <trkpt lat="49.1721" lon="-0.16587">
        <ele>1.4</ele>
        <time>2024-05-26T09:17:43Z</time>
      </trkpt>
      <trkpt lat="49.17215" lon="-0.16599">
        <ele>1</ele>
        <time>2024-05-26T09:17:44Z</time>
      </trkpt>
      <trkpt lat="49.17221" lon="-0.16611">
        <ele>0.8</ele>
        <time>2024-05-26T09:17:45Z</time>
      </trkpt>
      <trkpt lat="49.17226" lon="-0.16623">
        <ele>0.6</ele>
        <time>2024-05-26T09:17:46Z</time>
      </trkpt>
      <trkpt lat="49.17232" lon="-0.16635">
        <ele>0.6</ele>
        <time>2024-05-26T09:17:47Z</time>
      </trkpt>
      <trkpt lat="49.17237" lon="-0.16648">
        <ele>0.4</ele>
        <time>2024-05-26T09:17:48Z</time>
      </trkpt>
      <trkpt lat="49.17243" lon="-0.1666">
        <ele>0.4</ele>
        <time>2024-05-26T09:17:49Z</time>
      </trkpt>
      <trkpt lat="49.17248" lon="-0.16672">
        <ele>0.2</ele>
        <time>2024-05-26T09:17:50Z</time>
      </trkpt>
      <trkpt lat="49.17254" lon="-0.16685">
        <ele>5.9</ele>
        <time>2024-05-26T09:17:51Z</time>
      </trkpt>
      <trkpt lat="49.17259" lon="-0.16697">
        <ele>-0.2</ele>
        <time>2024-05-26T09:17:52Z</time>
      </trkpt>
      <trkpt lat="49.17263" lon="-0.16709">
        <ele>-0.4</ele>
        <time>2024-05-26T09:17:53Z</time>
      </trkpt>
      <trkpt lat="49.17268" lon="-0.16721">
        <ele>-0.8</ele>
        <time>2024-05-26T09:17:54Z</time>
      </trkpt>
      <trkpt lat="49.17272" lon="-0.16732">
        <ele>-1.2</ele>
        <time>2024-05-26T09:17:55Z</time>
      </trkpt>
      <trkpt lat="49.17277" lon="-0.16744">
        <ele>-2</ele>
        <time>2024-05-26T09:17:56Z</time>
      </trkpt>
      <trkpt lat="49.17281" lon="-0.16755">
        <ele>-2.4</ele>
        <time>2024-05-26T09:17:57Z</time>
      </trkpt>
      <trkpt lat="49.17286" lon="-0.16766">
        <ele>-2.6</ele>
        <time>2024-05-26T09:17:58Z</time>
      </trkpt>
      <trkpt lat="49.1729" lon="-0.16777">
        <ele>-3</ele>
        <time>2024-05-26T09:17:59Z</time>
      </trkpt>
      <trkpt lat="49.17294" lon="-0.16788">
        <ele>-3.2</ele>
        <time>2024-05-26T09:18:00Z</time>
      </trkpt>
      <trkpt lat="49.17297" lon="-0.16799">
        <ele>-3.4</ele>
        <time>2024-05-26T09:18:01Z</time>
      </trkpt>
      <trkpt lat="49.173" lon="-0.16809">
        <ele>-3.4</ele>
        <time>2024-05-26T09:18:02Z</time>
      </trkpt>
      <trkpt lat="49.17303" lon="-0.1682">
        <ele>-3.4</ele>
        <time>2024-05-26T09:18:03Z</time>
      </trkpt>
      <trkpt lat="49.17306" lon="-0.16831">
        <ele>-3.4</ele>
        <time>2024-05-26T09:18:04Z</time>
      </trkpt>
      <trkpt lat="49.17308" lon="-0.16842">
        <ele>-3.4</ele>
        <time>2024-05-26T09:18:05Z</time>
      </trkpt>
      <trkpt lat="49.17311" lon="-0.16852">
        <ele>-3.4</ele>
        <time>2024-05-26T09:18:06Z</time>
      </trkpt>
      <trkpt lat="49.17313" lon="-0.16862">
        <ele>-3.6</ele>
        <time>2024-05-26T09:18:07Z</time>
      </trkpt>
      <trkpt lat="49.17315" lon="-0.16872">
        <ele>-3.6</ele>
        <time>2024-05-26T09:18:08Z</time>
      </trkpt>
      <trkpt lat="49.17318" lon="-0.16881">
        <ele>-3.6</ele>
        <time>2024-05-26T09:18:09Z</time>
      </trkpt>
      <trkpt lat="49.1732" lon="-0.1689">
        <ele>-3.6</ele>
        <time>2024-05-26T09:18:10Z</time>
      </trkpt>
      <trkpt lat="49.17322" lon="-0.169">
        <ele>-3.6</ele>
        <time>2024-05-26T09:18:11Z</time>
      </trkpt>
      <trkpt lat="49.17325" lon="-0.16909">
        <ele>-3.6</ele>
        <time>2024-05-26T09:18:12Z</time>
      </trkpt>
      <trkpt lat="49.17327" lon="-0.16919">
        <ele>-3.6</ele>
        <time>2024-05-26T09:18:13Z</time>
      </trkpt>
      <trkpt lat="49.17329" lon="-0.16928">
        <ele>-3.6</ele>
        <time>2024-05-26T09:18:14Z</time>
      </trkpt>
      <trkpt lat="49.17331" lon="-0.16937">
        <ele>-3.4</ele>
        <time>2024-05-26T09:18:15Z</time>
      </trkpt>
      <trkpt lat="49.17333" lon="-0.16946">
        <ele>-3.4</ele>
        <time>2024-05-26T09:18:16Z</time>
      </trkpt>
      <trkpt lat="49.17336" lon="-0.16955">
        <ele>-3.4</ele>
        <time>2024-05-26T09:18:17Z</time>
      </trkpt>
      <trkpt lat="49.17338" lon="-0.16964">
        <ele>-3.4</ele>
        <time>2024-05-26T09:18:18Z</time>
      </trkpt>
      <trkpt lat="49.17341" lon="-0.16973">
        <ele>-3.2</ele>
        <time>2024-05-26T09:18:19Z</time>
      </trkpt>
      <trkpt lat="49.17343" lon="-0.16983">
        <ele>-3.2</ele>
        <time>2024-05-26T09:18:20Z</time>
      </trkpt>
      <trkpt lat="49.17345" lon="-0.16992">
        <ele>-3</ele>
        <time>2024-05-26T09:18:21Z</time>
      </trkpt>
      <trkpt lat="49.17348" lon="-0.17002">
        <ele>-2.8</ele>
        <time>2024-05-26T09:18:22Z</time>
      </trkpt>
      <trkpt lat="49.1735" lon="-0.17011">
        <ele>-2.8</ele>
        <time>2024-05-26T09:18:23Z</time>
      </trkpt>
      <trkpt lat="49.17352" lon="-0.17021">
        <ele>-2.8</ele>
        <time>2024-05-26T09:18:24Z</time>
      </trkpt>
      <trkpt lat="49.17355" lon="-0.1703">
        <ele>-2.6</ele>
        <time>2024-05-26T09:18:25Z</time>
      </trkpt>
      <trkpt lat="49.17357" lon="-0.17039">
        <ele>-2.6</ele>
        <time>2024-05-26T09:18:26Z</time>
      </trkpt>
      <trkpt lat="49.17359" lon="-0.17048">
        <ele>-2.4</ele>
        <time>2024-05-26T09:18:27Z</time>
      </trkpt>
      <trkpt lat="49.17361" lon="-0.17058">
        <ele>-2.4</ele>
        <time>2024-05-26T09:18:28Z</time>
      </trkpt>
      <trkpt lat="49.17362" lon="-0.17067">
        <ele>-2</ele>
        <time>2024-05-26T09:18:29Z</time>
      </trkpt>
      <trkpt lat="49.17364" lon="-0.17076">
        <ele>-2</ele>
        <time>2024-05-26T09:18:30Z</time>
      </trkpt>
      <trkpt lat="49.17366" lon="-0.17085">
        <ele>-1.8</ele>
        <time>2024-05-26T09:18:31Z</time>
      </trkpt>
      <trkpt lat="49.17367" lon="-0.17094">
        <ele>-1.8</ele>
        <time>2024-05-26T09:18:32Z</time>
      </trkpt>
      <trkpt lat="49.17369" lon="-0.17103">
        <ele>-1.8</ele>
        <time>2024-05-26T09:18:33Z</time>
      </trkpt>
      <trkpt lat="49.1737" lon="-0.17112">
        <ele>-1.6</ele>
        <time>2024-05-26T09:18:34Z</time>
      </trkpt>
      <trkpt lat="49.17371" lon="-0.17121">
        <ele>-1.6</ele>
        <time>2024-05-26T09:18:35Z</time>
      </trkpt>
      <trkpt lat="49.17372" lon="-0.1713">
        <ele>-1.6</ele>
        <time>2024-05-26T09:18:36Z</time>
      </trkpt>
      <trkpt lat="49.17373" lon="-0.17139">
        <ele>-1.6</ele>
        <time>2024-05-26T09:18:37Z</time>
      </trkpt>
      <trkpt lat="49.17374" lon="-0.17148">
        <ele>-1.4</ele>
        <time>2024-05-26T09:18:38Z</time>
      </trkpt>
      <trkpt lat="49.17375" lon="-0.17157">
        <ele>-1.4</ele>
        <time>2024-05-26T09:18:39Z</time>
      </trkpt>
      <trkpt lat="49.17375" lon="-0.17166">
        <ele>-1.4</ele>
        <time>2024-05-26T09:18:40Z</time>
      </trkpt>
      <trkpt lat="49.17376" lon="-0.17175">
        <ele>-1.4</ele>
        <time>2024-05-26T09:18:41Z</time>
      </trkpt>
      <trkpt lat="49.17377" lon="-0.17185">
        <ele>-1.4</ele>
        <time>2024-05-26T09:18:42Z</time>
      </trkpt>
      <trkpt lat="49.17378" lon="-0.17194">
        <ele>-1.2</ele>
        <time>2024-05-26T09:18:43Z</time>
      </trkpt>
      <trkpt lat="49.17379" lon="-0.17204">
        <ele>-1</ele>
        <time>2024-05-26T09:18:44Z</time>
      </trkpt>
      <trkpt lat="49.1738" lon="-0.17213">
        <ele>-1</ele>
        <time>2024-05-26T09:18:45Z</time>
      </trkpt>
      <trkpt lat="49.1738" lon="-0.17223">
        <ele>-0.8</ele>
        <time>2024-05-26T09:18:46Z</time>
      </trkpt>
      <trkpt lat="49.17381" lon="-0.17233">
        <ele>-0.8</ele>
        <time>2024-05-26T09:18:47Z</time>
      </trkpt>
      <trkpt lat="49.17382" lon="-0.17243">
        <ele>-0.8</ele>
        <time>2024-05-26T09:18:48Z</time>
      </trkpt>
      <trkpt lat="49.17382" lon="-0.17252">
        <ele>-0.8</ele>
        <time>2024-05-26T09:18:49Z</time>
      </trkpt>
      <trkpt lat="49.17383" lon="-0.17262">
        <ele>-0.6</ele>
        <time>2024-05-26T09:18:50Z</time>
      </trkpt>
      <trkpt lat="49.17384" lon="-0.17272">
        <ele>-0.6</ele>
        <time>2024-05-26T09:18:51Z</time>
      </trkpt>
      <trkpt lat="49.17385" lon="-0.17282">
        <ele>-0.6</ele>
        <time>2024-05-26T09:18:52Z</time>
      </trkpt>
      <trkpt lat="49.17386" lon="-0.17293">
        <ele>-0.6</ele>
        <time>2024-05-26T09:18:53Z</time>
      </trkpt>
      <trkpt lat="49.17387" lon="-0.17303">
        <ele>-0.6</ele>
        <time>2024-05-26T09:18:54Z</time>
      </trkpt>
      <trkpt lat="49.17389" lon="-0.17314">
        <ele>-0.6</ele>
        <time>2024-05-26T09:18:55Z</time>
      </trkpt>
      <trkpt lat="49.1739" lon="-0.17325">
        <ele>-0.6</ele>
        <time>2024-05-26T09:18:56Z</time>
      </trkpt>
      <trkpt lat="49.17392" lon="-0.17335">
        <ele>-0.4</ele>
        <time>2024-05-26T09:18:57Z</time>
      </trkpt>
      <trkpt lat="49.17393" lon="-0.17347">
        <ele>-0.4</ele>
        <time>2024-05-26T09:18:58Z</time>
      </trkpt>
      <trkpt lat="49.17395" lon="-0.17358">
        <ele>-0.2</ele>
        <time>2024-05-26T09:18:59Z</time>
      </trkpt>
      <trkpt lat="49.17397" lon="-0.1737">
        <ele>-0.2</ele>
        <time>2024-05-26T09:19:00Z</time>
      </trkpt>
      <trkpt lat="49.17399" lon="-0.17382">
        <ele>9.8</ele>
        <time>2024-05-26T09:19:01Z</time>
      </trkpt>
      <trkpt lat="49.17401" lon="-0.17393">
        <ele>9.5</ele>
        <time>2024-05-26T09:19:02Z</time>
      </trkpt>
      <trkpt lat="49.17405" lon="-0.17404">
        <ele>9.4</ele>
        <time>2024-05-26T09:19:03Z</time>
      </trkpt>
      <trkpt lat="49.17408" lon="-0.17415">
        <ele>-0.2</ele>
        <time>2024-05-26T09:19:04Z</time>
      </trkpt>
      <trkpt lat="49.17412" lon="-0.17425">
        <ele>-0.2</ele>
        <time>2024-05-26T09:19:05Z</time>
      </trkpt>
      <trkpt lat="49.17416" lon="-0.17435">
        <ele>-0.2</ele>
        <time>2024-05-26T09:19:06Z</time>
      </trkpt>
      <trkpt lat="49.1742" lon="-0.17444">
        <ele>-0.2</ele>
        <time>2024-05-26T09:19:07Z</time>
      </trkpt>
      <trkpt lat="49.17425" lon="-0.17453">
        <ele>-0.4</ele>
        <time>2024-05-26T09:19:08Z</time>
      </trkpt>
      <trkpt lat="49.17429" lon="-0.17461">
        <ele>-0.4</ele>
        <time>2024-05-26T09:19:09Z</time>
      </trkpt>
      <trkpt lat="49.17434" lon="-0.17469">
        <ele>-0.4</ele>
        <time>2024-05-26T09:19:10Z</time>
      </trkpt>
      <trkpt lat="49.17438" lon="-0.17477">
        <ele>-0.4</ele>
        <time>2024-05-26T09:19:11Z</time>
      </trkpt>
      <trkpt lat="49.17443" lon="-0.17484">
        <ele>-0.4</ele>
        <time>2024-05-26T09:19:12Z</time>
      </trkpt>
      <trkpt lat="49.17447" lon="-0.17492">
        <ele>-0.4</ele>
        <time>2024-05-26T09:19:13Z</time>
      </trkpt>
      <trkpt lat="49.17452" lon="-0.17499">
        <ele>-0.4</ele>
        <time>2024-05-26T09:19:14Z</time>
      </trkpt>
      <trkpt lat="49.17456" lon="-0.17507">
        <ele>-0.4</ele>
        <time>2024-05-26T09:19:15Z</time>
      </trkpt>
      <trkpt lat="49.1746" lon="-0.17514">
        <ele>-0.4</ele>
        <time>2024-05-26T09:19:16Z</time>
      </trkpt>
      <trkpt lat="49.17465" lon="-0.17521">
        <ele>-0.4</ele>
        <time>2024-05-26T09:19:17Z</time>
      </trkpt>
      <trkpt lat="49.17469" lon="-0.17528">
        <ele>-0.4</ele>
        <time>2024-05-26T09:19:18Z</time>
      </trkpt>
      <trkpt lat="49.17474" lon="-0.17535">
        <ele>-0.4</ele>
        <time>2024-05-26T09:19:19Z</time>
      </trkpt>
      <trkpt lat="49.17478" lon="-0.17541">
        <ele>-0.2</ele>
        <time>2024-05-26T09:19:20Z</time>
      </trkpt>
      <trkpt lat="49.17482" lon="-0.17548">
        <ele>-0.2</ele>
        <time>2024-05-26T09:19:21Z</time>
      </trkpt>
      <trkpt lat="49.17487" lon="-0.17555">
        <ele>12</ele>
        <time>2024-05-26T09:19:22Z</time>
      </trkpt>
      <trkpt lat="49.17491" lon="-0.17562">
        <ele>0.2</ele>
        <time>2024-05-26T09:19:23Z</time>
      </trkpt>
      <trkpt lat="49.17495" lon="-0.17569">
        <ele>0.4</ele>
        <time>2024-05-26T09:19:24Z</time>
      </trkpt>
      <trkpt lat="49.175" lon="-0.17576">
        <ele>0.6</ele>
        <time>2024-05-26T09:19:25Z</time>
      </trkpt>
      <trkpt lat="49.17504" lon="-0.17582">
        <ele>0.8</ele>
        <time>2024-05-26T09:19:26Z</time>
      </trkpt>
      <trkpt lat="49.17509" lon="-0.17589">
        <ele>1.2</ele>
        <time>2024-05-26T09:19:27Z</time>
      </trkpt>
      <trkpt lat="49.17513" lon="-0.17595">
        <ele>1.4</ele>
        <time>2024-05-26T09:19:28Z</time>
      </trkpt>
      <trkpt lat="49.17518" lon="-0.17601">
        <ele>1.6</ele>
        <time>2024-05-26T09:19:29Z</time>
      </trkpt>
      <trkpt lat="49.17522" lon="-0.17608">
        <ele>1.8</ele>
        <time>2024-05-26T09:19:30Z</time>
      </trkpt>
      <trkpt lat="49.17526" lon="-0.17614">
        <ele>1.8</ele>
        <time>2024-05-26T09:19:31Z</time>
      </trkpt>
      <trkpt lat="49.1753" lon="-0.17621">
        <ele>2</ele>
        <time>2024-05-26T09:19:32Z</time>
      </trkpt>
      <trkpt lat="49.17535" lon="-0.17627">
        <ele>2.4</ele>
        <time>2024-05-26T09:19:33Z</time>
      </trkpt>
      <trkpt lat="49.17539" lon="-0.17634">
        <ele>2.4</ele>
        <time>2024-05-26T09:19:34Z</time>
      </trkpt>
      <trkpt lat="49.17544" lon="-0.1764">
        <ele>2.6</ele>
        <time>2024-05-26T09:19:35Z</time>
      </trkpt>
      <trkpt lat="49.17548" lon="-0.17645">
        <ele>2.6</ele>
        <time>2024-05-26T09:19:36Z</time>
      </trkpt>
      <trkpt lat="49.17553" lon="-0.17651">
        <ele>2.6</ele>
        <time>2024-05-26T09:19:37Z</time>
      </trkpt>
      <trkpt lat="49.17557" lon="-0.17657">
        <ele>2.8</ele>
        <time>2024-05-26T09:19:38Z</time>
      </trkpt>
      <trkpt lat="49.17562" lon="-0.17664">
        <ele>3</ele>
        <time>2024-05-26T09:19:39Z</time>
      </trkpt>
      <trkpt lat="49.17567" lon="-0.1767">
        <ele>3.4</ele>
        <time>2024-05-26T09:19:40Z</time>
      </trkpt>
      <trkpt lat="49.17571" lon="-0.17677">
        <ele>3.4</ele>
        <time>2024-05-26T09:19:41Z</time>
      </trkpt>
      <trkpt lat="49.17575" lon="-0.17683">
        <ele>3.6</ele>
        <time>2024-05-26T09:19:42Z</time>
      </trkpt>
      <trkpt lat="49.1758" lon="-0.17689">
        <ele>3.8</ele>
        <time>2024-05-26T09:19:43Z</time>
      </trkpt>
      <trkpt lat="49.17585" lon="-0.17694">
        <ele>4</ele>
        <time>2024-05-26T09:19:44Z</time>
      </trkpt>
      <trkpt lat="49.17589" lon="-0.177">
        <ele>4</ele>
        <time>2024-05-26T09:19:45Z</time>
      </trkpt>
      <trkpt lat="49.17594" lon="-0.17706">
        <ele>4.2</ele>
        <time>2024-05-26T09:19:46Z</time>
      </trkpt>
      <trkpt lat="49.17599" lon="-0.17711">
        <ele>4.4</ele>
        <time>2024-05-26T09:19:47Z</time>
      </trkpt>
      <trkpt lat="49.17604" lon="-0.17717">
        <ele>4.4</ele>
        <time>2024-05-26T09:19:48Z</time>
      </trkpt>
      <trkpt lat="49.17609" lon="-0.17724">
        <ele>4.6</ele>
        <time>2024-05-26T09:19:49Z</time>
      </trkpt>
      <trkpt lat="49.17614" lon="-0.1773">
        <ele>4.6</ele>
        <time>2024-05-26T09:19:50Z</time>
      </trkpt>
      <trkpt lat="49.17619" lon="-0.17735">
        <ele>4.8</ele>
        <time>2024-05-26T09:19:51Z</time>
      </trkpt>
      <trkpt lat="49.17625" lon="-0.17741">
        <ele>5</ele>
        <time>2024-05-26T09:19:52Z</time>
      </trkpt>
      <trkpt lat="49.17631" lon="-0.17747">
        <ele>5.4</ele>
        <time>2024-05-26T09:19:53Z</time>
      </trkpt>
      <trkpt lat="49.17637" lon="-0.17753">
        <ele>5.8</ele>
        <time>2024-05-26T09:19:54Z</time>
      </trkpt>
      <trkpt lat="49.17643" lon="-0.17759">
        <ele>6</ele>
        <time>2024-05-26T09:19:55Z</time>
      </trkpt>
      <trkpt lat="49.17649" lon="-0.17766">
        <ele>6</ele>
        <time>2024-05-26T09:19:56Z</time>
      </trkpt>
      <trkpt lat="49.17655" lon="-0.17772">
        <ele>6.2</ele>
        <time>2024-05-26T09:19:57Z</time>
      </trkpt>
      <trkpt lat="49.17661" lon="-0.17778">
        <ele>6.4</ele>
        <time>2024-05-26T09:19:58Z</time>
      </trkpt>
      <trkpt lat="49.17668" lon="-0.17784">
        <ele>6.4</ele>
        <time>2024-05-26T09:19:59Z</time>
      </trkpt>
      <trkpt lat="49.17674" lon="-0.1779">
        <ele>6.4</ele>
        <time>2024-05-26T09:20:00Z</time>
      </trkpt>
      <trkpt lat="49.17681" lon="-0.17796">
        <ele>6.4</ele>
        <time>2024-05-26T09:20:01Z</time>
      </trkpt>
      <trkpt lat="49.17687" lon="-0.17803">
        <ele>6.4</ele>
        <time>2024-05-26T09:20:02Z</time>
      </trkpt>
      <trkpt lat="49.17693" lon="-0.1781">
        <ele>6.4</ele>
        <time>2024-05-26T09:20:03Z</time>
      </trkpt>
      <trkpt lat="49.17699" lon="-0.17818">
        <ele>6.4</ele>
        <time>2024-05-26T09:20:04Z</time>
      </trkpt>
      <trkpt lat="49.17705" lon="-0.17825">
        <ele>6.4</ele>
        <time>2024-05-26T09:20:05Z</time>
      </trkpt>
      <trkpt lat="49.17712" lon="-0.17833">
        <ele>6.4</ele>
        <time>2024-05-26T09:20:06Z</time>
      </trkpt>
      <trkpt lat="49.17718" lon="-0.17841">
        <ele>6.2</ele>
        <time>2024-05-26T09:20:07Z</time>
      </trkpt>
      <trkpt lat="49.17724" lon="-0.1785">
        <ele>6.2</ele>
        <time>2024-05-26T09:20:08Z</time>
      </trkpt>
      <trkpt lat="49.1773" lon="-0.17859">
        <ele>6.2</ele>
        <time>2024-05-26T09:20:09Z</time>
      </trkpt>
      <trkpt lat="49.17737" lon="-0.17867">
        <ele>6</ele>
        <time>2024-05-26T09:20:10Z</time>
      </trkpt>
      <trkpt lat="49.17743" lon="-0.17876">
        <ele>6</ele>
        <time>2024-05-26T09:20:11Z</time>
      </trkpt>
      <trkpt lat="49.1775" lon="-0.17884">
        <ele>5.8</ele>
        <time>2024-05-26T09:20:12Z</time>
      </trkpt>
      <trkpt lat="49.17756" lon="-0.17893">
        <ele>5.6</ele>
        <time>2024-05-26T09:20:13Z</time>
      </trkpt>
      <trkpt lat="49.17762" lon="-0.17901">
        <ele>5.4</ele>
        <time>2024-05-26T09:20:14Z</time>
      </trkpt>
      <trkpt lat="49.17769" lon="-0.1791">
        <ele>5.4</ele>
        <time>2024-05-26T09:20:15Z</time>
      </trkpt>
      <trkpt lat="49.17775" lon="-0.17918">
        <ele>5.2</ele>
        <time>2024-05-26T09:20:16Z</time>
      </trkpt>
      <trkpt lat="49.17781" lon="-0.17927">
        <ele>4.6</ele>
        <time>2024-05-26T09:20:17Z</time>
      </trkpt>
      <trkpt lat="49.17788" lon="-0.17935">
        <ele>4.2</ele>
        <time>2024-05-26T09:20:18Z</time>
      </trkpt>
      <trkpt lat="49.17794" lon="-0.17943">
        <ele>4</ele>
        <time>2024-05-26T09:20:19Z</time>
      </trkpt>
      <trkpt lat="49.178" lon="-0.17952">
        <ele>3.8</ele>
        <time>2024-05-26T09:20:20Z</time>
      </trkpt>
      <trkpt lat="49.17806" lon="-0.1796">
        <ele>3.8</ele>
        <time>2024-05-26T09:20:21Z</time>
      </trkpt>
      <trkpt lat="49.17812" lon="-0.17968">
        <ele>3.6</ele>
        <time>2024-05-26T09:20:22Z</time>
      </trkpt>
      <trkpt lat="49.17817" lon="-0.17975">
        <ele>3.6</ele>
        <time>2024-05-26T09:20:23Z</time>
      </trkpt>
      <trkpt lat="49.17822" lon="-0.17982">
        <ele>3.6</ele>
        <time>2024-05-26T09:20:24Z</time>
      </trkpt>
      <trkpt lat="49.17828" lon="-0.17989">
        <ele>3.4</ele>
        <time>2024-05-26T09:20:25Z</time>
      </trkpt>
      <trkpt lat="49.17833" lon="-0.17996">
        <ele>3.4</ele>
        <time>2024-05-26T09:20:26Z</time>
      </trkpt>
      <trkpt lat="49.17838" lon="-0.18002">
        <ele>3.4</ele>
        <time>2024-05-26T09:20:27Z</time>
      </trkpt>
      <trkpt lat="49.17843" lon="-0.18009">
        <ele>3.4</ele>
        <time>2024-05-26T09:20:28Z</time>
      </trkpt>
      <trkpt lat="49.17847" lon="-0.18015">
        <ele>3.4</ele>
        <time>2024-05-26T09:20:29Z</time>
      </trkpt>
      <trkpt lat="49.17852" lon="-0.18021">
        <ele>3.6</ele>
        <time>2024-05-26T09:20:30Z</time>
      </trkpt>
      <trkpt lat="49.17857" lon="-0.18027">
        <ele>3.6</ele>
        <time>2024-05-26T09:20:31Z</time>
      </trkpt>
      <trkpt lat="49.17862" lon="-0.18033">
        <ele>3.8</ele>
        <time>2024-05-26T09:20:32Z</time>
      </trkpt>
      <trkpt lat="49.17867" lon="-0.1804">
        <ele>3.8</ele>
        <time>2024-05-26T09:20:33Z</time>
      </trkpt>
      <trkpt lat="49.17871" lon="-0.18046">
        <ele>4</ele>
        <time>2024-05-26T09:20:34Z</time>
      </trkpt>
      <trkpt lat="49.17876" lon="-0.18051">
        <ele>4.4</ele>
        <time>2024-05-26T09:20:35Z</time>
      </trkpt>
      <trkpt lat="49.17881" lon="-0.18057">
        <ele>4.8</ele>
        <time>2024-05-26T09:20:36Z</time>
      </trkpt>
      <trkpt lat="49.17886" lon="-0.18062">
        <ele>5.2</ele>
        <time>2024-05-26T09:20:37Z</time>
      </trkpt>
      <trkpt lat="49.17891" lon="-0.18067">
        <ele>5.8</ele>
        <time>2024-05-26T09:20:38Z</time>
      </trkpt>
      <trkpt lat="49.17896" lon="-0.18072">
        <ele>6.2</ele>
        <time>2024-05-26T09:20:39Z</time>
      </trkpt>
      <trkpt lat="49.17901" lon="-0.18077">
        <ele>6.4</ele>
        <time>2024-05-26T09:20:40Z</time>
      </trkpt>
      <trkpt lat="49.17906" lon="-0.18082">
        <ele>6.4</ele>
        <time>2024-05-26T09:20:41Z</time>
      </trkpt>
      <trkpt lat="49.17911" lon="-0.18085">
        <ele>6.6</ele>
        <time>2024-05-26T09:20:42Z</time>
      </trkpt>
      <trkpt lat="49.17917" lon="-0.18088">
        <ele>6.6</ele>
        <time>2024-05-26T09:20:43Z</time>
      </trkpt>
      <trkpt lat="49.17923" lon="-0.18091">
        <ele>6.6</ele>
        <time>2024-05-26T09:20:44Z</time>
      </trkpt>
      <trkpt lat="49.17928" lon="-0.18093">
        <ele>6.8</ele>
        <time>2024-05-26T09:20:45Z</time>
      </trkpt>
      <trkpt lat="49.17933" lon="-0.18095">
        <ele>7.4</ele>
        <time>2024-05-26T09:20:46Z</time>
      </trkpt>
      <trkpt lat="49.17939" lon="-0.18097">
        <ele>7.8</ele>
        <time>2024-05-26T09:20:47Z</time>
      </trkpt>
      <trkpt lat="49.17944" lon="-0.18099">
        <ele>8</ele>
        <time>2024-05-26T09:20:48Z</time>
      </trkpt>
      <trkpt lat="49.17949" lon="-0.18101">
        <ele>8.2</ele>
        <time>2024-05-26T09:20:49Z</time>
      </trkpt>
      <trkpt lat="49.17954" lon="-0.18103">
        <ele>8.4</ele>
        <time>2024-05-26T09:20:50Z</time>
      </trkpt>
      <trkpt lat="49.17959" lon="-0.18105">
        <ele>8.4</ele>
        <time>2024-05-26T09:20:51Z</time>
      </trkpt>
      <trkpt lat="49.17963" lon="-0.18107">
        <ele>8.6</ele>
        <time>2024-05-26T09:20:52Z</time>
      </trkpt>
      <trkpt lat="49.17968" lon="-0.18109">
        <ele>8.8</ele>
        <time>2024-05-26T09:20:53Z</time>
      </trkpt>
      <trkpt lat="49.17973" lon="-0.1811">
        <ele>9</ele>
        <time>2024-05-26T09:20:54Z</time>
      </trkpt>
      <trkpt lat="49.17978" lon="-0.18111">
        <ele>9</ele>
        <time>2024-05-26T09:20:55Z</time>
      </trkpt>
      <trkpt lat="49.17984" lon="-0.18113">
        <ele>9.4</ele>
        <time>2024-05-26T09:20:56Z</time>
      </trkpt>
      <trkpt lat="49.17989" lon="-0.18115">
        <ele>10</ele>
        <time>2024-05-26T09:20:57Z</time>
      </trkpt>
      <trkpt lat="49.17995" lon="-0.18116">
        <ele>10.2</ele>
        <time>2024-05-26T09:20:58Z</time>
      </trkpt>
      <trkpt lat="49.18" lon="-0.18117">
        <ele>10.6</ele>
        <time>2024-05-26T09:20:59Z</time>
      </trkpt>
      <trkpt lat="49.18005" lon="-0.18118">
        <ele>11</ele>
        <time>2024-05-26T09:21:00Z</time>
      </trkpt>
      <trkpt lat="49.1801" lon="-0.18119">
        <ele>11.4</ele>
        <time>2024-05-26T09:21:01Z</time>
      </trkpt>
      <trkpt lat="49.18015" lon="-0.1812">
        <ele>11.8</ele>
        <time>2024-05-26T09:21:02Z</time>
      </trkpt>
      <trkpt lat="49.1802" lon="-0.18121">
        <ele>12.2</ele>
        <time>2024-05-26T09:21:03Z</time>
      </trkpt>
      <trkpt lat="49.18025" lon="-0.18121">
        <ele>12.6</ele>
        <time>2024-05-26T09:21:04Z</time>
      </trkpt>
      <trkpt lat="49.1803" lon="-0.18122">
        <ele>12.6</ele>
        <time>2024-05-26T09:21:05Z</time>
      </trkpt>
      <trkpt lat="49.18035" lon="-0.18121">
        <ele>13</ele>
        <time>2024-05-26T09:21:06Z</time>
      </trkpt>
      <trkpt lat="49.18039" lon="-0.18121">
        <ele>13.2</ele>
        <time>2024-05-26T09:21:07Z</time>
      </trkpt>
      <trkpt lat="49.18044" lon="-0.18121">
        <ele>13.4</ele>
        <time>2024-05-26T09:21:08Z</time>
      </trkpt>
      <trkpt lat="49.18049" lon="-0.1812">
        <ele>13.6</ele>
        <time>2024-05-26T09:21:09Z</time>
      </trkpt>
      <trkpt lat="49.18054" lon="-0.1812">
        <ele>13.8</ele>
        <time>2024-05-26T09:21:10Z</time>
      </trkpt>
      <trkpt lat="49.18059" lon="-0.1812">
        <ele>14.2</ele>
        <time>2024-05-26T09:21:11Z</time>
      </trkpt>
      <trkpt lat="49.18064" lon="-0.1812">
        <ele>14.4</ele>
        <time>2024-05-26T09:21:12Z</time>
      </trkpt>
      <trkpt lat="49.1807" lon="-0.18121">
        <ele>15</ele>
        <time>2024-05-26T09:21:13Z</time>
      </trkpt>
      <trkpt lat="49.18075" lon="-0.18121">
        <ele>15.4</ele>
        <time>2024-05-26T09:21:14Z</time>
      </trkpt>
      <trkpt lat="49.1808" lon="-0.18122">
        <ele>15.8</ele>
        <time>2024-05-26T09:21:15Z</time>
      </trkpt>
      <trkpt lat="49.18085" lon="-0.18122">
        <ele>16.2</ele>
        <time>2024-05-26T09:21:16Z</time>
      </trkpt>
      <trkpt lat="49.1809" lon="-0.18122">
        <ele>16.8</ele>
        <time>2024-05-26T09:21:17Z</time>
      </trkpt>
      <trkpt lat="49.18095" lon="-0.18122">
        <ele>17.2</ele>
        <time>2024-05-26T09:21:18Z</time>
      </trkpt>
      <trkpt lat="49.181" lon="-0.18122">
        <ele>17.6</ele>
        <time>2024-05-26T09:21:19Z</time>
      </trkpt>
      <trkpt lat="49.18105" lon="-0.18121">
        <ele>18</ele>
        <time>2024-05-26T09:21:20Z</time>
      </trkpt>
      <trkpt lat="49.1811" lon="-0.18122">
        <ele>18.4</ele>
        <time>2024-05-26T09:21:21Z</time>
      </trkpt>
      <trkpt lat="49.18115" lon="-0.18122">
        <ele>18.6</ele>
        <time>2024-05-26T09:21:22Z</time>
      </trkpt>
      <trkpt lat="49.1812" lon="-0.18123">
        <ele>19</ele>
        <time>2024-05-26T09:21:23Z</time>
      </trkpt>
      <trkpt lat="49.18126" lon="-0.18123">
        <ele>19.4</ele>
        <time>2024-05-26T09:21:24Z</time>
      </trkpt>
      <trkpt lat="49.18131" lon="-0.18123">
        <ele>19.8</ele>
        <time>2024-05-26T09:21:25Z</time>
      </trkpt>
      <trkpt lat="49.18136" lon="-0.18123">
        <ele>20</ele>
        <time>2024-05-26T09:21:26Z</time>
      </trkpt>
      <trkpt lat="49.18141" lon="-0.18122">
        <ele>20</ele>
        <time>2024-05-26T09:21:27Z</time>
      </trkpt>
      <trkpt lat="49.18147" lon="-0.18122">
        <ele>20.2</ele>
        <time>2024-05-26T09:21:28Z</time>
      </trkpt>
      <trkpt lat="49.18152" lon="-0.18121">
        <ele>20.4</ele>
        <time>2024-05-26T09:21:29Z</time>
      </trkpt>
      <trkpt lat="49.18157" lon="-0.18121">
        <ele>20.8</ele>
        <time>2024-05-26T09:21:30Z</time>
      </trkpt>
      <trkpt lat="49.18163" lon="-0.18121">
        <ele>21</ele>
        <time>2024-05-26T09:21:31Z</time>
      </trkpt>
      <trkpt lat="49.18168" lon="-0.18122">
        <ele>21.4</ele>
        <time>2024-05-26T09:21:32Z</time>
      </trkpt>
      <trkpt lat="49.18173" lon="-0.18124">
        <ele>21.8</ele>
        <time>2024-05-26T09:21:33Z</time>
      </trkpt>
      <trkpt lat="49.18178" lon="-0.18125">
        <ele>22</ele>
        <time>2024-05-26T09:21:34Z</time>
      </trkpt>
      <trkpt lat="49.18183" lon="-0.18126">
        <ele>22.2</ele>
        <time>2024-05-26T09:21:35Z</time>
      </trkpt>
      <trkpt lat="49.18188" lon="-0.18128">
        <ele>22.4</ele>
        <time>2024-05-26T09:21:36Z</time>
      </trkpt>
      <trkpt lat="49.18194" lon="-0.18129">
        <ele>22.6</ele>
        <time>2024-05-26T09:21:37Z</time>
      </trkpt>
      <trkpt lat="49.18199" lon="-0.1813">
        <ele>22.8</ele>
        <time>2024-05-26T09:21:38Z</time>
      </trkpt>
      <trkpt lat="49.18204" lon="-0.18131">
        <ele>22.8</ele>
        <time>2024-05-26T09:21:39Z</time>
      </trkpt>
      <trkpt lat="49.18209" lon="-0.18132">
        <ele>23</ele>
        <time>2024-05-26T09:21:40Z</time>
      </trkpt>
      <trkpt lat="49.18214" lon="-0.18133">
        <ele>23</ele>
        <time>2024-05-26T09:21:41Z</time>
      </trkpt>
      <trkpt lat="49.18219" lon="-0.18133">
        <ele>23</ele>
        <time>2024-05-26T09:21:42Z</time>
      </trkpt>
      <trkpt lat="49.18224" lon="-0.18134">
        <ele>23.2</ele>
        <time>2024-05-26T09:21:43Z</time>
      </trkpt>
      <trkpt lat="49.18228" lon="-0.18135">
        <ele>23.2</ele>
        <time>2024-05-26T09:21:44Z</time>
      </trkpt>
      <trkpt lat="49.18231" lon="-0.18136">
        <ele>23.2</ele>
        <time>2024-05-26T09:21:45Z</time>
      </trkpt>
      <trkpt lat="49.18233" lon="-0.18137">
        <ele>23.2</ele>
        <time>2024-05-26T09:21:46Z</time>
      </trkpt>
      <trkpt lat="49.18235" lon="-0.18138">
        <ele>23.2</ele>
        <time>2024-05-26T09:21:47Z</time>
      </trkpt>
      <trkpt lat="49.18236" lon="-0.18138">
        <ele>23.2</ele>
        <time>2024-05-26T09:21:48Z</time>
      </trkpt>
      <trkpt lat="49.18236" lon="-0.18138">
        <ele>23.2</ele>
        <time>2024-05-26T09:21:49Z</time>
      </trkpt>
      <trkpt lat="49.18243" lon="-0.1814">
        <ele>23.6</ele>
        <time>2024-05-26T09:22:15Z</time>
      </trkpt>
      <trkpt lat="49.18246" lon="-0.18141">
        <ele>23.6</ele>
        <time>2024-05-26T09:22:16Z</time>
      </trkpt>
      <trkpt lat="49.18248" lon="-0.18142">
        <ele>23.6</ele>
        <time>2024-05-26T09:22:17Z</time>
      </trkpt>
      <trkpt lat="49.18251" lon="-0.18143">
        <ele>23.6</ele>
        <time>2024-05-26T09:22:18Z</time>
      </trkpt>
      <trkpt lat="49.18255" lon="-0.18144">
        <ele>23.4</ele>
        <time>2024-05-26T09:22:19Z</time>
      </trkpt>
      <trkpt lat="49.18258" lon="-0.18145">
        <ele>23.4</ele>
        <time>2024-05-26T09:22:20Z</time>
      </trkpt>
      <trkpt lat="49.18262" lon="-0.18145">
        <ele>23.4</ele>
        <time>2024-05-26T09:22:21Z</time>
      </trkpt>
      <trkpt lat="49.18268" lon="-0.18146">
        <ele>23.4</ele>
        <time>2024-05-26T09:22:22Z</time>
      </trkpt>
      <trkpt lat="49.18272" lon="-0.18147">
        <ele>23.2</ele>
        <time>2024-05-26T09:22:23Z</time>
      </trkpt>
      <trkpt lat="49.18277" lon="-0.18148">
        <ele>23.2</ele>
        <time>2024-05-26T09:22:24Z</time>
      </trkpt>
      <trkpt lat="49.18284" lon="-0.1815">
        <ele>23.2</ele>
        <time>2024-05-26T09:22:25Z</time>
      </trkpt>
      <trkpt lat="49.18289" lon="-0.18151">
        <ele>23.2</ele>
        <time>2024-05-26T09:22:26Z</time>
      </trkpt>
      <trkpt lat="49.18295" lon="-0.18153">
        <ele>23</ele>
        <time>2024-05-26T09:22:27Z</time>
      </trkpt>
      <trkpt lat="49.18302" lon="-0.18155">
        <ele>23</ele>
        <time>2024-05-26T09:22:28Z</time>
      </trkpt>
      <trkpt lat="49.18309" lon="-0.18157">
        <ele>23</ele>
        <time>2024-05-26T09:22:29Z</time>
      </trkpt>
      <trkpt lat="49.18316" lon="-0.18158">
        <ele>23</ele>
        <time>2024-05-26T09:22:30Z</time>
      </trkpt>
      <trkpt lat="49.18325" lon="-0.1816">
        <ele>22.6</ele>
        <time>2024-05-26T09:22:31Z</time>
      </trkpt>
      <trkpt lat="49.18332" lon="-0.18161">
        <ele>22.4</ele>
        <time>2024-05-26T09:22:32Z</time>
      </trkpt>
      <trkpt lat="49.1834" lon="-0.18164">
        <ele>21.8</ele>
        <time>2024-05-26T09:22:33Z</time>
      </trkpt>
      <trkpt lat="49.1835" lon="-0.18166">
        <ele>21.8</ele>
        <time>2024-05-26T09:22:34Z</time>
      </trkpt>
      <trkpt lat="49.18357" lon="-0.18168">
        <ele>21</ele>
        <time>2024-05-26T09:22:35Z</time>
      </trkpt>
      <trkpt lat="49.18367" lon="-0.18171">
        <ele>20.2</ele>
        <time>2024-05-26T09:22:36Z</time>
      </trkpt>
      <trkpt lat="49.18377" lon="-0.18173">
        <ele>19.6</ele>
        <time>2024-05-26T09:22:37Z</time>
      </trkpt>
      <trkpt lat="49.18388" lon="-0.18175">
        <ele>19</ele>
        <time>2024-05-26T09:22:38Z</time>
      </trkpt>
      <trkpt lat="49.18398" lon="-0.18178">
        <ele>18.4</ele>
        <time>2024-05-26T09:22:39Z</time>
      </trkpt>
      <trkpt lat="49.18409" lon="-0.1818">
        <ele>17.8</ele>
        <time>2024-05-26T09:22:40Z</time>
      </trkpt>
      <trkpt lat="49.1842" lon="-0.18183">
        <ele>17.4</ele>
        <time>2024-05-26T09:22:41Z</time>
      </trkpt>
      <trkpt lat="49.18431" lon="-0.18187">
        <ele>17.2</ele>
        <time>2024-05-26T09:22:42Z</time>
      </trkpt>
      <trkpt lat="49.18442" lon="-0.1819">
        <ele>16.8</ele>
        <time>2024-05-26T09:22:43Z</time>
      </trkpt>
      <trkpt lat="49.18454" lon="-0.18192">
        <ele>16.4</ele>
        <time>2024-05-26T09:22:44Z</time>
      </trkpt>
      <trkpt lat="49.18466" lon="-0.18193">
        <ele>15.8</ele>
        <time>2024-05-26T09:22:45Z</time>
      </trkpt>
      <trkpt lat="49.18478" lon="-0.18192">
        <ele>15.2</ele>
        <time>2024-05-26T09:22:46Z</time>
      </trkpt>
      <trkpt lat="49.1849" lon="-0.1819">
        <ele>14</ele>
        <time>2024-05-26T09:22:47Z</time>
      </trkpt>
      <trkpt lat="49.18501" lon="-0.18185">
        <ele>13</ele>
        <time>2024-05-26T09:22:48Z</time>
      </trkpt>
      <trkpt lat="49.18512" lon="-0.18177">
        <ele>12</ele>
        <time>2024-05-26T09:22:49Z</time>
      </trkpt>
      <trkpt lat="49.18522" lon="-0.18167">
        <ele>11</ele>
        <time>2024-05-26T09:22:50Z</time>
      </trkpt>
      <trkpt lat="49.18531" lon="-0.18156">
        <ele>10.4</ele>
        <time>2024-05-26T09:22:51Z</time>
      </trkpt>
      <trkpt lat="49.1854" lon="-0.18143">
        <ele>10</ele>
        <time>2024-05-26T09:22:52Z</time>
      </trkpt>
      <trkpt lat="49.18547" lon="-0.1813">
        <ele>9.2</ele>
        <time>2024-05-26T09:22:53Z</time>
      </trkpt>
      <trkpt lat="49.18555" lon="-0.18117">
        <ele>8.4</ele>
        <time>2024-05-26T09:22:54Z</time>
      </trkpt>
      <trkpt lat="49.18562" lon="-0.18103">
        <ele>8</ele>
        <time>2024-05-26T09:22:55Z</time>
      </trkpt>
      <trkpt lat="49.18569" lon="-0.18089">
        <ele>6.4</ele>
        <time>2024-05-26T09:22:56Z</time>
      </trkpt>
      <trkpt lat="49.18576" lon="-0.18075">
        <ele>6.4</ele>
        <time>2024-05-26T09:22:57Z</time>
      </trkpt>
      <trkpt lat="49.18582" lon="-0.1806">
        <ele>5.2</ele>
        <time>2024-05-26T09:22:58Z</time>
      </trkpt>
      <trkpt lat="49.1859" lon="-0.18042">
        <ele>4</ele>
        <time>2024-05-26T09:22:59Z</time>
      </trkpt>
      <trkpt lat="49.18594" lon="-0.1803">
        <ele>2.6</ele>
        <time>2024-05-26T09:23:00Z</time>
      </trkpt>
      <trkpt lat="49.186" lon="-0.18015">
        <ele>1.6</ele>
        <time>2024-05-26T09:23:01Z</time>
      </trkpt>
      <trkpt lat="49.18607" lon="-0.17997">
        <ele>1</ele>
        <time>2024-05-26T09:23:02Z</time>
      </trkpt>
      <trkpt lat="49.18612" lon="-0.17985">
        <ele>0.6</ele>
        <time>2024-05-26T09:23:03Z</time>
      </trkpt>
      <trkpt lat="49.18618" lon="-0.17971">
        <ele>-0.2</ele>
        <time>2024-05-26T09:23:04Z</time>
      </trkpt>
      <trkpt lat="49.18625" lon="-0.17955">
        <ele>-0.6</ele>
        <time>2024-05-26T09:23:05Z</time>
      </trkpt>
      <trkpt lat="49.1863" lon="-0.17944">
        <ele>-1</ele>
        <time>2024-05-26T09:23:06Z</time>
      </trkpt>
      <trkpt lat="49.18637" lon="-0.17932">
        <ele>-1.8</ele>
        <time>2024-05-26T09:23:07Z</time>
      </trkpt>
      <trkpt lat="49.18644" lon="-0.17921">
        <ele>-2.6</ele>
        <time>2024-05-26T09:23:08Z</time>
      </trkpt>
      <trkpt lat="49.18652" lon="-0.17911">
        <ele>-3</ele>
        <time>2024-05-26T09:23:09Z</time>
      </trkpt>
      <trkpt lat="49.18661" lon="-0.17903">
        <ele>-3.4</ele>
        <time>2024-05-26T09:23:10Z</time>
      </trkpt>
      <trkpt lat="49.18669" lon="-0.17895">
        <ele>-3.8</ele>
        <time>2024-05-26T09:23:11Z</time>
      </trkpt>
      <trkpt lat="49.18678" lon="-0.17889">
        <ele>-4.6</ele>
        <time>2024-05-26T09:23:12Z</time>
      </trkpt>
      <trkpt lat="49.18687" lon="-0.17883">
        <ele>-5</ele>
        <time>2024-05-26T09:23:13Z</time>
      </trkpt>
      <trkpt lat="49.18696" lon="-0.17878">
        <ele>-5.4</ele>
        <time>2024-05-26T09:23:14Z</time>
      </trkpt>
      <trkpt lat="49.18707" lon="-0.17871">
        <ele>-5.6</ele>
        <time>2024-05-26T09:23:15Z</time>
      </trkpt>
      <trkpt lat="49.18714" lon="-0.17867">
        <ele>-5.6</ele>
        <time>2024-05-26T09:23:16Z</time>
      </trkpt>
      <trkpt lat="49.18723" lon="-0.17861">
        <ele>-5.8</ele>
        <time>2024-05-26T09:23:17Z</time>
      </trkpt>
      <trkpt lat="49.18732" lon="-0.17856">
        <ele>-5.8</ele>
        <time>2024-05-26T09:23:18Z</time>
      </trkpt>
      <trkpt lat="49.18741" lon="-0.17852">
        <ele>-6</ele>
        <time>2024-05-26T09:23:19Z</time>
      </trkpt>
      <trkpt lat="49.18751" lon="-0.17848">
        <ele>-6</ele>
        <time>2024-05-26T09:23:20Z</time>
      </trkpt>
      <trkpt lat="49.1876" lon="-0.17845">
        <ele>-6.2</ele>
        <time>2024-05-26T09:23:21Z</time>
      </trkpt>
      <trkpt lat="49.18769" lon="-0.17842">
        <ele>-6.2</ele>
        <time>2024-05-26T09:23:22Z</time>
      </trkpt>
      <trkpt lat="49.18778" lon="-0.1784">
        <ele>-6.2</ele>
        <time>2024-05-26T09:23:23Z</time>
      </trkpt>
      <trkpt lat="49.18787" lon="-0.17839">
        <ele>-6.2</ele>
        <time>2024-05-26T09:23:24Z</time>
      </trkpt>
      <trkpt lat="49.18797" lon="-0.17838">
        <ele>-6.2</ele>
        <time>2024-05-26T09:23:25Z</time>
      </trkpt>
      <trkpt lat="49.18806" lon="-0.17837">
        <ele>-6.2</ele>
        <time>2024-05-26T09:23:26Z</time>
      </trkpt>
      <trkpt lat="49.18816" lon="-0.17835">
        <ele>-6.2</ele>
        <time>2024-05-26T09:23:27Z</time>
      </trkpt>
      <trkpt lat="49.18825" lon="-0.17834">
        <ele>-6.2</ele>
        <time>2024-05-26T09:23:28Z</time>
      </trkpt>
      <trkpt lat="49.18834" lon="-0.17833">
        <ele>-6.2</ele>
        <time>2024-05-26T09:23:29Z</time>
      </trkpt>
      <trkpt lat="49.18843" lon="-0.17832">
        <ele>-6.2</ele>
        <time>2024-05-26T09:23:30Z</time>
      </trkpt>
      <trkpt lat="49.18851" lon="-0.17831">
        <ele>-6.2</ele>
        <time>2024-05-26T09:23:31Z</time>
      </trkpt>
      <trkpt lat="49.1886" lon="-0.1783">
        <ele>-6</ele>
        <time>2024-05-26T09:23:32Z</time>
      </trkpt>
      <trkpt lat="49.18869" lon="-0.17829">
        <ele>-6</ele>
        <time>2024-05-26T09:23:33Z</time>
      </trkpt>
      <trkpt lat="49.18878" lon="-0.17828">
        <ele>-6</ele>
        <time>2024-05-26T09:23:34Z</time>
      </trkpt>
      <trkpt lat="49.18886" lon="-0.17827">
        <ele>-5.8</ele>
        <time>2024-05-26T09:23:35Z</time>
      </trkpt>
      <trkpt lat="49.18895" lon="-0.17826">
        <ele>-5.8</ele>
        <time>2024-05-26T09:23:36Z</time>
      </trkpt>
      <trkpt lat="49.18903" lon="-0.17827">
        <ele>-5.8</ele>
        <time>2024-05-26T09:23:37Z</time>
      </trkpt>
      <trkpt lat="49.18912" lon="-0.17827">
        <ele>-5.6</ele>
        <time>2024-05-26T09:23:38Z</time>
      </trkpt>
      <trkpt lat="49.18921" lon="-0.17827">
        <ele>-5.6</ele>
        <time>2024-05-26T09:23:39Z</time>
      </trkpt>
      <trkpt lat="49.1893" lon="-0.17827">
        <ele>-5.6</ele>
        <time>2024-05-26T09:23:40Z</time>
      </trkpt>
      <trkpt lat="49.18938" lon="-0.17827">
        <ele>-5.4</ele>
        <time>2024-05-26T09:23:41Z</time>
      </trkpt>
      <trkpt lat="49.18947" lon="-0.17827">
        <ele>-5.4</ele>
        <time>2024-05-26T09:23:42Z</time>
      </trkpt>
      <trkpt lat="49.18956" lon="-0.17827">
        <ele>-5.4</ele>
        <time>2024-05-26T09:23:43Z</time>
      </trkpt>
      <trkpt lat="49.18963" lon="-0.17827">
        <ele>-5.4</ele>
        <time>2024-05-26T09:23:44Z</time>
      </trkpt>
      <trkpt lat="49.18973" lon="-0.17828">
        <ele>-5.4</ele>
        <time>2024-05-26T09:23:45Z</time>
      </trkpt>
      <trkpt lat="49.18981" lon="-0.17828">
        <ele>-5.4</ele>
        <time>2024-05-26T09:23:46Z</time>
      </trkpt>
      <trkpt lat="49.18989" lon="-0.17829">
        <ele>-5.2</ele>
        <time>2024-05-26T09:23:47Z</time>
      </trkpt>
      <trkpt lat="49.18997" lon="-0.17829">
        <ele>-5.2</ele>
        <time>2024-05-26T09:23:48Z</time>
      </trkpt>
      <trkpt lat="49.19005" lon="-0.17829">
        <ele>-5.2</ele>
        <time>2024-05-26T09:23:49Z</time>
      </trkpt>
      <trkpt lat="49.19013" lon="-0.17829">
        <ele>-5</ele>
        <time>2024-05-26T09:23:50Z</time>
      </trkpt>
      <trkpt lat="49.19022" lon="-0.17827">
        <ele>-5</ele>
        <time>2024-05-26T09:23:51Z</time>
      </trkpt>
      <trkpt lat="49.1903" lon="-0.17825">
        <ele>-5</ele>
        <time>2024-05-26T09:23:52Z</time>
      </trkpt>
      <trkpt lat="49.19038" lon="-0.17823">
        <ele>-5</ele>
        <time>2024-05-26T09:23:53Z</time>
      </trkpt>
      <trkpt lat="49.19046" lon="-0.17819">
        <ele>-5.2</ele>
        <time>2024-05-26T09:23:54Z</time>
      </trkpt>
      <trkpt lat="49.19053" lon="-0.17815">
        <ele>-5.2</ele>
        <time>2024-05-26T09:23:55Z</time>
      </trkpt>
      <trkpt lat="49.19058" lon="-0.17812">
        <ele>-5.2</ele>
        <time>2024-05-26T09:23:56Z</time>
      </trkpt>
      <trkpt lat="49.19067" lon="-0.17807">
        <ele>-5.2</ele>
        <time>2024-05-26T09:23:57Z</time>
      </trkpt>
      <trkpt lat="49.19074" lon="-0.17802">
        <ele>-5.2</ele>
        <time>2024-05-26T09:23:58Z</time>
      </trkpt>
      <trkpt lat="49.19079" lon="-0.17799">
        <ele>-5.2</ele>
        <time>2024-05-26T09:23:59Z</time>
      </trkpt>
      <trkpt lat="49.19088" lon="-0.17794">
        <ele>-5.2</ele>
        <time>2024-05-26T09:24:00Z</time>
      </trkpt>
      <trkpt lat="49.19095" lon="-0.1779">
        <ele>-5.2</ele>
        <time>2024-05-26T09:24:01Z</time>
      </trkpt>
      <trkpt lat="49.19104" lon="-0.17786">
        <ele>-5</ele>
        <time>2024-05-26T09:24:02Z</time>
      </trkpt>
      <trkpt lat="49.1911" lon="-0.17783">
        <ele>-4.8</ele>
        <time>2024-05-26T09:24:03Z</time>
      </trkpt>
      <trkpt lat="49.19118" lon="-0.17781">
        <ele>-4.8</ele>
        <time>2024-05-26T09:24:04Z</time>
      </trkpt>
      <trkpt lat="49.19126" lon="-0.17779">
        <ele>-4.4</ele>
        <time>2024-05-26T09:24:05Z</time>
      </trkpt>
      <trkpt lat="49.19134" lon="-0.17777">
        <ele>-3.8</ele>
        <time>2024-05-26T09:24:06Z</time>
      </trkpt>
      <trkpt lat="49.19141" lon="-0.17775">
        <ele>-3.8</ele>
        <time>2024-05-26T09:24:07Z</time>
      </trkpt>
      <trkpt lat="49.19149" lon="-0.17773">
        <ele>-3.4</ele>
        <time>2024-05-26T09:24:08Z</time>
      </trkpt>
      <trkpt lat="49.19156" lon="-0.17771">
        <ele>-3.2</ele>
        <time>2024-05-26T09:24:09Z</time>
      </trkpt>
      <trkpt lat="49.19163" lon="-0.17769">
        <ele>-3.2</ele>
        <time>2024-05-26T09:24:10Z</time>
      </trkpt>
      <trkpt lat="49.19171" lon="-0.17766">
        <ele>-3</ele>
        <time>2024-05-26T09:24:11Z</time>
      </trkpt>
      <trkpt lat="49.19178" lon="-0.17765">
        <ele>-2.8</ele>
        <time>2024-05-26T09:24:12Z</time>
      </trkpt>
      <trkpt lat="49.19184" lon="-0.17763">
        <ele>-2.6</ele>
        <time>2024-05-26T09:24:13Z</time>
      </trkpt>
      <trkpt lat="49.19192" lon="-0.17762">
        <ele>-2.6</ele>
        <time>2024-05-26T09:24:14Z</time>
      </trkpt>
      <trkpt lat="49.19201" lon="-0.17759">
        <ele>-2.6</ele>
        <time>2024-05-26T09:24:15Z</time>
      </trkpt>
      <trkpt lat="49.19208" lon="-0.17756">
        <ele>-2.4</ele>
        <time>2024-05-26T09:24:16Z</time>
      </trkpt>
      <trkpt lat="49.19214" lon="-0.17754">
        <ele>-2.4</ele>
        <time>2024-05-26T09:24:17Z</time>
      </trkpt>
      <trkpt lat="49.19222" lon="-0.17751">
        <ele>-2.4</ele>
        <time>2024-05-26T09:24:18Z</time>
      </trkpt>
      <trkpt lat="49.19229" lon="-0.17749">
        <ele>-2.2</ele>
        <time>2024-05-26T09:24:19Z</time>
      </trkpt>
      <trkpt lat="49.19236" lon="-0.17746">
        <ele>-2.2</ele>
        <time>2024-05-26T09:24:20Z</time>
      </trkpt>
      <trkpt lat="49.19243" lon="-0.17743">
        <ele>-2.2</ele>
        <time>2024-05-26T09:24:21Z</time>
      </trkpt>
      <trkpt lat="49.1925" lon="-0.1774">
        <ele>-1.8</ele>
        <time>2024-05-26T09:24:22Z</time>
      </trkpt>
      <trkpt lat="49.19257" lon="-0.17737">
        <ele>-1.4</ele>
        <time>2024-05-26T09:24:23Z</time>
      </trkpt>
      <trkpt lat="49.19265" lon="-0.17734">
        <ele>-1.2</ele>
        <time>2024-05-26T09:24:24Z</time>
      </trkpt>
      <trkpt lat="49.19273" lon="-0.17729">
        <ele>-1</ele>
        <time>2024-05-26T09:24:25Z</time>
      </trkpt>
      <trkpt lat="49.1928" lon="-0.17726">
        <ele>-1</ele>
        <time>2024-05-26T09:24:26Z</time>
      </trkpt>
      <trkpt lat="49.19288" lon="-0.17722">
        <ele>-0.8</ele>
        <time>2024-05-26T09:24:27Z</time>
      </trkpt>
      <trkpt lat="49.19294" lon="-0.1772">
        <ele>-0.8</ele>
        <time>2024-05-26T09:24:28Z</time>
      </trkpt>
      <trkpt lat="49.19301" lon="-0.17716">
        <ele>-0.6</ele>
        <time>2024-05-26T09:24:29Z</time>
      </trkpt>
      <trkpt lat="49.1931" lon="-0.17712">
        <ele>-0.6</ele>
        <time>2024-05-26T09:24:30Z</time>
      </trkpt>
      <trkpt lat="49.19318" lon="-0.17709">
        <ele>-0.4</ele>
        <time>2024-05-26T09:24:31Z</time>
      </trkpt>
      <trkpt lat="49.19325" lon="-0.17706">
        <ele>10.8</ele>
        <time>2024-05-26T09:24:32Z</time>
      </trkpt>
      <trkpt lat="49.19333" lon="-0.17703">
        <ele>0.2</ele>
        <time>2024-05-26T09:24:33Z</time>
      </trkpt>
      <trkpt lat="49.19338" lon="-0.17701">
        <ele>0.6</ele>
        <time>2024-05-26T09:24:34Z</time>
      </trkpt>
      <trkpt lat="49.19346" lon="-0.17698">
        <ele>0.8</ele>
        <time>2024-05-26T09:24:35Z</time>
      </trkpt>
      <trkpt lat="49.19354" lon="-0.17695">
        <ele>1</ele>
        <time>2024-05-26T09:24:36Z</time>
      </trkpt>
      <trkpt lat="49.19361" lon="-0.17692">
        <ele>1</ele>
        <time>2024-05-26T09:24:37Z</time>
      </trkpt>
      <trkpt lat="49.19369" lon="-0.1769">
        <ele>1.2</ele>
        <time>2024-05-26T09:24:38Z</time>
      </trkpt>
      <trkpt lat="49.19376" lon="-0.17689">
        <ele>1.4</ele>
        <time>2024-05-26T09:24:39Z</time>
      </trkpt>
      <trkpt lat="49.19383" lon="-0.17687">
        <ele>1.4</ele>
        <time>2024-05-26T09:24:40Z</time>
      </trkpt>
      <trkpt lat="49.1939" lon="-0.17685">
        <ele>1.6</ele>
        <time>2024-05-26T09:24:41Z</time>
      </trkpt>
      <trkpt lat="49.19398" lon="-0.17684">
        <ele>2</ele>
        <time>2024-05-26T09:24:42Z</time>
      </trkpt>
      <trkpt lat="49.19405" lon="-0.17682">
        <ele>2.2</ele>
        <time>2024-05-26T09:24:43Z</time>
      </trkpt>
      <trkpt lat="49.19413" lon="-0.17681">
        <ele>2.4</ele>
        <time>2024-05-26T09:24:44Z</time>
      </trkpt>
      <trkpt lat="49.19421" lon="-0.1768">
        <ele>2.6</ele>
        <time>2024-05-26T09:24:45Z</time>
      </trkpt>
      <trkpt lat="49.19429" lon="-0.17679">
        <ele>2.8</ele>
        <time>2024-05-26T09:24:46Z</time>
      </trkpt>
      <trkpt lat="49.19436" lon="-0.17677">
        <ele>3</ele>
        <time>2024-05-26T09:24:47Z</time>
      </trkpt>
      <trkpt lat="49.19443" lon="-0.17674">
        <ele>3.2</ele>
        <time>2024-05-26T09:24:48Z</time>
      </trkpt>
      <trkpt lat="49.1945" lon="-0.17672">
        <ele>3.4</ele>
        <time>2024-05-26T09:24:49Z</time>
      </trkpt>
      <trkpt lat="49.19457" lon="-0.1767">
        <ele>3.6</ele>
        <time>2024-05-26T09:24:50Z</time>
      </trkpt>
      <trkpt lat="49.19464" lon="-0.17668">
        <ele>3.6</ele>
        <time>2024-05-26T09:24:51Z</time>
      </trkpt>
      <trkpt lat="49.19471" lon="-0.17666">
        <ele>3.8</ele>
        <time>2024-05-26T09:24:52Z</time>
      </trkpt>
      <trkpt lat="49.19478" lon="-0.17664">
        <ele>3.8</ele>
        <time>2024-05-26T09:24:53Z</time>
      </trkpt>
      <trkpt lat="49.19485" lon="-0.17662">
        <ele>3.8</ele>
        <time>2024-05-26T09:24:54Z</time>
      </trkpt>
      <trkpt lat="49.19493" lon="-0.1766">
        <ele>4</ele>
        <time>2024-05-26T09:24:55Z</time>
      </trkpt>
      <trkpt lat="49.195" lon="-0.17659">
        <ele>4</ele>
        <time>2024-05-26T09:24:56Z</time>
      </trkpt>
      <trkpt lat="49.19508" lon="-0.17656">
        <ele>4.2</ele>
        <time>2024-05-26T09:24:57Z</time>
      </trkpt>
      <trkpt lat="49.19514" lon="-0.17655">
        <ele>4.2</ele>
        <time>2024-05-26T09:24:58Z</time>
      </trkpt>
      <trkpt lat="49.19522" lon="-0.17653">
        <ele>4.8</ele>
        <time>2024-05-26T09:24:59Z</time>
      </trkpt>
      <trkpt lat="49.19529" lon="-0.17651">
        <ele>5</ele>
        <time>2024-05-26T09:25:00Z</time>
      </trkpt>
      <trkpt lat="49.19537" lon="-0.1765">
        <ele>5.2</ele>
        <time>2024-05-26T09:25:01Z</time>
      </trkpt>
      <trkpt lat="49.19544" lon="-0.17648">
        <ele>5.2</ele>
        <time>2024-05-26T09:25:02Z</time>
      </trkpt>
      <trkpt lat="49.19551" lon="-0.17647">
        <ele>5.4</ele>
        <time>2024-05-26T09:25:03Z</time>
      </trkpt>
      <trkpt lat="49.19557" lon="-0.17646">
        <ele>5.4</ele>
        <time>2024-05-26T09:25:04Z</time>
      </trkpt>
      <trkpt lat="49.19564" lon="-0.17645">
        <ele>5.4</ele>
        <time>2024-05-26T09:25:05Z</time>
      </trkpt>
      <trkpt lat="49.19571" lon="-0.17644">
        <ele>5.4</ele>
        <time>2024-05-26T09:25:06Z</time>
      </trkpt>
      <trkpt lat="49.19579" lon="-0.17644">
        <ele>5.6</ele>
        <time>2024-05-26T09:25:07Z</time>
      </trkpt>
      <trkpt lat="49.19586" lon="-0.17645">
        <ele>5.6</ele>
        <time>2024-05-26T09:25:08Z</time>
      </trkpt>
      <trkpt lat="49.19593" lon="-0.17645">
        <ele>5.6</ele>
        <time>2024-05-26T09:25:09Z</time>
      </trkpt>
      <trkpt lat="49.196" lon="-0.17646">
        <ele>5.8</ele>
        <time>2024-05-26T09:25:10Z</time>
      </trkpt>
      <trkpt lat="49.19607" lon="-0.17647">
        <ele>5.8</ele>
        <time>2024-05-26T09:25:11Z</time>
      </trkpt>
      <trkpt lat="49.19614" lon="-0.17647">
        <ele>6</ele>
        <time>2024-05-26T09:25:12Z</time>
      </trkpt>
      <trkpt lat="49.19621" lon="-0.17648">
        <ele>6</ele>
        <time>2024-05-26T09:25:13Z</time>
      </trkpt>
      <trkpt lat="49.19629" lon="-0.17648">
        <ele>6.4</ele>
        <time>2024-05-26T09:25:14Z</time>
      </trkpt>
      <trkpt lat="49.19635" lon="-0.17649">
        <ele>6.6</ele>
        <time>2024-05-26T09:25:15Z</time>
      </trkpt>
      <trkpt lat="49.19642" lon="-0.17649">
        <ele>6.6</ele>
        <time>2024-05-26T09:25:16Z</time>
      </trkpt>
      <trkpt lat="49.19649" lon="-0.17649">
        <ele>6.6</ele>
        <time>2024-05-26T09:25:17Z</time>
      </trkpt>
      <trkpt lat="49.19656" lon="-0.17648">
        <ele>6.8</ele>
        <time>2024-05-26T09:25:18Z</time>
      </trkpt>
      <trkpt lat="49.19663" lon="-0.17647">
        <ele>6.8</ele>
        <time>2024-05-26T09:25:19Z</time>
      </trkpt>
      <trkpt lat="49.19669" lon="-0.17646">
        <ele>7</ele>
        <time>2024-05-26T09:25:20Z</time>
      </trkpt>
      <trkpt lat="49.19676" lon="-0.17644">
        <ele>7</ele>
        <time>2024-05-26T09:25:21Z</time>
      </trkpt>
      <trkpt lat="49.19683" lon="-0.17641">
        <ele>7</ele>
        <time>2024-05-26T09:25:22Z</time>
      </trkpt>
      <trkpt lat="49.1969" lon="-0.17638">
        <ele>7</ele>
        <time>2024-05-26T09:25:23Z</time>
      </trkpt>
      <trkpt lat="49.19698" lon="-0.17635">
        <ele>7</ele>
        <time>2024-05-26T09:25:24Z</time>
      </trkpt>
      <trkpt lat="49.19705" lon="-0.17632">
        <ele>7</ele>
        <time>2024-05-26T09:25:25Z</time>
      </trkpt>
      <trkpt lat="49.19713" lon="-0.17628">
        <ele>7</ele>
        <time>2024-05-26T09:25:26Z</time>
      </trkpt>
      <trkpt lat="49.1972" lon="-0.17625">
        <ele>7</ele>
        <time>2024-05-26T09:25:27Z</time>
      </trkpt>
      <trkpt lat="49.19728" lon="-0.17622">
        <ele>7</ele>
        <time>2024-05-26T09:25:28Z</time>
      </trkpt>
      <trkpt lat="49.19736" lon="-0.17619">
        <ele>7</ele>
        <time>2024-05-26T09:25:29Z</time>
      </trkpt>
      <trkpt lat="49.19744" lon="-0.17615">
        <ele>7</ele>
        <time>2024-05-26T09:25:30Z</time>
      </trkpt>
      <trkpt lat="49.19752" lon="-0.17613">
        <ele>6.8</ele>
        <time>2024-05-26T09:25:31Z</time>
      </trkpt>
      <trkpt lat="49.1976" lon="-0.1761">
        <ele>6.8</ele>
        <time>2024-05-26T09:25:32Z</time>
      </trkpt>
      <trkpt lat="49.19768" lon="-0.17607">
        <ele>6.2</ele>
        <time>2024-05-26T09:25:33Z</time>
      </trkpt>
      <trkpt lat="49.19775" lon="-0.17605">
        <ele>5.8</ele>
        <time>2024-05-26T09:25:34Z</time>
      </trkpt>
      <trkpt lat="49.19783" lon="-0.17604">
        <ele>5.6</ele>
        <time>2024-05-26T09:25:35Z</time>
      </trkpt>
      <trkpt lat="49.1979" lon="-0.17603">
        <ele>5</ele>
        <time>2024-05-26T09:25:36Z</time>
      </trkpt>
      <trkpt lat="49.19797" lon="-0.17602">
        <ele>4.8</ele>
        <time>2024-05-26T09:25:37Z</time>
      </trkpt>
      <trkpt lat="49.19805" lon="-0.17602">
        <ele>4.4</ele>
        <time>2024-05-26T09:25:38Z</time>
      </trkpt>
      <trkpt lat="49.19813" lon="-0.17603">
        <ele>4.4</ele>
        <time>2024-05-26T09:25:39Z</time>
      </trkpt>
      <trkpt lat="49.1982" lon="-0.17603">
        <ele>3.8</ele>
        <time>2024-05-26T09:25:40Z</time>
      </trkpt>
      <trkpt lat="49.19827" lon="-0.17604">
        <ele>3</ele>
        <time>2024-05-26T09:25:41Z</time>
      </trkpt>
      <trkpt lat="49.19834" lon="-0.17606">
        <ele>2.8</ele>
        <time>2024-05-26T09:25:42Z</time>
      </trkpt>
      <trkpt lat="49.19841" lon="-0.17608">
        <ele>2.2</ele>
        <time>2024-05-26T09:25:43Z</time>
      </trkpt>
      <trkpt lat="49.19848" lon="-0.1761">
        <ele>2</ele>
        <time>2024-05-26T09:25:44Z</time>
      </trkpt>
      <trkpt lat="49.19854" lon="-0.17611">
        <ele>1.8</ele>
        <time>2024-05-26T09:25:45Z</time>
      </trkpt>
      <trkpt lat="49.19861" lon="-0.17613">
        <ele>1.6</ele>
        <time>2024-05-26T09:25:46Z</time>
      </trkpt>
      <trkpt lat="49.19868" lon="-0.17615">
        <ele>1.6</ele>
        <time>2024-05-26T09:25:47Z</time>
      </trkpt>
      <trkpt lat="49.19875" lon="-0.17617">
        <ele>1.4</ele>
        <time>2024-05-26T09:25:48Z</time>
      </trkpt>
      <trkpt lat="49.19883" lon="-0.17618">
        <ele>1.2</ele>
        <time>2024-05-26T09:25:49Z</time>
      </trkpt>
      <trkpt lat="49.1989" lon="-0.1762">
        <ele>1.2</ele>
        <time>2024-05-26T09:25:50Z</time>
      </trkpt>
      <trkpt lat="49.19897" lon="-0.17622">
        <ele>1.2</ele>
        <time>2024-05-26T09:25:51Z</time>
      </trkpt>
      <trkpt lat="49.19904" lon="-0.17624">
        <ele>1</ele>
        <time>2024-05-26T09:25:52Z</time>
      </trkpt>
      <trkpt lat="49.19911" lon="-0.17626">
        <ele>1</ele>
        <time>2024-05-26T09:25:53Z</time>
      </trkpt>
      <trkpt lat="49.19918" lon="-0.17627">
        <ele>1</ele>
        <time>2024-05-26T09:25:54Z</time>
      </trkpt>
      <trkpt lat="49.19925" lon="-0.17629">
        <ele>1</ele>
        <time>2024-05-26T09:25:55Z</time>
      </trkpt>
      <trkpt lat="49.19932" lon="-0.17631">
        <ele>0.8</ele>
        <time>2024-05-26T09:25:56Z</time>
      </trkpt>
      <trkpt lat="49.19939" lon="-0.17632">
        <ele>0.8</ele>
        <time>2024-05-26T09:25:57Z</time>
      </trkpt>
      <trkpt lat="49.19946" lon="-0.17634">
        <ele>0.8</ele>
        <time>2024-05-26T09:25:58Z</time>
      </trkpt>
      <trkpt lat="49.19954" lon="-0.17636">
        <ele>0.8</ele>
        <time>2024-05-26T09:25:59Z</time>
      </trkpt>
      <trkpt lat="49.19961" lon="-0.17638">
        <ele>0.8</ele>
        <time>2024-05-26T09:26:00Z</time>
      </trkpt>
      <trkpt lat="49.19968" lon="-0.17639">
        <ele>0.6</ele>
        <time>2024-05-26T09:26:01Z</time>
      </trkpt>
      <trkpt lat="49.19975" lon="-0.1764">
        <ele>0.6</ele>
        <time>2024-05-26T09:26:02Z</time>
      </trkpt>
      <trkpt lat="49.19982" lon="-0.17642">
        <ele>0.6</ele>
        <time>2024-05-26T09:26:03Z</time>
      </trkpt>
      <trkpt lat="49.19988" lon="-0.17643">
        <ele>0.4</ele>
        <time>2024-05-26T09:26:04Z</time>
      </trkpt>
      <trkpt lat="49.19995" lon="-0.17644">
        <ele>0.4</ele>
        <time>2024-05-26T09:26:05Z</time>
      </trkpt>
      <trkpt lat="49.20002" lon="-0.17646">
        <ele>0.4</ele>
        <time>2024-05-26T09:26:06Z</time>
      </trkpt>
      <trkpt lat="49.20008" lon="-0.17647">
        <ele>0.2</ele>
        <time>2024-05-26T09:26:07Z</time>
      </trkpt>
      <trkpt lat="49.20015" lon="-0.17648">
        <ele>-0.2</ele>
        <time>2024-05-26T09:26:08Z</time>
      </trkpt>
      <trkpt lat="49.20022" lon="-0.17648">
        <ele>-0.4</ele>
        <time>2024-05-26T09:26:09Z</time>
      </trkpt>
      <trkpt lat="49.20029" lon="-0.17649">
        <ele>-0.4</ele>
        <time>2024-05-26T09:26:10Z</time>
      </trkpt>
      <trkpt lat="49.20035" lon="-0.1765">
        <ele>-0.8</ele>
        <time>2024-05-26T09:26:11Z</time>
      </trkpt>
      <trkpt lat="49.20042" lon="-0.17651">
        <ele>-1.2</ele>
        <time>2024-05-26T09:26:12Z</time>
      </trkpt>
      <trkpt lat="49.2005" lon="-0.17652">
        <ele>-1.2</ele>
        <time>2024-05-26T09:26:13Z</time>
      </trkpt>
      <trkpt lat="49.20056" lon="-0.17653">
        <ele>-1.4</ele>
        <time>2024-05-26T09:26:14Z</time>
      </trkpt>
      <trkpt lat="49.20061" lon="-0.17652">
        <ele>-1.4</ele>
        <time>2024-05-26T09:26:15Z</time>
      </trkpt>
      <trkpt lat="49.20064" lon="-0.17651">
        <ele>-1.6</ele>
        <time>2024-05-26T09:26:16Z</time>
      </trkpt>
      <trkpt lat="49.20067" lon="-0.1765">
        <ele>-1.6</ele>
        <time>2024-05-26T09:26:17Z</time>
      </trkpt>
      <trkpt lat="49.20071" lon="-0.17648">
        <ele>-1.6</ele>
        <time>2024-05-26T09:26:18Z</time>
      </trkpt>
      <trkpt lat="49.20077" lon="-0.17649">
        <ele>-1.6</ele>
        <time>2024-05-26T09:26:19Z</time>
      </trkpt>
      <trkpt lat="49.20089" lon="-0.17654">
        <ele>-1.8</ele>
        <time>2024-05-26T09:26:20Z</time>
      </trkpt>
      <trkpt lat="49.20099" lon="-0.17657">
        <ele>-1.8</ele>
        <time>2024-05-26T09:26:21Z</time>
      </trkpt>
      <trkpt lat="49.20108" lon="-0.17659">
        <ele>-2</ele>
        <time>2024-05-26T09:26:22Z</time>
      </trkpt>
      <trkpt lat="49.20117" lon="-0.17661">
        <ele>-2</ele>
        <time>2024-05-26T09:26:23Z</time>
      </trkpt>
      <trkpt lat="49.20126" lon="-0.17662">
        <ele>-2.2</ele>
        <time>2024-05-26T09:26:24Z</time>
      </trkpt>
      <trkpt lat="49.20136" lon="-0.17663">
        <ele>-2.2</ele>
        <time>2024-05-26T09:26:25Z</time>
      </trkpt>
      <trkpt lat="49.20145" lon="-0.17665">
        <ele>-2.4</ele>
        <time>2024-05-26T09:26:26Z</time>
      </trkpt>
      <trkpt lat="49.20153" lon="-0.17666">
        <ele>-2.4</ele>
        <time>2024-05-26T09:26:27Z</time>
      </trkpt>
      <trkpt lat="49.20162" lon="-0.17667">
        <ele>-2.6</ele>
        <time>2024-05-26T09:26:28Z</time>
      </trkpt>
      <trkpt lat="49.2017" lon="-0.17668">
        <ele>-2.6</ele>
        <time>2024-05-26T09:26:29Z</time>
      </trkpt>
      <trkpt lat="49.20179" lon="-0.17668">
        <ele>-2.8</ele>
        <time>2024-05-26T09:26:30Z</time>
      </trkpt>
      <trkpt lat="49.20187" lon="-0.1767">
        <ele>-3</ele>
        <time>2024-05-26T09:26:31Z</time>
      </trkpt>
      <trkpt lat="49.20196" lon="-0.17671">
        <ele>-3</ele>
        <time>2024-05-26T09:26:32Z</time>
      </trkpt>
      <trkpt lat="49.20204" lon="-0.17672">
        <ele>-3.2</ele>
        <time>2024-05-26T09:26:33Z</time>
      </trkpt>
      <trkpt lat="49.20212" lon="-0.17673">
        <ele>-3.2</ele>
        <time>2024-05-26T09:26:34Z</time>
      </trkpt>
      <trkpt lat="49.2022" lon="-0.17675">
        <ele>-3.4</ele>
        <time>2024-05-26T09:26:35Z</time>
      </trkpt>
      <trkpt lat="49.20228" lon="-0.17676">
        <ele>-3.6</ele>
        <time>2024-05-26T09:26:36Z</time>
      </trkpt>
      <trkpt lat="49.20236" lon="-0.17677">
        <ele>-3.6</ele>
        <time>2024-05-26T09:26:37Z</time>
      </trkpt>
      <trkpt lat="49.20244" lon="-0.17678">
        <ele>-4</ele>
        <time>2024-05-26T09:26:38Z</time>
      </trkpt>
      <trkpt lat="49.20252" lon="-0.17679">
        <ele>-4.2</ele>
        <time>2024-05-26T09:26:39Z</time>
      </trkpt>
      <trkpt lat="49.2026" lon="-0.1768">
        <ele>-4.2</ele>
        <time>2024-05-26T09:26:40Z</time>
      </trkpt>
      <trkpt lat="49.20267" lon="-0.17681">
        <ele>-4.4</ele>
        <time>2024-05-26T09:26:41Z</time>
      </trkpt>
      <trkpt lat="49.20275" lon="-0.17682">
        <ele>-4.4</ele>
        <time>2024-05-26T09:26:42Z</time>
      </trkpt>
      <trkpt lat="49.20282" lon="-0.17683">
        <ele>-4.6</ele>
        <time>2024-05-26T09:26:43Z</time>
      </trkpt>
      <trkpt lat="49.2029" lon="-0.17684">
        <ele>-4.6</ele>
        <time>2024-05-26T09:26:44Z</time>
      </trkpt>
      <trkpt lat="49.20297" lon="-0.17685">
        <ele>-4.8</ele>
        <time>2024-05-26T09:26:45Z</time>
      </trkpt>
      <trkpt lat="49.20305" lon="-0.17687">
        <ele>-4.8</ele>
        <time>2024-05-26T09:26:46Z</time>
      </trkpt>
      <trkpt lat="49.20312" lon="-0.17688">
        <ele>-4.8</ele>
        <time>2024-05-26T09:26:47Z</time>
      </trkpt>
      <trkpt lat="49.20319" lon="-0.1769">
        <ele>-5</ele>
        <time>2024-05-26T09:26:48Z</time>
      </trkpt>
      <trkpt lat="49.20327" lon="-0.17691">
        <ele>-5</ele>
        <time>2024-05-26T09:26:49Z</time>
      </trkpt>
      <trkpt lat="49.20334" lon="-0.17693">
        <ele>-5</ele>
        <time>2024-05-26T09:26:50Z</time>
      </trkpt>
      <trkpt lat="49.20341" lon="-0.17695">
        <ele>-5</ele>
        <time>2024-05-26T09:26:51Z</time>
      </trkpt>
      <trkpt lat="49.20349" lon="-0.17697">
        <ele>-5.2</ele>
        <time>2024-05-26T09:26:52Z</time>
      </trkpt>
      <trkpt lat="49.20356" lon="-0.17699">
        <ele>-5.2</ele>
        <time>2024-05-26T09:26:53Z</time>
      </trkpt>
      <trkpt lat="49.20363" lon="-0.17701">
        <ele>-5.2</ele>
        <time>2024-05-26T09:26:54Z</time>
      </trkpt>
      <trkpt lat="49.2037" lon="-0.17704">
        <ele>-5.2</ele>
        <time>2024-05-26T09:26:55Z</time>
      </trkpt>
      <trkpt lat="49.20377" lon="-0.17707">
        <ele>-5.2</ele>
        <time>2024-05-26T09:26:56Z</time>
      </trkpt>
      <trkpt lat="49.20384" lon="-0.1771">
        <ele>-5.2</ele>
        <time>2024-05-26T09:26:57Z</time>
      </trkpt>
      <trkpt lat="49.20391" lon="-0.17714">
        <ele>-5.2</ele>
        <time>2024-05-26T09:26:58Z</time>
      </trkpt>
      <trkpt lat="49.20399" lon="-0.17717">
        <ele>-5.2</ele>
        <time>2024-05-26T09:26:59Z</time>
      </trkpt>
      <trkpt lat="49.20406" lon="-0.1772">
        <ele>-5.2</ele>
        <time>2024-05-26T09:27:00Z</time>
      </trkpt>
      <trkpt lat="49.20413" lon="-0.17724">
        <ele>-5.2</ele>
        <time>2024-05-26T09:27:01Z</time>
      </trkpt>
      <trkpt lat="49.2042" lon="-0.17727">
        <ele>-5.2</ele>
        <time>2024-05-26T09:27:02Z</time>
      </trkpt>
      <trkpt lat="49.20428" lon="-0.1773">
        <ele>-5.2</ele>
        <time>2024-05-26T09:27:03Z</time>
      </trkpt>
      <trkpt lat="49.20435" lon="-0.17733">
        <ele>-5.2</ele>
        <time>2024-05-26T09:27:04Z</time>
      </trkpt>
      <trkpt lat="49.20443" lon="-0.17736">
        <ele>-5.2</ele>
        <time>2024-05-26T09:27:05Z</time>
      </trkpt>
      <trkpt lat="49.2045" lon="-0.17738">
        <ele>-5.2</ele>
        <time>2024-05-26T09:27:06Z</time>
      </trkpt>
      <trkpt lat="49.20458" lon="-0.17741">
        <ele>-5.2</ele>
        <time>2024-05-26T09:27:07Z</time>
      </trkpt>
      <trkpt lat="49.20466" lon="-0.17743">
        <ele>-5.2</ele>
        <time>2024-05-26T09:27:08Z</time>
      </trkpt>
      <trkpt lat="49.20474" lon="-0.17745">
        <ele>-5.2</ele>
        <time>2024-05-26T09:27:09Z</time>
      </trkpt>
      <trkpt lat="49.20483" lon="-0.17746">
        <ele>-5.2</ele>
        <time>2024-05-26T09:27:10Z</time>
      </trkpt>
      <trkpt lat="49.2049" lon="-0.17746">
        <ele>-5.4</ele>
        <time>2024-05-26T09:27:11Z</time>
      </trkpt>
      <trkpt lat="49.20498" lon="-0.17746">
        <ele>-5.4</ele>
        <time>2024-05-26T09:27:12Z</time>
      </trkpt>
      <trkpt lat="49.20505" lon="-0.17747">
        <ele>-5.6</ele>
        <time>2024-05-26T09:27:13Z</time>
      </trkpt>
      <trkpt lat="49.20513" lon="-0.17747">
        <ele>-5.8</ele>
        <time>2024-05-26T09:27:14Z</time>
      </trkpt>
      <trkpt lat="49.2052" lon="-0.17746">
        <ele>-6</ele>
        <time>2024-05-26T09:27:15Z</time>
      </trkpt>
      <trkpt lat="49.20528" lon="-0.17746">
        <ele>-6</ele>
        <time>2024-05-26T09:27:16Z</time>
      </trkpt>
      <trkpt lat="49.20535" lon="-0.17745">
        <ele>-6.2</ele>
        <time>2024-05-26T09:27:17Z</time>
      </trkpt>
      <trkpt lat="49.20543" lon="-0.17744">
        <ele>-6.4</ele>
        <time>2024-05-26T09:27:18Z</time>
      </trkpt>
      <trkpt lat="49.2055" lon="-0.17743">
        <ele>-6.4</ele>
        <time>2024-05-26T09:27:19Z</time>
      </trkpt>
      <trkpt lat="49.20558" lon="-0.17743">
        <ele>-6.6</ele>
        <time>2024-05-26T09:27:20Z</time>
      </trkpt>
      <trkpt lat="49.20565" lon="-0.17743">
        <ele>-6.6</ele>
        <time>2024-05-26T09:27:21Z</time>
      </trkpt>
      <trkpt lat="49.20572" lon="-0.17742">
        <ele>-6.6</ele>
        <time>2024-05-26T09:27:22Z</time>
      </trkpt>
      <trkpt lat="49.20579" lon="-0.1774">
        <ele>-6.6</ele>
        <time>2024-05-26T09:27:23Z</time>
      </trkpt>
      <trkpt lat="49.20586" lon="-0.1774">
        <ele>-6.6</ele>
        <time>2024-05-26T09:27:24Z</time>
      </trkpt>
      <trkpt lat="49.20593" lon="-0.1774">
        <ele>-6.6</ele>
        <time>2024-05-26T09:27:25Z</time>
      </trkpt>
      <trkpt lat="49.206" lon="-0.17741">
        <ele>-6.6</ele>
        <time>2024-05-26T09:27:26Z</time>
      </trkpt>
      <trkpt lat="49.20607" lon="-0.17743">
        <ele>-6.6</ele>
        <time>2024-05-26T09:27:27Z</time>
      </trkpt>
      <trkpt lat="49.20614" lon="-0.17746">
        <ele>-6.6</ele>
        <time>2024-05-26T09:27:28Z</time>
      </trkpt>
      <trkpt lat="49.2062" lon="-0.1775">
        <ele>-6.4</ele>
        <time>2024-05-26T09:27:29Z</time>
      </trkpt>
      <trkpt lat="49.20627" lon="-0.17756">
        <ele>-6.4</ele>
        <time>2024-05-26T09:27:30Z</time>
      </trkpt>
      <trkpt lat="49.20633" lon="-0.17762">
        <ele>-6.2</ele>
        <time>2024-05-26T09:27:31Z</time>
      </trkpt>
      <trkpt lat="49.20639" lon="-0.17768">
        <ele>-6</ele>
        <time>2024-05-26T09:27:32Z</time>
      </trkpt>
      <trkpt lat="49.20645" lon="-0.17774">
        <ele>-6</ele>
        <time>2024-05-26T09:27:33Z</time>
      </trkpt>
      <trkpt lat="49.20651" lon="-0.1778">
        <ele>-6</ele>
        <time>2024-05-26T09:27:34Z</time>
      </trkpt>
      <trkpt lat="49.20657" lon="-0.17785">
        <ele>-6</ele>
        <time>2024-05-26T09:27:35Z</time>
      </trkpt>
      <trkpt lat="49.20663" lon="-0.1779">
        <ele>-5.8</ele>
        <time>2024-05-26T09:27:36Z</time>
      </trkpt>
      <trkpt lat="49.2067" lon="-0.17795">
        <ele>-5.8</ele>
        <time>2024-05-26T09:27:37Z</time>
      </trkpt>
      <trkpt lat="49.20676" lon="-0.17799">
        <ele>-5.8</ele>
        <time>2024-05-26T09:27:38Z</time>
      </trkpt>
      <trkpt lat="49.20683" lon="-0.17803">
        <ele>-5.8</ele>
        <time>2024-05-26T09:27:39Z</time>
      </trkpt>
      <trkpt lat="49.20689" lon="-0.17807">
        <ele>-5.8</ele>
        <time>2024-05-26T09:27:40Z</time>
      </trkpt>
      <trkpt lat="49.20695" lon="-0.1781">
        <ele>-5.8</ele>
        <time>2024-05-26T09:27:41Z</time>
      </trkpt>
      <trkpt lat="49.20702" lon="-0.17813">
        <ele>-5.8</ele>
        <time>2024-05-26T09:27:42Z</time>
      </trkpt>
      <trkpt lat="49.20707" lon="-0.17816">
        <ele>-5.6</ele>
        <time>2024-05-26T09:27:43Z</time>
      </trkpt>
      <trkpt lat="49.20713" lon="-0.17818">
        <ele>-5.6</ele>
        <time>2024-05-26T09:27:44Z</time>
      </trkpt>
      <trkpt lat="49.20719" lon="-0.1782">
        <ele>-5.6</ele>
        <time>2024-05-26T09:27:45Z</time>
      </trkpt>
      <trkpt lat="49.20725" lon="-0.17823">
        <ele>-5.6</ele>
        <time>2024-05-26T09:27:46Z</time>
      </trkpt>
      <trkpt lat="49.2073" lon="-0.17825">
        <ele>-5.6</ele>
        <time>2024-05-26T09:27:47Z</time>
      </trkpt>
      <trkpt lat="49.20736" lon="-0.17827">
        <ele>-5.6</ele>
        <time>2024-05-26T09:27:48Z</time>
      </trkpt>
      <trkpt lat="49.20742" lon="-0.17829">
        <ele>-5.6</ele>
        <time>2024-05-26T09:27:49Z</time>
      </trkpt>
      <trkpt lat="49.20748" lon="-0.17832">
        <ele>-5.4</ele>
        <time>2024-05-26T09:27:50Z</time>
      </trkpt>
      <trkpt lat="49.20754" lon="-0.17834">
        <ele>-5.2</ele>
        <time>2024-05-26T09:27:51Z</time>
      </trkpt>
      <trkpt lat="49.2076" lon="-0.17836">
        <ele>-5</ele>
        <time>2024-05-26T09:27:52Z</time>
      </trkpt>
      <trkpt lat="49.20766" lon="-0.17838">
        <ele>-4.6</ele>
        <time>2024-05-26T09:27:53Z</time>
      </trkpt>
      <trkpt lat="49.20772" lon="-0.1784">
        <ele>-4.2</ele>
        <time>2024-05-26T09:27:54Z</time>
      </trkpt>
      <trkpt lat="49.20778" lon="-0.17842">
        <ele>-4.2</ele>
        <time>2024-05-26T09:27:55Z</time>
      </trkpt>
      <trkpt lat="49.20785" lon="-0.17844">
        <ele>-3.8</ele>
        <time>2024-05-26T09:27:56Z</time>
      </trkpt>
      <trkpt lat="49.20791" lon="-0.17846">
        <ele>-3.6</ele>
        <time>2024-05-26T09:27:57Z</time>
      </trkpt>
      <trkpt lat="49.20798" lon="-0.17848">
        <ele>-3.2</ele>
        <time>2024-05-26T09:27:58Z</time>
      </trkpt>
      <trkpt lat="49.20804" lon="-0.1785">
        <ele>-2.8</ele>
        <time>2024-05-26T09:27:59Z</time>
      </trkpt>
      <trkpt lat="49.2081" lon="-0.17853">
        <ele>-2.6</ele>
        <time>2024-05-26T09:28:00Z</time>
      </trkpt>
      <trkpt lat="49.20817" lon="-0.17854">
        <ele>-2.4</ele>
        <time>2024-05-26T09:28:01Z</time>
      </trkpt>
      <trkpt lat="49.20823" lon="-0.17856">
        <ele>-2.2</ele>
        <time>2024-05-26T09:28:02Z</time>
      </trkpt>
      <trkpt lat="49.20829" lon="-0.17858">
        <ele>-2</ele>
        <time>2024-05-26T09:28:03Z</time>
      </trkpt>
      <trkpt lat="49.20836" lon="-0.1786">
        <ele>-1.8</ele>
        <time>2024-05-26T09:28:04Z</time>
      </trkpt>
      <trkpt lat="49.20842" lon="-0.17862">
        <ele>-1.6</ele>
        <time>2024-05-26T09:28:05Z</time>
      </trkpt>
      <trkpt lat="49.20848" lon="-0.17864">
        <ele>-1.6</ele>
        <time>2024-05-26T09:28:06Z</time>
      </trkpt>
      <trkpt lat="49.20854" lon="-0.17866">
        <ele>-1.4</ele>
        <time>2024-05-26T09:28:07Z</time>
      </trkpt>
      <trkpt lat="49.20861" lon="-0.17868">
        <ele>-1.2</ele>
        <time>2024-05-26T09:28:08Z</time>
      </trkpt>
      <trkpt lat="49.20867" lon="-0.17869">
        <ele>-1</ele>
        <time>2024-05-26T09:28:09Z</time>
      </trkpt>
      <trkpt lat="49.20873" lon="-0.1787">
        <ele>-0.8</ele>
        <time>2024-05-26T09:28:10Z</time>
      </trkpt>
      <trkpt lat="49.2088" lon="-0.1787">
        <ele>-0.8</ele>
        <time>2024-05-26T09:28:11Z</time>
      </trkpt>
      <trkpt lat="49.20887" lon="-0.1787">
        <ele>-0.6</ele>
        <time>2024-05-26T09:28:12Z</time>
      </trkpt>
      <trkpt lat="49.20893" lon="-0.17869">
        <ele>-0.6</ele>
        <time>2024-05-26T09:28:13Z</time>
      </trkpt>
      <trkpt lat="49.209" lon="-0.17869">
        <ele>-0.6</ele>
        <time>2024-05-26T09:28:14Z</time>
      </trkpt>
      <trkpt lat="49.20907" lon="-0.17868">
        <ele>-0.4</ele>
        <time>2024-05-26T09:28:15Z</time>
      </trkpt>
      <trkpt lat="49.20914" lon="-0.17867">
        <ele>-0.4</ele>
        <time>2024-05-26T09:28:16Z</time>
      </trkpt>
      <trkpt lat="49.20922" lon="-0.17865">
        <ele>-0.4</ele>
        <time>2024-05-26T09:28:17Z</time>
      </trkpt>
      <trkpt lat="49.20929" lon="-0.17864">
        <ele>-0.4</ele>
        <time>2024-05-26T09:28:18Z</time>
      </trkpt>
      <trkpt lat="49.20935" lon="-0.17863">
        <ele>-0.4</ele>
        <time>2024-05-26T09:28:19Z</time>
      </trkpt>
      <trkpt lat="49.20942" lon="-0.17862">
        <ele>-0.2</ele>
        <time>2024-05-26T09:28:20Z</time>
      </trkpt>
      <trkpt lat="49.20949" lon="-0.17861">
        <ele>-0.2</ele>
        <time>2024-05-26T09:28:21Z</time>
      </trkpt>
      <trkpt lat="49.20956" lon="-0.1786">
        <ele>-0.2</ele>
        <time>2024-05-26T09:28:22Z</time>
      </trkpt>
      <trkpt lat="49.20963" lon="-0.1786">
        <ele>-0.2</ele>
        <time>2024-05-26T09:28:23Z</time>
      </trkpt>
      <trkpt lat="49.2097" lon="-0.17859">
        <ele>-0.2</ele>
        <time>2024-05-26T09:28:24Z</time>
      </trkpt>
      <trkpt lat="49.20977" lon="-0.17859">
        <ele>9.9</ele>
        <time>2024-05-26T09:28:25Z</time>
      </trkpt>
      <trkpt lat="49.20984" lon="-0.17858">
        <ele>9.9</ele>
        <time>2024-05-26T09:28:26Z</time>
      </trkpt>
      <trkpt lat="49.20991" lon="-0.17858">
        <ele>9.9</ele>
        <time>2024-05-26T09:28:27Z</time>
      </trkpt>
      <trkpt lat="49.20999" lon="-0.17858">
        <ele>9.9</ele>
        <time>2024-05-26T09:28:28Z</time>
      </trkpt>
      <trkpt lat="49.21006" lon="-0.17858">
        <ele>9.9</ele>
        <time>2024-05-26T09:28:29Z</time>
      </trkpt>
      <trkpt lat="49.21014" lon="-0.17857">
        <ele>9.8</ele>
        <time>2024-05-26T09:28:30Z</time>
      </trkpt>
      <trkpt lat="49.21021" lon="-0.17857">
        <ele>9.9</ele>
        <time>2024-05-26T09:28:31Z</time>
      </trkpt>
      <trkpt lat="49.21028" lon="-0.17858">
        <ele>-0.2</ele>
        <time>2024-05-26T09:28:32Z</time>
      </trkpt>
      <trkpt lat="49.21036" lon="-0.17859">
        <ele>-0.2</ele>
        <time>2024-05-26T09:28:33Z</time>
      </trkpt>
      <trkpt lat="49.21043" lon="-0.1786">
        <ele>-0.2</ele>
        <time>2024-05-26T09:28:34Z</time>
      </trkpt>
      <trkpt lat="49.21051" lon="-0.17861">
        <ele>-0.2</ele>
        <time>2024-05-26T09:28:35Z</time>
      </trkpt>
      <trkpt lat="49.21058" lon="-0.17862">
        <ele>-0.2</ele>
        <time>2024-05-26T09:28:36Z</time>
      </trkpt>
      <trkpt lat="49.21066" lon="-0.17862">
        <ele>-0.4</ele>
        <time>2024-05-26T09:28:37Z</time>
      </trkpt>
      <trkpt lat="49.21074" lon="-0.17863">
        <ele>-0.4</ele>
        <time>2024-05-26T09:28:38Z</time>
      </trkpt>
      <trkpt lat="49.21082" lon="-0.17864">
        <ele>-0.4</ele>
        <time>2024-05-26T09:28:39Z</time>
      </trkpt>
      <trkpt lat="49.21089" lon="-0.17865">
        <ele>-0.6</ele>
        <time>2024-05-26T09:28:40Z</time>
      </trkpt>
      <trkpt lat="49.21097" lon="-0.17866">
        <ele>-0.6</ele>
        <time>2024-05-26T09:28:41Z</time>
      </trkpt>
      <trkpt lat="49.21105" lon="-0.17867">
        <ele>-0.8</ele>
        <time>2024-05-26T09:28:42Z</time>
      </trkpt>
      <trkpt lat="49.21112" lon="-0.17868">
        <ele>-0.8</ele>
        <time>2024-05-26T09:28:43Z</time>
      </trkpt>
      <trkpt lat="49.2112" lon="-0.17869">
        <ele>-1</ele>
        <time>2024-05-26T09:28:44Z</time>
      </trkpt>
      <trkpt lat="49.21128" lon="-0.1787">
        <ele>-1.2</ele>
        <time>2024-05-26T09:28:45Z</time>
      </trkpt>
      <trkpt lat="49.21135" lon="-0.1787">
        <ele>-1.2</ele>
        <time>2024-05-26T09:28:46Z</time>
      </trkpt>
      <trkpt lat="49.21143" lon="-0.17871">
        <ele>-1.2</ele>
        <time>2024-05-26T09:28:47Z</time>
      </trkpt>
      <trkpt lat="49.21151" lon="-0.17872">
        <ele>-1.2</ele>
        <time>2024-05-26T09:28:48Z</time>
      </trkpt>
      <trkpt lat="49.21159" lon="-0.17873">
        <ele>-1.4</ele>
        <time>2024-05-26T09:28:49Z</time>
      </trkpt>
      <trkpt lat="49.21168" lon="-0.17875">
        <ele>-1.4</ele>
        <time>2024-05-26T09:28:50Z</time>
      </trkpt>
      <trkpt lat="49.21176" lon="-0.17877">
        <ele>-1.6</ele>
        <time>2024-05-26T09:28:51Z</time>
      </trkpt>
      <trkpt lat="49.21184" lon="-0.17879">
        <ele>-1.6</ele>
        <time>2024-05-26T09:28:52Z</time>
      </trkpt>
      <trkpt lat="49.21192" lon="-0.17882">
        <ele>-1.8</ele>
        <time>2024-05-26T09:28:53Z</time>
      </trkpt>
      <trkpt lat="49.212" lon="-0.17886">
        <ele>-2</ele>
        <time>2024-05-26T09:28:54Z</time>
      </trkpt>
      <trkpt lat="49.21208" lon="-0.17891">
        <ele>-2</ele>
        <time>2024-05-26T09:28:55Z</time>
      </trkpt>
      <trkpt lat="49.21216" lon="-0.17896">
        <ele>-2.4</ele>
        <time>2024-05-26T09:28:56Z</time>
      </trkpt>
      <trkpt lat="49.21224" lon="-0.17902">
        <ele>-2.8</ele>
        <time>2024-05-26T09:28:57Z</time>
      </trkpt>
      <trkpt lat="49.21232" lon="-0.17908">
        <ele>-3.2</ele>
        <time>2024-05-26T09:28:58Z</time>
      </trkpt>
      <trkpt lat="49.2124" lon="-0.17915">
        <ele>-3.4</ele>
        <time>2024-05-26T09:28:59Z</time>
      </trkpt>
      <trkpt lat="49.21248" lon="-0.17922">
        <ele>-4</ele>
        <time>2024-05-26T09:29:00Z</time>
      </trkpt>
      <trkpt lat="49.21255" lon="-0.17929">
        <ele>-4.4</ele>
        <time>2024-05-26T09:29:01Z</time>
      </trkpt>
      <trkpt lat="49.21262" lon="-0.17937">
        <ele>-4.6</ele>
        <time>2024-05-26T09:29:02Z</time>
      </trkpt>
      <trkpt lat="49.21269" lon="-0.17946">
        <ele>-5.2</ele>
        <time>2024-05-26T09:29:03Z</time>
      </trkpt>
      <trkpt lat="49.21275" lon="-0.17954">
        <ele>-5.4</ele>
        <time>2024-05-26T09:29:04Z</time>
      </trkpt>
      <trkpt lat="49.21282" lon="-0.17961">
        <ele>-5.4</ele>
        <time>2024-05-26T09:29:05Z</time>
      </trkpt>
      <trkpt lat="49.21289" lon="-0.17968">
        <ele>-5.8</ele>
        <time>2024-05-26T09:29:06Z</time>
      </trkpt>
      <trkpt lat="49.21297" lon="-0.17973">
        <ele>-6.4</ele>
        <time>2024-05-26T09:29:07Z</time>
      </trkpt>
      <trkpt lat="49.21305" lon="-0.17976">
        <ele>-6.4</ele>
        <time>2024-05-26T09:29:08Z</time>
      </trkpt>
      <trkpt lat="49.21314" lon="-0.17977">
        <ele>-6.6</ele>
        <time>2024-05-26T09:29:09Z</time>
      </trkpt>
      <trkpt lat="49.21322" lon="-0.17976">
        <ele>-6.6</ele>
        <time>2024-05-26T09:29:10Z</time>
      </trkpt>
      <trkpt lat="49.2133" lon="-0.17973">
        <ele>-6.6</ele>
        <time>2024-05-26T09:29:11Z</time>
      </trkpt>
      <trkpt lat="49.21338" lon="-0.1797">
        <ele>-6.6</ele>
        <time>2024-05-26T09:29:12Z</time>
      </trkpt>
      <trkpt lat="49.21346" lon="-0.17966">
        <ele>-6.8</ele>
        <time>2024-05-26T09:29:13Z</time>
      </trkpt>
      <trkpt lat="49.21354" lon="-0.17962">
        <ele>-6.8</ele>
        <time>2024-05-26T09:29:14Z</time>
      </trkpt>
      <trkpt lat="49.21362" lon="-0.17957">
        <ele>-6.8</ele>
        <time>2024-05-26T09:29:15Z</time>
      </trkpt>
      <trkpt lat="49.2137" lon="-0.17953">
        <ele>-6.8</ele>
        <time>2024-05-26T09:29:16Z</time>
      </trkpt>
      <trkpt lat="49.21378" lon="-0.17949">
        <ele>-6.8</ele>
        <time>2024-05-26T09:29:17Z</time>
      </trkpt>
      <trkpt lat="49.21386" lon="-0.17945">
        <ele>-6.8</ele>
        <time>2024-05-26T09:29:18Z</time>
      </trkpt>
      <trkpt lat="49.21394" lon="-0.17943">
        <ele>-6.8</ele>
        <time>2024-05-26T09:29:19Z</time>
      </trkpt>
      <trkpt lat="49.21403" lon="-0.17941">
        <ele>-6.8</ele>
        <time>2024-05-26T09:29:20Z</time>
      </trkpt>
      <trkpt lat="49.21411" lon="-0.1794">
        <ele>-6.8</ele>
        <time>2024-05-26T09:29:21Z</time>
      </trkpt>
      <trkpt lat="49.2142" lon="-0.17941">
        <ele>-6.8</ele>
        <time>2024-05-26T09:29:22Z</time>
      </trkpt>
      <trkpt lat="49.21428" lon="-0.17943">
        <ele>-6.8</ele>
        <time>2024-05-26T09:29:23Z</time>
      </trkpt>
      <trkpt lat="49.21436" lon="-0.17944">
        <ele>-6.8</ele>
        <time>2024-05-26T09:29:24Z</time>
      </trkpt>
      <trkpt lat="49.21445" lon="-0.17945">
        <ele>-6.8</ele>
        <time>2024-05-26T09:29:25Z</time>
      </trkpt>
      <trkpt lat="49.21453" lon="-0.17947">
        <ele>-6.8</ele>
        <time>2024-05-26T09:29:26Z</time>
      </trkpt>
      <trkpt lat="49.21462" lon="-0.17949">
        <ele>-6.8</ele>
        <time>2024-05-26T09:29:27Z</time>
      </trkpt>
      <trkpt lat="49.2147" lon="-0.1795">
        <ele>-6.8</ele>
        <time>2024-05-26T09:29:28Z</time>
      </trkpt>
      <trkpt lat="49.21479" lon="-0.1795">
        <ele>-6.8</ele>
        <time>2024-05-26T09:29:29Z</time>
      </trkpt>
      <trkpt lat="49.21487" lon="-0.1795">
        <ele>-6.8</ele>
        <time>2024-05-26T09:29:30Z</time>
      </trkpt>
      <trkpt lat="49.21495" lon="-0.17949">
        <ele>-6.8</ele>
        <time>2024-05-26T09:29:31Z</time>
      </trkpt>
      <trkpt lat="49.21504" lon="-0.17948">
        <ele>-6.8</ele>
        <time>2024-05-26T09:29:32Z</time>
      </trkpt>
      <trkpt lat="49.21512" lon="-0.17947">
        <ele>-6.8</ele>
        <time>2024-05-26T09:29:33Z</time>
      </trkpt>
      <trkpt lat="49.2152" lon="-0.17945">
        <ele>-6.8</ele>
        <time>2024-05-26T09:29:34Z</time>
      </trkpt>
      <trkpt lat="49.21528" lon="-0.17943">
        <ele>-6.6</ele>
        <time>2024-05-26T09:29:35Z</time>
      </trkpt>
      <trkpt lat="49.21537" lon="-0.17941">
        <ele>-6.6</ele>
        <time>2024-05-26T09:29:36Z</time>
      </trkpt>
      <trkpt lat="49.21545" lon="-0.17939">
        <ele>-6.4</ele>
        <time>2024-05-26T09:29:37Z</time>
      </trkpt>
      <trkpt lat="49.21553" lon="-0.17936">
        <ele>-6.4</ele>
        <time>2024-05-26T09:29:38Z</time>
      </trkpt>
      <trkpt lat="49.21561" lon="-0.17934">
        <ele>-6.4</ele>
        <time>2024-05-26T09:29:39Z</time>
      </trkpt>
      <trkpt lat="49.21569" lon="-0.17931">
        <ele>-6.2</ele>
        <time>2024-05-26T09:29:40Z</time>
      </trkpt>
      <trkpt lat="49.21578" lon="-0.17928">
        <ele>-6.2</ele>
        <time>2024-05-26T09:29:41Z</time>
      </trkpt>
      <trkpt lat="49.21586" lon="-0.17925">
        <ele>-6.2</ele>
        <time>2024-05-26T09:29:42Z</time>
      </trkpt>
      <trkpt lat="49.21594" lon="-0.17921">
        <ele>-6.2</ele>
        <time>2024-05-26T09:29:43Z</time>
      </trkpt>
      <trkpt lat="49.21602" lon="-0.17917">
        <ele>-6</ele>
        <time>2024-05-26T09:29:44Z</time>
      </trkpt>
      <trkpt lat="49.2161" lon="-0.17913">
        <ele>-5.8</ele>
        <time>2024-05-26T09:29:45Z</time>
      </trkpt>
      <trkpt lat="49.21618" lon="-0.17909">
        <ele>-5.8</ele>
        <time>2024-05-26T09:29:46Z</time>
      </trkpt>
      <trkpt lat="49.21626" lon="-0.17905">
        <ele>-5.8</ele>
        <time>2024-05-26T09:29:47Z</time>
      </trkpt>
      <trkpt lat="49.21634" lon="-0.17902">
        <ele>-5.6</ele>
        <time>2024-05-26T09:29:48Z</time>
      </trkpt>
      <trkpt lat="49.21642" lon="-0.17898">
        <ele>-5.6</ele>
        <time>2024-05-26T09:29:49Z</time>
      </trkpt>
      <trkpt lat="49.2165" lon="-0.17895">
        <ele>-5.6</ele>
        <time>2024-05-26T09:29:50Z</time>
      </trkpt>
      <trkpt lat="49.21658" lon="-0.17893">
        <ele>-5.6</ele>
        <time>2024-05-26T09:29:51Z</time>
      </trkpt>
      <trkpt lat="49.21666" lon="-0.1789">
        <ele>-5.6</ele>
        <time>2024-05-26T09:29:52Z</time>
      </trkpt>
      <trkpt lat="49.21675" lon="-0.17887">
        <ele>-5.6</ele>
        <time>2024-05-26T09:29:53Z</time>
      </trkpt>
      <trkpt lat="49.21683" lon="-0.17884">
        <ele>-5.4</ele>
        <time>2024-05-26T09:29:54Z</time>
      </trkpt>
      <trkpt lat="49.21692" lon="-0.17883">
        <ele>-5.4</ele>
        <time>2024-05-26T09:29:55Z</time>
      </trkpt>
      <trkpt lat="49.21699" lon="-0.17881">
        <ele>-5.2</ele>
        <time>2024-05-26T09:29:56Z</time>
      </trkpt>
      <trkpt lat="49.21707" lon="-0.1788">
        <ele>-5.2</ele>
        <time>2024-05-26T09:29:57Z</time>
      </trkpt>
      <trkpt lat="49.21715" lon="-0.17879">
        <ele>-5.2</ele>
        <time>2024-05-26T09:29:58Z</time>
      </trkpt>
      <trkpt lat="49.21724" lon="-0.17879">
        <ele>-5.2</ele>
        <time>2024-05-26T09:29:59Z</time>
      </trkpt>
      <trkpt lat="49.21731" lon="-0.1788">
        <ele>-5</ele>
        <time>2024-05-26T09:30:00Z</time>
      </trkpt>
      <trkpt lat="49.21739" lon="-0.1788">
        <ele>-5</ele>
        <time>2024-05-26T09:30:01Z</time>
      </trkpt>
      <trkpt lat="49.21746" lon="-0.17881">
        <ele>-4.8</ele>
        <time>2024-05-26T09:30:02Z</time>
      </trkpt>
      <trkpt lat="49.21754" lon="-0.17882">
        <ele>-4.8</ele>
        <time>2024-05-26T09:30:03Z</time>
      </trkpt>
      <trkpt lat="49.21762" lon="-0.17882">
        <ele>-4.6</ele>
        <time>2024-05-26T09:30:04Z</time>
      </trkpt>
      <trkpt lat="49.21769" lon="-0.17883">
        <ele>-4.4</ele>
        <time>2024-05-26T09:30:05Z</time>
      </trkpt>
      <trkpt lat="49.21779" lon="-0.17885">
        <ele>-4.4</ele>
        <time>2024-05-26T09:30:06Z</time>
      </trkpt>
      <trkpt lat="49.21786" lon="-0.17886">
        <ele>-4.2</ele>
        <time>2024-05-26T09:30:07Z</time>
      </trkpt>
      <trkpt lat="49.21792" lon="-0.17888">
        <ele>-4.2</ele>
        <time>2024-05-26T09:30:08Z</time>
      </trkpt>
      <trkpt lat="49.218" lon="-0.17889">
        <ele>-4.2</ele>
        <time>2024-05-26T09:30:09Z</time>
      </trkpt>
      <trkpt lat="49.21808" lon="-0.17891">
        <ele>-4</ele>
        <time>2024-05-26T09:30:10Z</time>
      </trkpt>
      <trkpt lat="49.21815" lon="-0.17893">
        <ele>-3.8</ele>
        <time>2024-05-26T09:30:11Z</time>
      </trkpt>
      <trkpt lat="49.21822" lon="-0.17895">
        <ele>-3.8</ele>
        <time>2024-05-26T09:30:12Z</time>
      </trkpt>
      <trkpt lat="49.2183" lon="-0.17898">
        <ele>-3.4</ele>
        <time>2024-05-26T09:30:13Z</time>
      </trkpt>
      <trkpt lat="49.21839" lon="-0.17901">
        <ele>-3.4</ele>
        <time>2024-05-26T09:30:14Z</time>
      </trkpt>
      <trkpt lat="49.21846" lon="-0.17905">
        <ele>-3</ele>
        <time>2024-05-26T09:30:15Z</time>
      </trkpt>
      <trkpt lat="49.21853" lon="-0.17908">
        <ele>-2.6</ele>
        <time>2024-05-26T09:30:16Z</time>
      </trkpt>
      <trkpt lat="49.2186" lon="-0.17912">
        <ele>-2.4</ele>
        <time>2024-05-26T09:30:17Z</time>
      </trkpt>
      <trkpt lat="49.21867" lon="-0.17915">
        <ele>-2.2</ele>
        <time>2024-05-26T09:30:18Z</time>
      </trkpt>
      <trkpt lat="49.21874" lon="-0.17918">
        <ele>-2</ele>
        <time>2024-05-26T09:30:19Z</time>
      </trkpt>
      <trkpt lat="49.21882" lon="-0.17921">
        <ele>-1.8</ele>
        <time>2024-05-26T09:30:20Z</time>
      </trkpt>
      <trkpt lat="49.21889" lon="-0.17923">
        <ele>-1.8</ele>
        <time>2024-05-26T09:30:21Z</time>
      </trkpt>
      <trkpt lat="49.21897" lon="-0.17926">
        <ele>-1.6</ele>
        <time>2024-05-26T09:30:22Z</time>
      </trkpt>
      <trkpt lat="49.21905" lon="-0.17927">
        <ele>-1.6</ele>
        <time>2024-05-26T09:30:23Z</time>
      </trkpt>
      <trkpt lat="49.21912" lon="-0.17928">
        <ele>-1.6</ele>
        <time>2024-05-26T09:30:24Z</time>
      </trkpt>
      <trkpt lat="49.21921" lon="-0.17928">
        <ele>-1.6</ele>
        <time>2024-05-26T09:30:25Z</time>
      </trkpt>
      <trkpt lat="49.21929" lon="-0.17928">
        <ele>-1.6</ele>
        <time>2024-05-26T09:30:26Z</time>
      </trkpt>
      <trkpt lat="49.21938" lon="-0.17927">
        <ele>-1.6</ele>
        <time>2024-05-26T09:30:27Z</time>
      </trkpt>
      <trkpt lat="49.21949" lon="-0.17926">
        <ele>-1.6</ele>
        <time>2024-05-26T09:30:28Z</time>
      </trkpt>
      <trkpt lat="49.21956" lon="-0.17925">
        <ele>-1.6</ele>
        <time>2024-05-26T09:30:29Z</time>
      </trkpt>
      <trkpt lat="49.21965" lon="-0.17923">
        <ele>-1.8</ele>
        <time>2024-05-26T09:30:30Z</time>
      </trkpt>
      <trkpt lat="49.21976" lon="-0.17919">
        <ele>-1.8</ele>
        <time>2024-05-26T09:30:31Z</time>
      </trkpt>
      <trkpt lat="49.21984" lon="-0.17915">
        <ele>-2</ele>
        <time>2024-05-26T09:30:32Z</time>
      </trkpt>
      <trkpt lat="49.21993" lon="-0.17911">
        <ele>-2.4</ele>
        <time>2024-05-26T09:30:33Z</time>
      </trkpt>
      <trkpt lat="49.22001" lon="-0.17906">
        <ele>-2.8</ele>
        <time>2024-05-26T09:30:34Z</time>
      </trkpt>
      <trkpt lat="49.22009" lon="-0.17902">
        <ele>-3.2</ele>
        <time>2024-05-26T09:30:35Z</time>
      </trkpt>
      <trkpt lat="49.22017" lon="-0.17896">
        <ele>-3.8</ele>
        <time>2024-05-26T09:30:36Z</time>
      </trkpt>
      <trkpt lat="49.22024" lon="-0.17891">
        <ele>-4.6</ele>
        <time>2024-05-26T09:30:37Z</time>
      </trkpt>
      <trkpt lat="49.22032" lon="-0.17886">
        <ele>-4.6</ele>
        <time>2024-05-26T09:30:38Z</time>
      </trkpt>
      <trkpt lat="49.22039" lon="-0.17881">
        <ele>-5</ele>
        <time>2024-05-26T09:30:39Z</time>
      </trkpt>
      <trkpt lat="49.22047" lon="-0.17876">
        <ele>-5.2</ele>
        <time>2024-05-26T09:30:40Z</time>
      </trkpt>
      <trkpt lat="49.22055" lon="-0.17872">
        <ele>-5.4</ele>
        <time>2024-05-26T09:30:41Z</time>
      </trkpt>
      <trkpt lat="49.22063" lon="-0.17868">
        <ele>-5.4</ele>
        <time>2024-05-26T09:30:42Z</time>
      </trkpt>
      <trkpt lat="49.22071" lon="-0.17866">
        <ele>-5.6</ele>
        <time>2024-05-26T09:30:43Z</time>
      </trkpt>
      <trkpt lat="49.22079" lon="-0.17863">
        <ele>-5.6</ele>
        <time>2024-05-26T09:30:44Z</time>
      </trkpt>
      <trkpt lat="49.22087" lon="-0.17861">
        <ele>-5.6</ele>
        <time>2024-05-26T09:30:45Z</time>
      </trkpt>
      <trkpt lat="49.22096" lon="-0.1786">
        <ele>-5.6</ele>
        <time>2024-05-26T09:30:46Z</time>
      </trkpt>
      <trkpt lat="49.22104" lon="-0.1786">
        <ele>-5.8</ele>
        <time>2024-05-26T09:30:47Z</time>
      </trkpt>
      <trkpt lat="49.22112" lon="-0.1786">
        <ele>-5.8</ele>
        <time>2024-05-26T09:30:48Z</time>
      </trkpt>
      <trkpt lat="49.22121" lon="-0.17859">
        <ele>-5.8</ele>
        <time>2024-05-26T09:30:49Z</time>
      </trkpt>
      <trkpt lat="49.22129" lon="-0.17858">
        <ele>-5.8</ele>
        <time>2024-05-26T09:30:50Z</time>
      </trkpt>
      <trkpt lat="49.22135" lon="-0.17857">
        <ele>-5.8</ele>
        <time>2024-05-26T09:30:51Z</time>
      </trkpt>
      <trkpt lat="49.22143" lon="-0.17855">
        <ele>-5.8</ele>
        <time>2024-05-26T09:30:52Z</time>
      </trkpt>
      <trkpt lat="49.22152" lon="-0.17853">
        <ele>-5.6</ele>
        <time>2024-05-26T09:30:53Z</time>
      </trkpt>
      <trkpt lat="49.22161" lon="-0.17849">
        <ele>-5.6</ele>
        <time>2024-05-26T09:30:54Z</time>
      </trkpt>
      <trkpt lat="49.22169" lon="-0.17847">
        <ele>-5.6</ele>
        <time>2024-05-26T09:30:55Z</time>
      </trkpt>
      <trkpt lat="49.22177" lon="-0.17844">
        <ele>-5.6</ele>
        <time>2024-05-26T09:30:56Z</time>
      </trkpt>
      <trkpt lat="49.22184" lon="-0.17842">
        <ele>-5.6</ele>
        <time>2024-05-26T09:30:57Z</time>
      </trkpt>
      <trkpt lat="49.22193" lon="-0.17838">
        <ele>-5.8</ele>
        <time>2024-05-26T09:30:58Z</time>
      </trkpt>
      <trkpt lat="49.22202" lon="-0.17834">
        <ele>-5.8</ele>
        <time>2024-05-26T09:30:59Z</time>
      </trkpt>
      <trkpt lat="49.2221" lon="-0.17831">
        <ele>-5.8</ele>
        <time>2024-05-26T09:31:00Z</time>
      </trkpt>
      <trkpt lat="49.22218" lon="-0.17828">
        <ele>-5.8</ele>
        <time>2024-05-26T09:31:01Z</time>
      </trkpt>
      <trkpt lat="49.22226" lon="-0.17826">
        <ele>-5.8</ele>
        <time>2024-05-26T09:31:02Z</time>
      </trkpt>
      <trkpt lat="49.22235" lon="-0.17824">
        <ele>-5.8</ele>
        <time>2024-05-26T09:31:03Z</time>
      </trkpt>
      <trkpt lat="49.22243" lon="-0.17822">
        <ele>-5.8</ele>
        <time>2024-05-26T09:31:04Z</time>
      </trkpt>
      <trkpt lat="49.22249" lon="-0.17822">
        <ele>-5.8</ele>
        <time>2024-05-26T09:31:05Z</time>
      </trkpt>
      <trkpt lat="49.22259" lon="-0.17821">
        <ele>-5.8</ele>
        <time>2024-05-26T09:31:06Z</time>
      </trkpt>
      <trkpt lat="49.22268" lon="-0.1782">
        <ele>-5.6</ele>
        <time>2024-05-26T09:31:07Z</time>
      </trkpt>
      <trkpt lat="49.22276" lon="-0.1782">
        <ele>-5.6</ele>
        <time>2024-05-26T09:31:08Z</time>
      </trkpt>
      <trkpt lat="49.22284" lon="-0.17819">
        <ele>-5.6</ele>
        <time>2024-05-26T09:31:09Z</time>
      </trkpt>
      <trkpt lat="49.22293" lon="-0.17818">
        <ele>-5.6</ele>
        <time>2024-05-26T09:31:10Z</time>
      </trkpt>
      <trkpt lat="49.22301" lon="-0.17816">
        <ele>-5.6</ele>
        <time>2024-05-26T09:31:11Z</time>
      </trkpt>
      <trkpt lat="49.22309" lon="-0.17816">
        <ele>-5.6</ele>
        <time>2024-05-26T09:31:12Z</time>
      </trkpt>
      <trkpt lat="49.22317" lon="-0.17815">
        <ele>-5.4</ele>
        <time>2024-05-26T09:31:13Z</time>
      </trkpt>
      <trkpt lat="49.22325" lon="-0.17815">
        <ele>-5.4</ele>
        <time>2024-05-26T09:31:14Z</time>
      </trkpt>
      <trkpt lat="49.22333" lon="-0.17815">
        <ele>-5.2</ele>
        <time>2024-05-26T09:31:15Z</time>
      </trkpt>
      <trkpt lat="49.22341" lon="-0.17815">
        <ele>-5.2</ele>
        <time>2024-05-26T09:31:16Z</time>
      </trkpt>
      <trkpt lat="49.22349" lon="-0.17816">
        <ele>-5.2</ele>
        <time>2024-05-26T09:31:17Z</time>
      </trkpt>
      <trkpt lat="49.22357" lon="-0.17816">
        <ele>-5</ele>
        <time>2024-05-26T09:31:18Z</time>
      </trkpt>
      <trkpt lat="49.22365" lon="-0.17818">
        <ele>-5</ele>
        <time>2024-05-26T09:31:19Z</time>
      </trkpt>
      <trkpt lat="49.22372" lon="-0.1782">
        <ele>-5</ele>
        <time>2024-05-26T09:31:20Z</time>
      </trkpt>
      <trkpt lat="49.2238" lon="-0.17822">
        <ele>-5</ele>
        <time>2024-05-26T09:31:21Z</time>
      </trkpt>
      <trkpt lat="49.22387" lon="-0.17824">
        <ele>-5</ele>
        <time>2024-05-26T09:31:22Z</time>
      </trkpt>
      <trkpt lat="49.22395" lon="-0.17826">
        <ele>-5</ele>
        <time>2024-05-26T09:31:23Z</time>
      </trkpt>
      <trkpt lat="49.22402" lon="-0.17829">
        <ele>-5</ele>
        <time>2024-05-26T09:31:24Z</time>
      </trkpt>
      <trkpt lat="49.2241" lon="-0.17832">
        <ele>-5</ele>
        <time>2024-05-26T09:31:25Z</time>
      </trkpt>
      <trkpt lat="49.22417" lon="-0.17835">
        <ele>-4.8</ele>
        <time>2024-05-26T09:31:26Z</time>
      </trkpt>
      <trkpt lat="49.22425" lon="-0.17838">
        <ele>-4.8</ele>
        <time>2024-05-26T09:31:27Z</time>
      </trkpt>
      <trkpt lat="49.22432" lon="-0.17841">
        <ele>-4.8</ele>
        <time>2024-05-26T09:31:28Z</time>
      </trkpt>
      <trkpt lat="49.2244" lon="-0.17845">
        <ele>-4.6</ele>
        <time>2024-05-26T09:31:29Z</time>
      </trkpt>
      <trkpt lat="49.22447" lon="-0.17847">
        <ele>-4.6</ele>
        <time>2024-05-26T09:31:30Z</time>
      </trkpt>
      <trkpt lat="49.22455" lon="-0.1785">
        <ele>-4.6</ele>
        <time>2024-05-26T09:31:31Z</time>
      </trkpt>
      <trkpt lat="49.22463" lon="-0.17852">
        <ele>-4.6</ele>
        <time>2024-05-26T09:31:32Z</time>
      </trkpt>
      <trkpt lat="49.22471" lon="-0.17855">
        <ele>-4.6</ele>
        <time>2024-05-26T09:31:33Z</time>
      </trkpt>
      <trkpt lat="49.22479" lon="-0.17858">
        <ele>-4.6</ele>
        <time>2024-05-26T09:31:34Z</time>
      </trkpt>
      <trkpt lat="49.22487" lon="-0.1786">
        <ele>-4.6</ele>
        <time>2024-05-26T09:31:35Z</time>
      </trkpt>
      <trkpt lat="49.22496" lon="-0.17863">
        <ele>-4.4</ele>
        <time>2024-05-26T09:31:36Z</time>
      </trkpt>
      <trkpt lat="49.22504" lon="-0.17864">
        <ele>-4.4</ele>
        <time>2024-05-26T09:31:37Z</time>
      </trkpt>
      <trkpt lat="49.22512" lon="-0.17865">
        <ele>-4.4</ele>
        <time>2024-05-26T09:31:38Z</time>
      </trkpt>
      <trkpt lat="49.22521" lon="-0.17867">
        <ele>-4.6</ele>
        <time>2024-05-26T09:31:39Z</time>
      </trkpt>
      <trkpt lat="49.22529" lon="-0.17868">
        <ele>-4.6</ele>
        <time>2024-05-26T09:31:40Z</time>
      </trkpt>
      <trkpt lat="49.22537" lon="-0.17869">
        <ele>-4.6</ele>
        <time>2024-05-26T09:31:41Z</time>
      </trkpt>
      <trkpt lat="49.22546" lon="-0.1787">
        <ele>-4.6</ele>
        <time>2024-05-26T09:31:42Z</time>
      </trkpt>
      <trkpt lat="49.22554" lon="-0.1787">
        <ele>-4.6</ele>
        <time>2024-05-26T09:31:43Z</time>
      </trkpt>
      <trkpt lat="49.22562" lon="-0.1787">
        <ele>-4.6</ele>
        <time>2024-05-26T09:31:44Z</time>
      </trkpt>
      <trkpt lat="49.22571" lon="-0.17869">
        <ele>-4.6</ele>
        <time>2024-05-26T09:31:45Z</time>
      </trkpt>
      <trkpt lat="49.22579" lon="-0.17868">
        <ele>-4.6</ele>
        <time>2024-05-26T09:31:46Z</time>
      </trkpt>
      <trkpt lat="49.22587" lon="-0.17867">
        <ele>-4.6</ele>
        <time>2024-05-26T09:31:47Z</time>
      </trkpt>
      <trkpt lat="49.22596" lon="-0.17865">
        <ele>-4.6</ele>
        <time>2024-05-26T09:31:48Z</time>
      </trkpt>
      <trkpt lat="49.22604" lon="-0.17863">
        <ele>-4.8</ele>
        <time>2024-05-26T09:31:49Z</time>
      </trkpt>
      <trkpt lat="49.22612" lon="-0.1786">
        <ele>-4.8</ele>
        <time>2024-05-26T09:31:50Z</time>
      </trkpt>
      <trkpt lat="49.2262" lon="-0.17857">
        <ele>-5</ele>
        <time>2024-05-26T09:31:51Z</time>
      </trkpt>
      <trkpt lat="49.22628" lon="-0.17853">
        <ele>-5</ele>
        <time>2024-05-26T09:31:52Z</time>
      </trkpt>
      <trkpt lat="49.22636" lon="-0.17849">
        <ele>-5.2</ele>
        <time>2024-05-26T09:31:53Z</time>
      </trkpt>
      <trkpt lat="49.22644" lon="-0.17845">
        <ele>-5.2</ele>
        <time>2024-05-26T09:31:54Z</time>
      </trkpt>
      <trkpt lat="49.22651" lon="-0.17839">
        <ele>-5.4</ele>
        <time>2024-05-26T09:31:55Z</time>
      </trkpt>
      <trkpt lat="49.22659" lon="-0.17834">
        <ele>-5.4</ele>
        <time>2024-05-26T09:31:56Z</time>
      </trkpt>
      <trkpt lat="49.22666" lon="-0.17828">
        <ele>-5.4</ele>
        <time>2024-05-26T09:31:57Z</time>
      </trkpt>
      <trkpt lat="49.22673" lon="-0.17821">
        <ele>-5.4</ele>
        <time>2024-05-26T09:31:58Z</time>
      </trkpt>
      <trkpt lat="49.2268" lon="-0.17813">
        <ele>-5.6</ele>
        <time>2024-05-26T09:31:59Z</time>
      </trkpt>
      <trkpt lat="49.22686" lon="-0.17804">
        <ele>-5.6</ele>
        <time>2024-05-26T09:32:00Z</time>
      </trkpt>
      <trkpt lat="49.22692" lon="-0.17794">
        <ele>-5.8</ele>
        <time>2024-05-26T09:32:01Z</time>
      </trkpt>
      <trkpt lat="49.22698" lon="-0.17784">
        <ele>-5.8</ele>
        <time>2024-05-26T09:32:02Z</time>
      </trkpt>
      <trkpt lat="49.22703" lon="-0.17774">
        <ele>-5.8</ele>
        <time>2024-05-26T09:32:03Z</time>
      </trkpt>
      <trkpt lat="49.22709" lon="-0.17765">
        <ele>-6</ele>
        <time>2024-05-26T09:32:04Z</time>
      </trkpt>
      <trkpt lat="49.22715" lon="-0.17755">
        <ele>-6</ele>
        <time>2024-05-26T09:32:05Z</time>
      </trkpt>
      <trkpt lat="49.22722" lon="-0.17747">
        <ele>-6</ele>
        <time>2024-05-26T09:32:06Z</time>
      </trkpt>
      <trkpt lat="49.22729" lon="-0.17739">
        <ele>-6</ele>
        <time>2024-05-26T09:32:07Z</time>
      </trkpt>
      <trkpt lat="49.22736" lon="-0.17733">
        <ele>-6.2</ele>
        <time>2024-05-26T09:32:08Z</time>
      </trkpt>
      <trkpt lat="49.22744" lon="-0.17727">
        <ele>-6.2</ele>
        <time>2024-05-26T09:32:09Z</time>
      </trkpt>
      <trkpt lat="49.22752" lon="-0.17722">
        <ele>-6.2</ele>
        <time>2024-05-26T09:32:10Z</time>
      </trkpt>
      <trkpt lat="49.2276" lon="-0.17717">
        <ele>-6.2</ele>
        <time>2024-05-26T09:32:11Z</time>
      </trkpt>
      <trkpt lat="49.22768" lon="-0.17712">
        <ele>-6.4</ele>
        <time>2024-05-26T09:32:12Z</time>
      </trkpt>
      <trkpt lat="49.22776" lon="-0.17708">
        <ele>-6.4</ele>
        <time>2024-05-26T09:32:13Z</time>
      </trkpt>
      <trkpt lat="49.22784" lon="-0.17704">
        <ele>-6.4</ele>
        <time>2024-05-26T09:32:14Z</time>
      </trkpt>
      <trkpt lat="49.22792" lon="-0.17701">
        <ele>-6.6</ele>
        <time>2024-05-26T09:32:15Z</time>
      </trkpt>
      <trkpt lat="49.228" lon="-0.17697">
        <ele>-6.6</ele>
        <time>2024-05-26T09:32:16Z</time>
      </trkpt>
      <trkpt lat="49.22808" lon="-0.17694">
        <ele>-6.6</ele>
        <time>2024-05-26T09:32:17Z</time>
      </trkpt>
      <trkpt lat="49.22816" lon="-0.17693">
        <ele>-6.6</ele>
        <time>2024-05-26T09:32:18Z</time>
      </trkpt>
      <trkpt lat="49.22824" lon="-0.17692">
        <ele>-6.6</ele>
        <time>2024-05-26T09:32:19Z</time>
      </trkpt>
      <trkpt lat="49.22832" lon="-0.17691">
        <ele>-6.6</ele>
        <time>2024-05-26T09:32:20Z</time>
      </trkpt>
      <trkpt lat="49.22839" lon="-0.1769">
        <ele>-6.6</ele>
        <time>2024-05-26T09:32:21Z</time>
      </trkpt>
      <trkpt lat="49.22847" lon="-0.1769">
        <ele>-6.6</ele>
        <time>2024-05-26T09:32:22Z</time>
      </trkpt>
      <trkpt lat="49.22854" lon="-0.17689">
        <ele>-6.6</ele>
        <time>2024-05-26T09:32:23Z</time>
      </trkpt>
      <trkpt lat="49.22861" lon="-0.17689">
        <ele>-6.6</ele>
        <time>2024-05-26T09:32:24Z</time>
      </trkpt>
      <trkpt lat="49.22868" lon="-0.17689">
        <ele>-6.6</ele>
        <time>2024-05-26T09:32:25Z</time>
      </trkpt>
      <trkpt lat="49.22875" lon="-0.17688">
        <ele>-6.6</ele>
        <time>2024-05-26T09:32:26Z</time>
      </trkpt>
      <trkpt lat="49.22883" lon="-0.17687">
        <ele>-6.6</ele>
        <time>2024-05-26T09:32:27Z</time>
      </trkpt>
      <trkpt lat="49.2289" lon="-0.17686">
        <ele>-6.6</ele>
        <time>2024-05-26T09:32:28Z</time>
      </trkpt>
      <trkpt lat="49.22898" lon="-0.17683">
        <ele>-6.6</ele>
        <time>2024-05-26T09:32:29Z</time>
      </trkpt>
      <trkpt lat="49.22905" lon="-0.1768">
        <ele>-6.6</ele>
        <time>2024-05-26T09:32:30Z</time>
      </trkpt>
      <trkpt lat="49.22912" lon="-0.17676">
        <ele>-6.6</ele>
        <time>2024-05-26T09:32:31Z</time>
      </trkpt>
      <trkpt lat="49.2292" lon="-0.17673">
        <ele>-6.6</ele>
        <time>2024-05-26T09:32:32Z</time>
      </trkpt>
      <trkpt lat="49.22927" lon="-0.17669">
        <ele>-6.6</ele>
        <time>2024-05-26T09:32:33Z</time>
      </trkpt>
      <trkpt lat="49.22935" lon="-0.17665">
        <ele>-6.6</ele>
        <time>2024-05-26T09:32:34Z</time>
      </trkpt>
      <trkpt lat="49.22942" lon="-0.17661">
        <ele>-6.6</ele>
        <time>2024-05-26T09:32:35Z</time>
      </trkpt>
      <trkpt lat="49.22949" lon="-0.17656">
        <ele>-6.6</ele>
        <time>2024-05-26T09:32:36Z</time>
      </trkpt>
      <trkpt lat="49.22957" lon="-0.17653">
        <ele>-6.6</ele>
        <time>2024-05-26T09:32:37Z</time>
      </trkpt>
      <trkpt lat="49.22964" lon="-0.17649">
        <ele>-6.4</ele>
        <time>2024-05-26T09:32:38Z</time>
      </trkpt>
      <trkpt lat="49.22972" lon="-0.17645">
        <ele>-6.4</ele>
        <time>2024-05-26T09:32:39Z</time>
      </trkpt>
      <trkpt lat="49.2298" lon="-0.17641">
        <ele>-6.4</ele>
        <time>2024-05-26T09:32:40Z</time>
      </trkpt>
      <trkpt lat="49.22988" lon="-0.17637">
        <ele>-6.4</ele>
        <time>2024-05-26T09:32:41Z</time>
      </trkpt>
      <trkpt lat="49.22996" lon="-0.17633">
        <ele>-6.4</ele>
        <time>2024-05-26T09:32:42Z</time>
      </trkpt>
      <trkpt lat="49.23004" lon="-0.1763">
        <ele>-6.2</ele>
        <time>2024-05-26T09:32:43Z</time>
      </trkpt>
      <trkpt lat="49.23012" lon="-0.17627">
        <ele>-6.2</ele>
        <time>2024-05-26T09:32:44Z</time>
      </trkpt>
      <trkpt lat="49.2302" lon="-0.17623">
        <ele>-6.2</ele>
        <time>2024-05-26T09:32:45Z</time>
      </trkpt>
      <trkpt lat="49.23028" lon="-0.1762">
        <ele>-6.2</ele>
        <time>2024-05-26T09:32:46Z</time>
      </trkpt>
      <trkpt lat="49.23036" lon="-0.17618">
        <ele>-6</ele>
        <time>2024-05-26T09:32:47Z</time>
      </trkpt>
      <trkpt lat="49.23044" lon="-0.17616">
        <ele>-6</ele>
        <time>2024-05-26T09:32:48Z</time>
      </trkpt>
      <trkpt lat="49.23052" lon="-0.17614">
        <ele>-6</ele>
        <time>2024-05-26T09:32:49Z</time>
      </trkpt>
      <trkpt lat="49.2306" lon="-0.17613">
        <ele>-6</ele>
        <time>2024-05-26T09:32:50Z</time>
      </trkpt>
      <trkpt lat="49.23068" lon="-0.17612">
        <ele>-6</ele>
        <time>2024-05-26T09:32:51Z</time>
      </trkpt>
      <trkpt lat="49.23076" lon="-0.17611">
        <ele>-6</ele>
        <time>2024-05-26T09:32:52Z</time>
      </trkpt>
      <trkpt lat="49.23084" lon="-0.17611">
        <ele>-6</ele>
        <time>2024-05-26T09:32:53Z</time>
      </trkpt>
      <trkpt lat="49.23092" lon="-0.1761">
        <ele>-5.8</ele>
        <time>2024-05-26T09:32:54Z</time>
      </trkpt>
      <trkpt lat="49.231" lon="-0.1761">
        <ele>-5.6</ele>
        <time>2024-05-26T09:32:55Z</time>
      </trkpt>
      <trkpt lat="49.23108" lon="-0.17611">
        <ele>-5.6</ele>
        <time>2024-05-26T09:32:56Z</time>
      </trkpt>
      <trkpt lat="49.23116" lon="-0.17611">
        <ele>-5.6</ele>
        <time>2024-05-26T09:32:57Z</time>
      </trkpt>
      <trkpt lat="49.23125" lon="-0.17612">
        <ele>-5.6</ele>
        <time>2024-05-26T09:32:58Z</time>
      </trkpt>
      <trkpt lat="49.23133" lon="-0.17614">
        <ele>-5.6</ele>
        <time>2024-05-26T09:32:59Z</time>
      </trkpt>
      <trkpt lat="49.23142" lon="-0.17615">
        <ele>-5.4</ele>
        <time>2024-05-26T09:33:00Z</time>
      </trkpt>
      <trkpt lat="49.23151" lon="-0.17617">
        <ele>-5.4</ele>
        <time>2024-05-26T09:33:01Z</time>
      </trkpt>
      <trkpt lat="49.23159" lon="-0.1762">
        <ele>-5.4</ele>
        <time>2024-05-26T09:33:02Z</time>
      </trkpt>
      <trkpt lat="49.23167" lon="-0.17622">
        <ele>-5.2</ele>
        <time>2024-05-26T09:33:03Z</time>
      </trkpt>
      <trkpt lat="49.23176" lon="-0.17625">
        <ele>-5.2</ele>
        <time>2024-05-26T09:33:04Z</time>
      </trkpt>
      <trkpt lat="49.23185" lon="-0.17628">
        <ele>-5</ele>
        <time>2024-05-26T09:33:05Z</time>
      </trkpt>
      <trkpt lat="49.23193" lon="-0.17632">
        <ele>-5</ele>
        <time>2024-05-26T09:33:06Z</time>
      </trkpt>
      <trkpt lat="49.23202" lon="-0.17635">
        <ele>-4.8</ele>
        <time>2024-05-26T09:33:07Z</time>
      </trkpt>
      <trkpt lat="49.2321" lon="-0.17639">
        <ele>-4.8</ele>
        <time>2024-05-26T09:33:08Z</time>
      </trkpt>
      <trkpt lat="49.23219" lon="-0.17643">
        <ele>-4.6</ele>
        <time>2024-05-26T09:33:09Z</time>
      </trkpt>
      <trkpt lat="49.23228" lon="-0.17647">
        <ele>-4.6</ele>
        <time>2024-05-26T09:33:10Z</time>
      </trkpt>
      <trkpt lat="49.23236" lon="-0.17652">
        <ele>-4.6</ele>
        <time>2024-05-26T09:33:11Z</time>
      </trkpt>
      <trkpt lat="49.23244" lon="-0.17656">
        <ele>-4.6</ele>
        <time>2024-05-26T09:33:12Z</time>
      </trkpt>
      <trkpt lat="49.23253" lon="-0.17661">
        <ele>-4.6</ele>
        <time>2024-05-26T09:33:13Z</time>
      </trkpt>
      <trkpt lat="49.23261" lon="-0.17665">
        <ele>-4.6</ele>
        <time>2024-05-26T09:33:14Z</time>
      </trkpt>
      <trkpt lat="49.2327" lon="-0.1767">
        <ele>-4.6</ele>
        <time>2024-05-26T09:33:15Z</time>
      </trkpt>
      <trkpt lat="49.23278" lon="-0.17674">
        <ele>-4.6</ele>
        <time>2024-05-26T09:33:16Z</time>
      </trkpt>
      <trkpt lat="49.23287" lon="-0.17679">
        <ele>-4.6</ele>
        <time>2024-05-26T09:33:17Z</time>
      </trkpt>
      <trkpt lat="49.23295" lon="-0.17684">
        <ele>-4.6</ele>
        <time>2024-05-26T09:33:18Z</time>
      </trkpt>
      <trkpt lat="49.23304" lon="-0.17689">
        <ele>-4.6</ele>
        <time>2024-05-26T09:33:19Z</time>
      </trkpt>
      <trkpt lat="49.23313" lon="-0.17694">
        <ele>-4.6</ele>
        <time>2024-05-26T09:33:20Z</time>
      </trkpt>
      <trkpt lat="49.23321" lon="-0.17699">
        <ele>-4.6</ele>
        <time>2024-05-26T09:33:21Z</time>
      </trkpt>
      <trkpt lat="49.2333" lon="-0.17704">
        <ele>-4.8</ele>
        <time>2024-05-26T09:33:22Z</time>
      </trkpt>
      <trkpt lat="49.23339" lon="-0.1771">
        <ele>-4.8</ele>
        <time>2024-05-26T09:33:23Z</time>
      </trkpt>
      <trkpt lat="49.23347" lon="-0.17716">
        <ele>-5</ele>
        <time>2024-05-26T09:33:24Z</time>
      </trkpt>
      <trkpt lat="49.23355" lon="-0.17722">
        <ele>-5</ele>
        <time>2024-05-26T09:33:25Z</time>
      </trkpt>
      <trkpt lat="49.23364" lon="-0.17728">
        <ele>-5</ele>
        <time>2024-05-26T09:33:26Z</time>
      </trkpt>
      <trkpt lat="49.23373" lon="-0.17734">
        <ele>-5.2</ele>
        <time>2024-05-26T09:33:27Z</time>
      </trkpt>
      <trkpt lat="49.23381" lon="-0.17741">
        <ele>-5.2</ele>
        <time>2024-05-26T09:33:28Z</time>
      </trkpt>
      <trkpt lat="49.2339" lon="-0.17748">
        <ele>-5.2</ele>
        <time>2024-05-26T09:33:29Z</time>
      </trkpt>
      <trkpt lat="49.23398" lon="-0.17756">
        <ele>-5.4</ele>
        <time>2024-05-26T09:33:30Z</time>
      </trkpt>
      <trkpt lat="49.23405" lon="-0.17764">
        <ele>-5.4</ele>
        <time>2024-05-26T09:33:31Z</time>
      </trkpt>
      <trkpt lat="49.23413" lon="-0.17772">
        <ele>-5.4</ele>
        <time>2024-05-26T09:33:32Z</time>
      </trkpt>
      <trkpt lat="49.2342" lon="-0.17779">
        <ele>-5.4</ele>
        <time>2024-05-26T09:33:33Z</time>
      </trkpt>
      <trkpt lat="49.23428" lon="-0.17787">
        <ele>-5.6</ele>
        <time>2024-05-26T09:33:34Z</time>
      </trkpt>
      <trkpt lat="49.23435" lon="-0.17793">
        <ele>-5.6</ele>
        <time>2024-05-26T09:33:35Z</time>
      </trkpt>
      <trkpt lat="49.23443" lon="-0.17801">
        <ele>-5.6</ele>
        <time>2024-05-26T09:33:36Z</time>
      </trkpt>
      <trkpt lat="49.2345" lon="-0.17808">
        <ele>-5.8</ele>
        <time>2024-05-26T09:33:37Z</time>
      </trkpt>
      <trkpt lat="49.23458" lon="-0.17816">
        <ele>-5.8</ele>
        <time>2024-05-26T09:33:38Z</time>
      </trkpt>
      <trkpt lat="49.23465" lon="-0.17823">
        <ele>-6</ele>
        <time>2024-05-26T09:33:39Z</time>
      </trkpt>
      <trkpt lat="49.23472" lon="-0.17831">
        <ele>-6.2</ele>
        <time>2024-05-26T09:33:40Z</time>
      </trkpt>
      <trkpt lat="49.23479" lon="-0.1784">
        <ele>-6.2</ele>
        <time>2024-05-26T09:33:41Z</time>
      </trkpt>
      <trkpt lat="49.23485" lon="-0.1785">
        <ele>-6.2</ele>
        <time>2024-05-26T09:33:42Z</time>
      </trkpt>
      <trkpt lat="49.23491" lon="-0.1786">
        <ele>-6.2</ele>
        <time>2024-05-26T09:33:43Z</time>
      </trkpt>
      <trkpt lat="49.23495" lon="-0.17872">
        <ele>-6.2</ele>
        <time>2024-05-26T09:33:44Z</time>
      </trkpt>
      <trkpt lat="49.23498" lon="-0.17885">
        <ele>-6.4</ele>
        <time>2024-05-26T09:33:45Z</time>
      </trkpt>
      <trkpt lat="49.23501" lon="-0.17898">
        <ele>-6.4</ele>
        <time>2024-05-26T09:33:46Z</time>
      </trkpt>
      <trkpt lat="49.23503" lon="-0.17911">
        <ele>-6.4</ele>
        <time>2024-05-26T09:33:47Z</time>
      </trkpt>
      <trkpt lat="49.23505" lon="-0.17924">
        <ele>-6.4</ele>
        <time>2024-05-26T09:33:48Z</time>
      </trkpt>
      <trkpt lat="49.23507" lon="-0.17936">
        <ele>-6.4</ele>
        <time>2024-05-26T09:33:49Z</time>
      </trkpt>
      <trkpt lat="49.23508" lon="-0.17948">
        <ele>-6.4</ele>
        <time>2024-05-26T09:33:50Z</time>
      </trkpt>
      <trkpt lat="49.2351" lon="-0.1796">
        <ele>-6.4</ele>
        <time>2024-05-26T09:33:51Z</time>
      </trkpt>
      <trkpt lat="49.23512" lon="-0.17972">
        <ele>-6.4</ele>
        <time>2024-05-26T09:33:52Z</time>
      </trkpt>
      <trkpt lat="49.23514" lon="-0.17984">
        <ele>-6.2</ele>
        <time>2024-05-26T09:33:53Z</time>
      </trkpt>
      <trkpt lat="49.23517" lon="-0.17994">
        <ele>-6.2</ele>
        <time>2024-05-26T09:33:54Z</time>
      </trkpt>
      <trkpt lat="49.23521" lon="-0.18004">
        <ele>-6</ele>
        <time>2024-05-26T09:33:55Z</time>
      </trkpt>
      <trkpt lat="49.23527" lon="-0.1801">
        <ele>-6</ele>
        <time>2024-05-26T09:33:56Z</time>
      </trkpt>
      <trkpt lat="49.23534" lon="-0.18014">
        <ele>-5.8</ele>
        <time>2024-05-26T09:33:57Z</time>
      </trkpt>
      <trkpt lat="49.23541" lon="-0.18013">
        <ele>-5.8</ele>
        <time>2024-05-26T09:33:58Z</time>
      </trkpt>
      <trkpt lat="49.23549" lon="-0.18011">
        <ele>-6</ele>
        <time>2024-05-26T09:33:59Z</time>
      </trkpt>
      <trkpt lat="49.23557" lon="-0.18007">
        <ele>-6</ele>
        <time>2024-05-26T09:34:00Z</time>
      </trkpt>
      <trkpt lat="49.23565" lon="-0.18003">
        <ele>-5.8</ele>
        <time>2024-05-26T09:34:01Z</time>
      </trkpt>
      <trkpt lat="49.23573" lon="-0.17998">
        <ele>-5.8</ele>
        <time>2024-05-26T09:34:02Z</time>
      </trkpt>
      <trkpt lat="49.23582" lon="-0.17994">
        <ele>-6</ele>
        <time>2024-05-26T09:34:03Z</time>
      </trkpt>
      <trkpt lat="49.2359" lon="-0.17989">
        <ele>-6</ele>
        <time>2024-05-26T09:34:04Z</time>
      </trkpt>
      <trkpt lat="49.23599" lon="-0.17985">
        <ele>-6</ele>
        <time>2024-05-26T09:34:05Z</time>
      </trkpt>
      <trkpt lat="49.23607" lon="-0.1798">
        <ele>-5.8</ele>
        <time>2024-05-26T09:34:06Z</time>
      </trkpt>
      <trkpt lat="49.23616" lon="-0.17974">
        <ele>-5.8</ele>
        <time>2024-05-26T09:34:07Z</time>
      </trkpt>
      <trkpt lat="49.23624" lon="-0.17969">
        <ele>-6</ele>
        <time>2024-05-26T09:34:08Z</time>
      </trkpt>
      <trkpt lat="49.23632" lon="-0.17964">
        <ele>-6</ele>
        <time>2024-05-26T09:34:09Z</time>
      </trkpt>
      <trkpt lat="49.23641" lon="-0.1796">
        <ele>-6</ele>
        <time>2024-05-26T09:34:10Z</time>
      </trkpt>
      <trkpt lat="49.23649" lon="-0.17955">
        <ele>-6</ele>
        <time>2024-05-26T09:34:11Z</time>
      </trkpt>
      <trkpt lat="49.23657" lon="-0.1795">
        <ele>-6</ele>
        <time>2024-05-26T09:34:12Z</time>
      </trkpt>
      <trkpt lat="49.23665" lon="-0.17945">
        <ele>-6.2</ele>
        <time>2024-05-26T09:34:13Z</time>
      </trkpt>
      <trkpt lat="49.23673" lon="-0.1794">
        <ele>-6.2</ele>
        <time>2024-05-26T09:34:14Z</time>
      </trkpt>
      <trkpt lat="49.23682" lon="-0.17935">
        <ele>-6.2</ele>
        <time>2024-05-26T09:34:15Z</time>
      </trkpt>
      <trkpt lat="49.2369" lon="-0.1793">
        <ele>-6.2</ele>
        <time>2024-05-26T09:34:16Z</time>
      </trkpt>
      <trkpt lat="49.23698" lon="-0.17925">
        <ele>-6.2</ele>
        <time>2024-05-26T09:34:17Z</time>
      </trkpt>
      <trkpt lat="49.23706" lon="-0.17919">
        <ele>-6.2</ele>
        <time>2024-05-26T09:34:18Z</time>
      </trkpt>
      <trkpt lat="49.23714" lon="-0.17914">
        <ele>-6.4</ele>
        <time>2024-05-26T09:34:19Z</time>
      </trkpt>
      <trkpt lat="49.23722" lon="-0.17908">
        <ele>-6.4</ele>
        <time>2024-05-26T09:34:20Z</time>
      </trkpt>
      <trkpt lat="49.2373" lon="-0.17903">
        <ele>-6.4</ele>
        <time>2024-05-26T09:34:21Z</time>
      </trkpt>
      <trkpt lat="49.23738" lon="-0.17897">
        <ele>-6.4</ele>
        <time>2024-05-26T09:34:22Z</time>
      </trkpt>
      <trkpt lat="49.23747" lon="-0.17891">
        <ele>-6.4</ele>
        <time>2024-05-26T09:34:23Z</time>
      </trkpt>
      <trkpt lat="49.23754" lon="-0.17884">
        <ele>-6.6</ele>
        <time>2024-05-26T09:34:24Z</time>
      </trkpt>
      <trkpt lat="49.23762" lon="-0.17878">
        <ele>-6.6</ele>
        <time>2024-05-26T09:34:25Z</time>
      </trkpt>
      <trkpt lat="49.23769" lon="-0.17872">
        <ele>-6.6</ele>
        <time>2024-05-26T09:34:26Z</time>
      </trkpt>
      <trkpt lat="49.23776" lon="-0.17865">
        <ele>-6.6</ele>
        <time>2024-05-26T09:34:27Z</time>
      </trkpt>
      <trkpt lat="49.23783" lon="-0.17858">
        <ele>-6.6</ele>
        <time>2024-05-26T09:34:28Z</time>
      </trkpt>
      <trkpt lat="49.2379" lon="-0.17852">
        <ele>-6.4</ele>
        <time>2024-05-26T09:34:29Z</time>
      </trkpt>
      <trkpt lat="49.23798" lon="-0.17846">
        <ele>-6.2</ele>
        <time>2024-05-26T09:34:30Z</time>
      </trkpt>
      <trkpt lat="49.23805" lon="-0.17839">
        <ele>-6.4</ele>
        <time>2024-05-26T09:34:31Z</time>
      </trkpt>
      <trkpt lat="49.23812" lon="-0.17833">
        <ele>-6.2</ele>
        <time>2024-05-26T09:34:32Z</time>
      </trkpt>
      <trkpt lat="49.23819" lon="-0.17827">
        <ele>-6</ele>
        <time>2024-05-26T09:34:33Z</time>
      </trkpt>
      <trkpt lat="49.23826" lon="-0.17821">
        <ele>-6</ele>
        <time>2024-05-26T09:34:34Z</time>
      </trkpt>
      <trkpt lat="49.23833" lon="-0.17815">
        <ele>-5.8</ele>
        <time>2024-05-26T09:34:35Z</time>
      </trkpt>
      <trkpt lat="49.2384" lon="-0.17809">
        <ele>-5.8</ele>
        <time>2024-05-26T09:34:36Z</time>
      </trkpt>
      <trkpt lat="49.23847" lon="-0.17803">
        <ele>-5.8</ele>
        <time>2024-05-26T09:34:37Z</time>
      </trkpt>
      <trkpt lat="49.23854" lon="-0.17797">
        <ele>-5.8</ele>
        <time>2024-05-26T09:34:38Z</time>
      </trkpt>
      <trkpt lat="49.2386" lon="-0.17791">
        <ele>-5.8</ele>
        <time>2024-05-26T09:34:39Z</time>
      </trkpt>
      <trkpt lat="49.23867" lon="-0.17785">
        <ele>-5.6</ele>
        <time>2024-05-26T09:34:40Z</time>
      </trkpt>
      <trkpt lat="49.23873" lon="-0.17779">
        <ele>-5.6</ele>
        <time>2024-05-26T09:34:41Z</time>
      </trkpt>
      <trkpt lat="49.23879" lon="-0.17774">
        <ele>-5.6</ele>
        <time>2024-05-26T09:34:42Z</time>
      </trkpt>
      <trkpt lat="49.23886" lon="-0.17769">
        <ele>-5.6</ele>
        <time>2024-05-26T09:34:43Z</time>
      </trkpt>
      <trkpt lat="49.23893" lon="-0.17765">
        <ele>-5.4</ele>
        <time>2024-05-26T09:34:44Z</time>
      </trkpt>
      <trkpt lat="49.239" lon="-0.17762">
        <ele>-5.4</ele>
        <time>2024-05-26T09:34:45Z</time>
      </trkpt>
      <trkpt lat="49.23907" lon="-0.17758">
        <ele>-5</ele>
        <time>2024-05-26T09:34:46Z</time>
      </trkpt>
      <trkpt lat="49.23915" lon="-0.17755">
        <ele>-4.6</ele>
        <time>2024-05-26T09:34:47Z</time>
      </trkpt>
      <trkpt lat="49.23922" lon="-0.17754">
        <ele>-4.6</ele>
        <time>2024-05-26T09:34:48Z</time>
      </trkpt>
      <trkpt lat="49.2393" lon="-0.17753">
        <ele>-4.2</ele>
        <time>2024-05-26T09:34:49Z</time>
      </trkpt>
      <trkpt lat="49.23937" lon="-0.17754">
        <ele>-4</ele>
        <time>2024-05-26T09:34:50Z</time>
      </trkpt>
      <trkpt lat="49.23945" lon="-0.17754">
        <ele>-4</ele>
        <time>2024-05-26T09:34:51Z</time>
      </trkpt>
      <trkpt lat="49.23953" lon="-0.17754">
        <ele>-4</ele>
        <time>2024-05-26T09:34:52Z</time>
      </trkpt>
      <trkpt lat="49.2396" lon="-0.17754">
        <ele>-3.8</ele>
        <time>2024-05-26T09:34:53Z</time>
      </trkpt>
      <trkpt lat="49.23967" lon="-0.17755">
        <ele>-3.8</ele>
        <time>2024-05-26T09:34:54Z</time>
      </trkpt>
      <trkpt lat="49.23974" lon="-0.17755">
        <ele>-3.6</ele>
        <time>2024-05-26T09:34:55Z</time>
      </trkpt>
      <trkpt lat="49.2398" lon="-0.17756">
        <ele>-3.6</ele>
        <time>2024-05-26T09:34:56Z</time>
      </trkpt>
      <trkpt lat="49.23987" lon="-0.17755">
        <ele>-3.6</ele>
        <time>2024-05-26T09:34:57Z</time>
      </trkpt>
      <trkpt lat="49.23993" lon="-0.17755">
        <ele>-3.6</ele>
        <time>2024-05-26T09:34:58Z</time>
      </trkpt>
      <trkpt lat="49.24" lon="-0.17754">
        <ele>-3.2</ele>
        <time>2024-05-26T09:34:59Z</time>
      </trkpt>
      <trkpt lat="49.24006" lon="-0.17753">
        <ele>-3</ele>
        <time>2024-05-26T09:35:00Z</time>
      </trkpt>
      <trkpt lat="49.24013" lon="-0.17751">
        <ele>-3</ele>
        <time>2024-05-26T09:35:01Z</time>
      </trkpt>
      <trkpt lat="49.2402" lon="-0.1775">
        <ele>-2.8</ele>
        <time>2024-05-26T09:35:02Z</time>
      </trkpt>
      <trkpt lat="49.24026" lon="-0.17748">
        <ele>-2.4</ele>
        <time>2024-05-26T09:35:03Z</time>
      </trkpt>
      <trkpt lat="49.24033" lon="-0.17747">
        <ele>-2.2</ele>
        <time>2024-05-26T09:35:04Z</time>
      </trkpt>
      <trkpt lat="49.2404" lon="-0.17745">
        <ele>-2.2</ele>
        <time>2024-05-26T09:35:05Z</time>
      </trkpt>
      <trkpt lat="49.24047" lon="-0.17745">
        <ele>-2</ele>
        <time>2024-05-26T09:35:06Z</time>
      </trkpt>
      <trkpt lat="49.24054" lon="-0.17745">
        <ele>-2</ele>
        <time>2024-05-26T09:35:07Z</time>
      </trkpt>
      <trkpt lat="49.24062" lon="-0.17746">
        <ele>-2</ele>
        <time>2024-05-26T09:35:08Z</time>
      </trkpt>
      <trkpt lat="49.24069" lon="-0.17747">
        <ele>-2</ele>
        <time>2024-05-26T09:35:09Z</time>
      </trkpt>
      <trkpt lat="49.24077" lon="-0.17748">
        <ele>-2</ele>
        <time>2024-05-26T09:35:10Z</time>
      </trkpt>
      <trkpt lat="49.24084" lon="-0.1775">
        <ele>-2</ele>
        <time>2024-05-26T09:35:11Z</time>
      </trkpt>
      <trkpt lat="49.24091" lon="-0.17752">
        <ele>-2</ele>
        <time>2024-05-26T09:35:12Z</time>
      </trkpt>
      <trkpt lat="49.24097" lon="-0.17753">
        <ele>-1.8</ele>
        <time>2024-05-26T09:35:13Z</time>
      </trkpt>
      <trkpt lat="49.24103" lon="-0.17752">
        <ele>-1.8</ele>
        <time>2024-05-26T09:35:14Z</time>
      </trkpt>
      <trkpt lat="49.24107" lon="-0.17746">
        <ele>-1.8</ele>
        <time>2024-05-26T09:35:15Z</time>
      </trkpt>
      <trkpt lat="49.24109" lon="-0.17737">
        <ele>-1.8</ele>
        <time>2024-05-26T09:35:16Z</time>
      </trkpt>
      <trkpt lat="49.2411" lon="-0.17727">
        <ele>-1.8</ele>
        <time>2024-05-26T09:35:17Z</time>
      </trkpt>
      <trkpt lat="49.24111" lon="-0.17717">
        <ele>-1.8</ele>
        <time>2024-05-26T09:35:18Z</time>
      </trkpt>
      <trkpt lat="49.24111" lon="-0.17707">
        <ele>-1.8</ele>
        <time>2024-05-26T09:35:19Z</time>
      </trkpt>
      <trkpt lat="49.24111" lon="-0.17696">
        <ele>-1.8</ele>
        <time>2024-05-26T09:35:20Z</time>
      </trkpt>
      <trkpt lat="49.2411" lon="-0.17684">
        <ele>-1.8</ele>
        <time>2024-05-26T09:35:21Z</time>
      </trkpt>
      <trkpt lat="49.2411" lon="-0.17672">
        <ele>-1.8</ele>
        <time>2024-05-26T09:35:22Z</time>
      </trkpt>
      <trkpt lat="49.24109" lon="-0.17661">
        <ele>-2</ele>
        <time>2024-05-26T09:35:23Z</time>
      </trkpt>
      <trkpt lat="49.24109" lon="-0.17649">
        <ele>-2</ele>
        <time>2024-05-26T09:35:24Z</time>
      </trkpt>
      <trkpt lat="49.2411" lon="-0.17637">
        <ele>-2</ele>
        <time>2024-05-26T09:35:25Z</time>
      </trkpt>
      <trkpt lat="49.24111" lon="-0.17626">
        <ele>-2</ele>
        <time>2024-05-26T09:35:26Z</time>
      </trkpt>
      <trkpt lat="49.24113" lon="-0.17614">
        <ele>-2</ele>
        <time>2024-05-26T09:35:27Z</time>
      </trkpt>
      <trkpt lat="49.24116" lon="-0.17604">
        <ele>-2</ele>
        <time>2024-05-26T09:35:28Z</time>
      </trkpt>
      <trkpt lat="49.2412" lon="-0.17594">
        <ele>-2</ele>
        <time>2024-05-26T09:35:29Z</time>
      </trkpt>
      <trkpt lat="49.24125" lon="-0.17586">
        <ele>-2</ele>
        <time>2024-05-26T09:35:30Z</time>
      </trkpt>
      <trkpt lat="49.24131" lon="-0.1758">
        <ele>-1.8</ele>
        <time>2024-05-26T09:35:31Z</time>
      </trkpt>
      <trkpt lat="49.24137" lon="-0.17574">
        <ele>-1.8</ele>
        <time>2024-05-26T09:35:32Z</time>
      </trkpt>
      <trkpt lat="49.24142" lon="-0.17569">
        <ele>-1.8</ele>
        <time>2024-05-26T09:35:33Z</time>
      </trkpt>
      <trkpt lat="49.24148" lon="-0.17565">
        <ele>-1.8</ele>
        <time>2024-05-26T09:35:34Z</time>
      </trkpt>
      <trkpt lat="49.24153" lon="-0.17561">
        <ele>-1.8</ele>
        <time>2024-05-26T09:35:35Z</time>
      </trkpt>
      <trkpt lat="49.24159" lon="-0.17558">
        <ele>-1.8</ele>
        <time>2024-05-26T09:35:36Z</time>
      </trkpt>
      <trkpt lat="49.24164" lon="-0.17554">
        <ele>-1.8</ele>
        <time>2024-05-26T09:35:37Z</time>
      </trkpt>
      <trkpt lat="49.24169" lon="-0.1755">
        <ele>-1.8</ele>
        <time>2024-05-26T09:35:38Z</time>
      </trkpt>
      <trkpt lat="49.24175" lon="-0.17546">
        <ele>-1.8</ele>
        <time>2024-05-26T09:35:39Z</time>
      </trkpt>
      <trkpt lat="49.2418" lon="-0.17543">
        <ele>-1.8</ele>
        <time>2024-05-26T09:35:40Z</time>
      </trkpt>
      <trkpt lat="49.24185" lon="-0.17539">
        <ele>-1.8</ele>
        <time>2024-05-26T09:35:41Z</time>
      </trkpt>
      <trkpt lat="49.2419" lon="-0.17534">
        <ele>-1.6</ele>
        <time>2024-05-26T09:35:42Z</time>
      </trkpt>
      <trkpt lat="49.24193" lon="-0.17528">
        <ele>-1.2</ele>
        <time>2024-05-26T09:35:43Z</time>
      </trkpt>
      <trkpt lat="49.24196" lon="-0.17521">
        <ele>-0.8</ele>
        <time>2024-05-26T09:35:44Z</time>
      </trkpt>
      <trkpt lat="49.24197" lon="-0.17513">
        <ele>-0.4</ele>
        <time>2024-05-26T09:35:45Z</time>
      </trkpt>
      <trkpt lat="49.24198" lon="-0.17504">
        <ele>-0.2</ele>
        <time>2024-05-26T09:35:46Z</time>
      </trkpt>
      <trkpt lat="49.24198" lon="-0.17495">
        <ele>14.1</ele>
        <time>2024-05-26T09:35:47Z</time>
      </trkpt>
      <trkpt lat="49.24198" lon="-0.17485">
        <ele>0.4</ele>
        <time>2024-05-26T09:35:48Z</time>
      </trkpt>
      <trkpt lat="49.24198" lon="-0.17475">
        <ele>0.8</ele>
        <time>2024-05-26T09:35:49Z</time>
      </trkpt>
      <trkpt lat="49.24199" lon="-0.17465">
        <ele>1.2</ele>
        <time>2024-05-26T09:35:50Z</time>
      </trkpt>
      <trkpt lat="49.24201" lon="-0.17455">
        <ele>1.4</ele>
        <time>2024-05-26T09:35:51Z</time>
      </trkpt>
      <trkpt lat="49.24203" lon="-0.17447">
        <ele>1.8</ele>
        <time>2024-05-26T09:35:52Z</time>
      </trkpt>
      <trkpt lat="49.24207" lon="-0.17439">
        <ele>2</ele>
        <time>2024-05-26T09:35:53Z</time>
      </trkpt>
      <trkpt lat="49.24212" lon="-0.17433">
        <ele>2.2</ele>
        <time>2024-05-26T09:35:54Z</time>
      </trkpt>
      <trkpt lat="49.24218" lon="-0.17428">
        <ele>2.4</ele>
        <time>2024-05-26T09:35:55Z</time>
      </trkpt>
      <trkpt lat="49.24224" lon="-0.17425">
        <ele>2.8</ele>
        <time>2024-05-26T09:35:56Z</time>
      </trkpt>
      <trkpt lat="49.24231" lon="-0.17422">
        <ele>3</ele>
        <time>2024-05-26T09:35:57Z</time>
      </trkpt>
      <trkpt lat="49.24237" lon="-0.1742">
        <ele>3.2</ele>
        <time>2024-05-26T09:35:58Z</time>
      </trkpt>
      <trkpt lat="49.24244" lon="-0.17419">
        <ele>3.4</ele>
        <time>2024-05-26T09:35:59Z</time>
      </trkpt>
      <trkpt lat="49.2425" lon="-0.17418">
        <ele>3.4</ele>
        <time>2024-05-26T09:36:00Z</time>
      </trkpt>
      <trkpt lat="49.24257" lon="-0.17417">
        <ele>3.6</ele>
        <time>2024-05-26T09:36:01Z</time>
      </trkpt>
      <trkpt lat="49.24264" lon="-0.17416">
        <ele>3.6</ele>
        <time>2024-05-26T09:36:02Z</time>
      </trkpt>
      <trkpt lat="49.2427" lon="-0.17416">
        <ele>3.6</ele>
        <time>2024-05-26T09:36:03Z</time>
      </trkpt>
      <trkpt lat="49.24277" lon="-0.17415">
        <ele>3.8</ele>
        <time>2024-05-26T09:36:04Z</time>
      </trkpt>
      <trkpt lat="49.24283" lon="-0.17414">
        <ele>3.8</ele>
        <time>2024-05-26T09:36:05Z</time>
      </trkpt>
      <trkpt lat="49.2429" lon="-0.17413">
        <ele>4</ele>
        <time>2024-05-26T09:36:06Z</time>
      </trkpt>
      <trkpt lat="49.24297" lon="-0.17413">
        <ele>4</ele>
        <time>2024-05-26T09:36:07Z</time>
      </trkpt>
      <trkpt lat="49.24303" lon="-0.17414">
        <ele>4</ele>
        <time>2024-05-26T09:36:08Z</time>
      </trkpt>
      <trkpt lat="49.2431" lon="-0.17414">
        <ele>4</ele>
        <time>2024-05-26T09:36:09Z</time>
      </trkpt>
      <trkpt lat="49.24317" lon="-0.17414">
        <ele>4.2</ele>
        <time>2024-05-26T09:36:10Z</time>
      </trkpt>
      <trkpt lat="49.24323" lon="-0.17414">
        <ele>4.2</ele>
        <time>2024-05-26T09:36:11Z</time>
      </trkpt>
      <trkpt lat="49.2433" lon="-0.17413">
        <ele>4.2</ele>
        <time>2024-05-26T09:36:12Z</time>
      </trkpt>
      <trkpt lat="49.24336" lon="-0.17412">
        <ele>4.4</ele>
        <time>2024-05-26T09:36:13Z</time>
      </trkpt>
      <trkpt lat="49.24343" lon="-0.17411">
        <ele>4.4</ele>
        <time>2024-05-26T09:36:14Z</time>
      </trkpt>
      <trkpt lat="49.2435" lon="-0.1741">
        <ele>4.4</ele>
        <time>2024-05-26T09:36:15Z</time>
      </trkpt>
      <trkpt lat="49.24356" lon="-0.17408">
        <ele>4.4</ele>
        <time>2024-05-26T09:36:16Z</time>
      </trkpt>
      <trkpt lat="49.24363" lon="-0.17406">
        <ele>4.4</ele>
        <time>2024-05-26T09:36:17Z</time>
      </trkpt>
      <trkpt lat="49.24369" lon="-0.17402">
        <ele>4.4</ele>
        <time>2024-05-26T09:36:18Z</time>
      </trkpt>
      <trkpt lat="49.24374" lon="-0.17396">
        <ele>4.4</ele>
        <time>2024-05-26T09:36:19Z</time>
      </trkpt>
      <trkpt lat="49.24378" lon="-0.17388">
        <ele>4.6</ele>
        <time>2024-05-26T09:36:20Z</time>
      </trkpt>
      <trkpt lat="49.24381" lon="-0.17379">
        <ele>4.6</ele>
        <time>2024-05-26T09:36:21Z</time>
      </trkpt>
      <trkpt lat="49.24382" lon="-0.17369">
        <ele>4.8</ele>
        <time>2024-05-26T09:36:22Z</time>
      </trkpt>
      <trkpt lat="49.24383" lon="-0.17359">
        <ele>4.8</ele>
        <time>2024-05-26T09:36:23Z</time>
      </trkpt>
      <trkpt lat="49.24383" lon="-0.1735">
        <ele>4.8</ele>
        <time>2024-05-26T09:36:24Z</time>
      </trkpt>
      <trkpt lat="49.24383" lon="-0.1734">
        <ele>4.8</ele>
        <time>2024-05-26T09:36:25Z</time>
      </trkpt>
      <trkpt lat="49.24383" lon="-0.17331">
        <ele>5</ele>
        <time>2024-05-26T09:36:26Z</time>
      </trkpt>
      <trkpt lat="49.24383" lon="-0.17321">
        <ele>5</ele>
        <time>2024-05-26T09:36:27Z</time>
      </trkpt>
      <trkpt lat="49.24383" lon="-0.17312">
        <ele>5</ele>
        <time>2024-05-26T09:36:28Z</time>
      </trkpt>
      <trkpt lat="49.24383" lon="-0.17302">
        <ele>5</ele>
        <time>2024-05-26T09:36:29Z</time>
      </trkpt>
      <trkpt lat="49.24383" lon="-0.17292">
        <ele>5.2</ele>
        <time>2024-05-26T09:36:30Z</time>
      </trkpt>
      <trkpt lat="49.24384" lon="-0.17281">
        <ele>5.2</ele>
        <time>2024-05-26T09:36:31Z</time>
      </trkpt>
      <trkpt lat="49.24384" lon="-0.17271">
        <ele>5.2</ele>
        <time>2024-05-26T09:36:32Z</time>
      </trkpt>
      <trkpt lat="49.24385" lon="-0.17259">
        <ele>5.6</ele>
        <time>2024-05-26T09:36:33Z</time>
      </trkpt>
      <trkpt lat="49.24385" lon="-0.17248">
        <ele>5.8</ele>
        <time>2024-05-26T09:36:34Z</time>
      </trkpt>
      <trkpt lat="49.24385" lon="-0.17236">
        <ele>6.4</ele>
        <time>2024-05-26T09:36:35Z</time>
      </trkpt>
      <trkpt lat="49.24386" lon="-0.17224">
        <ele>6.6</ele>
        <time>2024-05-26T09:36:36Z</time>
      </trkpt>
      <trkpt lat="49.24386" lon="-0.17213">
        <ele>6.8</ele>
        <time>2024-05-26T09:36:37Z</time>
      </trkpt>
      <trkpt lat="49.24385" lon="-0.17201">
        <ele>6.8</ele>
        <time>2024-05-26T09:36:38Z</time>
      </trkpt>
      <trkpt lat="49.24386" lon="-0.1719">
        <ele>6.8</ele>
        <time>2024-05-26T09:36:39Z</time>
      </trkpt>
      <trkpt lat="49.24386" lon="-0.17178">
        <ele>6.8</ele>
        <time>2024-05-26T09:36:40Z</time>
      </trkpt>
      <trkpt lat="49.24386" lon="-0.17167">
        <ele>6.8</ele>
        <time>2024-05-26T09:36:41Z</time>
      </trkpt>
      <trkpt lat="49.24386" lon="-0.17155">
        <ele>6.8</ele>
        <time>2024-05-26T09:36:42Z</time>
      </trkpt>
      <trkpt lat="49.24386" lon="-0.17143">
        <ele>6.8</ele>
        <time>2024-05-26T09:36:43Z</time>
      </trkpt>
      <trkpt lat="49.24387" lon="-0.17131">
        <ele>6.8</ele>
        <time>2024-05-26T09:36:44Z</time>
      </trkpt>
      <trkpt lat="49.24387" lon="-0.17118">
        <ele>6.8</ele>
        <time>2024-05-26T09:36:45Z</time>
      </trkpt>
      <trkpt lat="49.24387" lon="-0.17105">
        <ele>6.8</ele>
        <time>2024-05-26T09:36:46Z</time>
      </trkpt>
      <trkpt lat="49.24386" lon="-0.17093">
        <ele>6.8</ele>
        <time>2024-05-26T09:36:47Z</time>
      </trkpt>
      <trkpt lat="49.24386" lon="-0.1708">
        <ele>6.8</ele>
        <time>2024-05-26T09:36:48Z</time>
      </trkpt>
      <trkpt lat="49.24385" lon="-0.17068">
        <ele>6.8</ele>
        <time>2024-05-26T09:36:49Z</time>
      </trkpt>
      <trkpt lat="49.24384" lon="-0.17055">
        <ele>6.6</ele>
        <time>2024-05-26T09:36:50Z</time>
      </trkpt>
      <trkpt lat="49.24383" lon="-0.17042">
        <ele>6.6</ele>
        <time>2024-05-26T09:36:51Z</time>
      </trkpt>
      <trkpt lat="49.24381" lon="-0.17029">
        <ele>6.6</ele>
        <time>2024-05-26T09:36:52Z</time>
      </trkpt>
      <trkpt lat="49.24379" lon="-0.17016">
        <ele>6.6</ele>
        <time>2024-05-26T09:36:53Z</time>
      </trkpt>
      <trkpt lat="49.24378" lon="-0.17003">
        <ele>6.4</ele>
        <time>2024-05-26T09:36:54Z</time>
      </trkpt>
      <trkpt lat="49.24377" lon="-0.16989">
        <ele>6.4</ele>
        <time>2024-05-26T09:36:55Z</time>
      </trkpt>
      <trkpt lat="49.24376" lon="-0.16976">
        <ele>6.4</ele>
        <time>2024-05-26T09:36:56Z</time>
      </trkpt>
      <trkpt lat="49.24374" lon="-0.16963">
        <ele>6.2</ele>
        <time>2024-05-26T09:36:57Z</time>
      </trkpt>
      <trkpt lat="49.24373" lon="-0.1695">
        <ele>6.2</ele>
        <time>2024-05-26T09:36:58Z</time>
      </trkpt>
      <trkpt lat="49.24371" lon="-0.16936">
        <ele>6</ele>
        <time>2024-05-26T09:36:59Z</time>
      </trkpt>
      <trkpt lat="49.2437" lon="-0.16922">
        <ele>6</ele>
        <time>2024-05-26T09:37:00Z</time>
      </trkpt>
      <trkpt lat="49.24368" lon="-0.16909">
        <ele>5.8</ele>
        <time>2024-05-26T09:37:01Z</time>
      </trkpt>
      <trkpt lat="49.24367" lon="-0.16895">
        <ele>5.6</ele>
        <time>2024-05-26T09:37:02Z</time>
      </trkpt>
      <trkpt lat="49.24365" lon="-0.16882">
        <ele>5.6</ele>
        <time>2024-05-26T09:37:03Z</time>
      </trkpt>
      <trkpt lat="49.24363" lon="-0.16868">
        <ele>5.4</ele>
        <time>2024-05-26T09:37:04Z</time>
      </trkpt>
      <trkpt lat="49.24361" lon="-0.16855">
        <ele>5</ele>
        <time>2024-05-26T09:37:05Z</time>
      </trkpt>
      <trkpt lat="49.24359" lon="-0.16841">
        <ele>4.8</ele>
        <time>2024-05-26T09:37:06Z</time>
      </trkpt>
      <trkpt lat="49.24358" lon="-0.16827">
        <ele>4.6</ele>
        <time>2024-05-26T09:37:07Z</time>
      </trkpt>
      <trkpt lat="49.24356" lon="-0.16814">
        <ele>4.2</ele>
        <time>2024-05-26T09:37:08Z</time>
      </trkpt>
      <trkpt lat="49.24356" lon="-0.168">
        <ele>4</ele>
        <time>2024-05-26T09:37:09Z</time>
      </trkpt>
      <trkpt lat="49.24357" lon="-0.16786">
        <ele>4</ele>
        <time>2024-05-26T09:37:10Z</time>
      </trkpt>
      <trkpt lat="49.2436" lon="-0.16773">
        <ele>4</ele>
        <time>2024-05-26T09:37:11Z</time>
      </trkpt>
      <trkpt lat="49.24365" lon="-0.1676">
        <ele>4</ele>
        <time>2024-05-26T09:37:12Z</time>
      </trkpt>
      <trkpt lat="49.24371" lon="-0.1675">
        <ele>3.8</ele>
        <time>2024-05-26T09:37:13Z</time>
      </trkpt>
      <trkpt lat="49.24378" lon="-0.1674">
        <ele>3.8</ele>
        <time>2024-05-26T09:37:14Z</time>
      </trkpt>
      <trkpt lat="49.24384" lon="-0.1673">
        <ele>3.6</ele>
        <time>2024-05-26T09:37:15Z</time>
      </trkpt>
      <trkpt lat="49.24389" lon="-0.1672">
        <ele>3.6</ele>
        <time>2024-05-26T09:37:16Z</time>
      </trkpt>
      <trkpt lat="49.24395" lon="-0.1671">
        <ele>3.6</ele>
        <time>2024-05-26T09:37:17Z</time>
      </trkpt>
      <trkpt lat="49.24401" lon="-0.167">
        <ele>3.4</ele>
        <time>2024-05-26T09:37:18Z</time>
      </trkpt>
      <trkpt lat="49.24407" lon="-0.1669">
        <ele>3.4</ele>
        <time>2024-05-26T09:37:19Z</time>
      </trkpt>
      <trkpt lat="49.24413" lon="-0.1668">
        <ele>3.4</ele>
        <time>2024-05-26T09:37:20Z</time>
      </trkpt>
      <trkpt lat="49.24419" lon="-0.1667">
        <ele>3.4</ele>
        <time>2024-05-26T09:37:21Z</time>
      </trkpt>
      <trkpt lat="49.24425" lon="-0.1666">
        <ele>3.6</ele>
        <time>2024-05-26T09:37:22Z</time>
      </trkpt>
      <trkpt lat="49.24431" lon="-0.16651">
        <ele>3.6</ele>
        <time>2024-05-26T09:37:23Z</time>
      </trkpt>
      <trkpt lat="49.24437" lon="-0.16641">
        <ele>3.6</ele>
        <time>2024-05-26T09:37:24Z</time>
      </trkpt>
      <trkpt lat="49.24443" lon="-0.16631">
        <ele>3.6</ele>
        <time>2024-05-26T09:37:25Z</time>
      </trkpt>
      <trkpt lat="49.24449" lon="-0.16621">
        <ele>3.6</ele>
        <time>2024-05-26T09:37:26Z</time>
      </trkpt>
      <trkpt lat="49.24454" lon="-0.1661">
        <ele>3.6</ele>
        <time>2024-05-26T09:37:27Z</time>
      </trkpt>
      <trkpt lat="49.2446" lon="-0.16598">
        <ele>3.6</ele>
        <time>2024-05-26T09:37:28Z</time>
      </trkpt>
      <trkpt lat="49.24465" lon="-0.16587">
        <ele>3.6</ele>
        <time>2024-05-26T09:37:29Z</time>
      </trkpt>
      <trkpt lat="49.2447" lon="-0.16574">
        <ele>3.8</ele>
        <time>2024-05-26T09:37:30Z</time>
      </trkpt>
      <trkpt lat="49.24475" lon="-0.16562">
        <ele>3.8</ele>
        <time>2024-05-26T09:37:31Z</time>
      </trkpt>
      <trkpt lat="49.24479" lon="-0.16548">
        <ele>4</ele>
        <time>2024-05-26T09:37:32Z</time>
      </trkpt>
      <trkpt lat="49.24483" lon="-0.16535">
        <ele>4</ele>
        <time>2024-05-26T09:37:33Z</time>
      </trkpt>
      <trkpt lat="49.24488" lon="-0.16522">
        <ele>4</ele>
        <time>2024-05-26T09:37:34Z</time>
      </trkpt>
      <trkpt lat="49.24493" lon="-0.16509">
        <ele>4</ele>
        <time>2024-05-26T09:37:35Z</time>
      </trkpt>
      <trkpt lat="49.24499" lon="-0.16497">
        <ele>4</ele>
        <time>2024-05-26T09:37:36Z</time>
      </trkpt>
      <trkpt lat="49.24506" lon="-0.16486">
        <ele>4</ele>
        <time>2024-05-26T09:37:37Z</time>
      </trkpt>
      <trkpt lat="49.24512" lon="-0.16476">
        <ele>4</ele>
        <time>2024-05-26T09:37:38Z</time>
      </trkpt>
      <trkpt lat="49.24519" lon="-0.16465">
        <ele>4</ele>
        <time>2024-05-26T09:37:39Z</time>
      </trkpt>
      <trkpt lat="49.24526" lon="-0.16455">
        <ele>4</ele>
        <time>2024-05-26T09:37:40Z</time>
      </trkpt>
      <trkpt lat="49.24533" lon="-0.16444">
        <ele>4</ele>
        <time>2024-05-26T09:37:41Z</time>
      </trkpt>
      <trkpt lat="49.2454" lon="-0.16433">
        <ele>4</ele>
        <time>2024-05-26T09:37:42Z</time>
      </trkpt>
      <trkpt lat="49.24547" lon="-0.16423">
        <ele>4</ele>
        <time>2024-05-26T09:37:43Z</time>
      </trkpt>
      <trkpt lat="49.24553" lon="-0.16412">
        <ele>3.8</ele>
        <time>2024-05-26T09:37:44Z</time>
      </trkpt>
      <trkpt lat="49.2456" lon="-0.16402">
        <ele>3.8</ele>
        <time>2024-05-26T09:37:45Z</time>
      </trkpt>
      <trkpt lat="49.24567" lon="-0.16391">
        <ele>3.8</ele>
        <time>2024-05-26T09:37:46Z</time>
      </trkpt>
      <trkpt lat="49.24574" lon="-0.16381">
        <ele>3.8</ele>
        <time>2024-05-26T09:37:47Z</time>
      </trkpt>
      <trkpt lat="49.24581" lon="-0.1637">
        <ele>3.8</ele>
        <time>2024-05-26T09:37:48Z</time>
      </trkpt>
      <trkpt lat="49.24587" lon="-0.16359">
        <ele>3.6</ele>
        <time>2024-05-26T09:37:49Z</time>
      </trkpt>
      <trkpt lat="49.24594" lon="-0.16348">
        <ele>3.6</ele>
        <time>2024-05-26T09:37:50Z</time>
      </trkpt>
      <trkpt lat="49.24601" lon="-0.16337">
        <ele>3.6</ele>
        <time>2024-05-26T09:37:51Z</time>
      </trkpt>
      <trkpt lat="49.24608" lon="-0.16326">
        <ele>3.6</ele>
        <time>2024-05-26T09:37:52Z</time>
      </trkpt>
      <trkpt lat="49.24615" lon="-0.16315">
        <ele>3.6</ele>
        <time>2024-05-26T09:37:53Z</time>
      </trkpt>
      <trkpt lat="49.24622" lon="-0.16304">
        <ele>3.6</ele>
        <time>2024-05-26T09:37:54Z</time>
      </trkpt>
      <trkpt lat="49.24629" lon="-0.16294">
        <ele>3.6</ele>
        <time>2024-05-26T09:37:55Z</time>
      </trkpt>
      <trkpt lat="49.24637" lon="-0.16285">
        <ele>3.6</ele>
        <time>2024-05-26T09:37:56Z</time>
      </trkpt>
      <trkpt lat="49.24644" lon="-0.16276">
        <ele>3.8</ele>
        <time>2024-05-26T09:37:57Z</time>
      </trkpt>
      <trkpt lat="49.24652" lon="-0.16267">
        <ele>3.8</ele>
        <time>2024-05-26T09:37:58Z</time>
      </trkpt>
      <trkpt lat="49.2466" lon="-0.16259">
        <ele>3.8</ele>
        <time>2024-05-26T09:37:59Z</time>
      </trkpt>
      <trkpt lat="49.24668" lon="-0.16251">
        <ele>3.8</ele>
        <time>2024-05-26T09:38:00Z</time>
      </trkpt>
      <trkpt lat="49.24676" lon="-0.16244">
        <ele>3.8</ele>
        <time>2024-05-26T09:38:01Z</time>
      </trkpt>
      <trkpt lat="49.24684" lon="-0.16237">
        <ele>3.8</ele>
        <time>2024-05-26T09:38:02Z</time>
      </trkpt>
      <trkpt lat="49.24693" lon="-0.16229">
        <ele>3.8</ele>
        <time>2024-05-26T09:38:03Z</time>
      </trkpt>
      <trkpt lat="49.24701" lon="-0.16223">
        <ele>3.6</ele>
        <time>2024-05-26T09:38:04Z</time>
      </trkpt>
      <trkpt lat="49.24709" lon="-0.16219">
        <ele>3.6</ele>
        <time>2024-05-26T09:38:05Z</time>
      </trkpt>
      <trkpt lat="49.24718" lon="-0.16214">
        <ele>3.6</ele>
        <time>2024-05-26T09:38:06Z</time>
      </trkpt>
      <trkpt lat="49.24727" lon="-0.16212">
        <ele>3.6</ele>
        <time>2024-05-26T09:38:07Z</time>
      </trkpt>
      <trkpt lat="49.24736" lon="-0.16209">
        <ele>3.6</ele>
        <time>2024-05-26T09:38:08Z</time>
      </trkpt>
      <trkpt lat="49.24745" lon="-0.16207">
        <ele>3.6</ele>
        <time>2024-05-26T09:38:09Z</time>
      </trkpt>
      <trkpt lat="49.24754" lon="-0.16206">
        <ele>3.6</ele>
        <time>2024-05-26T09:38:10Z</time>
      </trkpt>
      <trkpt lat="49.24763" lon="-0.16204">
        <ele>3.4</ele>
        <time>2024-05-26T09:38:11Z</time>
      </trkpt>
      <trkpt lat="49.24771" lon="-0.16202">
        <ele>3.4</ele>
        <time>2024-05-26T09:38:12Z</time>
      </trkpt>
      <trkpt lat="49.2478" lon="-0.162">
        <ele>3.2</ele>
        <time>2024-05-26T09:38:13Z</time>
      </trkpt>
      <trkpt lat="49.24788" lon="-0.16198">
        <ele>3.2</ele>
        <time>2024-05-26T09:38:14Z</time>
      </trkpt>
      <trkpt lat="49.24797" lon="-0.16196">
        <ele>3.2</ele>
        <time>2024-05-26T09:38:15Z</time>
      </trkpt>
      <trkpt lat="49.24805" lon="-0.16194">
        <ele>3</ele>
        <time>2024-05-26T09:38:16Z</time>
      </trkpt>
      <trkpt lat="49.24814" lon="-0.16192">
        <ele>3</ele>
        <time>2024-05-26T09:38:17Z</time>
      </trkpt>
      <trkpt lat="49.24823" lon="-0.16191">
        <ele>3</ele>
        <time>2024-05-26T09:38:18Z</time>
      </trkpt>
      <trkpt lat="49.24831" lon="-0.16189">
        <ele>3</ele>
        <time>2024-05-26T09:38:19Z</time>
      </trkpt>
      <trkpt lat="49.2484" lon="-0.16186">
        <ele>2.8</ele>
        <time>2024-05-26T09:38:20Z</time>
      </trkpt>
      <trkpt lat="49.24848" lon="-0.16185">
        <ele>2.8</ele>
        <time>2024-05-26T09:38:21Z</time>
      </trkpt>
      <trkpt lat="49.24857" lon="-0.16183">
        <ele>2.8</ele>
        <time>2024-05-26T09:38:22Z</time>
      </trkpt>
      <trkpt lat="49.24865" lon="-0.16182">
        <ele>2.8</ele>
        <time>2024-05-26T09:38:23Z</time>
      </trkpt>
      <trkpt lat="49.24874" lon="-0.1618">
        <ele>2.8</ele>
        <time>2024-05-26T09:38:24Z</time>
      </trkpt>
      <trkpt lat="49.24883" lon="-0.16179">
        <ele>2.8</ele>
        <time>2024-05-26T09:38:25Z</time>
      </trkpt>
      <trkpt lat="49.24891" lon="-0.16177">
        <ele>2.6</ele>
        <time>2024-05-26T09:38:26Z</time>
      </trkpt>
      <trkpt lat="49.249" lon="-0.16175">
        <ele>2.6</ele>
        <time>2024-05-26T09:38:27Z</time>
      </trkpt>
      <trkpt lat="49.24908" lon="-0.16174">
        <ele>2.6</ele>
        <time>2024-05-26T09:38:28Z</time>
      </trkpt>
      <trkpt lat="49.24916" lon="-0.16173">
        <ele>2.4</ele>
        <time>2024-05-26T09:38:29Z</time>
      </trkpt>
      <trkpt lat="49.24924" lon="-0.16171">
        <ele>2.4</ele>
        <time>2024-05-26T09:38:30Z</time>
      </trkpt>
      <trkpt lat="49.24932" lon="-0.1617">
        <ele>2.4</ele>
        <time>2024-05-26T09:38:31Z</time>
      </trkpt>
      <trkpt lat="49.2494" lon="-0.16169">
        <ele>2.2</ele>
        <time>2024-05-26T09:38:32Z</time>
      </trkpt>
      <trkpt lat="49.24948" lon="-0.16168">
        <ele>2.2</ele>
        <time>2024-05-26T09:38:33Z</time>
      </trkpt>
      <trkpt lat="49.24956" lon="-0.16168">
        <ele>2</ele>
        <time>2024-05-26T09:38:34Z</time>
      </trkpt>
      <trkpt lat="49.24964" lon="-0.16167">
        <ele>1.8</ele>
        <time>2024-05-26T09:38:35Z</time>
      </trkpt>
      <trkpt lat="49.24972" lon="-0.16167">
        <ele>1.8</ele>
        <time>2024-05-26T09:38:36Z</time>
      </trkpt>
      <trkpt lat="49.2498" lon="-0.16167">
        <ele>1.8</ele>
        <time>2024-05-26T09:38:37Z</time>
      </trkpt>
      <trkpt lat="49.24988" lon="-0.16167">
        <ele>1.6</ele>
        <time>2024-05-26T09:38:38Z</time>
      </trkpt>
      <trkpt lat="49.24996" lon="-0.16167">
        <ele>1.6</ele>
        <time>2024-05-26T09:38:39Z</time>
      </trkpt>
      <trkpt lat="49.25004" lon="-0.16168">
        <ele>1.6</ele>
        <time>2024-05-26T09:38:40Z</time>
      </trkpt>
      <trkpt lat="49.25012" lon="-0.1617">
        <ele>1.4</ele>
        <time>2024-05-26T09:38:41Z</time>
      </trkpt>
      <trkpt lat="49.25019" lon="-0.16171">
        <ele>1.4</ele>
        <time>2024-05-26T09:38:42Z</time>
      </trkpt>
      <trkpt lat="49.25027" lon="-0.16172">
        <ele>1.4</ele>
        <time>2024-05-26T09:38:43Z</time>
      </trkpt>
      <trkpt lat="49.25035" lon="-0.16173">
        <ele>1.2</ele>
        <time>2024-05-26T09:38:44Z</time>
      </trkpt>
      <trkpt lat="49.25043" lon="-0.16175">
        <ele>1.2</ele>
        <time>2024-05-26T09:38:45Z</time>
      </trkpt>
      <trkpt lat="49.2505" lon="-0.16178">
        <ele>1.2</ele>
        <time>2024-05-26T09:38:46Z</time>
      </trkpt>
      <trkpt lat="49.25058" lon="-0.16181">
        <ele>1</ele>
        <time>2024-05-26T09:38:47Z</time>
      </trkpt>
      <trkpt lat="49.25065" lon="-0.16184">
        <ele>1</ele>
        <time>2024-05-26T09:38:48Z</time>
      </trkpt>
      <trkpt lat="49.25072" lon="-0.16187">
        <ele>1</ele>
        <time>2024-05-26T09:38:49Z</time>
      </trkpt>
      <trkpt lat="49.25079" lon="-0.16191">
        <ele>1</ele>
        <time>2024-05-26T09:38:50Z</time>
      </trkpt>
      <trkpt lat="49.25086" lon="-0.16194">
        <ele>1</ele>
        <time>2024-05-26T09:38:51Z</time>
      </trkpt>
      <trkpt lat="49.25093" lon="-0.16198">
        <ele>1</ele>
        <time>2024-05-26T09:38:52Z</time>
      </trkpt>
      <trkpt lat="49.25099" lon="-0.16202">
        <ele>0.8</ele>
        <time>2024-05-26T09:38:53Z</time>
      </trkpt>
      <trkpt lat="49.25106" lon="-0.16205">
        <ele>0.8</ele>
        <time>2024-05-26T09:38:54Z</time>
      </trkpt>
      <trkpt lat="49.25112" lon="-0.16209">
        <ele>0.8</ele>
        <time>2024-05-26T09:38:55Z</time>
      </trkpt>
      <trkpt lat="49.25118" lon="-0.16213">
        <ele>0.8</ele>
        <time>2024-05-26T09:38:56Z</time>
      </trkpt>
      <trkpt lat="49.25124" lon="-0.16217">
        <ele>0.6</ele>
        <time>2024-05-26T09:38:57Z</time>
      </trkpt>
      <trkpt lat="49.2513" lon="-0.1622">
        <ele>0.6</ele>
        <time>2024-05-26T09:38:58Z</time>
      </trkpt>
      <trkpt lat="49.25136" lon="-0.16224">
        <ele>0.6</ele>
        <time>2024-05-26T09:38:59Z</time>
      </trkpt>
      <trkpt lat="49.25142" lon="-0.16227">
        <ele>0.6</ele>
        <time>2024-05-26T09:39:00Z</time>
      </trkpt>
      <trkpt lat="49.25147" lon="-0.16231">
        <ele>0.6</ele>
        <time>2024-05-26T09:39:01Z</time>
      </trkpt>
      <trkpt lat="49.25153" lon="-0.16235">
        <ele>0.4</ele>
        <time>2024-05-26T09:39:02Z</time>
      </trkpt>
      <trkpt lat="49.25158" lon="-0.16238">
        <ele>0.4</ele>
        <time>2024-05-26T09:39:03Z</time>
      </trkpt>
      <trkpt lat="49.25163" lon="-0.16242">
        <ele>0.4</ele>
        <time>2024-05-26T09:39:04Z</time>
      </trkpt>
      <trkpt lat="49.25169" lon="-0.16245">
        <ele>0.4</ele>
        <time>2024-05-26T09:39:05Z</time>
      </trkpt>
      <trkpt lat="49.25174" lon="-0.16246">
        <ele>0.4</ele>
        <time>2024-05-26T09:39:06Z</time>
      </trkpt>
      <trkpt lat="49.25179" lon="-0.16244">
        <ele>0.2</ele>
        <time>2024-05-26T09:39:07Z</time>
      </trkpt>
      <trkpt lat="49.25185" lon="-0.16239">
        <ele>0.2</ele>
        <time>2024-05-26T09:39:08Z</time>
      </trkpt>
      <trkpt lat="49.25189" lon="-0.16233">
        <ele>0.2</ele>
        <time>2024-05-26T09:39:09Z</time>
      </trkpt>
      <trkpt lat="49.25194" lon="-0.16226">
        <ele>0.2</ele>
        <time>2024-05-26T09:39:10Z</time>
      </trkpt>
      <trkpt lat="49.25199" lon="-0.1622">
        <ele>0.2</ele>
        <time>2024-05-26T09:39:11Z</time>
      </trkpt>
      <trkpt lat="49.25205" lon="-0.16214">
        <ele>0.2</ele>
        <time>2024-05-26T09:39:12Z</time>
      </trkpt>
      <trkpt lat="49.2521" lon="-0.16208">
        <ele>0.2</ele>
        <time>2024-05-26T09:39:13Z</time>
      </trkpt>
      <trkpt lat="49.25216" lon="-0.16203">
        <ele>9.6</ele>
        <time>2024-05-26T09:39:14Z</time>
      </trkpt>
      <trkpt lat="49.25221" lon="-0.16197">
        <ele>9.9</ele>
        <time>2024-05-26T09:39:15Z</time>
      </trkpt>
      <trkpt lat="49.25228" lon="-0.16192">
        <ele>9.7</ele>
        <time>2024-05-26T09:39:16Z</time>
      </trkpt>
      <trkpt lat="49.25234" lon="-0.16186">
        <ele>9.4</ele>
        <time>2024-05-26T09:39:17Z</time>
      </trkpt>
      <trkpt lat="49.2524" lon="-0.16181">
        <ele>9.2</ele>
        <time>2024-05-26T09:39:18Z</time>
      </trkpt>
      <trkpt lat="49.25246" lon="-0.16175">
        <ele>9</ele>
        <time>2024-05-26T09:39:19Z</time>
      </trkpt>
      <trkpt lat="49.25253" lon="-0.1617">
        <ele>9</ele>
        <time>2024-05-26T09:39:20Z</time>
      </trkpt>
      <trkpt lat="49.2526" lon="-0.16163">
        <ele>9</ele>
        <time>2024-05-26T09:39:21Z</time>
      </trkpt>
      <trkpt lat="49.25268" lon="-0.16157">
        <ele>8.8</ele>
        <time>2024-05-26T09:39:22Z</time>
      </trkpt>
      <trkpt lat="49.25275" lon="-0.16151">
        <ele>8.5</ele>
        <time>2024-05-26T09:39:23Z</time>
      </trkpt>
      <trkpt lat="49.25283" lon="-0.16144">
        <ele>-0.2</ele>
        <time>2024-05-26T09:39:24Z</time>
      </trkpt>
      <trkpt lat="49.2529" lon="-0.16138">
        <ele>-0.2</ele>
        <time>2024-05-26T09:39:25Z</time>
      </trkpt>
      <trkpt lat="49.25297" lon="-0.16132">
        <ele>-0.2</ele>
        <time>2024-05-26T09:39:26Z</time>
      </trkpt>
      <trkpt lat="49.25304" lon="-0.16126">
        <ele>-0.4</ele>
        <time>2024-05-26T09:39:27Z</time>
      </trkpt>
      <trkpt lat="49.25311" lon="-0.16121">
        <ele>-0.6</ele>
        <time>2024-05-26T09:39:28Z</time>
      </trkpt>
      <trkpt lat="49.25319" lon="-0.16116">
        <ele>-0.6</ele>
        <time>2024-05-26T09:39:29Z</time>
      </trkpt>
      <trkpt lat="49.25326" lon="-0.16111">
        <ele>-0.6</ele>
        <time>2024-05-26T09:39:30Z</time>
      </trkpt>
      <trkpt lat="49.25333" lon="-0.16106">
        <ele>-1</ele>
        <time>2024-05-26T09:39:31Z</time>
      </trkpt>
      <trkpt lat="49.25341" lon="-0.16101">
        <ele>-1.2</ele>
        <time>2024-05-26T09:39:32Z</time>
      </trkpt>
      <trkpt lat="49.25348" lon="-0.16095">
        <ele>-1.4</ele>
        <time>2024-05-26T09:39:33Z</time>
      </trkpt>
      <trkpt lat="49.25356" lon="-0.16089">
        <ele>-1.6</ele>
        <time>2024-05-26T09:39:34Z</time>
      </trkpt>
      <trkpt lat="49.25364" lon="-0.16082">
        <ele>-1.6</ele>
        <time>2024-05-26T09:39:35Z</time>
      </trkpt>
      <trkpt lat="49.25372" lon="-0.16076">
        <ele>-1.8</ele>
        <time>2024-05-26T09:39:36Z</time>
      </trkpt>
      <trkpt lat="49.25381" lon="-0.1607">
        <ele>-1.8</ele>
        <time>2024-05-26T09:39:37Z</time>
      </trkpt>
      <trkpt lat="49.25389" lon="-0.16064">
        <ele>-1.8</ele>
        <time>2024-05-26T09:39:38Z</time>
      </trkpt>
      <trkpt lat="49.25397" lon="-0.16057">
        <ele>-2</ele>
        <time>2024-05-26T09:39:39Z</time>
      </trkpt>
      <trkpt lat="49.25406" lon="-0.16051">
        <ele>-2</ele>
        <time>2024-05-26T09:39:40Z</time>
      </trkpt>
      <trkpt lat="49.25414" lon="-0.16045">
        <ele>-2.2</ele>
        <time>2024-05-26T09:39:41Z</time>
      </trkpt>
      <trkpt lat="49.25423" lon="-0.16039">
        <ele>-2.2</ele>
        <time>2024-05-26T09:39:42Z</time>
      </trkpt>
      <trkpt lat="49.25431" lon="-0.16033">
        <ele>-3</ele>
        <time>2024-05-26T09:39:43Z</time>
      </trkpt>
      <trkpt lat="49.2544" lon="-0.16027">
        <ele>-3.8</ele>
        <time>2024-05-26T09:39:44Z</time>
      </trkpt>
      <trkpt lat="49.25449" lon="-0.16021">
        <ele>-4.4</ele>
        <time>2024-05-26T09:39:45Z</time>
      </trkpt>
      <trkpt lat="49.25457" lon="-0.16016">
        <ele>-5</ele>
        <time>2024-05-26T09:39:46Z</time>
      </trkpt>
      <trkpt lat="49.25466" lon="-0.1601">
        <ele>-5.4</ele>
        <time>2024-05-26T09:39:47Z</time>
      </trkpt>
      <trkpt lat="49.25475" lon="-0.16006">
        <ele>-5.6</ele>
        <time>2024-05-26T09:39:48Z</time>
      </trkpt>
      <trkpt lat="49.25483" lon="-0.16001">
        <ele>-5.6</ele>
        <time>2024-05-26T09:39:49Z</time>
      </trkpt>
      <trkpt lat="49.25492" lon="-0.15996">
        <ele>-5.6</ele>
        <time>2024-05-26T09:39:50Z</time>
      </trkpt>
      <trkpt lat="49.25501" lon="-0.15992">
        <ele>-5.6</ele>
        <time>2024-05-26T09:39:51Z</time>
      </trkpt>
      <trkpt lat="49.2551" lon="-0.15988">
        <ele>-5.6</ele>
        <time>2024-05-26T09:39:52Z</time>
      </trkpt>
      <trkpt lat="49.25519" lon="-0.15985">
        <ele>-5.6</ele>
        <time>2024-05-26T09:39:53Z</time>
      </trkpt>
      <trkpt lat="49.25528" lon="-0.15981">
        <ele>-5.8</ele>
        <time>2024-05-26T09:39:54Z</time>
      </trkpt>
      <trkpt lat="49.25537" lon="-0.15978">
        <ele>-5.8</ele>
        <time>2024-05-26T09:39:55Z</time>
      </trkpt>
      <trkpt lat="49.25547" lon="-0.15976">
        <ele>-5.8</ele>
        <time>2024-05-26T09:39:56Z</time>
      </trkpt>
      <trkpt lat="49.25556" lon="-0.15973">
        <ele>-5.8</ele>
        <time>2024-05-26T09:39:57Z</time>
      </trkpt>
      <trkpt lat="49.25565" lon="-0.15971">
        <ele>-5.8</ele>
        <time>2024-05-26T09:39:58Z</time>
      </trkpt>
      <trkpt lat="49.25575" lon="-0.15969">
        <ele>-5.8</ele>
        <time>2024-05-26T09:39:59Z</time>
      </trkpt>
      <trkpt lat="49.25584" lon="-0.15967">
        <ele>-5.8</ele>
        <time>2024-05-26T09:40:00Z</time>
      </trkpt>
      <trkpt lat="49.25594" lon="-0.15966">
        <ele>-6</ele>
        <time>2024-05-26T09:40:01Z</time>
      </trkpt>
      <trkpt lat="49.25603" lon="-0.15966">
        <ele>-6</ele>
        <time>2024-05-26T09:40:02Z</time>
      </trkpt>
      <trkpt lat="49.25613" lon="-0.15965">
        <ele>-6.2</ele>
        <time>2024-05-26T09:40:03Z</time>
      </trkpt>
      <trkpt lat="49.25623" lon="-0.15966">
        <ele>-6.2</ele>
        <time>2024-05-26T09:40:04Z</time>
      </trkpt>
      <trkpt lat="49.25633" lon="-0.15966">
        <ele>-6.4</ele>
        <time>2024-05-26T09:40:05Z</time>
      </trkpt>
      <trkpt lat="49.25643" lon="-0.15967">
        <ele>-6.4</ele>
        <time>2024-05-26T09:40:06Z</time>
      </trkpt>
      <trkpt lat="49.25653" lon="-0.15968">
        <ele>-6.6</ele>
        <time>2024-05-26T09:40:07Z</time>
      </trkpt>
      <trkpt lat="49.25662" lon="-0.15969">
        <ele>-6.6</ele>
        <time>2024-05-26T09:40:08Z</time>
      </trkpt>
      <trkpt lat="49.25672" lon="-0.15971">
        <ele>-6.6</ele>
        <time>2024-05-26T09:40:09Z</time>
      </trkpt>
      <trkpt lat="49.25682" lon="-0.15973">
        <ele>-6.6</ele>
        <time>2024-05-26T09:40:10Z</time>
      </trkpt>
      <trkpt lat="49.25691" lon="-0.15975">
        <ele>-6.6</ele>
        <time>2024-05-26T09:40:11Z</time>
      </trkpt>
      <trkpt lat="49.257" lon="-0.15978">
        <ele>-6.6</ele>
        <time>2024-05-26T09:40:12Z</time>
      </trkpt>
      <trkpt lat="49.25709" lon="-0.1598">
        <ele>-6.8</ele>
        <time>2024-05-26T09:40:13Z</time>
      </trkpt>
      <trkpt lat="49.25719" lon="-0.15983">
        <ele>-6.8</ele>
        <time>2024-05-26T09:40:14Z</time>
      </trkpt>
      <trkpt lat="49.25728" lon="-0.15985">
        <ele>-6.8</ele>
        <time>2024-05-26T09:40:15Z</time>
      </trkpt>
      <trkpt lat="49.25738" lon="-0.15988">
        <ele>-6.8</ele>
        <time>2024-05-26T09:40:16Z</time>
      </trkpt>
      <trkpt lat="49.25747" lon="-0.15991">
        <ele>-6.8</ele>
        <time>2024-05-26T09:40:17Z</time>
      </trkpt>
      <trkpt lat="49.25757" lon="-0.15993">
        <ele>-6.8</ele>
        <time>2024-05-26T09:40:18Z</time>
      </trkpt>
      <trkpt lat="49.25766" lon="-0.15996">
        <ele>-6.8</ele>
        <time>2024-05-26T09:40:19Z</time>
      </trkpt>
      <trkpt lat="49.25776" lon="-0.15998">
        <ele>-6.8</ele>
        <time>2024-05-26T09:40:20Z</time>
      </trkpt>
      <trkpt lat="49.25785" lon="-0.16001">
        <ele>-6.8</ele>
        <time>2024-05-26T09:40:21Z</time>
      </trkpt>
      <trkpt lat="49.25795" lon="-0.16003">
        <ele>-6.8</ele>
        <time>2024-05-26T09:40:22Z</time>
      </trkpt>
      <trkpt lat="49.25804" lon="-0.16006">
        <ele>-6.8</ele>
        <time>2024-05-26T09:40:23Z</time>
      </trkpt>
      <trkpt lat="49.25814" lon="-0.16008">
        <ele>-6.8</ele>
        <time>2024-05-26T09:40:24Z</time>
      </trkpt>
      <trkpt lat="49.25824" lon="-0.16011">
        <ele>-6.8</ele>
        <time>2024-05-26T09:40:25Z</time>
      </trkpt>
      <trkpt lat="49.25833" lon="-0.16013">
        <ele>-7</ele>
        <time>2024-05-26T09:40:26Z</time>
      </trkpt>
      <trkpt lat="49.25842" lon="-0.16016">
        <ele>-7</ele>
        <time>2024-05-26T09:40:27Z</time>
      </trkpt>
      <trkpt lat="49.25851" lon="-0.16019">
        <ele>-7</ele>
        <time>2024-05-26T09:40:28Z</time>
      </trkpt>
      <trkpt lat="49.2586" lon="-0.16021">
        <ele>-7</ele>
        <time>2024-05-26T09:40:29Z</time>
      </trkpt>
      <trkpt lat="49.25869" lon="-0.16024">
        <ele>-7.2</ele>
        <time>2024-05-26T09:40:30Z</time>
      </trkpt>
      <trkpt lat="49.25878" lon="-0.16027">
        <ele>-7.2</ele>
        <time>2024-05-26T09:40:31Z</time>
      </trkpt>
      <trkpt lat="49.25887" lon="-0.16029">
        <ele>-7.2</ele>
        <time>2024-05-26T09:40:32Z</time>
      </trkpt>
      <trkpt lat="49.25897" lon="-0.16031">
        <ele>-7.2</ele>
        <time>2024-05-26T09:40:33Z</time>
      </trkpt>
      <trkpt lat="49.25906" lon="-0.16034">
        <ele>-7.2</ele>
        <time>2024-05-26T09:40:34Z</time>
      </trkpt>
      <trkpt lat="49.25915" lon="-0.16036">
        <ele>-7.2</ele>
        <time>2024-05-26T09:40:35Z</time>
      </trkpt>
      <trkpt lat="49.25924" lon="-0.16038">
        <ele>-7.4</ele>
        <time>2024-05-26T09:40:36Z</time>
      </trkpt>
      <trkpt lat="49.25933" lon="-0.16041">
        <ele>-7.4</ele>
        <time>2024-05-26T09:40:37Z</time>
      </trkpt>
      <trkpt lat="49.25942" lon="-0.16043">
        <ele>-7.4</ele>
        <time>2024-05-26T09:40:38Z</time>
      </trkpt>
      <trkpt lat="49.25951" lon="-0.16045">
        <ele>-7.4</ele>
        <time>2024-05-26T09:40:39Z</time>
      </trkpt>
      <trkpt lat="49.25958" lon="-0.16046">
        <ele>-7.6</ele>
        <time>2024-05-26T09:40:40Z</time>
      </trkpt>
      <trkpt lat="49.25969" lon="-0.16049">
        <ele>-7.6</ele>
        <time>2024-05-26T09:40:41Z</time>
      </trkpt>
      <trkpt lat="49.25977" lon="-0.16051">
        <ele>-7.6</ele>
        <time>2024-05-26T09:40:42Z</time>
      </trkpt>
      <trkpt lat="49.25986" lon="-0.16054">
        <ele>-7.8</ele>
        <time>2024-05-26T09:40:43Z</time>
      </trkpt>
      <trkpt lat="49.25995" lon="-0.16056">
        <ele>-7.8</ele>
        <time>2024-05-26T09:40:44Z</time>
      </trkpt>
      <trkpt lat="49.26004" lon="-0.16058">
        <ele>-7.8</ele>
        <time>2024-05-26T09:40:45Z</time>
      </trkpt>
      <trkpt lat="49.26012" lon="-0.1606">
        <ele>-8</ele>
        <time>2024-05-26T09:40:46Z</time>
      </trkpt>
      <trkpt lat="49.26021" lon="-0.16062">
        <ele>-8</ele>
        <time>2024-05-26T09:40:47Z</time>
      </trkpt>
      <trkpt lat="49.2603" lon="-0.16064">
        <ele>-8</ele>
        <time>2024-05-26T09:40:48Z</time>
      </trkpt>
      <trkpt lat="49.26039" lon="-0.16065">
        <ele>-8</ele>
        <time>2024-05-26T09:40:49Z</time>
      </trkpt>
      <trkpt lat="49.26048" lon="-0.16066">
        <ele>-8</ele>
        <time>2024-05-26T09:40:50Z</time>
      </trkpt>
      <trkpt lat="49.26057" lon="-0.16067">
        <ele>-8.2</ele>
        <time>2024-05-26T09:40:51Z</time>
      </trkpt>
      <trkpt lat="49.26066" lon="-0.16067">
        <ele>-8.2</ele>
        <time>2024-05-26T09:40:52Z</time>
      </trkpt>
      <trkpt lat="49.26075" lon="-0.16067">
        <ele>-8.2</ele>
        <time>2024-05-26T09:40:53Z</time>
      </trkpt>
      <trkpt lat="49.26084" lon="-0.16067">
        <ele>-8.2</ele>
        <time>2024-05-26T09:40:54Z</time>
      </trkpt>
      <trkpt lat="49.26093" lon="-0.16066">
        <ele>-8.2</ele>
        <time>2024-05-26T09:40:55Z</time>
      </trkpt>
      <trkpt lat="49.26102" lon="-0.16065">
        <ele>-8.2</ele>
        <time>2024-05-26T09:40:56Z</time>
      </trkpt>
      <trkpt lat="49.26111" lon="-0.16064">
        <ele>-8.2</ele>
        <time>2024-05-26T09:40:57Z</time>
      </trkpt>
      <trkpt lat="49.2612" lon="-0.16063">
        <ele>-8.2</ele>
        <time>2024-05-26T09:40:58Z</time>
      </trkpt>
      <trkpt lat="49.26129" lon="-0.16061">
        <ele>-8.2</ele>
        <time>2024-05-26T09:40:59Z</time>
      </trkpt>
      <trkpt lat="49.26138" lon="-0.1606">
        <ele>-8.2</ele>
        <time>2024-05-26T09:41:00Z</time>
      </trkpt>
      <trkpt lat="49.26146" lon="-0.16057">
        <ele>-8.2</ele>
        <time>2024-05-26T09:41:01Z</time>
      </trkpt>
      <trkpt lat="49.26155" lon="-0.16055">
        <ele>-8.2</ele>
        <time>2024-05-26T09:41:02Z</time>
      </trkpt>
      <trkpt lat="49.26164" lon="-0.16052">
        <ele>-8.2</ele>
        <time>2024-05-26T09:41:03Z</time>
      </trkpt>
      <trkpt lat="49.26173" lon="-0.16049">
        <ele>-8.2</ele>
        <time>2024-05-26T09:41:04Z</time>
      </trkpt>
      <trkpt lat="49.26181" lon="-0.16046">
        <ele>-8.2</ele>
        <time>2024-05-26T09:41:05Z</time>
      </trkpt>
      <trkpt lat="49.2619" lon="-0.16043">
        <ele>-8.2</ele>
        <time>2024-05-26T09:41:06Z</time>
      </trkpt>
      <trkpt lat="49.26199" lon="-0.16039">
        <ele>-8.2</ele>
        <time>2024-05-26T09:41:07Z</time>
      </trkpt>
      <trkpt lat="49.26208" lon="-0.16035">
        <ele>-8</ele>
        <time>2024-05-26T09:41:08Z</time>
      </trkpt>
      <trkpt lat="49.26216" lon="-0.16031">
        <ele>-8</ele>
        <time>2024-05-26T09:41:09Z</time>
      </trkpt>
      <trkpt lat="49.26225" lon="-0.16026">
        <ele>-8</ele>
        <time>2024-05-26T09:41:10Z</time>
      </trkpt>
      <trkpt lat="49.26233" lon="-0.16022">
        <ele>-8</ele>
        <time>2024-05-26T09:41:11Z</time>
      </trkpt>
      <trkpt lat="49.26241" lon="-0.16018">
        <ele>-8</ele>
        <time>2024-05-26T09:41:12Z</time>
      </trkpt>
      <trkpt lat="49.26249" lon="-0.16013">
        <ele>-8</ele>
        <time>2024-05-26T09:41:13Z</time>
      </trkpt>
      <trkpt lat="49.26258" lon="-0.16009">
        <ele>-8</ele>
        <time>2024-05-26T09:41:14Z</time>
      </trkpt>
      <trkpt lat="49.26266" lon="-0.16004">
        <ele>-7.8</ele>
        <time>2024-05-26T09:41:15Z</time>
      </trkpt>
      <trkpt lat="49.26275" lon="-0.16">
        <ele>-7.8</ele>
        <time>2024-05-26T09:41:16Z</time>
      </trkpt>
      <trkpt lat="49.26284" lon="-0.15995">
        <ele>-7.8</ele>
        <time>2024-05-26T09:41:17Z</time>
      </trkpt>
      <trkpt lat="49.26292" lon="-0.15991">
        <ele>-7.8</ele>
        <time>2024-05-26T09:41:18Z</time>
      </trkpt>
      <trkpt lat="49.26301" lon="-0.15986">
        <ele>-8</ele>
        <time>2024-05-26T09:41:19Z</time>
      </trkpt>
      <trkpt lat="49.26309" lon="-0.15982">
        <ele>-8</ele>
        <time>2024-05-26T09:41:20Z</time>
      </trkpt>
      <trkpt lat="49.26318" lon="-0.15977">
        <ele>-8</ele>
        <time>2024-05-26T09:41:21Z</time>
      </trkpt>
      <trkpt lat="49.26327" lon="-0.15973">
        <ele>-8</ele>
        <time>2024-05-26T09:41:22Z</time>
      </trkpt>
      <trkpt lat="49.26335" lon="-0.15968">
        <ele>-8</ele>
        <time>2024-05-26T09:41:23Z</time>
      </trkpt>
      <trkpt lat="49.26344" lon="-0.15964">
        <ele>-8</ele>
        <time>2024-05-26T09:41:24Z</time>
      </trkpt>
      <trkpt lat="49.26352" lon="-0.1596">
        <ele>-8</ele>
        <time>2024-05-26T09:41:25Z</time>
      </trkpt>
      <trkpt lat="49.26361" lon="-0.15956">
        <ele>-8.2</ele>
        <time>2024-05-26T09:41:26Z</time>
      </trkpt>
      <trkpt lat="49.26369" lon="-0.15951">
        <ele>-8.2</ele>
        <time>2024-05-26T09:41:27Z</time>
      </trkpt>
      <trkpt lat="49.26377" lon="-0.15947">
        <ele>-8.2</ele>
        <time>2024-05-26T09:41:28Z</time>
      </trkpt>
      <trkpt lat="49.26385" lon="-0.15943">
        <ele>-8.2</ele>
        <time>2024-05-26T09:41:29Z</time>
      </trkpt>
      <trkpt lat="49.26394" lon="-0.15939">
        <ele>-8.2</ele>
        <time>2024-05-26T09:41:30Z</time>
      </trkpt>
      <trkpt lat="49.26402" lon="-0.15935">
        <ele>-8.2</ele>
        <time>2024-05-26T09:41:31Z</time>
      </trkpt>
      <trkpt lat="49.2641" lon="-0.1593">
        <ele>-8.2</ele>
        <time>2024-05-26T09:41:32Z</time>
      </trkpt>
      <trkpt lat="49.26418" lon="-0.15926">
        <ele>-8.2</ele>
        <time>2024-05-26T09:41:33Z</time>
      </trkpt>
      <trkpt lat="49.26426" lon="-0.15922">
        <ele>-8.2</ele>
        <time>2024-05-26T09:41:34Z</time>
      </trkpt>
      <trkpt lat="49.26434" lon="-0.15918">
        <ele>-8.2</ele>
        <time>2024-05-26T09:41:35Z</time>
      </trkpt>
      <trkpt lat="49.26442" lon="-0.15913">
        <ele>-8.2</ele>
        <time>2024-05-26T09:41:36Z</time>
      </trkpt>
      <trkpt lat="49.26449" lon="-0.15909">
        <ele>-8.2</ele>
        <time>2024-05-26T09:41:37Z</time>
      </trkpt>
      <trkpt lat="49.26457" lon="-0.15905">
        <ele>-8.2</ele>
        <time>2024-05-26T09:41:38Z</time>
      </trkpt>
      <trkpt lat="49.26465" lon="-0.15901">
        <ele>-8.2</ele>
        <time>2024-05-26T09:41:39Z</time>
      </trkpt>
      <trkpt lat="49.26473" lon="-0.15897">
        <ele>-8.2</ele>
        <time>2024-05-26T09:41:40Z</time>
      </trkpt>
      <trkpt lat="49.26481" lon="-0.15893">
        <ele>-8.2</ele>
        <time>2024-05-26T09:41:41Z</time>
      </trkpt>
      <trkpt lat="49.26489" lon="-0.15889">
        <ele>-8.2</ele>
        <time>2024-05-26T09:41:42Z</time>
      </trkpt>
      <trkpt lat="49.26496" lon="-0.15885">
        <ele>-8.2</ele>
        <time>2024-05-26T09:41:43Z</time>
      </trkpt>
      <trkpt lat="49.26504" lon="-0.15881">
        <ele>-8.2</ele>
        <time>2024-05-26T09:41:44Z</time>
      </trkpt>
      <trkpt lat="49.26512" lon="-0.15877">
        <ele>-8.2</ele>
        <time>2024-05-26T09:41:45Z</time>
      </trkpt>
      <trkpt lat="49.2652" lon="-0.15873">
        <ele>-8.2</ele>
        <time>2024-05-26T09:41:46Z</time>
      </trkpt>
      <trkpt lat="49.26527" lon="-0.1587">
        <ele>-8.2</ele>
        <time>2024-05-26T09:41:47Z</time>
      </trkpt>
      <trkpt lat="49.26535" lon="-0.15867">
        <ele>-8</ele>
        <time>2024-05-26T09:41:48Z</time>
      </trkpt>
      <trkpt lat="49.26543" lon="-0.15864">
        <ele>-8</ele>
        <time>2024-05-26T09:41:49Z</time>
      </trkpt>
      <trkpt lat="49.26551" lon="-0.15862">
        <ele>-8</ele>
        <time>2024-05-26T09:41:50Z</time>
      </trkpt>
      <trkpt lat="49.2656" lon="-0.1586">
        <ele>-8</ele>
        <time>2024-05-26T09:41:51Z</time>
      </trkpt>
      <trkpt lat="49.26568" lon="-0.15857">
        <ele>-8</ele>
        <time>2024-05-26T09:41:52Z</time>
      </trkpt>
      <trkpt lat="49.26576" lon="-0.15855">
        <ele>-8</ele>
        <time>2024-05-26T09:41:53Z</time>
      </trkpt>
      <trkpt lat="49.26585" lon="-0.15853">
        <ele>-7.8</ele>
        <time>2024-05-26T09:41:54Z</time>
      </trkpt>
      <trkpt lat="49.26594" lon="-0.15851">
        <ele>-7.8</ele>
        <time>2024-05-26T09:41:55Z</time>
      </trkpt>
      <trkpt lat="49.26603" lon="-0.1585">
        <ele>-7.8</ele>
        <time>2024-05-26T09:41:56Z</time>
      </trkpt>
      <trkpt lat="49.26612" lon="-0.15849">
        <ele>-7.6</ele>
        <time>2024-05-26T09:41:57Z</time>
      </trkpt>
      <trkpt lat="49.26621" lon="-0.15848">
        <ele>-7.6</ele>
        <time>2024-05-26T09:41:58Z</time>
      </trkpt>
      <trkpt lat="49.26631" lon="-0.15846">
        <ele>-7.6</ele>
        <time>2024-05-26T09:41:59Z</time>
      </trkpt>
      <trkpt lat="49.2664" lon="-0.15845">
        <ele>-7.6</ele>
        <time>2024-05-26T09:42:00Z</time>
      </trkpt>
      <trkpt lat="49.26649" lon="-0.15844">
        <ele>-7.6</ele>
        <time>2024-05-26T09:42:01Z</time>
      </trkpt>
      <trkpt lat="49.26658" lon="-0.15843">
        <ele>-7.6</ele>
        <time>2024-05-26T09:42:02Z</time>
      </trkpt>
      <trkpt lat="49.26667" lon="-0.15842">
        <ele>-7.6</ele>
        <time>2024-05-26T09:42:03Z</time>
      </trkpt>
      <trkpt lat="49.26676" lon="-0.15841">
        <ele>-7.6</ele>
        <time>2024-05-26T09:42:04Z</time>
      </trkpt>
      <trkpt lat="49.26685" lon="-0.1584">
        <ele>-7.6</ele>
        <time>2024-05-26T09:42:05Z</time>
      </trkpt>
      <trkpt lat="49.26694" lon="-0.15839">
        <ele>-7.6</ele>
        <time>2024-05-26T09:42:06Z</time>
      </trkpt>
      <trkpt lat="49.26703" lon="-0.15838">
        <ele>-7.6</ele>
        <time>2024-05-26T09:42:07Z</time>
      </trkpt>
      <trkpt lat="49.26713" lon="-0.15837">
        <ele>-7.6</ele>
        <time>2024-05-26T09:42:08Z</time>
      </trkpt>
      <trkpt lat="49.26723" lon="-0.15836">
        <ele>-7.6</ele>
        <time>2024-05-26T09:42:09Z</time>
      </trkpt>
      <trkpt lat="49.26732" lon="-0.15835">
        <ele>-7.6</ele>
        <time>2024-05-26T09:42:10Z</time>
      </trkpt>
      <trkpt lat="49.26742" lon="-0.15834">
        <ele>-7.8</ele>
        <time>2024-05-26T09:42:11Z</time>
      </trkpt>
      <trkpt lat="49.26752" lon="-0.15833">
        <ele>-7.8</ele>
        <time>2024-05-26T09:42:12Z</time>
      </trkpt>
      <trkpt lat="49.26762" lon="-0.15833">
        <ele>-7.8</ele>
        <time>2024-05-26T09:42:13Z</time>
      </trkpt>
      <trkpt lat="49.26771" lon="-0.15832">
        <ele>-7.8</ele>
        <time>2024-05-26T09:42:14Z</time>
      </trkpt>
      <trkpt lat="49.2678" lon="-0.15831">
        <ele>-7.8</ele>
        <time>2024-05-26T09:42:15Z</time>
      </trkpt>
      <trkpt lat="49.26789" lon="-0.1583">
        <ele>-7.8</ele>
        <time>2024-05-26T09:42:16Z</time>
      </trkpt>
      <trkpt lat="49.26798" lon="-0.15829">
        <ele>-7.8</ele>
        <time>2024-05-26T09:42:17Z</time>
      </trkpt>
      <trkpt lat="49.26806" lon="-0.15827">
        <ele>-7.8</ele>
        <time>2024-05-26T09:42:18Z</time>
      </trkpt>
      <trkpt lat="49.26815" lon="-0.15824">
        <ele>-7.8</ele>
        <time>2024-05-26T09:42:19Z</time>
      </trkpt>
      <trkpt lat="49.26824" lon="-0.15822">
        <ele>-7.8</ele>
        <time>2024-05-26T09:42:20Z</time>
      </trkpt>
      <trkpt lat="49.26832" lon="-0.15819">
        <ele>-7.8</ele>
        <time>2024-05-26T09:42:21Z</time>
      </trkpt>
      <trkpt lat="49.26841" lon="-0.15816">
        <ele>-7.8</ele>
        <time>2024-05-26T09:42:22Z</time>
      </trkpt>
      <trkpt lat="49.2685" lon="-0.15812">
        <ele>-7.8</ele>
        <time>2024-05-26T09:42:23Z</time>
      </trkpt>
      <trkpt lat="49.26859" lon="-0.15808">
        <ele>-7.8</ele>
        <time>2024-05-26T09:42:24Z</time>
      </trkpt>
      <trkpt lat="49.26867" lon="-0.15804">
        <ele>-7.8</ele>
        <time>2024-05-26T09:42:25Z</time>
      </trkpt>
      <trkpt lat="49.26876" lon="-0.15799">
        <ele>-7.8</ele>
        <time>2024-05-26T09:42:26Z</time>
      </trkpt>
      <trkpt lat="49.26884" lon="-0.15794">
        <ele>-7.8</ele>
        <time>2024-05-26T09:42:27Z</time>
      </trkpt>
      <trkpt lat="49.26893" lon="-0.15788">
        <ele>-7.8</ele>
        <time>2024-05-26T09:42:28Z</time>
      </trkpt>
      <trkpt lat="49.26901" lon="-0.15783">
        <ele>-7.8</ele>
        <time>2024-05-26T09:42:29Z</time>
      </trkpt>
      <trkpt lat="49.2691" lon="-0.15777">
        <ele>-7.8</ele>
        <time>2024-05-26T09:42:30Z</time>
      </trkpt>
      <trkpt lat="49.26918" lon="-0.1577">
        <ele>-7.8</ele>
        <time>2024-05-26T09:42:31Z</time>
      </trkpt>
      <trkpt lat="49.26926" lon="-0.15764">
        <ele>-7.8</ele>
        <time>2024-05-26T09:42:32Z</time>
      </trkpt>
      <trkpt lat="49.26935" lon="-0.15757">
        <ele>-7.8</ele>
        <time>2024-05-26T09:42:33Z</time>
      </trkpt>
      <trkpt lat="49.26943" lon="-0.15749">
        <ele>-7.8</ele>
        <time>2024-05-26T09:42:34Z</time>
      </trkpt>
      <trkpt lat="49.26951" lon="-0.15741">
        <ele>-7.8</ele>
        <time>2024-05-26T09:42:35Z</time>
      </trkpt>
      <trkpt lat="49.26958" lon="-0.15733">
        <ele>-7.6</ele>
        <time>2024-05-26T09:42:36Z</time>
      </trkpt>
      <trkpt lat="49.26966" lon="-0.15725">
        <ele>-7.6</ele>
        <time>2024-05-26T09:42:37Z</time>
      </trkpt>
      <trkpt lat="49.26974" lon="-0.15716">
        <ele>-7.6</ele>
        <time>2024-05-26T09:42:38Z</time>
      </trkpt>
      <trkpt lat="49.26982" lon="-0.15706">
        <ele>-7.6</ele>
        <time>2024-05-26T09:42:39Z</time>
      </trkpt>
      <trkpt lat="49.26989" lon="-0.15696">
        <ele>-7.6</ele>
        <time>2024-05-26T09:42:40Z</time>
      </trkpt>
      <trkpt lat="49.26996" lon="-0.15686">
        <ele>-7.6</ele>
        <time>2024-05-26T09:42:41Z</time>
      </trkpt>
      <trkpt lat="49.27003" lon="-0.15675">
        <ele>-7.6</ele>
        <time>2024-05-26T09:42:42Z</time>
      </trkpt>
      <trkpt lat="49.2701" lon="-0.15665">
        <ele>-7.6</ele>
        <time>2024-05-26T09:42:43Z</time>
      </trkpt>
      <trkpt lat="49.27017" lon="-0.15654">
        <ele>-7.6</ele>
        <time>2024-05-26T09:42:44Z</time>
      </trkpt>
      <trkpt lat="49.27023" lon="-0.15644">
        <ele>-7.8</ele>
        <time>2024-05-26T09:42:45Z</time>
      </trkpt>
      <trkpt lat="49.2703" lon="-0.15633">
        <ele>-7.8</ele>
        <time>2024-05-26T09:42:46Z</time>
      </trkpt>
      <trkpt lat="49.27037" lon="-0.15622">
        <ele>-7.8</ele>
        <time>2024-05-26T09:42:47Z</time>
      </trkpt>
      <trkpt lat="49.27044" lon="-0.15611">
        <ele>-7.8</ele>
        <time>2024-05-26T09:42:48Z</time>
      </trkpt>
      <trkpt lat="49.27051" lon="-0.156">
        <ele>-7.8</ele>
        <time>2024-05-26T09:42:49Z</time>
      </trkpt>
      <trkpt lat="49.27058" lon="-0.15589">
        <ele>-7.6</ele>
        <time>2024-05-26T09:42:50Z</time>
      </trkpt>
      <trkpt lat="49.27065" lon="-0.15579">
        <ele>-7.6</ele>
        <time>2024-05-26T09:42:51Z</time>
      </trkpt>
      <trkpt lat="49.27071" lon="-0.15568">
        <ele>-7.6</ele>
        <time>2024-05-26T09:42:52Z</time>
      </trkpt>
      <trkpt lat="49.27078" lon="-0.15557">
        <ele>-7.6</ele>
        <time>2024-05-26T09:42:53Z</time>
      </trkpt>
      <trkpt lat="49.27085" lon="-0.15546">
        <ele>-7.6</ele>
        <time>2024-05-26T09:42:54Z</time>
      </trkpt>
      <trkpt lat="49.27092" lon="-0.15535">
        <ele>-7.6</ele>
        <time>2024-05-26T09:42:55Z</time>
      </trkpt>
      <trkpt lat="49.27098" lon="-0.15524">
        <ele>-7.6</ele>
        <time>2024-05-26T09:42:56Z</time>
      </trkpt>
      <trkpt lat="49.27105" lon="-0.15513">
        <ele>-7.6</ele>
        <time>2024-05-26T09:42:57Z</time>
      </trkpt>
      <trkpt lat="49.27111" lon="-0.15503">
        <ele>-7.8</ele>
        <time>2024-05-26T09:42:58Z</time>
      </trkpt>
      <trkpt lat="49.27118" lon="-0.15492">
        <ele>-7.8</ele>
        <time>2024-05-26T09:42:59Z</time>
      </trkpt>
      <trkpt lat="49.27125" lon="-0.15482">
        <ele>-7.8</ele>
        <time>2024-05-26T09:43:00Z</time>
      </trkpt>
      <trkpt lat="49.27132" lon="-0.15471">
        <ele>-7.8</ele>
        <time>2024-05-26T09:43:01Z</time>
      </trkpt>
      <trkpt lat="49.27138" lon="-0.15461">
        <ele>-7.8</ele>
        <time>2024-05-26T09:43:02Z</time>
      </trkpt>
      <trkpt lat="49.27145" lon="-0.1545">
        <ele>-7.8</ele>
        <time>2024-05-26T09:43:03Z</time>
      </trkpt>
      <trkpt lat="49.27151" lon="-0.1544">
        <ele>-7.8</ele>
        <time>2024-05-26T09:43:04Z</time>
      </trkpt>
      <trkpt lat="49.27158" lon="-0.15429">
        <ele>-7.8</ele>
        <time>2024-05-26T09:43:05Z</time>
      </trkpt>
      <trkpt lat="49.27165" lon="-0.15419">
        <ele>-7.8</ele>
        <time>2024-05-26T09:43:06Z</time>
      </trkpt>
      <trkpt lat="49.27172" lon="-0.15408">
        <ele>-7.8</ele>
        <time>2024-05-26T09:43:07Z</time>
      </trkpt>
      <trkpt lat="49.27179" lon="-0.15397">
        <ele>-7.8</ele>
        <time>2024-05-26T09:43:08Z</time>
      </trkpt>
      <trkpt lat="49.27186" lon="-0.15386">
        <ele>-7.8</ele>
        <time>2024-05-26T09:43:09Z</time>
      </trkpt>
      <trkpt lat="49.27193" lon="-0.15375">
        <ele>-7.8</ele>
        <time>2024-05-26T09:43:10Z</time>
      </trkpt>
      <trkpt lat="49.272" lon="-0.15364">
        <ele>-7.8</ele>
        <time>2024-05-26T09:43:11Z</time>
      </trkpt>
      <trkpt lat="49.27207" lon="-0.15353">
        <ele>-7.8</ele>
        <time>2024-05-26T09:43:12Z</time>
      </trkpt>
      <trkpt lat="49.27213" lon="-0.15342">
        <ele>-7.8</ele>
        <time>2024-05-26T09:43:13Z</time>
      </trkpt>
      <trkpt lat="49.2722" lon="-0.15332">
        <ele>-7.8</ele>
        <time>2024-05-26T09:43:14Z</time>
      </trkpt>
      <trkpt lat="49.27227" lon="-0.15321">
        <ele>-7.6</ele>
        <time>2024-05-26T09:43:15Z</time>
      </trkpt>
      <trkpt lat="49.27234" lon="-0.15311">
        <ele>-7.6</ele>
        <time>2024-05-26T09:43:16Z</time>
      </trkpt>
      <trkpt lat="49.27241" lon="-0.153">
        <ele>-7.6</ele>
        <time>2024-05-26T09:43:17Z</time>
      </trkpt>
      <trkpt lat="49.27248" lon="-0.15289">
        <ele>-7.4</ele>
        <time>2024-05-26T09:43:18Z</time>
      </trkpt>
      <trkpt lat="49.27255" lon="-0.15279">
        <ele>-7.4</ele>
        <time>2024-05-26T09:43:19Z</time>
      </trkpt>
      <trkpt lat="49.27262" lon="-0.15269">
        <ele>-7.4</ele>
        <time>2024-05-26T09:43:20Z</time>
      </trkpt>
      <trkpt lat="49.2727" lon="-0.15259">
        <ele>-7.4</ele>
        <time>2024-05-26T09:43:21Z</time>
      </trkpt>
      <trkpt lat="49.27278" lon="-0.1525">
        <ele>-7.2</ele>
        <time>2024-05-26T09:43:22Z</time>
      </trkpt>
      <trkpt lat="49.27286" lon="-0.15241">
        <ele>-7.2</ele>
        <time>2024-05-26T09:43:23Z</time>
      </trkpt>
      <trkpt lat="49.27294" lon="-0.15232">
        <ele>-7.2</ele>
        <time>2024-05-26T09:43:24Z</time>
      </trkpt>
      <trkpt lat="49.27302" lon="-0.15223">
        <ele>-7</ele>
        <time>2024-05-26T09:43:25Z</time>
      </trkpt>
      <trkpt lat="49.2731" lon="-0.15215">
        <ele>-7</ele>
        <time>2024-05-26T09:43:26Z</time>
      </trkpt>
      <trkpt lat="49.27318" lon="-0.15207">
        <ele>-7</ele>
        <time>2024-05-26T09:43:27Z</time>
      </trkpt>
      <trkpt lat="49.27326" lon="-0.15199">
        <ele>-7</ele>
        <time>2024-05-26T09:43:28Z</time>
      </trkpt>
      <trkpt lat="49.27334" lon="-0.15191">
        <ele>-7</ele>
        <time>2024-05-26T09:43:29Z</time>
      </trkpt>
      <trkpt lat="49.27342" lon="-0.15183">
        <ele>-6.8</ele>
        <time>2024-05-26T09:43:30Z</time>
      </trkpt>
      <trkpt lat="49.27351" lon="-0.15175">
        <ele>-6.8</ele>
        <time>2024-05-26T09:43:31Z</time>
      </trkpt>
      <trkpt lat="49.27359" lon="-0.15167">
        <ele>-6.8</ele>
        <time>2024-05-26T09:43:32Z</time>
      </trkpt>
      <trkpt lat="49.27367" lon="-0.15159">
        <ele>-7</ele>
        <time>2024-05-26T09:43:33Z</time>
      </trkpt>
      <trkpt lat="49.27376" lon="-0.15151">
        <ele>-7</ele>
        <time>2024-05-26T09:43:34Z</time>
      </trkpt>
      <trkpt lat="49.27384" lon="-0.15143">
        <ele>-7</ele>
        <time>2024-05-26T09:43:35Z</time>
      </trkpt>
      <trkpt lat="49.27392" lon="-0.15135">
        <ele>-7</ele>
        <time>2024-05-26T09:43:36Z</time>
      </trkpt>
      <trkpt lat="49.274" lon="-0.15128">
        <ele>-7</ele>
        <time>2024-05-26T09:43:37Z</time>
      </trkpt>
      <trkpt lat="49.27408" lon="-0.1512">
        <ele>-7</ele>
        <time>2024-05-26T09:43:38Z</time>
      </trkpt>
      <trkpt lat="49.27416" lon="-0.15112">
        <ele>-7.2</ele>
        <time>2024-05-26T09:43:39Z</time>
      </trkpt>
      <trkpt lat="49.27424" lon="-0.15105">
        <ele>-7.2</ele>
        <time>2024-05-26T09:43:40Z</time>
      </trkpt>
      <trkpt lat="49.27432" lon="-0.15097">
        <ele>-7.2</ele>
        <time>2024-05-26T09:43:41Z</time>
      </trkpt>
      <trkpt lat="49.2744" lon="-0.1509">
        <ele>-7.2</ele>
        <time>2024-05-26T09:43:42Z</time>
      </trkpt>
      <trkpt lat="49.27448" lon="-0.15082">
        <ele>-7.2</ele>
        <time>2024-05-26T09:43:43Z</time>
      </trkpt>
      <trkpt lat="49.27455" lon="-0.15074">
        <ele>-7.2</ele>
        <time>2024-05-26T09:43:44Z</time>
      </trkpt>
      <trkpt lat="49.27463" lon="-0.15066">
        <ele>-7.2</ele>
        <time>2024-05-26T09:43:45Z</time>
      </trkpt>
      <trkpt lat="49.27471" lon="-0.15059">
        <ele>-7.2</ele>
        <time>2024-05-26T09:43:46Z</time>
      </trkpt>
      <trkpt lat="49.27479" lon="-0.15051">
        <ele>-7.2</ele>
        <time>2024-05-26T09:43:47Z</time>
      </trkpt>
      <trkpt lat="49.27487" lon="-0.15043">
        <ele>-7.2</ele>
        <time>2024-05-26T09:43:48Z</time>
      </trkpt>
      <trkpt lat="49.27494" lon="-0.15035">
        <ele>-7.2</ele>
        <time>2024-05-26T09:43:49Z</time>
      </trkpt>
      <trkpt lat="49.27502" lon="-0.15027">
        <ele>-7.2</ele>
        <time>2024-05-26T09:43:50Z</time>
      </trkpt>
      <trkpt lat="49.27509" lon="-0.15018">
        <ele>-7.2</ele>
        <time>2024-05-26T09:43:51Z</time>
      </trkpt>
      <trkpt lat="49.27517" lon="-0.15009">
        <ele>-7.2</ele>
        <time>2024-05-26T09:43:52Z</time>
      </trkpt>
      <trkpt lat="49.27523" lon="-0.15001">
        <ele>-7.2</ele>
        <time>2024-05-26T09:43:53Z</time>
      </trkpt>
      <trkpt lat="49.2753" lon="-0.14992">
        <ele>-7</ele>
        <time>2024-05-26T09:43:54Z</time>
      </trkpt>
      <trkpt lat="49.27539" lon="-0.14981">
        <ele>-7</ele>
        <time>2024-05-26T09:43:55Z</time>
      </trkpt>
      <trkpt lat="49.27544" lon="-0.14974">
        <ele>-7</ele>
        <time>2024-05-26T09:43:56Z</time>
      </trkpt>
      <trkpt lat="49.2755" lon="-0.14964">
        <ele>-6.8</ele>
        <time>2024-05-26T09:43:57Z</time>
      </trkpt>
      <trkpt lat="49.27557" lon="-0.14954">
        <ele>-6.8</ele>
        <time>2024-05-26T09:43:58Z</time>
      </trkpt>
      <trkpt lat="49.27563" lon="-0.14944">
        <ele>-6.8</ele>
        <time>2024-05-26T09:43:59Z</time>
      </trkpt>
      <trkpt lat="49.27569" lon="-0.14934">
        <ele>-6.8</ele>
        <time>2024-05-26T09:44:00Z</time>
      </trkpt>
      <trkpt lat="49.27576" lon="-0.14925">
        <ele>-6.8</ele>
        <time>2024-05-26T09:44:01Z</time>
      </trkpt>
      <trkpt lat="49.27583" lon="-0.14915">
        <ele>-6.8</ele>
        <time>2024-05-26T09:44:02Z</time>
      </trkpt>
      <trkpt lat="49.2759" lon="-0.14905">
        <ele>-6.8</ele>
        <time>2024-05-26T09:44:03Z</time>
      </trkpt>
      <trkpt lat="49.27597" lon="-0.14896">
        <ele>-6.8</ele>
        <time>2024-05-26T09:44:04Z</time>
      </trkpt>
      <trkpt lat="49.27604" lon="-0.14886">
        <ele>-6.8</ele>
        <time>2024-05-26T09:44:05Z</time>
      </trkpt>
      <trkpt lat="49.2761" lon="-0.14876">
        <ele>-6.6</ele>
        <time>2024-05-26T09:44:06Z</time>
      </trkpt>
      <trkpt lat="49.27618" lon="-0.14865">
        <ele>-6.6</ele>
        <time>2024-05-26T09:44:07Z</time>
      </trkpt>
      <trkpt lat="49.27625" lon="-0.14856">
        <ele>-6.6</ele>
        <time>2024-05-26T09:44:08Z</time>
      </trkpt>
      <trkpt lat="49.27632" lon="-0.14845">
        <ele>-6.6</ele>
        <time>2024-05-26T09:44:09Z</time>
      </trkpt>
      <trkpt lat="49.27638" lon="-0.14835">
        <ele>-6.6</ele>
        <time>2024-05-26T09:44:10Z</time>
      </trkpt>
      <trkpt lat="49.27645" lon="-0.14825">
        <ele>-6.6</ele>
        <time>2024-05-26T09:44:11Z</time>
      </trkpt>
      <trkpt lat="49.27652" lon="-0.14814">
        <ele>-6.6</ele>
        <time>2024-05-26T09:44:12Z</time>
      </trkpt>
      <trkpt lat="49.27658" lon="-0.14804">
        <ele>-6.8</ele>
        <time>2024-05-26T09:44:13Z</time>
      </trkpt>
      <trkpt lat="49.27665" lon="-0.14793">
        <ele>-6.8</ele>
        <time>2024-05-26T09:44:14Z</time>
      </trkpt>
      <trkpt lat="49.27671" lon="-0.14783">
        <ele>-6.8</ele>
        <time>2024-05-26T09:44:15Z</time>
      </trkpt>
      <trkpt lat="49.27677" lon="-0.14773">
        <ele>-6.8</ele>
        <time>2024-05-26T09:44:16Z</time>
      </trkpt>
      <trkpt lat="49.27684" lon="-0.14763">
        <ele>-6.8</ele>
        <time>2024-05-26T09:44:17Z</time>
      </trkpt>
      <trkpt lat="49.2769" lon="-0.14753">
        <ele>-7</ele>
        <time>2024-05-26T09:44:18Z</time>
      </trkpt>
      <trkpt lat="49.27697" lon="-0.14743">
        <ele>-7</ele>
        <time>2024-05-26T09:44:19Z</time>
      </trkpt>
      <trkpt lat="49.27703" lon="-0.14734">
        <ele>-7</ele>
        <time>2024-05-26T09:44:20Z</time>
      </trkpt>
      <trkpt lat="49.2771" lon="-0.14724">
        <ele>-7</ele>
        <time>2024-05-26T09:44:21Z</time>
      </trkpt>
      <trkpt lat="49.27716" lon="-0.14715">
        <ele>-7</ele>
        <time>2024-05-26T09:44:22Z</time>
      </trkpt>
      <trkpt lat="49.27723" lon="-0.14705">
        <ele>-7.2</ele>
        <time>2024-05-26T09:44:23Z</time>
      </trkpt>
      <trkpt lat="49.27729" lon="-0.14696">
        <ele>-7.2</ele>
        <time>2024-05-26T09:44:24Z</time>
      </trkpt>
      <trkpt lat="49.27736" lon="-0.14686">
        <ele>-7.2</ele>
        <time>2024-05-26T09:44:25Z</time>
      </trkpt>
      <trkpt lat="49.27743" lon="-0.14676">
        <ele>-7.2</ele>
        <time>2024-05-26T09:44:26Z</time>
      </trkpt>
      <trkpt lat="49.2775" lon="-0.14667">
        <ele>-7.2</ele>
        <time>2024-05-26T09:44:27Z</time>
      </trkpt>
      <trkpt lat="49.27757" lon="-0.14658">
        <ele>-7.2</ele>
        <time>2024-05-26T09:44:28Z</time>
      </trkpt>
      <trkpt lat="49.27764" lon="-0.14648">
        <ele>-7.4</ele>
        <time>2024-05-26T09:44:29Z</time>
      </trkpt>
      <trkpt lat="49.27771" lon="-0.14638">
        <ele>-7.4</ele>
        <time>2024-05-26T09:44:30Z</time>
      </trkpt>
      <trkpt lat="49.27778" lon="-0.14627">
        <ele>-7.2</ele>
        <time>2024-05-26T09:44:31Z</time>
      </trkpt>
      <trkpt lat="49.27785" lon="-0.14617">
        <ele>-7.2</ele>
        <time>2024-05-26T09:44:32Z</time>
      </trkpt>
      <trkpt lat="49.27792" lon="-0.14606">
        <ele>-7.2</ele>
        <time>2024-05-26T09:44:33Z</time>
      </trkpt>
      <trkpt lat="49.27799" lon="-0.14596">
        <ele>-7</ele>
        <time>2024-05-26T09:44:34Z</time>
      </trkpt>
      <trkpt lat="49.27806" lon="-0.14586">
        <ele>-7</ele>
        <time>2024-05-26T09:44:35Z</time>
      </trkpt>
      <trkpt lat="49.27813" lon="-0.14575">
        <ele>-7</ele>
        <time>2024-05-26T09:44:36Z</time>
      </trkpt>
      <trkpt lat="49.2782" lon="-0.14565">
        <ele>-6.8</ele>
        <time>2024-05-26T09:44:37Z</time>
      </trkpt>
      <trkpt lat="49.27827" lon="-0.14554">
        <ele>-6.8</ele>
        <time>2024-05-26T09:44:38Z</time>
      </trkpt>
      <trkpt lat="49.27834" lon="-0.14544">
        <ele>-6.8</ele>
        <time>2024-05-26T09:44:39Z</time>
      </trkpt>
      <trkpt lat="49.27841" lon="-0.14533">
        <ele>-6.8</ele>
        <time>2024-05-26T09:44:40Z</time>
      </trkpt>
      <trkpt lat="49.27848" lon="-0.14523">
        <ele>-6.8</ele>
        <time>2024-05-26T09:44:41Z</time>
      </trkpt>
      <trkpt lat="49.27855" lon="-0.14513">
        <ele>-6.8</ele>
        <time>2024-05-26T09:44:42Z</time>
      </trkpt>
      <trkpt lat="49.27862" lon="-0.14502">
        <ele>-6.8</ele>
        <time>2024-05-26T09:44:43Z</time>
      </trkpt>
      <trkpt lat="49.27869" lon="-0.14492">
        <ele>-6.6</ele>
        <time>2024-05-26T09:44:44Z</time>
      </trkpt>
      <trkpt lat="49.27876" lon="-0.14482">
        <ele>-6.6</ele>
        <time>2024-05-26T09:44:45Z</time>
      </trkpt>
      <trkpt lat="49.27883" lon="-0.14472">
        <ele>-6.6</ele>
        <time>2024-05-26T09:44:46Z</time>
      </trkpt>
      <trkpt lat="49.2789" lon="-0.14462">
        <ele>-6.4</ele>
        <time>2024-05-26T09:44:47Z</time>
      </trkpt>
      <trkpt lat="49.27897" lon="-0.14451">
        <ele>-6.4</ele>
        <time>2024-05-26T09:44:48Z</time>
      </trkpt>
      <trkpt lat="49.27904" lon="-0.14441">
        <ele>-6.4</ele>
        <time>2024-05-26T09:44:49Z</time>
      </trkpt>
      <trkpt lat="49.27911" lon="-0.14431">
        <ele>-6.4</ele>
        <time>2024-05-26T09:44:50Z</time>
      </trkpt>
      <trkpt lat="49.27918" lon="-0.1442">
        <ele>-6.4</ele>
        <time>2024-05-26T09:44:51Z</time>
      </trkpt>
      <trkpt lat="49.27925" lon="-0.14409">
        <ele>-6.4</ele>
        <time>2024-05-26T09:44:52Z</time>
      </trkpt>
      <trkpt lat="49.27932" lon="-0.14399">
        <ele>-6.4</ele>
        <time>2024-05-26T09:44:53Z</time>
      </trkpt>
      <trkpt lat="49.27939" lon="-0.14388">
        <ele>-6.4</ele>
        <time>2024-05-26T09:44:54Z</time>
      </trkpt>
      <trkpt lat="49.27945" lon="-0.14377">
        <ele>-6.4</ele>
        <time>2024-05-26T09:44:55Z</time>
      </trkpt>
      <trkpt lat="49.27952" lon="-0.14367">
        <ele>-6.4</ele>
        <time>2024-05-26T09:44:56Z</time>
      </trkpt>
      <trkpt lat="49.27958" lon="-0.14355">
        <ele>-6.4</ele>
        <time>2024-05-26T09:44:57Z</time>
      </trkpt>
      <trkpt lat="49.27965" lon="-0.14344">
        <ele>-6.6</ele>
        <time>2024-05-26T09:44:58Z</time>
      </trkpt>
      <trkpt lat="49.27972" lon="-0.14333">
        <ele>-6.4</ele>
        <time>2024-05-26T09:44:59Z</time>
      </trkpt>
      <trkpt lat="49.27979" lon="-0.14322">
        <ele>-6.4</ele>
        <time>2024-05-26T09:45:00Z</time>
      </trkpt>
      <trkpt lat="49.27986" lon="-0.14312">
        <ele>-6.4</ele>
        <time>2024-05-26T09:45:01Z</time>
      </trkpt>
      <trkpt lat="49.27994" lon="-0.14302">
        <ele>-6.4</ele>
        <time>2024-05-26T09:45:02Z</time>
      </trkpt>
      <trkpt lat="49.28001" lon="-0.14291">
        <ele>-6.6</ele>
        <time>2024-05-26T09:45:03Z</time>
      </trkpt>
      <trkpt lat="49.28008" lon="-0.1428">
        <ele>-6.6</ele>
        <time>2024-05-26T09:45:04Z</time>
      </trkpt>
      <trkpt lat="49.28015" lon="-0.1427">
        <ele>-6.8</ele>
        <time>2024-05-26T09:45:05Z</time>
      </trkpt>
      <trkpt lat="49.28022" lon="-0.14259">
        <ele>-6.8</ele>
        <time>2024-05-26T09:45:06Z</time>
      </trkpt>
      <trkpt lat="49.2803" lon="-0.14249">
        <ele>-6.8</ele>
        <time>2024-05-26T09:45:07Z</time>
      </trkpt>
      <trkpt lat="49.28037" lon="-0.14238">
        <ele>-6.8</ele>
        <time>2024-05-26T09:45:08Z</time>
      </trkpt>
      <trkpt lat="49.28045" lon="-0.14226">
        <ele>-6.8</ele>
        <time>2024-05-26T09:45:09Z</time>
      </trkpt>
      <trkpt lat="49.28051" lon="-0.14219">
        <ele>-6.8</ele>
        <time>2024-05-26T09:45:10Z</time>
      </trkpt>
      <trkpt lat="49.28059" lon="-0.14209">
        <ele>-6.8</ele>
        <time>2024-05-26T09:45:11Z</time>
      </trkpt>
      <trkpt lat="49.28066" lon="-0.14199">
        <ele>-6.8</ele>
        <time>2024-05-26T09:45:12Z</time>
      </trkpt>
      <trkpt lat="49.28074" lon="-0.14188">
        <ele>-6.8</ele>
        <time>2024-05-26T09:45:13Z</time>
      </trkpt>
      <trkpt lat="49.28081" lon="-0.14178">
        <ele>-6.8</ele>
        <time>2024-05-26T09:45:14Z</time>
      </trkpt>
      <trkpt lat="49.28088" lon="-0.14167">
        <ele>-6.8</ele>
        <time>2024-05-26T09:45:15Z</time>
      </trkpt>
      <trkpt lat="49.28095" lon="-0.14157">
        <ele>-6.8</ele>
        <time>2024-05-26T09:45:16Z</time>
      </trkpt>
      <trkpt lat="49.28102" lon="-0.14146">
        <ele>-6.8</ele>
        <time>2024-05-26T09:45:17Z</time>
      </trkpt>
      <trkpt lat="49.28109" lon="-0.14136">
        <ele>-6.8</ele>
        <time>2024-05-26T09:45:18Z</time>
      </trkpt>
      <trkpt lat="49.28116" lon="-0.14126">
        <ele>-6.8</ele>
        <time>2024-05-26T09:45:19Z</time>
      </trkpt>
      <trkpt lat="49.28123" lon="-0.14115">
        <ele>-7</ele>
        <time>2024-05-26T09:45:20Z</time>
      </trkpt>
      <trkpt lat="49.2813" lon="-0.14105">
        <ele>-7</ele>
        <time>2024-05-26T09:45:21Z</time>
      </trkpt>
      <trkpt lat="49.28136" lon="-0.14095">
        <ele>-7</ele>
        <time>2024-05-26T09:45:22Z</time>
      </trkpt>
      <trkpt lat="49.28143" lon="-0.14084">
        <ele>-7</ele>
        <time>2024-05-26T09:45:23Z</time>
      </trkpt>
      <trkpt lat="49.28149" lon="-0.14073">
        <ele>-7.2</ele>
        <time>2024-05-26T09:45:24Z</time>
      </trkpt>
      <trkpt lat="49.28156" lon="-0.14062">
        <ele>-7.4</ele>
        <time>2024-05-26T09:45:25Z</time>
      </trkpt>
      <trkpt lat="49.28162" lon="-0.14051">
        <ele>-7.4</ele>
        <time>2024-05-26T09:45:26Z</time>
      </trkpt>
      <trkpt lat="49.28169" lon="-0.1404">
        <ele>-7.4</ele>
        <time>2024-05-26T09:45:27Z</time>
      </trkpt>
      <trkpt lat="49.28176" lon="-0.14028">
        <ele>-7.4</ele>
        <time>2024-05-26T09:45:28Z</time>
      </trkpt>
      <trkpt lat="49.28182" lon="-0.14017">
        <ele>-7.4</ele>
        <time>2024-05-26T09:45:29Z</time>
      </trkpt>
      <trkpt lat="49.28188" lon="-0.14005">
        <ele>-7.4</ele>
        <time>2024-05-26T09:45:30Z</time>
      </trkpt>
      <trkpt lat="49.28195" lon="-0.13993">
        <ele>-7.6</ele>
        <time>2024-05-26T09:45:31Z</time>
      </trkpt>
      <trkpt lat="49.28201" lon="-0.13981">
        <ele>-7.6</ele>
        <time>2024-05-26T09:45:32Z</time>
      </trkpt>
      <trkpt lat="49.28207" lon="-0.13969">
        <ele>-7.6</ele>
        <time>2024-05-26T09:45:33Z</time>
      </trkpt>
      <trkpt lat="49.28213" lon="-0.13957">
        <ele>-7.6</ele>
        <time>2024-05-26T09:45:34Z</time>
      </trkpt>
      <trkpt lat="49.28218" lon="-0.13945">
        <ele>-7.6</ele>
        <time>2024-05-26T09:45:35Z</time>
      </trkpt>
      <trkpt lat="49.28224" lon="-0.13933">
        <ele>-7.6</ele>
        <time>2024-05-26T09:45:36Z</time>
      </trkpt>
      <trkpt lat="49.28229" lon="-0.13921">
        <ele>-7.6</ele>
        <time>2024-05-26T09:45:37Z</time>
      </trkpt>
      <trkpt lat="49.28235" lon="-0.13908">
        <ele>-7.6</ele>
        <time>2024-05-26T09:45:38Z</time>
      </trkpt>
      <trkpt lat="49.2824" lon="-0.13896">
        <ele>-7.6</ele>
        <time>2024-05-26T09:45:39Z</time>
      </trkpt>
      <trkpt lat="49.28245" lon="-0.13883">
        <ele>-7.6</ele>
        <time>2024-05-26T09:45:40Z</time>
      </trkpt>
      <trkpt lat="49.2825" lon="-0.1387">
        <ele>-7.4</ele>
        <time>2024-05-26T09:45:41Z</time>
      </trkpt>
      <trkpt lat="49.28255" lon="-0.13857">
        <ele>-7.4</ele>
        <time>2024-05-26T09:45:42Z</time>
      </trkpt>
      <trkpt lat="49.28259" lon="-0.13844">
        <ele>-7.4</ele>
        <time>2024-05-26T09:45:43Z</time>
      </trkpt>
      <trkpt lat="49.28264" lon="-0.13831">
        <ele>-7.4</ele>
        <time>2024-05-26T09:45:44Z</time>
      </trkpt>
      <trkpt lat="49.28268" lon="-0.13817">
        <ele>-7.4</ele>
        <time>2024-05-26T09:45:45Z</time>
      </trkpt>
      <trkpt lat="49.28273" lon="-0.13804">
        <ele>-7.4</ele>
        <time>2024-05-26T09:45:46Z</time>
      </trkpt>
      <trkpt lat="49.28278" lon="-0.1379">
        <ele>-7.4</ele>
        <time>2024-05-26T09:45:47Z</time>
      </trkpt>
      <trkpt lat="49.28282" lon="-0.13776">
        <ele>-7.4</ele>
        <time>2024-05-26T09:45:48Z</time>
      </trkpt>
      <trkpt lat="49.28287" lon="-0.13762">
        <ele>-7.4</ele>
        <time>2024-05-26T09:45:49Z</time>
      </trkpt>
      <trkpt lat="49.28291" lon="-0.13748">
        <ele>-7.4</ele>
        <time>2024-05-26T09:45:50Z</time>
      </trkpt>
      <trkpt lat="49.28295" lon="-0.13733">
        <ele>-7.4</ele>
        <time>2024-05-26T09:45:51Z</time>
      </trkpt>
      <trkpt lat="49.28299" lon="-0.13719">
        <ele>-7.4</ele>
        <time>2024-05-26T09:45:52Z</time>
      </trkpt>
      <trkpt lat="49.28304" lon="-0.13705">
        <ele>-7.4</ele>
        <time>2024-05-26T09:45:53Z</time>
      </trkpt>
      <trkpt lat="49.28307" lon="-0.13691">
        <ele>-7.4</ele>
        <time>2024-05-26T09:45:54Z</time>
      </trkpt>
      <trkpt lat="49.28309" lon="-0.13677">
        <ele>-7.4</ele>
        <time>2024-05-26T09:45:55Z</time>
      </trkpt>
      <trkpt lat="49.2831" lon="-0.13662">
        <ele>-7.4</ele>
        <time>2024-05-26T09:45:56Z</time>
      </trkpt>
      <trkpt lat="49.28308" lon="-0.13649">
        <ele>-7.4</ele>
        <time>2024-05-26T09:45:57Z</time>
      </trkpt>
      <trkpt lat="49.28308" lon="-0.13636">
        <ele>-7.8</ele>
        <time>2024-05-26T09:45:58Z</time>
      </trkpt>
      <trkpt lat="49.2831" lon="-0.13624">
        <ele>-7.8</ele>
        <time>2024-05-26T09:45:59Z</time>
      </trkpt>
      <trkpt lat="49.28313" lon="-0.13614">
        <ele>-7.8</ele>
        <time>2024-05-26T09:46:00Z</time>
      </trkpt>
      <trkpt lat="49.28318" lon="-0.13603">
        <ele>-7.8</ele>
        <time>2024-05-26T09:46:01Z</time>
      </trkpt>
      <trkpt lat="49.28323" lon="-0.13592">
        <ele>-7.8</ele>
        <time>2024-05-26T09:46:02Z</time>
      </trkpt>
      <trkpt lat="49.28327" lon="-0.13579">
        <ele>-7.8</ele>
        <time>2024-05-26T09:46:03Z</time>
      </trkpt>
      <trkpt lat="49.28331" lon="-0.13566">
        <ele>-7.6</ele>
        <time>2024-05-26T09:46:04Z</time>
      </trkpt>
      <trkpt lat="49.28334" lon="-0.13552">
        <ele>-8</ele>
        <time>2024-05-26T09:46:05Z</time>
      </trkpt>
      <trkpt lat="49.28336" lon="-0.13538">
        <ele>-8</ele>
        <time>2024-05-26T09:46:06Z</time>
      </trkpt>
      <trkpt lat="49.2834" lon="-0.13524">
        <ele>-8</ele>
        <time>2024-05-26T09:46:07Z</time>
      </trkpt>
      <trkpt lat="49.28343" lon="-0.13509">
        <ele>-7.6</ele>
        <time>2024-05-26T09:46:08Z</time>
      </trkpt>
      <trkpt lat="49.28346" lon="-0.13494">
        <ele>-7.6</ele>
        <time>2024-05-26T09:46:09Z</time>
      </trkpt>
      <trkpt lat="49.2835" lon="-0.13479">
        <ele>-7.6</ele>
        <time>2024-05-26T09:46:10Z</time>
      </trkpt>
      <trkpt lat="49.28353" lon="-0.13464">
        <ele>-8</ele>
        <time>2024-05-26T09:46:11Z</time>
      </trkpt>
      <trkpt lat="49.28356" lon="-0.13448">
        <ele>-8</ele>
        <time>2024-05-26T09:46:12Z</time>
      </trkpt>
      <trkpt lat="49.28359" lon="-0.13432">
        <ele>-8</ele>
        <time>2024-05-26T09:46:13Z</time>
      </trkpt>
      <trkpt lat="49.28362" lon="-0.13417">
        <ele>-8</ele>
        <time>2024-05-26T09:46:14Z</time>
      </trkpt>
      <trkpt lat="49.28365" lon="-0.13401">
        <ele>-8</ele>
        <time>2024-05-26T09:46:15Z</time>
      </trkpt>
      <trkpt lat="49.28368" lon="-0.13385">
        <ele>-8</ele>
        <time>2024-05-26T09:46:16Z</time>
      </trkpt>
      <trkpt lat="49.28371" lon="-0.1337">
        <ele>-8</ele>
        <time>2024-05-26T09:46:17Z</time>
      </trkpt>
      <trkpt lat="49.28374" lon="-0.13354">
        <ele>-8</ele>
        <time>2024-05-26T09:46:18Z</time>
      </trkpt>
      <trkpt lat="49.28377" lon="-0.13338">
        <ele>-8.2</ele>
        <time>2024-05-26T09:46:19Z</time>
      </trkpt>
      <trkpt lat="49.2838" lon="-0.13322">
        <ele>-8.2</ele>
        <time>2024-05-26T09:46:20Z</time>
      </trkpt>
      <trkpt lat="49.28384" lon="-0.13307">
        <ele>-8.2</ele>
        <time>2024-05-26T09:46:21Z</time>
      </trkpt>
      <trkpt lat="49.28387" lon="-0.13291">
        <ele>-8.2</ele>
        <time>2024-05-26T09:46:22Z</time>
      </trkpt>
      <trkpt lat="49.2839" lon="-0.13275">
        <ele>-8.4</ele>
        <time>2024-05-26T09:46:23Z</time>
      </trkpt>
      <trkpt lat="49.28393" lon="-0.13259">
        <ele>-8.4</ele>
        <time>2024-05-26T09:46:24Z</time>
      </trkpt>
      <trkpt lat="49.28396" lon="-0.13243">
        <ele>-8.4</ele>
        <time>2024-05-26T09:46:25Z</time>
      </trkpt>
      <trkpt lat="49.28399" lon="-0.13227">
        <ele>-8.6</ele>
        <time>2024-05-26T09:46:26Z</time>
      </trkpt>
      <trkpt lat="49.28403" lon="-0.13211">
        <ele>-8.6</ele>
        <time>2024-05-26T09:46:27Z</time>
      </trkpt>
      <trkpt lat="49.28406" lon="-0.13195">
        <ele>-8.6</ele>
        <time>2024-05-26T09:46:28Z</time>
      </trkpt>
      <trkpt lat="49.28409" lon="-0.1318">
        <ele>-8.6</ele>
        <time>2024-05-26T09:46:29Z</time>
      </trkpt>
      <trkpt lat="49.28413" lon="-0.13164">
        <ele>-8.6</ele>
        <time>2024-05-26T09:46:30Z</time>
      </trkpt>
      <trkpt lat="49.28416" lon="-0.13148">
        <ele>-8.6</ele>
        <time>2024-05-26T09:46:31Z</time>
      </trkpt>
      <trkpt lat="49.28419" lon="-0.13132">
        <ele>-8.8</ele>
        <time>2024-05-26T09:46:32Z</time>
      </trkpt>
      <trkpt lat="49.28422" lon="-0.13116">
        <ele>-8.8</ele>
        <time>2024-05-26T09:46:33Z</time>
      </trkpt>
      <trkpt lat="49.28425" lon="-0.131">
        <ele>-8.8</ele>
        <time>2024-05-26T09:46:34Z</time>
      </trkpt>
      <trkpt lat="49.28429" lon="-0.13084">
        <ele>-8.8</ele>
        <time>2024-05-26T09:46:35Z</time>
      </trkpt>
      <trkpt lat="49.28432" lon="-0.13069">
        <ele>-8.8</ele>
        <time>2024-05-26T09:46:36Z</time>
      </trkpt>
      <trkpt lat="49.28435" lon="-0.13053">
        <ele>-8.8</ele>
        <time>2024-05-26T09:46:37Z</time>
      </trkpt>
      <trkpt lat="49.28438" lon="-0.13037">
        <ele>-8.8</ele>
        <time>2024-05-26T09:46:38Z</time>
      </trkpt>
      <trkpt lat="49.28442" lon="-0.13022">
        <ele>-8.8</ele>
        <time>2024-05-26T09:46:39Z</time>
      </trkpt>
      <trkpt lat="49.28445" lon="-0.13006">
        <ele>-8.8</ele>
        <time>2024-05-26T09:46:40Z</time>
      </trkpt>
      <trkpt lat="49.28448" lon="-0.12991">
        <ele>-8.6</ele>
        <time>2024-05-26T09:46:41Z</time>
      </trkpt>
      <trkpt lat="49.28451" lon="-0.12975">
        <ele>-8.6</ele>
        <time>2024-05-26T09:46:42Z</time>
      </trkpt>
      <trkpt lat="49.28454" lon="-0.12959">
        <ele>-8.6</ele>
        <time>2024-05-26T09:46:43Z</time>
      </trkpt>
      <trkpt lat="49.28457" lon="-0.12943">
        <ele>-8.6</ele>
        <time>2024-05-26T09:46:44Z</time>
      </trkpt>
      <trkpt lat="49.2846" lon="-0.12927">
        <ele>-8.6</ele>
        <time>2024-05-26T09:46:45Z</time>
      </trkpt>
      <trkpt lat="49.28463" lon="-0.12908">
        <ele>-8.6</ele>
        <time>2024-05-26T09:46:46Z</time>
      </trkpt>
      <trkpt lat="49.28466" lon="-0.12895">
        <ele>-8.6</ele>
        <time>2024-05-26T09:46:47Z</time>
      </trkpt>
      <trkpt lat="49.28469" lon="-0.12879">
        <ele>-8.6</ele>
        <time>2024-05-26T09:46:48Z</time>
      </trkpt>
      <trkpt lat="49.28472" lon="-0.12863">
        <ele>-8.6</ele>
        <time>2024-05-26T09:46:49Z</time>
      </trkpt>
      <trkpt lat="49.28476" lon="-0.12847">
        <ele>-8.6</ele>
        <time>2024-05-26T09:46:50Z</time>
      </trkpt>
      <trkpt lat="49.28479" lon="-0.12831">
        <ele>-8.6</ele>
        <time>2024-05-26T09:46:51Z</time>
      </trkpt>
      <trkpt lat="49.28482" lon="-0.12814">
        <ele>-8.6</ele>
        <time>2024-05-26T09:46:52Z</time>
      </trkpt>
      <trkpt lat="49.28486" lon="-0.12798">
        <ele>-8.6</ele>
        <time>2024-05-26T09:46:53Z</time>
      </trkpt>
      <trkpt lat="49.28489" lon="-0.12782">
        <ele>-8.6</ele>
        <time>2024-05-26T09:46:54Z</time>
      </trkpt>
      <trkpt lat="49.28492" lon="-0.12766">
        <ele>-8.6</ele>
        <time>2024-05-26T09:46:55Z</time>
      </trkpt>
      <trkpt lat="49.28495" lon="-0.12749">
        <ele>-8.4</ele>
        <time>2024-05-26T09:46:56Z</time>
      </trkpt>
      <trkpt lat="49.28499" lon="-0.12733">
        <ele>-8.4</ele>
        <time>2024-05-26T09:46:57Z</time>
      </trkpt>
      <trkpt lat="49.28502" lon="-0.12717">
        <ele>-8.4</ele>
        <time>2024-05-26T09:46:58Z</time>
      </trkpt>
      <trkpt lat="49.28506" lon="-0.12701">
        <ele>-8.4</ele>
        <time>2024-05-26T09:46:59Z</time>
      </trkpt>
      <trkpt lat="49.28509" lon="-0.12684">
        <ele>-8.6</ele>
        <time>2024-05-26T09:47:00Z</time>
      </trkpt>
      <trkpt lat="49.28512" lon="-0.12668">
        <ele>-8.6</ele>
        <time>2024-05-26T09:47:01Z</time>
      </trkpt>
      <trkpt lat="49.28515" lon="-0.12652">
        <ele>-8.6</ele>
        <time>2024-05-26T09:47:02Z</time>
      </trkpt>
      <trkpt lat="49.28518" lon="-0.12636">
        <ele>-8.6</ele>
        <time>2024-05-26T09:47:03Z</time>
      </trkpt>
      <trkpt lat="49.2852" lon="-0.12621">
        <ele>-8.6</ele>
        <time>2024-05-26T09:47:04Z</time>
      </trkpt>
      <trkpt lat="49.28523" lon="-0.12606">
        <ele>-8.6</ele>
        <time>2024-05-26T09:47:05Z</time>
      </trkpt>
      <trkpt lat="49.28524" lon="-0.12593">
        <ele>-8.6</ele>
        <time>2024-05-26T09:47:06Z</time>
      </trkpt>
      <trkpt lat="49.28524" lon="-0.12579">
        <ele>-8.8</ele>
        <time>2024-05-26T09:47:07Z</time>
      </trkpt>
      <trkpt lat="49.28522" lon="-0.12567">
        <ele>-8.8</ele>
        <time>2024-05-26T09:47:08Z</time>
      </trkpt>
      <trkpt lat="49.28521" lon="-0.12554">
        <ele>-9</ele>
        <time>2024-05-26T09:47:09Z</time>
      </trkpt>
      <trkpt lat="49.28522" lon="-0.12543">
        <ele>-9</ele>
        <time>2024-05-26T09:47:10Z</time>
      </trkpt>
      <trkpt lat="49.28525" lon="-0.12532">
        <ele>-9</ele>
        <time>2024-05-26T09:47:11Z</time>
      </trkpt>
      <trkpt lat="49.2853" lon="-0.12523">
        <ele>-9</ele>
        <time>2024-05-26T09:47:12Z</time>
      </trkpt>
      <trkpt lat="49.28535" lon="-0.12514">
        <ele>-8.8</ele>
        <time>2024-05-26T09:47:13Z</time>
      </trkpt>
      <trkpt lat="49.2854" lon="-0.12505">
        <ele>-8.6</ele>
        <time>2024-05-26T09:47:14Z</time>
      </trkpt>
      <trkpt lat="49.28544" lon="-0.12495">
        <ele>-8.6</ele>
        <time>2024-05-26T09:47:15Z</time>
      </trkpt>
      <trkpt lat="49.28546" lon="-0.12483">
        <ele>-8.6</ele>
        <time>2024-05-26T09:47:16Z</time>
      </trkpt>
      <trkpt lat="49.28548" lon="-0.12471">
        <ele>-8.6</ele>
        <time>2024-05-26T09:47:17Z</time>
      </trkpt>
      <trkpt lat="49.2855" lon="-0.12459">
        <ele>-8.4</ele>
        <time>2024-05-26T09:47:18Z</time>
      </trkpt>
      <trkpt lat="49.28552" lon="-0.12448">
        <ele>-8.4</ele>
        <time>2024-05-26T09:47:19Z</time>
      </trkpt>
      <trkpt lat="49.28554" lon="-0.12436">
        <ele>-8.4</ele>
        <time>2024-05-26T09:47:20Z</time>
      </trkpt>
      <trkpt lat="49.28557" lon="-0.12425">
        <ele>-8.2</ele>
        <time>2024-05-26T09:47:21Z</time>
      </trkpt>
      <trkpt lat="49.28559" lon="-0.12413">
        <ele>-8.2</ele>
        <time>2024-05-26T09:47:22Z</time>
      </trkpt>
      <trkpt lat="49.28561" lon="-0.12402">
        <ele>-8.2</ele>
        <time>2024-05-26T09:47:23Z</time>
      </trkpt>
      <trkpt lat="49.28564" lon="-0.12391">
        <ele>-8.2</ele>
        <time>2024-05-26T09:47:24Z</time>
      </trkpt>
      <trkpt lat="49.28566" lon="-0.12379">
        <ele>-8.2</ele>
        <time>2024-05-26T09:47:25Z</time>
      </trkpt>
      <trkpt lat="49.28568" lon="-0.12368">
        <ele>-8</ele>
        <time>2024-05-26T09:47:26Z</time>
      </trkpt>
      <trkpt lat="49.28571" lon="-0.12356">
        <ele>-8</ele>
        <time>2024-05-26T09:47:27Z</time>
      </trkpt>
      <trkpt lat="49.28573" lon="-0.12345">
        <ele>-8</ele>
        <time>2024-05-26T09:47:28Z</time>
      </trkpt>
      <trkpt lat="49.28576" lon="-0.12333">
        <ele>-8</ele>
        <time>2024-05-26T09:47:29Z</time>
      </trkpt>
      <trkpt lat="49.28578" lon="-0.12322">
        <ele>-8</ele>
        <time>2024-05-26T09:47:30Z</time>
      </trkpt>
      <trkpt lat="49.2858" lon="-0.12311">
        <ele>-8</ele>
        <time>2024-05-26T09:47:31Z</time>
      </trkpt>
      <trkpt lat="49.28582" lon="-0.12299">
        <ele>-8</ele>
        <time>2024-05-26T09:47:32Z</time>
      </trkpt>
      <trkpt lat="49.28584" lon="-0.12288">
        <ele>-8</ele>
        <time>2024-05-26T09:47:33Z</time>
      </trkpt>
      <trkpt lat="49.28586" lon="-0.12277">
        <ele>-8</ele>
        <time>2024-05-26T09:47:34Z</time>
      </trkpt>
      <trkpt lat="49.28589" lon="-0.12266">
        <ele>-8</ele>
        <time>2024-05-26T09:47:35Z</time>
      </trkpt>
      <trkpt lat="49.28591" lon="-0.12255">
        <ele>-8</ele>
        <time>2024-05-26T09:47:36Z</time>
      </trkpt>
      <trkpt lat="49.28593" lon="-0.12243">
        <ele>-8</ele>
        <time>2024-05-26T09:47:37Z</time>
      </trkpt>
      <trkpt lat="49.28595" lon="-0.12232">
        <ele>-8</ele>
        <time>2024-05-26T09:47:38Z</time>
      </trkpt>
      <trkpt lat="49.28597" lon="-0.12221">
        <ele>-8</ele>
        <time>2024-05-26T09:47:39Z</time>
      </trkpt>
      <trkpt lat="49.28599" lon="-0.1221">
        <ele>-8</ele>
        <time>2024-05-26T09:47:40Z</time>
      </trkpt>
      <trkpt lat="49.28602" lon="-0.122">
        <ele>-7.8</ele>
        <time>2024-05-26T09:47:41Z</time>
      </trkpt>
      <trkpt lat="49.28604" lon="-0.12189">
        <ele>-7.8</ele>
        <time>2024-05-26T09:47:42Z</time>
      </trkpt>
      <trkpt lat="49.28606" lon="-0.12178">
        <ele>-7.8</ele>
        <time>2024-05-26T09:47:43Z</time>
      </trkpt>
      <trkpt lat="49.28608" lon="-0.12167">
        <ele>-7.8</ele>
        <time>2024-05-26T09:47:44Z</time>
      </trkpt>
      <trkpt lat="49.2861" lon="-0.12156">
        <ele>-7.8</ele>
        <time>2024-05-26T09:47:45Z</time>
      </trkpt>
      <trkpt lat="49.28612" lon="-0.12145">
        <ele>-7.8</ele>
        <time>2024-05-26T09:47:46Z</time>
      </trkpt>
      <trkpt lat="49.28614" lon="-0.12134">
        <ele>-7.8</ele>
        <time>2024-05-26T09:47:47Z</time>
      </trkpt>
      <trkpt lat="49.28616" lon="-0.12124">
        <ele>-7.8</ele>
        <time>2024-05-26T09:47:48Z</time>
      </trkpt>
      <trkpt lat="49.28618" lon="-0.12113">
        <ele>-7.8</ele>
        <time>2024-05-26T09:47:49Z</time>
      </trkpt>
      <trkpt lat="49.2862" lon="-0.12102">
        <ele>-7.8</ele>
        <time>2024-05-26T09:47:50Z</time>
      </trkpt>
      <trkpt lat="49.28622" lon="-0.12092">
        <ele>-7.8</ele>
        <time>2024-05-26T09:47:51Z</time>
      </trkpt>
      <trkpt lat="49.28624" lon="-0.12081">
        <ele>-7.8</ele>
        <time>2024-05-26T09:47:52Z</time>
      </trkpt>
      <trkpt lat="49.28626" lon="-0.12071">
        <ele>-7.8</ele>
        <time>2024-05-26T09:47:53Z</time>
      </trkpt>
      <trkpt lat="49.28628" lon="-0.1206">
        <ele>-7.8</ele>
        <time>2024-05-26T09:47:54Z</time>
      </trkpt>
      <trkpt lat="49.2863" lon="-0.12051">
        <ele>-7.6</ele>
        <time>2024-05-26T09:47:55Z</time>
      </trkpt>
      <trkpt lat="49.28632" lon="-0.12041">
        <ele>-7.6</ele>
        <time>2024-05-26T09:47:56Z</time>
      </trkpt>
      <trkpt lat="49.28634" lon="-0.12031">
        <ele>-7.6</ele>
        <time>2024-05-26T09:47:57Z</time>
      </trkpt>
      <trkpt lat="49.28636" lon="-0.12022">
        <ele>-7.6</ele>
        <time>2024-05-26T09:47:58Z</time>
      </trkpt>
      <trkpt lat="49.28638" lon="-0.12013">
        <ele>-7.6</ele>
        <time>2024-05-26T09:47:59Z</time>
      </trkpt>
      <trkpt lat="49.28639" lon="-0.12003">
        <ele>-7.6</ele>
        <time>2024-05-26T09:48:00Z</time>
      </trkpt>
      <trkpt lat="49.28641" lon="-0.11994">
        <ele>-7.6</ele>
        <time>2024-05-26T09:48:01Z</time>
      </trkpt>
      <trkpt lat="49.28643" lon="-0.11986">
        <ele>-7.6</ele>
        <time>2024-05-26T09:48:02Z</time>
      </trkpt>
      <trkpt lat="49.28644" lon="-0.11979">
        <ele>-7.6</ele>
        <time>2024-05-26T09:48:03Z</time>
      </trkpt>
      <trkpt lat="49.28646" lon="-0.1197">
        <ele>-7.6</ele>
        <time>2024-05-26T09:48:04Z</time>
      </trkpt>
      <trkpt lat="49.28648" lon="-0.11962">
        <ele>-7.6</ele>
        <time>2024-05-26T09:48:05Z</time>
      </trkpt>
      <trkpt lat="49.28649" lon="-0.11954">
        <ele>-7.6</ele>
        <time>2024-05-26T09:48:06Z</time>
      </trkpt>
      <trkpt lat="49.28651" lon="-0.11947">
        <ele>-7.4</ele>
        <time>2024-05-26T09:48:07Z</time>
      </trkpt>
      <trkpt lat="49.28652" lon="-0.11939">
        <ele>-7.4</ele>
        <time>2024-05-26T09:48:08Z</time>
      </trkpt>
      <trkpt lat="49.28652" lon="-0.11933">
        <ele>-7.4</ele>
        <time>2024-05-26T09:48:09Z</time>
      </trkpt>
      <trkpt lat="49.28653" lon="-0.11928">
        <ele>-7.2</ele>
        <time>2024-05-26T09:48:10Z</time>
      </trkpt>
      <trkpt lat="49.28654" lon="-0.11923">
        <ele>-7.2</ele>
        <time>2024-05-26T09:48:11Z</time>
      </trkpt>
      <trkpt lat="49.28654" lon="-0.11921">
        <ele>-7.2</ele>
        <time>2024-05-26T09:48:12Z</time>
      </trkpt>
      <trkpt lat="49.28654" lon="-0.11919">
        <ele>-7</ele>
        <time>2024-05-26T09:48:13Z</time>
      </trkpt>
      <trkpt lat="49.28654" lon="-0.11919">
        <ele>-7</ele>
        <time>2024-05-26T09:48:14Z</time>
      </trkpt>
      <trkpt lat="49.28654" lon="-0.11919">
        <ele>-7</ele>
        <time>2024-05-26T09:48:15Z</time>
      </trkpt>
    </trkseg>
  </trk>
</gpx>